<?xml version="1.0" encoding="UTF-8"?>
<gpx xmlns="http://www.topografix.com/GPX/1/1"
     creator="GpsDump 4.71"
     version="1.1"
     xmlns:xsi="http://www.w3.org/2001/XMLSchema-instance"
     xsi:schemaLocation="http://www.topografix.com/GPX/1/1 http://www.topografix.com/GPX/1/1/gpx.xsd">
  <metadata>
    <link href="http://www.gethome.no/stein.sorensen/">
      <text>GPS dump for www.flightlog.org</text>
    </link>
    <time>2013-09-05T17:09:13Z</time>
    <bounds minlat="42.990800" minlon="-4.771400" maxlat="43.114733" maxlon="-4.571183"/>
  </metadata>
  <trk>
    <name>Track 001</name>
    <trkseg>
      <trkpt lat="43.076417" lon="-4.755333">
        <ele>1768.0</ele>
        <time>2013-09-04T12:23:29Z</time>
      </trkpt>
      <trkpt lat="43.076450" lon="-4.755300">
        <ele>1768.0</ele>
        <time>2013-09-04T12:23:30Z</time>
      </trkpt>
      <trkpt lat="43.076500" lon="-4.755250">
        <ele>1767.0</ele>
        <time>2013-09-04T12:23:31Z</time>
      </trkpt>
      <trkpt lat="43.076550" lon="-4.755217">
        <ele>1767.0</ele>
        <time>2013-09-04T12:23:32Z</time>
      </trkpt>
      <trkpt lat="43.076600" lon="-4.755167">
        <ele>1767.0</ele>
        <time>2013-09-04T12:23:33Z</time>
      </trkpt>
      <trkpt lat="43.076633" lon="-4.755083">
        <ele>1767.0</ele>
        <time>2013-09-04T12:23:34Z</time>
      </trkpt>
      <trkpt lat="43.076650" lon="-4.755017">
        <ele>1767.0</ele>
        <time>2013-09-04T12:23:35Z</time>
      </trkpt>
      <trkpt lat="43.076667" lon="-4.754917">
        <ele>1767.0</ele>
        <time>2013-09-04T12:23:36Z</time>
      </trkpt>
      <trkpt lat="43.076683" lon="-4.754833">
        <ele>1767.0</ele>
        <time>2013-09-04T12:23:37Z</time>
      </trkpt>
      <trkpt lat="43.076700" lon="-4.754750">
        <ele>1767.0</ele>
        <time>2013-09-04T12:23:38Z</time>
      </trkpt>
      <trkpt lat="43.076717" lon="-4.754667">
        <ele>1766.0</ele>
        <time>2013-09-04T12:23:39Z</time>
      </trkpt>
      <trkpt lat="43.076733" lon="-4.754600">
        <ele>1766.0</ele>
        <time>2013-09-04T12:23:40Z</time>
      </trkpt>
      <trkpt lat="43.076733" lon="-4.754483">
        <ele>1765.0</ele>
        <time>2013-09-04T12:23:41Z</time>
      </trkpt>
      <trkpt lat="43.076717" lon="-4.754400">
        <ele>1764.0</ele>
        <time>2013-09-04T12:23:42Z</time>
      </trkpt>
      <trkpt lat="43.076683" lon="-4.754300">
        <ele>1763.0</ele>
        <time>2013-09-04T12:23:43Z</time>
      </trkpt>
      <trkpt lat="43.076683" lon="-4.754167">
        <ele>1762.0</ele>
        <time>2013-09-04T12:23:44Z</time>
      </trkpt>
      <trkpt lat="43.076683" lon="-4.754067">
        <ele>1761.0</ele>
        <time>2013-09-04T12:23:45Z</time>
      </trkpt>
      <trkpt lat="43.076683" lon="-4.753967">
        <ele>1761.0</ele>
        <time>2013-09-04T12:23:46Z</time>
      </trkpt>
      <trkpt lat="43.076683" lon="-4.753883">
        <ele>1760.0</ele>
        <time>2013-09-04T12:23:47Z</time>
      </trkpt>
      <trkpt lat="43.076683" lon="-4.753783">
        <ele>1759.0</ele>
        <time>2013-09-04T12:23:48Z</time>
      </trkpt>
      <trkpt lat="43.076683" lon="-4.753700">
        <ele>1759.0</ele>
        <time>2013-09-04T12:23:49Z</time>
      </trkpt>
      <trkpt lat="43.076700" lon="-4.753617">
        <ele>1759.0</ele>
        <time>2013-09-04T12:23:50Z</time>
      </trkpt>
      <trkpt lat="43.076683" lon="-4.753500">
        <ele>1759.0</ele>
        <time>2013-09-04T12:23:51Z</time>
      </trkpt>
      <trkpt lat="43.076633" lon="-4.753383">
        <ele>1758.0</ele>
        <time>2013-09-04T12:23:52Z</time>
      </trkpt>
      <trkpt lat="43.076583" lon="-4.753283">
        <ele>1757.0</ele>
        <time>2013-09-04T12:23:53Z</time>
      </trkpt>
      <trkpt lat="43.076533" lon="-4.753183">
        <ele>1756.0</ele>
        <time>2013-09-04T12:23:54Z</time>
      </trkpt>
      <trkpt lat="43.076500" lon="-4.753117">
        <ele>1754.0</ele>
        <time>2013-09-04T12:23:55Z</time>
      </trkpt>
      <trkpt lat="43.076467" lon="-4.753033">
        <ele>1753.0</ele>
        <time>2013-09-04T12:23:56Z</time>
      </trkpt>
      <trkpt lat="43.076433" lon="-4.752933">
        <ele>1752.0</ele>
        <time>2013-09-04T12:23:57Z</time>
      </trkpt>
      <trkpt lat="43.076400" lon="-4.752817">
        <ele>1751.0</ele>
        <time>2013-09-04T12:23:58Z</time>
      </trkpt>
      <trkpt lat="43.076367" lon="-4.752700">
        <ele>1752.0</ele>
        <time>2013-09-04T12:23:59Z</time>
      </trkpt>
      <trkpt lat="43.076333" lon="-4.752600">
        <ele>1751.0</ele>
        <time>2013-09-04T12:24:00Z</time>
      </trkpt>
      <trkpt lat="43.076317" lon="-4.752517">
        <ele>1750.0</ele>
        <time>2013-09-04T12:24:01Z</time>
      </trkpt>
      <trkpt lat="43.076283" lon="-4.752417">
        <ele>1748.0</ele>
        <time>2013-09-04T12:24:02Z</time>
      </trkpt>
      <trkpt lat="43.076267" lon="-4.752317">
        <ele>1747.0</ele>
        <time>2013-09-04T12:24:03Z</time>
      </trkpt>
      <trkpt lat="43.076250" lon="-4.752217">
        <ele>1745.0</ele>
        <time>2013-09-04T12:24:04Z</time>
      </trkpt>
      <trkpt lat="43.076233" lon="-4.752117">
        <ele>1744.0</ele>
        <time>2013-09-04T12:24:05Z</time>
      </trkpt>
      <trkpt lat="43.076217" lon="-4.752000">
        <ele>1743.0</ele>
        <time>2013-09-04T12:24:06Z</time>
      </trkpt>
      <trkpt lat="43.076200" lon="-4.751900">
        <ele>1743.0</ele>
        <time>2013-09-04T12:24:07Z</time>
      </trkpt>
      <trkpt lat="43.076183" lon="-4.751800">
        <ele>1742.0</ele>
        <time>2013-09-04T12:24:08Z</time>
      </trkpt>
      <trkpt lat="43.076167" lon="-4.751683">
        <ele>1741.0</ele>
        <time>2013-09-04T12:24:09Z</time>
      </trkpt>
      <trkpt lat="43.076167" lon="-4.751583">
        <ele>1740.0</ele>
        <time>2013-09-04T12:24:10Z</time>
      </trkpt>
      <trkpt lat="43.076167" lon="-4.751467">
        <ele>1740.0</ele>
        <time>2013-09-04T12:24:11Z</time>
      </trkpt>
      <trkpt lat="43.076167" lon="-4.751367">
        <ele>1740.0</ele>
        <time>2013-09-04T12:24:12Z</time>
      </trkpt>
      <trkpt lat="43.076167" lon="-4.751267">
        <ele>1741.0</ele>
        <time>2013-09-04T12:24:13Z</time>
      </trkpt>
      <trkpt lat="43.076150" lon="-4.751183">
        <ele>1742.0</ele>
        <time>2013-09-04T12:24:14Z</time>
      </trkpt>
      <trkpt lat="43.076133" lon="-4.751117">
        <ele>1741.0</ele>
        <time>2013-09-04T12:24:15Z</time>
      </trkpt>
      <trkpt lat="43.076117" lon="-4.751033">
        <ele>1741.0</ele>
        <time>2013-09-04T12:24:16Z</time>
      </trkpt>
      <trkpt lat="43.076117" lon="-4.750950">
        <ele>1741.0</ele>
        <time>2013-09-04T12:24:17Z</time>
      </trkpt>
      <trkpt lat="43.076117" lon="-4.750850">
        <ele>1742.0</ele>
        <time>2013-09-04T12:24:18Z</time>
      </trkpt>
      <trkpt lat="43.076117" lon="-4.750783">
        <ele>1742.0</ele>
        <time>2013-09-04T12:24:19Z</time>
      </trkpt>
      <trkpt lat="43.076117" lon="-4.750717">
        <ele>1743.0</ele>
        <time>2013-09-04T12:24:20Z</time>
      </trkpt>
      <trkpt lat="43.076133" lon="-4.750633">
        <ele>1743.0</ele>
        <time>2013-09-04T12:24:21Z</time>
      </trkpt>
      <trkpt lat="43.076133" lon="-4.750567">
        <ele>1744.0</ele>
        <time>2013-09-04T12:24:22Z</time>
      </trkpt>
      <trkpt lat="43.076133" lon="-4.750517">
        <ele>1746.0</ele>
        <time>2013-09-04T12:24:23Z</time>
      </trkpt>
      <trkpt lat="43.076133" lon="-4.750483">
        <ele>1747.0</ele>
        <time>2013-09-04T12:24:24Z</time>
      </trkpt>
      <trkpt lat="43.076133" lon="-4.750433">
        <ele>1749.0</ele>
        <time>2013-09-04T12:24:25Z</time>
      </trkpt>
      <trkpt lat="43.076117" lon="-4.750400">
        <ele>1750.0</ele>
        <time>2013-09-04T12:24:26Z</time>
      </trkpt>
      <trkpt lat="43.076100" lon="-4.750367">
        <ele>1750.0</ele>
        <time>2013-09-04T12:24:27Z</time>
      </trkpt>
      <trkpt lat="43.076100" lon="-4.750333">
        <ele>1751.0</ele>
        <time>2013-09-04T12:24:28Z</time>
      </trkpt>
      <trkpt lat="43.076083" lon="-4.750283">
        <ele>1751.0</ele>
        <time>2013-09-04T12:24:29Z</time>
      </trkpt>
      <trkpt lat="43.076100" lon="-4.750233">
        <ele>1750.0</ele>
        <time>2013-09-04T12:24:30Z</time>
      </trkpt>
      <trkpt lat="43.076100" lon="-4.750183">
        <ele>1750.0</ele>
        <time>2013-09-04T12:24:31Z</time>
      </trkpt>
      <trkpt lat="43.076100" lon="-4.750117">
        <ele>1750.0</ele>
        <time>2013-09-04T12:24:32Z</time>
      </trkpt>
      <trkpt lat="43.076117" lon="-4.750050">
        <ele>1752.0</ele>
        <time>2013-09-04T12:24:33Z</time>
      </trkpt>
      <trkpt lat="43.076100" lon="-4.750000">
        <ele>1753.0</ele>
        <time>2013-09-04T12:24:34Z</time>
      </trkpt>
      <trkpt lat="43.076100" lon="-4.749917">
        <ele>1756.0</ele>
        <time>2013-09-04T12:24:35Z</time>
      </trkpt>
      <trkpt lat="43.076133" lon="-4.749850">
        <ele>1758.0</ele>
        <time>2013-09-04T12:24:36Z</time>
      </trkpt>
      <trkpt lat="43.076150" lon="-4.749783">
        <ele>1761.0</ele>
        <time>2013-09-04T12:24:37Z</time>
      </trkpt>
      <trkpt lat="43.076150" lon="-4.749733">
        <ele>1763.0</ele>
        <time>2013-09-04T12:24:38Z</time>
      </trkpt>
      <trkpt lat="43.076150" lon="-4.749700">
        <ele>1765.0</ele>
        <time>2013-09-04T12:24:39Z</time>
      </trkpt>
      <trkpt lat="43.076133" lon="-4.749633">
        <ele>1766.0</ele>
        <time>2013-09-04T12:24:40Z</time>
      </trkpt>
      <trkpt lat="43.076133" lon="-4.749567">
        <ele>1767.0</ele>
        <time>2013-09-04T12:24:41Z</time>
      </trkpt>
      <trkpt lat="43.076117" lon="-4.749500">
        <ele>1766.0</ele>
        <time>2013-09-04T12:24:42Z</time>
      </trkpt>
      <trkpt lat="43.076067" lon="-4.749450">
        <ele>1766.0</ele>
        <time>2013-09-04T12:24:43Z</time>
      </trkpt>
      <trkpt lat="43.076000" lon="-4.749450">
        <ele>1762.0</ele>
        <time>2013-09-04T12:24:44Z</time>
      </trkpt>
      <trkpt lat="43.075900" lon="-4.749517">
        <ele>1760.0</ele>
        <time>2013-09-04T12:24:45Z</time>
      </trkpt>
      <trkpt lat="43.075800" lon="-4.749633">
        <ele>1760.0</ele>
        <time>2013-09-04T12:24:46Z</time>
      </trkpt>
      <trkpt lat="43.075733" lon="-4.749767">
        <ele>1761.0</ele>
        <time>2013-09-04T12:24:47Z</time>
      </trkpt>
      <trkpt lat="43.075700" lon="-4.749917">
        <ele>1761.0</ele>
        <time>2013-09-04T12:24:48Z</time>
      </trkpt>
      <trkpt lat="43.075717" lon="-4.750050">
        <ele>1761.0</ele>
        <time>2013-09-04T12:24:49Z</time>
      </trkpt>
      <trkpt lat="43.075750" lon="-4.750167">
        <ele>1761.0</ele>
        <time>2013-09-04T12:24:50Z</time>
      </trkpt>
      <trkpt lat="43.075800" lon="-4.750283">
        <ele>1761.0</ele>
        <time>2013-09-04T12:24:51Z</time>
      </trkpt>
      <trkpt lat="43.075850" lon="-4.750383">
        <ele>1762.0</ele>
        <time>2013-09-04T12:24:52Z</time>
      </trkpt>
      <trkpt lat="43.075917" lon="-4.750483">
        <ele>1763.0</ele>
        <time>2013-09-04T12:24:53Z</time>
      </trkpt>
      <trkpt lat="43.076000" lon="-4.750533">
        <ele>1767.0</ele>
        <time>2013-09-04T12:24:54Z</time>
      </trkpt>
      <trkpt lat="43.076083" lon="-4.750567">
        <ele>1771.0</ele>
        <time>2013-09-04T12:24:55Z</time>
      </trkpt>
      <trkpt lat="43.076133" lon="-4.750583">
        <ele>1774.0</ele>
        <time>2013-09-04T12:24:56Z</time>
      </trkpt>
      <trkpt lat="43.076183" lon="-4.750617">
        <ele>1778.0</ele>
        <time>2013-09-04T12:24:57Z</time>
      </trkpt>
      <trkpt lat="43.076233" lon="-4.750667">
        <ele>1780.0</ele>
        <time>2013-09-04T12:24:58Z</time>
      </trkpt>
      <trkpt lat="43.076267" lon="-4.750733">
        <ele>1780.0</ele>
        <time>2013-09-04T12:24:59Z</time>
      </trkpt>
      <trkpt lat="43.076300" lon="-4.750850">
        <ele>1780.0</ele>
        <time>2013-09-04T12:25:00Z</time>
      </trkpt>
      <trkpt lat="43.076300" lon="-4.750967">
        <ele>1780.0</ele>
        <time>2013-09-04T12:25:01Z</time>
      </trkpt>
      <trkpt lat="43.076283" lon="-4.751117">
        <ele>1778.0</ele>
        <time>2013-09-04T12:25:02Z</time>
      </trkpt>
      <trkpt lat="43.076217" lon="-4.751233">
        <ele>1777.0</ele>
        <time>2013-09-04T12:25:03Z</time>
      </trkpt>
      <trkpt lat="43.076117" lon="-4.751317">
        <ele>1777.0</ele>
        <time>2013-09-04T12:25:04Z</time>
      </trkpt>
      <trkpt lat="43.076017" lon="-4.751333">
        <ele>1777.0</ele>
        <time>2013-09-04T12:25:05Z</time>
      </trkpt>
      <trkpt lat="43.075950" lon="-4.751267">
        <ele>1779.0</ele>
        <time>2013-09-04T12:25:06Z</time>
      </trkpt>
      <trkpt lat="43.075900" lon="-4.751183">
        <ele>1781.0</ele>
        <time>2013-09-04T12:25:07Z</time>
      </trkpt>
      <trkpt lat="43.075883" lon="-4.751100">
        <ele>1784.0</ele>
        <time>2013-09-04T12:25:08Z</time>
      </trkpt>
      <trkpt lat="43.075867" lon="-4.751033">
        <ele>1788.0</ele>
        <time>2013-09-04T12:25:09Z</time>
      </trkpt>
      <trkpt lat="43.075850" lon="-4.750967">
        <ele>1791.0</ele>
        <time>2013-09-04T12:25:10Z</time>
      </trkpt>
      <trkpt lat="43.075833" lon="-4.750900">
        <ele>1794.0</ele>
        <time>2013-09-04T12:25:11Z</time>
      </trkpt>
      <trkpt lat="43.075850" lon="-4.750833">
        <ele>1795.0</ele>
        <time>2013-09-04T12:25:12Z</time>
      </trkpt>
      <trkpt lat="43.075883" lon="-4.750750">
        <ele>1796.0</ele>
        <time>2013-09-04T12:25:13Z</time>
      </trkpt>
      <trkpt lat="43.075933" lon="-4.750733">
        <ele>1798.0</ele>
        <time>2013-09-04T12:25:14Z</time>
      </trkpt>
      <trkpt lat="43.076017" lon="-4.750783">
        <ele>1799.0</ele>
        <time>2013-09-04T12:25:15Z</time>
      </trkpt>
      <trkpt lat="43.076050" lon="-4.750900">
        <ele>1799.0</ele>
        <time>2013-09-04T12:25:16Z</time>
      </trkpt>
      <trkpt lat="43.076067" lon="-4.751083">
        <ele>1800.0</ele>
        <time>2013-09-04T12:25:17Z</time>
      </trkpt>
      <trkpt lat="43.076050" lon="-4.751233">
        <ele>1803.0</ele>
        <time>2013-09-04T12:25:18Z</time>
      </trkpt>
      <trkpt lat="43.076000" lon="-4.751350">
        <ele>1806.0</ele>
        <time>2013-09-04T12:25:19Z</time>
      </trkpt>
      <trkpt lat="43.075950" lon="-4.751417">
        <ele>1808.0</ele>
        <time>2013-09-04T12:25:20Z</time>
      </trkpt>
      <trkpt lat="43.075883" lon="-4.751450">
        <ele>1810.0</ele>
        <time>2013-09-04T12:25:21Z</time>
      </trkpt>
      <trkpt lat="43.075800" lon="-4.751467">
        <ele>1809.0</ele>
        <time>2013-09-04T12:25:22Z</time>
      </trkpt>
      <trkpt lat="43.075700" lon="-4.751467">
        <ele>1810.0</ele>
        <time>2013-09-04T12:25:23Z</time>
      </trkpt>
      <trkpt lat="43.075617" lon="-4.751433">
        <ele>1814.0</ele>
        <time>2013-09-04T12:25:24Z</time>
      </trkpt>
      <trkpt lat="43.075567" lon="-4.751383">
        <ele>1816.0</ele>
        <time>2013-09-04T12:25:25Z</time>
      </trkpt>
      <trkpt lat="43.075550" lon="-4.751317">
        <ele>1818.0</ele>
        <time>2013-09-04T12:25:26Z</time>
      </trkpt>
      <trkpt lat="43.075550" lon="-4.751250">
        <ele>1820.0</ele>
        <time>2013-09-04T12:25:27Z</time>
      </trkpt>
      <trkpt lat="43.075550" lon="-4.751200">
        <ele>1824.0</ele>
        <time>2013-09-04T12:25:28Z</time>
      </trkpt>
      <trkpt lat="43.075567" lon="-4.751167">
        <ele>1827.0</ele>
        <time>2013-09-04T12:25:29Z</time>
      </trkpt>
      <trkpt lat="43.075600" lon="-4.751150">
        <ele>1828.0</ele>
        <time>2013-09-04T12:25:30Z</time>
      </trkpt>
      <trkpt lat="43.075633" lon="-4.751133">
        <ele>1829.0</ele>
        <time>2013-09-04T12:25:31Z</time>
      </trkpt>
      <trkpt lat="43.075683" lon="-4.751133">
        <ele>1829.0</ele>
        <time>2013-09-04T12:25:32Z</time>
      </trkpt>
      <trkpt lat="43.075750" lon="-4.751167">
        <ele>1829.0</ele>
        <time>2013-09-04T12:25:33Z</time>
      </trkpt>
      <trkpt lat="43.075817" lon="-4.751267">
        <ele>1828.0</ele>
        <time>2013-09-04T12:25:34Z</time>
      </trkpt>
      <trkpt lat="43.075850" lon="-4.751417">
        <ele>1828.0</ele>
        <time>2013-09-04T12:25:35Z</time>
      </trkpt>
      <trkpt lat="43.075817" lon="-4.751600">
        <ele>1827.0</ele>
        <time>2013-09-04T12:25:36Z</time>
      </trkpt>
      <trkpt lat="43.075750" lon="-4.751767">
        <ele>1829.0</ele>
        <time>2013-09-04T12:25:37Z</time>
      </trkpt>
      <trkpt lat="43.075683" lon="-4.751900">
        <ele>1834.0</ele>
        <time>2013-09-04T12:25:38Z</time>
      </trkpt>
      <trkpt lat="43.075617" lon="-4.752000">
        <ele>1840.0</ele>
        <time>2013-09-04T12:25:39Z</time>
      </trkpt>
      <trkpt lat="43.075567" lon="-4.752083">
        <ele>1843.0</ele>
        <time>2013-09-04T12:25:40Z</time>
      </trkpt>
      <trkpt lat="43.075533" lon="-4.752167">
        <ele>1845.0</ele>
        <time>2013-09-04T12:25:41Z</time>
      </trkpt>
      <trkpt lat="43.075467" lon="-4.752283">
        <ele>1845.0</ele>
        <time>2013-09-04T12:25:42Z</time>
      </trkpt>
      <trkpt lat="43.075400" lon="-4.752383">
        <ele>1846.0</ele>
        <time>2013-09-04T12:25:43Z</time>
      </trkpt>
      <trkpt lat="43.075317" lon="-4.752450">
        <ele>1846.0</ele>
        <time>2013-09-04T12:25:44Z</time>
      </trkpt>
      <trkpt lat="43.075233" lon="-4.752483">
        <ele>1847.0</ele>
        <time>2013-09-04T12:25:45Z</time>
      </trkpt>
      <trkpt lat="43.075150" lon="-4.752483">
        <ele>1846.0</ele>
        <time>2013-09-04T12:25:46Z</time>
      </trkpt>
      <trkpt lat="43.075083" lon="-4.752433">
        <ele>1847.0</ele>
        <time>2013-09-04T12:25:47Z</time>
      </trkpt>
      <trkpt lat="43.075050" lon="-4.752383">
        <ele>1849.0</ele>
        <time>2013-09-04T12:25:48Z</time>
      </trkpt>
      <trkpt lat="43.075033" lon="-4.752350">
        <ele>1851.0</ele>
        <time>2013-09-04T12:25:49Z</time>
      </trkpt>
      <trkpt lat="43.075033" lon="-4.752300">
        <ele>1853.0</ele>
        <time>2013-09-04T12:25:50Z</time>
      </trkpt>
      <trkpt lat="43.075083" lon="-4.752233">
        <ele>1853.0</ele>
        <time>2013-09-04T12:25:51Z</time>
      </trkpt>
      <trkpt lat="43.075133" lon="-4.752183">
        <ele>1853.0</ele>
        <time>2013-09-04T12:25:52Z</time>
      </trkpt>
      <trkpt lat="43.075183" lon="-4.752133">
        <ele>1853.0</ele>
        <time>2013-09-04T12:25:53Z</time>
      </trkpt>
      <trkpt lat="43.075250" lon="-4.752083">
        <ele>1854.0</ele>
        <time>2013-09-04T12:25:54Z</time>
      </trkpt>
      <trkpt lat="43.075317" lon="-4.752067">
        <ele>1855.0</ele>
        <time>2013-09-04T12:25:55Z</time>
      </trkpt>
      <trkpt lat="43.075400" lon="-4.752100">
        <ele>1856.0</ele>
        <time>2013-09-04T12:25:56Z</time>
      </trkpt>
      <trkpt lat="43.075467" lon="-4.752183">
        <ele>1857.0</ele>
        <time>2013-09-04T12:25:57Z</time>
      </trkpt>
      <trkpt lat="43.075517" lon="-4.752283">
        <ele>1858.0</ele>
        <time>2013-09-04T12:25:58Z</time>
      </trkpt>
      <trkpt lat="43.075567" lon="-4.752400">
        <ele>1860.0</ele>
        <time>2013-09-04T12:25:59Z</time>
      </trkpt>
      <trkpt lat="43.075583" lon="-4.752550">
        <ele>1863.0</ele>
        <time>2013-09-04T12:26:00Z</time>
      </trkpt>
      <trkpt lat="43.075600" lon="-4.752667">
        <ele>1865.0</ele>
        <time>2013-09-04T12:26:01Z</time>
      </trkpt>
      <trkpt lat="43.075633" lon="-4.752783">
        <ele>1868.0</ele>
        <time>2013-09-04T12:26:02Z</time>
      </trkpt>
      <trkpt lat="43.075667" lon="-4.752867">
        <ele>1871.0</ele>
        <time>2013-09-04T12:26:03Z</time>
      </trkpt>
      <trkpt lat="43.075717" lon="-4.752933">
        <ele>1872.0</ele>
        <time>2013-09-04T12:26:04Z</time>
      </trkpt>
      <trkpt lat="43.075767" lon="-4.752983">
        <ele>1874.0</ele>
        <time>2013-09-04T12:26:05Z</time>
      </trkpt>
      <trkpt lat="43.075833" lon="-4.753017">
        <ele>1877.0</ele>
        <time>2013-09-04T12:26:06Z</time>
      </trkpt>
      <trkpt lat="43.075900" lon="-4.753033">
        <ele>1879.0</ele>
        <time>2013-09-04T12:26:07Z</time>
      </trkpt>
      <trkpt lat="43.075967" lon="-4.753000">
        <ele>1880.0</ele>
        <time>2013-09-04T12:26:08Z</time>
      </trkpt>
      <trkpt lat="43.076000" lon="-4.752950">
        <ele>1881.0</ele>
        <time>2013-09-04T12:26:09Z</time>
      </trkpt>
      <trkpt lat="43.076033" lon="-4.752850">
        <ele>1883.0</ele>
        <time>2013-09-04T12:26:10Z</time>
      </trkpt>
      <trkpt lat="43.076033" lon="-4.752750">
        <ele>1885.0</ele>
        <time>2013-09-04T12:26:11Z</time>
      </trkpt>
      <trkpt lat="43.076017" lon="-4.752667">
        <ele>1888.0</ele>
        <time>2013-09-04T12:26:12Z</time>
      </trkpt>
      <trkpt lat="43.075967" lon="-4.752617">
        <ele>1891.0</ele>
        <time>2013-09-04T12:26:13Z</time>
      </trkpt>
      <trkpt lat="43.075900" lon="-4.752617">
        <ele>1892.0</ele>
        <time>2013-09-04T12:26:14Z</time>
      </trkpt>
      <trkpt lat="43.075817" lon="-4.752633">
        <ele>1892.0</ele>
        <time>2013-09-04T12:26:15Z</time>
      </trkpt>
      <trkpt lat="43.075750" lon="-4.752683">
        <ele>1892.0</ele>
        <time>2013-09-04T12:26:16Z</time>
      </trkpt>
      <trkpt lat="43.075667" lon="-4.752750">
        <ele>1892.0</ele>
        <time>2013-09-04T12:26:17Z</time>
      </trkpt>
      <trkpt lat="43.075600" lon="-4.752850">
        <ele>1892.0</ele>
        <time>2013-09-04T12:26:18Z</time>
      </trkpt>
      <trkpt lat="43.075550" lon="-4.752983">
        <ele>1892.0</ele>
        <time>2013-09-04T12:26:19Z</time>
      </trkpt>
      <trkpt lat="43.075533" lon="-4.753150">
        <ele>1892.0</ele>
        <time>2013-09-04T12:26:20Z</time>
      </trkpt>
      <trkpt lat="43.075550" lon="-4.753300">
        <ele>1892.0</ele>
        <time>2013-09-04T12:26:21Z</time>
      </trkpt>
      <trkpt lat="43.075600" lon="-4.753433">
        <ele>1894.0</ele>
        <time>2013-09-04T12:26:22Z</time>
      </trkpt>
      <trkpt lat="43.075650" lon="-4.753550">
        <ele>1897.0</ele>
        <time>2013-09-04T12:26:23Z</time>
      </trkpt>
      <trkpt lat="43.075683" lon="-4.753650">
        <ele>1899.0</ele>
        <time>2013-09-04T12:26:24Z</time>
      </trkpt>
      <trkpt lat="43.075733" lon="-4.753750">
        <ele>1901.0</ele>
        <time>2013-09-04T12:26:25Z</time>
      </trkpt>
      <trkpt lat="43.075767" lon="-4.753833">
        <ele>1902.0</ele>
        <time>2013-09-04T12:26:26Z</time>
      </trkpt>
      <trkpt lat="43.075817" lon="-4.753917">
        <ele>1902.0</ele>
        <time>2013-09-04T12:26:27Z</time>
      </trkpt>
      <trkpt lat="43.075883" lon="-4.753983">
        <ele>1903.0</ele>
        <time>2013-09-04T12:26:28Z</time>
      </trkpt>
      <trkpt lat="43.075950" lon="-4.754000">
        <ele>1902.0</ele>
        <time>2013-09-04T12:26:29Z</time>
      </trkpt>
      <trkpt lat="43.076000" lon="-4.753967">
        <ele>1901.0</ele>
        <time>2013-09-04T12:26:30Z</time>
      </trkpt>
      <trkpt lat="43.076033" lon="-4.753900">
        <ele>1900.0</ele>
        <time>2013-09-04T12:26:31Z</time>
      </trkpt>
      <trkpt lat="43.076050" lon="-4.753783">
        <ele>1899.0</ele>
        <time>2013-09-04T12:26:32Z</time>
      </trkpt>
      <trkpt lat="43.076017" lon="-4.753683">
        <ele>1898.0</ele>
        <time>2013-09-04T12:26:33Z</time>
      </trkpt>
      <trkpt lat="43.076000" lon="-4.753583">
        <ele>1899.0</ele>
        <time>2013-09-04T12:26:34Z</time>
      </trkpt>
      <trkpt lat="43.075967" lon="-4.753483">
        <ele>1900.0</ele>
        <time>2013-09-04T12:26:35Z</time>
      </trkpt>
      <trkpt lat="43.075933" lon="-4.753400">
        <ele>1901.0</ele>
        <time>2013-09-04T12:26:36Z</time>
      </trkpt>
      <trkpt lat="43.075900" lon="-4.753317">
        <ele>1902.0</ele>
        <time>2013-09-04T12:26:37Z</time>
      </trkpt>
      <trkpt lat="43.075850" lon="-4.753250">
        <ele>1903.0</ele>
        <time>2013-09-04T12:26:38Z</time>
      </trkpt>
      <trkpt lat="43.075783" lon="-4.753183">
        <ele>1904.0</ele>
        <time>2013-09-04T12:26:39Z</time>
      </trkpt>
      <trkpt lat="43.075750" lon="-4.753133">
        <ele>1906.0</ele>
        <time>2013-09-04T12:26:40Z</time>
      </trkpt>
      <trkpt lat="43.075717" lon="-4.753067">
        <ele>1909.0</ele>
        <time>2013-09-04T12:26:41Z</time>
      </trkpt>
      <trkpt lat="43.075700" lon="-4.753017">
        <ele>1911.0</ele>
        <time>2013-09-04T12:26:42Z</time>
      </trkpt>
      <trkpt lat="43.075683" lon="-4.752967">
        <ele>1915.0</ele>
        <time>2013-09-04T12:26:43Z</time>
      </trkpt>
      <trkpt lat="43.075667" lon="-4.752917">
        <ele>1918.0</ele>
        <time>2013-09-04T12:26:44Z</time>
      </trkpt>
      <trkpt lat="43.075650" lon="-4.752900">
        <ele>1921.0</ele>
        <time>2013-09-04T12:26:45Z</time>
      </trkpt>
      <trkpt lat="43.075650" lon="-4.752867">
        <ele>1923.0</ele>
        <time>2013-09-04T12:26:46Z</time>
      </trkpt>
      <trkpt lat="43.075650" lon="-4.752833">
        <ele>1925.0</ele>
        <time>2013-09-04T12:26:47Z</time>
      </trkpt>
      <trkpt lat="43.075683" lon="-4.752783">
        <ele>1926.0</ele>
        <time>2013-09-04T12:26:48Z</time>
      </trkpt>
      <trkpt lat="43.075767" lon="-4.752750">
        <ele>1926.0</ele>
        <time>2013-09-04T12:26:49Z</time>
      </trkpt>
      <trkpt lat="43.075867" lon="-4.752800">
        <ele>1925.0</ele>
        <time>2013-09-04T12:26:50Z</time>
      </trkpt>
      <trkpt lat="43.075950" lon="-4.752933">
        <ele>1925.0</ele>
        <time>2013-09-04T12:26:51Z</time>
      </trkpt>
      <trkpt lat="43.075983" lon="-4.753100">
        <ele>1927.0</ele>
        <time>2013-09-04T12:26:52Z</time>
      </trkpt>
      <trkpt lat="43.075983" lon="-4.753250">
        <ele>1929.0</ele>
        <time>2013-09-04T12:26:53Z</time>
      </trkpt>
      <trkpt lat="43.075950" lon="-4.753383">
        <ele>1932.0</ele>
        <time>2013-09-04T12:26:54Z</time>
      </trkpt>
      <trkpt lat="43.075917" lon="-4.753483">
        <ele>1934.0</ele>
        <time>2013-09-04T12:26:55Z</time>
      </trkpt>
      <trkpt lat="43.075883" lon="-4.753600">
        <ele>1935.0</ele>
        <time>2013-09-04T12:26:56Z</time>
      </trkpt>
      <trkpt lat="43.075817" lon="-4.753717">
        <ele>1935.0</ele>
        <time>2013-09-04T12:26:57Z</time>
      </trkpt>
      <trkpt lat="43.075750" lon="-4.753833">
        <ele>1937.0</ele>
        <time>2013-09-04T12:26:58Z</time>
      </trkpt>
      <trkpt lat="43.075683" lon="-4.753867">
        <ele>1939.0</ele>
        <time>2013-09-04T12:26:59Z</time>
      </trkpt>
      <trkpt lat="43.075617" lon="-4.753867">
        <ele>1939.0</ele>
        <time>2013-09-04T12:27:00Z</time>
      </trkpt>
      <trkpt lat="43.075550" lon="-4.753783">
        <ele>1939.0</ele>
        <time>2013-09-04T12:27:01Z</time>
      </trkpt>
      <trkpt lat="43.075517" lon="-4.753700">
        <ele>1941.0</ele>
        <time>2013-09-04T12:27:02Z</time>
      </trkpt>
      <trkpt lat="43.075517" lon="-4.753600">
        <ele>1945.0</ele>
        <time>2013-09-04T12:27:03Z</time>
      </trkpt>
      <trkpt lat="43.075550" lon="-4.753550">
        <ele>1949.0</ele>
        <time>2013-09-04T12:27:04Z</time>
      </trkpt>
      <trkpt lat="43.075600" lon="-4.753533">
        <ele>1952.0</ele>
        <time>2013-09-04T12:27:05Z</time>
      </trkpt>
      <trkpt lat="43.075667" lon="-4.753567">
        <ele>1954.0</ele>
        <time>2013-09-04T12:27:06Z</time>
      </trkpt>
      <trkpt lat="43.075750" lon="-4.753633">
        <ele>1955.0</ele>
        <time>2013-09-04T12:27:07Z</time>
      </trkpt>
      <trkpt lat="43.075817" lon="-4.753733">
        <ele>1956.0</ele>
        <time>2013-09-04T12:27:08Z</time>
      </trkpt>
      <trkpt lat="43.075867" lon="-4.753850">
        <ele>1958.0</ele>
        <time>2013-09-04T12:27:09Z</time>
      </trkpt>
      <trkpt lat="43.075900" lon="-4.754000">
        <ele>1960.0</ele>
        <time>2013-09-04T12:27:10Z</time>
      </trkpt>
      <trkpt lat="43.075900" lon="-4.754133">
        <ele>1962.0</ele>
        <time>2013-09-04T12:27:11Z</time>
      </trkpt>
      <trkpt lat="43.075867" lon="-4.754283">
        <ele>1962.0</ele>
        <time>2013-09-04T12:27:12Z</time>
      </trkpt>
      <trkpt lat="43.075817" lon="-4.754400">
        <ele>1962.0</ele>
        <time>2013-09-04T12:27:13Z</time>
      </trkpt>
      <trkpt lat="43.075767" lon="-4.754500">
        <ele>1963.0</ele>
        <time>2013-09-04T12:27:14Z</time>
      </trkpt>
      <trkpt lat="43.075717" lon="-4.754583">
        <ele>1964.0</ele>
        <time>2013-09-04T12:27:15Z</time>
      </trkpt>
      <trkpt lat="43.075633" lon="-4.754633">
        <ele>1964.0</ele>
        <time>2013-09-04T12:27:16Z</time>
      </trkpt>
      <trkpt lat="43.075567" lon="-4.754633">
        <ele>1964.0</ele>
        <time>2013-09-04T12:27:17Z</time>
      </trkpt>
      <trkpt lat="43.075483" lon="-4.754600">
        <ele>1963.0</ele>
        <time>2013-09-04T12:27:18Z</time>
      </trkpt>
      <trkpt lat="43.075433" lon="-4.754533">
        <ele>1963.0</ele>
        <time>2013-09-04T12:27:19Z</time>
      </trkpt>
      <trkpt lat="43.075400" lon="-4.754450">
        <ele>1963.0</ele>
        <time>2013-09-04T12:27:20Z</time>
      </trkpt>
      <trkpt lat="43.075400" lon="-4.754350">
        <ele>1965.0</ele>
        <time>2013-09-04T12:27:21Z</time>
      </trkpt>
      <trkpt lat="43.075433" lon="-4.754283">
        <ele>1967.0</ele>
        <time>2013-09-04T12:27:22Z</time>
      </trkpt>
      <trkpt lat="43.075450" lon="-4.754217">
        <ele>1969.0</ele>
        <time>2013-09-04T12:27:23Z</time>
      </trkpt>
      <trkpt lat="43.075500" lon="-4.754167">
        <ele>1972.0</ele>
        <time>2013-09-04T12:27:24Z</time>
      </trkpt>
      <trkpt lat="43.075533" lon="-4.754133">
        <ele>1974.0</ele>
        <time>2013-09-04T12:27:25Z</time>
      </trkpt>
      <trkpt lat="43.075567" lon="-4.754100">
        <ele>1975.0</ele>
        <time>2013-09-04T12:27:26Z</time>
      </trkpt>
      <trkpt lat="43.075633" lon="-4.754083">
        <ele>1976.0</ele>
        <time>2013-09-04T12:27:27Z</time>
      </trkpt>
      <trkpt lat="43.075700" lon="-4.754067">
        <ele>1977.0</ele>
        <time>2013-09-04T12:27:28Z</time>
      </trkpt>
      <trkpt lat="43.075783" lon="-4.754100">
        <ele>1978.0</ele>
        <time>2013-09-04T12:27:29Z</time>
      </trkpt>
      <trkpt lat="43.075850" lon="-4.754200">
        <ele>1978.0</ele>
        <time>2013-09-04T12:27:30Z</time>
      </trkpt>
      <trkpt lat="43.075917" lon="-4.754333">
        <ele>1979.0</ele>
        <time>2013-09-04T12:27:31Z</time>
      </trkpt>
      <trkpt lat="43.075950" lon="-4.754483">
        <ele>1982.0</ele>
        <time>2013-09-04T12:27:32Z</time>
      </trkpt>
      <trkpt lat="43.075967" lon="-4.754617">
        <ele>1984.0</ele>
        <time>2013-09-04T12:27:33Z</time>
      </trkpt>
      <trkpt lat="43.075967" lon="-4.754733">
        <ele>1985.0</ele>
        <time>2013-09-04T12:27:34Z</time>
      </trkpt>
      <trkpt lat="43.075967" lon="-4.754850">
        <ele>1986.0</ele>
        <time>2013-09-04T12:27:35Z</time>
      </trkpt>
      <trkpt lat="43.075967" lon="-4.754983">
        <ele>1985.0</ele>
        <time>2013-09-04T12:27:36Z</time>
      </trkpt>
      <trkpt lat="43.075950" lon="-4.755117">
        <ele>1984.0</ele>
        <time>2013-09-04T12:27:37Z</time>
      </trkpt>
      <trkpt lat="43.075917" lon="-4.755233">
        <ele>1983.0</ele>
        <time>2013-09-04T12:27:38Z</time>
      </trkpt>
      <trkpt lat="43.075867" lon="-4.755350">
        <ele>1982.0</ele>
        <time>2013-09-04T12:27:39Z</time>
      </trkpt>
      <trkpt lat="43.075817" lon="-4.755450">
        <ele>1981.0</ele>
        <time>2013-09-04T12:27:40Z</time>
      </trkpt>
      <trkpt lat="43.075750" lon="-4.755517">
        <ele>1980.0</ele>
        <time>2013-09-04T12:27:41Z</time>
      </trkpt>
      <trkpt lat="43.075667" lon="-4.755600">
        <ele>1978.0</ele>
        <time>2013-09-04T12:27:42Z</time>
      </trkpt>
      <trkpt lat="43.075583" lon="-4.755650">
        <ele>1976.0</ele>
        <time>2013-09-04T12:27:43Z</time>
      </trkpt>
      <trkpt lat="43.075483" lon="-4.755667">
        <ele>1975.0</ele>
        <time>2013-09-04T12:27:44Z</time>
      </trkpt>
      <trkpt lat="43.075400" lon="-4.755650">
        <ele>1974.0</ele>
        <time>2013-09-04T12:27:45Z</time>
      </trkpt>
      <trkpt lat="43.075317" lon="-4.755600">
        <ele>1973.0</ele>
        <time>2013-09-04T12:27:46Z</time>
      </trkpt>
      <trkpt lat="43.075250" lon="-4.755517">
        <ele>1972.0</ele>
        <time>2013-09-04T12:27:47Z</time>
      </trkpt>
      <trkpt lat="43.075217" lon="-4.755400">
        <ele>1971.0</ele>
        <time>2013-09-04T12:27:48Z</time>
      </trkpt>
      <trkpt lat="43.075183" lon="-4.755267">
        <ele>1972.0</ele>
        <time>2013-09-04T12:27:49Z</time>
      </trkpt>
      <trkpt lat="43.075150" lon="-4.755150">
        <ele>1973.0</ele>
        <time>2013-09-04T12:27:50Z</time>
      </trkpt>
      <trkpt lat="43.075133" lon="-4.755033">
        <ele>1974.0</ele>
        <time>2013-09-04T12:27:51Z</time>
      </trkpt>
      <trkpt lat="43.075117" lon="-4.754933">
        <ele>1976.0</ele>
        <time>2013-09-04T12:27:52Z</time>
      </trkpt>
      <trkpt lat="43.075117" lon="-4.754833">
        <ele>1977.0</ele>
        <time>2013-09-04T12:27:53Z</time>
      </trkpt>
      <trkpt lat="43.075133" lon="-4.754750">
        <ele>1980.0</ele>
        <time>2013-09-04T12:27:54Z</time>
      </trkpt>
      <trkpt lat="43.075133" lon="-4.754700">
        <ele>1982.0</ele>
        <time>2013-09-04T12:27:55Z</time>
      </trkpt>
      <trkpt lat="43.075133" lon="-4.754650">
        <ele>1983.0</ele>
        <time>2013-09-04T12:27:56Z</time>
      </trkpt>
      <trkpt lat="43.075117" lon="-4.754583">
        <ele>1982.0</ele>
        <time>2013-09-04T12:27:57Z</time>
      </trkpt>
      <trkpt lat="43.075133" lon="-4.754500">
        <ele>1982.0</ele>
        <time>2013-09-04T12:27:58Z</time>
      </trkpt>
      <trkpt lat="43.075167" lon="-4.754417">
        <ele>1982.0</ele>
        <time>2013-09-04T12:27:59Z</time>
      </trkpt>
      <trkpt lat="43.075200" lon="-4.754350">
        <ele>1986.0</ele>
        <time>2013-09-04T12:28:00Z</time>
      </trkpt>
      <trkpt lat="43.075250" lon="-4.754317">
        <ele>1990.0</ele>
        <time>2013-09-04T12:28:01Z</time>
      </trkpt>
      <trkpt lat="43.075283" lon="-4.754300">
        <ele>1994.0</ele>
        <time>2013-09-04T12:28:02Z</time>
      </trkpt>
      <trkpt lat="43.075333" lon="-4.754300">
        <ele>1996.0</ele>
        <time>2013-09-04T12:28:03Z</time>
      </trkpt>
      <trkpt lat="43.075367" lon="-4.754300">
        <ele>1998.0</ele>
        <time>2013-09-04T12:28:04Z</time>
      </trkpt>
      <trkpt lat="43.075433" lon="-4.754283">
        <ele>1999.0</ele>
        <time>2013-09-04T12:28:05Z</time>
      </trkpt>
      <trkpt lat="43.075533" lon="-4.754283">
        <ele>2000.0</ele>
        <time>2013-09-04T12:28:06Z</time>
      </trkpt>
      <trkpt lat="43.075617" lon="-4.754300">
        <ele>2002.0</ele>
        <time>2013-09-04T12:28:07Z</time>
      </trkpt>
      <trkpt lat="43.075700" lon="-4.754367">
        <ele>2004.0</ele>
        <time>2013-09-04T12:28:08Z</time>
      </trkpt>
      <trkpt lat="43.075767" lon="-4.754467">
        <ele>2006.0</ele>
        <time>2013-09-04T12:28:09Z</time>
      </trkpt>
      <trkpt lat="43.075800" lon="-4.754600">
        <ele>2007.0</ele>
        <time>2013-09-04T12:28:10Z</time>
      </trkpt>
      <trkpt lat="43.075800" lon="-4.754733">
        <ele>2008.0</ele>
        <time>2013-09-04T12:28:11Z</time>
      </trkpt>
      <trkpt lat="43.075783" lon="-4.754850">
        <ele>2009.0</ele>
        <time>2013-09-04T12:28:12Z</time>
      </trkpt>
      <trkpt lat="43.075750" lon="-4.754967">
        <ele>2011.0</ele>
        <time>2013-09-04T12:28:13Z</time>
      </trkpt>
      <trkpt lat="43.075700" lon="-4.755050">
        <ele>2012.0</ele>
        <time>2013-09-04T12:28:14Z</time>
      </trkpt>
      <trkpt lat="43.075650" lon="-4.755133">
        <ele>2014.0</ele>
        <time>2013-09-04T12:28:15Z</time>
      </trkpt>
      <trkpt lat="43.075600" lon="-4.755200">
        <ele>2015.0</ele>
        <time>2013-09-04T12:28:16Z</time>
      </trkpt>
      <trkpt lat="43.075533" lon="-4.755250">
        <ele>2016.0</ele>
        <time>2013-09-04T12:28:17Z</time>
      </trkpt>
      <trkpt lat="43.075467" lon="-4.755317">
        <ele>2017.0</ele>
        <time>2013-09-04T12:28:18Z</time>
      </trkpt>
      <trkpt lat="43.075400" lon="-4.755367">
        <ele>2018.0</ele>
        <time>2013-09-04T12:28:19Z</time>
      </trkpt>
      <trkpt lat="43.075317" lon="-4.755383">
        <ele>2019.0</ele>
        <time>2013-09-04T12:28:20Z</time>
      </trkpt>
      <trkpt lat="43.075250" lon="-4.755367">
        <ele>2020.0</ele>
        <time>2013-09-04T12:28:21Z</time>
      </trkpt>
      <trkpt lat="43.075183" lon="-4.755317">
        <ele>2022.0</ele>
        <time>2013-09-04T12:28:22Z</time>
      </trkpt>
      <trkpt lat="43.075133" lon="-4.755267">
        <ele>2025.0</ele>
        <time>2013-09-04T12:28:23Z</time>
      </trkpt>
      <trkpt lat="43.075117" lon="-4.755233">
        <ele>2027.0</ele>
        <time>2013-09-04T12:28:24Z</time>
      </trkpt>
      <trkpt lat="43.075100" lon="-4.755167">
        <ele>2028.0</ele>
        <time>2013-09-04T12:28:25Z</time>
      </trkpt>
      <trkpt lat="43.075100" lon="-4.755117">
        <ele>2030.0</ele>
        <time>2013-09-04T12:28:26Z</time>
      </trkpt>
      <trkpt lat="43.075117" lon="-4.755050">
        <ele>2031.0</ele>
        <time>2013-09-04T12:28:27Z</time>
      </trkpt>
      <trkpt lat="43.075150" lon="-4.755000">
        <ele>2031.0</ele>
        <time>2013-09-04T12:28:28Z</time>
      </trkpt>
      <trkpt lat="43.075217" lon="-4.754983">
        <ele>2032.0</ele>
        <time>2013-09-04T12:28:29Z</time>
      </trkpt>
      <trkpt lat="43.075300" lon="-4.755000">
        <ele>2031.0</ele>
        <time>2013-09-04T12:28:30Z</time>
      </trkpt>
      <trkpt lat="43.075400" lon="-4.755083">
        <ele>2032.0</ele>
        <time>2013-09-04T12:28:31Z</time>
      </trkpt>
      <trkpt lat="43.075467" lon="-4.755200">
        <ele>2035.0</ele>
        <time>2013-09-04T12:28:32Z</time>
      </trkpt>
      <trkpt lat="43.075517" lon="-4.755317">
        <ele>2037.0</ele>
        <time>2013-09-04T12:28:33Z</time>
      </trkpt>
      <trkpt lat="43.075533" lon="-4.755433">
        <ele>2039.0</ele>
        <time>2013-09-04T12:28:34Z</time>
      </trkpt>
      <trkpt lat="43.075533" lon="-4.755550">
        <ele>2041.0</ele>
        <time>2013-09-04T12:28:35Z</time>
      </trkpt>
      <trkpt lat="43.075533" lon="-4.755667">
        <ele>2042.0</ele>
        <time>2013-09-04T12:28:36Z</time>
      </trkpt>
      <trkpt lat="43.075533" lon="-4.755783">
        <ele>2043.0</ele>
        <time>2013-09-04T12:28:37Z</time>
      </trkpt>
      <trkpt lat="43.075517" lon="-4.755900">
        <ele>2043.0</ele>
        <time>2013-09-04T12:28:38Z</time>
      </trkpt>
      <trkpt lat="43.075467" lon="-4.756017">
        <ele>2043.0</ele>
        <time>2013-09-04T12:28:39Z</time>
      </trkpt>
      <trkpt lat="43.075400" lon="-4.756067">
        <ele>2043.0</ele>
        <time>2013-09-04T12:28:40Z</time>
      </trkpt>
      <trkpt lat="43.075300" lon="-4.756067">
        <ele>2043.0</ele>
        <time>2013-09-04T12:28:41Z</time>
      </trkpt>
      <trkpt lat="43.075217" lon="-4.756050">
        <ele>2043.0</ele>
        <time>2013-09-04T12:28:42Z</time>
      </trkpt>
      <trkpt lat="43.075133" lon="-4.756000">
        <ele>2044.0</ele>
        <time>2013-09-04T12:28:43Z</time>
      </trkpt>
      <trkpt lat="43.075067" lon="-4.755950">
        <ele>2046.0</ele>
        <time>2013-09-04T12:28:44Z</time>
      </trkpt>
      <trkpt lat="43.075017" lon="-4.755900">
        <ele>2048.0</ele>
        <time>2013-09-04T12:28:45Z</time>
      </trkpt>
      <trkpt lat="43.074967" lon="-4.755850">
        <ele>2049.0</ele>
        <time>2013-09-04T12:28:46Z</time>
      </trkpt>
      <trkpt lat="43.074917" lon="-4.755783">
        <ele>2051.0</ele>
        <time>2013-09-04T12:28:47Z</time>
      </trkpt>
      <trkpt lat="43.074883" lon="-4.755717">
        <ele>2052.0</ele>
        <time>2013-09-04T12:28:48Z</time>
      </trkpt>
      <trkpt lat="43.074850" lon="-4.755650">
        <ele>2054.0</ele>
        <time>2013-09-04T12:28:49Z</time>
      </trkpt>
      <trkpt lat="43.074833" lon="-4.755600">
        <ele>2057.0</ele>
        <time>2013-09-04T12:28:50Z</time>
      </trkpt>
      <trkpt lat="43.074817" lon="-4.755550">
        <ele>2059.0</ele>
        <time>2013-09-04T12:28:51Z</time>
      </trkpt>
      <trkpt lat="43.074800" lon="-4.755500">
        <ele>2061.0</ele>
        <time>2013-09-04T12:28:52Z</time>
      </trkpt>
      <trkpt lat="43.074783" lon="-4.755450">
        <ele>2063.0</ele>
        <time>2013-09-04T12:28:53Z</time>
      </trkpt>
      <trkpt lat="43.074767" lon="-4.755400">
        <ele>2064.0</ele>
        <time>2013-09-04T12:28:54Z</time>
      </trkpt>
      <trkpt lat="43.074750" lon="-4.755350">
        <ele>2065.0</ele>
        <time>2013-09-04T12:28:55Z</time>
      </trkpt>
      <trkpt lat="43.074767" lon="-4.755300">
        <ele>2066.0</ele>
        <time>2013-09-04T12:28:56Z</time>
      </trkpt>
      <trkpt lat="43.074783" lon="-4.755250">
        <ele>2066.0</ele>
        <time>2013-09-04T12:28:57Z</time>
      </trkpt>
      <trkpt lat="43.074833" lon="-4.755200">
        <ele>2065.0</ele>
        <time>2013-09-04T12:28:58Z</time>
      </trkpt>
      <trkpt lat="43.074883" lon="-4.755167">
        <ele>2065.0</ele>
        <time>2013-09-04T12:28:59Z</time>
      </trkpt>
      <trkpt lat="43.074950" lon="-4.755133">
        <ele>2065.0</ele>
        <time>2013-09-04T12:29:00Z</time>
      </trkpt>
      <trkpt lat="43.075033" lon="-4.755133">
        <ele>2065.0</ele>
        <time>2013-09-04T12:29:01Z</time>
      </trkpt>
      <trkpt lat="43.075117" lon="-4.755133">
        <ele>2065.0</ele>
        <time>2013-09-04T12:29:02Z</time>
      </trkpt>
      <trkpt lat="43.075200" lon="-4.755150">
        <ele>2065.0</ele>
        <time>2013-09-04T12:29:03Z</time>
      </trkpt>
      <trkpt lat="43.075283" lon="-4.755183">
        <ele>2066.0</ele>
        <time>2013-09-04T12:29:04Z</time>
      </trkpt>
      <trkpt lat="43.075367" lon="-4.755250">
        <ele>2066.0</ele>
        <time>2013-09-04T12:29:05Z</time>
      </trkpt>
      <trkpt lat="43.075450" lon="-4.755317">
        <ele>2066.0</ele>
        <time>2013-09-04T12:29:06Z</time>
      </trkpt>
      <trkpt lat="43.075517" lon="-4.755400">
        <ele>2068.0</ele>
        <time>2013-09-04T12:29:07Z</time>
      </trkpt>
      <trkpt lat="43.075567" lon="-4.755517">
        <ele>2069.0</ele>
        <time>2013-09-04T12:29:08Z</time>
      </trkpt>
      <trkpt lat="43.075600" lon="-4.755633">
        <ele>2070.0</ele>
        <time>2013-09-04T12:29:09Z</time>
      </trkpt>
      <trkpt lat="43.075617" lon="-4.755750">
        <ele>2071.0</ele>
        <time>2013-09-04T12:29:10Z</time>
      </trkpt>
      <trkpt lat="43.075617" lon="-4.755867">
        <ele>2072.0</ele>
        <time>2013-09-04T12:29:11Z</time>
      </trkpt>
      <trkpt lat="43.075633" lon="-4.755983">
        <ele>2072.0</ele>
        <time>2013-09-04T12:29:12Z</time>
      </trkpt>
      <trkpt lat="43.075650" lon="-4.756117">
        <ele>2073.0</ele>
        <time>2013-09-04T12:29:13Z</time>
      </trkpt>
      <trkpt lat="43.075650" lon="-4.756250">
        <ele>2074.0</ele>
        <time>2013-09-04T12:29:14Z</time>
      </trkpt>
      <trkpt lat="43.075633" lon="-4.756383">
        <ele>2075.0</ele>
        <time>2013-09-04T12:29:15Z</time>
      </trkpt>
      <trkpt lat="43.075617" lon="-4.756500">
        <ele>2075.0</ele>
        <time>2013-09-04T12:29:16Z</time>
      </trkpt>
      <trkpt lat="43.075600" lon="-4.756600">
        <ele>2076.0</ele>
        <time>2013-09-04T12:29:17Z</time>
      </trkpt>
      <trkpt lat="43.075567" lon="-4.756700">
        <ele>2077.0</ele>
        <time>2013-09-04T12:29:18Z</time>
      </trkpt>
      <trkpt lat="43.075517" lon="-4.756783">
        <ele>2076.0</ele>
        <time>2013-09-04T12:29:19Z</time>
      </trkpt>
      <trkpt lat="43.075467" lon="-4.756883">
        <ele>2076.0</ele>
        <time>2013-09-04T12:29:20Z</time>
      </trkpt>
      <trkpt lat="43.075400" lon="-4.756967">
        <ele>2076.0</ele>
        <time>2013-09-04T12:29:21Z</time>
      </trkpt>
      <trkpt lat="43.075333" lon="-4.757033">
        <ele>2076.0</ele>
        <time>2013-09-04T12:29:22Z</time>
      </trkpt>
      <trkpt lat="43.075250" lon="-4.757100">
        <ele>2077.0</ele>
        <time>2013-09-04T12:29:23Z</time>
      </trkpt>
      <trkpt lat="43.075183" lon="-4.757183">
        <ele>2077.0</ele>
        <time>2013-09-04T12:29:24Z</time>
      </trkpt>
      <trkpt lat="43.075117" lon="-4.757267">
        <ele>2077.0</ele>
        <time>2013-09-04T12:29:25Z</time>
      </trkpt>
      <trkpt lat="43.075050" lon="-4.757333">
        <ele>2076.0</ele>
        <time>2013-09-04T12:29:26Z</time>
      </trkpt>
      <trkpt lat="43.074983" lon="-4.757400">
        <ele>2075.0</ele>
        <time>2013-09-04T12:29:27Z</time>
      </trkpt>
      <trkpt lat="43.074883" lon="-4.757433">
        <ele>2075.0</ele>
        <time>2013-09-04T12:29:28Z</time>
      </trkpt>
      <trkpt lat="43.074817" lon="-4.757433">
        <ele>2074.0</ele>
        <time>2013-09-04T12:29:29Z</time>
      </trkpt>
      <trkpt lat="43.074733" lon="-4.757417">
        <ele>2074.0</ele>
        <time>2013-09-04T12:29:30Z</time>
      </trkpt>
      <trkpt lat="43.074667" lon="-4.757367">
        <ele>2074.0</ele>
        <time>2013-09-04T12:29:31Z</time>
      </trkpt>
      <trkpt lat="43.074600" lon="-4.757300">
        <ele>2075.0</ele>
        <time>2013-09-04T12:29:32Z</time>
      </trkpt>
      <trkpt lat="43.074533" lon="-4.757250">
        <ele>2077.0</ele>
        <time>2013-09-04T12:29:33Z</time>
      </trkpt>
      <trkpt lat="43.074483" lon="-4.757200">
        <ele>2079.0</ele>
        <time>2013-09-04T12:29:34Z</time>
      </trkpt>
      <trkpt lat="43.074433" lon="-4.757150">
        <ele>2080.0</ele>
        <time>2013-09-04T12:29:35Z</time>
      </trkpt>
      <trkpt lat="43.074417" lon="-4.757083">
        <ele>2081.0</ele>
        <time>2013-09-04T12:29:36Z</time>
      </trkpt>
      <trkpt lat="43.074417" lon="-4.757017">
        <ele>2082.0</ele>
        <time>2013-09-04T12:29:37Z</time>
      </trkpt>
      <trkpt lat="43.074433" lon="-4.756950">
        <ele>2083.0</ele>
        <time>2013-09-04T12:29:38Z</time>
      </trkpt>
      <trkpt lat="43.074450" lon="-4.756883">
        <ele>2084.0</ele>
        <time>2013-09-04T12:29:39Z</time>
      </trkpt>
      <trkpt lat="43.074500" lon="-4.756833">
        <ele>2084.0</ele>
        <time>2013-09-04T12:29:40Z</time>
      </trkpt>
      <trkpt lat="43.074567" lon="-4.756817">
        <ele>2085.0</ele>
        <time>2013-09-04T12:29:41Z</time>
      </trkpt>
      <trkpt lat="43.074633" lon="-4.756817">
        <ele>2085.0</ele>
        <time>2013-09-04T12:29:42Z</time>
      </trkpt>
      <trkpt lat="43.074700" lon="-4.756850">
        <ele>2085.0</ele>
        <time>2013-09-04T12:29:43Z</time>
      </trkpt>
      <trkpt lat="43.074783" lon="-4.756900">
        <ele>2085.0</ele>
        <time>2013-09-04T12:29:44Z</time>
      </trkpt>
      <trkpt lat="43.074867" lon="-4.756950">
        <ele>2085.0</ele>
        <time>2013-09-04T12:29:45Z</time>
      </trkpt>
      <trkpt lat="43.074933" lon="-4.757017">
        <ele>2086.0</ele>
        <time>2013-09-04T12:29:46Z</time>
      </trkpt>
      <trkpt lat="43.075000" lon="-4.757067">
        <ele>2086.0</ele>
        <time>2013-09-04T12:29:47Z</time>
      </trkpt>
      <trkpt lat="43.075067" lon="-4.757117">
        <ele>2085.0</ele>
        <time>2013-09-04T12:29:48Z</time>
      </trkpt>
      <trkpt lat="43.075117" lon="-4.757183">
        <ele>2084.0</ele>
        <time>2013-09-04T12:29:49Z</time>
      </trkpt>
      <trkpt lat="43.075183" lon="-4.757283">
        <ele>2084.0</ele>
        <time>2013-09-04T12:29:50Z</time>
      </trkpt>
      <trkpt lat="43.075233" lon="-4.757383">
        <ele>2083.0</ele>
        <time>2013-09-04T12:29:51Z</time>
      </trkpt>
      <trkpt lat="43.075283" lon="-4.757517">
        <ele>2084.0</ele>
        <time>2013-09-04T12:29:52Z</time>
      </trkpt>
      <trkpt lat="43.075283" lon="-4.757650">
        <ele>2084.0</ele>
        <time>2013-09-04T12:29:53Z</time>
      </trkpt>
      <trkpt lat="43.075283" lon="-4.757767">
        <ele>2085.0</ele>
        <time>2013-09-04T12:29:54Z</time>
      </trkpt>
      <trkpt lat="43.075250" lon="-4.757883">
        <ele>2085.0</ele>
        <time>2013-09-04T12:29:55Z</time>
      </trkpt>
      <trkpt lat="43.075217" lon="-4.758000">
        <ele>2085.0</ele>
        <time>2013-09-04T12:29:56Z</time>
      </trkpt>
      <trkpt lat="43.075167" lon="-4.758117">
        <ele>2084.0</ele>
        <time>2013-09-04T12:29:57Z</time>
      </trkpt>
      <trkpt lat="43.075117" lon="-4.758250">
        <ele>2083.0</ele>
        <time>2013-09-04T12:29:58Z</time>
      </trkpt>
      <trkpt lat="43.075067" lon="-4.758400">
        <ele>2084.0</ele>
        <time>2013-09-04T12:29:59Z</time>
      </trkpt>
      <trkpt lat="43.075017" lon="-4.758550">
        <ele>2086.0</ele>
        <time>2013-09-04T12:30:00Z</time>
      </trkpt>
      <trkpt lat="43.074950" lon="-4.758683">
        <ele>2088.0</ele>
        <time>2013-09-04T12:30:01Z</time>
      </trkpt>
      <trkpt lat="43.074900" lon="-4.758800">
        <ele>2090.0</ele>
        <time>2013-09-04T12:30:02Z</time>
      </trkpt>
      <trkpt lat="43.074867" lon="-4.758917">
        <ele>2091.0</ele>
        <time>2013-09-04T12:30:03Z</time>
      </trkpt>
      <trkpt lat="43.074817" lon="-4.759017">
        <ele>2092.0</ele>
        <time>2013-09-04T12:30:04Z</time>
      </trkpt>
      <trkpt lat="43.074767" lon="-4.759133">
        <ele>2091.0</ele>
        <time>2013-09-04T12:30:05Z</time>
      </trkpt>
      <trkpt lat="43.074700" lon="-4.759250">
        <ele>2092.0</ele>
        <time>2013-09-04T12:30:06Z</time>
      </trkpt>
      <trkpt lat="43.074650" lon="-4.759383">
        <ele>2093.0</ele>
        <time>2013-09-04T12:30:07Z</time>
      </trkpt>
      <trkpt lat="43.074600" lon="-4.759500">
        <ele>2094.0</ele>
        <time>2013-09-04T12:30:08Z</time>
      </trkpt>
      <trkpt lat="43.074567" lon="-4.759617">
        <ele>2096.0</ele>
        <time>2013-09-04T12:30:09Z</time>
      </trkpt>
      <trkpt lat="43.074533" lon="-4.759733">
        <ele>2097.0</ele>
        <time>2013-09-04T12:30:10Z</time>
      </trkpt>
      <trkpt lat="43.074500" lon="-4.759850">
        <ele>2098.0</ele>
        <time>2013-09-04T12:30:11Z</time>
      </trkpt>
      <trkpt lat="43.074450" lon="-4.759967">
        <ele>2099.0</ele>
        <time>2013-09-04T12:30:12Z</time>
      </trkpt>
      <trkpt lat="43.074433" lon="-4.760100">
        <ele>2100.0</ele>
        <time>2013-09-04T12:30:13Z</time>
      </trkpt>
      <trkpt lat="43.074400" lon="-4.760217">
        <ele>2101.0</ele>
        <time>2013-09-04T12:30:14Z</time>
      </trkpt>
      <trkpt lat="43.074383" lon="-4.760333">
        <ele>2102.0</ele>
        <time>2013-09-04T12:30:15Z</time>
      </trkpt>
      <trkpt lat="43.074367" lon="-4.760450">
        <ele>2104.0</ele>
        <time>2013-09-04T12:30:16Z</time>
      </trkpt>
      <trkpt lat="43.074350" lon="-4.760550">
        <ele>2105.0</ele>
        <time>2013-09-04T12:30:17Z</time>
      </trkpt>
      <trkpt lat="43.074317" lon="-4.760650">
        <ele>2105.0</ele>
        <time>2013-09-04T12:30:18Z</time>
      </trkpt>
      <trkpt lat="43.074300" lon="-4.760767">
        <ele>2106.0</ele>
        <time>2013-09-04T12:30:19Z</time>
      </trkpt>
      <trkpt lat="43.074283" lon="-4.760883">
        <ele>2106.0</ele>
        <time>2013-09-04T12:30:20Z</time>
      </trkpt>
      <trkpt lat="43.074250" lon="-4.761000">
        <ele>2107.0</ele>
        <time>2013-09-04T12:30:21Z</time>
      </trkpt>
      <trkpt lat="43.074233" lon="-4.761100">
        <ele>2107.0</ele>
        <time>2013-09-04T12:30:22Z</time>
      </trkpt>
      <trkpt lat="43.074217" lon="-4.761217">
        <ele>2108.0</ele>
        <time>2013-09-04T12:30:23Z</time>
      </trkpt>
      <trkpt lat="43.074217" lon="-4.761333">
        <ele>2109.0</ele>
        <time>2013-09-04T12:30:24Z</time>
      </trkpt>
      <trkpt lat="43.074200" lon="-4.761450">
        <ele>2109.0</ele>
        <time>2013-09-04T12:30:25Z</time>
      </trkpt>
      <trkpt lat="43.074183" lon="-4.761583">
        <ele>2110.0</ele>
        <time>2013-09-04T12:30:26Z</time>
      </trkpt>
      <trkpt lat="43.074167" lon="-4.761700">
        <ele>2111.0</ele>
        <time>2013-09-04T12:30:27Z</time>
      </trkpt>
      <trkpt lat="43.074133" lon="-4.761817">
        <ele>2113.0</ele>
        <time>2013-09-04T12:30:28Z</time>
      </trkpt>
      <trkpt lat="43.074100" lon="-4.761933">
        <ele>2115.0</ele>
        <time>2013-09-04T12:30:29Z</time>
      </trkpt>
      <trkpt lat="43.074083" lon="-4.762033">
        <ele>2116.0</ele>
        <time>2013-09-04T12:30:30Z</time>
      </trkpt>
      <trkpt lat="43.074050" lon="-4.762133">
        <ele>2117.0</ele>
        <time>2013-09-04T12:30:31Z</time>
      </trkpt>
      <trkpt lat="43.074017" lon="-4.762250">
        <ele>2117.0</ele>
        <time>2013-09-04T12:30:32Z</time>
      </trkpt>
      <trkpt lat="43.073967" lon="-4.762350">
        <ele>2118.0</ele>
        <time>2013-09-04T12:30:33Z</time>
      </trkpt>
      <trkpt lat="43.073900" lon="-4.762450">
        <ele>2119.0</ele>
        <time>2013-09-04T12:30:34Z</time>
      </trkpt>
      <trkpt lat="43.073833" lon="-4.762550">
        <ele>2120.0</ele>
        <time>2013-09-04T12:30:35Z</time>
      </trkpt>
      <trkpt lat="43.073750" lon="-4.762633">
        <ele>2122.0</ele>
        <time>2013-09-04T12:30:36Z</time>
      </trkpt>
      <trkpt lat="43.073667" lon="-4.762717">
        <ele>2124.0</ele>
        <time>2013-09-04T12:30:37Z</time>
      </trkpt>
      <trkpt lat="43.073583" lon="-4.762783">
        <ele>2126.0</ele>
        <time>2013-09-04T12:30:38Z</time>
      </trkpt>
      <trkpt lat="43.073483" lon="-4.762850">
        <ele>2128.0</ele>
        <time>2013-09-04T12:30:39Z</time>
      </trkpt>
      <trkpt lat="43.073400" lon="-4.762883">
        <ele>2131.0</ele>
        <time>2013-09-04T12:30:40Z</time>
      </trkpt>
      <trkpt lat="43.073300" lon="-4.762933">
        <ele>2133.0</ele>
        <time>2013-09-04T12:30:41Z</time>
      </trkpt>
      <trkpt lat="43.073200" lon="-4.762967">
        <ele>2136.0</ele>
        <time>2013-09-04T12:30:42Z</time>
      </trkpt>
      <trkpt lat="43.073117" lon="-4.762983">
        <ele>2140.0</ele>
        <time>2013-09-04T12:30:43Z</time>
      </trkpt>
      <trkpt lat="43.073033" lon="-4.762983">
        <ele>2144.0</ele>
        <time>2013-09-04T12:30:44Z</time>
      </trkpt>
      <trkpt lat="43.072950" lon="-4.762967">
        <ele>2149.0</ele>
        <time>2013-09-04T12:30:45Z</time>
      </trkpt>
      <trkpt lat="43.072900" lon="-4.762933">
        <ele>2153.0</ele>
        <time>2013-09-04T12:30:46Z</time>
      </trkpt>
      <trkpt lat="43.072833" lon="-4.762917">
        <ele>2157.0</ele>
        <time>2013-09-04T12:30:47Z</time>
      </trkpt>
      <trkpt lat="43.072783" lon="-4.762883">
        <ele>2159.0</ele>
        <time>2013-09-04T12:30:48Z</time>
      </trkpt>
      <trkpt lat="43.072750" lon="-4.762817">
        <ele>2161.0</ele>
        <time>2013-09-04T12:30:49Z</time>
      </trkpt>
      <trkpt lat="43.072717" lon="-4.762717">
        <ele>2161.0</ele>
        <time>2013-09-04T12:30:50Z</time>
      </trkpt>
      <trkpt lat="43.072717" lon="-4.762600">
        <ele>2162.0</ele>
        <time>2013-09-04T12:30:51Z</time>
      </trkpt>
      <trkpt lat="43.072733" lon="-4.762517">
        <ele>2163.0</ele>
        <time>2013-09-04T12:30:52Z</time>
      </trkpt>
      <trkpt lat="43.072800" lon="-4.762483">
        <ele>2163.0</ele>
        <time>2013-09-04T12:30:53Z</time>
      </trkpt>
      <trkpt lat="43.072883" lon="-4.762533">
        <ele>2161.0</ele>
        <time>2013-09-04T12:30:54Z</time>
      </trkpt>
      <trkpt lat="43.072967" lon="-4.762650">
        <ele>2161.0</ele>
        <time>2013-09-04T12:30:55Z</time>
      </trkpt>
      <trkpt lat="43.073033" lon="-4.762783">
        <ele>2163.0</ele>
        <time>2013-09-04T12:30:56Z</time>
      </trkpt>
      <trkpt lat="43.073100" lon="-4.762900">
        <ele>2169.0</ele>
        <time>2013-09-04T12:30:57Z</time>
      </trkpt>
      <trkpt lat="43.073150" lon="-4.762983">
        <ele>2174.0</ele>
        <time>2013-09-04T12:30:58Z</time>
      </trkpt>
      <trkpt lat="43.073183" lon="-4.763067">
        <ele>2179.0</ele>
        <time>2013-09-04T12:30:59Z</time>
      </trkpt>
      <trkpt lat="43.073217" lon="-4.763133">
        <ele>2182.0</ele>
        <time>2013-09-04T12:31:00Z</time>
      </trkpt>
      <trkpt lat="43.073233" lon="-4.763233">
        <ele>2184.0</ele>
        <time>2013-09-04T12:31:01Z</time>
      </trkpt>
      <trkpt lat="43.073217" lon="-4.763367">
        <ele>2186.0</ele>
        <time>2013-09-04T12:31:02Z</time>
      </trkpt>
      <trkpt lat="43.073200" lon="-4.763500">
        <ele>2187.0</ele>
        <time>2013-09-04T12:31:03Z</time>
      </trkpt>
      <trkpt lat="43.073167" lon="-4.763633">
        <ele>2189.0</ele>
        <time>2013-09-04T12:31:04Z</time>
      </trkpt>
      <trkpt lat="43.073117" lon="-4.763750">
        <ele>2191.0</ele>
        <time>2013-09-04T12:31:05Z</time>
      </trkpt>
      <trkpt lat="43.073033" lon="-4.763850">
        <ele>2192.0</ele>
        <time>2013-09-04T12:31:06Z</time>
      </trkpt>
      <trkpt lat="43.072950" lon="-4.763933">
        <ele>2194.0</ele>
        <time>2013-09-04T12:31:07Z</time>
      </trkpt>
      <trkpt lat="43.072850" lon="-4.764000">
        <ele>2196.0</ele>
        <time>2013-09-04T12:31:08Z</time>
      </trkpt>
      <trkpt lat="43.072767" lon="-4.764033">
        <ele>2200.0</ele>
        <time>2013-09-04T12:31:09Z</time>
      </trkpt>
      <trkpt lat="43.072667" lon="-4.764067">
        <ele>2203.0</ele>
        <time>2013-09-04T12:31:10Z</time>
      </trkpt>
      <trkpt lat="43.072583" lon="-4.764083">
        <ele>2207.0</ele>
        <time>2013-09-04T12:31:11Z</time>
      </trkpt>
      <trkpt lat="43.072517" lon="-4.764100">
        <ele>2210.0</ele>
        <time>2013-09-04T12:31:12Z</time>
      </trkpt>
      <trkpt lat="43.072433" lon="-4.764100">
        <ele>2212.0</ele>
        <time>2013-09-04T12:31:13Z</time>
      </trkpt>
      <trkpt lat="43.072367" lon="-4.764083">
        <ele>2214.0</ele>
        <time>2013-09-04T12:31:14Z</time>
      </trkpt>
      <trkpt lat="43.072300" lon="-4.764033">
        <ele>2215.0</ele>
        <time>2013-09-04T12:31:15Z</time>
      </trkpt>
      <trkpt lat="43.072233" lon="-4.763967">
        <ele>2217.0</ele>
        <time>2013-09-04T12:31:16Z</time>
      </trkpt>
      <trkpt lat="43.072183" lon="-4.763883">
        <ele>2220.0</ele>
        <time>2013-09-04T12:31:17Z</time>
      </trkpt>
      <trkpt lat="43.072150" lon="-4.763783">
        <ele>2223.0</ele>
        <time>2013-09-04T12:31:18Z</time>
      </trkpt>
      <trkpt lat="43.072167" lon="-4.763717">
        <ele>2225.0</ele>
        <time>2013-09-04T12:31:19Z</time>
      </trkpt>
      <trkpt lat="43.072200" lon="-4.763650">
        <ele>2225.0</ele>
        <time>2013-09-04T12:31:20Z</time>
      </trkpt>
      <trkpt lat="43.072250" lon="-4.763617">
        <ele>2225.0</ele>
        <time>2013-09-04T12:31:21Z</time>
      </trkpt>
      <trkpt lat="43.072300" lon="-4.763583">
        <ele>2225.0</ele>
        <time>2013-09-04T12:31:22Z</time>
      </trkpt>
      <trkpt lat="43.072383" lon="-4.763533">
        <ele>2225.0</ele>
        <time>2013-09-04T12:31:23Z</time>
      </trkpt>
      <trkpt lat="43.072450" lon="-4.763550">
        <ele>2227.0</ele>
        <time>2013-09-04T12:31:24Z</time>
      </trkpt>
      <trkpt lat="43.072533" lon="-4.763583">
        <ele>2227.0</ele>
        <time>2013-09-04T12:31:25Z</time>
      </trkpt>
      <trkpt lat="43.072583" lon="-4.763667">
        <ele>2228.0</ele>
        <time>2013-09-04T12:31:26Z</time>
      </trkpt>
      <trkpt lat="43.072650" lon="-4.763733">
        <ele>2229.0</ele>
        <time>2013-09-04T12:31:27Z</time>
      </trkpt>
      <trkpt lat="43.072733" lon="-4.763783">
        <ele>2230.0</ele>
        <time>2013-09-04T12:31:28Z</time>
      </trkpt>
      <trkpt lat="43.072800" lon="-4.763850">
        <ele>2233.0</ele>
        <time>2013-09-04T12:31:29Z</time>
      </trkpt>
      <trkpt lat="43.072867" lon="-4.763900">
        <ele>2239.0</ele>
        <time>2013-09-04T12:31:30Z</time>
      </trkpt>
      <trkpt lat="43.072900" lon="-4.763967">
        <ele>2243.0</ele>
        <time>2013-09-04T12:31:31Z</time>
      </trkpt>
      <trkpt lat="43.072950" lon="-4.764050">
        <ele>2245.0</ele>
        <time>2013-09-04T12:31:32Z</time>
      </trkpt>
      <trkpt lat="43.072983" lon="-4.764150">
        <ele>2246.0</ele>
        <time>2013-09-04T12:31:33Z</time>
      </trkpt>
      <trkpt lat="43.073000" lon="-4.764250">
        <ele>2248.0</ele>
        <time>2013-09-04T12:31:34Z</time>
      </trkpt>
      <trkpt lat="43.073000" lon="-4.764383">
        <ele>2248.0</ele>
        <time>2013-09-04T12:31:35Z</time>
      </trkpt>
      <trkpt lat="43.072983" lon="-4.764533">
        <ele>2249.0</ele>
        <time>2013-09-04T12:31:36Z</time>
      </trkpt>
      <trkpt lat="43.072933" lon="-4.764683">
        <ele>2250.0</ele>
        <time>2013-09-04T12:31:37Z</time>
      </trkpt>
      <trkpt lat="43.072850" lon="-4.764800">
        <ele>2251.0</ele>
        <time>2013-09-04T12:31:38Z</time>
      </trkpt>
      <trkpt lat="43.072767" lon="-4.764883">
        <ele>2253.0</ele>
        <time>2013-09-04T12:31:39Z</time>
      </trkpt>
      <trkpt lat="43.072683" lon="-4.764950">
        <ele>2254.0</ele>
        <time>2013-09-04T12:31:40Z</time>
      </trkpt>
      <trkpt lat="43.072583" lon="-4.765000">
        <ele>2255.0</ele>
        <time>2013-09-04T12:31:41Z</time>
      </trkpt>
      <trkpt lat="43.072483" lon="-4.765033">
        <ele>2256.0</ele>
        <time>2013-09-04T12:31:42Z</time>
      </trkpt>
      <trkpt lat="43.072383" lon="-4.765033">
        <ele>2257.0</ele>
        <time>2013-09-04T12:31:43Z</time>
      </trkpt>
      <trkpt lat="43.072300" lon="-4.765033">
        <ele>2260.0</ele>
        <time>2013-09-04T12:31:44Z</time>
      </trkpt>
      <trkpt lat="43.072233" lon="-4.765017">
        <ele>2264.0</ele>
        <time>2013-09-04T12:31:45Z</time>
      </trkpt>
      <trkpt lat="43.072183" lon="-4.765000">
        <ele>2267.0</ele>
        <time>2013-09-04T12:31:46Z</time>
      </trkpt>
      <trkpt lat="43.072133" lon="-4.764967">
        <ele>2270.0</ele>
        <time>2013-09-04T12:31:47Z</time>
      </trkpt>
      <trkpt lat="43.072100" lon="-4.764917">
        <ele>2272.0</ele>
        <time>2013-09-04T12:31:48Z</time>
      </trkpt>
      <trkpt lat="43.072067" lon="-4.764867">
        <ele>2273.0</ele>
        <time>2013-09-04T12:31:49Z</time>
      </trkpt>
      <trkpt lat="43.072067" lon="-4.764833">
        <ele>2273.0</ele>
        <time>2013-09-04T12:31:50Z</time>
      </trkpt>
      <trkpt lat="43.072083" lon="-4.764783">
        <ele>2274.0</ele>
        <time>2013-09-04T12:31:51Z</time>
      </trkpt>
      <trkpt lat="43.072150" lon="-4.764767">
        <ele>2274.0</ele>
        <time>2013-09-04T12:31:52Z</time>
      </trkpt>
      <trkpt lat="43.072233" lon="-4.764767">
        <ele>2274.0</ele>
        <time>2013-09-04T12:31:53Z</time>
      </trkpt>
      <trkpt lat="43.072317" lon="-4.764800">
        <ele>2276.0</ele>
        <time>2013-09-04T12:31:54Z</time>
      </trkpt>
      <trkpt lat="43.072383" lon="-4.764833">
        <ele>2278.0</ele>
        <time>2013-09-04T12:31:55Z</time>
      </trkpt>
      <trkpt lat="43.072450" lon="-4.764883">
        <ele>2281.0</ele>
        <time>2013-09-04T12:31:56Z</time>
      </trkpt>
      <trkpt lat="43.072483" lon="-4.764917">
        <ele>2283.0</ele>
        <time>2013-09-04T12:31:57Z</time>
      </trkpt>
      <trkpt lat="43.072533" lon="-4.764967">
        <ele>2284.0</ele>
        <time>2013-09-04T12:31:58Z</time>
      </trkpt>
      <trkpt lat="43.072567" lon="-4.765033">
        <ele>2284.0</ele>
        <time>2013-09-04T12:31:59Z</time>
      </trkpt>
      <trkpt lat="43.072600" lon="-4.765133">
        <ele>2283.0</ele>
        <time>2013-09-04T12:32:00Z</time>
      </trkpt>
      <trkpt lat="43.072633" lon="-4.765233">
        <ele>2283.0</ele>
        <time>2013-09-04T12:32:01Z</time>
      </trkpt>
      <trkpt lat="43.072667" lon="-4.765350">
        <ele>2286.0</ele>
        <time>2013-09-04T12:32:02Z</time>
      </trkpt>
      <trkpt lat="43.072700" lon="-4.765450">
        <ele>2287.0</ele>
        <time>2013-09-04T12:32:03Z</time>
      </trkpt>
      <trkpt lat="43.072717" lon="-4.765533">
        <ele>2289.0</ele>
        <time>2013-09-04T12:32:04Z</time>
      </trkpt>
      <trkpt lat="43.072733" lon="-4.765633">
        <ele>2289.0</ele>
        <time>2013-09-04T12:32:05Z</time>
      </trkpt>
      <trkpt lat="43.072767" lon="-4.765750">
        <ele>2290.0</ele>
        <time>2013-09-04T12:32:06Z</time>
      </trkpt>
      <trkpt lat="43.072783" lon="-4.765867">
        <ele>2288.0</ele>
        <time>2013-09-04T12:32:07Z</time>
      </trkpt>
      <trkpt lat="43.072800" lon="-4.765983">
        <ele>2288.0</ele>
        <time>2013-09-04T12:32:08Z</time>
      </trkpt>
      <trkpt lat="43.072817" lon="-4.766100">
        <ele>2288.0</ele>
        <time>2013-09-04T12:32:09Z</time>
      </trkpt>
      <trkpt lat="43.072833" lon="-4.766217">
        <ele>2287.0</ele>
        <time>2013-09-04T12:32:10Z</time>
      </trkpt>
      <trkpt lat="43.072850" lon="-4.766333">
        <ele>2286.0</ele>
        <time>2013-09-04T12:32:11Z</time>
      </trkpt>
      <trkpt lat="43.072867" lon="-4.766433">
        <ele>2285.0</ele>
        <time>2013-09-04T12:32:12Z</time>
      </trkpt>
      <trkpt lat="43.072883" lon="-4.766550">
        <ele>2283.0</ele>
        <time>2013-09-04T12:32:13Z</time>
      </trkpt>
      <trkpt lat="43.072883" lon="-4.766683">
        <ele>2282.0</ele>
        <time>2013-09-04T12:32:14Z</time>
      </trkpt>
      <trkpt lat="43.072900" lon="-4.766800">
        <ele>2281.0</ele>
        <time>2013-09-04T12:32:15Z</time>
      </trkpt>
      <trkpt lat="43.072933" lon="-4.766917">
        <ele>2281.0</ele>
        <time>2013-09-04T12:32:16Z</time>
      </trkpt>
      <trkpt lat="43.072950" lon="-4.767017">
        <ele>2280.0</ele>
        <time>2013-09-04T12:32:17Z</time>
      </trkpt>
      <trkpt lat="43.072983" lon="-4.767133">
        <ele>2280.0</ele>
        <time>2013-09-04T12:32:18Z</time>
      </trkpt>
      <trkpt lat="43.073017" lon="-4.767233">
        <ele>2280.0</ele>
        <time>2013-09-04T12:32:19Z</time>
      </trkpt>
      <trkpt lat="43.073033" lon="-4.767350">
        <ele>2280.0</ele>
        <time>2013-09-04T12:32:20Z</time>
      </trkpt>
      <trkpt lat="43.073067" lon="-4.767450">
        <ele>2280.0</ele>
        <time>2013-09-04T12:32:21Z</time>
      </trkpt>
      <trkpt lat="43.073100" lon="-4.767550">
        <ele>2281.0</ele>
        <time>2013-09-04T12:32:22Z</time>
      </trkpt>
      <trkpt lat="43.073133" lon="-4.767667">
        <ele>2282.0</ele>
        <time>2013-09-04T12:32:23Z</time>
      </trkpt>
      <trkpt lat="43.073167" lon="-4.767767">
        <ele>2283.0</ele>
        <time>2013-09-04T12:32:24Z</time>
      </trkpt>
      <trkpt lat="43.073183" lon="-4.767867">
        <ele>2284.0</ele>
        <time>2013-09-04T12:32:25Z</time>
      </trkpt>
      <trkpt lat="43.073217" lon="-4.767967">
        <ele>2284.0</ele>
        <time>2013-09-04T12:32:26Z</time>
      </trkpt>
      <trkpt lat="43.073233" lon="-4.768083">
        <ele>2283.0</ele>
        <time>2013-09-04T12:32:27Z</time>
      </trkpt>
      <trkpt lat="43.073250" lon="-4.768217">
        <ele>2283.0</ele>
        <time>2013-09-04T12:32:28Z</time>
      </trkpt>
      <trkpt lat="43.073267" lon="-4.768350">
        <ele>2283.0</ele>
        <time>2013-09-04T12:32:29Z</time>
      </trkpt>
      <trkpt lat="43.073267" lon="-4.768500">
        <ele>2283.0</ele>
        <time>2013-09-04T12:32:30Z</time>
      </trkpt>
      <trkpt lat="43.073267" lon="-4.768667">
        <ele>2284.0</ele>
        <time>2013-09-04T12:32:31Z</time>
      </trkpt>
      <trkpt lat="43.073233" lon="-4.768817">
        <ele>2285.0</ele>
        <time>2013-09-04T12:32:32Z</time>
      </trkpt>
      <trkpt lat="43.073200" lon="-4.768967">
        <ele>2287.0</ele>
        <time>2013-09-04T12:32:33Z</time>
      </trkpt>
      <trkpt lat="43.073150" lon="-4.769100">
        <ele>2290.0</ele>
        <time>2013-09-04T12:32:34Z</time>
      </trkpt>
      <trkpt lat="43.073100" lon="-4.769200">
        <ele>2292.0</ele>
        <time>2013-09-04T12:32:35Z</time>
      </trkpt>
      <trkpt lat="43.073050" lon="-4.769300">
        <ele>2294.0</ele>
        <time>2013-09-04T12:32:36Z</time>
      </trkpt>
      <trkpt lat="43.073000" lon="-4.769383">
        <ele>2295.0</ele>
        <time>2013-09-04T12:32:37Z</time>
      </trkpt>
      <trkpt lat="43.072933" lon="-4.769483">
        <ele>2294.0</ele>
        <time>2013-09-04T12:32:38Z</time>
      </trkpt>
      <trkpt lat="43.072867" lon="-4.769567">
        <ele>2294.0</ele>
        <time>2013-09-04T12:32:39Z</time>
      </trkpt>
      <trkpt lat="43.072767" lon="-4.769617">
        <ele>2293.0</ele>
        <time>2013-09-04T12:32:40Z</time>
      </trkpt>
      <trkpt lat="43.072667" lon="-4.769650">
        <ele>2291.0</ele>
        <time>2013-09-04T12:32:41Z</time>
      </trkpt>
      <trkpt lat="43.072583" lon="-4.769650">
        <ele>2291.0</ele>
        <time>2013-09-04T12:32:42Z</time>
      </trkpt>
      <trkpt lat="43.072483" lon="-4.769617">
        <ele>2290.0</ele>
        <time>2013-09-04T12:32:43Z</time>
      </trkpt>
      <trkpt lat="43.072417" lon="-4.769567">
        <ele>2290.0</ele>
        <time>2013-09-04T12:32:44Z</time>
      </trkpt>
      <trkpt lat="43.072350" lon="-4.769533">
        <ele>2289.0</ele>
        <time>2013-09-04T12:32:45Z</time>
      </trkpt>
      <trkpt lat="43.072300" lon="-4.769483">
        <ele>2288.0</ele>
        <time>2013-09-04T12:32:46Z</time>
      </trkpt>
      <trkpt lat="43.072250" lon="-4.769417">
        <ele>2287.0</ele>
        <time>2013-09-04T12:32:47Z</time>
      </trkpt>
      <trkpt lat="43.072217" lon="-4.769317">
        <ele>2284.0</ele>
        <time>2013-09-04T12:32:48Z</time>
      </trkpt>
      <trkpt lat="43.072183" lon="-4.769217">
        <ele>2282.0</ele>
        <time>2013-09-04T12:32:49Z</time>
      </trkpt>
      <trkpt lat="43.072150" lon="-4.769100">
        <ele>2280.0</ele>
        <time>2013-09-04T12:32:50Z</time>
      </trkpt>
      <trkpt lat="43.072133" lon="-4.768983">
        <ele>2279.0</ele>
        <time>2013-09-04T12:32:51Z</time>
      </trkpt>
      <trkpt lat="43.072117" lon="-4.768883">
        <ele>2278.0</ele>
        <time>2013-09-04T12:32:52Z</time>
      </trkpt>
      <trkpt lat="43.072100" lon="-4.768767">
        <ele>2278.0</ele>
        <time>2013-09-04T12:32:53Z</time>
      </trkpt>
      <trkpt lat="43.072100" lon="-4.768667">
        <ele>2278.0</ele>
        <time>2013-09-04T12:32:54Z</time>
      </trkpt>
      <trkpt lat="43.072100" lon="-4.768567">
        <ele>2278.0</ele>
        <time>2013-09-04T12:32:55Z</time>
      </trkpt>
      <trkpt lat="43.072100" lon="-4.768450">
        <ele>2278.0</ele>
        <time>2013-09-04T12:32:56Z</time>
      </trkpt>
      <trkpt lat="43.072100" lon="-4.768333">
        <ele>2279.0</ele>
        <time>2013-09-04T12:32:57Z</time>
      </trkpt>
      <trkpt lat="43.072100" lon="-4.768233">
        <ele>2279.0</ele>
        <time>2013-09-04T12:32:58Z</time>
      </trkpt>
      <trkpt lat="43.072117" lon="-4.768133">
        <ele>2280.0</ele>
        <time>2013-09-04T12:32:59Z</time>
      </trkpt>
      <trkpt lat="43.072150" lon="-4.768033">
        <ele>2280.0</ele>
        <time>2013-09-04T12:33:00Z</time>
      </trkpt>
      <trkpt lat="43.072167" lon="-4.767950">
        <ele>2281.0</ele>
        <time>2013-09-04T12:33:01Z</time>
      </trkpt>
      <trkpt lat="43.072167" lon="-4.767883">
        <ele>2282.0</ele>
        <time>2013-09-04T12:33:02Z</time>
      </trkpt>
      <trkpt lat="43.072183" lon="-4.767817">
        <ele>2283.0</ele>
        <time>2013-09-04T12:33:03Z</time>
      </trkpt>
      <trkpt lat="43.072183" lon="-4.767767">
        <ele>2283.0</ele>
        <time>2013-09-04T12:33:04Z</time>
      </trkpt>
      <trkpt lat="43.072217" lon="-4.767717">
        <ele>2283.0</ele>
        <time>2013-09-04T12:33:05Z</time>
      </trkpt>
      <trkpt lat="43.072233" lon="-4.767667">
        <ele>2282.0</ele>
        <time>2013-09-04T12:33:06Z</time>
      </trkpt>
      <trkpt lat="43.072283" lon="-4.767600">
        <ele>2282.0</ele>
        <time>2013-09-04T12:33:07Z</time>
      </trkpt>
      <trkpt lat="43.072333" lon="-4.767533">
        <ele>2282.0</ele>
        <time>2013-09-04T12:33:08Z</time>
      </trkpt>
      <trkpt lat="43.072383" lon="-4.767467">
        <ele>2283.0</ele>
        <time>2013-09-04T12:33:09Z</time>
      </trkpt>
      <trkpt lat="43.072417" lon="-4.767417">
        <ele>2284.0</ele>
        <time>2013-09-04T12:33:10Z</time>
      </trkpt>
      <trkpt lat="43.072467" lon="-4.767367">
        <ele>2284.0</ele>
        <time>2013-09-04T12:33:11Z</time>
      </trkpt>
      <trkpt lat="43.072500" lon="-4.767317">
        <ele>2284.0</ele>
        <time>2013-09-04T12:33:12Z</time>
      </trkpt>
      <trkpt lat="43.072533" lon="-4.767267">
        <ele>2285.0</ele>
        <time>2013-09-04T12:33:13Z</time>
      </trkpt>
      <trkpt lat="43.072583" lon="-4.767200">
        <ele>2285.0</ele>
        <time>2013-09-04T12:33:14Z</time>
      </trkpt>
      <trkpt lat="43.072617" lon="-4.767150">
        <ele>2286.0</ele>
        <time>2013-09-04T12:33:15Z</time>
      </trkpt>
      <trkpt lat="43.072667" lon="-4.767117">
        <ele>2288.0</ele>
        <time>2013-09-04T12:33:16Z</time>
      </trkpt>
      <trkpt lat="43.072733" lon="-4.767100">
        <ele>2289.0</ele>
        <time>2013-09-04T12:33:17Z</time>
      </trkpt>
      <trkpt lat="43.072783" lon="-4.767083">
        <ele>2291.0</ele>
        <time>2013-09-04T12:33:18Z</time>
      </trkpt>
      <trkpt lat="43.072833" lon="-4.767067">
        <ele>2293.0</ele>
        <time>2013-09-04T12:33:19Z</time>
      </trkpt>
      <trkpt lat="43.072883" lon="-4.767033">
        <ele>2296.0</ele>
        <time>2013-09-04T12:33:20Z</time>
      </trkpt>
      <trkpt lat="43.072917" lon="-4.766983">
        <ele>2298.0</ele>
        <time>2013-09-04T12:33:21Z</time>
      </trkpt>
      <trkpt lat="43.072967" lon="-4.766950">
        <ele>2300.0</ele>
        <time>2013-09-04T12:33:22Z</time>
      </trkpt>
      <trkpt lat="43.073033" lon="-4.766917">
        <ele>2303.0</ele>
        <time>2013-09-04T12:33:23Z</time>
      </trkpt>
      <trkpt lat="43.073100" lon="-4.766900">
        <ele>2305.0</ele>
        <time>2013-09-04T12:33:24Z</time>
      </trkpt>
      <trkpt lat="43.073167" lon="-4.766883">
        <ele>2308.0</ele>
        <time>2013-09-04T12:33:25Z</time>
      </trkpt>
      <trkpt lat="43.073233" lon="-4.766867">
        <ele>2309.0</ele>
        <time>2013-09-04T12:33:26Z</time>
      </trkpt>
      <trkpt lat="43.073317" lon="-4.766850">
        <ele>2312.0</ele>
        <time>2013-09-04T12:33:27Z</time>
      </trkpt>
      <trkpt lat="43.073400" lon="-4.766850">
        <ele>2313.0</ele>
        <time>2013-09-04T12:33:28Z</time>
      </trkpt>
      <trkpt lat="43.073483" lon="-4.766900">
        <ele>2315.0</ele>
        <time>2013-09-04T12:33:29Z</time>
      </trkpt>
      <trkpt lat="43.073550" lon="-4.766983">
        <ele>2316.0</ele>
        <time>2013-09-04T12:33:30Z</time>
      </trkpt>
      <trkpt lat="43.073617" lon="-4.767100">
        <ele>2318.0</ele>
        <time>2013-09-04T12:33:31Z</time>
      </trkpt>
      <trkpt lat="43.073633" lon="-4.767233">
        <ele>2319.0</ele>
        <time>2013-09-04T12:33:32Z</time>
      </trkpt>
      <trkpt lat="43.073633" lon="-4.767367">
        <ele>2321.0</ele>
        <time>2013-09-04T12:33:33Z</time>
      </trkpt>
      <trkpt lat="43.073617" lon="-4.767483">
        <ele>2322.0</ele>
        <time>2013-09-04T12:33:34Z</time>
      </trkpt>
      <trkpt lat="43.073583" lon="-4.767583">
        <ele>2322.0</ele>
        <time>2013-09-04T12:33:35Z</time>
      </trkpt>
      <trkpt lat="43.073533" lon="-4.767667">
        <ele>2322.0</ele>
        <time>2013-09-04T12:33:36Z</time>
      </trkpt>
      <trkpt lat="43.073467" lon="-4.767733">
        <ele>2322.0</ele>
        <time>2013-09-04T12:33:37Z</time>
      </trkpt>
      <trkpt lat="43.073383" lon="-4.767783">
        <ele>2322.0</ele>
        <time>2013-09-04T12:33:38Z</time>
      </trkpt>
      <trkpt lat="43.073283" lon="-4.767800">
        <ele>2323.0</ele>
        <time>2013-09-04T12:33:39Z</time>
      </trkpt>
      <trkpt lat="43.073200" lon="-4.767800">
        <ele>2324.0</ele>
        <time>2013-09-04T12:33:40Z</time>
      </trkpt>
      <trkpt lat="43.073133" lon="-4.767783">
        <ele>2326.0</ele>
        <time>2013-09-04T12:33:41Z</time>
      </trkpt>
      <trkpt lat="43.073067" lon="-4.767733">
        <ele>2328.0</ele>
        <time>2013-09-04T12:33:42Z</time>
      </trkpt>
      <trkpt lat="43.073017" lon="-4.767683">
        <ele>2331.0</ele>
        <time>2013-09-04T12:33:43Z</time>
      </trkpt>
      <trkpt lat="43.072983" lon="-4.767617">
        <ele>2334.0</ele>
        <time>2013-09-04T12:33:44Z</time>
      </trkpt>
      <trkpt lat="43.072950" lon="-4.767567">
        <ele>2337.0</ele>
        <time>2013-09-04T12:33:45Z</time>
      </trkpt>
      <trkpt lat="43.072900" lon="-4.767517">
        <ele>2341.0</ele>
        <time>2013-09-04T12:33:46Z</time>
      </trkpt>
      <trkpt lat="43.072850" lon="-4.767467">
        <ele>2344.0</ele>
        <time>2013-09-04T12:33:47Z</time>
      </trkpt>
      <trkpt lat="43.072817" lon="-4.767417">
        <ele>2346.0</ele>
        <time>2013-09-04T12:33:48Z</time>
      </trkpt>
      <trkpt lat="43.072817" lon="-4.767350">
        <ele>2347.0</ele>
        <time>2013-09-04T12:33:49Z</time>
      </trkpt>
      <trkpt lat="43.072850" lon="-4.767283">
        <ele>2347.0</ele>
        <time>2013-09-04T12:33:50Z</time>
      </trkpt>
      <trkpt lat="43.072883" lon="-4.767217">
        <ele>2348.0</ele>
        <time>2013-09-04T12:33:51Z</time>
      </trkpt>
      <trkpt lat="43.072950" lon="-4.767150">
        <ele>2350.0</ele>
        <time>2013-09-04T12:33:52Z</time>
      </trkpt>
      <trkpt lat="43.073017" lon="-4.767133">
        <ele>2352.0</ele>
        <time>2013-09-04T12:33:53Z</time>
      </trkpt>
      <trkpt lat="43.073083" lon="-4.767117">
        <ele>2354.0</ele>
        <time>2013-09-04T12:33:54Z</time>
      </trkpt>
      <trkpt lat="43.073167" lon="-4.767133">
        <ele>2355.0</ele>
        <time>2013-09-04T12:33:55Z</time>
      </trkpt>
      <trkpt lat="43.073250" lon="-4.767167">
        <ele>2356.0</ele>
        <time>2013-09-04T12:33:56Z</time>
      </trkpt>
      <trkpt lat="43.073350" lon="-4.767217">
        <ele>2358.0</ele>
        <time>2013-09-04T12:33:57Z</time>
      </trkpt>
      <trkpt lat="43.073450" lon="-4.767267">
        <ele>2360.0</ele>
        <time>2013-09-04T12:33:58Z</time>
      </trkpt>
      <trkpt lat="43.073533" lon="-4.767333">
        <ele>2362.0</ele>
        <time>2013-09-04T12:33:59Z</time>
      </trkpt>
      <trkpt lat="43.073583" lon="-4.767400">
        <ele>2365.0</ele>
        <time>2013-09-04T12:34:00Z</time>
      </trkpt>
      <trkpt lat="43.073633" lon="-4.767467">
        <ele>2366.0</ele>
        <time>2013-09-04T12:34:01Z</time>
      </trkpt>
      <trkpt lat="43.073667" lon="-4.767550">
        <ele>2366.0</ele>
        <time>2013-09-04T12:34:02Z</time>
      </trkpt>
      <trkpt lat="43.073717" lon="-4.767650">
        <ele>2366.0</ele>
        <time>2013-09-04T12:34:03Z</time>
      </trkpt>
      <trkpt lat="43.073767" lon="-4.767767">
        <ele>2366.0</ele>
        <time>2013-09-04T12:34:04Z</time>
      </trkpt>
      <trkpt lat="43.073783" lon="-4.767900">
        <ele>2367.0</ele>
        <time>2013-09-04T12:34:05Z</time>
      </trkpt>
      <trkpt lat="43.073783" lon="-4.768033">
        <ele>2367.0</ele>
        <time>2013-09-04T12:34:06Z</time>
      </trkpt>
      <trkpt lat="43.073767" lon="-4.768150">
        <ele>2367.0</ele>
        <time>2013-09-04T12:34:07Z</time>
      </trkpt>
      <trkpt lat="43.073750" lon="-4.768283">
        <ele>2367.0</ele>
        <time>2013-09-04T12:34:08Z</time>
      </trkpt>
      <trkpt lat="43.073733" lon="-4.768417">
        <ele>2367.0</ele>
        <time>2013-09-04T12:34:09Z</time>
      </trkpt>
      <trkpt lat="43.073733" lon="-4.768550">
        <ele>2368.0</ele>
        <time>2013-09-04T12:34:10Z</time>
      </trkpt>
      <trkpt lat="43.073717" lon="-4.768683">
        <ele>2368.0</ele>
        <time>2013-09-04T12:34:11Z</time>
      </trkpt>
      <trkpt lat="43.073717" lon="-4.768817">
        <ele>2369.0</ele>
        <time>2013-09-04T12:34:12Z</time>
      </trkpt>
      <trkpt lat="43.073717" lon="-4.768950">
        <ele>2368.0</ele>
        <time>2013-09-04T12:34:13Z</time>
      </trkpt>
      <trkpt lat="43.073700" lon="-4.769083">
        <ele>2367.0</ele>
        <time>2013-09-04T12:34:14Z</time>
      </trkpt>
      <trkpt lat="43.073700" lon="-4.769233">
        <ele>2366.0</ele>
        <time>2013-09-04T12:34:15Z</time>
      </trkpt>
      <trkpt lat="43.073700" lon="-4.769400">
        <ele>2365.0</ele>
        <time>2013-09-04T12:34:16Z</time>
      </trkpt>
      <trkpt lat="43.073667" lon="-4.769550">
        <ele>2365.0</ele>
        <time>2013-09-04T12:34:17Z</time>
      </trkpt>
      <trkpt lat="43.073617" lon="-4.769700">
        <ele>2367.0</ele>
        <time>2013-09-04T12:34:18Z</time>
      </trkpt>
      <trkpt lat="43.073550" lon="-4.769800">
        <ele>2368.0</ele>
        <time>2013-09-04T12:34:19Z</time>
      </trkpt>
      <trkpt lat="43.073467" lon="-4.769850">
        <ele>2368.0</ele>
        <time>2013-09-04T12:34:20Z</time>
      </trkpt>
      <trkpt lat="43.073383" lon="-4.769883">
        <ele>2367.0</ele>
        <time>2013-09-04T12:34:21Z</time>
      </trkpt>
      <trkpt lat="43.073283" lon="-4.769933">
        <ele>2367.0</ele>
        <time>2013-09-04T12:34:22Z</time>
      </trkpt>
      <trkpt lat="43.073183" lon="-4.769967">
        <ele>2367.0</ele>
        <time>2013-09-04T12:34:23Z</time>
      </trkpt>
      <trkpt lat="43.073083" lon="-4.769983">
        <ele>2368.0</ele>
        <time>2013-09-04T12:34:24Z</time>
      </trkpt>
      <trkpt lat="43.073017" lon="-4.770000">
        <ele>2369.0</ele>
        <time>2013-09-04T12:34:25Z</time>
      </trkpt>
      <trkpt lat="43.072933" lon="-4.770000">
        <ele>2369.0</ele>
        <time>2013-09-04T12:34:26Z</time>
      </trkpt>
      <trkpt lat="43.072867" lon="-4.769967">
        <ele>2370.0</ele>
        <time>2013-09-04T12:34:27Z</time>
      </trkpt>
      <trkpt lat="43.072817" lon="-4.769933">
        <ele>2370.0</ele>
        <time>2013-09-04T12:34:28Z</time>
      </trkpt>
      <trkpt lat="43.072783" lon="-4.769867">
        <ele>2371.0</ele>
        <time>2013-09-04T12:34:29Z</time>
      </trkpt>
      <trkpt lat="43.072750" lon="-4.769800">
        <ele>2371.0</ele>
        <time>2013-09-04T12:34:30Z</time>
      </trkpt>
      <trkpt lat="43.072733" lon="-4.769733">
        <ele>2373.0</ele>
        <time>2013-09-04T12:34:31Z</time>
      </trkpt>
      <trkpt lat="43.072717" lon="-4.769650">
        <ele>2374.0</ele>
        <time>2013-09-04T12:34:32Z</time>
      </trkpt>
      <trkpt lat="43.072700" lon="-4.769567">
        <ele>2376.0</ele>
        <time>2013-09-04T12:34:33Z</time>
      </trkpt>
      <trkpt lat="43.072683" lon="-4.769467">
        <ele>2379.0</ele>
        <time>2013-09-04T12:34:34Z</time>
      </trkpt>
      <trkpt lat="43.072683" lon="-4.769367">
        <ele>2382.0</ele>
        <time>2013-09-04T12:34:35Z</time>
      </trkpt>
      <trkpt lat="43.072700" lon="-4.769283">
        <ele>2387.0</ele>
        <time>2013-09-04T12:34:36Z</time>
      </trkpt>
      <trkpt lat="43.072700" lon="-4.769233">
        <ele>2391.0</ele>
        <time>2013-09-04T12:34:37Z</time>
      </trkpt>
      <trkpt lat="43.072683" lon="-4.769217">
        <ele>2394.0</ele>
        <time>2013-09-04T12:34:38Z</time>
      </trkpt>
      <trkpt lat="43.072683" lon="-4.769217">
        <ele>2395.0</ele>
        <time>2013-09-04T12:34:39Z</time>
      </trkpt>
      <trkpt lat="43.072667" lon="-4.769167">
        <ele>2396.0</ele>
        <time>2013-09-04T12:34:40Z</time>
      </trkpt>
      <trkpt lat="43.072667" lon="-4.769100">
        <ele>2395.0</ele>
        <time>2013-09-04T12:34:41Z</time>
      </trkpt>
      <trkpt lat="43.072683" lon="-4.769017">
        <ele>2395.0</ele>
        <time>2013-09-04T12:34:42Z</time>
      </trkpt>
      <trkpt lat="43.072717" lon="-4.768950">
        <ele>2397.0</ele>
        <time>2013-09-04T12:34:43Z</time>
      </trkpt>
      <trkpt lat="43.072783" lon="-4.768917">
        <ele>2397.0</ele>
        <time>2013-09-04T12:34:44Z</time>
      </trkpt>
      <trkpt lat="43.072867" lon="-4.768950">
        <ele>2396.0</ele>
        <time>2013-09-04T12:34:45Z</time>
      </trkpt>
      <trkpt lat="43.072983" lon="-4.769017">
        <ele>2395.0</ele>
        <time>2013-09-04T12:34:46Z</time>
      </trkpt>
      <trkpt lat="43.073083" lon="-4.769100">
        <ele>2395.0</ele>
        <time>2013-09-04T12:34:47Z</time>
      </trkpt>
      <trkpt lat="43.073183" lon="-4.769183">
        <ele>2396.0</ele>
        <time>2013-09-04T12:34:48Z</time>
      </trkpt>
      <trkpt lat="43.073267" lon="-4.769250">
        <ele>2398.0</ele>
        <time>2013-09-04T12:34:49Z</time>
      </trkpt>
      <trkpt lat="43.073350" lon="-4.769300">
        <ele>2398.0</ele>
        <time>2013-09-04T12:34:50Z</time>
      </trkpt>
      <trkpt lat="43.073433" lon="-4.769367">
        <ele>2399.0</ele>
        <time>2013-09-04T12:34:51Z</time>
      </trkpt>
      <trkpt lat="43.073517" lon="-4.769433">
        <ele>2399.0</ele>
        <time>2013-09-04T12:34:52Z</time>
      </trkpt>
      <trkpt lat="43.073617" lon="-4.769517">
        <ele>2400.0</ele>
        <time>2013-09-04T12:34:53Z</time>
      </trkpt>
      <trkpt lat="43.073700" lon="-4.769600">
        <ele>2401.0</ele>
        <time>2013-09-04T12:34:54Z</time>
      </trkpt>
      <trkpt lat="43.073783" lon="-4.769700">
        <ele>2401.0</ele>
        <time>2013-09-04T12:34:55Z</time>
      </trkpt>
      <trkpt lat="43.073867" lon="-4.769817">
        <ele>2402.0</ele>
        <time>2013-09-04T12:34:56Z</time>
      </trkpt>
      <trkpt lat="43.073917" lon="-4.769933">
        <ele>2403.0</ele>
        <time>2013-09-04T12:34:57Z</time>
      </trkpt>
      <trkpt lat="43.073950" lon="-4.770067">
        <ele>2404.0</ele>
        <time>2013-09-04T12:34:58Z</time>
      </trkpt>
      <trkpt lat="43.073983" lon="-4.770200">
        <ele>2405.0</ele>
        <time>2013-09-04T12:34:59Z</time>
      </trkpt>
      <trkpt lat="43.074000" lon="-4.770333">
        <ele>2405.0</ele>
        <time>2013-09-04T12:35:00Z</time>
      </trkpt>
      <trkpt lat="43.074017" lon="-4.770483">
        <ele>2405.0</ele>
        <time>2013-09-04T12:35:01Z</time>
      </trkpt>
      <trkpt lat="43.074017" lon="-4.770633">
        <ele>2404.0</ele>
        <time>2013-09-04T12:35:02Z</time>
      </trkpt>
      <trkpt lat="43.074000" lon="-4.770783">
        <ele>2403.0</ele>
        <time>2013-09-04T12:35:03Z</time>
      </trkpt>
      <trkpt lat="43.073967" lon="-4.770950">
        <ele>2403.0</ele>
        <time>2013-09-04T12:35:04Z</time>
      </trkpt>
      <trkpt lat="43.073917" lon="-4.771100">
        <ele>2403.0</ele>
        <time>2013-09-04T12:35:05Z</time>
      </trkpt>
      <trkpt lat="43.073867" lon="-4.771217">
        <ele>2403.0</ele>
        <time>2013-09-04T12:35:06Z</time>
      </trkpt>
      <trkpt lat="43.073783" lon="-4.771317">
        <ele>2402.0</ele>
        <time>2013-09-04T12:35:07Z</time>
      </trkpt>
      <trkpt lat="43.073700" lon="-4.771367">
        <ele>2401.0</ele>
        <time>2013-09-04T12:35:08Z</time>
      </trkpt>
      <trkpt lat="43.073600" lon="-4.771400">
        <ele>2402.0</ele>
        <time>2013-09-04T12:35:09Z</time>
      </trkpt>
      <trkpt lat="43.073517" lon="-4.771400">
        <ele>2402.0</ele>
        <time>2013-09-04T12:35:10Z</time>
      </trkpt>
      <trkpt lat="43.073450" lon="-4.771383">
        <ele>2403.0</ele>
        <time>2013-09-04T12:35:11Z</time>
      </trkpt>
      <trkpt lat="43.073400" lon="-4.771333">
        <ele>2403.0</ele>
        <time>2013-09-04T12:35:12Z</time>
      </trkpt>
      <trkpt lat="43.073350" lon="-4.771283">
        <ele>2404.0</ele>
        <time>2013-09-04T12:35:13Z</time>
      </trkpt>
      <trkpt lat="43.073317" lon="-4.771233">
        <ele>2404.0</ele>
        <time>2013-09-04T12:35:14Z</time>
      </trkpt>
      <trkpt lat="43.073283" lon="-4.771167">
        <ele>2403.0</ele>
        <time>2013-09-04T12:35:15Z</time>
      </trkpt>
      <trkpt lat="43.073250" lon="-4.771083">
        <ele>2402.0</ele>
        <time>2013-09-04T12:35:16Z</time>
      </trkpt>
      <trkpt lat="43.073233" lon="-4.771000">
        <ele>2401.0</ele>
        <time>2013-09-04T12:35:17Z</time>
      </trkpt>
      <trkpt lat="43.073200" lon="-4.770900">
        <ele>2401.0</ele>
        <time>2013-09-04T12:35:18Z</time>
      </trkpt>
      <trkpt lat="43.073183" lon="-4.770817">
        <ele>2402.0</ele>
        <time>2013-09-04T12:35:19Z</time>
      </trkpt>
      <trkpt lat="43.073167" lon="-4.770733">
        <ele>2404.0</ele>
        <time>2013-09-04T12:35:20Z</time>
      </trkpt>
      <trkpt lat="43.073150" lon="-4.770667">
        <ele>2406.0</ele>
        <time>2013-09-04T12:35:21Z</time>
      </trkpt>
      <trkpt lat="43.073133" lon="-4.770617">
        <ele>2408.0</ele>
        <time>2013-09-04T12:35:22Z</time>
      </trkpt>
      <trkpt lat="43.073117" lon="-4.770567">
        <ele>2409.0</ele>
        <time>2013-09-04T12:35:23Z</time>
      </trkpt>
      <trkpt lat="43.073083" lon="-4.770550">
        <ele>2410.0</ele>
        <time>2013-09-04T12:35:24Z</time>
      </trkpt>
      <trkpt lat="43.073067" lon="-4.770533">
        <ele>2410.0</ele>
        <time>2013-09-04T12:35:25Z</time>
      </trkpt>
      <trkpt lat="43.073050" lon="-4.770483">
        <ele>2409.0</ele>
        <time>2013-09-04T12:35:26Z</time>
      </trkpt>
      <trkpt lat="43.073050" lon="-4.770400">
        <ele>2409.0</ele>
        <time>2013-09-04T12:35:27Z</time>
      </trkpt>
      <trkpt lat="43.073050" lon="-4.770317">
        <ele>2410.0</ele>
        <time>2013-09-04T12:35:28Z</time>
      </trkpt>
      <trkpt lat="43.073050" lon="-4.770267">
        <ele>2412.0</ele>
        <time>2013-09-04T12:35:29Z</time>
      </trkpt>
      <trkpt lat="43.073050" lon="-4.770217">
        <ele>2413.0</ele>
        <time>2013-09-04T12:35:30Z</time>
      </trkpt>
      <trkpt lat="43.073050" lon="-4.770183">
        <ele>2414.0</ele>
        <time>2013-09-04T12:35:31Z</time>
      </trkpt>
      <trkpt lat="43.073050" lon="-4.770150">
        <ele>2415.0</ele>
        <time>2013-09-04T12:35:32Z</time>
      </trkpt>
      <trkpt lat="43.073067" lon="-4.770100">
        <ele>2415.0</ele>
        <time>2013-09-04T12:35:33Z</time>
      </trkpt>
      <trkpt lat="43.073100" lon="-4.770050">
        <ele>2416.0</ele>
        <time>2013-09-04T12:35:34Z</time>
      </trkpt>
      <trkpt lat="43.073133" lon="-4.770017">
        <ele>2416.0</ele>
        <time>2013-09-04T12:35:35Z</time>
      </trkpt>
      <trkpt lat="43.073133" lon="-4.769983">
        <ele>2415.0</ele>
        <time>2013-09-04T12:35:36Z</time>
      </trkpt>
      <trkpt lat="43.073133" lon="-4.769933">
        <ele>2414.0</ele>
        <time>2013-09-04T12:35:37Z</time>
      </trkpt>
      <trkpt lat="43.073150" lon="-4.769883">
        <ele>2412.0</ele>
        <time>2013-09-04T12:35:38Z</time>
      </trkpt>
      <trkpt lat="43.073167" lon="-4.769800">
        <ele>2410.0</ele>
        <time>2013-09-04T12:35:39Z</time>
      </trkpt>
      <trkpt lat="43.073200" lon="-4.769717">
        <ele>2408.0</ele>
        <time>2013-09-04T12:35:40Z</time>
      </trkpt>
      <trkpt lat="43.073217" lon="-4.769617">
        <ele>2407.0</ele>
        <time>2013-09-04T12:35:41Z</time>
      </trkpt>
      <trkpt lat="43.073250" lon="-4.769533">
        <ele>2406.0</ele>
        <time>2013-09-04T12:35:42Z</time>
      </trkpt>
      <trkpt lat="43.073283" lon="-4.769450">
        <ele>2405.0</ele>
        <time>2013-09-04T12:35:43Z</time>
      </trkpt>
      <trkpt lat="43.073300" lon="-4.769383">
        <ele>2404.0</ele>
        <time>2013-09-04T12:35:44Z</time>
      </trkpt>
      <trkpt lat="43.073317" lon="-4.769317">
        <ele>2403.0</ele>
        <time>2013-09-04T12:35:45Z</time>
      </trkpt>
      <trkpt lat="43.073333" lon="-4.769250">
        <ele>2400.0</ele>
        <time>2013-09-04T12:35:46Z</time>
      </trkpt>
      <trkpt lat="43.073350" lon="-4.769167">
        <ele>2397.0</ele>
        <time>2013-09-04T12:35:47Z</time>
      </trkpt>
      <trkpt lat="43.073367" lon="-4.769067">
        <ele>2395.0</ele>
        <time>2013-09-04T12:35:48Z</time>
      </trkpt>
      <trkpt lat="43.073367" lon="-4.768967">
        <ele>2394.0</ele>
        <time>2013-09-04T12:35:49Z</time>
      </trkpt>
      <trkpt lat="43.073383" lon="-4.768900">
        <ele>2394.0</ele>
        <time>2013-09-04T12:35:50Z</time>
      </trkpt>
      <trkpt lat="43.073417" lon="-4.768833">
        <ele>2394.0</ele>
        <time>2013-09-04T12:35:51Z</time>
      </trkpt>
      <trkpt lat="43.073467" lon="-4.768783">
        <ele>2392.0</ele>
        <time>2013-09-04T12:35:52Z</time>
      </trkpt>
      <trkpt lat="43.073500" lon="-4.768733">
        <ele>2389.0</ele>
        <time>2013-09-04T12:35:53Z</time>
      </trkpt>
      <trkpt lat="43.073517" lon="-4.768650">
        <ele>2386.0</ele>
        <time>2013-09-04T12:35:54Z</time>
      </trkpt>
      <trkpt lat="43.073517" lon="-4.768533">
        <ele>2384.0</ele>
        <time>2013-09-04T12:35:55Z</time>
      </trkpt>
      <trkpt lat="43.073533" lon="-4.768417">
        <ele>2381.0</ele>
        <time>2013-09-04T12:35:56Z</time>
      </trkpt>
      <trkpt lat="43.073517" lon="-4.768317">
        <ele>2381.0</ele>
        <time>2013-09-04T12:35:57Z</time>
      </trkpt>
      <trkpt lat="43.073517" lon="-4.768217">
        <ele>2382.0</ele>
        <time>2013-09-04T12:35:58Z</time>
      </trkpt>
      <trkpt lat="43.073500" lon="-4.768150">
        <ele>2382.0</ele>
        <time>2013-09-04T12:35:59Z</time>
      </trkpt>
      <trkpt lat="43.073483" lon="-4.768083">
        <ele>2381.0</ele>
        <time>2013-09-04T12:36:00Z</time>
      </trkpt>
      <trkpt lat="43.073467" lon="-4.768017">
        <ele>2378.0</ele>
        <time>2013-09-04T12:36:01Z</time>
      </trkpt>
      <trkpt lat="43.073433" lon="-4.767933">
        <ele>2376.0</ele>
        <time>2013-09-04T12:36:02Z</time>
      </trkpt>
      <trkpt lat="43.073417" lon="-4.767833">
        <ele>2372.0</ele>
        <time>2013-09-04T12:36:03Z</time>
      </trkpt>
      <trkpt lat="43.073400" lon="-4.767717">
        <ele>2370.0</ele>
        <time>2013-09-04T12:36:04Z</time>
      </trkpt>
      <trkpt lat="43.073383" lon="-4.767600">
        <ele>2369.0</ele>
        <time>2013-09-04T12:36:05Z</time>
      </trkpt>
      <trkpt lat="43.073367" lon="-4.767517">
        <ele>2368.0</ele>
        <time>2013-09-04T12:36:06Z</time>
      </trkpt>
      <trkpt lat="43.073367" lon="-4.767433">
        <ele>2369.0</ele>
        <time>2013-09-04T12:36:07Z</time>
      </trkpt>
      <trkpt lat="43.073333" lon="-4.767367">
        <ele>2368.0</ele>
        <time>2013-09-04T12:36:08Z</time>
      </trkpt>
      <trkpt lat="43.073300" lon="-4.767300">
        <ele>2367.0</ele>
        <time>2013-09-04T12:36:09Z</time>
      </trkpt>
      <trkpt lat="43.073283" lon="-4.767217">
        <ele>2366.0</ele>
        <time>2013-09-04T12:36:10Z</time>
      </trkpt>
      <trkpt lat="43.073267" lon="-4.767133">
        <ele>2366.0</ele>
        <time>2013-09-04T12:36:11Z</time>
      </trkpt>
      <trkpt lat="43.073267" lon="-4.767050">
        <ele>2366.0</ele>
        <time>2013-09-04T12:36:12Z</time>
      </trkpt>
      <trkpt lat="43.073283" lon="-4.766983">
        <ele>2366.0</ele>
        <time>2013-09-04T12:36:13Z</time>
      </trkpt>
      <trkpt lat="43.073283" lon="-4.766933">
        <ele>2366.0</ele>
        <time>2013-09-04T12:36:14Z</time>
      </trkpt>
      <trkpt lat="43.073267" lon="-4.766900">
        <ele>2365.0</ele>
        <time>2013-09-04T12:36:15Z</time>
      </trkpt>
      <trkpt lat="43.073267" lon="-4.766850">
        <ele>2364.0</ele>
        <time>2013-09-04T12:36:16Z</time>
      </trkpt>
      <trkpt lat="43.073283" lon="-4.766783">
        <ele>2361.0</ele>
        <time>2013-09-04T12:36:17Z</time>
      </trkpt>
      <trkpt lat="43.073283" lon="-4.766717">
        <ele>2359.0</ele>
        <time>2013-09-04T12:36:18Z</time>
      </trkpt>
      <trkpt lat="43.073283" lon="-4.766633">
        <ele>2358.0</ele>
        <time>2013-09-04T12:36:19Z</time>
      </trkpt>
      <trkpt lat="43.073283" lon="-4.766533">
        <ele>2358.0</ele>
        <time>2013-09-04T12:36:20Z</time>
      </trkpt>
      <trkpt lat="43.073283" lon="-4.766450">
        <ele>2360.0</ele>
        <time>2013-09-04T12:36:21Z</time>
      </trkpt>
      <trkpt lat="43.073300" lon="-4.766367">
        <ele>2362.0</ele>
        <time>2013-09-04T12:36:22Z</time>
      </trkpt>
      <trkpt lat="43.073317" lon="-4.766300">
        <ele>2364.0</ele>
        <time>2013-09-04T12:36:23Z</time>
      </trkpt>
      <trkpt lat="43.073317" lon="-4.766250">
        <ele>2366.0</ele>
        <time>2013-09-04T12:36:24Z</time>
      </trkpt>
      <trkpt lat="43.073333" lon="-4.766200">
        <ele>2366.0</ele>
        <time>2013-09-04T12:36:25Z</time>
      </trkpt>
      <trkpt lat="43.073333" lon="-4.766150">
        <ele>2366.0</ele>
        <time>2013-09-04T12:36:26Z</time>
      </trkpt>
      <trkpt lat="43.073333" lon="-4.766067">
        <ele>2366.0</ele>
        <time>2013-09-04T12:36:27Z</time>
      </trkpt>
      <trkpt lat="43.073350" lon="-4.765983">
        <ele>2365.0</ele>
        <time>2013-09-04T12:36:28Z</time>
      </trkpt>
      <trkpt lat="43.073350" lon="-4.765883">
        <ele>2365.0</ele>
        <time>2013-09-04T12:36:29Z</time>
      </trkpt>
      <trkpt lat="43.073333" lon="-4.765783">
        <ele>2364.0</ele>
        <time>2013-09-04T12:36:30Z</time>
      </trkpt>
      <trkpt lat="43.073317" lon="-4.765683">
        <ele>2364.0</ele>
        <time>2013-09-04T12:36:31Z</time>
      </trkpt>
      <trkpt lat="43.073317" lon="-4.765583">
        <ele>2365.0</ele>
        <time>2013-09-04T12:36:32Z</time>
      </trkpt>
      <trkpt lat="43.073317" lon="-4.765483">
        <ele>2365.0</ele>
        <time>2013-09-04T12:36:33Z</time>
      </trkpt>
      <trkpt lat="43.073333" lon="-4.765400">
        <ele>2364.0</ele>
        <time>2013-09-04T12:36:34Z</time>
      </trkpt>
      <trkpt lat="43.073350" lon="-4.765317">
        <ele>2363.0</ele>
        <time>2013-09-04T12:36:35Z</time>
      </trkpt>
      <trkpt lat="43.073367" lon="-4.765233">
        <ele>2361.0</ele>
        <time>2013-09-04T12:36:36Z</time>
      </trkpt>
      <trkpt lat="43.073367" lon="-4.765133">
        <ele>2360.0</ele>
        <time>2013-09-04T12:36:37Z</time>
      </trkpt>
      <trkpt lat="43.073350" lon="-4.765050">
        <ele>2359.0</ele>
        <time>2013-09-04T12:36:38Z</time>
      </trkpt>
      <trkpt lat="43.073350" lon="-4.764983">
        <ele>2357.0</ele>
        <time>2013-09-04T12:36:39Z</time>
      </trkpt>
      <trkpt lat="43.073350" lon="-4.764900">
        <ele>2355.0</ele>
        <time>2013-09-04T12:36:40Z</time>
      </trkpt>
      <trkpt lat="43.073350" lon="-4.764800">
        <ele>2353.0</ele>
        <time>2013-09-04T12:36:41Z</time>
      </trkpt>
      <trkpt lat="43.073350" lon="-4.764700">
        <ele>2351.0</ele>
        <time>2013-09-04T12:36:42Z</time>
      </trkpt>
      <trkpt lat="43.073367" lon="-4.764617">
        <ele>2350.0</ele>
        <time>2013-09-04T12:36:43Z</time>
      </trkpt>
      <trkpt lat="43.073367" lon="-4.764533">
        <ele>2349.0</ele>
        <time>2013-09-04T12:36:44Z</time>
      </trkpt>
      <trkpt lat="43.073367" lon="-4.764433">
        <ele>2348.0</ele>
        <time>2013-09-04T12:36:45Z</time>
      </trkpt>
      <trkpt lat="43.073367" lon="-4.764333">
        <ele>2347.0</ele>
        <time>2013-09-04T12:36:46Z</time>
      </trkpt>
      <trkpt lat="43.073367" lon="-4.764233">
        <ele>2345.0</ele>
        <time>2013-09-04T12:36:47Z</time>
      </trkpt>
      <trkpt lat="43.073367" lon="-4.764150">
        <ele>2342.0</ele>
        <time>2013-09-04T12:36:48Z</time>
      </trkpt>
      <trkpt lat="43.073383" lon="-4.764067">
        <ele>2340.0</ele>
        <time>2013-09-04T12:36:49Z</time>
      </trkpt>
      <trkpt lat="43.073400" lon="-4.763983">
        <ele>2338.0</ele>
        <time>2013-09-04T12:36:50Z</time>
      </trkpt>
      <trkpt lat="43.073400" lon="-4.763917">
        <ele>2337.0</ele>
        <time>2013-09-04T12:36:51Z</time>
      </trkpt>
      <trkpt lat="43.073400" lon="-4.763850">
        <ele>2334.0</ele>
        <time>2013-09-04T12:36:52Z</time>
      </trkpt>
      <trkpt lat="43.073383" lon="-4.763783">
        <ele>2330.0</ele>
        <time>2013-09-04T12:36:53Z</time>
      </trkpt>
      <trkpt lat="43.073383" lon="-4.763700">
        <ele>2326.0</ele>
        <time>2013-09-04T12:36:54Z</time>
      </trkpt>
      <trkpt lat="43.073383" lon="-4.763617">
        <ele>2321.0</ele>
        <time>2013-09-04T12:36:55Z</time>
      </trkpt>
      <trkpt lat="43.073383" lon="-4.763517">
        <ele>2317.0</ele>
        <time>2013-09-04T12:36:56Z</time>
      </trkpt>
      <trkpt lat="43.073367" lon="-4.763433">
        <ele>2313.0</ele>
        <time>2013-09-04T12:36:57Z</time>
      </trkpt>
      <trkpt lat="43.073350" lon="-4.763333">
        <ele>2312.0</ele>
        <time>2013-09-04T12:36:58Z</time>
      </trkpt>
      <trkpt lat="43.073350" lon="-4.763267">
        <ele>2310.0</ele>
        <time>2013-09-04T12:36:59Z</time>
      </trkpt>
      <trkpt lat="43.073350" lon="-4.763183">
        <ele>2308.0</ele>
        <time>2013-09-04T12:37:00Z</time>
      </trkpt>
      <trkpt lat="43.073367" lon="-4.763100">
        <ele>2305.0</ele>
        <time>2013-09-04T12:37:01Z</time>
      </trkpt>
      <trkpt lat="43.073383" lon="-4.763000">
        <ele>2303.0</ele>
        <time>2013-09-04T12:37:02Z</time>
      </trkpt>
      <trkpt lat="43.073383" lon="-4.762917">
        <ele>2303.0</ele>
        <time>2013-09-04T12:37:03Z</time>
      </trkpt>
      <trkpt lat="43.073400" lon="-4.762833">
        <ele>2302.0</ele>
        <time>2013-09-04T12:37:04Z</time>
      </trkpt>
      <trkpt lat="43.073417" lon="-4.762750">
        <ele>2301.0</ele>
        <time>2013-09-04T12:37:05Z</time>
      </trkpt>
      <trkpt lat="43.073433" lon="-4.762667">
        <ele>2300.0</ele>
        <time>2013-09-04T12:37:06Z</time>
      </trkpt>
      <trkpt lat="43.073450" lon="-4.762583">
        <ele>2299.0</ele>
        <time>2013-09-04T12:37:07Z</time>
      </trkpt>
      <trkpt lat="43.073450" lon="-4.762483">
        <ele>2297.0</ele>
        <time>2013-09-04T12:37:08Z</time>
      </trkpt>
      <trkpt lat="43.073450" lon="-4.762383">
        <ele>2296.0</ele>
        <time>2013-09-04T12:37:09Z</time>
      </trkpt>
      <trkpt lat="43.073467" lon="-4.762283">
        <ele>2295.0</ele>
        <time>2013-09-04T12:37:10Z</time>
      </trkpt>
      <trkpt lat="43.073467" lon="-4.762200">
        <ele>2295.0</ele>
        <time>2013-09-04T12:37:11Z</time>
      </trkpt>
      <trkpt lat="43.073483" lon="-4.762100">
        <ele>2294.0</ele>
        <time>2013-09-04T12:37:12Z</time>
      </trkpt>
      <trkpt lat="43.073500" lon="-4.762000">
        <ele>2294.0</ele>
        <time>2013-09-04T12:37:13Z</time>
      </trkpt>
      <trkpt lat="43.073517" lon="-4.761900">
        <ele>2293.0</ele>
        <time>2013-09-04T12:37:14Z</time>
      </trkpt>
      <trkpt lat="43.073517" lon="-4.761800">
        <ele>2293.0</ele>
        <time>2013-09-04T12:37:15Z</time>
      </trkpt>
      <trkpt lat="43.073517" lon="-4.761717">
        <ele>2294.0</ele>
        <time>2013-09-04T12:37:16Z</time>
      </trkpt>
      <trkpt lat="43.073517" lon="-4.761617">
        <ele>2293.0</ele>
        <time>2013-09-04T12:37:17Z</time>
      </trkpt>
      <trkpt lat="43.073517" lon="-4.761533">
        <ele>2293.0</ele>
        <time>2013-09-04T12:37:18Z</time>
      </trkpt>
      <trkpt lat="43.073517" lon="-4.761433">
        <ele>2291.0</ele>
        <time>2013-09-04T12:37:19Z</time>
      </trkpt>
      <trkpt lat="43.073517" lon="-4.761317">
        <ele>2290.0</ele>
        <time>2013-09-04T12:37:20Z</time>
      </trkpt>
      <trkpt lat="43.073517" lon="-4.761217">
        <ele>2290.0</ele>
        <time>2013-09-04T12:37:21Z</time>
      </trkpt>
      <trkpt lat="43.073517" lon="-4.761100">
        <ele>2290.0</ele>
        <time>2013-09-04T12:37:22Z</time>
      </trkpt>
      <trkpt lat="43.073533" lon="-4.761000">
        <ele>2290.0</ele>
        <time>2013-09-04T12:37:23Z</time>
      </trkpt>
      <trkpt lat="43.073533" lon="-4.760900">
        <ele>2290.0</ele>
        <time>2013-09-04T12:37:24Z</time>
      </trkpt>
      <trkpt lat="43.073533" lon="-4.760800">
        <ele>2292.0</ele>
        <time>2013-09-04T12:37:25Z</time>
      </trkpt>
      <trkpt lat="43.073533" lon="-4.760717">
        <ele>2294.0</ele>
        <time>2013-09-04T12:37:26Z</time>
      </trkpt>
      <trkpt lat="43.073567" lon="-4.760667">
        <ele>2296.0</ele>
        <time>2013-09-04T12:37:27Z</time>
      </trkpt>
      <trkpt lat="43.073583" lon="-4.760617">
        <ele>2297.0</ele>
        <time>2013-09-04T12:37:28Z</time>
      </trkpt>
      <trkpt lat="43.073600" lon="-4.760567">
        <ele>2297.0</ele>
        <time>2013-09-04T12:37:29Z</time>
      </trkpt>
      <trkpt lat="43.073600" lon="-4.760517">
        <ele>2296.0</ele>
        <time>2013-09-04T12:37:30Z</time>
      </trkpt>
      <trkpt lat="43.073617" lon="-4.760450">
        <ele>2296.0</ele>
        <time>2013-09-04T12:37:31Z</time>
      </trkpt>
      <trkpt lat="43.073617" lon="-4.760383">
        <ele>2294.0</ele>
        <time>2013-09-04T12:37:32Z</time>
      </trkpt>
      <trkpt lat="43.073633" lon="-4.760283">
        <ele>2293.0</ele>
        <time>2013-09-04T12:37:33Z</time>
      </trkpt>
      <trkpt lat="43.073650" lon="-4.760183">
        <ele>2293.0</ele>
        <time>2013-09-04T12:37:34Z</time>
      </trkpt>
      <trkpt lat="43.073650" lon="-4.760100">
        <ele>2293.0</ele>
        <time>2013-09-04T12:37:35Z</time>
      </trkpt>
      <trkpt lat="43.073667" lon="-4.760017">
        <ele>2293.0</ele>
        <time>2013-09-04T12:37:36Z</time>
      </trkpt>
      <trkpt lat="43.073683" lon="-4.759933">
        <ele>2293.0</ele>
        <time>2013-09-04T12:37:37Z</time>
      </trkpt>
      <trkpt lat="43.073717" lon="-4.759850">
        <ele>2293.0</ele>
        <time>2013-09-04T12:37:38Z</time>
      </trkpt>
      <trkpt lat="43.073733" lon="-4.759767">
        <ele>2291.0</ele>
        <time>2013-09-04T12:37:39Z</time>
      </trkpt>
      <trkpt lat="43.073767" lon="-4.759683">
        <ele>2290.0</ele>
        <time>2013-09-04T12:37:40Z</time>
      </trkpt>
      <trkpt lat="43.073800" lon="-4.759583">
        <ele>2290.0</ele>
        <time>2013-09-04T12:37:41Z</time>
      </trkpt>
      <trkpt lat="43.073817" lon="-4.759500">
        <ele>2290.0</ele>
        <time>2013-09-04T12:37:42Z</time>
      </trkpt>
      <trkpt lat="43.073850" lon="-4.759433">
        <ele>2290.0</ele>
        <time>2013-09-04T12:37:43Z</time>
      </trkpt>
      <trkpt lat="43.073883" lon="-4.759367">
        <ele>2291.0</ele>
        <time>2013-09-04T12:37:44Z</time>
      </trkpt>
      <trkpt lat="43.073917" lon="-4.759317">
        <ele>2291.0</ele>
        <time>2013-09-04T12:37:45Z</time>
      </trkpt>
      <trkpt lat="43.073933" lon="-4.759250">
        <ele>2290.0</ele>
        <time>2013-09-04T12:37:46Z</time>
      </trkpt>
      <trkpt lat="43.073950" lon="-4.759183">
        <ele>2289.0</ele>
        <time>2013-09-04T12:37:47Z</time>
      </trkpt>
      <trkpt lat="43.073983" lon="-4.759100">
        <ele>2287.0</ele>
        <time>2013-09-04T12:37:48Z</time>
      </trkpt>
      <trkpt lat="43.074000" lon="-4.759000">
        <ele>2285.0</ele>
        <time>2013-09-04T12:37:49Z</time>
      </trkpt>
      <trkpt lat="43.074033" lon="-4.758900">
        <ele>2285.0</ele>
        <time>2013-09-04T12:37:50Z</time>
      </trkpt>
      <trkpt lat="43.074067" lon="-4.758817">
        <ele>2286.0</ele>
        <time>2013-09-04T12:37:51Z</time>
      </trkpt>
      <trkpt lat="43.074083" lon="-4.758750">
        <ele>2287.0</ele>
        <time>2013-09-04T12:37:52Z</time>
      </trkpt>
      <trkpt lat="43.074100" lon="-4.758700">
        <ele>2287.0</ele>
        <time>2013-09-04T12:37:53Z</time>
      </trkpt>
      <trkpt lat="43.074133" lon="-4.758633">
        <ele>2286.0</ele>
        <time>2013-09-04T12:37:54Z</time>
      </trkpt>
      <trkpt lat="43.074167" lon="-4.758550">
        <ele>2283.0</ele>
        <time>2013-09-04T12:37:55Z</time>
      </trkpt>
      <trkpt lat="43.074200" lon="-4.758467">
        <ele>2281.0</ele>
        <time>2013-09-04T12:37:56Z</time>
      </trkpt>
      <trkpt lat="43.074217" lon="-4.758367">
        <ele>2280.0</ele>
        <time>2013-09-04T12:37:57Z</time>
      </trkpt>
      <trkpt lat="43.074250" lon="-4.758283">
        <ele>2279.0</ele>
        <time>2013-09-04T12:37:58Z</time>
      </trkpt>
      <trkpt lat="43.074267" lon="-4.758200">
        <ele>2279.0</ele>
        <time>2013-09-04T12:37:59Z</time>
      </trkpt>
      <trkpt lat="43.074300" lon="-4.758117">
        <ele>2278.0</ele>
        <time>2013-09-04T12:38:00Z</time>
      </trkpt>
      <trkpt lat="43.074317" lon="-4.758033">
        <ele>2277.0</ele>
        <time>2013-09-04T12:38:01Z</time>
      </trkpt>
      <trkpt lat="43.074350" lon="-4.757950">
        <ele>2276.0</ele>
        <time>2013-09-04T12:38:02Z</time>
      </trkpt>
      <trkpt lat="43.074367" lon="-4.757850">
        <ele>2274.0</ele>
        <time>2013-09-04T12:38:03Z</time>
      </trkpt>
      <trkpt lat="43.074400" lon="-4.757767">
        <ele>2273.0</ele>
        <time>2013-09-04T12:38:04Z</time>
      </trkpt>
      <trkpt lat="43.074433" lon="-4.757667">
        <ele>2272.0</ele>
        <time>2013-09-04T12:38:05Z</time>
      </trkpt>
      <trkpt lat="43.074467" lon="-4.757600">
        <ele>2271.0</ele>
        <time>2013-09-04T12:38:06Z</time>
      </trkpt>
      <trkpt lat="43.074500" lon="-4.757517">
        <ele>2270.0</ele>
        <time>2013-09-04T12:38:07Z</time>
      </trkpt>
      <trkpt lat="43.074550" lon="-4.757433">
        <ele>2269.0</ele>
        <time>2013-09-04T12:38:08Z</time>
      </trkpt>
      <trkpt lat="43.074583" lon="-4.757350">
        <ele>2267.0</ele>
        <time>2013-09-04T12:38:09Z</time>
      </trkpt>
      <trkpt lat="43.074617" lon="-4.757250">
        <ele>2267.0</ele>
        <time>2013-09-04T12:38:10Z</time>
      </trkpt>
      <trkpt lat="43.074650" lon="-4.757167">
        <ele>2266.0</ele>
        <time>2013-09-04T12:38:11Z</time>
      </trkpt>
      <trkpt lat="43.074700" lon="-4.757083">
        <ele>2265.0</ele>
        <time>2013-09-04T12:38:12Z</time>
      </trkpt>
      <trkpt lat="43.074733" lon="-4.757017">
        <ele>2264.0</ele>
        <time>2013-09-04T12:38:13Z</time>
      </trkpt>
      <trkpt lat="43.074767" lon="-4.756933">
        <ele>2263.0</ele>
        <time>2013-09-04T12:38:14Z</time>
      </trkpt>
      <trkpt lat="43.074817" lon="-4.756850">
        <ele>2261.0</ele>
        <time>2013-09-04T12:38:15Z</time>
      </trkpt>
      <trkpt lat="43.074850" lon="-4.756767">
        <ele>2260.0</ele>
        <time>2013-09-04T12:38:16Z</time>
      </trkpt>
      <trkpt lat="43.074900" lon="-4.756700">
        <ele>2259.0</ele>
        <time>2013-09-04T12:38:17Z</time>
      </trkpt>
      <trkpt lat="43.074933" lon="-4.756617">
        <ele>2258.0</ele>
        <time>2013-09-04T12:38:18Z</time>
      </trkpt>
      <trkpt lat="43.074967" lon="-4.756550">
        <ele>2257.0</ele>
        <time>2013-09-04T12:38:19Z</time>
      </trkpt>
      <trkpt lat="43.075000" lon="-4.756467">
        <ele>2255.0</ele>
        <time>2013-09-04T12:38:20Z</time>
      </trkpt>
      <trkpt lat="43.075033" lon="-4.756383">
        <ele>2254.0</ele>
        <time>2013-09-04T12:38:21Z</time>
      </trkpt>
      <trkpt lat="43.075050" lon="-4.756300">
        <ele>2253.0</ele>
        <time>2013-09-04T12:38:22Z</time>
      </trkpt>
      <trkpt lat="43.075067" lon="-4.756233">
        <ele>2252.0</ele>
        <time>2013-09-04T12:38:23Z</time>
      </trkpt>
      <trkpt lat="43.075083" lon="-4.756167">
        <ele>2250.0</ele>
        <time>2013-09-04T12:38:24Z</time>
      </trkpt>
      <trkpt lat="43.075100" lon="-4.756083">
        <ele>2248.0</ele>
        <time>2013-09-04T12:38:25Z</time>
      </trkpt>
      <trkpt lat="43.075117" lon="-4.756017">
        <ele>2246.0</ele>
        <time>2013-09-04T12:38:26Z</time>
      </trkpt>
      <trkpt lat="43.075133" lon="-4.755933">
        <ele>2243.0</ele>
        <time>2013-09-04T12:38:27Z</time>
      </trkpt>
      <trkpt lat="43.075150" lon="-4.755850">
        <ele>2242.0</ele>
        <time>2013-09-04T12:38:28Z</time>
      </trkpt>
      <trkpt lat="43.075150" lon="-4.755767">
        <ele>2241.0</ele>
        <time>2013-09-04T12:38:29Z</time>
      </trkpt>
      <trkpt lat="43.075167" lon="-4.755700">
        <ele>2240.0</ele>
        <time>2013-09-04T12:38:30Z</time>
      </trkpt>
      <trkpt lat="43.075183" lon="-4.755633">
        <ele>2238.0</ele>
        <time>2013-09-04T12:38:31Z</time>
      </trkpt>
      <trkpt lat="43.075200" lon="-4.755567">
        <ele>2236.0</ele>
        <time>2013-09-04T12:38:32Z</time>
      </trkpt>
      <trkpt lat="43.075217" lon="-4.755483">
        <ele>2233.0</ele>
        <time>2013-09-04T12:38:33Z</time>
      </trkpt>
      <trkpt lat="43.075250" lon="-4.755383">
        <ele>2231.0</ele>
        <time>2013-09-04T12:38:34Z</time>
      </trkpt>
      <trkpt lat="43.075283" lon="-4.755300">
        <ele>2229.0</ele>
        <time>2013-09-04T12:38:35Z</time>
      </trkpt>
      <trkpt lat="43.075300" lon="-4.755233">
        <ele>2229.0</ele>
        <time>2013-09-04T12:38:36Z</time>
      </trkpt>
      <trkpt lat="43.075317" lon="-4.755150">
        <ele>2228.0</ele>
        <time>2013-09-04T12:38:37Z</time>
      </trkpt>
      <trkpt lat="43.075350" lon="-4.755067">
        <ele>2227.0</ele>
        <time>2013-09-04T12:38:38Z</time>
      </trkpt>
      <trkpt lat="43.075367" lon="-4.754967">
        <ele>2227.0</ele>
        <time>2013-09-04T12:38:39Z</time>
      </trkpt>
      <trkpt lat="43.075367" lon="-4.754883">
        <ele>2229.0</ele>
        <time>2013-09-04T12:38:40Z</time>
      </trkpt>
      <trkpt lat="43.075400" lon="-4.754800">
        <ele>2229.0</ele>
        <time>2013-09-04T12:38:41Z</time>
      </trkpt>
      <trkpt lat="43.075417" lon="-4.754717">
        <ele>2229.0</ele>
        <time>2013-09-04T12:38:42Z</time>
      </trkpt>
      <trkpt lat="43.075433" lon="-4.754633">
        <ele>2228.0</ele>
        <time>2013-09-04T12:38:43Z</time>
      </trkpt>
      <trkpt lat="43.075467" lon="-4.754533">
        <ele>2227.0</ele>
        <time>2013-09-04T12:38:44Z</time>
      </trkpt>
      <trkpt lat="43.075483" lon="-4.754417">
        <ele>2226.0</ele>
        <time>2013-09-04T12:38:45Z</time>
      </trkpt>
      <trkpt lat="43.075500" lon="-4.754317">
        <ele>2226.0</ele>
        <time>2013-09-04T12:38:46Z</time>
      </trkpt>
      <trkpt lat="43.075533" lon="-4.754217">
        <ele>2227.0</ele>
        <time>2013-09-04T12:38:47Z</time>
      </trkpt>
      <trkpt lat="43.075550" lon="-4.754117">
        <ele>2228.0</ele>
        <time>2013-09-04T12:38:48Z</time>
      </trkpt>
      <trkpt lat="43.075567" lon="-4.754033">
        <ele>2229.0</ele>
        <time>2013-09-04T12:38:49Z</time>
      </trkpt>
      <trkpt lat="43.075600" lon="-4.753950">
        <ele>2231.0</ele>
        <time>2013-09-04T12:38:50Z</time>
      </trkpt>
      <trkpt lat="43.075617" lon="-4.753883">
        <ele>2233.0</ele>
        <time>2013-09-04T12:38:51Z</time>
      </trkpt>
      <trkpt lat="43.075617" lon="-4.753833">
        <ele>2235.0</ele>
        <time>2013-09-04T12:38:52Z</time>
      </trkpt>
      <trkpt lat="43.075633" lon="-4.753783">
        <ele>2235.0</ele>
        <time>2013-09-04T12:38:53Z</time>
      </trkpt>
      <trkpt lat="43.075650" lon="-4.753700">
        <ele>2237.0</ele>
        <time>2013-09-04T12:38:54Z</time>
      </trkpt>
      <trkpt lat="43.075667" lon="-4.753633">
        <ele>2239.0</ele>
        <time>2013-09-04T12:38:55Z</time>
      </trkpt>
      <trkpt lat="43.075683" lon="-4.753567">
        <ele>2241.0</ele>
        <time>2013-09-04T12:38:56Z</time>
      </trkpt>
      <trkpt lat="43.075683" lon="-4.753500">
        <ele>2243.0</ele>
        <time>2013-09-04T12:38:57Z</time>
      </trkpt>
      <trkpt lat="43.075683" lon="-4.753450">
        <ele>2245.0</ele>
        <time>2013-09-04T12:38:58Z</time>
      </trkpt>
      <trkpt lat="43.075683" lon="-4.753400">
        <ele>2247.0</ele>
        <time>2013-09-04T12:38:59Z</time>
      </trkpt>
      <trkpt lat="43.075700" lon="-4.753350">
        <ele>2249.0</ele>
        <time>2013-09-04T12:39:00Z</time>
      </trkpt>
      <trkpt lat="43.075700" lon="-4.753300">
        <ele>2250.0</ele>
        <time>2013-09-04T12:39:01Z</time>
      </trkpt>
      <trkpt lat="43.075717" lon="-4.753250">
        <ele>2252.0</ele>
        <time>2013-09-04T12:39:02Z</time>
      </trkpt>
      <trkpt lat="43.075733" lon="-4.753183">
        <ele>2254.0</ele>
        <time>2013-09-04T12:39:03Z</time>
      </trkpt>
      <trkpt lat="43.075750" lon="-4.753133">
        <ele>2257.0</ele>
        <time>2013-09-04T12:39:04Z</time>
      </trkpt>
      <trkpt lat="43.075767" lon="-4.753100">
        <ele>2259.0</ele>
        <time>2013-09-04T12:39:05Z</time>
      </trkpt>
      <trkpt lat="43.075783" lon="-4.753067">
        <ele>2262.0</ele>
        <time>2013-09-04T12:39:06Z</time>
      </trkpt>
      <trkpt lat="43.075817" lon="-4.753067">
        <ele>2264.0</ele>
        <time>2013-09-04T12:39:07Z</time>
      </trkpt>
      <trkpt lat="43.075850" lon="-4.753050">
        <ele>2264.0</ele>
        <time>2013-09-04T12:39:08Z</time>
      </trkpt>
      <trkpt lat="43.075900" lon="-4.753017">
        <ele>2265.0</ele>
        <time>2013-09-04T12:39:09Z</time>
      </trkpt>
      <trkpt lat="43.075950" lon="-4.753000">
        <ele>2267.0</ele>
        <time>2013-09-04T12:39:10Z</time>
      </trkpt>
      <trkpt lat="43.076017" lon="-4.753017">
        <ele>2268.0</ele>
        <time>2013-09-04T12:39:11Z</time>
      </trkpt>
      <trkpt lat="43.076100" lon="-4.753100">
        <ele>2270.0</ele>
        <time>2013-09-04T12:39:12Z</time>
      </trkpt>
      <trkpt lat="43.076167" lon="-4.753217">
        <ele>2272.0</ele>
        <time>2013-09-04T12:39:13Z</time>
      </trkpt>
      <trkpt lat="43.076200" lon="-4.753367">
        <ele>2274.0</ele>
        <time>2013-09-04T12:39:14Z</time>
      </trkpt>
      <trkpt lat="43.076183" lon="-4.753533">
        <ele>2276.0</ele>
        <time>2013-09-04T12:39:15Z</time>
      </trkpt>
      <trkpt lat="43.076150" lon="-4.753683">
        <ele>2279.0</ele>
        <time>2013-09-04T12:39:16Z</time>
      </trkpt>
      <trkpt lat="43.076083" lon="-4.753800">
        <ele>2281.0</ele>
        <time>2013-09-04T12:39:17Z</time>
      </trkpt>
      <trkpt lat="43.076017" lon="-4.753883">
        <ele>2283.0</ele>
        <time>2013-09-04T12:39:18Z</time>
      </trkpt>
      <trkpt lat="43.075933" lon="-4.753950">
        <ele>2285.0</ele>
        <time>2013-09-04T12:39:19Z</time>
      </trkpt>
      <trkpt lat="43.075850" lon="-4.754000">
        <ele>2287.0</ele>
        <time>2013-09-04T12:39:20Z</time>
      </trkpt>
      <trkpt lat="43.075767" lon="-4.754017">
        <ele>2289.0</ele>
        <time>2013-09-04T12:39:21Z</time>
      </trkpt>
      <trkpt lat="43.075700" lon="-4.754017">
        <ele>2290.0</ele>
        <time>2013-09-04T12:39:22Z</time>
      </trkpt>
      <trkpt lat="43.075633" lon="-4.753967">
        <ele>2290.0</ele>
        <time>2013-09-04T12:39:23Z</time>
      </trkpt>
      <trkpt lat="43.075583" lon="-4.753900">
        <ele>2291.0</ele>
        <time>2013-09-04T12:39:24Z</time>
      </trkpt>
      <trkpt lat="43.075567" lon="-4.753833">
        <ele>2293.0</ele>
        <time>2013-09-04T12:39:25Z</time>
      </trkpt>
      <trkpt lat="43.075583" lon="-4.753767">
        <ele>2295.0</ele>
        <time>2013-09-04T12:39:26Z</time>
      </trkpt>
      <trkpt lat="43.075617" lon="-4.753733">
        <ele>2296.0</ele>
        <time>2013-09-04T12:39:27Z</time>
      </trkpt>
      <trkpt lat="43.075633" lon="-4.753683">
        <ele>2298.0</ele>
        <time>2013-09-04T12:39:28Z</time>
      </trkpt>
      <trkpt lat="43.075650" lon="-4.753633">
        <ele>2299.0</ele>
        <time>2013-09-04T12:39:29Z</time>
      </trkpt>
      <trkpt lat="43.075667" lon="-4.753583">
        <ele>2300.0</ele>
        <time>2013-09-04T12:39:30Z</time>
      </trkpt>
      <trkpt lat="43.075683" lon="-4.753533">
        <ele>2302.0</ele>
        <time>2013-09-04T12:39:31Z</time>
      </trkpt>
      <trkpt lat="43.075700" lon="-4.753500">
        <ele>2303.0</ele>
        <time>2013-09-04T12:39:32Z</time>
      </trkpt>
      <trkpt lat="43.075733" lon="-4.753483">
        <ele>2304.0</ele>
        <time>2013-09-04T12:39:33Z</time>
      </trkpt>
      <trkpt lat="43.075767" lon="-4.753450">
        <ele>2304.0</ele>
        <time>2013-09-04T12:39:34Z</time>
      </trkpt>
      <trkpt lat="43.075800" lon="-4.753417">
        <ele>2305.0</ele>
        <time>2013-09-04T12:39:35Z</time>
      </trkpt>
      <trkpt lat="43.075833" lon="-4.753383">
        <ele>2307.0</ele>
        <time>2013-09-04T12:39:36Z</time>
      </trkpt>
      <trkpt lat="43.075850" lon="-4.753350">
        <ele>2309.0</ele>
        <time>2013-09-04T12:39:37Z</time>
      </trkpt>
      <trkpt lat="43.075883" lon="-4.753317">
        <ele>2312.0</ele>
        <time>2013-09-04T12:39:38Z</time>
      </trkpt>
      <trkpt lat="43.075900" lon="-4.753283">
        <ele>2315.0</ele>
        <time>2013-09-04T12:39:39Z</time>
      </trkpt>
      <trkpt lat="43.075933" lon="-4.753267">
        <ele>2318.0</ele>
        <time>2013-09-04T12:39:40Z</time>
      </trkpt>
      <trkpt lat="43.075967" lon="-4.753233">
        <ele>2320.0</ele>
        <time>2013-09-04T12:39:41Z</time>
      </trkpt>
      <trkpt lat="43.076000" lon="-4.753233">
        <ele>2322.0</ele>
        <time>2013-09-04T12:39:42Z</time>
      </trkpt>
      <trkpt lat="43.076050" lon="-4.753233">
        <ele>2323.0</ele>
        <time>2013-09-04T12:39:43Z</time>
      </trkpt>
      <trkpt lat="43.076117" lon="-4.753283">
        <ele>2325.0</ele>
        <time>2013-09-04T12:39:44Z</time>
      </trkpt>
      <trkpt lat="43.076183" lon="-4.753367">
        <ele>2326.0</ele>
        <time>2013-09-04T12:39:45Z</time>
      </trkpt>
      <trkpt lat="43.076233" lon="-4.753500">
        <ele>2327.0</ele>
        <time>2013-09-04T12:39:46Z</time>
      </trkpt>
      <trkpt lat="43.076267" lon="-4.753633">
        <ele>2329.0</ele>
        <time>2013-09-04T12:39:47Z</time>
      </trkpt>
      <trkpt lat="43.076267" lon="-4.753783">
        <ele>2331.0</ele>
        <time>2013-09-04T12:39:48Z</time>
      </trkpt>
      <trkpt lat="43.076250" lon="-4.753917">
        <ele>2332.0</ele>
        <time>2013-09-04T12:39:49Z</time>
      </trkpt>
      <trkpt lat="43.076200" lon="-4.754050">
        <ele>2335.0</ele>
        <time>2013-09-04T12:39:50Z</time>
      </trkpt>
      <trkpt lat="43.076150" lon="-4.754167">
        <ele>2337.0</ele>
        <time>2013-09-04T12:39:51Z</time>
      </trkpt>
      <trkpt lat="43.076083" lon="-4.754267">
        <ele>2339.0</ele>
        <time>2013-09-04T12:39:52Z</time>
      </trkpt>
      <trkpt lat="43.076000" lon="-4.754333">
        <ele>2341.0</ele>
        <time>2013-09-04T12:39:53Z</time>
      </trkpt>
      <trkpt lat="43.075933" lon="-4.754383">
        <ele>2342.0</ele>
        <time>2013-09-04T12:39:54Z</time>
      </trkpt>
      <trkpt lat="43.075850" lon="-4.754400">
        <ele>2343.0</ele>
        <time>2013-09-04T12:39:55Z</time>
      </trkpt>
      <trkpt lat="43.075767" lon="-4.754383">
        <ele>2343.0</ele>
        <time>2013-09-04T12:39:56Z</time>
      </trkpt>
      <trkpt lat="43.075700" lon="-4.754333">
        <ele>2344.0</ele>
        <time>2013-09-04T12:39:57Z</time>
      </trkpt>
      <trkpt lat="43.075683" lon="-4.754283">
        <ele>2347.0</ele>
        <time>2013-09-04T12:39:58Z</time>
      </trkpt>
      <trkpt lat="43.075667" lon="-4.754233">
        <ele>2351.0</ele>
        <time>2013-09-04T12:39:59Z</time>
      </trkpt>
      <trkpt lat="43.075683" lon="-4.754200">
        <ele>2353.0</ele>
        <time>2013-09-04T12:40:00Z</time>
      </trkpt>
      <trkpt lat="43.075700" lon="-4.754167">
        <ele>2356.0</ele>
        <time>2013-09-04T12:40:01Z</time>
      </trkpt>
      <trkpt lat="43.075717" lon="-4.754117">
        <ele>2358.0</ele>
        <time>2013-09-04T12:40:02Z</time>
      </trkpt>
      <trkpt lat="43.075750" lon="-4.754067">
        <ele>2360.0</ele>
        <time>2013-09-04T12:40:03Z</time>
      </trkpt>
      <trkpt lat="43.075767" lon="-4.754017">
        <ele>2363.0</ele>
        <time>2013-09-04T12:40:04Z</time>
      </trkpt>
      <trkpt lat="43.075800" lon="-4.754000">
        <ele>2366.0</ele>
        <time>2013-09-04T12:40:05Z</time>
      </trkpt>
      <trkpt lat="43.075850" lon="-4.753983">
        <ele>2368.0</ele>
        <time>2013-09-04T12:40:06Z</time>
      </trkpt>
      <trkpt lat="43.075917" lon="-4.753967">
        <ele>2369.0</ele>
        <time>2013-09-04T12:40:07Z</time>
      </trkpt>
      <trkpt lat="43.075967" lon="-4.753967">
        <ele>2371.0</ele>
        <time>2013-09-04T12:40:08Z</time>
      </trkpt>
      <trkpt lat="43.076033" lon="-4.754000">
        <ele>2372.0</ele>
        <time>2013-09-04T12:40:09Z</time>
      </trkpt>
      <trkpt lat="43.076100" lon="-4.754050">
        <ele>2373.0</ele>
        <time>2013-09-04T12:40:10Z</time>
      </trkpt>
      <trkpt lat="43.076167" lon="-4.754133">
        <ele>2374.0</ele>
        <time>2013-09-04T12:40:11Z</time>
      </trkpt>
      <trkpt lat="43.076233" lon="-4.754233">
        <ele>2374.0</ele>
        <time>2013-09-04T12:40:12Z</time>
      </trkpt>
      <trkpt lat="43.076283" lon="-4.754367">
        <ele>2375.0</ele>
        <time>2013-09-04T12:40:13Z</time>
      </trkpt>
      <trkpt lat="43.076317" lon="-4.754517">
        <ele>2375.0</ele>
        <time>2013-09-04T12:40:14Z</time>
      </trkpt>
      <trkpt lat="43.076300" lon="-4.754667">
        <ele>2375.0</ele>
        <time>2013-09-04T12:40:15Z</time>
      </trkpt>
      <trkpt lat="43.076283" lon="-4.754817">
        <ele>2375.0</ele>
        <time>2013-09-04T12:40:16Z</time>
      </trkpt>
      <trkpt lat="43.076233" lon="-4.754967">
        <ele>2376.0</ele>
        <time>2013-09-04T12:40:17Z</time>
      </trkpt>
      <trkpt lat="43.076183" lon="-4.755083">
        <ele>2377.0</ele>
        <time>2013-09-04T12:40:18Z</time>
      </trkpt>
      <trkpt lat="43.076117" lon="-4.755200">
        <ele>2378.0</ele>
        <time>2013-09-04T12:40:19Z</time>
      </trkpt>
      <trkpt lat="43.076033" lon="-4.755283">
        <ele>2380.0</ele>
        <time>2013-09-04T12:40:20Z</time>
      </trkpt>
      <trkpt lat="43.075933" lon="-4.755333">
        <ele>2384.0</ele>
        <time>2013-09-04T12:40:21Z</time>
      </trkpt>
      <trkpt lat="43.075867" lon="-4.755350">
        <ele>2387.0</ele>
        <time>2013-09-04T12:40:22Z</time>
      </trkpt>
      <trkpt lat="43.075783" lon="-4.755367">
        <ele>2390.0</ele>
        <time>2013-09-04T12:40:23Z</time>
      </trkpt>
      <trkpt lat="43.075717" lon="-4.755383">
        <ele>2393.0</ele>
        <time>2013-09-04T12:40:24Z</time>
      </trkpt>
      <trkpt lat="43.075667" lon="-4.755400">
        <ele>2395.0</ele>
        <time>2013-09-04T12:40:25Z</time>
      </trkpt>
      <trkpt lat="43.075600" lon="-4.755400">
        <ele>2396.0</ele>
        <time>2013-09-04T12:40:26Z</time>
      </trkpt>
      <trkpt lat="43.075533" lon="-4.755383">
        <ele>2397.0</ele>
        <time>2013-09-04T12:40:27Z</time>
      </trkpt>
      <trkpt lat="43.075483" lon="-4.755333">
        <ele>2399.0</ele>
        <time>2013-09-04T12:40:28Z</time>
      </trkpt>
      <trkpt lat="43.075433" lon="-4.755267">
        <ele>2400.0</ele>
        <time>2013-09-04T12:40:29Z</time>
      </trkpt>
      <trkpt lat="43.075417" lon="-4.755183">
        <ele>2402.0</ele>
        <time>2013-09-04T12:40:30Z</time>
      </trkpt>
      <trkpt lat="43.075433" lon="-4.755117">
        <ele>2404.0</ele>
        <time>2013-09-04T12:40:31Z</time>
      </trkpt>
      <trkpt lat="43.075450" lon="-4.755050">
        <ele>2406.0</ele>
        <time>2013-09-04T12:40:32Z</time>
      </trkpt>
      <trkpt lat="43.075483" lon="-4.755000">
        <ele>2407.0</ele>
        <time>2013-09-04T12:40:33Z</time>
      </trkpt>
      <trkpt lat="43.075483" lon="-4.754950">
        <ele>2408.0</ele>
        <time>2013-09-04T12:40:34Z</time>
      </trkpt>
      <trkpt lat="43.075500" lon="-4.754900">
        <ele>2410.0</ele>
        <time>2013-09-04T12:40:35Z</time>
      </trkpt>
      <trkpt lat="43.075517" lon="-4.754833">
        <ele>2412.0</ele>
        <time>2013-09-04T12:40:36Z</time>
      </trkpt>
      <trkpt lat="43.075550" lon="-4.754783">
        <ele>2414.0</ele>
        <time>2013-09-04T12:40:37Z</time>
      </trkpt>
      <trkpt lat="43.075583" lon="-4.754767">
        <ele>2416.0</ele>
        <time>2013-09-04T12:40:38Z</time>
      </trkpt>
      <trkpt lat="43.075617" lon="-4.754767">
        <ele>2416.0</ele>
        <time>2013-09-04T12:40:39Z</time>
      </trkpt>
      <trkpt lat="43.075650" lon="-4.754750">
        <ele>2417.0</ele>
        <time>2013-09-04T12:40:40Z</time>
      </trkpt>
      <trkpt lat="43.075700" lon="-4.754733">
        <ele>2419.0</ele>
        <time>2013-09-04T12:40:41Z</time>
      </trkpt>
      <trkpt lat="43.075750" lon="-4.754733">
        <ele>2421.0</ele>
        <time>2013-09-04T12:40:42Z</time>
      </trkpt>
      <trkpt lat="43.075817" lon="-4.754750">
        <ele>2423.0</ele>
        <time>2013-09-04T12:40:43Z</time>
      </trkpt>
      <trkpt lat="43.075883" lon="-4.754783">
        <ele>2425.0</ele>
        <time>2013-09-04T12:40:44Z</time>
      </trkpt>
      <trkpt lat="43.075967" lon="-4.754850">
        <ele>2427.0</ele>
        <time>2013-09-04T12:40:45Z</time>
      </trkpt>
      <trkpt lat="43.076050" lon="-4.754917">
        <ele>2430.0</ele>
        <time>2013-09-04T12:40:46Z</time>
      </trkpt>
      <trkpt lat="43.076117" lon="-4.754983">
        <ele>2433.0</ele>
        <time>2013-09-04T12:40:47Z</time>
      </trkpt>
      <trkpt lat="43.076167" lon="-4.755033">
        <ele>2437.0</ele>
        <time>2013-09-04T12:40:48Z</time>
      </trkpt>
      <trkpt lat="43.076217" lon="-4.755117">
        <ele>2440.0</ele>
        <time>2013-09-04T12:40:49Z</time>
      </trkpt>
      <trkpt lat="43.076267" lon="-4.755200">
        <ele>2441.0</ele>
        <time>2013-09-04T12:40:50Z</time>
      </trkpt>
      <trkpt lat="43.076300" lon="-4.755317">
        <ele>2443.0</ele>
        <time>2013-09-04T12:40:51Z</time>
      </trkpt>
      <trkpt lat="43.076333" lon="-4.755433">
        <ele>2444.0</ele>
        <time>2013-09-04T12:40:52Z</time>
      </trkpt>
      <trkpt lat="43.076367" lon="-4.755550">
        <ele>2444.0</ele>
        <time>2013-09-04T12:40:53Z</time>
      </trkpt>
      <trkpt lat="43.076367" lon="-4.755683">
        <ele>2444.0</ele>
        <time>2013-09-04T12:40:54Z</time>
      </trkpt>
      <trkpt lat="43.076333" lon="-4.755800">
        <ele>2444.0</ele>
        <time>2013-09-04T12:40:55Z</time>
      </trkpt>
      <trkpt lat="43.076267" lon="-4.755933">
        <ele>2443.0</ele>
        <time>2013-09-04T12:40:56Z</time>
      </trkpt>
      <trkpt lat="43.076183" lon="-4.756033">
        <ele>2445.0</ele>
        <time>2013-09-04T12:40:57Z</time>
      </trkpt>
      <trkpt lat="43.076100" lon="-4.756067">
        <ele>2447.0</ele>
        <time>2013-09-04T12:40:58Z</time>
      </trkpt>
      <trkpt lat="43.076033" lon="-4.756067">
        <ele>2447.0</ele>
        <time>2013-09-04T12:40:59Z</time>
      </trkpt>
      <trkpt lat="43.075967" lon="-4.756033">
        <ele>2448.0</ele>
        <time>2013-09-04T12:41:00Z</time>
      </trkpt>
      <trkpt lat="43.075933" lon="-4.755967">
        <ele>2449.0</ele>
        <time>2013-09-04T12:41:01Z</time>
      </trkpt>
      <trkpt lat="43.075883" lon="-4.755933">
        <ele>2450.0</ele>
        <time>2013-09-04T12:41:02Z</time>
      </trkpt>
      <trkpt lat="43.075850" lon="-4.755883">
        <ele>2452.0</ele>
        <time>2013-09-04T12:41:03Z</time>
      </trkpt>
      <trkpt lat="43.075817" lon="-4.755817">
        <ele>2453.0</ele>
        <time>2013-09-04T12:41:04Z</time>
      </trkpt>
      <trkpt lat="43.075783" lon="-4.755750">
        <ele>2454.0</ele>
        <time>2013-09-04T12:41:05Z</time>
      </trkpt>
      <trkpt lat="43.075783" lon="-4.755667">
        <ele>2457.0</ele>
        <time>2013-09-04T12:41:06Z</time>
      </trkpt>
      <trkpt lat="43.075783" lon="-4.755600">
        <ele>2460.0</ele>
        <time>2013-09-04T12:41:07Z</time>
      </trkpt>
      <trkpt lat="43.075800" lon="-4.755550">
        <ele>2462.0</ele>
        <time>2013-09-04T12:41:08Z</time>
      </trkpt>
      <trkpt lat="43.075817" lon="-4.755483">
        <ele>2464.0</ele>
        <time>2013-09-04T12:41:09Z</time>
      </trkpt>
      <trkpt lat="43.075833" lon="-4.755417">
        <ele>2466.0</ele>
        <time>2013-09-04T12:41:10Z</time>
      </trkpt>
      <trkpt lat="43.075867" lon="-4.755350">
        <ele>2468.0</ele>
        <time>2013-09-04T12:41:11Z</time>
      </trkpt>
      <trkpt lat="43.075900" lon="-4.755317">
        <ele>2471.0</ele>
        <time>2013-09-04T12:41:12Z</time>
      </trkpt>
      <trkpt lat="43.075950" lon="-4.755283">
        <ele>2473.0</ele>
        <time>2013-09-04T12:41:13Z</time>
      </trkpt>
      <trkpt lat="43.076017" lon="-4.755267">
        <ele>2474.0</ele>
        <time>2013-09-04T12:41:14Z</time>
      </trkpt>
      <trkpt lat="43.076067" lon="-4.755233">
        <ele>2475.0</ele>
        <time>2013-09-04T12:41:15Z</time>
      </trkpt>
      <trkpt lat="43.076133" lon="-4.755200">
        <ele>2476.0</ele>
        <time>2013-09-04T12:41:16Z</time>
      </trkpt>
      <trkpt lat="43.076183" lon="-4.755183">
        <ele>2478.0</ele>
        <time>2013-09-04T12:41:17Z</time>
      </trkpt>
      <trkpt lat="43.076233" lon="-4.755167">
        <ele>2479.0</ele>
        <time>2013-09-04T12:41:18Z</time>
      </trkpt>
      <trkpt lat="43.076300" lon="-4.755183">
        <ele>2479.0</ele>
        <time>2013-09-04T12:41:19Z</time>
      </trkpt>
      <trkpt lat="43.076350" lon="-4.755217">
        <ele>2479.0</ele>
        <time>2013-09-04T12:41:20Z</time>
      </trkpt>
      <trkpt lat="43.076433" lon="-4.755283">
        <ele>2479.0</ele>
        <time>2013-09-04T12:41:21Z</time>
      </trkpt>
      <trkpt lat="43.076500" lon="-4.755383">
        <ele>2478.0</ele>
        <time>2013-09-04T12:41:22Z</time>
      </trkpt>
      <trkpt lat="43.076567" lon="-4.755517">
        <ele>2478.0</ele>
        <time>2013-09-04T12:41:23Z</time>
      </trkpt>
      <trkpt lat="43.076600" lon="-4.755667">
        <ele>2478.0</ele>
        <time>2013-09-04T12:41:24Z</time>
      </trkpt>
      <trkpt lat="43.076600" lon="-4.755817">
        <ele>2478.0</ele>
        <time>2013-09-04T12:41:25Z</time>
      </trkpt>
      <trkpt lat="43.076583" lon="-4.755950">
        <ele>2478.0</ele>
        <time>2013-09-04T12:41:26Z</time>
      </trkpt>
      <trkpt lat="43.076550" lon="-4.756083">
        <ele>2478.0</ele>
        <time>2013-09-04T12:41:27Z</time>
      </trkpt>
      <trkpt lat="43.076533" lon="-4.756233">
        <ele>2478.0</ele>
        <time>2013-09-04T12:41:28Z</time>
      </trkpt>
      <trkpt lat="43.076500" lon="-4.756367">
        <ele>2478.0</ele>
        <time>2013-09-04T12:41:29Z</time>
      </trkpt>
      <trkpt lat="43.076450" lon="-4.756483">
        <ele>2477.0</ele>
        <time>2013-09-04T12:41:30Z</time>
      </trkpt>
      <trkpt lat="43.076400" lon="-4.756617">
        <ele>2477.0</ele>
        <time>2013-09-04T12:41:31Z</time>
      </trkpt>
      <trkpt lat="43.076333" lon="-4.756717">
        <ele>2475.0</ele>
        <time>2013-09-04T12:41:32Z</time>
      </trkpt>
      <trkpt lat="43.076233" lon="-4.756800">
        <ele>2474.0</ele>
        <time>2013-09-04T12:41:33Z</time>
      </trkpt>
      <trkpt lat="43.076150" lon="-4.756883">
        <ele>2475.0</ele>
        <time>2013-09-04T12:41:34Z</time>
      </trkpt>
      <trkpt lat="43.076050" lon="-4.756950">
        <ele>2475.0</ele>
        <time>2013-09-04T12:41:35Z</time>
      </trkpt>
      <trkpt lat="43.075967" lon="-4.756983">
        <ele>2475.0</ele>
        <time>2013-09-04T12:41:36Z</time>
      </trkpt>
      <trkpt lat="43.075867" lon="-4.757017">
        <ele>2476.0</ele>
        <time>2013-09-04T12:41:37Z</time>
      </trkpt>
      <trkpt lat="43.075783" lon="-4.757017">
        <ele>2478.0</ele>
        <time>2013-09-04T12:41:38Z</time>
      </trkpt>
      <trkpt lat="43.075717" lon="-4.757017">
        <ele>2480.0</ele>
        <time>2013-09-04T12:41:39Z</time>
      </trkpt>
      <trkpt lat="43.075650" lon="-4.757033">
        <ele>2482.0</ele>
        <time>2013-09-04T12:41:40Z</time>
      </trkpt>
      <trkpt lat="43.075583" lon="-4.757050">
        <ele>2484.0</ele>
        <time>2013-09-04T12:41:41Z</time>
      </trkpt>
      <trkpt lat="43.075500" lon="-4.757083">
        <ele>2485.0</ele>
        <time>2013-09-04T12:41:42Z</time>
      </trkpt>
      <trkpt lat="43.075433" lon="-4.757117">
        <ele>2487.0</ele>
        <time>2013-09-04T12:41:43Z</time>
      </trkpt>
      <trkpt lat="43.075367" lon="-4.757117">
        <ele>2489.0</ele>
        <time>2013-09-04T12:41:44Z</time>
      </trkpt>
      <trkpt lat="43.075317" lon="-4.757117">
        <ele>2490.0</ele>
        <time>2013-09-04T12:41:45Z</time>
      </trkpt>
      <trkpt lat="43.075250" lon="-4.757067">
        <ele>2491.0</ele>
        <time>2013-09-04T12:41:46Z</time>
      </trkpt>
      <trkpt lat="43.075200" lon="-4.757017">
        <ele>2492.0</ele>
        <time>2013-09-04T12:41:47Z</time>
      </trkpt>
      <trkpt lat="43.075150" lon="-4.756967">
        <ele>2493.0</ele>
        <time>2013-09-04T12:41:48Z</time>
      </trkpt>
      <trkpt lat="43.075083" lon="-4.756933">
        <ele>2495.0</ele>
        <time>2013-09-04T12:41:49Z</time>
      </trkpt>
      <trkpt lat="43.075033" lon="-4.756883">
        <ele>2498.0</ele>
        <time>2013-09-04T12:41:50Z</time>
      </trkpt>
      <trkpt lat="43.074983" lon="-4.756850">
        <ele>2500.0</ele>
        <time>2013-09-04T12:41:51Z</time>
      </trkpt>
      <trkpt lat="43.074933" lon="-4.756800">
        <ele>2502.0</ele>
        <time>2013-09-04T12:41:52Z</time>
      </trkpt>
      <trkpt lat="43.074917" lon="-4.756750">
        <ele>2504.0</ele>
        <time>2013-09-04T12:41:53Z</time>
      </trkpt>
      <trkpt lat="43.074900" lon="-4.756683">
        <ele>2505.0</ele>
        <time>2013-09-04T12:41:54Z</time>
      </trkpt>
      <trkpt lat="43.074883" lon="-4.756600">
        <ele>2507.0</ele>
        <time>2013-09-04T12:41:55Z</time>
      </trkpt>
      <trkpt lat="43.074900" lon="-4.756517">
        <ele>2509.0</ele>
        <time>2013-09-04T12:41:56Z</time>
      </trkpt>
      <trkpt lat="43.074917" lon="-4.756467">
        <ele>2511.0</ele>
        <time>2013-09-04T12:41:57Z</time>
      </trkpt>
      <trkpt lat="43.074967" lon="-4.756417">
        <ele>2513.0</ele>
        <time>2013-09-04T12:41:58Z</time>
      </trkpt>
      <trkpt lat="43.075000" lon="-4.756383">
        <ele>2515.0</ele>
        <time>2013-09-04T12:41:59Z</time>
      </trkpt>
      <trkpt lat="43.075050" lon="-4.756333">
        <ele>2515.0</ele>
        <time>2013-09-04T12:42:00Z</time>
      </trkpt>
      <trkpt lat="43.075100" lon="-4.756300">
        <ele>2516.0</ele>
        <time>2013-09-04T12:42:01Z</time>
      </trkpt>
      <trkpt lat="43.075167" lon="-4.756283">
        <ele>2516.0</ele>
        <time>2013-09-04T12:42:02Z</time>
      </trkpt>
      <trkpt lat="43.075233" lon="-4.756267">
        <ele>2516.0</ele>
        <time>2013-09-04T12:42:03Z</time>
      </trkpt>
      <trkpt lat="43.075317" lon="-4.756283">
        <ele>2515.0</ele>
        <time>2013-09-04T12:42:04Z</time>
      </trkpt>
      <trkpt lat="43.075383" lon="-4.756333">
        <ele>2514.0</ele>
        <time>2013-09-04T12:42:05Z</time>
      </trkpt>
      <trkpt lat="43.075450" lon="-4.756417">
        <ele>2513.0</ele>
        <time>2013-09-04T12:42:06Z</time>
      </trkpt>
      <trkpt lat="43.075517" lon="-4.756533">
        <ele>2512.0</ele>
        <time>2013-09-04T12:42:07Z</time>
      </trkpt>
      <trkpt lat="43.075567" lon="-4.756667">
        <ele>2512.0</ele>
        <time>2013-09-04T12:42:08Z</time>
      </trkpt>
      <trkpt lat="43.075583" lon="-4.756800">
        <ele>2512.0</ele>
        <time>2013-09-04T12:42:09Z</time>
      </trkpt>
      <trkpt lat="43.075600" lon="-4.756950">
        <ele>2512.0</ele>
        <time>2013-09-04T12:42:10Z</time>
      </trkpt>
      <trkpt lat="43.075583" lon="-4.757100">
        <ele>2512.0</ele>
        <time>2013-09-04T12:42:11Z</time>
      </trkpt>
      <trkpt lat="43.075567" lon="-4.757250">
        <ele>2513.0</ele>
        <time>2013-09-04T12:42:12Z</time>
      </trkpt>
      <trkpt lat="43.075550" lon="-4.757400">
        <ele>2514.0</ele>
        <time>2013-09-04T12:42:13Z</time>
      </trkpt>
      <trkpt lat="43.075517" lon="-4.757517">
        <ele>2514.0</ele>
        <time>2013-09-04T12:42:14Z</time>
      </trkpt>
      <trkpt lat="43.075483" lon="-4.757667">
        <ele>2515.0</ele>
        <time>2013-09-04T12:42:15Z</time>
      </trkpt>
      <trkpt lat="43.075450" lon="-4.757800">
        <ele>2516.0</ele>
        <time>2013-09-04T12:42:16Z</time>
      </trkpt>
      <trkpt lat="43.075400" lon="-4.757917">
        <ele>2518.0</ele>
        <time>2013-09-04T12:42:17Z</time>
      </trkpt>
      <trkpt lat="43.075333" lon="-4.758017">
        <ele>2519.0</ele>
        <time>2013-09-04T12:42:18Z</time>
      </trkpt>
      <trkpt lat="43.075267" lon="-4.758117">
        <ele>2520.0</ele>
        <time>2013-09-04T12:42:19Z</time>
      </trkpt>
      <trkpt lat="43.075200" lon="-4.758200">
        <ele>2521.0</ele>
        <time>2013-09-04T12:42:20Z</time>
      </trkpt>
      <trkpt lat="43.075133" lon="-4.758283">
        <ele>2522.0</ele>
        <time>2013-09-04T12:42:21Z</time>
      </trkpt>
      <trkpt lat="43.075050" lon="-4.758367">
        <ele>2522.0</ele>
        <time>2013-09-04T12:42:22Z</time>
      </trkpt>
      <trkpt lat="43.074983" lon="-4.758433">
        <ele>2523.0</ele>
        <time>2013-09-04T12:42:23Z</time>
      </trkpt>
      <trkpt lat="43.074883" lon="-4.758483">
        <ele>2523.0</ele>
        <time>2013-09-04T12:42:24Z</time>
      </trkpt>
      <trkpt lat="43.074800" lon="-4.758500">
        <ele>2524.0</ele>
        <time>2013-09-04T12:42:25Z</time>
      </trkpt>
      <trkpt lat="43.074700" lon="-4.758483">
        <ele>2524.0</ele>
        <time>2013-09-04T12:42:26Z</time>
      </trkpt>
      <trkpt lat="43.074633" lon="-4.758433">
        <ele>2526.0</ele>
        <time>2013-09-04T12:42:27Z</time>
      </trkpt>
      <trkpt lat="43.074567" lon="-4.758383">
        <ele>2527.0</ele>
        <time>2013-09-04T12:42:28Z</time>
      </trkpt>
      <trkpt lat="43.074500" lon="-4.758333">
        <ele>2528.0</ele>
        <time>2013-09-04T12:42:29Z</time>
      </trkpt>
      <trkpt lat="43.074450" lon="-4.758283">
        <ele>2528.0</ele>
        <time>2013-09-04T12:42:30Z</time>
      </trkpt>
      <trkpt lat="43.074417" lon="-4.758217">
        <ele>2529.0</ele>
        <time>2013-09-04T12:42:31Z</time>
      </trkpt>
      <trkpt lat="43.074383" lon="-4.758133">
        <ele>2530.0</ele>
        <time>2013-09-04T12:42:32Z</time>
      </trkpt>
      <trkpt lat="43.074350" lon="-4.758067">
        <ele>2532.0</ele>
        <time>2013-09-04T12:42:33Z</time>
      </trkpt>
      <trkpt lat="43.074317" lon="-4.758017">
        <ele>2534.0</ele>
        <time>2013-09-04T12:42:34Z</time>
      </trkpt>
      <trkpt lat="43.074267" lon="-4.757983">
        <ele>2535.0</ele>
        <time>2013-09-04T12:42:35Z</time>
      </trkpt>
      <trkpt lat="43.074217" lon="-4.757950">
        <ele>2534.0</ele>
        <time>2013-09-04T12:42:36Z</time>
      </trkpt>
      <trkpt lat="43.074167" lon="-4.757883">
        <ele>2533.0</ele>
        <time>2013-09-04T12:42:37Z</time>
      </trkpt>
      <trkpt lat="43.074100" lon="-4.757800">
        <ele>2532.0</ele>
        <time>2013-09-04T12:42:38Z</time>
      </trkpt>
      <trkpt lat="43.074050" lon="-4.757717">
        <ele>2531.0</ele>
        <time>2013-09-04T12:42:39Z</time>
      </trkpt>
      <trkpt lat="43.074017" lon="-4.757633">
        <ele>2529.0</ele>
        <time>2013-09-04T12:42:40Z</time>
      </trkpt>
      <trkpt lat="43.074000" lon="-4.757550">
        <ele>2527.0</ele>
        <time>2013-09-04T12:42:41Z</time>
      </trkpt>
      <trkpt lat="43.073967" lon="-4.757433">
        <ele>2524.0</ele>
        <time>2013-09-04T12:42:42Z</time>
      </trkpt>
      <trkpt lat="43.073950" lon="-4.757333">
        <ele>2523.0</ele>
        <time>2013-09-04T12:42:43Z</time>
      </trkpt>
      <trkpt lat="43.073933" lon="-4.757217">
        <ele>2521.0</ele>
        <time>2013-09-04T12:42:44Z</time>
      </trkpt>
      <trkpt lat="43.073917" lon="-4.757117">
        <ele>2518.0</ele>
        <time>2013-09-04T12:42:45Z</time>
      </trkpt>
      <trkpt lat="43.073900" lon="-4.757000">
        <ele>2516.0</ele>
        <time>2013-09-04T12:42:46Z</time>
      </trkpt>
      <trkpt lat="43.073883" lon="-4.756900">
        <ele>2514.0</ele>
        <time>2013-09-04T12:42:47Z</time>
      </trkpt>
      <trkpt lat="43.073850" lon="-4.756783">
        <ele>2511.0</ele>
        <time>2013-09-04T12:42:48Z</time>
      </trkpt>
      <trkpt lat="43.073817" lon="-4.756667">
        <ele>2509.0</ele>
        <time>2013-09-04T12:42:49Z</time>
      </trkpt>
      <trkpt lat="43.073767" lon="-4.756550">
        <ele>2506.0</ele>
        <time>2013-09-04T12:42:50Z</time>
      </trkpt>
      <trkpt lat="43.073733" lon="-4.756433">
        <ele>2505.0</ele>
        <time>2013-09-04T12:42:51Z</time>
      </trkpt>
      <trkpt lat="43.073683" lon="-4.756333">
        <ele>2505.0</ele>
        <time>2013-09-04T12:42:52Z</time>
      </trkpt>
      <trkpt lat="43.073617" lon="-4.756250">
        <ele>2504.0</ele>
        <time>2013-09-04T12:42:53Z</time>
      </trkpt>
      <trkpt lat="43.073583" lon="-4.756167">
        <ele>2503.0</ele>
        <time>2013-09-04T12:42:54Z</time>
      </trkpt>
      <trkpt lat="43.073550" lon="-4.756083">
        <ele>2501.0</ele>
        <time>2013-09-04T12:42:55Z</time>
      </trkpt>
      <trkpt lat="43.073500" lon="-4.755983">
        <ele>2497.0</ele>
        <time>2013-09-04T12:42:56Z</time>
      </trkpt>
      <trkpt lat="43.073450" lon="-4.755867">
        <ele>2493.0</ele>
        <time>2013-09-04T12:42:57Z</time>
      </trkpt>
      <trkpt lat="43.073400" lon="-4.755767">
        <ele>2491.0</ele>
        <time>2013-09-04T12:42:58Z</time>
      </trkpt>
      <trkpt lat="43.073367" lon="-4.755667">
        <ele>2489.0</ele>
        <time>2013-09-04T12:42:59Z</time>
      </trkpt>
      <trkpt lat="43.073317" lon="-4.755583">
        <ele>2487.0</ele>
        <time>2013-09-04T12:43:00Z</time>
      </trkpt>
      <trkpt lat="43.073283" lon="-4.755483">
        <ele>2485.0</ele>
        <time>2013-09-04T12:43:01Z</time>
      </trkpt>
      <trkpt lat="43.073250" lon="-4.755383">
        <ele>2482.0</ele>
        <time>2013-09-04T12:43:02Z</time>
      </trkpt>
      <trkpt lat="43.073200" lon="-4.755300">
        <ele>2480.0</ele>
        <time>2013-09-04T12:43:03Z</time>
      </trkpt>
      <trkpt lat="43.073150" lon="-4.755200">
        <ele>2478.0</ele>
        <time>2013-09-04T12:43:04Z</time>
      </trkpt>
      <trkpt lat="43.073100" lon="-4.755100">
        <ele>2477.0</ele>
        <time>2013-09-04T12:43:05Z</time>
      </trkpt>
      <trkpt lat="43.073050" lon="-4.755017">
        <ele>2476.0</ele>
        <time>2013-09-04T12:43:06Z</time>
      </trkpt>
      <trkpt lat="43.073017" lon="-4.754917">
        <ele>2475.0</ele>
        <time>2013-09-04T12:43:07Z</time>
      </trkpt>
      <trkpt lat="43.072967" lon="-4.754817">
        <ele>2474.0</ele>
        <time>2013-09-04T12:43:08Z</time>
      </trkpt>
      <trkpt lat="43.072933" lon="-4.754717">
        <ele>2473.0</ele>
        <time>2013-09-04T12:43:09Z</time>
      </trkpt>
      <trkpt lat="43.072900" lon="-4.754617">
        <ele>2471.0</ele>
        <time>2013-09-04T12:43:10Z</time>
      </trkpt>
      <trkpt lat="43.072867" lon="-4.754500">
        <ele>2470.0</ele>
        <time>2013-09-04T12:43:11Z</time>
      </trkpt>
      <trkpt lat="43.072833" lon="-4.754383">
        <ele>2470.0</ele>
        <time>2013-09-04T12:43:12Z</time>
      </trkpt>
      <trkpt lat="43.072800" lon="-4.754283">
        <ele>2469.0</ele>
        <time>2013-09-04T12:43:13Z</time>
      </trkpt>
      <trkpt lat="43.072767" lon="-4.754167">
        <ele>2469.0</ele>
        <time>2013-09-04T12:43:14Z</time>
      </trkpt>
      <trkpt lat="43.072733" lon="-4.754067">
        <ele>2468.0</ele>
        <time>2013-09-04T12:43:15Z</time>
      </trkpt>
      <trkpt lat="43.072700" lon="-4.753967">
        <ele>2467.0</ele>
        <time>2013-09-04T12:43:16Z</time>
      </trkpt>
      <trkpt lat="43.072650" lon="-4.753883">
        <ele>2466.0</ele>
        <time>2013-09-04T12:43:17Z</time>
      </trkpt>
      <trkpt lat="43.072600" lon="-4.753783">
        <ele>2465.0</ele>
        <time>2013-09-04T12:43:18Z</time>
      </trkpt>
      <trkpt lat="43.072567" lon="-4.753700">
        <ele>2465.0</ele>
        <time>2013-09-04T12:43:19Z</time>
      </trkpt>
      <trkpt lat="43.072533" lon="-4.753617">
        <ele>2464.0</ele>
        <time>2013-09-04T12:43:20Z</time>
      </trkpt>
      <trkpt lat="43.072500" lon="-4.753533">
        <ele>2463.0</ele>
        <time>2013-09-04T12:43:21Z</time>
      </trkpt>
      <trkpt lat="43.072467" lon="-4.753450">
        <ele>2462.0</ele>
        <time>2013-09-04T12:43:22Z</time>
      </trkpt>
      <trkpt lat="43.072450" lon="-4.753367">
        <ele>2460.0</ele>
        <time>2013-09-04T12:43:23Z</time>
      </trkpt>
      <trkpt lat="43.072433" lon="-4.753267">
        <ele>2458.0</ele>
        <time>2013-09-04T12:43:24Z</time>
      </trkpt>
      <trkpt lat="43.072400" lon="-4.753150">
        <ele>2455.0</ele>
        <time>2013-09-04T12:43:25Z</time>
      </trkpt>
      <trkpt lat="43.072367" lon="-4.753033">
        <ele>2453.0</ele>
        <time>2013-09-04T12:43:26Z</time>
      </trkpt>
      <trkpt lat="43.072333" lon="-4.752933">
        <ele>2452.0</ele>
        <time>2013-09-04T12:43:27Z</time>
      </trkpt>
      <trkpt lat="43.072300" lon="-4.752833">
        <ele>2452.0</ele>
        <time>2013-09-04T12:43:28Z</time>
      </trkpt>
      <trkpt lat="43.072267" lon="-4.752733">
        <ele>2451.0</ele>
        <time>2013-09-04T12:43:29Z</time>
      </trkpt>
      <trkpt lat="43.072233" lon="-4.752633">
        <ele>2450.0</ele>
        <time>2013-09-04T12:43:30Z</time>
      </trkpt>
      <trkpt lat="43.072200" lon="-4.752533">
        <ele>2448.0</ele>
        <time>2013-09-04T12:43:31Z</time>
      </trkpt>
      <trkpt lat="43.072167" lon="-4.752417">
        <ele>2447.0</ele>
        <time>2013-09-04T12:43:32Z</time>
      </trkpt>
      <trkpt lat="43.072133" lon="-4.752317">
        <ele>2446.0</ele>
        <time>2013-09-04T12:43:33Z</time>
      </trkpt>
      <trkpt lat="43.072083" lon="-4.752217">
        <ele>2445.0</ele>
        <time>2013-09-04T12:43:34Z</time>
      </trkpt>
      <trkpt lat="43.072067" lon="-4.752100">
        <ele>2445.0</ele>
        <time>2013-09-04T12:43:35Z</time>
      </trkpt>
      <trkpt lat="43.072033" lon="-4.752000">
        <ele>2444.0</ele>
        <time>2013-09-04T12:43:36Z</time>
      </trkpt>
      <trkpt lat="43.071983" lon="-4.751900">
        <ele>2442.0</ele>
        <time>2013-09-04T12:43:37Z</time>
      </trkpt>
      <trkpt lat="43.071950" lon="-4.751783">
        <ele>2441.0</ele>
        <time>2013-09-04T12:43:38Z</time>
      </trkpt>
      <trkpt lat="43.071900" lon="-4.751667">
        <ele>2440.0</ele>
        <time>2013-09-04T12:43:39Z</time>
      </trkpt>
      <trkpt lat="43.071867" lon="-4.751567">
        <ele>2438.0</ele>
        <time>2013-09-04T12:43:40Z</time>
      </trkpt>
      <trkpt lat="43.071833" lon="-4.751450">
        <ele>2436.0</ele>
        <time>2013-09-04T12:43:41Z</time>
      </trkpt>
      <trkpt lat="43.071817" lon="-4.751333">
        <ele>2434.0</ele>
        <time>2013-09-04T12:43:42Z</time>
      </trkpt>
      <trkpt lat="43.071783" lon="-4.751233">
        <ele>2432.0</ele>
        <time>2013-09-04T12:43:43Z</time>
      </trkpt>
      <trkpt lat="43.071750" lon="-4.751133">
        <ele>2431.0</ele>
        <time>2013-09-04T12:43:44Z</time>
      </trkpt>
      <trkpt lat="43.071717" lon="-4.751033">
        <ele>2431.0</ele>
        <time>2013-09-04T12:43:45Z</time>
      </trkpt>
      <trkpt lat="43.071700" lon="-4.750933">
        <ele>2430.0</ele>
        <time>2013-09-04T12:43:46Z</time>
      </trkpt>
      <trkpt lat="43.071650" lon="-4.750833">
        <ele>2429.0</ele>
        <time>2013-09-04T12:43:47Z</time>
      </trkpt>
      <trkpt lat="43.071617" lon="-4.750733">
        <ele>2428.0</ele>
        <time>2013-09-04T12:43:48Z</time>
      </trkpt>
      <trkpt lat="43.071583" lon="-4.750617">
        <ele>2428.0</ele>
        <time>2013-09-04T12:43:49Z</time>
      </trkpt>
      <trkpt lat="43.071567" lon="-4.750517">
        <ele>2427.0</ele>
        <time>2013-09-04T12:43:50Z</time>
      </trkpt>
      <trkpt lat="43.071550" lon="-4.750433">
        <ele>2426.0</ele>
        <time>2013-09-04T12:43:51Z</time>
      </trkpt>
      <trkpt lat="43.071517" lon="-4.750333">
        <ele>2424.0</ele>
        <time>2013-09-04T12:43:52Z</time>
      </trkpt>
      <trkpt lat="43.071483" lon="-4.750233">
        <ele>2422.0</ele>
        <time>2013-09-04T12:43:53Z</time>
      </trkpt>
      <trkpt lat="43.071433" lon="-4.750117">
        <ele>2419.0</ele>
        <time>2013-09-04T12:43:54Z</time>
      </trkpt>
      <trkpt lat="43.071383" lon="-4.750000">
        <ele>2417.0</ele>
        <time>2013-09-04T12:43:55Z</time>
      </trkpt>
      <trkpt lat="43.071333" lon="-4.749883">
        <ele>2415.0</ele>
        <time>2013-09-04T12:43:56Z</time>
      </trkpt>
      <trkpt lat="43.071283" lon="-4.749783">
        <ele>2414.0</ele>
        <time>2013-09-04T12:43:57Z</time>
      </trkpt>
      <trkpt lat="43.071233" lon="-4.749700">
        <ele>2414.0</ele>
        <time>2013-09-04T12:43:58Z</time>
      </trkpt>
      <trkpt lat="43.071183" lon="-4.749617">
        <ele>2412.0</ele>
        <time>2013-09-04T12:43:59Z</time>
      </trkpt>
      <trkpt lat="43.071150" lon="-4.749517">
        <ele>2409.0</ele>
        <time>2013-09-04T12:44:00Z</time>
      </trkpt>
      <trkpt lat="43.071100" lon="-4.749417">
        <ele>2407.0</ele>
        <time>2013-09-04T12:44:01Z</time>
      </trkpt>
      <trkpt lat="43.071067" lon="-4.749300">
        <ele>2404.0</ele>
        <time>2013-09-04T12:44:02Z</time>
      </trkpt>
      <trkpt lat="43.071033" lon="-4.749200">
        <ele>2402.0</ele>
        <time>2013-09-04T12:44:03Z</time>
      </trkpt>
      <trkpt lat="43.071000" lon="-4.749100">
        <ele>2400.0</ele>
        <time>2013-09-04T12:44:04Z</time>
      </trkpt>
      <trkpt lat="43.070950" lon="-4.749000">
        <ele>2399.0</ele>
        <time>2013-09-04T12:44:05Z</time>
      </trkpt>
      <trkpt lat="43.070917" lon="-4.748900">
        <ele>2397.0</ele>
        <time>2013-09-04T12:44:06Z</time>
      </trkpt>
      <trkpt lat="43.070883" lon="-4.748800">
        <ele>2394.0</ele>
        <time>2013-09-04T12:44:07Z</time>
      </trkpt>
      <trkpt lat="43.070850" lon="-4.748683">
        <ele>2392.0</ele>
        <time>2013-09-04T12:44:08Z</time>
      </trkpt>
      <trkpt lat="43.070800" lon="-4.748567">
        <ele>2391.0</ele>
        <time>2013-09-04T12:44:09Z</time>
      </trkpt>
      <trkpt lat="43.070750" lon="-4.748450">
        <ele>2390.0</ele>
        <time>2013-09-04T12:44:10Z</time>
      </trkpt>
      <trkpt lat="43.070700" lon="-4.748333">
        <ele>2390.0</ele>
        <time>2013-09-04T12:44:11Z</time>
      </trkpt>
      <trkpt lat="43.070650" lon="-4.748233">
        <ele>2391.0</ele>
        <time>2013-09-04T12:44:12Z</time>
      </trkpt>
      <trkpt lat="43.070617" lon="-4.748133">
        <ele>2391.0</ele>
        <time>2013-09-04T12:44:13Z</time>
      </trkpt>
      <trkpt lat="43.070567" lon="-4.748033">
        <ele>2391.0</ele>
        <time>2013-09-04T12:44:14Z</time>
      </trkpt>
      <trkpt lat="43.070533" lon="-4.747933">
        <ele>2390.0</ele>
        <time>2013-09-04T12:44:15Z</time>
      </trkpt>
      <trkpt lat="43.070483" lon="-4.747817">
        <ele>2388.0</ele>
        <time>2013-09-04T12:44:16Z</time>
      </trkpt>
      <trkpt lat="43.070433" lon="-4.747683">
        <ele>2387.0</ele>
        <time>2013-09-04T12:44:17Z</time>
      </trkpt>
      <trkpt lat="43.070400" lon="-4.747550">
        <ele>2386.0</ele>
        <time>2013-09-04T12:44:18Z</time>
      </trkpt>
      <trkpt lat="43.070350" lon="-4.747433">
        <ele>2385.0</ele>
        <time>2013-09-04T12:44:19Z</time>
      </trkpt>
      <trkpt lat="43.070317" lon="-4.747317">
        <ele>2384.0</ele>
        <time>2013-09-04T12:44:20Z</time>
      </trkpt>
      <trkpt lat="43.070267" lon="-4.747217">
        <ele>2383.0</ele>
        <time>2013-09-04T12:44:21Z</time>
      </trkpt>
      <trkpt lat="43.070233" lon="-4.747133">
        <ele>2380.0</ele>
        <time>2013-09-04T12:44:22Z</time>
      </trkpt>
      <trkpt lat="43.070183" lon="-4.747017">
        <ele>2376.0</ele>
        <time>2013-09-04T12:44:23Z</time>
      </trkpt>
      <trkpt lat="43.070117" lon="-4.746917">
        <ele>2372.0</ele>
        <time>2013-09-04T12:44:24Z</time>
      </trkpt>
      <trkpt lat="43.070067" lon="-4.746800">
        <ele>2370.0</ele>
        <time>2013-09-04T12:44:25Z</time>
      </trkpt>
      <trkpt lat="43.070033" lon="-4.746683">
        <ele>2369.0</ele>
        <time>2013-09-04T12:44:26Z</time>
      </trkpt>
      <trkpt lat="43.070017" lon="-4.746583">
        <ele>2369.0</ele>
        <time>2013-09-04T12:44:27Z</time>
      </trkpt>
      <trkpt lat="43.069983" lon="-4.746483">
        <ele>2367.0</ele>
        <time>2013-09-04T12:44:28Z</time>
      </trkpt>
      <trkpt lat="43.069950" lon="-4.746400">
        <ele>2365.0</ele>
        <time>2013-09-04T12:44:29Z</time>
      </trkpt>
      <trkpt lat="43.069900" lon="-4.746283">
        <ele>2362.0</ele>
        <time>2013-09-04T12:44:30Z</time>
      </trkpt>
      <trkpt lat="43.069850" lon="-4.746183">
        <ele>2361.0</ele>
        <time>2013-09-04T12:44:31Z</time>
      </trkpt>
      <trkpt lat="43.069800" lon="-4.746067">
        <ele>2361.0</ele>
        <time>2013-09-04T12:44:32Z</time>
      </trkpt>
      <trkpt lat="43.069767" lon="-4.745967">
        <ele>2361.0</ele>
        <time>2013-09-04T12:44:33Z</time>
      </trkpt>
      <trkpt lat="43.069717" lon="-4.745867">
        <ele>2362.0</ele>
        <time>2013-09-04T12:44:34Z</time>
      </trkpt>
      <trkpt lat="43.069683" lon="-4.745783">
        <ele>2361.0</ele>
        <time>2013-09-04T12:44:35Z</time>
      </trkpt>
      <trkpt lat="43.069633" lon="-4.745683">
        <ele>2360.0</ele>
        <time>2013-09-04T12:44:36Z</time>
      </trkpt>
      <trkpt lat="43.069583" lon="-4.745583">
        <ele>2359.0</ele>
        <time>2013-09-04T12:44:37Z</time>
      </trkpt>
      <trkpt lat="43.069533" lon="-4.745467">
        <ele>2358.0</ele>
        <time>2013-09-04T12:44:38Z</time>
      </trkpt>
      <trkpt lat="43.069483" lon="-4.745367">
        <ele>2357.0</ele>
        <time>2013-09-04T12:44:39Z</time>
      </trkpt>
      <trkpt lat="43.069450" lon="-4.745267">
        <ele>2355.0</ele>
        <time>2013-09-04T12:44:40Z</time>
      </trkpt>
      <trkpt lat="43.069400" lon="-4.745167">
        <ele>2353.0</ele>
        <time>2013-09-04T12:44:41Z</time>
      </trkpt>
      <trkpt lat="43.069350" lon="-4.745050">
        <ele>2351.0</ele>
        <time>2013-09-04T12:44:42Z</time>
      </trkpt>
      <trkpt lat="43.069300" lon="-4.744950">
        <ele>2349.0</ele>
        <time>2013-09-04T12:44:43Z</time>
      </trkpt>
      <trkpt lat="43.069233" lon="-4.744833">
        <ele>2348.0</ele>
        <time>2013-09-04T12:44:44Z</time>
      </trkpt>
      <trkpt lat="43.069167" lon="-4.744750">
        <ele>2347.0</ele>
        <time>2013-09-04T12:44:45Z</time>
      </trkpt>
      <trkpt lat="43.069100" lon="-4.744667">
        <ele>2346.0</ele>
        <time>2013-09-04T12:44:46Z</time>
      </trkpt>
      <trkpt lat="43.069033" lon="-4.744583">
        <ele>2345.0</ele>
        <time>2013-09-04T12:44:47Z</time>
      </trkpt>
      <trkpt lat="43.068967" lon="-4.744483">
        <ele>2344.0</ele>
        <time>2013-09-04T12:44:48Z</time>
      </trkpt>
      <trkpt lat="43.068900" lon="-4.744400">
        <ele>2344.0</ele>
        <time>2013-09-04T12:44:49Z</time>
      </trkpt>
      <trkpt lat="43.068850" lon="-4.744300">
        <ele>2343.0</ele>
        <time>2013-09-04T12:44:50Z</time>
      </trkpt>
      <trkpt lat="43.068800" lon="-4.744217">
        <ele>2342.0</ele>
        <time>2013-09-04T12:44:51Z</time>
      </trkpt>
      <trkpt lat="43.068750" lon="-4.744117">
        <ele>2339.0</ele>
        <time>2013-09-04T12:44:52Z</time>
      </trkpt>
      <trkpt lat="43.068683" lon="-4.744017">
        <ele>2336.0</ele>
        <time>2013-09-04T12:44:53Z</time>
      </trkpt>
      <trkpt lat="43.068617" lon="-4.743917">
        <ele>2334.0</ele>
        <time>2013-09-04T12:44:54Z</time>
      </trkpt>
      <trkpt lat="43.068550" lon="-4.743817">
        <ele>2332.0</ele>
        <time>2013-09-04T12:44:55Z</time>
      </trkpt>
      <trkpt lat="43.068483" lon="-4.743717">
        <ele>2331.0</ele>
        <time>2013-09-04T12:44:56Z</time>
      </trkpt>
      <trkpt lat="43.068417" lon="-4.743617">
        <ele>2330.0</ele>
        <time>2013-09-04T12:44:57Z</time>
      </trkpt>
      <trkpt lat="43.068367" lon="-4.743517">
        <ele>2328.0</ele>
        <time>2013-09-04T12:44:58Z</time>
      </trkpt>
      <trkpt lat="43.068317" lon="-4.743400">
        <ele>2326.0</ele>
        <time>2013-09-04T12:44:59Z</time>
      </trkpt>
      <trkpt lat="43.068267" lon="-4.743300">
        <ele>2324.0</ele>
        <time>2013-09-04T12:45:00Z</time>
      </trkpt>
      <trkpt lat="43.068217" lon="-4.743200">
        <ele>2323.0</ele>
        <time>2013-09-04T12:45:01Z</time>
      </trkpt>
      <trkpt lat="43.068167" lon="-4.743100">
        <ele>2321.0</ele>
        <time>2013-09-04T12:45:02Z</time>
      </trkpt>
      <trkpt lat="43.068100" lon="-4.743000">
        <ele>2319.0</ele>
        <time>2013-09-04T12:45:03Z</time>
      </trkpt>
      <trkpt lat="43.068050" lon="-4.742917">
        <ele>2318.0</ele>
        <time>2013-09-04T12:45:04Z</time>
      </trkpt>
      <trkpt lat="43.068000" lon="-4.742817">
        <ele>2315.0</ele>
        <time>2013-09-04T12:45:05Z</time>
      </trkpt>
      <trkpt lat="43.067933" lon="-4.742717">
        <ele>2313.0</ele>
        <time>2013-09-04T12:45:06Z</time>
      </trkpt>
      <trkpt lat="43.067883" lon="-4.742617">
        <ele>2311.0</ele>
        <time>2013-09-04T12:45:07Z</time>
      </trkpt>
      <trkpt lat="43.067817" lon="-4.742533">
        <ele>2309.0</ele>
        <time>2013-09-04T12:45:08Z</time>
      </trkpt>
      <trkpt lat="43.067767" lon="-4.742450">
        <ele>2307.0</ele>
        <time>2013-09-04T12:45:09Z</time>
      </trkpt>
      <trkpt lat="43.067700" lon="-4.742367">
        <ele>2305.0</ele>
        <time>2013-09-04T12:45:10Z</time>
      </trkpt>
      <trkpt lat="43.067633" lon="-4.742283">
        <ele>2302.0</ele>
        <time>2013-09-04T12:45:11Z</time>
      </trkpt>
      <trkpt lat="43.067567" lon="-4.742200">
        <ele>2300.0</ele>
        <time>2013-09-04T12:45:12Z</time>
      </trkpt>
      <trkpt lat="43.067500" lon="-4.742117">
        <ele>2299.0</ele>
        <time>2013-09-04T12:45:13Z</time>
      </trkpt>
      <trkpt lat="43.067433" lon="-4.742033">
        <ele>2297.0</ele>
        <time>2013-09-04T12:45:14Z</time>
      </trkpt>
      <trkpt lat="43.067367" lon="-4.741950">
        <ele>2295.0</ele>
        <time>2013-09-04T12:45:15Z</time>
      </trkpt>
      <trkpt lat="43.067300" lon="-4.741867">
        <ele>2293.0</ele>
        <time>2013-09-04T12:45:16Z</time>
      </trkpt>
      <trkpt lat="43.067233" lon="-4.741767">
        <ele>2292.0</ele>
        <time>2013-09-04T12:45:17Z</time>
      </trkpt>
      <trkpt lat="43.067183" lon="-4.741683">
        <ele>2290.0</ele>
        <time>2013-09-04T12:45:18Z</time>
      </trkpt>
      <trkpt lat="43.067117" lon="-4.741600">
        <ele>2288.0</ele>
        <time>2013-09-04T12:45:19Z</time>
      </trkpt>
      <trkpt lat="43.067050" lon="-4.741517">
        <ele>2286.0</ele>
        <time>2013-09-04T12:45:20Z</time>
      </trkpt>
      <trkpt lat="43.066983" lon="-4.741433">
        <ele>2284.0</ele>
        <time>2013-09-04T12:45:21Z</time>
      </trkpt>
      <trkpt lat="43.066917" lon="-4.741350">
        <ele>2282.0</ele>
        <time>2013-09-04T12:45:22Z</time>
      </trkpt>
      <trkpt lat="43.066867" lon="-4.741267">
        <ele>2280.0</ele>
        <time>2013-09-04T12:45:23Z</time>
      </trkpt>
      <trkpt lat="43.066817" lon="-4.741167">
        <ele>2277.0</ele>
        <time>2013-09-04T12:45:24Z</time>
      </trkpt>
      <trkpt lat="43.066750" lon="-4.741083">
        <ele>2275.0</ele>
        <time>2013-09-04T12:45:25Z</time>
      </trkpt>
      <trkpt lat="43.066683" lon="-4.740983">
        <ele>2273.0</ele>
        <time>2013-09-04T12:45:26Z</time>
      </trkpt>
      <trkpt lat="43.066633" lon="-4.740900">
        <ele>2272.0</ele>
        <time>2013-09-04T12:45:27Z</time>
      </trkpt>
      <trkpt lat="43.066583" lon="-4.740800">
        <ele>2271.0</ele>
        <time>2013-09-04T12:45:28Z</time>
      </trkpt>
      <trkpt lat="43.066533" lon="-4.740717">
        <ele>2270.0</ele>
        <time>2013-09-04T12:45:29Z</time>
      </trkpt>
      <trkpt lat="43.066467" lon="-4.740633">
        <ele>2268.0</ele>
        <time>2013-09-04T12:45:30Z</time>
      </trkpt>
      <trkpt lat="43.066417" lon="-4.740567">
        <ele>2267.0</ele>
        <time>2013-09-04T12:45:31Z</time>
      </trkpt>
      <trkpt lat="43.066350" lon="-4.740467">
        <ele>2266.0</ele>
        <time>2013-09-04T12:45:32Z</time>
      </trkpt>
      <trkpt lat="43.066300" lon="-4.740383">
        <ele>2265.0</ele>
        <time>2013-09-04T12:45:33Z</time>
      </trkpt>
      <trkpt lat="43.066250" lon="-4.740300">
        <ele>2264.0</ele>
        <time>2013-09-04T12:45:34Z</time>
      </trkpt>
      <trkpt lat="43.066200" lon="-4.740233">
        <ele>2263.0</ele>
        <time>2013-09-04T12:45:35Z</time>
      </trkpt>
      <trkpt lat="43.066133" lon="-4.740167">
        <ele>2261.0</ele>
        <time>2013-09-04T12:45:36Z</time>
      </trkpt>
      <trkpt lat="43.066083" lon="-4.740083">
        <ele>2259.0</ele>
        <time>2013-09-04T12:45:37Z</time>
      </trkpt>
      <trkpt lat="43.066033" lon="-4.740017">
        <ele>2257.0</ele>
        <time>2013-09-04T12:45:38Z</time>
      </trkpt>
      <trkpt lat="43.065967" lon="-4.739933">
        <ele>2254.0</ele>
        <time>2013-09-04T12:45:39Z</time>
      </trkpt>
      <trkpt lat="43.065900" lon="-4.739850">
        <ele>2252.0</ele>
        <time>2013-09-04T12:45:40Z</time>
      </trkpt>
      <trkpt lat="43.065850" lon="-4.739783">
        <ele>2251.0</ele>
        <time>2013-09-04T12:45:41Z</time>
      </trkpt>
      <trkpt lat="43.065783" lon="-4.739717">
        <ele>2250.0</ele>
        <time>2013-09-04T12:45:42Z</time>
      </trkpt>
      <trkpt lat="43.065717" lon="-4.739667">
        <ele>2248.0</ele>
        <time>2013-09-04T12:45:43Z</time>
      </trkpt>
      <trkpt lat="43.065667" lon="-4.739617">
        <ele>2247.0</ele>
        <time>2013-09-04T12:45:44Z</time>
      </trkpt>
      <trkpt lat="43.065600" lon="-4.739550">
        <ele>2244.0</ele>
        <time>2013-09-04T12:45:45Z</time>
      </trkpt>
      <trkpt lat="43.065533" lon="-4.739483">
        <ele>2242.0</ele>
        <time>2013-09-04T12:45:46Z</time>
      </trkpt>
      <trkpt lat="43.065467" lon="-4.739417">
        <ele>2238.0</ele>
        <time>2013-09-04T12:45:47Z</time>
      </trkpt>
      <trkpt lat="43.065400" lon="-4.739333">
        <ele>2236.0</ele>
        <time>2013-09-04T12:45:48Z</time>
      </trkpt>
      <trkpt lat="43.065350" lon="-4.739250">
        <ele>2234.0</ele>
        <time>2013-09-04T12:45:49Z</time>
      </trkpt>
      <trkpt lat="43.065283" lon="-4.739183">
        <ele>2232.0</ele>
        <time>2013-09-04T12:45:50Z</time>
      </trkpt>
      <trkpt lat="43.065233" lon="-4.739100">
        <ele>2231.0</ele>
        <time>2013-09-04T12:45:51Z</time>
      </trkpt>
      <trkpt lat="43.065183" lon="-4.739033">
        <ele>2229.0</ele>
        <time>2013-09-04T12:45:52Z</time>
      </trkpt>
      <trkpt lat="43.065133" lon="-4.738967">
        <ele>2226.0</ele>
        <time>2013-09-04T12:45:53Z</time>
      </trkpt>
      <trkpt lat="43.065067" lon="-4.738900">
        <ele>2223.0</ele>
        <time>2013-09-04T12:45:54Z</time>
      </trkpt>
      <trkpt lat="43.064983" lon="-4.738833">
        <ele>2220.0</ele>
        <time>2013-09-04T12:45:55Z</time>
      </trkpt>
      <trkpt lat="43.064917" lon="-4.738767">
        <ele>2219.0</ele>
        <time>2013-09-04T12:45:56Z</time>
      </trkpt>
      <trkpt lat="43.064850" lon="-4.738700">
        <ele>2218.0</ele>
        <time>2013-09-04T12:45:57Z</time>
      </trkpt>
      <trkpt lat="43.064800" lon="-4.738650">
        <ele>2215.0</ele>
        <time>2013-09-04T12:45:58Z</time>
      </trkpt>
      <trkpt lat="43.064733" lon="-4.738583">
        <ele>2213.0</ele>
        <time>2013-09-04T12:45:59Z</time>
      </trkpt>
      <trkpt lat="43.064683" lon="-4.738517">
        <ele>2211.0</ele>
        <time>2013-09-04T12:46:00Z</time>
      </trkpt>
      <trkpt lat="43.064600" lon="-4.738450">
        <ele>2209.0</ele>
        <time>2013-09-04T12:46:01Z</time>
      </trkpt>
      <trkpt lat="43.064533" lon="-4.738383">
        <ele>2206.0</ele>
        <time>2013-09-04T12:46:02Z</time>
      </trkpt>
      <trkpt lat="43.064483" lon="-4.738317">
        <ele>2204.0</ele>
        <time>2013-09-04T12:46:03Z</time>
      </trkpt>
      <trkpt lat="43.064417" lon="-4.738250">
        <ele>2202.0</ele>
        <time>2013-09-04T12:46:04Z</time>
      </trkpt>
      <trkpt lat="43.064350" lon="-4.738183">
        <ele>2200.0</ele>
        <time>2013-09-04T12:46:05Z</time>
      </trkpt>
      <trkpt lat="43.064283" lon="-4.738117">
        <ele>2198.0</ele>
        <time>2013-09-04T12:46:06Z</time>
      </trkpt>
      <trkpt lat="43.064217" lon="-4.738050">
        <ele>2196.0</ele>
        <time>2013-09-04T12:46:07Z</time>
      </trkpt>
      <trkpt lat="43.064150" lon="-4.737967">
        <ele>2194.0</ele>
        <time>2013-09-04T12:46:08Z</time>
      </trkpt>
      <trkpt lat="43.064083" lon="-4.737900">
        <ele>2193.0</ele>
        <time>2013-09-04T12:46:09Z</time>
      </trkpt>
      <trkpt lat="43.064017" lon="-4.737833">
        <ele>2193.0</ele>
        <time>2013-09-04T12:46:10Z</time>
      </trkpt>
      <trkpt lat="43.063967" lon="-4.737767">
        <ele>2192.0</ele>
        <time>2013-09-04T12:46:11Z</time>
      </trkpt>
      <trkpt lat="43.063900" lon="-4.737700">
        <ele>2192.0</ele>
        <time>2013-09-04T12:46:12Z</time>
      </trkpt>
      <trkpt lat="43.063850" lon="-4.737633">
        <ele>2191.0</ele>
        <time>2013-09-04T12:46:13Z</time>
      </trkpt>
      <trkpt lat="43.063783" lon="-4.737567">
        <ele>2189.0</ele>
        <time>2013-09-04T12:46:14Z</time>
      </trkpt>
      <trkpt lat="43.063717" lon="-4.737500">
        <ele>2186.0</ele>
        <time>2013-09-04T12:46:15Z</time>
      </trkpt>
      <trkpt lat="43.063650" lon="-4.737433">
        <ele>2184.0</ele>
        <time>2013-09-04T12:46:16Z</time>
      </trkpt>
      <trkpt lat="43.063583" lon="-4.737350">
        <ele>2182.0</ele>
        <time>2013-09-04T12:46:17Z</time>
      </trkpt>
      <trkpt lat="43.063533" lon="-4.737267">
        <ele>2180.0</ele>
        <time>2013-09-04T12:46:18Z</time>
      </trkpt>
      <trkpt lat="43.063467" lon="-4.737183">
        <ele>2178.0</ele>
        <time>2013-09-04T12:46:19Z</time>
      </trkpt>
      <trkpt lat="43.063400" lon="-4.737117">
        <ele>2175.0</ele>
        <time>2013-09-04T12:46:20Z</time>
      </trkpt>
      <trkpt lat="43.063317" lon="-4.737033">
        <ele>2174.0</ele>
        <time>2013-09-04T12:46:21Z</time>
      </trkpt>
      <trkpt lat="43.063250" lon="-4.736950">
        <ele>2172.0</ele>
        <time>2013-09-04T12:46:22Z</time>
      </trkpt>
      <trkpt lat="43.063200" lon="-4.736867">
        <ele>2171.0</ele>
        <time>2013-09-04T12:46:23Z</time>
      </trkpt>
      <trkpt lat="43.063133" lon="-4.736800">
        <ele>2170.0</ele>
        <time>2013-09-04T12:46:24Z</time>
      </trkpt>
      <trkpt lat="43.063083" lon="-4.736733">
        <ele>2168.0</ele>
        <time>2013-09-04T12:46:25Z</time>
      </trkpt>
      <trkpt lat="43.063033" lon="-4.736650">
        <ele>2167.0</ele>
        <time>2013-09-04T12:46:26Z</time>
      </trkpt>
      <trkpt lat="43.063000" lon="-4.736567">
        <ele>2166.0</ele>
        <time>2013-09-04T12:46:27Z</time>
      </trkpt>
      <trkpt lat="43.062950" lon="-4.736483">
        <ele>2165.0</ele>
        <time>2013-09-04T12:46:28Z</time>
      </trkpt>
      <trkpt lat="43.062917" lon="-4.736417">
        <ele>2163.0</ele>
        <time>2013-09-04T12:46:29Z</time>
      </trkpt>
      <trkpt lat="43.062850" lon="-4.736350">
        <ele>2162.0</ele>
        <time>2013-09-04T12:46:30Z</time>
      </trkpt>
      <trkpt lat="43.062767" lon="-4.736300">
        <ele>2160.0</ele>
        <time>2013-09-04T12:46:31Z</time>
      </trkpt>
      <trkpt lat="43.062700" lon="-4.736233">
        <ele>2158.0</ele>
        <time>2013-09-04T12:46:32Z</time>
      </trkpt>
      <trkpt lat="43.062617" lon="-4.736167">
        <ele>2158.0</ele>
        <time>2013-09-04T12:46:33Z</time>
      </trkpt>
      <trkpt lat="43.062567" lon="-4.736083">
        <ele>2158.0</ele>
        <time>2013-09-04T12:46:34Z</time>
      </trkpt>
      <trkpt lat="43.062517" lon="-4.736033">
        <ele>2158.0</ele>
        <time>2013-09-04T12:46:35Z</time>
      </trkpt>
      <trkpt lat="43.062467" lon="-4.735983">
        <ele>2157.0</ele>
        <time>2013-09-04T12:46:36Z</time>
      </trkpt>
      <trkpt lat="43.062400" lon="-4.735917">
        <ele>2156.0</ele>
        <time>2013-09-04T12:46:37Z</time>
      </trkpt>
      <trkpt lat="43.062333" lon="-4.735867">
        <ele>2154.0</ele>
        <time>2013-09-04T12:46:38Z</time>
      </trkpt>
      <trkpt lat="43.062250" lon="-4.735817">
        <ele>2153.0</ele>
        <time>2013-09-04T12:46:39Z</time>
      </trkpt>
      <trkpt lat="43.062183" lon="-4.735767">
        <ele>2152.0</ele>
        <time>2013-09-04T12:46:40Z</time>
      </trkpt>
      <trkpt lat="43.062117" lon="-4.735700">
        <ele>2152.0</ele>
        <time>2013-09-04T12:46:41Z</time>
      </trkpt>
      <trkpt lat="43.062067" lon="-4.735633">
        <ele>2152.0</ele>
        <time>2013-09-04T12:46:42Z</time>
      </trkpt>
      <trkpt lat="43.062033" lon="-4.735567">
        <ele>2152.0</ele>
        <time>2013-09-04T12:46:43Z</time>
      </trkpt>
      <trkpt lat="43.062017" lon="-4.735500">
        <ele>2151.0</ele>
        <time>2013-09-04T12:46:44Z</time>
      </trkpt>
      <trkpt lat="43.061983" lon="-4.735417">
        <ele>2151.0</ele>
        <time>2013-09-04T12:46:45Z</time>
      </trkpt>
      <trkpt lat="43.061950" lon="-4.735333">
        <ele>2151.0</ele>
        <time>2013-09-04T12:46:46Z</time>
      </trkpt>
      <trkpt lat="43.061933" lon="-4.735267">
        <ele>2151.0</ele>
        <time>2013-09-04T12:46:47Z</time>
      </trkpt>
      <trkpt lat="43.061917" lon="-4.735200">
        <ele>2151.0</ele>
        <time>2013-09-04T12:46:48Z</time>
      </trkpt>
      <trkpt lat="43.061883" lon="-4.735150">
        <ele>2150.0</ele>
        <time>2013-09-04T12:46:49Z</time>
      </trkpt>
      <trkpt lat="43.061850" lon="-4.735100">
        <ele>2149.0</ele>
        <time>2013-09-04T12:46:50Z</time>
      </trkpt>
      <trkpt lat="43.061817" lon="-4.735050">
        <ele>2147.0</ele>
        <time>2013-09-04T12:46:51Z</time>
      </trkpt>
      <trkpt lat="43.061783" lon="-4.734983">
        <ele>2144.0</ele>
        <time>2013-09-04T12:46:52Z</time>
      </trkpt>
      <trkpt lat="43.061767" lon="-4.734900">
        <ele>2141.0</ele>
        <time>2013-09-04T12:46:53Z</time>
      </trkpt>
      <trkpt lat="43.061717" lon="-4.734833">
        <ele>2139.0</ele>
        <time>2013-09-04T12:46:54Z</time>
      </trkpt>
      <trkpt lat="43.061667" lon="-4.734733">
        <ele>2139.0</ele>
        <time>2013-09-04T12:46:55Z</time>
      </trkpt>
      <trkpt lat="43.061633" lon="-4.734667">
        <ele>2137.0</ele>
        <time>2013-09-04T12:46:56Z</time>
      </trkpt>
      <trkpt lat="43.061583" lon="-4.734600">
        <ele>2135.0</ele>
        <time>2013-09-04T12:46:57Z</time>
      </trkpt>
      <trkpt lat="43.061550" lon="-4.734550">
        <ele>2133.0</ele>
        <time>2013-09-04T12:46:58Z</time>
      </trkpt>
      <trkpt lat="43.061517" lon="-4.734467">
        <ele>2131.0</ele>
        <time>2013-09-04T12:46:59Z</time>
      </trkpt>
      <trkpt lat="43.061483" lon="-4.734400">
        <ele>2127.0</ele>
        <time>2013-09-04T12:47:00Z</time>
      </trkpt>
      <trkpt lat="43.061450" lon="-4.734300">
        <ele>2126.0</ele>
        <time>2013-09-04T12:47:01Z</time>
      </trkpt>
      <trkpt lat="43.061417" lon="-4.734217">
        <ele>2123.0</ele>
        <time>2013-09-04T12:47:02Z</time>
      </trkpt>
      <trkpt lat="43.061367" lon="-4.734167">
        <ele>2120.0</ele>
        <time>2013-09-04T12:47:03Z</time>
      </trkpt>
      <trkpt lat="43.061333" lon="-4.734100">
        <ele>2116.0</ele>
        <time>2013-09-04T12:47:04Z</time>
      </trkpt>
      <trkpt lat="43.061283" lon="-4.734017">
        <ele>2111.0</ele>
        <time>2013-09-04T12:47:05Z</time>
      </trkpt>
      <trkpt lat="43.061233" lon="-4.733933">
        <ele>2105.0</ele>
        <time>2013-09-04T12:47:06Z</time>
      </trkpt>
      <trkpt lat="43.061167" lon="-4.733850">
        <ele>2099.0</ele>
        <time>2013-09-04T12:47:07Z</time>
      </trkpt>
      <trkpt lat="43.061117" lon="-4.733733">
        <ele>2094.0</ele>
        <time>2013-09-04T12:47:08Z</time>
      </trkpt>
      <trkpt lat="43.061083" lon="-4.733633">
        <ele>2091.0</ele>
        <time>2013-09-04T12:47:09Z</time>
      </trkpt>
      <trkpt lat="43.061050" lon="-4.733517">
        <ele>2088.0</ele>
        <time>2013-09-04T12:47:10Z</time>
      </trkpt>
      <trkpt lat="43.061017" lon="-4.733433">
        <ele>2085.0</ele>
        <time>2013-09-04T12:47:11Z</time>
      </trkpt>
      <trkpt lat="43.060983" lon="-4.733350">
        <ele>2082.0</ele>
        <time>2013-09-04T12:47:12Z</time>
      </trkpt>
      <trkpt lat="43.060950" lon="-4.733267">
        <ele>2078.0</ele>
        <time>2013-09-04T12:47:13Z</time>
      </trkpt>
      <trkpt lat="43.060900" lon="-4.733183">
        <ele>2075.0</ele>
        <time>2013-09-04T12:47:14Z</time>
      </trkpt>
      <trkpt lat="43.060850" lon="-4.733100">
        <ele>2071.0</ele>
        <time>2013-09-04T12:47:15Z</time>
      </trkpt>
      <trkpt lat="43.060783" lon="-4.733017">
        <ele>2068.0</ele>
        <time>2013-09-04T12:47:16Z</time>
      </trkpt>
      <trkpt lat="43.060733" lon="-4.732933">
        <ele>2066.0</ele>
        <time>2013-09-04T12:47:17Z</time>
      </trkpt>
      <trkpt lat="43.060683" lon="-4.732850">
        <ele>2064.0</ele>
        <time>2013-09-04T12:47:18Z</time>
      </trkpt>
      <trkpt lat="43.060650" lon="-4.732767">
        <ele>2060.0</ele>
        <time>2013-09-04T12:47:19Z</time>
      </trkpt>
      <trkpt lat="43.060600" lon="-4.732667">
        <ele>2056.0</ele>
        <time>2013-09-04T12:47:20Z</time>
      </trkpt>
      <trkpt lat="43.060567" lon="-4.732583">
        <ele>2052.0</ele>
        <time>2013-09-04T12:47:21Z</time>
      </trkpt>
      <trkpt lat="43.060533" lon="-4.732483">
        <ele>2049.0</ele>
        <time>2013-09-04T12:47:22Z</time>
      </trkpt>
      <trkpt lat="43.060483" lon="-4.732367">
        <ele>2046.0</ele>
        <time>2013-09-04T12:47:23Z</time>
      </trkpt>
      <trkpt lat="43.060450" lon="-4.732283">
        <ele>2045.0</ele>
        <time>2013-09-04T12:47:24Z</time>
      </trkpt>
      <trkpt lat="43.060417" lon="-4.732200">
        <ele>2043.0</ele>
        <time>2013-09-04T12:47:25Z</time>
      </trkpt>
      <trkpt lat="43.060383" lon="-4.732133">
        <ele>2041.0</ele>
        <time>2013-09-04T12:47:26Z</time>
      </trkpt>
      <trkpt lat="43.060333" lon="-4.732067">
        <ele>2039.0</ele>
        <time>2013-09-04T12:47:27Z</time>
      </trkpt>
      <trkpt lat="43.060267" lon="-4.732000">
        <ele>2036.0</ele>
        <time>2013-09-04T12:47:28Z</time>
      </trkpt>
      <trkpt lat="43.060183" lon="-4.731950">
        <ele>2033.0</ele>
        <time>2013-09-04T12:47:29Z</time>
      </trkpt>
      <trkpt lat="43.060117" lon="-4.731883">
        <ele>2032.0</ele>
        <time>2013-09-04T12:47:30Z</time>
      </trkpt>
      <trkpt lat="43.060067" lon="-4.731817">
        <ele>2031.0</ele>
        <time>2013-09-04T12:47:31Z</time>
      </trkpt>
      <trkpt lat="43.060017" lon="-4.731750">
        <ele>2029.0</ele>
        <time>2013-09-04T12:47:32Z</time>
      </trkpt>
      <trkpt lat="43.060000" lon="-4.731667">
        <ele>2027.0</ele>
        <time>2013-09-04T12:47:33Z</time>
      </trkpt>
      <trkpt lat="43.059983" lon="-4.731583">
        <ele>2025.0</ele>
        <time>2013-09-04T12:47:34Z</time>
      </trkpt>
      <trkpt lat="43.059950" lon="-4.731500">
        <ele>2023.0</ele>
        <time>2013-09-04T12:47:35Z</time>
      </trkpt>
      <trkpt lat="43.059917" lon="-4.731417">
        <ele>2020.0</ele>
        <time>2013-09-04T12:47:36Z</time>
      </trkpt>
      <trkpt lat="43.059883" lon="-4.731333">
        <ele>2018.0</ele>
        <time>2013-09-04T12:47:37Z</time>
      </trkpt>
      <trkpt lat="43.059867" lon="-4.731250">
        <ele>2015.0</ele>
        <time>2013-09-04T12:47:38Z</time>
      </trkpt>
      <trkpt lat="43.059817" lon="-4.731150">
        <ele>2012.0</ele>
        <time>2013-09-04T12:47:39Z</time>
      </trkpt>
      <trkpt lat="43.059783" lon="-4.731067">
        <ele>2010.0</ele>
        <time>2013-09-04T12:47:40Z</time>
      </trkpt>
      <trkpt lat="43.059717" lon="-4.731000">
        <ele>2008.0</ele>
        <time>2013-09-04T12:47:41Z</time>
      </trkpt>
      <trkpt lat="43.059667" lon="-4.730933">
        <ele>2005.0</ele>
        <time>2013-09-04T12:47:42Z</time>
      </trkpt>
      <trkpt lat="43.059617" lon="-4.730883">
        <ele>2003.0</ele>
        <time>2013-09-04T12:47:43Z</time>
      </trkpt>
      <trkpt lat="43.059567" lon="-4.730817">
        <ele>2000.0</ele>
        <time>2013-09-04T12:47:44Z</time>
      </trkpt>
      <trkpt lat="43.059517" lon="-4.730733">
        <ele>1999.0</ele>
        <time>2013-09-04T12:47:45Z</time>
      </trkpt>
      <trkpt lat="43.059467" lon="-4.730650">
        <ele>1998.0</ele>
        <time>2013-09-04T12:47:46Z</time>
      </trkpt>
      <trkpt lat="43.059433" lon="-4.730550">
        <ele>1998.0</ele>
        <time>2013-09-04T12:47:47Z</time>
      </trkpt>
      <trkpt lat="43.059400" lon="-4.730467">
        <ele>1998.0</ele>
        <time>2013-09-04T12:47:48Z</time>
      </trkpt>
      <trkpt lat="43.059383" lon="-4.730383">
        <ele>1998.0</ele>
        <time>2013-09-04T12:47:49Z</time>
      </trkpt>
      <trkpt lat="43.059350" lon="-4.730300">
        <ele>1997.0</ele>
        <time>2013-09-04T12:47:50Z</time>
      </trkpt>
      <trkpt lat="43.059300" lon="-4.730217">
        <ele>1997.0</ele>
        <time>2013-09-04T12:47:51Z</time>
      </trkpt>
      <trkpt lat="43.059267" lon="-4.730150">
        <ele>1998.0</ele>
        <time>2013-09-04T12:47:52Z</time>
      </trkpt>
      <trkpt lat="43.059217" lon="-4.730067">
        <ele>1997.0</ele>
        <time>2013-09-04T12:47:53Z</time>
      </trkpt>
      <trkpt lat="43.059167" lon="-4.729983">
        <ele>1997.0</ele>
        <time>2013-09-04T12:47:54Z</time>
      </trkpt>
      <trkpt lat="43.059117" lon="-4.729883">
        <ele>1997.0</ele>
        <time>2013-09-04T12:47:55Z</time>
      </trkpt>
      <trkpt lat="43.059067" lon="-4.729783">
        <ele>1997.0</ele>
        <time>2013-09-04T12:47:56Z</time>
      </trkpt>
      <trkpt lat="43.059000" lon="-4.729700">
        <ele>1998.0</ele>
        <time>2013-09-04T12:47:57Z</time>
      </trkpt>
      <trkpt lat="43.058950" lon="-4.729633">
        <ele>2000.0</ele>
        <time>2013-09-04T12:47:58Z</time>
      </trkpt>
      <trkpt lat="43.058900" lon="-4.729567">
        <ele>2002.0</ele>
        <time>2013-09-04T12:47:59Z</time>
      </trkpt>
      <trkpt lat="43.058867" lon="-4.729533">
        <ele>2004.0</ele>
        <time>2013-09-04T12:48:00Z</time>
      </trkpt>
      <trkpt lat="43.058833" lon="-4.729500">
        <ele>2004.0</ele>
        <time>2013-09-04T12:48:01Z</time>
      </trkpt>
      <trkpt lat="43.058800" lon="-4.729467">
        <ele>2005.0</ele>
        <time>2013-09-04T12:48:02Z</time>
      </trkpt>
      <trkpt lat="43.058750" lon="-4.729433">
        <ele>2005.0</ele>
        <time>2013-09-04T12:48:03Z</time>
      </trkpt>
      <trkpt lat="43.058700" lon="-4.729400">
        <ele>2005.0</ele>
        <time>2013-09-04T12:48:04Z</time>
      </trkpt>
      <trkpt lat="43.058650" lon="-4.729367">
        <ele>2006.0</ele>
        <time>2013-09-04T12:48:05Z</time>
      </trkpt>
      <trkpt lat="43.058600" lon="-4.729333">
        <ele>2006.0</ele>
        <time>2013-09-04T12:48:06Z</time>
      </trkpt>
      <trkpt lat="43.058550" lon="-4.729300">
        <ele>2006.0</ele>
        <time>2013-09-04T12:48:07Z</time>
      </trkpt>
      <trkpt lat="43.058500" lon="-4.729233">
        <ele>2005.0</ele>
        <time>2013-09-04T12:48:08Z</time>
      </trkpt>
      <trkpt lat="43.058433" lon="-4.729183">
        <ele>2006.0</ele>
        <time>2013-09-04T12:48:09Z</time>
      </trkpt>
      <trkpt lat="43.058367" lon="-4.729133">
        <ele>2008.0</ele>
        <time>2013-09-04T12:48:10Z</time>
      </trkpt>
      <trkpt lat="43.058300" lon="-4.729083">
        <ele>2009.0</ele>
        <time>2013-09-04T12:48:11Z</time>
      </trkpt>
      <trkpt lat="43.058250" lon="-4.729050">
        <ele>2011.0</ele>
        <time>2013-09-04T12:48:12Z</time>
      </trkpt>
      <trkpt lat="43.058200" lon="-4.729000">
        <ele>2011.0</ele>
        <time>2013-09-04T12:48:13Z</time>
      </trkpt>
      <trkpt lat="43.058167" lon="-4.728933">
        <ele>2011.0</ele>
        <time>2013-09-04T12:48:14Z</time>
      </trkpt>
      <trkpt lat="43.058133" lon="-4.728850">
        <ele>2011.0</ele>
        <time>2013-09-04T12:48:15Z</time>
      </trkpt>
      <trkpt lat="43.058100" lon="-4.728783">
        <ele>2014.0</ele>
        <time>2013-09-04T12:48:16Z</time>
      </trkpt>
      <trkpt lat="43.058050" lon="-4.728717">
        <ele>2015.0</ele>
        <time>2013-09-04T12:48:17Z</time>
      </trkpt>
      <trkpt lat="43.058000" lon="-4.728683">
        <ele>2019.0</ele>
        <time>2013-09-04T12:48:18Z</time>
      </trkpt>
      <trkpt lat="43.057950" lon="-4.728633">
        <ele>2021.0</ele>
        <time>2013-09-04T12:48:19Z</time>
      </trkpt>
      <trkpt lat="43.057917" lon="-4.728567">
        <ele>2023.0</ele>
        <time>2013-09-04T12:48:20Z</time>
      </trkpt>
      <trkpt lat="43.057883" lon="-4.728500">
        <ele>2025.0</ele>
        <time>2013-09-04T12:48:21Z</time>
      </trkpt>
      <trkpt lat="43.057850" lon="-4.728450">
        <ele>2027.0</ele>
        <time>2013-09-04T12:48:22Z</time>
      </trkpt>
      <trkpt lat="43.057783" lon="-4.728433">
        <ele>2028.0</ele>
        <time>2013-09-04T12:48:23Z</time>
      </trkpt>
      <trkpt lat="43.057700" lon="-4.728433">
        <ele>2028.0</ele>
        <time>2013-09-04T12:48:24Z</time>
      </trkpt>
      <trkpt lat="43.057617" lon="-4.728467">
        <ele>2028.0</ele>
        <time>2013-09-04T12:48:25Z</time>
      </trkpt>
      <trkpt lat="43.057533" lon="-4.728517">
        <ele>2028.0</ele>
        <time>2013-09-04T12:48:26Z</time>
      </trkpt>
      <trkpt lat="43.057467" lon="-4.728617">
        <ele>2029.0</ele>
        <time>2013-09-04T12:48:27Z</time>
      </trkpt>
      <trkpt lat="43.057433" lon="-4.728750">
        <ele>2028.0</ele>
        <time>2013-09-04T12:48:28Z</time>
      </trkpt>
      <trkpt lat="43.057417" lon="-4.728917">
        <ele>2028.0</ele>
        <time>2013-09-04T12:48:29Z</time>
      </trkpt>
      <trkpt lat="43.057450" lon="-4.729067">
        <ele>2026.0</ele>
        <time>2013-09-04T12:48:30Z</time>
      </trkpt>
      <trkpt lat="43.057500" lon="-4.729200">
        <ele>2025.0</ele>
        <time>2013-09-04T12:48:31Z</time>
      </trkpt>
      <trkpt lat="43.057567" lon="-4.729333">
        <ele>2026.0</ele>
        <time>2013-09-04T12:48:32Z</time>
      </trkpt>
      <trkpt lat="43.057650" lon="-4.729433">
        <ele>2027.0</ele>
        <time>2013-09-04T12:48:33Z</time>
      </trkpt>
      <trkpt lat="43.057717" lon="-4.729517">
        <ele>2028.0</ele>
        <time>2013-09-04T12:48:34Z</time>
      </trkpt>
      <trkpt lat="43.057783" lon="-4.729600">
        <ele>2030.0</ele>
        <time>2013-09-04T12:48:35Z</time>
      </trkpt>
      <trkpt lat="43.057817" lon="-4.729700">
        <ele>2034.0</ele>
        <time>2013-09-04T12:48:36Z</time>
      </trkpt>
      <trkpt lat="43.057850" lon="-4.729783">
        <ele>2037.0</ele>
        <time>2013-09-04T12:48:37Z</time>
      </trkpt>
      <trkpt lat="43.057867" lon="-4.729850">
        <ele>2039.0</ele>
        <time>2013-09-04T12:48:38Z</time>
      </trkpt>
      <trkpt lat="43.057900" lon="-4.729933">
        <ele>2040.0</ele>
        <time>2013-09-04T12:48:39Z</time>
      </trkpt>
      <trkpt lat="43.057950" lon="-4.730017">
        <ele>2039.0</ele>
        <time>2013-09-04T12:48:40Z</time>
      </trkpt>
      <trkpt lat="43.058017" lon="-4.730067">
        <ele>2039.0</ele>
        <time>2013-09-04T12:48:41Z</time>
      </trkpt>
      <trkpt lat="43.058067" lon="-4.730067">
        <ele>2039.0</ele>
        <time>2013-09-04T12:48:42Z</time>
      </trkpt>
      <trkpt lat="43.058117" lon="-4.730017">
        <ele>2039.0</ele>
        <time>2013-09-04T12:48:43Z</time>
      </trkpt>
      <trkpt lat="43.058100" lon="-4.729917">
        <ele>2038.0</ele>
        <time>2013-09-04T12:48:44Z</time>
      </trkpt>
      <trkpt lat="43.058033" lon="-4.729817">
        <ele>2039.0</ele>
        <time>2013-09-04T12:48:45Z</time>
      </trkpt>
      <trkpt lat="43.057967" lon="-4.729733">
        <ele>2040.0</ele>
        <time>2013-09-04T12:48:46Z</time>
      </trkpt>
      <trkpt lat="43.057933" lon="-4.729667">
        <ele>2042.0</ele>
        <time>2013-09-04T12:48:47Z</time>
      </trkpt>
      <trkpt lat="43.057883" lon="-4.729583">
        <ele>2044.0</ele>
        <time>2013-09-04T12:48:48Z</time>
      </trkpt>
      <trkpt lat="43.057833" lon="-4.729517">
        <ele>2046.0</ele>
        <time>2013-09-04T12:48:49Z</time>
      </trkpt>
      <trkpt lat="43.057783" lon="-4.729450">
        <ele>2048.0</ele>
        <time>2013-09-04T12:48:50Z</time>
      </trkpt>
      <trkpt lat="43.057733" lon="-4.729417">
        <ele>2050.0</ele>
        <time>2013-09-04T12:48:51Z</time>
      </trkpt>
      <trkpt lat="43.057667" lon="-4.729383">
        <ele>2052.0</ele>
        <time>2013-09-04T12:48:52Z</time>
      </trkpt>
      <trkpt lat="43.057617" lon="-4.729383">
        <ele>2052.0</ele>
        <time>2013-09-04T12:48:53Z</time>
      </trkpt>
      <trkpt lat="43.057550" lon="-4.729383">
        <ele>2052.0</ele>
        <time>2013-09-04T12:48:54Z</time>
      </trkpt>
      <trkpt lat="43.057467" lon="-4.729400">
        <ele>2052.0</ele>
        <time>2013-09-04T12:48:55Z</time>
      </trkpt>
      <trkpt lat="43.057383" lon="-4.729417">
        <ele>2051.0</ele>
        <time>2013-09-04T12:48:56Z</time>
      </trkpt>
      <trkpt lat="43.057300" lon="-4.729433">
        <ele>2051.0</ele>
        <time>2013-09-04T12:48:57Z</time>
      </trkpt>
      <trkpt lat="43.057200" lon="-4.729483">
        <ele>2050.0</ele>
        <time>2013-09-04T12:48:58Z</time>
      </trkpt>
      <trkpt lat="43.057117" lon="-4.729533">
        <ele>2050.0</ele>
        <time>2013-09-04T12:48:59Z</time>
      </trkpt>
      <trkpt lat="43.057033" lon="-4.729650">
        <ele>2049.0</ele>
        <time>2013-09-04T12:49:00Z</time>
      </trkpt>
      <trkpt lat="43.056967" lon="-4.729783">
        <ele>2048.0</ele>
        <time>2013-09-04T12:49:01Z</time>
      </trkpt>
      <trkpt lat="43.056933" lon="-4.729933">
        <ele>2047.0</ele>
        <time>2013-09-04T12:49:02Z</time>
      </trkpt>
      <trkpt lat="43.056933" lon="-4.730083">
        <ele>2047.0</ele>
        <time>2013-09-04T12:49:03Z</time>
      </trkpt>
      <trkpt lat="43.056933" lon="-4.730233">
        <ele>2047.0</ele>
        <time>2013-09-04T12:49:04Z</time>
      </trkpt>
      <trkpt lat="43.056950" lon="-4.730367">
        <ele>2048.0</ele>
        <time>2013-09-04T12:49:05Z</time>
      </trkpt>
      <trkpt lat="43.056967" lon="-4.730500">
        <ele>2048.0</ele>
        <time>2013-09-04T12:49:06Z</time>
      </trkpt>
      <trkpt lat="43.057000" lon="-4.730633">
        <ele>2047.0</ele>
        <time>2013-09-04T12:49:07Z</time>
      </trkpt>
      <trkpt lat="43.057050" lon="-4.730767">
        <ele>2048.0</ele>
        <time>2013-09-04T12:49:08Z</time>
      </trkpt>
      <trkpt lat="43.057100" lon="-4.730867">
        <ele>2048.0</ele>
        <time>2013-09-04T12:49:09Z</time>
      </trkpt>
      <trkpt lat="43.057150" lon="-4.730950">
        <ele>2049.0</ele>
        <time>2013-09-04T12:49:10Z</time>
      </trkpt>
      <trkpt lat="43.057200" lon="-4.731017">
        <ele>2049.0</ele>
        <time>2013-09-04T12:49:11Z</time>
      </trkpt>
      <trkpt lat="43.057267" lon="-4.731100">
        <ele>2050.0</ele>
        <time>2013-09-04T12:49:12Z</time>
      </trkpt>
      <trkpt lat="43.057333" lon="-4.731150">
        <ele>2050.0</ele>
        <time>2013-09-04T12:49:13Z</time>
      </trkpt>
      <trkpt lat="43.057400" lon="-4.731200">
        <ele>2049.0</ele>
        <time>2013-09-04T12:49:14Z</time>
      </trkpt>
      <trkpt lat="43.057467" lon="-4.731233">
        <ele>2049.0</ele>
        <time>2013-09-04T12:49:15Z</time>
      </trkpt>
      <trkpt lat="43.057550" lon="-4.731250">
        <ele>2048.0</ele>
        <time>2013-09-04T12:49:16Z</time>
      </trkpt>
      <trkpt lat="43.057633" lon="-4.731233">
        <ele>2047.0</ele>
        <time>2013-09-04T12:49:17Z</time>
      </trkpt>
      <trkpt lat="43.057700" lon="-4.731233">
        <ele>2047.0</ele>
        <time>2013-09-04T12:49:18Z</time>
      </trkpt>
      <trkpt lat="43.057783" lon="-4.731233">
        <ele>2048.0</ele>
        <time>2013-09-04T12:49:19Z</time>
      </trkpt>
      <trkpt lat="43.057867" lon="-4.731233">
        <ele>2050.0</ele>
        <time>2013-09-04T12:49:20Z</time>
      </trkpt>
      <trkpt lat="43.057933" lon="-4.731250">
        <ele>2051.0</ele>
        <time>2013-09-04T12:49:21Z</time>
      </trkpt>
      <trkpt lat="43.057983" lon="-4.731267">
        <ele>2052.0</ele>
        <time>2013-09-04T12:49:22Z</time>
      </trkpt>
      <trkpt lat="43.058050" lon="-4.731283">
        <ele>2052.0</ele>
        <time>2013-09-04T12:49:23Z</time>
      </trkpt>
      <trkpt lat="43.058100" lon="-4.731283">
        <ele>2052.0</ele>
        <time>2013-09-04T12:49:24Z</time>
      </trkpt>
      <trkpt lat="43.058167" lon="-4.731267">
        <ele>2052.0</ele>
        <time>2013-09-04T12:49:25Z</time>
      </trkpt>
      <trkpt lat="43.058233" lon="-4.731250">
        <ele>2053.0</ele>
        <time>2013-09-04T12:49:26Z</time>
      </trkpt>
      <trkpt lat="43.058283" lon="-4.731233">
        <ele>2054.0</ele>
        <time>2013-09-04T12:49:27Z</time>
      </trkpt>
      <trkpt lat="43.058333" lon="-4.731200">
        <ele>2054.0</ele>
        <time>2013-09-04T12:49:28Z</time>
      </trkpt>
      <trkpt lat="43.058383" lon="-4.731183">
        <ele>2055.0</ele>
        <time>2013-09-04T12:49:29Z</time>
      </trkpt>
      <trkpt lat="43.058433" lon="-4.731133">
        <ele>2055.0</ele>
        <time>2013-09-04T12:49:30Z</time>
      </trkpt>
      <trkpt lat="43.058483" lon="-4.731083">
        <ele>2055.0</ele>
        <time>2013-09-04T12:49:31Z</time>
      </trkpt>
      <trkpt lat="43.058533" lon="-4.731017">
        <ele>2056.0</ele>
        <time>2013-09-04T12:49:32Z</time>
      </trkpt>
      <trkpt lat="43.058550" lon="-4.730950">
        <ele>2058.0</ele>
        <time>2013-09-04T12:49:33Z</time>
      </trkpt>
      <trkpt lat="43.058567" lon="-4.730900">
        <ele>2061.0</ele>
        <time>2013-09-04T12:49:34Z</time>
      </trkpt>
      <trkpt lat="43.058567" lon="-4.730850">
        <ele>2062.0</ele>
        <time>2013-09-04T12:49:35Z</time>
      </trkpt>
      <trkpt lat="43.058583" lon="-4.730800">
        <ele>2063.0</ele>
        <time>2013-09-04T12:49:36Z</time>
      </trkpt>
      <trkpt lat="43.058600" lon="-4.730750">
        <ele>2063.0</ele>
        <time>2013-09-04T12:49:37Z</time>
      </trkpt>
      <trkpt lat="43.058633" lon="-4.730683">
        <ele>2063.0</ele>
        <time>2013-09-04T12:49:38Z</time>
      </trkpt>
      <trkpt lat="43.058667" lon="-4.730600">
        <ele>2064.0</ele>
        <time>2013-09-04T12:49:39Z</time>
      </trkpt>
      <trkpt lat="43.058683" lon="-4.730517">
        <ele>2065.0</ele>
        <time>2013-09-04T12:49:40Z</time>
      </trkpt>
      <trkpt lat="43.058700" lon="-4.730433">
        <ele>2069.0</ele>
        <time>2013-09-04T12:49:41Z</time>
      </trkpt>
      <trkpt lat="43.058700" lon="-4.730367">
        <ele>2071.0</ele>
        <time>2013-09-04T12:49:42Z</time>
      </trkpt>
      <trkpt lat="43.058717" lon="-4.730317">
        <ele>2074.0</ele>
        <time>2013-09-04T12:49:43Z</time>
      </trkpt>
      <trkpt lat="43.058717" lon="-4.730250">
        <ele>2076.0</ele>
        <time>2013-09-04T12:49:44Z</time>
      </trkpt>
      <trkpt lat="43.058717" lon="-4.730183">
        <ele>2076.0</ele>
        <time>2013-09-04T12:49:45Z</time>
      </trkpt>
      <trkpt lat="43.058733" lon="-4.730117">
        <ele>2076.0</ele>
        <time>2013-09-04T12:49:46Z</time>
      </trkpt>
      <trkpt lat="43.058733" lon="-4.730050">
        <ele>2076.0</ele>
        <time>2013-09-04T12:49:47Z</time>
      </trkpt>
      <trkpt lat="43.058750" lon="-4.730000">
        <ele>2077.0</ele>
        <time>2013-09-04T12:49:48Z</time>
      </trkpt>
      <trkpt lat="43.058733" lon="-4.729933">
        <ele>2078.0</ele>
        <time>2013-09-04T12:49:49Z</time>
      </trkpt>
      <trkpt lat="43.058750" lon="-4.729883">
        <ele>2077.0</ele>
        <time>2013-09-04T12:49:50Z</time>
      </trkpt>
      <trkpt lat="43.058750" lon="-4.729817">
        <ele>2076.0</ele>
        <time>2013-09-04T12:49:51Z</time>
      </trkpt>
      <trkpt lat="43.058767" lon="-4.729733">
        <ele>2075.0</ele>
        <time>2013-09-04T12:49:52Z</time>
      </trkpt>
      <trkpt lat="43.058783" lon="-4.729650">
        <ele>2074.0</ele>
        <time>2013-09-04T12:49:53Z</time>
      </trkpt>
      <trkpt lat="43.058783" lon="-4.729550">
        <ele>2074.0</ele>
        <time>2013-09-04T12:49:54Z</time>
      </trkpt>
      <trkpt lat="43.058800" lon="-4.729467">
        <ele>2074.0</ele>
        <time>2013-09-04T12:49:55Z</time>
      </trkpt>
      <trkpt lat="43.058817" lon="-4.729383">
        <ele>2074.0</ele>
        <time>2013-09-04T12:49:56Z</time>
      </trkpt>
      <trkpt lat="43.058817" lon="-4.729300">
        <ele>2074.0</ele>
        <time>2013-09-04T12:49:57Z</time>
      </trkpt>
      <trkpt lat="43.058800" lon="-4.729233">
        <ele>2074.0</ele>
        <time>2013-09-04T12:49:58Z</time>
      </trkpt>
      <trkpt lat="43.058800" lon="-4.729150">
        <ele>2074.0</ele>
        <time>2013-09-04T12:49:59Z</time>
      </trkpt>
      <trkpt lat="43.058783" lon="-4.729067">
        <ele>2074.0</ele>
        <time>2013-09-04T12:50:00Z</time>
      </trkpt>
      <trkpt lat="43.058767" lon="-4.728983">
        <ele>2074.0</ele>
        <time>2013-09-04T12:50:01Z</time>
      </trkpt>
      <trkpt lat="43.058750" lon="-4.728883">
        <ele>2074.0</ele>
        <time>2013-09-04T12:50:02Z</time>
      </trkpt>
      <trkpt lat="43.058733" lon="-4.728800">
        <ele>2074.0</ele>
        <time>2013-09-04T12:50:03Z</time>
      </trkpt>
      <trkpt lat="43.058700" lon="-4.728700">
        <ele>2074.0</ele>
        <time>2013-09-04T12:50:04Z</time>
      </trkpt>
      <trkpt lat="43.058667" lon="-4.728617">
        <ele>2075.0</ele>
        <time>2013-09-04T12:50:05Z</time>
      </trkpt>
      <trkpt lat="43.058650" lon="-4.728517">
        <ele>2076.0</ele>
        <time>2013-09-04T12:50:06Z</time>
      </trkpt>
      <trkpt lat="43.058617" lon="-4.728433">
        <ele>2077.0</ele>
        <time>2013-09-04T12:50:07Z</time>
      </trkpt>
      <trkpt lat="43.058600" lon="-4.728350">
        <ele>2079.0</ele>
        <time>2013-09-04T12:50:08Z</time>
      </trkpt>
      <trkpt lat="43.058567" lon="-4.728283">
        <ele>2081.0</ele>
        <time>2013-09-04T12:50:09Z</time>
      </trkpt>
      <trkpt lat="43.058550" lon="-4.728233">
        <ele>2082.0</ele>
        <time>2013-09-04T12:50:10Z</time>
      </trkpt>
      <trkpt lat="43.058517" lon="-4.728183">
        <ele>2083.0</ele>
        <time>2013-09-04T12:50:11Z</time>
      </trkpt>
      <trkpt lat="43.058500" lon="-4.728133">
        <ele>2083.0</ele>
        <time>2013-09-04T12:50:12Z</time>
      </trkpt>
      <trkpt lat="43.058500" lon="-4.728050">
        <ele>2082.0</ele>
        <time>2013-09-04T12:50:13Z</time>
      </trkpt>
      <trkpt lat="43.058517" lon="-4.727967">
        <ele>2082.0</ele>
        <time>2013-09-04T12:50:14Z</time>
      </trkpt>
      <trkpt lat="43.058550" lon="-4.727883">
        <ele>2081.0</ele>
        <time>2013-09-04T12:50:15Z</time>
      </trkpt>
      <trkpt lat="43.058567" lon="-4.727800">
        <ele>2081.0</ele>
        <time>2013-09-04T12:50:16Z</time>
      </trkpt>
      <trkpt lat="43.058583" lon="-4.727700">
        <ele>2081.0</ele>
        <time>2013-09-04T12:50:17Z</time>
      </trkpt>
      <trkpt lat="43.058617" lon="-4.727583">
        <ele>2081.0</ele>
        <time>2013-09-04T12:50:18Z</time>
      </trkpt>
      <trkpt lat="43.058650" lon="-4.727467">
        <ele>2082.0</ele>
        <time>2013-09-04T12:50:19Z</time>
      </trkpt>
      <trkpt lat="43.058683" lon="-4.727367">
        <ele>2083.0</ele>
        <time>2013-09-04T12:50:20Z</time>
      </trkpt>
      <trkpt lat="43.058700" lon="-4.727283">
        <ele>2084.0</ele>
        <time>2013-09-04T12:50:21Z</time>
      </trkpt>
      <trkpt lat="43.058717" lon="-4.727200">
        <ele>2083.0</ele>
        <time>2013-09-04T12:50:22Z</time>
      </trkpt>
      <trkpt lat="43.058717" lon="-4.727100">
        <ele>2083.0</ele>
        <time>2013-09-04T12:50:23Z</time>
      </trkpt>
      <trkpt lat="43.058717" lon="-4.727000">
        <ele>2082.0</ele>
        <time>2013-09-04T12:50:24Z</time>
      </trkpt>
      <trkpt lat="43.058717" lon="-4.726900">
        <ele>2082.0</ele>
        <time>2013-09-04T12:50:25Z</time>
      </trkpt>
      <trkpt lat="43.058733" lon="-4.726783">
        <ele>2082.0</ele>
        <time>2013-09-04T12:50:26Z</time>
      </trkpt>
      <trkpt lat="43.058767" lon="-4.726683">
        <ele>2081.0</ele>
        <time>2013-09-04T12:50:27Z</time>
      </trkpt>
      <trkpt lat="43.058800" lon="-4.726567">
        <ele>2080.0</ele>
        <time>2013-09-04T12:50:28Z</time>
      </trkpt>
      <trkpt lat="43.058833" lon="-4.726467">
        <ele>2080.0</ele>
        <time>2013-09-04T12:50:29Z</time>
      </trkpt>
      <trkpt lat="43.058867" lon="-4.726350">
        <ele>2080.0</ele>
        <time>2013-09-04T12:50:30Z</time>
      </trkpt>
      <trkpt lat="43.058917" lon="-4.726250">
        <ele>2079.0</ele>
        <time>2013-09-04T12:50:31Z</time>
      </trkpt>
      <trkpt lat="43.058967" lon="-4.726167">
        <ele>2079.0</ele>
        <time>2013-09-04T12:50:32Z</time>
      </trkpt>
      <trkpt lat="43.059017" lon="-4.726067">
        <ele>2079.0</ele>
        <time>2013-09-04T12:50:33Z</time>
      </trkpt>
      <trkpt lat="43.059067" lon="-4.725983">
        <ele>2077.0</ele>
        <time>2013-09-04T12:50:34Z</time>
      </trkpt>
      <trkpt lat="43.059117" lon="-4.725900">
        <ele>2076.0</ele>
        <time>2013-09-04T12:50:35Z</time>
      </trkpt>
      <trkpt lat="43.059167" lon="-4.725833">
        <ele>2075.0</ele>
        <time>2013-09-04T12:50:36Z</time>
      </trkpt>
      <trkpt lat="43.059200" lon="-4.725750">
        <ele>2072.0</ele>
        <time>2013-09-04T12:50:37Z</time>
      </trkpt>
      <trkpt lat="43.059250" lon="-4.725667">
        <ele>2070.0</ele>
        <time>2013-09-04T12:50:38Z</time>
      </trkpt>
      <trkpt lat="43.059283" lon="-4.725550">
        <ele>2069.0</ele>
        <time>2013-09-04T12:50:39Z</time>
      </trkpt>
      <trkpt lat="43.059300" lon="-4.725433">
        <ele>2068.0</ele>
        <time>2013-09-04T12:50:40Z</time>
      </trkpt>
      <trkpt lat="43.059333" lon="-4.725317">
        <ele>2069.0</ele>
        <time>2013-09-04T12:50:41Z</time>
      </trkpt>
      <trkpt lat="43.059333" lon="-4.725217">
        <ele>2069.0</ele>
        <time>2013-09-04T12:50:42Z</time>
      </trkpt>
      <trkpt lat="43.059333" lon="-4.725100">
        <ele>2070.0</ele>
        <time>2013-09-04T12:50:43Z</time>
      </trkpt>
      <trkpt lat="43.059317" lon="-4.725000">
        <ele>2070.0</ele>
        <time>2013-09-04T12:50:44Z</time>
      </trkpt>
      <trkpt lat="43.059317" lon="-4.724900">
        <ele>2069.0</ele>
        <time>2013-09-04T12:50:45Z</time>
      </trkpt>
      <trkpt lat="43.059317" lon="-4.724817">
        <ele>2068.0</ele>
        <time>2013-09-04T12:50:46Z</time>
      </trkpt>
      <trkpt lat="43.059333" lon="-4.724733">
        <ele>2067.0</ele>
        <time>2013-09-04T12:50:47Z</time>
      </trkpt>
      <trkpt lat="43.059367" lon="-4.724650">
        <ele>2065.0</ele>
        <time>2013-09-04T12:50:48Z</time>
      </trkpt>
      <trkpt lat="43.059417" lon="-4.724550">
        <ele>2065.0</ele>
        <time>2013-09-04T12:50:49Z</time>
      </trkpt>
      <trkpt lat="43.059467" lon="-4.724467">
        <ele>2065.0</ele>
        <time>2013-09-04T12:50:50Z</time>
      </trkpt>
      <trkpt lat="43.059517" lon="-4.724383">
        <ele>2065.0</ele>
        <time>2013-09-04T12:50:51Z</time>
      </trkpt>
      <trkpt lat="43.059550" lon="-4.724333">
        <ele>2064.0</ele>
        <time>2013-09-04T12:50:52Z</time>
      </trkpt>
      <trkpt lat="43.059600" lon="-4.724300">
        <ele>2062.0</ele>
        <time>2013-09-04T12:50:53Z</time>
      </trkpt>
      <trkpt lat="43.059633" lon="-4.724267">
        <ele>2061.0</ele>
        <time>2013-09-04T12:50:54Z</time>
      </trkpt>
      <trkpt lat="43.059683" lon="-4.724233">
        <ele>2058.0</ele>
        <time>2013-09-04T12:50:55Z</time>
      </trkpt>
      <trkpt lat="43.059750" lon="-4.724267">
        <ele>2056.0</ele>
        <time>2013-09-04T12:50:56Z</time>
      </trkpt>
      <trkpt lat="43.059817" lon="-4.724333">
        <ele>2053.0</ele>
        <time>2013-09-04T12:50:57Z</time>
      </trkpt>
      <trkpt lat="43.059867" lon="-4.724433">
        <ele>2052.0</ele>
        <time>2013-09-04T12:50:58Z</time>
      </trkpt>
      <trkpt lat="43.059867" lon="-4.724550">
        <ele>2051.0</ele>
        <time>2013-09-04T12:50:59Z</time>
      </trkpt>
      <trkpt lat="43.059883" lon="-4.724667">
        <ele>2051.0</ele>
        <time>2013-09-04T12:51:00Z</time>
      </trkpt>
      <trkpt lat="43.059867" lon="-4.724783">
        <ele>2051.0</ele>
        <time>2013-09-04T12:51:01Z</time>
      </trkpt>
      <trkpt lat="43.059883" lon="-4.724900">
        <ele>2052.0</ele>
        <time>2013-09-04T12:51:02Z</time>
      </trkpt>
      <trkpt lat="43.059883" lon="-4.725000">
        <ele>2053.0</ele>
        <time>2013-09-04T12:51:03Z</time>
      </trkpt>
      <trkpt lat="43.059883" lon="-4.725083">
        <ele>2053.0</ele>
        <time>2013-09-04T12:51:04Z</time>
      </trkpt>
      <trkpt lat="43.059883" lon="-4.725167">
        <ele>2053.0</ele>
        <time>2013-09-04T12:51:05Z</time>
      </trkpt>
      <trkpt lat="43.059850" lon="-4.725267">
        <ele>2052.0</ele>
        <time>2013-09-04T12:51:06Z</time>
      </trkpt>
      <trkpt lat="43.059800" lon="-4.725367">
        <ele>2051.0</ele>
        <time>2013-09-04T12:51:07Z</time>
      </trkpt>
      <trkpt lat="43.059750" lon="-4.725467">
        <ele>2051.0</ele>
        <time>2013-09-04T12:51:08Z</time>
      </trkpt>
      <trkpt lat="43.059700" lon="-4.725550">
        <ele>2051.0</ele>
        <time>2013-09-04T12:51:09Z</time>
      </trkpt>
      <trkpt lat="43.059650" lon="-4.725650">
        <ele>2050.0</ele>
        <time>2013-09-04T12:51:10Z</time>
      </trkpt>
      <trkpt lat="43.059617" lon="-4.725733">
        <ele>2051.0</ele>
        <time>2013-09-04T12:51:11Z</time>
      </trkpt>
      <trkpt lat="43.059600" lon="-4.725833">
        <ele>2050.0</ele>
        <time>2013-09-04T12:51:12Z</time>
      </trkpt>
      <trkpt lat="43.059567" lon="-4.725900">
        <ele>2049.0</ele>
        <time>2013-09-04T12:51:13Z</time>
      </trkpt>
      <trkpt lat="43.059533" lon="-4.726000">
        <ele>2046.0</ele>
        <time>2013-09-04T12:51:14Z</time>
      </trkpt>
      <trkpt lat="43.059483" lon="-4.726100">
        <ele>2042.0</ele>
        <time>2013-09-04T12:51:15Z</time>
      </trkpt>
      <trkpt lat="43.059417" lon="-4.726200">
        <ele>2039.0</ele>
        <time>2013-09-04T12:51:16Z</time>
      </trkpt>
      <trkpt lat="43.059350" lon="-4.726317">
        <ele>2037.0</ele>
        <time>2013-09-04T12:51:17Z</time>
      </trkpt>
      <trkpt lat="43.059300" lon="-4.726433">
        <ele>2037.0</ele>
        <time>2013-09-04T12:51:18Z</time>
      </trkpt>
      <trkpt lat="43.059250" lon="-4.726550">
        <ele>2038.0</ele>
        <time>2013-09-04T12:51:19Z</time>
      </trkpt>
      <trkpt lat="43.059233" lon="-4.726667">
        <ele>2038.0</ele>
        <time>2013-09-04T12:51:20Z</time>
      </trkpt>
      <trkpt lat="43.059217" lon="-4.726800">
        <ele>2039.0</ele>
        <time>2013-09-04T12:51:21Z</time>
      </trkpt>
      <trkpt lat="43.059233" lon="-4.726933">
        <ele>2040.0</ele>
        <time>2013-09-04T12:51:22Z</time>
      </trkpt>
      <trkpt lat="43.059250" lon="-4.727067">
        <ele>2042.0</ele>
        <time>2013-09-04T12:51:23Z</time>
      </trkpt>
      <trkpt lat="43.059267" lon="-4.727150">
        <ele>2043.0</ele>
        <time>2013-09-04T12:51:24Z</time>
      </trkpt>
      <trkpt lat="43.059283" lon="-4.727233">
        <ele>2045.0</ele>
        <time>2013-09-04T12:51:25Z</time>
      </trkpt>
      <trkpt lat="43.059317" lon="-4.727333">
        <ele>2044.0</ele>
        <time>2013-09-04T12:51:26Z</time>
      </trkpt>
      <trkpt lat="43.059350" lon="-4.727433">
        <ele>2044.0</ele>
        <time>2013-09-04T12:51:27Z</time>
      </trkpt>
      <trkpt lat="43.059400" lon="-4.727533">
        <ele>2044.0</ele>
        <time>2013-09-04T12:51:28Z</time>
      </trkpt>
      <trkpt lat="43.059467" lon="-4.727633">
        <ele>2044.0</ele>
        <time>2013-09-04T12:51:29Z</time>
      </trkpt>
      <trkpt lat="43.059533" lon="-4.727733">
        <ele>2046.0</ele>
        <time>2013-09-04T12:51:30Z</time>
      </trkpt>
      <trkpt lat="43.059583" lon="-4.727817">
        <ele>2048.0</ele>
        <time>2013-09-04T12:51:31Z</time>
      </trkpt>
      <trkpt lat="43.059633" lon="-4.727883">
        <ele>2050.0</ele>
        <time>2013-09-04T12:51:32Z</time>
      </trkpt>
      <trkpt lat="43.059683" lon="-4.727950">
        <ele>2052.0</ele>
        <time>2013-09-04T12:51:33Z</time>
      </trkpt>
      <trkpt lat="43.059733" lon="-4.728017">
        <ele>2052.0</ele>
        <time>2013-09-04T12:51:34Z</time>
      </trkpt>
      <trkpt lat="43.059783" lon="-4.728083">
        <ele>2052.0</ele>
        <time>2013-09-04T12:51:35Z</time>
      </trkpt>
      <trkpt lat="43.059850" lon="-4.728167">
        <ele>2053.0</ele>
        <time>2013-09-04T12:51:36Z</time>
      </trkpt>
      <trkpt lat="43.059917" lon="-4.728267">
        <ele>2054.0</ele>
        <time>2013-09-04T12:51:37Z</time>
      </trkpt>
      <trkpt lat="43.059950" lon="-4.728383">
        <ele>2055.0</ele>
        <time>2013-09-04T12:51:38Z</time>
      </trkpt>
      <trkpt lat="43.059983" lon="-4.728517">
        <ele>2056.0</ele>
        <time>2013-09-04T12:51:39Z</time>
      </trkpt>
      <trkpt lat="43.059967" lon="-4.728667">
        <ele>2056.0</ele>
        <time>2013-09-04T12:51:40Z</time>
      </trkpt>
      <trkpt lat="43.059933" lon="-4.728817">
        <ele>2056.0</ele>
        <time>2013-09-04T12:51:41Z</time>
      </trkpt>
      <trkpt lat="43.059850" lon="-4.728933">
        <ele>2056.0</ele>
        <time>2013-09-04T12:51:42Z</time>
      </trkpt>
      <trkpt lat="43.059767" lon="-4.729000">
        <ele>2057.0</ele>
        <time>2013-09-04T12:51:43Z</time>
      </trkpt>
      <trkpt lat="43.059683" lon="-4.729017">
        <ele>2057.0</ele>
        <time>2013-09-04T12:51:44Z</time>
      </trkpt>
      <trkpt lat="43.059600" lon="-4.729033">
        <ele>2058.0</ele>
        <time>2013-09-04T12:51:45Z</time>
      </trkpt>
      <trkpt lat="43.059517" lon="-4.729033">
        <ele>2060.0</ele>
        <time>2013-09-04T12:51:46Z</time>
      </trkpt>
      <trkpt lat="43.059433" lon="-4.729050">
        <ele>2062.0</ele>
        <time>2013-09-04T12:51:47Z</time>
      </trkpt>
      <trkpt lat="43.059367" lon="-4.729067">
        <ele>2064.0</ele>
        <time>2013-09-04T12:51:48Z</time>
      </trkpt>
      <trkpt lat="43.059300" lon="-4.729083">
        <ele>2066.0</ele>
        <time>2013-09-04T12:51:49Z</time>
      </trkpt>
      <trkpt lat="43.059250" lon="-4.729083">
        <ele>2066.0</ele>
        <time>2013-09-04T12:51:50Z</time>
      </trkpt>
      <trkpt lat="43.059167" lon="-4.729083">
        <ele>2065.0</ele>
        <time>2013-09-04T12:51:51Z</time>
      </trkpt>
      <trkpt lat="43.059100" lon="-4.729050">
        <ele>2064.0</ele>
        <time>2013-09-04T12:51:52Z</time>
      </trkpt>
      <trkpt lat="43.059033" lon="-4.729000">
        <ele>2063.0</ele>
        <time>2013-09-04T12:51:53Z</time>
      </trkpt>
      <trkpt lat="43.058983" lon="-4.728950">
        <ele>2063.0</ele>
        <time>2013-09-04T12:51:54Z</time>
      </trkpt>
      <trkpt lat="43.058933" lon="-4.728883">
        <ele>2063.0</ele>
        <time>2013-09-04T12:51:55Z</time>
      </trkpt>
      <trkpt lat="43.058867" lon="-4.728850">
        <ele>2063.0</ele>
        <time>2013-09-04T12:51:56Z</time>
      </trkpt>
      <trkpt lat="43.058800" lon="-4.728817">
        <ele>2064.0</ele>
        <time>2013-09-04T12:51:57Z</time>
      </trkpt>
      <trkpt lat="43.058733" lon="-4.728817">
        <ele>2064.0</ele>
        <time>2013-09-04T12:51:58Z</time>
      </trkpt>
      <trkpt lat="43.058667" lon="-4.728800">
        <ele>2065.0</ele>
        <time>2013-09-04T12:51:59Z</time>
      </trkpt>
      <trkpt lat="43.058600" lon="-4.728767">
        <ele>2066.0</ele>
        <time>2013-09-04T12:52:00Z</time>
      </trkpt>
      <trkpt lat="43.058533" lon="-4.728750">
        <ele>2068.0</ele>
        <time>2013-09-04T12:52:01Z</time>
      </trkpt>
      <trkpt lat="43.058483" lon="-4.728733">
        <ele>2070.0</ele>
        <time>2013-09-04T12:52:02Z</time>
      </trkpt>
      <trkpt lat="43.058417" lon="-4.728700">
        <ele>2072.0</ele>
        <time>2013-09-04T12:52:03Z</time>
      </trkpt>
      <trkpt lat="43.058367" lon="-4.728667">
        <ele>2074.0</ele>
        <time>2013-09-04T12:52:04Z</time>
      </trkpt>
      <trkpt lat="43.058317" lon="-4.728667">
        <ele>2076.0</ele>
        <time>2013-09-04T12:52:05Z</time>
      </trkpt>
      <trkpt lat="43.058267" lon="-4.728667">
        <ele>2078.0</ele>
        <time>2013-09-04T12:52:06Z</time>
      </trkpt>
      <trkpt lat="43.058217" lon="-4.728667">
        <ele>2079.0</ele>
        <time>2013-09-04T12:52:07Z</time>
      </trkpt>
      <trkpt lat="43.058167" lon="-4.728650">
        <ele>2079.0</ele>
        <time>2013-09-04T12:52:08Z</time>
      </trkpt>
      <trkpt lat="43.058117" lon="-4.728600">
        <ele>2079.0</ele>
        <time>2013-09-04T12:52:09Z</time>
      </trkpt>
      <trkpt lat="43.058083" lon="-4.728550">
        <ele>2080.0</ele>
        <time>2013-09-04T12:52:10Z</time>
      </trkpt>
      <trkpt lat="43.058083" lon="-4.728500">
        <ele>2081.0</ele>
        <time>2013-09-04T12:52:11Z</time>
      </trkpt>
      <trkpt lat="43.058100" lon="-4.728467">
        <ele>2082.0</ele>
        <time>2013-09-04T12:52:12Z</time>
      </trkpt>
      <trkpt lat="43.058133" lon="-4.728433">
        <ele>2082.0</ele>
        <time>2013-09-04T12:52:13Z</time>
      </trkpt>
      <trkpt lat="43.058200" lon="-4.728400">
        <ele>2083.0</ele>
        <time>2013-09-04T12:52:14Z</time>
      </trkpt>
      <trkpt lat="43.058250" lon="-4.728400">
        <ele>2084.0</ele>
        <time>2013-09-04T12:52:15Z</time>
      </trkpt>
      <trkpt lat="43.058300" lon="-4.728417">
        <ele>2085.0</ele>
        <time>2013-09-04T12:52:16Z</time>
      </trkpt>
      <trkpt lat="43.058367" lon="-4.728467">
        <ele>2085.0</ele>
        <time>2013-09-04T12:52:17Z</time>
      </trkpt>
      <trkpt lat="43.058433" lon="-4.728533">
        <ele>2085.0</ele>
        <time>2013-09-04T12:52:18Z</time>
      </trkpt>
      <trkpt lat="43.058517" lon="-4.728583">
        <ele>2085.0</ele>
        <time>2013-09-04T12:52:19Z</time>
      </trkpt>
      <trkpt lat="43.058600" lon="-4.728617">
        <ele>2086.0</ele>
        <time>2013-09-04T12:52:20Z</time>
      </trkpt>
      <trkpt lat="43.058700" lon="-4.728633">
        <ele>2086.0</ele>
        <time>2013-09-04T12:52:21Z</time>
      </trkpt>
      <trkpt lat="43.058800" lon="-4.728650">
        <ele>2087.0</ele>
        <time>2013-09-04T12:52:22Z</time>
      </trkpt>
      <trkpt lat="43.058900" lon="-4.728650">
        <ele>2088.0</ele>
        <time>2013-09-04T12:52:23Z</time>
      </trkpt>
      <trkpt lat="43.058983" lon="-4.728667">
        <ele>2089.0</ele>
        <time>2013-09-04T12:52:24Z</time>
      </trkpt>
      <trkpt lat="43.059100" lon="-4.728667">
        <ele>2090.0</ele>
        <time>2013-09-04T12:52:25Z</time>
      </trkpt>
      <trkpt lat="43.059200" lon="-4.728650">
        <ele>2090.0</ele>
        <time>2013-09-04T12:52:26Z</time>
      </trkpt>
      <trkpt lat="43.059300" lon="-4.728617">
        <ele>2091.0</ele>
        <time>2013-09-04T12:52:27Z</time>
      </trkpt>
      <trkpt lat="43.059400" lon="-4.728567">
        <ele>2091.0</ele>
        <time>2013-09-04T12:52:28Z</time>
      </trkpt>
      <trkpt lat="43.059500" lon="-4.728550">
        <ele>2093.0</ele>
        <time>2013-09-04T12:52:29Z</time>
      </trkpt>
      <trkpt lat="43.059583" lon="-4.728517">
        <ele>2095.0</ele>
        <time>2013-09-04T12:52:30Z</time>
      </trkpt>
      <trkpt lat="43.059650" lon="-4.728500">
        <ele>2096.0</ele>
        <time>2013-09-04T12:52:31Z</time>
      </trkpt>
      <trkpt lat="43.059717" lon="-4.728467">
        <ele>2095.0</ele>
        <time>2013-09-04T12:52:32Z</time>
      </trkpt>
      <trkpt lat="43.059783" lon="-4.728400">
        <ele>2093.0</ele>
        <time>2013-09-04T12:52:33Z</time>
      </trkpt>
      <trkpt lat="43.059867" lon="-4.728317">
        <ele>2092.0</ele>
        <time>2013-09-04T12:52:34Z</time>
      </trkpt>
      <trkpt lat="43.059967" lon="-4.728233">
        <ele>2092.0</ele>
        <time>2013-09-04T12:52:35Z</time>
      </trkpt>
      <trkpt lat="43.060067" lon="-4.728167">
        <ele>2096.0</ele>
        <time>2013-09-04T12:52:36Z</time>
      </trkpt>
      <trkpt lat="43.060150" lon="-4.728150">
        <ele>2100.0</ele>
        <time>2013-09-04T12:52:37Z</time>
      </trkpt>
      <trkpt lat="43.060200" lon="-4.728150">
        <ele>2104.0</ele>
        <time>2013-09-04T12:52:38Z</time>
      </trkpt>
      <trkpt lat="43.060250" lon="-4.728133">
        <ele>2106.0</ele>
        <time>2013-09-04T12:52:39Z</time>
      </trkpt>
      <trkpt lat="43.060283" lon="-4.728117">
        <ele>2107.0</ele>
        <time>2013-09-04T12:52:40Z</time>
      </trkpt>
      <trkpt lat="43.060350" lon="-4.728117">
        <ele>2108.0</ele>
        <time>2013-09-04T12:52:41Z</time>
      </trkpt>
      <trkpt lat="43.060417" lon="-4.728117">
        <ele>2108.0</ele>
        <time>2013-09-04T12:52:42Z</time>
      </trkpt>
      <trkpt lat="43.060517" lon="-4.728150">
        <ele>2110.0</ele>
        <time>2013-09-04T12:52:43Z</time>
      </trkpt>
      <trkpt lat="43.060617" lon="-4.728233">
        <ele>2113.0</ele>
        <time>2013-09-04T12:52:44Z</time>
      </trkpt>
      <trkpt lat="43.060683" lon="-4.728383">
        <ele>2116.0</ele>
        <time>2013-09-04T12:52:45Z</time>
      </trkpt>
      <trkpt lat="43.060733" lon="-4.728533">
        <ele>2120.0</ele>
        <time>2013-09-04T12:52:46Z</time>
      </trkpt>
      <trkpt lat="43.060733" lon="-4.728683">
        <ele>2123.0</ele>
        <time>2013-09-04T12:52:47Z</time>
      </trkpt>
      <trkpt lat="43.060717" lon="-4.728833">
        <ele>2126.0</ele>
        <time>2013-09-04T12:52:48Z</time>
      </trkpt>
      <trkpt lat="43.060667" lon="-4.728950">
        <ele>2128.0</ele>
        <time>2013-09-04T12:52:49Z</time>
      </trkpt>
      <trkpt lat="43.060600" lon="-4.729050">
        <ele>2131.0</ele>
        <time>2013-09-04T12:52:50Z</time>
      </trkpt>
      <trkpt lat="43.060517" lon="-4.729133">
        <ele>2133.0</ele>
        <time>2013-09-04T12:52:51Z</time>
      </trkpt>
      <trkpt lat="43.060433" lon="-4.729167">
        <ele>2135.0</ele>
        <time>2013-09-04T12:52:52Z</time>
      </trkpt>
      <trkpt lat="43.060367" lon="-4.729150">
        <ele>2137.0</ele>
        <time>2013-09-04T12:52:53Z</time>
      </trkpt>
      <trkpt lat="43.060300" lon="-4.729117">
        <ele>2138.0</ele>
        <time>2013-09-04T12:52:54Z</time>
      </trkpt>
      <trkpt lat="43.060267" lon="-4.729067">
        <ele>2139.0</ele>
        <time>2013-09-04T12:52:55Z</time>
      </trkpt>
      <trkpt lat="43.060267" lon="-4.729000">
        <ele>2141.0</ele>
        <time>2013-09-04T12:52:56Z</time>
      </trkpt>
      <trkpt lat="43.060300" lon="-4.728933">
        <ele>2142.0</ele>
        <time>2013-09-04T12:52:57Z</time>
      </trkpt>
      <trkpt lat="43.060350" lon="-4.728883">
        <ele>2144.0</ele>
        <time>2013-09-04T12:52:58Z</time>
      </trkpt>
      <trkpt lat="43.060383" lon="-4.728867">
        <ele>2146.0</ele>
        <time>2013-09-04T12:52:59Z</time>
      </trkpt>
      <trkpt lat="43.060433" lon="-4.728850">
        <ele>2148.0</ele>
        <time>2013-09-04T12:53:00Z</time>
      </trkpt>
      <trkpt lat="43.060483" lon="-4.728817">
        <ele>2150.0</ele>
        <time>2013-09-04T12:53:01Z</time>
      </trkpt>
      <trkpt lat="43.060533" lon="-4.728800">
        <ele>2153.0</ele>
        <time>2013-09-04T12:53:02Z</time>
      </trkpt>
      <trkpt lat="43.060600" lon="-4.728783">
        <ele>2157.0</ele>
        <time>2013-09-04T12:53:03Z</time>
      </trkpt>
      <trkpt lat="43.060667" lon="-4.728783">
        <ele>2161.0</ele>
        <time>2013-09-04T12:53:04Z</time>
      </trkpt>
      <trkpt lat="43.060733" lon="-4.728800">
        <ele>2164.0</ele>
        <time>2013-09-04T12:53:05Z</time>
      </trkpt>
      <trkpt lat="43.060800" lon="-4.728817">
        <ele>2168.0</ele>
        <time>2013-09-04T12:53:06Z</time>
      </trkpt>
      <trkpt lat="43.060850" lon="-4.728833">
        <ele>2172.0</ele>
        <time>2013-09-04T12:53:07Z</time>
      </trkpt>
      <trkpt lat="43.060900" lon="-4.728850">
        <ele>2175.0</ele>
        <time>2013-09-04T12:53:08Z</time>
      </trkpt>
      <trkpt lat="43.060950" lon="-4.728883">
        <ele>2178.0</ele>
        <time>2013-09-04T12:53:09Z</time>
      </trkpt>
      <trkpt lat="43.061000" lon="-4.728950">
        <ele>2181.0</ele>
        <time>2013-09-04T12:53:10Z</time>
      </trkpt>
      <trkpt lat="43.061067" lon="-4.729017">
        <ele>2183.0</ele>
        <time>2013-09-04T12:53:11Z</time>
      </trkpt>
      <trkpt lat="43.061133" lon="-4.729083">
        <ele>2183.0</ele>
        <time>2013-09-04T12:53:12Z</time>
      </trkpt>
      <trkpt lat="43.061183" lon="-4.729183">
        <ele>2185.0</ele>
        <time>2013-09-04T12:53:13Z</time>
      </trkpt>
      <trkpt lat="43.061217" lon="-4.729300">
        <ele>2186.0</ele>
        <time>2013-09-04T12:53:14Z</time>
      </trkpt>
      <trkpt lat="43.061217" lon="-4.729450">
        <ele>2187.0</ele>
        <time>2013-09-04T12:53:15Z</time>
      </trkpt>
      <trkpt lat="43.061183" lon="-4.729617">
        <ele>2187.0</ele>
        <time>2013-09-04T12:53:16Z</time>
      </trkpt>
      <trkpt lat="43.061117" lon="-4.729733">
        <ele>2189.0</ele>
        <time>2013-09-04T12:53:17Z</time>
      </trkpt>
      <trkpt lat="43.061017" lon="-4.729817">
        <ele>2190.0</ele>
        <time>2013-09-04T12:53:18Z</time>
      </trkpt>
      <trkpt lat="43.060917" lon="-4.729833">
        <ele>2191.0</ele>
        <time>2013-09-04T12:53:19Z</time>
      </trkpt>
      <trkpt lat="43.060833" lon="-4.729833">
        <ele>2192.0</ele>
        <time>2013-09-04T12:53:20Z</time>
      </trkpt>
      <trkpt lat="43.060767" lon="-4.729850">
        <ele>2195.0</ele>
        <time>2013-09-04T12:53:21Z</time>
      </trkpt>
      <trkpt lat="43.060683" lon="-4.729867">
        <ele>2197.0</ele>
        <time>2013-09-04T12:53:22Z</time>
      </trkpt>
      <trkpt lat="43.060617" lon="-4.729900">
        <ele>2199.0</ele>
        <time>2013-09-04T12:53:23Z</time>
      </trkpt>
      <trkpt lat="43.060550" lon="-4.729933">
        <ele>2202.0</ele>
        <time>2013-09-04T12:53:24Z</time>
      </trkpt>
      <trkpt lat="43.060483" lon="-4.729917">
        <ele>2204.0</ele>
        <time>2013-09-04T12:53:25Z</time>
      </trkpt>
      <trkpt lat="43.060450" lon="-4.729900">
        <ele>2207.0</ele>
        <time>2013-09-04T12:53:26Z</time>
      </trkpt>
      <trkpt lat="43.060417" lon="-4.729867">
        <ele>2210.0</ele>
        <time>2013-09-04T12:53:27Z</time>
      </trkpt>
      <trkpt lat="43.060417" lon="-4.729800">
        <ele>2213.0</ele>
        <time>2013-09-04T12:53:28Z</time>
      </trkpt>
      <trkpt lat="43.060433" lon="-4.729750">
        <ele>2215.0</ele>
        <time>2013-09-04T12:53:29Z</time>
      </trkpt>
      <trkpt lat="43.060467" lon="-4.729700">
        <ele>2218.0</ele>
        <time>2013-09-04T12:53:30Z</time>
      </trkpt>
      <trkpt lat="43.060533" lon="-4.729700">
        <ele>2220.0</ele>
        <time>2013-09-04T12:53:31Z</time>
      </trkpt>
      <trkpt lat="43.060583" lon="-4.729733">
        <ele>2222.0</ele>
        <time>2013-09-04T12:53:32Z</time>
      </trkpt>
      <trkpt lat="43.060650" lon="-4.729783">
        <ele>2224.0</ele>
        <time>2013-09-04T12:53:33Z</time>
      </trkpt>
      <trkpt lat="43.060717" lon="-4.729867">
        <ele>2225.0</ele>
        <time>2013-09-04T12:53:34Z</time>
      </trkpt>
      <trkpt lat="43.060783" lon="-4.729967">
        <ele>2227.0</ele>
        <time>2013-09-04T12:53:35Z</time>
      </trkpt>
      <trkpt lat="43.060817" lon="-4.730100">
        <ele>2229.0</ele>
        <time>2013-09-04T12:53:36Z</time>
      </trkpt>
      <trkpt lat="43.060817" lon="-4.730250">
        <ele>2230.0</ele>
        <time>2013-09-04T12:53:37Z</time>
      </trkpt>
      <trkpt lat="43.060800" lon="-4.730417">
        <ele>2231.0</ele>
        <time>2013-09-04T12:53:38Z</time>
      </trkpt>
      <trkpt lat="43.060750" lon="-4.730567">
        <ele>2231.0</ele>
        <time>2013-09-04T12:53:39Z</time>
      </trkpt>
      <trkpt lat="43.060667" lon="-4.730650">
        <ele>2230.0</ele>
        <time>2013-09-04T12:53:40Z</time>
      </trkpt>
      <trkpt lat="43.060567" lon="-4.730717">
        <ele>2231.0</ele>
        <time>2013-09-04T12:53:41Z</time>
      </trkpt>
      <trkpt lat="43.060467" lon="-4.730733">
        <ele>2233.0</ele>
        <time>2013-09-04T12:53:42Z</time>
      </trkpt>
      <trkpt lat="43.060400" lon="-4.730750">
        <ele>2235.0</ele>
        <time>2013-09-04T12:53:43Z</time>
      </trkpt>
      <trkpt lat="43.060333" lon="-4.730767">
        <ele>2238.0</ele>
        <time>2013-09-04T12:53:44Z</time>
      </trkpt>
      <trkpt lat="43.060267" lon="-4.730783">
        <ele>2241.0</ele>
        <time>2013-09-04T12:53:45Z</time>
      </trkpt>
      <trkpt lat="43.060200" lon="-4.730800">
        <ele>2243.0</ele>
        <time>2013-09-04T12:53:46Z</time>
      </trkpt>
      <trkpt lat="43.060133" lon="-4.730800">
        <ele>2245.0</ele>
        <time>2013-09-04T12:53:47Z</time>
      </trkpt>
      <trkpt lat="43.060083" lon="-4.730800">
        <ele>2248.0</ele>
        <time>2013-09-04T12:53:48Z</time>
      </trkpt>
      <trkpt lat="43.060033" lon="-4.730783">
        <ele>2249.0</ele>
        <time>2013-09-04T12:53:49Z</time>
      </trkpt>
      <trkpt lat="43.059983" lon="-4.730750">
        <ele>2251.0</ele>
        <time>2013-09-04T12:53:50Z</time>
      </trkpt>
      <trkpt lat="43.059967" lon="-4.730717">
        <ele>2251.0</ele>
        <time>2013-09-04T12:53:51Z</time>
      </trkpt>
      <trkpt lat="43.059933" lon="-4.730667">
        <ele>2251.0</ele>
        <time>2013-09-04T12:53:52Z</time>
      </trkpt>
      <trkpt lat="43.059917" lon="-4.730617">
        <ele>2251.0</ele>
        <time>2013-09-04T12:53:53Z</time>
      </trkpt>
      <trkpt lat="43.059900" lon="-4.730567">
        <ele>2251.0</ele>
        <time>2013-09-04T12:53:54Z</time>
      </trkpt>
      <trkpt lat="43.059900" lon="-4.730517">
        <ele>2252.0</ele>
        <time>2013-09-04T12:53:55Z</time>
      </trkpt>
      <trkpt lat="43.059917" lon="-4.730467">
        <ele>2252.0</ele>
        <time>2013-09-04T12:53:56Z</time>
      </trkpt>
      <trkpt lat="43.059933" lon="-4.730417">
        <ele>2252.0</ele>
        <time>2013-09-04T12:53:57Z</time>
      </trkpt>
      <trkpt lat="43.059950" lon="-4.730350">
        <ele>2253.0</ele>
        <time>2013-09-04T12:53:58Z</time>
      </trkpt>
      <trkpt lat="43.059967" lon="-4.730283">
        <ele>2254.0</ele>
        <time>2013-09-04T12:53:59Z</time>
      </trkpt>
      <trkpt lat="43.059967" lon="-4.730233">
        <ele>2257.0</ele>
        <time>2013-09-04T12:54:00Z</time>
      </trkpt>
      <trkpt lat="43.059983" lon="-4.730183">
        <ele>2259.0</ele>
        <time>2013-09-04T12:54:01Z</time>
      </trkpt>
      <trkpt lat="43.059983" lon="-4.730167">
        <ele>2260.0</ele>
        <time>2013-09-04T12:54:02Z</time>
      </trkpt>
      <trkpt lat="43.060000" lon="-4.730150">
        <ele>2260.0</ele>
        <time>2013-09-04T12:54:03Z</time>
      </trkpt>
      <trkpt lat="43.060033" lon="-4.730100">
        <ele>2261.0</ele>
        <time>2013-09-04T12:54:04Z</time>
      </trkpt>
      <trkpt lat="43.060050" lon="-4.730067">
        <ele>2260.0</ele>
        <time>2013-09-04T12:54:05Z</time>
      </trkpt>
      <trkpt lat="43.060050" lon="-4.730033">
        <ele>2260.0</ele>
        <time>2013-09-04T12:54:06Z</time>
      </trkpt>
      <trkpt lat="43.060033" lon="-4.730017">
        <ele>2259.0</ele>
        <time>2013-09-04T12:54:07Z</time>
      </trkpt>
      <trkpt lat="43.060017" lon="-4.729983">
        <ele>2257.0</ele>
        <time>2013-09-04T12:54:08Z</time>
      </trkpt>
      <trkpt lat="43.060017" lon="-4.729933">
        <ele>2255.0</ele>
        <time>2013-09-04T12:54:09Z</time>
      </trkpt>
      <trkpt lat="43.060033" lon="-4.729883">
        <ele>2252.0</ele>
        <time>2013-09-04T12:54:10Z</time>
      </trkpt>
      <trkpt lat="43.060050" lon="-4.729800">
        <ele>2250.0</ele>
        <time>2013-09-04T12:54:11Z</time>
      </trkpt>
      <trkpt lat="43.060100" lon="-4.729717">
        <ele>2249.0</ele>
        <time>2013-09-04T12:54:12Z</time>
      </trkpt>
      <trkpt lat="43.060133" lon="-4.729617">
        <ele>2250.0</ele>
        <time>2013-09-04T12:54:13Z</time>
      </trkpt>
      <trkpt lat="43.060133" lon="-4.729517">
        <ele>2251.0</ele>
        <time>2013-09-04T12:54:14Z</time>
      </trkpt>
      <trkpt lat="43.060133" lon="-4.729450">
        <ele>2253.0</ele>
        <time>2013-09-04T12:54:15Z</time>
      </trkpt>
      <trkpt lat="43.060117" lon="-4.729383">
        <ele>2254.0</ele>
        <time>2013-09-04T12:54:16Z</time>
      </trkpt>
      <trkpt lat="43.060117" lon="-4.729317">
        <ele>2255.0</ele>
        <time>2013-09-04T12:54:17Z</time>
      </trkpt>
      <trkpt lat="43.060133" lon="-4.729250">
        <ele>2256.0</ele>
        <time>2013-09-04T12:54:18Z</time>
      </trkpt>
      <trkpt lat="43.060167" lon="-4.729183">
        <ele>2256.0</ele>
        <time>2013-09-04T12:54:19Z</time>
      </trkpt>
      <trkpt lat="43.060200" lon="-4.729100">
        <ele>2257.0</ele>
        <time>2013-09-04T12:54:20Z</time>
      </trkpt>
      <trkpt lat="43.060233" lon="-4.729033">
        <ele>2260.0</ele>
        <time>2013-09-04T12:54:21Z</time>
      </trkpt>
      <trkpt lat="43.060267" lon="-4.728967">
        <ele>2264.0</ele>
        <time>2013-09-04T12:54:22Z</time>
      </trkpt>
      <trkpt lat="43.060283" lon="-4.728933">
        <ele>2269.0</ele>
        <time>2013-09-04T12:54:23Z</time>
      </trkpt>
      <trkpt lat="43.060283" lon="-4.728933">
        <ele>2271.0</ele>
        <time>2013-09-04T12:54:24Z</time>
      </trkpt>
      <trkpt lat="43.060300" lon="-4.728917">
        <ele>2272.0</ele>
        <time>2013-09-04T12:54:25Z</time>
      </trkpt>
      <trkpt lat="43.060333" lon="-4.728900">
        <ele>2272.0</ele>
        <time>2013-09-04T12:54:26Z</time>
      </trkpt>
      <trkpt lat="43.060383" lon="-4.728867">
        <ele>2270.0</ele>
        <time>2013-09-04T12:54:27Z</time>
      </trkpt>
      <trkpt lat="43.060467" lon="-4.728850">
        <ele>2268.0</ele>
        <time>2013-09-04T12:54:28Z</time>
      </trkpt>
      <trkpt lat="43.060533" lon="-4.728883">
        <ele>2269.0</ele>
        <time>2013-09-04T12:54:29Z</time>
      </trkpt>
      <trkpt lat="43.060583" lon="-4.728983">
        <ele>2268.0</ele>
        <time>2013-09-04T12:54:30Z</time>
      </trkpt>
      <trkpt lat="43.060617" lon="-4.729100">
        <ele>2267.0</ele>
        <time>2013-09-04T12:54:31Z</time>
      </trkpt>
      <trkpt lat="43.060650" lon="-4.729250">
        <ele>2267.0</ele>
        <time>2013-09-04T12:54:32Z</time>
      </trkpt>
      <trkpt lat="43.060650" lon="-4.729400">
        <ele>2266.0</ele>
        <time>2013-09-04T12:54:33Z</time>
      </trkpt>
      <trkpt lat="43.060667" lon="-4.729567">
        <ele>2266.0</ele>
        <time>2013-09-04T12:54:34Z</time>
      </trkpt>
      <trkpt lat="43.060683" lon="-4.729717">
        <ele>2266.0</ele>
        <time>2013-09-04T12:54:35Z</time>
      </trkpt>
      <trkpt lat="43.060717" lon="-4.729883">
        <ele>2266.0</ele>
        <time>2013-09-04T12:54:36Z</time>
      </trkpt>
      <trkpt lat="43.060767" lon="-4.730050">
        <ele>2269.0</ele>
        <time>2013-09-04T12:54:37Z</time>
      </trkpt>
      <trkpt lat="43.060817" lon="-4.730200">
        <ele>2272.0</ele>
        <time>2013-09-04T12:54:38Z</time>
      </trkpt>
      <trkpt lat="43.060850" lon="-4.730333">
        <ele>2274.0</ele>
        <time>2013-09-04T12:54:39Z</time>
      </trkpt>
      <trkpt lat="43.060867" lon="-4.730450">
        <ele>2277.0</ele>
        <time>2013-09-04T12:54:40Z</time>
      </trkpt>
      <trkpt lat="43.060867" lon="-4.730567">
        <ele>2279.0</ele>
        <time>2013-09-04T12:54:41Z</time>
      </trkpt>
      <trkpt lat="43.060850" lon="-4.730700">
        <ele>2281.0</ele>
        <time>2013-09-04T12:54:42Z</time>
      </trkpt>
      <trkpt lat="43.060817" lon="-4.730833">
        <ele>2282.0</ele>
        <time>2013-09-04T12:54:43Z</time>
      </trkpt>
      <trkpt lat="43.060750" lon="-4.730967">
        <ele>2283.0</ele>
        <time>2013-09-04T12:54:44Z</time>
      </trkpt>
      <trkpt lat="43.060667" lon="-4.731050">
        <ele>2285.0</ele>
        <time>2013-09-04T12:54:45Z</time>
      </trkpt>
      <trkpt lat="43.060583" lon="-4.731083">
        <ele>2286.0</ele>
        <time>2013-09-04T12:54:46Z</time>
      </trkpt>
      <trkpt lat="43.060517" lon="-4.731067">
        <ele>2287.0</ele>
        <time>2013-09-04T12:54:47Z</time>
      </trkpt>
      <trkpt lat="43.060450" lon="-4.731017">
        <ele>2289.0</ele>
        <time>2013-09-04T12:54:48Z</time>
      </trkpt>
      <trkpt lat="43.060400" lon="-4.730983">
        <ele>2291.0</ele>
        <time>2013-09-04T12:54:49Z</time>
      </trkpt>
      <trkpt lat="43.060350" lon="-4.730950">
        <ele>2294.0</ele>
        <time>2013-09-04T12:54:50Z</time>
      </trkpt>
      <trkpt lat="43.060317" lon="-4.730917">
        <ele>2296.0</ele>
        <time>2013-09-04T12:54:51Z</time>
      </trkpt>
      <trkpt lat="43.060300" lon="-4.730883">
        <ele>2298.0</ele>
        <time>2013-09-04T12:54:52Z</time>
      </trkpt>
      <trkpt lat="43.060283" lon="-4.730833">
        <ele>2297.0</ele>
        <time>2013-09-04T12:54:53Z</time>
      </trkpt>
      <trkpt lat="43.060267" lon="-4.730783">
        <ele>2297.0</ele>
        <time>2013-09-04T12:54:54Z</time>
      </trkpt>
      <trkpt lat="43.060283" lon="-4.730700">
        <ele>2296.0</ele>
        <time>2013-09-04T12:54:55Z</time>
      </trkpt>
      <trkpt lat="43.060300" lon="-4.730617">
        <ele>2296.0</ele>
        <time>2013-09-04T12:54:56Z</time>
      </trkpt>
      <trkpt lat="43.060333" lon="-4.730533">
        <ele>2297.0</ele>
        <time>2013-09-04T12:54:57Z</time>
      </trkpt>
      <trkpt lat="43.060383" lon="-4.730467">
        <ele>2297.0</ele>
        <time>2013-09-04T12:54:58Z</time>
      </trkpt>
      <trkpt lat="43.060450" lon="-4.730400">
        <ele>2300.0</ele>
        <time>2013-09-04T12:54:59Z</time>
      </trkpt>
      <trkpt lat="43.060517" lon="-4.730367">
        <ele>2302.0</ele>
        <time>2013-09-04T12:55:00Z</time>
      </trkpt>
      <trkpt lat="43.060583" lon="-4.730350">
        <ele>2305.0</ele>
        <time>2013-09-04T12:55:01Z</time>
      </trkpt>
      <trkpt lat="43.060650" lon="-4.730350">
        <ele>2306.0</ele>
        <time>2013-09-04T12:55:02Z</time>
      </trkpt>
      <trkpt lat="43.060717" lon="-4.730350">
        <ele>2307.0</ele>
        <time>2013-09-04T12:55:03Z</time>
      </trkpt>
      <trkpt lat="43.060800" lon="-4.730367">
        <ele>2307.0</ele>
        <time>2013-09-04T12:55:04Z</time>
      </trkpt>
      <trkpt lat="43.060867" lon="-4.730367">
        <ele>2309.0</ele>
        <time>2013-09-04T12:55:05Z</time>
      </trkpt>
      <trkpt lat="43.060933" lon="-4.730417">
        <ele>2311.0</ele>
        <time>2013-09-04T12:55:06Z</time>
      </trkpt>
      <trkpt lat="43.060983" lon="-4.730500">
        <ele>2312.0</ele>
        <time>2013-09-04T12:55:07Z</time>
      </trkpt>
      <trkpt lat="43.061033" lon="-4.730617">
        <ele>2313.0</ele>
        <time>2013-09-04T12:55:08Z</time>
      </trkpt>
      <trkpt lat="43.061083" lon="-4.730767">
        <ele>2314.0</ele>
        <time>2013-09-04T12:55:09Z</time>
      </trkpt>
      <trkpt lat="43.061100" lon="-4.730900">
        <ele>2316.0</ele>
        <time>2013-09-04T12:55:10Z</time>
      </trkpt>
      <trkpt lat="43.061100" lon="-4.731033">
        <ele>2317.0</ele>
        <time>2013-09-04T12:55:11Z</time>
      </trkpt>
      <trkpt lat="43.061083" lon="-4.731167">
        <ele>2318.0</ele>
        <time>2013-09-04T12:55:12Z</time>
      </trkpt>
      <trkpt lat="43.061083" lon="-4.731317">
        <ele>2318.0</ele>
        <time>2013-09-04T12:55:13Z</time>
      </trkpt>
      <trkpt lat="43.061067" lon="-4.731467">
        <ele>2319.0</ele>
        <time>2013-09-04T12:55:14Z</time>
      </trkpt>
      <trkpt lat="43.061033" lon="-4.731600">
        <ele>2321.0</ele>
        <time>2013-09-04T12:55:15Z</time>
      </trkpt>
      <trkpt lat="43.060983" lon="-4.731733">
        <ele>2322.0</ele>
        <time>2013-09-04T12:55:16Z</time>
      </trkpt>
      <trkpt lat="43.060933" lon="-4.731850">
        <ele>2324.0</ele>
        <time>2013-09-04T12:55:17Z</time>
      </trkpt>
      <trkpt lat="43.060883" lon="-4.731950">
        <ele>2326.0</ele>
        <time>2013-09-04T12:55:18Z</time>
      </trkpt>
      <trkpt lat="43.060850" lon="-4.732050">
        <ele>2328.0</ele>
        <time>2013-09-04T12:55:19Z</time>
      </trkpt>
      <trkpt lat="43.060800" lon="-4.732133">
        <ele>2329.0</ele>
        <time>2013-09-04T12:55:20Z</time>
      </trkpt>
      <trkpt lat="43.060733" lon="-4.732217">
        <ele>2329.0</ele>
        <time>2013-09-04T12:55:21Z</time>
      </trkpt>
      <trkpt lat="43.060667" lon="-4.732267">
        <ele>2330.0</ele>
        <time>2013-09-04T12:55:22Z</time>
      </trkpt>
      <trkpt lat="43.060600" lon="-4.732300">
        <ele>2331.0</ele>
        <time>2013-09-04T12:55:23Z</time>
      </trkpt>
      <trkpt lat="43.060533" lon="-4.732333">
        <ele>2332.0</ele>
        <time>2013-09-04T12:55:24Z</time>
      </trkpt>
      <trkpt lat="43.060483" lon="-4.732350">
        <ele>2333.0</ele>
        <time>2013-09-04T12:55:25Z</time>
      </trkpt>
      <trkpt lat="43.060433" lon="-4.732383">
        <ele>2333.0</ele>
        <time>2013-09-04T12:55:26Z</time>
      </trkpt>
      <trkpt lat="43.060400" lon="-4.732383">
        <ele>2333.0</ele>
        <time>2013-09-04T12:55:27Z</time>
      </trkpt>
      <trkpt lat="43.060350" lon="-4.732383">
        <ele>2331.0</ele>
        <time>2013-09-04T12:55:28Z</time>
      </trkpt>
      <trkpt lat="43.060300" lon="-4.732367">
        <ele>2330.0</ele>
        <time>2013-09-04T12:55:29Z</time>
      </trkpt>
      <trkpt lat="43.060250" lon="-4.732333">
        <ele>2330.0</ele>
        <time>2013-09-04T12:55:30Z</time>
      </trkpt>
      <trkpt lat="43.060217" lon="-4.732283">
        <ele>2330.0</ele>
        <time>2013-09-04T12:55:31Z</time>
      </trkpt>
      <trkpt lat="43.060167" lon="-4.732233">
        <ele>2331.0</ele>
        <time>2013-09-04T12:55:32Z</time>
      </trkpt>
      <trkpt lat="43.060133" lon="-4.732200">
        <ele>2332.0</ele>
        <time>2013-09-04T12:55:33Z</time>
      </trkpt>
      <trkpt lat="43.060100" lon="-4.732167">
        <ele>2332.0</ele>
        <time>2013-09-04T12:55:34Z</time>
      </trkpt>
      <trkpt lat="43.060100" lon="-4.732117">
        <ele>2333.0</ele>
        <time>2013-09-04T12:55:35Z</time>
      </trkpt>
      <trkpt lat="43.060083" lon="-4.732067">
        <ele>2332.0</ele>
        <time>2013-09-04T12:55:36Z</time>
      </trkpt>
      <trkpt lat="43.060100" lon="-4.732000">
        <ele>2332.0</ele>
        <time>2013-09-04T12:55:37Z</time>
      </trkpt>
      <trkpt lat="43.060117" lon="-4.731933">
        <ele>2332.0</ele>
        <time>2013-09-04T12:55:38Z</time>
      </trkpt>
      <trkpt lat="43.060150" lon="-4.731867">
        <ele>2332.0</ele>
        <time>2013-09-04T12:55:39Z</time>
      </trkpt>
      <trkpt lat="43.060183" lon="-4.731800">
        <ele>2334.0</ele>
        <time>2013-09-04T12:55:40Z</time>
      </trkpt>
      <trkpt lat="43.060233" lon="-4.731750">
        <ele>2335.0</ele>
        <time>2013-09-04T12:55:41Z</time>
      </trkpt>
      <trkpt lat="43.060267" lon="-4.731700">
        <ele>2337.0</ele>
        <time>2013-09-04T12:55:42Z</time>
      </trkpt>
      <trkpt lat="43.060300" lon="-4.731650">
        <ele>2337.0</ele>
        <time>2013-09-04T12:55:43Z</time>
      </trkpt>
      <trkpt lat="43.060317" lon="-4.731583">
        <ele>2338.0</ele>
        <time>2013-09-04T12:55:44Z</time>
      </trkpt>
      <trkpt lat="43.060350" lon="-4.731533">
        <ele>2339.0</ele>
        <time>2013-09-04T12:55:45Z</time>
      </trkpt>
      <trkpt lat="43.060400" lon="-4.731483">
        <ele>2340.0</ele>
        <time>2013-09-04T12:55:46Z</time>
      </trkpt>
      <trkpt lat="43.060450" lon="-4.731433">
        <ele>2341.0</ele>
        <time>2013-09-04T12:55:47Z</time>
      </trkpt>
      <trkpt lat="43.060500" lon="-4.731400">
        <ele>2342.0</ele>
        <time>2013-09-04T12:55:48Z</time>
      </trkpt>
      <trkpt lat="43.060533" lon="-4.731367">
        <ele>2343.0</ele>
        <time>2013-09-04T12:55:49Z</time>
      </trkpt>
      <trkpt lat="43.060567" lon="-4.731333">
        <ele>2344.0</ele>
        <time>2013-09-04T12:55:50Z</time>
      </trkpt>
      <trkpt lat="43.060617" lon="-4.731300">
        <ele>2343.0</ele>
        <time>2013-09-04T12:55:51Z</time>
      </trkpt>
      <trkpt lat="43.060667" lon="-4.731267">
        <ele>2343.0</ele>
        <time>2013-09-04T12:55:52Z</time>
      </trkpt>
      <trkpt lat="43.060733" lon="-4.731233">
        <ele>2343.0</ele>
        <time>2013-09-04T12:55:53Z</time>
      </trkpt>
      <trkpt lat="43.060800" lon="-4.731217">
        <ele>2343.0</ele>
        <time>2013-09-04T12:55:54Z</time>
      </trkpt>
      <trkpt lat="43.060867" lon="-4.731217">
        <ele>2344.0</ele>
        <time>2013-09-04T12:55:55Z</time>
      </trkpt>
      <trkpt lat="43.060950" lon="-4.731233">
        <ele>2344.0</ele>
        <time>2013-09-04T12:55:56Z</time>
      </trkpt>
      <trkpt lat="43.061017" lon="-4.731267">
        <ele>2345.0</ele>
        <time>2013-09-04T12:55:57Z</time>
      </trkpt>
      <trkpt lat="43.061100" lon="-4.731317">
        <ele>2345.0</ele>
        <time>2013-09-04T12:55:58Z</time>
      </trkpt>
      <trkpt lat="43.061167" lon="-4.731367">
        <ele>2346.0</ele>
        <time>2013-09-04T12:55:59Z</time>
      </trkpt>
      <trkpt lat="43.061217" lon="-4.731433">
        <ele>2346.0</ele>
        <time>2013-09-04T12:56:00Z</time>
      </trkpt>
      <trkpt lat="43.061267" lon="-4.731483">
        <ele>2347.0</ele>
        <time>2013-09-04T12:56:01Z</time>
      </trkpt>
      <trkpt lat="43.061317" lon="-4.731533">
        <ele>2347.0</ele>
        <time>2013-09-04T12:56:02Z</time>
      </trkpt>
      <trkpt lat="43.061350" lon="-4.731600">
        <ele>2346.0</ele>
        <time>2013-09-04T12:56:03Z</time>
      </trkpt>
      <trkpt lat="43.061417" lon="-4.731667">
        <ele>2343.0</ele>
        <time>2013-09-04T12:56:04Z</time>
      </trkpt>
      <trkpt lat="43.061483" lon="-4.731733">
        <ele>2342.0</ele>
        <time>2013-09-04T12:56:05Z</time>
      </trkpt>
      <trkpt lat="43.061533" lon="-4.731817">
        <ele>2341.0</ele>
        <time>2013-09-04T12:56:06Z</time>
      </trkpt>
      <trkpt lat="43.061567" lon="-4.731933">
        <ele>2339.0</ele>
        <time>2013-09-04T12:56:07Z</time>
      </trkpt>
      <trkpt lat="43.061583" lon="-4.732067">
        <ele>2338.0</ele>
        <time>2013-09-04T12:56:08Z</time>
      </trkpt>
      <trkpt lat="43.061567" lon="-4.732233">
        <ele>2335.0</ele>
        <time>2013-09-04T12:56:09Z</time>
      </trkpt>
      <trkpt lat="43.061517" lon="-4.732400">
        <ele>2333.0</ele>
        <time>2013-09-04T12:56:10Z</time>
      </trkpt>
      <trkpt lat="43.061417" lon="-4.732517">
        <ele>2332.0</ele>
        <time>2013-09-04T12:56:11Z</time>
      </trkpt>
      <trkpt lat="43.061317" lon="-4.732583">
        <ele>2333.0</ele>
        <time>2013-09-04T12:56:12Z</time>
      </trkpt>
      <trkpt lat="43.061217" lon="-4.732600">
        <ele>2333.0</ele>
        <time>2013-09-04T12:56:13Z</time>
      </trkpt>
      <trkpt lat="43.061150" lon="-4.732600">
        <ele>2333.0</ele>
        <time>2013-09-04T12:56:14Z</time>
      </trkpt>
      <trkpt lat="43.061083" lon="-4.732583">
        <ele>2333.0</ele>
        <time>2013-09-04T12:56:15Z</time>
      </trkpt>
      <trkpt lat="43.061017" lon="-4.732583">
        <ele>2333.0</ele>
        <time>2013-09-04T12:56:16Z</time>
      </trkpt>
      <trkpt lat="43.060950" lon="-4.732583">
        <ele>2333.0</ele>
        <time>2013-09-04T12:56:17Z</time>
      </trkpt>
      <trkpt lat="43.060900" lon="-4.732583">
        <ele>2332.0</ele>
        <time>2013-09-04T12:56:18Z</time>
      </trkpt>
      <trkpt lat="43.060833" lon="-4.732583">
        <ele>2331.0</ele>
        <time>2013-09-04T12:56:19Z</time>
      </trkpt>
      <trkpt lat="43.060783" lon="-4.732550">
        <ele>2331.0</ele>
        <time>2013-09-04T12:56:20Z</time>
      </trkpt>
      <trkpt lat="43.060750" lon="-4.732500">
        <ele>2330.0</ele>
        <time>2013-09-04T12:56:21Z</time>
      </trkpt>
      <trkpt lat="43.060700" lon="-4.732450">
        <ele>2329.0</ele>
        <time>2013-09-04T12:56:22Z</time>
      </trkpt>
      <trkpt lat="43.060667" lon="-4.732383">
        <ele>2328.0</ele>
        <time>2013-09-04T12:56:23Z</time>
      </trkpt>
      <trkpt lat="43.060600" lon="-4.732317">
        <ele>2329.0</ele>
        <time>2013-09-04T12:56:24Z</time>
      </trkpt>
      <trkpt lat="43.060550" lon="-4.732267">
        <ele>2329.0</ele>
        <time>2013-09-04T12:56:25Z</time>
      </trkpt>
      <trkpt lat="43.060500" lon="-4.732200">
        <ele>2330.0</ele>
        <time>2013-09-04T12:56:26Z</time>
      </trkpt>
      <trkpt lat="43.060450" lon="-4.732167">
        <ele>2331.0</ele>
        <time>2013-09-04T12:56:27Z</time>
      </trkpt>
      <trkpt lat="43.060400" lon="-4.732117">
        <ele>2333.0</ele>
        <time>2013-09-04T12:56:28Z</time>
      </trkpt>
      <trkpt lat="43.060367" lon="-4.732067">
        <ele>2334.0</ele>
        <time>2013-09-04T12:56:29Z</time>
      </trkpt>
      <trkpt lat="43.060333" lon="-4.732017">
        <ele>2335.0</ele>
        <time>2013-09-04T12:56:30Z</time>
      </trkpt>
      <trkpt lat="43.060283" lon="-4.731983">
        <ele>2337.0</ele>
        <time>2013-09-04T12:56:31Z</time>
      </trkpt>
      <trkpt lat="43.060250" lon="-4.731950">
        <ele>2339.0</ele>
        <time>2013-09-04T12:56:32Z</time>
      </trkpt>
      <trkpt lat="43.060217" lon="-4.731933">
        <ele>2340.0</ele>
        <time>2013-09-04T12:56:33Z</time>
      </trkpt>
      <trkpt lat="43.060183" lon="-4.731900">
        <ele>2341.0</ele>
        <time>2013-09-04T12:56:34Z</time>
      </trkpt>
      <trkpt lat="43.060133" lon="-4.731850">
        <ele>2341.0</ele>
        <time>2013-09-04T12:56:35Z</time>
      </trkpt>
      <trkpt lat="43.060100" lon="-4.731800">
        <ele>2342.0</ele>
        <time>2013-09-04T12:56:36Z</time>
      </trkpt>
      <trkpt lat="43.060067" lon="-4.731750">
        <ele>2345.0</ele>
        <time>2013-09-04T12:56:37Z</time>
      </trkpt>
      <trkpt lat="43.060050" lon="-4.731700">
        <ele>2347.0</ele>
        <time>2013-09-04T12:56:38Z</time>
      </trkpt>
      <trkpt lat="43.060033" lon="-4.731667">
        <ele>2349.0</ele>
        <time>2013-09-04T12:56:39Z</time>
      </trkpt>
      <trkpt lat="43.060033" lon="-4.731600">
        <ele>2351.0</ele>
        <time>2013-09-04T12:56:40Z</time>
      </trkpt>
      <trkpt lat="43.060033" lon="-4.731533">
        <ele>2352.0</ele>
        <time>2013-09-04T12:56:41Z</time>
      </trkpt>
      <trkpt lat="43.060033" lon="-4.731467">
        <ele>2354.0</ele>
        <time>2013-09-04T12:56:42Z</time>
      </trkpt>
      <trkpt lat="43.060033" lon="-4.731383">
        <ele>2357.0</ele>
        <time>2013-09-04T12:56:43Z</time>
      </trkpt>
      <trkpt lat="43.060067" lon="-4.731317">
        <ele>2361.0</ele>
        <time>2013-09-04T12:56:44Z</time>
      </trkpt>
      <trkpt lat="43.060100" lon="-4.731267">
        <ele>2365.0</ele>
        <time>2013-09-04T12:56:45Z</time>
      </trkpt>
      <trkpt lat="43.060150" lon="-4.731217">
        <ele>2368.0</ele>
        <time>2013-09-04T12:56:46Z</time>
      </trkpt>
      <trkpt lat="43.060200" lon="-4.731183">
        <ele>2371.0</ele>
        <time>2013-09-04T12:56:47Z</time>
      </trkpt>
      <trkpt lat="43.060250" lon="-4.731167">
        <ele>2373.0</ele>
        <time>2013-09-04T12:56:48Z</time>
      </trkpt>
      <trkpt lat="43.060317" lon="-4.731167">
        <ele>2376.0</ele>
        <time>2013-09-04T12:56:49Z</time>
      </trkpt>
      <trkpt lat="43.060400" lon="-4.731183">
        <ele>2379.0</ele>
        <time>2013-09-04T12:56:50Z</time>
      </trkpt>
      <trkpt lat="43.060467" lon="-4.731250">
        <ele>2382.0</ele>
        <time>2013-09-04T12:56:51Z</time>
      </trkpt>
      <trkpt lat="43.060517" lon="-4.731367">
        <ele>2385.0</ele>
        <time>2013-09-04T12:56:52Z</time>
      </trkpt>
      <trkpt lat="43.060533" lon="-4.731517">
        <ele>2387.0</ele>
        <time>2013-09-04T12:56:53Z</time>
      </trkpt>
      <trkpt lat="43.060517" lon="-4.731667">
        <ele>2390.0</ele>
        <time>2013-09-04T12:56:54Z</time>
      </trkpt>
      <trkpt lat="43.060483" lon="-4.731800">
        <ele>2394.0</ele>
        <time>2013-09-04T12:56:55Z</time>
      </trkpt>
      <trkpt lat="43.060450" lon="-4.731900">
        <ele>2400.0</ele>
        <time>2013-09-04T12:56:56Z</time>
      </trkpt>
      <trkpt lat="43.060400" lon="-4.731983">
        <ele>2404.0</ele>
        <time>2013-09-04T12:56:57Z</time>
      </trkpt>
      <trkpt lat="43.060333" lon="-4.732050">
        <ele>2406.0</ele>
        <time>2013-09-04T12:56:58Z</time>
      </trkpt>
      <trkpt lat="43.060267" lon="-4.732100">
        <ele>2409.0</ele>
        <time>2013-09-04T12:56:59Z</time>
      </trkpt>
      <trkpt lat="43.060200" lon="-4.732133">
        <ele>2412.0</ele>
        <time>2013-09-04T12:57:00Z</time>
      </trkpt>
      <trkpt lat="43.060133" lon="-4.732117">
        <ele>2415.0</ele>
        <time>2013-09-04T12:57:01Z</time>
      </trkpt>
      <trkpt lat="43.060083" lon="-4.732067">
        <ele>2418.0</ele>
        <time>2013-09-04T12:57:02Z</time>
      </trkpt>
      <trkpt lat="43.060050" lon="-4.732000">
        <ele>2420.0</ele>
        <time>2013-09-04T12:57:03Z</time>
      </trkpt>
      <trkpt lat="43.060017" lon="-4.731917">
        <ele>2423.0</ele>
        <time>2013-09-04T12:57:04Z</time>
      </trkpt>
      <trkpt lat="43.060000" lon="-4.731850">
        <ele>2426.0</ele>
        <time>2013-09-04T12:57:05Z</time>
      </trkpt>
      <trkpt lat="43.059983" lon="-4.731783">
        <ele>2429.0</ele>
        <time>2013-09-04T12:57:06Z</time>
      </trkpt>
      <trkpt lat="43.060000" lon="-4.731717">
        <ele>2431.0</ele>
        <time>2013-09-04T12:57:07Z</time>
      </trkpt>
      <trkpt lat="43.060017" lon="-4.731650">
        <ele>2433.0</ele>
        <time>2013-09-04T12:57:08Z</time>
      </trkpt>
      <trkpt lat="43.060050" lon="-4.731583">
        <ele>2434.0</ele>
        <time>2013-09-04T12:57:09Z</time>
      </trkpt>
      <trkpt lat="43.060100" lon="-4.731517">
        <ele>2437.0</ele>
        <time>2013-09-04T12:57:10Z</time>
      </trkpt>
      <trkpt lat="43.060133" lon="-4.731467">
        <ele>2439.0</ele>
        <time>2013-09-04T12:57:11Z</time>
      </trkpt>
      <trkpt lat="43.060200" lon="-4.731433">
        <ele>2440.0</ele>
        <time>2013-09-04T12:57:12Z</time>
      </trkpt>
      <trkpt lat="43.060267" lon="-4.731433">
        <ele>2442.0</ele>
        <time>2013-09-04T12:57:13Z</time>
      </trkpt>
      <trkpt lat="43.060350" lon="-4.731450">
        <ele>2444.0</ele>
        <time>2013-09-04T12:57:14Z</time>
      </trkpt>
      <trkpt lat="43.060433" lon="-4.731500">
        <ele>2446.0</ele>
        <time>2013-09-04T12:57:15Z</time>
      </trkpt>
      <trkpt lat="43.060500" lon="-4.731600">
        <ele>2448.0</ele>
        <time>2013-09-04T12:57:16Z</time>
      </trkpt>
      <trkpt lat="43.060533" lon="-4.731750">
        <ele>2450.0</ele>
        <time>2013-09-04T12:57:17Z</time>
      </trkpt>
      <trkpt lat="43.060533" lon="-4.731900">
        <ele>2452.0</ele>
        <time>2013-09-04T12:57:18Z</time>
      </trkpt>
      <trkpt lat="43.060517" lon="-4.732050">
        <ele>2455.0</ele>
        <time>2013-09-04T12:57:19Z</time>
      </trkpt>
      <trkpt lat="43.060500" lon="-4.732167">
        <ele>2457.0</ele>
        <time>2013-09-04T12:57:20Z</time>
      </trkpt>
      <trkpt lat="43.060450" lon="-4.732283">
        <ele>2460.0</ele>
        <time>2013-09-04T12:57:21Z</time>
      </trkpt>
      <trkpt lat="43.060383" lon="-4.732350">
        <ele>2463.0</ele>
        <time>2013-09-04T12:57:22Z</time>
      </trkpt>
      <trkpt lat="43.060333" lon="-4.732417">
        <ele>2465.0</ele>
        <time>2013-09-04T12:57:23Z</time>
      </trkpt>
      <trkpt lat="43.060267" lon="-4.732467">
        <ele>2468.0</ele>
        <time>2013-09-04T12:57:24Z</time>
      </trkpt>
      <trkpt lat="43.060200" lon="-4.732533">
        <ele>2470.0</ele>
        <time>2013-09-04T12:57:25Z</time>
      </trkpt>
      <trkpt lat="43.060117" lon="-4.732567">
        <ele>2472.0</ele>
        <time>2013-09-04T12:57:26Z</time>
      </trkpt>
      <trkpt lat="43.060050" lon="-4.732583">
        <ele>2475.0</ele>
        <time>2013-09-04T12:57:27Z</time>
      </trkpt>
      <trkpt lat="43.059983" lon="-4.732567">
        <ele>2477.0</ele>
        <time>2013-09-04T12:57:28Z</time>
      </trkpt>
      <trkpt lat="43.059933" lon="-4.732517">
        <ele>2480.0</ele>
        <time>2013-09-04T12:57:29Z</time>
      </trkpt>
      <trkpt lat="43.059900" lon="-4.732467">
        <ele>2482.0</ele>
        <time>2013-09-04T12:57:30Z</time>
      </trkpt>
      <trkpt lat="43.059867" lon="-4.732400">
        <ele>2484.0</ele>
        <time>2013-09-04T12:57:31Z</time>
      </trkpt>
      <trkpt lat="43.059850" lon="-4.732333">
        <ele>2486.0</ele>
        <time>2013-09-04T12:57:32Z</time>
      </trkpt>
      <trkpt lat="43.059833" lon="-4.732250">
        <ele>2487.0</ele>
        <time>2013-09-04T12:57:33Z</time>
      </trkpt>
      <trkpt lat="43.059867" lon="-4.732167">
        <ele>2488.0</ele>
        <time>2013-09-04T12:57:34Z</time>
      </trkpt>
      <trkpt lat="43.059900" lon="-4.732083">
        <ele>2490.0</ele>
        <time>2013-09-04T12:57:35Z</time>
      </trkpt>
      <trkpt lat="43.059933" lon="-4.732033">
        <ele>2491.0</ele>
        <time>2013-09-04T12:57:36Z</time>
      </trkpt>
      <trkpt lat="43.060000" lon="-4.731983">
        <ele>2492.0</ele>
        <time>2013-09-04T12:57:37Z</time>
      </trkpt>
      <trkpt lat="43.060083" lon="-4.731950">
        <ele>2492.0</ele>
        <time>2013-09-04T12:57:38Z</time>
      </trkpt>
      <trkpt lat="43.060167" lon="-4.731933">
        <ele>2493.0</ele>
        <time>2013-09-04T12:57:39Z</time>
      </trkpt>
      <trkpt lat="43.060267" lon="-4.731933">
        <ele>2495.0</ele>
        <time>2013-09-04T12:57:40Z</time>
      </trkpt>
      <trkpt lat="43.060367" lon="-4.731950">
        <ele>2498.0</ele>
        <time>2013-09-04T12:57:41Z</time>
      </trkpt>
      <trkpt lat="43.060450" lon="-4.732000">
        <ele>2500.0</ele>
        <time>2013-09-04T12:57:42Z</time>
      </trkpt>
      <trkpt lat="43.060533" lon="-4.732083">
        <ele>2503.0</ele>
        <time>2013-09-04T12:57:43Z</time>
      </trkpt>
      <trkpt lat="43.060583" lon="-4.732167">
        <ele>2504.0</ele>
        <time>2013-09-04T12:57:44Z</time>
      </trkpt>
      <trkpt lat="43.060650" lon="-4.732267">
        <ele>2505.0</ele>
        <time>2013-09-04T12:57:45Z</time>
      </trkpt>
      <trkpt lat="43.060700" lon="-4.732383">
        <ele>2506.0</ele>
        <time>2013-09-04T12:57:46Z</time>
      </trkpt>
      <trkpt lat="43.060767" lon="-4.732500">
        <ele>2507.0</ele>
        <time>2013-09-04T12:57:47Z</time>
      </trkpt>
      <trkpt lat="43.060817" lon="-4.732633">
        <ele>2508.0</ele>
        <time>2013-09-04T12:57:48Z</time>
      </trkpt>
      <trkpt lat="43.060850" lon="-4.732767">
        <ele>2509.0</ele>
        <time>2013-09-04T12:57:49Z</time>
      </trkpt>
      <trkpt lat="43.060850" lon="-4.732900">
        <ele>2510.0</ele>
        <time>2013-09-04T12:57:50Z</time>
      </trkpt>
      <trkpt lat="43.060833" lon="-4.733033">
        <ele>2510.0</ele>
        <time>2013-09-04T12:57:51Z</time>
      </trkpt>
      <trkpt lat="43.060800" lon="-4.733150">
        <ele>2510.0</ele>
        <time>2013-09-04T12:57:52Z</time>
      </trkpt>
      <trkpt lat="43.060767" lon="-4.733267">
        <ele>2511.0</ele>
        <time>2013-09-04T12:57:53Z</time>
      </trkpt>
      <trkpt lat="43.060700" lon="-4.733350">
        <ele>2513.0</ele>
        <time>2013-09-04T12:57:54Z</time>
      </trkpt>
      <trkpt lat="43.060650" lon="-4.733417">
        <ele>2515.0</ele>
        <time>2013-09-04T12:57:55Z</time>
      </trkpt>
      <trkpt lat="43.060583" lon="-4.733450">
        <ele>2517.0</ele>
        <time>2013-09-04T12:57:56Z</time>
      </trkpt>
      <trkpt lat="43.060533" lon="-4.733483">
        <ele>2519.0</ele>
        <time>2013-09-04T12:57:57Z</time>
      </trkpt>
      <trkpt lat="43.060483" lon="-4.733500">
        <ele>2520.0</ele>
        <time>2013-09-04T12:57:58Z</time>
      </trkpt>
      <trkpt lat="43.060433" lon="-4.733517">
        <ele>2521.0</ele>
        <time>2013-09-04T12:57:59Z</time>
      </trkpt>
      <trkpt lat="43.060367" lon="-4.733517">
        <ele>2521.0</ele>
        <time>2013-09-04T12:58:00Z</time>
      </trkpt>
      <trkpt lat="43.060317" lon="-4.733517">
        <ele>2523.0</ele>
        <time>2013-09-04T12:58:01Z</time>
      </trkpt>
      <trkpt lat="43.060267" lon="-4.733483">
        <ele>2523.0</ele>
        <time>2013-09-04T12:58:02Z</time>
      </trkpt>
      <trkpt lat="43.060233" lon="-4.733417">
        <ele>2524.0</ele>
        <time>2013-09-04T12:58:03Z</time>
      </trkpt>
      <trkpt lat="43.060233" lon="-4.733333">
        <ele>2525.0</ele>
        <time>2013-09-04T12:58:04Z</time>
      </trkpt>
      <trkpt lat="43.060250" lon="-4.733250">
        <ele>2527.0</ele>
        <time>2013-09-04T12:58:05Z</time>
      </trkpt>
      <trkpt lat="43.060283" lon="-4.733167">
        <ele>2529.0</ele>
        <time>2013-09-04T12:58:06Z</time>
      </trkpt>
      <trkpt lat="43.060333" lon="-4.733117">
        <ele>2532.0</ele>
        <time>2013-09-04T12:58:07Z</time>
      </trkpt>
      <trkpt lat="43.060400" lon="-4.733100">
        <ele>2533.0</ele>
        <time>2013-09-04T12:58:08Z</time>
      </trkpt>
      <trkpt lat="43.060483" lon="-4.733083">
        <ele>2533.0</ele>
        <time>2013-09-04T12:58:09Z</time>
      </trkpt>
      <trkpt lat="43.060567" lon="-4.733083">
        <ele>2533.0</ele>
        <time>2013-09-04T12:58:10Z</time>
      </trkpt>
      <trkpt lat="43.060667" lon="-4.733100">
        <ele>2534.0</ele>
        <time>2013-09-04T12:58:11Z</time>
      </trkpt>
      <trkpt lat="43.060750" lon="-4.733167">
        <ele>2535.0</ele>
        <time>2013-09-04T12:58:12Z</time>
      </trkpt>
      <trkpt lat="43.060833" lon="-4.733250">
        <ele>2536.0</ele>
        <time>2013-09-04T12:58:13Z</time>
      </trkpt>
      <trkpt lat="43.060883" lon="-4.733367">
        <ele>2536.0</ele>
        <time>2013-09-04T12:58:14Z</time>
      </trkpt>
      <trkpt lat="43.060917" lon="-4.733500">
        <ele>2536.0</ele>
        <time>2013-09-04T12:58:15Z</time>
      </trkpt>
      <trkpt lat="43.060933" lon="-4.733633">
        <ele>2537.0</ele>
        <time>2013-09-04T12:58:16Z</time>
      </trkpt>
      <trkpt lat="43.060950" lon="-4.733767">
        <ele>2537.0</ele>
        <time>2013-09-04T12:58:17Z</time>
      </trkpt>
      <trkpt lat="43.060933" lon="-4.733900">
        <ele>2538.0</ele>
        <time>2013-09-04T12:58:18Z</time>
      </trkpt>
      <trkpt lat="43.060917" lon="-4.734000">
        <ele>2539.0</ele>
        <time>2013-09-04T12:58:19Z</time>
      </trkpt>
      <trkpt lat="43.060867" lon="-4.734083">
        <ele>2540.0</ele>
        <time>2013-09-04T12:58:20Z</time>
      </trkpt>
      <trkpt lat="43.060817" lon="-4.734150">
        <ele>2540.0</ele>
        <time>2013-09-04T12:58:21Z</time>
      </trkpt>
      <trkpt lat="43.060750" lon="-4.734183">
        <ele>2541.0</ele>
        <time>2013-09-04T12:58:22Z</time>
      </trkpt>
      <trkpt lat="43.060700" lon="-4.734233">
        <ele>2542.0</ele>
        <time>2013-09-04T12:58:23Z</time>
      </trkpt>
      <trkpt lat="43.060633" lon="-4.734300">
        <ele>2543.0</ele>
        <time>2013-09-04T12:58:24Z</time>
      </trkpt>
      <trkpt lat="43.060583" lon="-4.734367">
        <ele>2546.0</ele>
        <time>2013-09-04T12:58:25Z</time>
      </trkpt>
      <trkpt lat="43.060533" lon="-4.734417">
        <ele>2549.0</ele>
        <time>2013-09-04T12:58:26Z</time>
      </trkpt>
      <trkpt lat="43.060500" lon="-4.734450">
        <ele>2551.0</ele>
        <time>2013-09-04T12:58:27Z</time>
      </trkpt>
      <trkpt lat="43.060467" lon="-4.734483">
        <ele>2551.0</ele>
        <time>2013-09-04T12:58:28Z</time>
      </trkpt>
      <trkpt lat="43.060433" lon="-4.734483">
        <ele>2551.0</ele>
        <time>2013-09-04T12:58:29Z</time>
      </trkpt>
      <trkpt lat="43.060367" lon="-4.734500">
        <ele>2550.0</ele>
        <time>2013-09-04T12:58:30Z</time>
      </trkpt>
      <trkpt lat="43.060300" lon="-4.734483">
        <ele>2549.0</ele>
        <time>2013-09-04T12:58:31Z</time>
      </trkpt>
      <trkpt lat="43.060233" lon="-4.734450">
        <ele>2549.0</ele>
        <time>2013-09-04T12:58:32Z</time>
      </trkpt>
      <trkpt lat="43.060200" lon="-4.734417">
        <ele>2549.0</ele>
        <time>2013-09-04T12:58:33Z</time>
      </trkpt>
      <trkpt lat="43.060150" lon="-4.734350">
        <ele>2549.0</ele>
        <time>2013-09-04T12:58:34Z</time>
      </trkpt>
      <trkpt lat="43.060117" lon="-4.734300">
        <ele>2549.0</ele>
        <time>2013-09-04T12:58:35Z</time>
      </trkpt>
      <trkpt lat="43.060083" lon="-4.734233">
        <ele>2550.0</ele>
        <time>2013-09-04T12:58:36Z</time>
      </trkpt>
      <trkpt lat="43.060033" lon="-4.734183">
        <ele>2551.0</ele>
        <time>2013-09-04T12:58:37Z</time>
      </trkpt>
      <trkpt lat="43.060000" lon="-4.734100">
        <ele>2550.0</ele>
        <time>2013-09-04T12:58:38Z</time>
      </trkpt>
      <trkpt lat="43.059967" lon="-4.734017">
        <ele>2550.0</ele>
        <time>2013-09-04T12:58:39Z</time>
      </trkpt>
      <trkpt lat="43.059950" lon="-4.733933">
        <ele>2550.0</ele>
        <time>2013-09-04T12:58:40Z</time>
      </trkpt>
      <trkpt lat="43.059950" lon="-4.733867">
        <ele>2550.0</ele>
        <time>2013-09-04T12:58:41Z</time>
      </trkpt>
      <trkpt lat="43.059950" lon="-4.733783">
        <ele>2550.0</ele>
        <time>2013-09-04T12:58:42Z</time>
      </trkpt>
      <trkpt lat="43.059950" lon="-4.733700">
        <ele>2550.0</ele>
        <time>2013-09-04T12:58:43Z</time>
      </trkpt>
      <trkpt lat="43.059967" lon="-4.733617">
        <ele>2550.0</ele>
        <time>2013-09-04T12:58:44Z</time>
      </trkpt>
      <trkpt lat="43.060000" lon="-4.733533">
        <ele>2551.0</ele>
        <time>2013-09-04T12:58:45Z</time>
      </trkpt>
      <trkpt lat="43.060050" lon="-4.733450">
        <ele>2551.0</ele>
        <time>2013-09-04T12:58:46Z</time>
      </trkpt>
      <trkpt lat="43.060100" lon="-4.733400">
        <ele>2551.0</ele>
        <time>2013-09-04T12:58:47Z</time>
      </trkpt>
      <trkpt lat="43.060167" lon="-4.733367">
        <ele>2550.0</ele>
        <time>2013-09-04T12:58:48Z</time>
      </trkpt>
      <trkpt lat="43.060250" lon="-4.733317">
        <ele>2548.0</ele>
        <time>2013-09-04T12:58:49Z</time>
      </trkpt>
      <trkpt lat="43.060350" lon="-4.733300">
        <ele>2547.0</ele>
        <time>2013-09-04T12:58:50Z</time>
      </trkpt>
      <trkpt lat="43.060467" lon="-4.733317">
        <ele>2547.0</ele>
        <time>2013-09-04T12:58:51Z</time>
      </trkpt>
      <trkpt lat="43.060567" lon="-4.733333">
        <ele>2548.0</ele>
        <time>2013-09-04T12:58:52Z</time>
      </trkpt>
      <trkpt lat="43.060650" lon="-4.733383">
        <ele>2549.0</ele>
        <time>2013-09-04T12:58:53Z</time>
      </trkpt>
      <trkpt lat="43.060717" lon="-4.733433">
        <ele>2549.0</ele>
        <time>2013-09-04T12:58:54Z</time>
      </trkpt>
      <trkpt lat="43.060783" lon="-4.733500">
        <ele>2546.0</ele>
        <time>2013-09-04T12:58:55Z</time>
      </trkpt>
      <trkpt lat="43.060867" lon="-4.733583">
        <ele>2544.0</ele>
        <time>2013-09-04T12:58:56Z</time>
      </trkpt>
      <trkpt lat="43.060967" lon="-4.733683">
        <ele>2542.0</ele>
        <time>2013-09-04T12:58:57Z</time>
      </trkpt>
      <trkpt lat="43.061033" lon="-4.733817">
        <ele>2541.0</ele>
        <time>2013-09-04T12:58:58Z</time>
      </trkpt>
      <trkpt lat="43.061067" lon="-4.733950">
        <ele>2539.0</ele>
        <time>2013-09-04T12:58:59Z</time>
      </trkpt>
      <trkpt lat="43.061067" lon="-4.734100">
        <ele>2538.0</ele>
        <time>2013-09-04T12:59:00Z</time>
      </trkpt>
      <trkpt lat="43.061017" lon="-4.734233">
        <ele>2536.0</ele>
        <time>2013-09-04T12:59:01Z</time>
      </trkpt>
      <trkpt lat="43.060967" lon="-4.734367">
        <ele>2537.0</ele>
        <time>2013-09-04T12:59:02Z</time>
      </trkpt>
      <trkpt lat="43.060900" lon="-4.734450">
        <ele>2539.0</ele>
        <time>2013-09-04T12:59:03Z</time>
      </trkpt>
      <trkpt lat="43.060817" lon="-4.734500">
        <ele>2541.0</ele>
        <time>2013-09-04T12:59:04Z</time>
      </trkpt>
      <trkpt lat="43.060767" lon="-4.734533">
        <ele>2542.0</ele>
        <time>2013-09-04T12:59:05Z</time>
      </trkpt>
      <trkpt lat="43.060700" lon="-4.734567">
        <ele>2543.0</ele>
        <time>2013-09-04T12:59:06Z</time>
      </trkpt>
      <trkpt lat="43.060633" lon="-4.734600">
        <ele>2544.0</ele>
        <time>2013-09-04T12:59:07Z</time>
      </trkpt>
      <trkpt lat="43.060567" lon="-4.734617">
        <ele>2545.0</ele>
        <time>2013-09-04T12:59:08Z</time>
      </trkpt>
      <trkpt lat="43.060500" lon="-4.734617">
        <ele>2545.0</ele>
        <time>2013-09-04T12:59:09Z</time>
      </trkpt>
      <trkpt lat="43.060433" lon="-4.734600">
        <ele>2545.0</ele>
        <time>2013-09-04T12:59:10Z</time>
      </trkpt>
      <trkpt lat="43.060383" lon="-4.734567">
        <ele>2545.0</ele>
        <time>2013-09-04T12:59:11Z</time>
      </trkpt>
      <trkpt lat="43.060317" lon="-4.734550">
        <ele>2546.0</ele>
        <time>2013-09-04T12:59:12Z</time>
      </trkpt>
      <trkpt lat="43.060250" lon="-4.734517">
        <ele>2547.0</ele>
        <time>2013-09-04T12:59:13Z</time>
      </trkpt>
      <trkpt lat="43.060200" lon="-4.734500">
        <ele>2549.0</ele>
        <time>2013-09-04T12:59:14Z</time>
      </trkpt>
      <trkpt lat="43.060133" lon="-4.734483">
        <ele>2550.0</ele>
        <time>2013-09-04T12:59:15Z</time>
      </trkpt>
      <trkpt lat="43.060083" lon="-4.734467">
        <ele>2550.0</ele>
        <time>2013-09-04T12:59:16Z</time>
      </trkpt>
      <trkpt lat="43.060017" lon="-4.734450">
        <ele>2549.0</ele>
        <time>2013-09-04T12:59:17Z</time>
      </trkpt>
      <trkpt lat="43.059933" lon="-4.734433">
        <ele>2548.0</ele>
        <time>2013-09-04T12:59:18Z</time>
      </trkpt>
      <trkpt lat="43.059867" lon="-4.734400">
        <ele>2547.0</ele>
        <time>2013-09-04T12:59:19Z</time>
      </trkpt>
      <trkpt lat="43.059817" lon="-4.734350">
        <ele>2546.0</ele>
        <time>2013-09-04T12:59:20Z</time>
      </trkpt>
      <trkpt lat="43.059767" lon="-4.734283">
        <ele>2545.0</ele>
        <time>2013-09-04T12:59:21Z</time>
      </trkpt>
      <trkpt lat="43.059717" lon="-4.734217">
        <ele>2544.0</ele>
        <time>2013-09-04T12:59:22Z</time>
      </trkpt>
      <trkpt lat="43.059683" lon="-4.734150">
        <ele>2543.0</ele>
        <time>2013-09-04T12:59:23Z</time>
      </trkpt>
      <trkpt lat="43.059633" lon="-4.734083">
        <ele>2542.0</ele>
        <time>2013-09-04T12:59:24Z</time>
      </trkpt>
      <trkpt lat="43.059583" lon="-4.734017">
        <ele>2541.0</ele>
        <time>2013-09-04T12:59:25Z</time>
      </trkpt>
      <trkpt lat="43.059550" lon="-4.733950">
        <ele>2540.0</ele>
        <time>2013-09-04T12:59:26Z</time>
      </trkpt>
      <trkpt lat="43.059500" lon="-4.733883">
        <ele>2540.0</ele>
        <time>2013-09-04T12:59:27Z</time>
      </trkpt>
      <trkpt lat="43.059467" lon="-4.733833">
        <ele>2539.0</ele>
        <time>2013-09-04T12:59:28Z</time>
      </trkpt>
      <trkpt lat="43.059433" lon="-4.733783">
        <ele>2537.0</ele>
        <time>2013-09-04T12:59:29Z</time>
      </trkpt>
      <trkpt lat="43.059417" lon="-4.733717">
        <ele>2534.0</ele>
        <time>2013-09-04T12:59:30Z</time>
      </trkpt>
      <trkpt lat="43.059383" lon="-4.733633">
        <ele>2531.0</ele>
        <time>2013-09-04T12:59:31Z</time>
      </trkpt>
      <trkpt lat="43.059350" lon="-4.733550">
        <ele>2528.0</ele>
        <time>2013-09-04T12:59:32Z</time>
      </trkpt>
      <trkpt lat="43.059300" lon="-4.733467">
        <ele>2527.0</ele>
        <time>2013-09-04T12:59:33Z</time>
      </trkpt>
      <trkpt lat="43.059267" lon="-4.733383">
        <ele>2526.0</ele>
        <time>2013-09-04T12:59:34Z</time>
      </trkpt>
      <trkpt lat="43.059233" lon="-4.733317">
        <ele>2525.0</ele>
        <time>2013-09-04T12:59:35Z</time>
      </trkpt>
      <trkpt lat="43.059200" lon="-4.733250">
        <ele>2524.0</ele>
        <time>2013-09-04T12:59:36Z</time>
      </trkpt>
      <trkpt lat="43.059167" lon="-4.733167">
        <ele>2522.0</ele>
        <time>2013-09-04T12:59:37Z</time>
      </trkpt>
      <trkpt lat="43.059133" lon="-4.733083">
        <ele>2520.0</ele>
        <time>2013-09-04T12:59:38Z</time>
      </trkpt>
      <trkpt lat="43.059100" lon="-4.733000">
        <ele>2519.0</ele>
        <time>2013-09-04T12:59:39Z</time>
      </trkpt>
      <trkpt lat="43.059083" lon="-4.732917">
        <ele>2518.0</ele>
        <time>2013-09-04T12:59:40Z</time>
      </trkpt>
      <trkpt lat="43.059033" lon="-4.732817">
        <ele>2516.0</ele>
        <time>2013-09-04T12:59:41Z</time>
      </trkpt>
      <trkpt lat="43.059017" lon="-4.732733">
        <ele>2514.0</ele>
        <time>2013-09-04T12:59:42Z</time>
      </trkpt>
      <trkpt lat="43.058983" lon="-4.732633">
        <ele>2513.0</ele>
        <time>2013-09-04T12:59:43Z</time>
      </trkpt>
      <trkpt lat="43.058967" lon="-4.732550">
        <ele>2512.0</ele>
        <time>2013-09-04T12:59:44Z</time>
      </trkpt>
      <trkpt lat="43.058950" lon="-4.732467">
        <ele>2510.0</ele>
        <time>2013-09-04T12:59:45Z</time>
      </trkpt>
      <trkpt lat="43.058917" lon="-4.732383">
        <ele>2507.0</ele>
        <time>2013-09-04T12:59:46Z</time>
      </trkpt>
      <trkpt lat="43.058867" lon="-4.732300">
        <ele>2505.0</ele>
        <time>2013-09-04T12:59:47Z</time>
      </trkpt>
      <trkpt lat="43.058817" lon="-4.732217">
        <ele>2503.0</ele>
        <time>2013-09-04T12:59:48Z</time>
      </trkpt>
      <trkpt lat="43.058783" lon="-4.732133">
        <ele>2501.0</ele>
        <time>2013-09-04T12:59:49Z</time>
      </trkpt>
      <trkpt lat="43.058767" lon="-4.732050">
        <ele>2500.0</ele>
        <time>2013-09-04T12:59:50Z</time>
      </trkpt>
      <trkpt lat="43.058750" lon="-4.731967">
        <ele>2500.0</ele>
        <time>2013-09-04T12:59:51Z</time>
      </trkpt>
      <trkpt lat="43.058717" lon="-4.731917">
        <ele>2499.0</ele>
        <time>2013-09-04T12:59:52Z</time>
      </trkpt>
      <trkpt lat="43.058683" lon="-4.731867">
        <ele>2497.0</ele>
        <time>2013-09-04T12:59:53Z</time>
      </trkpt>
      <trkpt lat="43.058650" lon="-4.731817">
        <ele>2494.0</ele>
        <time>2013-09-04T12:59:54Z</time>
      </trkpt>
      <trkpt lat="43.058600" lon="-4.731767">
        <ele>2492.0</ele>
        <time>2013-09-04T12:59:55Z</time>
      </trkpt>
      <trkpt lat="43.058567" lon="-4.731700">
        <ele>2489.0</ele>
        <time>2013-09-04T12:59:56Z</time>
      </trkpt>
      <trkpt lat="43.058517" lon="-4.731633">
        <ele>2487.0</ele>
        <time>2013-09-04T12:59:57Z</time>
      </trkpt>
      <trkpt lat="43.058467" lon="-4.731583">
        <ele>2486.0</ele>
        <time>2013-09-04T12:59:58Z</time>
      </trkpt>
      <trkpt lat="43.058433" lon="-4.731517">
        <ele>2484.0</ele>
        <time>2013-09-04T12:59:59Z</time>
      </trkpt>
      <trkpt lat="43.058383" lon="-4.731483">
        <ele>2482.0</ele>
        <time>2013-09-04T13:00:00Z</time>
      </trkpt>
      <trkpt lat="43.058333" lon="-4.731450">
        <ele>2479.0</ele>
        <time>2013-09-04T13:00:01Z</time>
      </trkpt>
      <trkpt lat="43.058283" lon="-4.731417">
        <ele>2477.0</ele>
        <time>2013-09-04T13:00:02Z</time>
      </trkpt>
      <trkpt lat="43.058233" lon="-4.731367">
        <ele>2474.0</ele>
        <time>2013-09-04T13:00:03Z</time>
      </trkpt>
      <trkpt lat="43.058200" lon="-4.731317">
        <ele>2471.0</ele>
        <time>2013-09-04T13:00:04Z</time>
      </trkpt>
      <trkpt lat="43.058167" lon="-4.731250">
        <ele>2469.0</ele>
        <time>2013-09-04T13:00:05Z</time>
      </trkpt>
      <trkpt lat="43.058133" lon="-4.731200">
        <ele>2466.0</ele>
        <time>2013-09-04T13:00:06Z</time>
      </trkpt>
      <trkpt lat="43.058117" lon="-4.731133">
        <ele>2463.0</ele>
        <time>2013-09-04T13:00:07Z</time>
      </trkpt>
      <trkpt lat="43.058100" lon="-4.731067">
        <ele>2460.0</ele>
        <time>2013-09-04T13:00:08Z</time>
      </trkpt>
      <trkpt lat="43.058067" lon="-4.730983">
        <ele>2456.0</ele>
        <time>2013-09-04T13:00:09Z</time>
      </trkpt>
      <trkpt lat="43.058033" lon="-4.730917">
        <ele>2454.0</ele>
        <time>2013-09-04T13:00:10Z</time>
      </trkpt>
      <trkpt lat="43.058000" lon="-4.730850">
        <ele>2453.0</ele>
        <time>2013-09-04T13:00:11Z</time>
      </trkpt>
      <trkpt lat="43.057983" lon="-4.730800">
        <ele>2453.0</ele>
        <time>2013-09-04T13:00:12Z</time>
      </trkpt>
      <trkpt lat="43.057950" lon="-4.730767">
        <ele>2453.0</ele>
        <time>2013-09-04T13:00:13Z</time>
      </trkpt>
      <trkpt lat="43.057917" lon="-4.730717">
        <ele>2451.0</ele>
        <time>2013-09-04T13:00:14Z</time>
      </trkpt>
      <trkpt lat="43.057867" lon="-4.730683">
        <ele>2448.0</ele>
        <time>2013-09-04T13:00:15Z</time>
      </trkpt>
      <trkpt lat="43.057800" lon="-4.730617">
        <ele>2445.0</ele>
        <time>2013-09-04T13:00:16Z</time>
      </trkpt>
      <trkpt lat="43.057733" lon="-4.730550">
        <ele>2444.0</ele>
        <time>2013-09-04T13:00:17Z</time>
      </trkpt>
      <trkpt lat="43.057667" lon="-4.730483">
        <ele>2443.0</ele>
        <time>2013-09-04T13:00:18Z</time>
      </trkpt>
      <trkpt lat="43.057617" lon="-4.730450">
        <ele>2443.0</ele>
        <time>2013-09-04T13:00:19Z</time>
      </trkpt>
      <trkpt lat="43.057583" lon="-4.730400">
        <ele>2442.0</ele>
        <time>2013-09-04T13:00:20Z</time>
      </trkpt>
      <trkpt lat="43.057533" lon="-4.730350">
        <ele>2440.0</ele>
        <time>2013-09-04T13:00:21Z</time>
      </trkpt>
      <trkpt lat="43.057483" lon="-4.730283">
        <ele>2438.0</ele>
        <time>2013-09-04T13:00:22Z</time>
      </trkpt>
      <trkpt lat="43.057433" lon="-4.730217">
        <ele>2435.0</ele>
        <time>2013-09-04T13:00:23Z</time>
      </trkpt>
      <trkpt lat="43.057383" lon="-4.730150">
        <ele>2434.0</ele>
        <time>2013-09-04T13:00:24Z</time>
      </trkpt>
      <trkpt lat="43.057333" lon="-4.730067">
        <ele>2433.0</ele>
        <time>2013-09-04T13:00:25Z</time>
      </trkpt>
      <trkpt lat="43.057283" lon="-4.730000">
        <ele>2433.0</ele>
        <time>2013-09-04T13:00:26Z</time>
      </trkpt>
      <trkpt lat="43.057250" lon="-4.729950">
        <ele>2433.0</ele>
        <time>2013-09-04T13:00:27Z</time>
      </trkpt>
      <trkpt lat="43.057217" lon="-4.729883">
        <ele>2432.0</ele>
        <time>2013-09-04T13:00:28Z</time>
      </trkpt>
      <trkpt lat="43.057167" lon="-4.729800">
        <ele>2430.0</ele>
        <time>2013-09-04T13:00:29Z</time>
      </trkpt>
      <trkpt lat="43.057117" lon="-4.729717">
        <ele>2429.0</ele>
        <time>2013-09-04T13:00:30Z</time>
      </trkpt>
      <trkpt lat="43.057050" lon="-4.729633">
        <ele>2428.0</ele>
        <time>2013-09-04T13:00:31Z</time>
      </trkpt>
      <trkpt lat="43.057000" lon="-4.729533">
        <ele>2428.0</ele>
        <time>2013-09-04T13:00:32Z</time>
      </trkpt>
      <trkpt lat="43.056967" lon="-4.729467">
        <ele>2429.0</ele>
        <time>2013-09-04T13:00:33Z</time>
      </trkpt>
      <trkpt lat="43.056933" lon="-4.729383">
        <ele>2430.0</ele>
        <time>2013-09-04T13:00:34Z</time>
      </trkpt>
      <trkpt lat="43.056883" lon="-4.729317">
        <ele>2429.0</ele>
        <time>2013-09-04T13:00:35Z</time>
      </trkpt>
      <trkpt lat="43.056850" lon="-4.729233">
        <ele>2427.0</ele>
        <time>2013-09-04T13:00:36Z</time>
      </trkpt>
      <trkpt lat="43.056800" lon="-4.729133">
        <ele>2426.0</ele>
        <time>2013-09-04T13:00:37Z</time>
      </trkpt>
      <trkpt lat="43.056750" lon="-4.729050">
        <ele>2425.0</ele>
        <time>2013-09-04T13:00:38Z</time>
      </trkpt>
      <trkpt lat="43.056717" lon="-4.728967">
        <ele>2425.0</ele>
        <time>2013-09-04T13:00:39Z</time>
      </trkpt>
      <trkpt lat="43.056683" lon="-4.728867">
        <ele>2425.0</ele>
        <time>2013-09-04T13:00:40Z</time>
      </trkpt>
      <trkpt lat="43.056650" lon="-4.728783">
        <ele>2425.0</ele>
        <time>2013-09-04T13:00:41Z</time>
      </trkpt>
      <trkpt lat="43.056617" lon="-4.728683">
        <ele>2424.0</ele>
        <time>2013-09-04T13:00:42Z</time>
      </trkpt>
      <trkpt lat="43.056583" lon="-4.728600">
        <ele>2424.0</ele>
        <time>2013-09-04T13:00:43Z</time>
      </trkpt>
      <trkpt lat="43.056533" lon="-4.728533">
        <ele>2424.0</ele>
        <time>2013-09-04T13:00:44Z</time>
      </trkpt>
      <trkpt lat="43.056500" lon="-4.728483">
        <ele>2423.0</ele>
        <time>2013-09-04T13:00:45Z</time>
      </trkpt>
      <trkpt lat="43.056467" lon="-4.728417">
        <ele>2421.0</ele>
        <time>2013-09-04T13:00:46Z</time>
      </trkpt>
      <trkpt lat="43.056433" lon="-4.728367">
        <ele>2419.0</ele>
        <time>2013-09-04T13:00:47Z</time>
      </trkpt>
      <trkpt lat="43.056383" lon="-4.728283">
        <ele>2417.0</ele>
        <time>2013-09-04T13:00:48Z</time>
      </trkpt>
      <trkpt lat="43.056350" lon="-4.728217">
        <ele>2414.0</ele>
        <time>2013-09-04T13:00:49Z</time>
      </trkpt>
      <trkpt lat="43.056300" lon="-4.728150">
        <ele>2412.0</ele>
        <time>2013-09-04T13:00:50Z</time>
      </trkpt>
      <trkpt lat="43.056250" lon="-4.728083">
        <ele>2410.0</ele>
        <time>2013-09-04T13:00:51Z</time>
      </trkpt>
      <trkpt lat="43.056217" lon="-4.728000">
        <ele>2409.0</ele>
        <time>2013-09-04T13:00:52Z</time>
      </trkpt>
      <trkpt lat="43.056167" lon="-4.727917">
        <ele>2409.0</ele>
        <time>2013-09-04T13:00:53Z</time>
      </trkpt>
      <trkpt lat="43.056150" lon="-4.727850">
        <ele>2408.0</ele>
        <time>2013-09-04T13:00:54Z</time>
      </trkpt>
      <trkpt lat="43.056117" lon="-4.727783">
        <ele>2407.0</ele>
        <time>2013-09-04T13:00:55Z</time>
      </trkpt>
      <trkpt lat="43.056100" lon="-4.727717">
        <ele>2404.0</ele>
        <time>2013-09-04T13:00:56Z</time>
      </trkpt>
      <trkpt lat="43.056050" lon="-4.727633">
        <ele>2400.0</ele>
        <time>2013-09-04T13:00:57Z</time>
      </trkpt>
      <trkpt lat="43.056017" lon="-4.727533">
        <ele>2396.0</ele>
        <time>2013-09-04T13:00:58Z</time>
      </trkpt>
      <trkpt lat="43.055967" lon="-4.727433">
        <ele>2393.0</ele>
        <time>2013-09-04T13:00:59Z</time>
      </trkpt>
      <trkpt lat="43.055917" lon="-4.727333">
        <ele>2391.0</ele>
        <time>2013-09-04T13:01:00Z</time>
      </trkpt>
      <trkpt lat="43.055867" lon="-4.727250">
        <ele>2390.0</ele>
        <time>2013-09-04T13:01:01Z</time>
      </trkpt>
      <trkpt lat="43.055833" lon="-4.727150">
        <ele>2390.0</ele>
        <time>2013-09-04T13:01:02Z</time>
      </trkpt>
      <trkpt lat="43.055800" lon="-4.727033">
        <ele>2389.0</ele>
        <time>2013-09-04T13:01:03Z</time>
      </trkpt>
      <trkpt lat="43.055783" lon="-4.726933">
        <ele>2389.0</ele>
        <time>2013-09-04T13:01:04Z</time>
      </trkpt>
      <trkpt lat="43.055767" lon="-4.726867">
        <ele>2388.0</ele>
        <time>2013-09-04T13:01:05Z</time>
      </trkpt>
      <trkpt lat="43.055750" lon="-4.726783">
        <ele>2387.0</ele>
        <time>2013-09-04T13:01:06Z</time>
      </trkpt>
      <trkpt lat="43.055717" lon="-4.726717">
        <ele>2385.0</ele>
        <time>2013-09-04T13:01:07Z</time>
      </trkpt>
      <trkpt lat="43.055700" lon="-4.726617">
        <ele>2381.0</ele>
        <time>2013-09-04T13:01:08Z</time>
      </trkpt>
      <trkpt lat="43.055650" lon="-4.726517">
        <ele>2378.0</ele>
        <time>2013-09-04T13:01:09Z</time>
      </trkpt>
      <trkpt lat="43.055617" lon="-4.726400">
        <ele>2377.0</ele>
        <time>2013-09-04T13:01:10Z</time>
      </trkpt>
      <trkpt lat="43.055583" lon="-4.726283">
        <ele>2377.0</ele>
        <time>2013-09-04T13:01:11Z</time>
      </trkpt>
      <trkpt lat="43.055567" lon="-4.726200">
        <ele>2376.0</ele>
        <time>2013-09-04T13:01:12Z</time>
      </trkpt>
      <trkpt lat="43.055550" lon="-4.726100">
        <ele>2375.0</ele>
        <time>2013-09-04T13:01:13Z</time>
      </trkpt>
      <trkpt lat="43.055533" lon="-4.726000">
        <ele>2373.0</ele>
        <time>2013-09-04T13:01:14Z</time>
      </trkpt>
      <trkpt lat="43.055500" lon="-4.725883">
        <ele>2371.0</ele>
        <time>2013-09-04T13:01:15Z</time>
      </trkpt>
      <trkpt lat="43.055450" lon="-4.725750">
        <ele>2370.0</ele>
        <time>2013-09-04T13:01:16Z</time>
      </trkpt>
      <trkpt lat="43.055417" lon="-4.725633">
        <ele>2370.0</ele>
        <time>2013-09-04T13:01:17Z</time>
      </trkpt>
      <trkpt lat="43.055383" lon="-4.725533">
        <ele>2372.0</ele>
        <time>2013-09-04T13:01:18Z</time>
      </trkpt>
      <trkpt lat="43.055333" lon="-4.725450">
        <ele>2372.0</ele>
        <time>2013-09-04T13:01:19Z</time>
      </trkpt>
      <trkpt lat="43.055300" lon="-4.725367">
        <ele>2373.0</ele>
        <time>2013-09-04T13:01:20Z</time>
      </trkpt>
      <trkpt lat="43.055250" lon="-4.725300">
        <ele>2373.0</ele>
        <time>2013-09-04T13:01:21Z</time>
      </trkpt>
      <trkpt lat="43.055200" lon="-4.725233">
        <ele>2373.0</ele>
        <time>2013-09-04T13:01:22Z</time>
      </trkpt>
      <trkpt lat="43.055150" lon="-4.725167">
        <ele>2375.0</ele>
        <time>2013-09-04T13:01:23Z</time>
      </trkpt>
      <trkpt lat="43.055117" lon="-4.725117">
        <ele>2376.0</ele>
        <time>2013-09-04T13:01:24Z</time>
      </trkpt>
      <trkpt lat="43.055067" lon="-4.725067">
        <ele>2376.0</ele>
        <time>2013-09-04T13:01:25Z</time>
      </trkpt>
      <trkpt lat="43.055017" lon="-4.725017">
        <ele>2377.0</ele>
        <time>2013-09-04T13:01:26Z</time>
      </trkpt>
      <trkpt lat="43.054983" lon="-4.724967">
        <ele>2377.0</ele>
        <time>2013-09-04T13:01:27Z</time>
      </trkpt>
      <trkpt lat="43.054950" lon="-4.724917">
        <ele>2377.0</ele>
        <time>2013-09-04T13:01:28Z</time>
      </trkpt>
      <trkpt lat="43.054933" lon="-4.724850">
        <ele>2377.0</ele>
        <time>2013-09-04T13:01:29Z</time>
      </trkpt>
      <trkpt lat="43.054917" lon="-4.724767">
        <ele>2376.0</ele>
        <time>2013-09-04T13:01:30Z</time>
      </trkpt>
      <trkpt lat="43.054917" lon="-4.724700">
        <ele>2375.0</ele>
        <time>2013-09-04T13:01:31Z</time>
      </trkpt>
      <trkpt lat="43.054900" lon="-4.724617">
        <ele>2374.0</ele>
        <time>2013-09-04T13:01:32Z</time>
      </trkpt>
      <trkpt lat="43.054850" lon="-4.724533">
        <ele>2372.0</ele>
        <time>2013-09-04T13:01:33Z</time>
      </trkpt>
      <trkpt lat="43.054800" lon="-4.724467">
        <ele>2371.0</ele>
        <time>2013-09-04T13:01:34Z</time>
      </trkpt>
      <trkpt lat="43.054733" lon="-4.724383">
        <ele>2370.0</ele>
        <time>2013-09-04T13:01:35Z</time>
      </trkpt>
      <trkpt lat="43.054667" lon="-4.724317">
        <ele>2369.0</ele>
        <time>2013-09-04T13:01:36Z</time>
      </trkpt>
      <trkpt lat="43.054600" lon="-4.724250">
        <ele>2368.0</ele>
        <time>2013-09-04T13:01:37Z</time>
      </trkpt>
      <trkpt lat="43.054533" lon="-4.724183">
        <ele>2367.0</ele>
        <time>2013-09-04T13:01:38Z</time>
      </trkpt>
      <trkpt lat="43.054467" lon="-4.724100">
        <ele>2366.0</ele>
        <time>2013-09-04T13:01:39Z</time>
      </trkpt>
      <trkpt lat="43.054400" lon="-4.724033">
        <ele>2364.0</ele>
        <time>2013-09-04T13:01:40Z</time>
      </trkpt>
      <trkpt lat="43.054350" lon="-4.723967">
        <ele>2363.0</ele>
        <time>2013-09-04T13:01:41Z</time>
      </trkpt>
      <trkpt lat="43.054283" lon="-4.723900">
        <ele>2361.0</ele>
        <time>2013-09-04T13:01:42Z</time>
      </trkpt>
      <trkpt lat="43.054217" lon="-4.723817">
        <ele>2359.0</ele>
        <time>2013-09-04T13:01:43Z</time>
      </trkpt>
      <trkpt lat="43.054133" lon="-4.723750">
        <ele>2357.0</ele>
        <time>2013-09-04T13:01:44Z</time>
      </trkpt>
      <trkpt lat="43.054067" lon="-4.723667">
        <ele>2357.0</ele>
        <time>2013-09-04T13:01:45Z</time>
      </trkpt>
      <trkpt lat="43.053983" lon="-4.723600">
        <ele>2357.0</ele>
        <time>2013-09-04T13:01:46Z</time>
      </trkpt>
      <trkpt lat="43.053917" lon="-4.723533">
        <ele>2356.0</ele>
        <time>2013-09-04T13:01:47Z</time>
      </trkpt>
      <trkpt lat="43.053867" lon="-4.723467">
        <ele>2355.0</ele>
        <time>2013-09-04T13:01:48Z</time>
      </trkpt>
      <trkpt lat="43.053800" lon="-4.723400">
        <ele>2354.0</ele>
        <time>2013-09-04T13:01:49Z</time>
      </trkpt>
      <trkpt lat="43.053733" lon="-4.723333">
        <ele>2352.0</ele>
        <time>2013-09-04T13:01:50Z</time>
      </trkpt>
      <trkpt lat="43.053667" lon="-4.723267">
        <ele>2350.0</ele>
        <time>2013-09-04T13:01:51Z</time>
      </trkpt>
      <trkpt lat="43.053600" lon="-4.723183">
        <ele>2349.0</ele>
        <time>2013-09-04T13:01:52Z</time>
      </trkpt>
      <trkpt lat="43.053517" lon="-4.723117">
        <ele>2348.0</ele>
        <time>2013-09-04T13:01:53Z</time>
      </trkpt>
      <trkpt lat="43.053450" lon="-4.723033">
        <ele>2347.0</ele>
        <time>2013-09-04T13:01:54Z</time>
      </trkpt>
      <trkpt lat="43.053383" lon="-4.722967">
        <ele>2347.0</ele>
        <time>2013-09-04T13:01:55Z</time>
      </trkpt>
      <trkpt lat="43.053317" lon="-4.722900">
        <ele>2346.0</ele>
        <time>2013-09-04T13:01:56Z</time>
      </trkpt>
      <trkpt lat="43.053250" lon="-4.722833">
        <ele>2344.0</ele>
        <time>2013-09-04T13:01:57Z</time>
      </trkpt>
      <trkpt lat="43.053167" lon="-4.722767">
        <ele>2343.0</ele>
        <time>2013-09-04T13:01:58Z</time>
      </trkpt>
      <trkpt lat="43.053083" lon="-4.722700">
        <ele>2342.0</ele>
        <time>2013-09-04T13:01:59Z</time>
      </trkpt>
      <trkpt lat="43.053000" lon="-4.722633">
        <ele>2342.0</ele>
        <time>2013-09-04T13:02:00Z</time>
      </trkpt>
      <trkpt lat="43.052917" lon="-4.722550">
        <ele>2342.0</ele>
        <time>2013-09-04T13:02:01Z</time>
      </trkpt>
      <trkpt lat="43.052867" lon="-4.722467">
        <ele>2342.0</ele>
        <time>2013-09-04T13:02:02Z</time>
      </trkpt>
      <trkpt lat="43.052833" lon="-4.722350">
        <ele>2341.0</ele>
        <time>2013-09-04T13:02:03Z</time>
      </trkpt>
      <trkpt lat="43.052833" lon="-4.722233">
        <ele>2341.0</ele>
        <time>2013-09-04T13:02:04Z</time>
      </trkpt>
      <trkpt lat="43.052833" lon="-4.722133">
        <ele>2340.0</ele>
        <time>2013-09-04T13:02:05Z</time>
      </trkpt>
      <trkpt lat="43.052833" lon="-4.722017">
        <ele>2340.0</ele>
        <time>2013-09-04T13:02:06Z</time>
      </trkpt>
      <trkpt lat="43.052817" lon="-4.721917">
        <ele>2340.0</ele>
        <time>2013-09-04T13:02:07Z</time>
      </trkpt>
      <trkpt lat="43.052833" lon="-4.721833">
        <ele>2339.0</ele>
        <time>2013-09-04T13:02:08Z</time>
      </trkpt>
      <trkpt lat="43.052833" lon="-4.721750">
        <ele>2336.0</ele>
        <time>2013-09-04T13:02:09Z</time>
      </trkpt>
      <trkpt lat="43.052850" lon="-4.721650">
        <ele>2333.0</ele>
        <time>2013-09-04T13:02:10Z</time>
      </trkpt>
      <trkpt lat="43.052867" lon="-4.721533">
        <ele>2330.0</ele>
        <time>2013-09-04T13:02:11Z</time>
      </trkpt>
      <trkpt lat="43.052867" lon="-4.721400">
        <ele>2327.0</ele>
        <time>2013-09-04T13:02:12Z</time>
      </trkpt>
      <trkpt lat="43.052867" lon="-4.721250">
        <ele>2326.0</ele>
        <time>2013-09-04T13:02:13Z</time>
      </trkpt>
      <trkpt lat="43.052850" lon="-4.721117">
        <ele>2327.0</ele>
        <time>2013-09-04T13:02:14Z</time>
      </trkpt>
      <trkpt lat="43.052850" lon="-4.721000">
        <ele>2328.0</ele>
        <time>2013-09-04T13:02:15Z</time>
      </trkpt>
      <trkpt lat="43.052833" lon="-4.720900">
        <ele>2330.0</ele>
        <time>2013-09-04T13:02:16Z</time>
      </trkpt>
      <trkpt lat="43.052817" lon="-4.720817">
        <ele>2332.0</ele>
        <time>2013-09-04T13:02:17Z</time>
      </trkpt>
      <trkpt lat="43.052800" lon="-4.720750">
        <ele>2332.0</ele>
        <time>2013-09-04T13:02:18Z</time>
      </trkpt>
      <trkpt lat="43.052817" lon="-4.720700">
        <ele>2331.0</ele>
        <time>2013-09-04T13:02:19Z</time>
      </trkpt>
      <trkpt lat="43.052833" lon="-4.720617">
        <ele>2328.0</ele>
        <time>2013-09-04T13:02:20Z</time>
      </trkpt>
      <trkpt lat="43.052833" lon="-4.720517">
        <ele>2325.0</ele>
        <time>2013-09-04T13:02:21Z</time>
      </trkpt>
      <trkpt lat="43.052850" lon="-4.720400">
        <ele>2322.0</ele>
        <time>2013-09-04T13:02:22Z</time>
      </trkpt>
      <trkpt lat="43.052850" lon="-4.720283">
        <ele>2320.0</ele>
        <time>2013-09-04T13:02:23Z</time>
      </trkpt>
      <trkpt lat="43.052867" lon="-4.720167">
        <ele>2320.0</ele>
        <time>2013-09-04T13:02:24Z</time>
      </trkpt>
      <trkpt lat="43.052850" lon="-4.720067">
        <ele>2320.0</ele>
        <time>2013-09-04T13:02:25Z</time>
      </trkpt>
      <trkpt lat="43.052833" lon="-4.719967">
        <ele>2321.0</ele>
        <time>2013-09-04T13:02:26Z</time>
      </trkpt>
      <trkpt lat="43.052800" lon="-4.719900">
        <ele>2322.0</ele>
        <time>2013-09-04T13:02:27Z</time>
      </trkpt>
      <trkpt lat="43.052783" lon="-4.719833">
        <ele>2324.0</ele>
        <time>2013-09-04T13:02:28Z</time>
      </trkpt>
      <trkpt lat="43.052767" lon="-4.719783">
        <ele>2325.0</ele>
        <time>2013-09-04T13:02:29Z</time>
      </trkpt>
      <trkpt lat="43.052783" lon="-4.719733">
        <ele>2325.0</ele>
        <time>2013-09-04T13:02:30Z</time>
      </trkpt>
      <trkpt lat="43.052800" lon="-4.719683">
        <ele>2326.0</ele>
        <time>2013-09-04T13:02:31Z</time>
      </trkpt>
      <trkpt lat="43.052800" lon="-4.719633">
        <ele>2326.0</ele>
        <time>2013-09-04T13:02:32Z</time>
      </trkpt>
      <trkpt lat="43.052783" lon="-4.719567">
        <ele>2326.0</ele>
        <time>2013-09-04T13:02:33Z</time>
      </trkpt>
      <trkpt lat="43.052783" lon="-4.719500">
        <ele>2327.0</ele>
        <time>2013-09-04T13:02:34Z</time>
      </trkpt>
      <trkpt lat="43.052767" lon="-4.719450">
        <ele>2329.0</ele>
        <time>2013-09-04T13:02:35Z</time>
      </trkpt>
      <trkpt lat="43.052733" lon="-4.719383">
        <ele>2330.0</ele>
        <time>2013-09-04T13:02:36Z</time>
      </trkpt>
      <trkpt lat="43.052717" lon="-4.719333">
        <ele>2332.0</ele>
        <time>2013-09-04T13:02:37Z</time>
      </trkpt>
      <trkpt lat="43.052683" lon="-4.719283">
        <ele>2333.0</ele>
        <time>2013-09-04T13:02:38Z</time>
      </trkpt>
      <trkpt lat="43.052650" lon="-4.719233">
        <ele>2333.0</ele>
        <time>2013-09-04T13:02:39Z</time>
      </trkpt>
      <trkpt lat="43.052600" lon="-4.719183">
        <ele>2334.0</ele>
        <time>2013-09-04T13:02:40Z</time>
      </trkpt>
      <trkpt lat="43.052550" lon="-4.719133">
        <ele>2334.0</ele>
        <time>2013-09-04T13:02:41Z</time>
      </trkpt>
      <trkpt lat="43.052467" lon="-4.719100">
        <ele>2336.0</ele>
        <time>2013-09-04T13:02:42Z</time>
      </trkpt>
      <trkpt lat="43.052400" lon="-4.719117">
        <ele>2336.0</ele>
        <time>2013-09-04T13:02:43Z</time>
      </trkpt>
      <trkpt lat="43.052300" lon="-4.719150">
        <ele>2336.0</ele>
        <time>2013-09-04T13:02:44Z</time>
      </trkpt>
      <trkpt lat="43.052217" lon="-4.719233">
        <ele>2335.0</ele>
        <time>2013-09-04T13:02:45Z</time>
      </trkpt>
      <trkpt lat="43.052133" lon="-4.719333">
        <ele>2334.0</ele>
        <time>2013-09-04T13:02:46Z</time>
      </trkpt>
      <trkpt lat="43.052067" lon="-4.719450">
        <ele>2334.0</ele>
        <time>2013-09-04T13:02:47Z</time>
      </trkpt>
      <trkpt lat="43.052017" lon="-4.719583">
        <ele>2333.0</ele>
        <time>2013-09-04T13:02:48Z</time>
      </trkpt>
      <trkpt lat="43.051983" lon="-4.719717">
        <ele>2332.0</ele>
        <time>2013-09-04T13:02:49Z</time>
      </trkpt>
      <trkpt lat="43.051983" lon="-4.719867">
        <ele>2332.0</ele>
        <time>2013-09-04T13:02:50Z</time>
      </trkpt>
      <trkpt lat="43.051967" lon="-4.720000">
        <ele>2332.0</ele>
        <time>2013-09-04T13:02:51Z</time>
      </trkpt>
      <trkpt lat="43.051967" lon="-4.720150">
        <ele>2331.0</ele>
        <time>2013-09-04T13:02:52Z</time>
      </trkpt>
      <trkpt lat="43.051950" lon="-4.720283">
        <ele>2330.0</ele>
        <time>2013-09-04T13:02:53Z</time>
      </trkpt>
      <trkpt lat="43.051933" lon="-4.720433">
        <ele>2329.0</ele>
        <time>2013-09-04T13:02:54Z</time>
      </trkpt>
      <trkpt lat="43.051900" lon="-4.720567">
        <ele>2328.0</ele>
        <time>2013-09-04T13:02:55Z</time>
      </trkpt>
      <trkpt lat="43.051833" lon="-4.720717">
        <ele>2327.0</ele>
        <time>2013-09-04T13:02:56Z</time>
      </trkpt>
      <trkpt lat="43.051767" lon="-4.720817">
        <ele>2326.0</ele>
        <time>2013-09-04T13:02:57Z</time>
      </trkpt>
      <trkpt lat="43.051667" lon="-4.720900">
        <ele>2324.0</ele>
        <time>2013-09-04T13:02:58Z</time>
      </trkpt>
      <trkpt lat="43.051567" lon="-4.720917">
        <ele>2323.0</ele>
        <time>2013-09-04T13:02:59Z</time>
      </trkpt>
      <trkpt lat="43.051483" lon="-4.720900">
        <ele>2321.0</ele>
        <time>2013-09-04T13:03:00Z</time>
      </trkpt>
      <trkpt lat="43.051417" lon="-4.720833">
        <ele>2318.0</ele>
        <time>2013-09-04T13:03:01Z</time>
      </trkpt>
      <trkpt lat="43.051367" lon="-4.720733">
        <ele>2316.0</ele>
        <time>2013-09-04T13:03:02Z</time>
      </trkpt>
      <trkpt lat="43.051317" lon="-4.720633">
        <ele>2315.0</ele>
        <time>2013-09-04T13:03:03Z</time>
      </trkpt>
      <trkpt lat="43.051250" lon="-4.720550">
        <ele>2315.0</ele>
        <time>2013-09-04T13:03:04Z</time>
      </trkpt>
      <trkpt lat="43.051183" lon="-4.720483">
        <ele>2315.0</ele>
        <time>2013-09-04T13:03:05Z</time>
      </trkpt>
      <trkpt lat="43.051133" lon="-4.720417">
        <ele>2315.0</ele>
        <time>2013-09-04T13:03:06Z</time>
      </trkpt>
      <trkpt lat="43.051067" lon="-4.720367">
        <ele>2314.0</ele>
        <time>2013-09-04T13:03:07Z</time>
      </trkpt>
      <trkpt lat="43.051033" lon="-4.720283">
        <ele>2312.0</ele>
        <time>2013-09-04T13:03:08Z</time>
      </trkpt>
      <trkpt lat="43.050983" lon="-4.720183">
        <ele>2310.0</ele>
        <time>2013-09-04T13:03:09Z</time>
      </trkpt>
      <trkpt lat="43.050933" lon="-4.720083">
        <ele>2310.0</ele>
        <time>2013-09-04T13:03:10Z</time>
      </trkpt>
      <trkpt lat="43.050883" lon="-4.719983">
        <ele>2310.0</ele>
        <time>2013-09-04T13:03:11Z</time>
      </trkpt>
      <trkpt lat="43.050850" lon="-4.719900">
        <ele>2310.0</ele>
        <time>2013-09-04T13:03:12Z</time>
      </trkpt>
      <trkpt lat="43.050817" lon="-4.719833">
        <ele>2310.0</ele>
        <time>2013-09-04T13:03:13Z</time>
      </trkpt>
      <trkpt lat="43.050767" lon="-4.719750">
        <ele>2308.0</ele>
        <time>2013-09-04T13:03:14Z</time>
      </trkpt>
      <trkpt lat="43.050733" lon="-4.719667">
        <ele>2307.0</ele>
        <time>2013-09-04T13:03:15Z</time>
      </trkpt>
      <trkpt lat="43.050683" lon="-4.719567">
        <ele>2306.0</ele>
        <time>2013-09-04T13:03:16Z</time>
      </trkpt>
      <trkpt lat="43.050633" lon="-4.719450">
        <ele>2305.0</ele>
        <time>2013-09-04T13:03:17Z</time>
      </trkpt>
      <trkpt lat="43.050600" lon="-4.719367">
        <ele>2305.0</ele>
        <time>2013-09-04T13:03:18Z</time>
      </trkpt>
      <trkpt lat="43.050550" lon="-4.719267">
        <ele>2305.0</ele>
        <time>2013-09-04T13:03:19Z</time>
      </trkpt>
      <trkpt lat="43.050517" lon="-4.719183">
        <ele>2306.0</ele>
        <time>2013-09-04T13:03:20Z</time>
      </trkpt>
      <trkpt lat="43.050483" lon="-4.719100">
        <ele>2306.0</ele>
        <time>2013-09-04T13:03:21Z</time>
      </trkpt>
      <trkpt lat="43.050450" lon="-4.719000">
        <ele>2306.0</ele>
        <time>2013-09-04T13:03:22Z</time>
      </trkpt>
      <trkpt lat="43.050417" lon="-4.718900">
        <ele>2306.0</ele>
        <time>2013-09-04T13:03:23Z</time>
      </trkpt>
      <trkpt lat="43.050383" lon="-4.718817">
        <ele>2306.0</ele>
        <time>2013-09-04T13:03:24Z</time>
      </trkpt>
      <trkpt lat="43.050367" lon="-4.718717">
        <ele>2305.0</ele>
        <time>2013-09-04T13:03:25Z</time>
      </trkpt>
      <trkpt lat="43.050350" lon="-4.718617">
        <ele>2304.0</ele>
        <time>2013-09-04T13:03:26Z</time>
      </trkpt>
      <trkpt lat="43.050333" lon="-4.718517">
        <ele>2304.0</ele>
        <time>2013-09-04T13:03:27Z</time>
      </trkpt>
      <trkpt lat="43.050333" lon="-4.718417">
        <ele>2304.0</ele>
        <time>2013-09-04T13:03:28Z</time>
      </trkpt>
      <trkpt lat="43.050317" lon="-4.718317">
        <ele>2305.0</ele>
        <time>2013-09-04T13:03:29Z</time>
      </trkpt>
      <trkpt lat="43.050300" lon="-4.718217">
        <ele>2305.0</ele>
        <time>2013-09-04T13:03:30Z</time>
      </trkpt>
      <trkpt lat="43.050283" lon="-4.718117">
        <ele>2305.0</ele>
        <time>2013-09-04T13:03:31Z</time>
      </trkpt>
      <trkpt lat="43.050267" lon="-4.718017">
        <ele>2305.0</ele>
        <time>2013-09-04T13:03:32Z</time>
      </trkpt>
      <trkpt lat="43.050233" lon="-4.717900">
        <ele>2304.0</ele>
        <time>2013-09-04T13:03:33Z</time>
      </trkpt>
      <trkpt lat="43.050217" lon="-4.717783">
        <ele>2304.0</ele>
        <time>2013-09-04T13:03:34Z</time>
      </trkpt>
      <trkpt lat="43.050183" lon="-4.717683">
        <ele>2305.0</ele>
        <time>2013-09-04T13:03:35Z</time>
      </trkpt>
      <trkpt lat="43.050150" lon="-4.717583">
        <ele>2306.0</ele>
        <time>2013-09-04T13:03:36Z</time>
      </trkpt>
      <trkpt lat="43.050100" lon="-4.717483">
        <ele>2307.0</ele>
        <time>2013-09-04T13:03:37Z</time>
      </trkpt>
      <trkpt lat="43.050067" lon="-4.717400">
        <ele>2308.0</ele>
        <time>2013-09-04T13:03:38Z</time>
      </trkpt>
      <trkpt lat="43.050033" lon="-4.717317">
        <ele>2309.0</ele>
        <time>2013-09-04T13:03:39Z</time>
      </trkpt>
      <trkpt lat="43.050000" lon="-4.717250">
        <ele>2309.0</ele>
        <time>2013-09-04T13:03:40Z</time>
      </trkpt>
      <trkpt lat="43.049967" lon="-4.717167">
        <ele>2310.0</ele>
        <time>2013-09-04T13:03:41Z</time>
      </trkpt>
      <trkpt lat="43.049917" lon="-4.717083">
        <ele>2310.0</ele>
        <time>2013-09-04T13:03:42Z</time>
      </trkpt>
      <trkpt lat="43.049883" lon="-4.717000">
        <ele>2311.0</ele>
        <time>2013-09-04T13:03:43Z</time>
      </trkpt>
      <trkpt lat="43.049833" lon="-4.716917">
        <ele>2312.0</ele>
        <time>2013-09-04T13:03:44Z</time>
      </trkpt>
      <trkpt lat="43.049800" lon="-4.716850">
        <ele>2312.0</ele>
        <time>2013-09-04T13:03:45Z</time>
      </trkpt>
      <trkpt lat="43.049767" lon="-4.716767">
        <ele>2312.0</ele>
        <time>2013-09-04T13:03:46Z</time>
      </trkpt>
      <trkpt lat="43.049717" lon="-4.716683">
        <ele>2312.0</ele>
        <time>2013-09-04T13:03:47Z</time>
      </trkpt>
      <trkpt lat="43.049650" lon="-4.716600">
        <ele>2312.0</ele>
        <time>2013-09-04T13:03:48Z</time>
      </trkpt>
      <trkpt lat="43.049600" lon="-4.716517">
        <ele>2313.0</ele>
        <time>2013-09-04T13:03:49Z</time>
      </trkpt>
      <trkpt lat="43.049533" lon="-4.716450">
        <ele>2314.0</ele>
        <time>2013-09-04T13:03:50Z</time>
      </trkpt>
      <trkpt lat="43.049483" lon="-4.716383">
        <ele>2316.0</ele>
        <time>2013-09-04T13:03:51Z</time>
      </trkpt>
      <trkpt lat="43.049433" lon="-4.716317">
        <ele>2317.0</ele>
        <time>2013-09-04T13:03:52Z</time>
      </trkpt>
      <trkpt lat="43.049383" lon="-4.716250">
        <ele>2317.0</ele>
        <time>2013-09-04T13:03:53Z</time>
      </trkpt>
      <trkpt lat="43.049333" lon="-4.716167">
        <ele>2317.0</ele>
        <time>2013-09-04T13:03:54Z</time>
      </trkpt>
      <trkpt lat="43.049283" lon="-4.716100">
        <ele>2317.0</ele>
        <time>2013-09-04T13:03:55Z</time>
      </trkpt>
      <trkpt lat="43.049217" lon="-4.716017">
        <ele>2317.0</ele>
        <time>2013-09-04T13:03:56Z</time>
      </trkpt>
      <trkpt lat="43.049150" lon="-4.715933">
        <ele>2317.0</ele>
        <time>2013-09-04T13:03:57Z</time>
      </trkpt>
      <trkpt lat="43.049100" lon="-4.715867">
        <ele>2318.0</ele>
        <time>2013-09-04T13:03:58Z</time>
      </trkpt>
      <trkpt lat="43.049033" lon="-4.715783">
        <ele>2319.0</ele>
        <time>2013-09-04T13:03:59Z</time>
      </trkpt>
      <trkpt lat="43.048983" lon="-4.715733">
        <ele>2320.0</ele>
        <time>2013-09-04T13:04:00Z</time>
      </trkpt>
      <trkpt lat="43.048917" lon="-4.715683">
        <ele>2320.0</ele>
        <time>2013-09-04T13:04:01Z</time>
      </trkpt>
      <trkpt lat="43.048850" lon="-4.715650">
        <ele>2320.0</ele>
        <time>2013-09-04T13:04:02Z</time>
      </trkpt>
      <trkpt lat="43.048800" lon="-4.715633">
        <ele>2319.0</ele>
        <time>2013-09-04T13:04:03Z</time>
      </trkpt>
      <trkpt lat="43.048717" lon="-4.715600">
        <ele>2317.0</ele>
        <time>2013-09-04T13:04:04Z</time>
      </trkpt>
      <trkpt lat="43.048633" lon="-4.715583">
        <ele>2317.0</ele>
        <time>2013-09-04T13:04:05Z</time>
      </trkpt>
      <trkpt lat="43.048517" lon="-4.715600">
        <ele>2316.0</ele>
        <time>2013-09-04T13:04:06Z</time>
      </trkpt>
      <trkpt lat="43.048433" lon="-4.715667">
        <ele>2315.0</ele>
        <time>2013-09-04T13:04:07Z</time>
      </trkpt>
      <trkpt lat="43.048383" lon="-4.715767">
        <ele>2315.0</ele>
        <time>2013-09-04T13:04:08Z</time>
      </trkpt>
      <trkpt lat="43.048367" lon="-4.715883">
        <ele>2313.0</ele>
        <time>2013-09-04T13:04:09Z</time>
      </trkpt>
      <trkpt lat="43.048383" lon="-4.716017">
        <ele>2312.0</ele>
        <time>2013-09-04T13:04:10Z</time>
      </trkpt>
      <trkpt lat="43.048417" lon="-4.716133">
        <ele>2311.0</ele>
        <time>2013-09-04T13:04:11Z</time>
      </trkpt>
      <trkpt lat="43.048450" lon="-4.716233">
        <ele>2312.0</ele>
        <time>2013-09-04T13:04:12Z</time>
      </trkpt>
      <trkpt lat="43.048483" lon="-4.716317">
        <ele>2313.0</ele>
        <time>2013-09-04T13:04:13Z</time>
      </trkpt>
      <trkpt lat="43.048533" lon="-4.716383">
        <ele>2314.0</ele>
        <time>2013-09-04T13:04:14Z</time>
      </trkpt>
      <trkpt lat="43.048583" lon="-4.716450">
        <ele>2314.0</ele>
        <time>2013-09-04T13:04:15Z</time>
      </trkpt>
      <trkpt lat="43.048633" lon="-4.716500">
        <ele>2315.0</ele>
        <time>2013-09-04T13:04:16Z</time>
      </trkpt>
      <trkpt lat="43.048683" lon="-4.716533">
        <ele>2316.0</ele>
        <time>2013-09-04T13:04:17Z</time>
      </trkpt>
      <trkpt lat="43.048750" lon="-4.716533">
        <ele>2316.0</ele>
        <time>2013-09-04T13:04:18Z</time>
      </trkpt>
      <trkpt lat="43.048800" lon="-4.716517">
        <ele>2317.0</ele>
        <time>2013-09-04T13:04:19Z</time>
      </trkpt>
      <trkpt lat="43.048850" lon="-4.716500">
        <ele>2318.0</ele>
        <time>2013-09-04T13:04:20Z</time>
      </trkpt>
      <trkpt lat="43.048900" lon="-4.716467">
        <ele>2319.0</ele>
        <time>2013-09-04T13:04:21Z</time>
      </trkpt>
      <trkpt lat="43.048933" lon="-4.716433">
        <ele>2319.0</ele>
        <time>2013-09-04T13:04:22Z</time>
      </trkpt>
      <trkpt lat="43.048983" lon="-4.716383">
        <ele>2320.0</ele>
        <time>2013-09-04T13:04:23Z</time>
      </trkpt>
      <trkpt lat="43.049017" lon="-4.716317">
        <ele>2320.0</ele>
        <time>2013-09-04T13:04:24Z</time>
      </trkpt>
      <trkpt lat="43.049050" lon="-4.716233">
        <ele>2321.0</ele>
        <time>2013-09-04T13:04:25Z</time>
      </trkpt>
      <trkpt lat="43.049067" lon="-4.716150">
        <ele>2322.0</ele>
        <time>2013-09-04T13:04:26Z</time>
      </trkpt>
      <trkpt lat="43.049050" lon="-4.716067">
        <ele>2323.0</ele>
        <time>2013-09-04T13:04:27Z</time>
      </trkpt>
      <trkpt lat="43.049033" lon="-4.715983">
        <ele>2323.0</ele>
        <time>2013-09-04T13:04:28Z</time>
      </trkpt>
      <trkpt lat="43.049017" lon="-4.715900">
        <ele>2324.0</ele>
        <time>2013-09-04T13:04:29Z</time>
      </trkpt>
      <trkpt lat="43.048983" lon="-4.715817">
        <ele>2324.0</ele>
        <time>2013-09-04T13:04:30Z</time>
      </trkpt>
      <trkpt lat="43.048917" lon="-4.715750">
        <ele>2323.0</ele>
        <time>2013-09-04T13:04:31Z</time>
      </trkpt>
      <trkpt lat="43.048850" lon="-4.715700">
        <ele>2323.0</ele>
        <time>2013-09-04T13:04:32Z</time>
      </trkpt>
      <trkpt lat="43.048750" lon="-4.715683">
        <ele>2323.0</ele>
        <time>2013-09-04T13:04:33Z</time>
      </trkpt>
      <trkpt lat="43.048650" lon="-4.715700">
        <ele>2322.0</ele>
        <time>2013-09-04T13:04:34Z</time>
      </trkpt>
      <trkpt lat="43.048550" lon="-4.715767">
        <ele>2322.0</ele>
        <time>2013-09-04T13:04:35Z</time>
      </trkpt>
      <trkpt lat="43.048467" lon="-4.715850">
        <ele>2322.0</ele>
        <time>2013-09-04T13:04:36Z</time>
      </trkpt>
      <trkpt lat="43.048417" lon="-4.715967">
        <ele>2321.0</ele>
        <time>2013-09-04T13:04:37Z</time>
      </trkpt>
      <trkpt lat="43.048383" lon="-4.716083">
        <ele>2321.0</ele>
        <time>2013-09-04T13:04:38Z</time>
      </trkpt>
      <trkpt lat="43.048367" lon="-4.716200">
        <ele>2321.0</ele>
        <time>2013-09-04T13:04:39Z</time>
      </trkpt>
      <trkpt lat="43.048350" lon="-4.716317">
        <ele>2321.0</ele>
        <time>2013-09-04T13:04:40Z</time>
      </trkpt>
      <trkpt lat="43.048350" lon="-4.716433">
        <ele>2321.0</ele>
        <time>2013-09-04T13:04:41Z</time>
      </trkpt>
      <trkpt lat="43.048367" lon="-4.716550">
        <ele>2322.0</ele>
        <time>2013-09-04T13:04:42Z</time>
      </trkpt>
      <trkpt lat="43.048417" lon="-4.716667">
        <ele>2322.0</ele>
        <time>2013-09-04T13:04:43Z</time>
      </trkpt>
      <trkpt lat="43.048467" lon="-4.716750">
        <ele>2324.0</ele>
        <time>2013-09-04T13:04:44Z</time>
      </trkpt>
      <trkpt lat="43.048517" lon="-4.716817">
        <ele>2325.0</ele>
        <time>2013-09-04T13:04:45Z</time>
      </trkpt>
      <trkpt lat="43.048567" lon="-4.716883">
        <ele>2326.0</ele>
        <time>2013-09-04T13:04:46Z</time>
      </trkpt>
      <trkpt lat="43.048617" lon="-4.716950">
        <ele>2327.0</ele>
        <time>2013-09-04T13:04:47Z</time>
      </trkpt>
      <trkpt lat="43.048667" lon="-4.717000">
        <ele>2327.0</ele>
        <time>2013-09-04T13:04:48Z</time>
      </trkpt>
      <trkpt lat="43.048717" lon="-4.717033">
        <ele>2328.0</ele>
        <time>2013-09-04T13:04:49Z</time>
      </trkpt>
      <trkpt lat="43.048783" lon="-4.717083">
        <ele>2328.0</ele>
        <time>2013-09-04T13:04:50Z</time>
      </trkpt>
      <trkpt lat="43.048833" lon="-4.717100">
        <ele>2328.0</ele>
        <time>2013-09-04T13:04:51Z</time>
      </trkpt>
      <trkpt lat="43.048900" lon="-4.717133">
        <ele>2328.0</ele>
        <time>2013-09-04T13:04:52Z</time>
      </trkpt>
      <trkpt lat="43.048967" lon="-4.717133">
        <ele>2328.0</ele>
        <time>2013-09-04T13:04:53Z</time>
      </trkpt>
      <trkpt lat="43.049050" lon="-4.717133">
        <ele>2328.0</ele>
        <time>2013-09-04T13:04:54Z</time>
      </trkpt>
      <trkpt lat="43.049117" lon="-4.717133">
        <ele>2327.0</ele>
        <time>2013-09-04T13:04:55Z</time>
      </trkpt>
      <trkpt lat="43.049183" lon="-4.717133">
        <ele>2327.0</ele>
        <time>2013-09-04T13:04:56Z</time>
      </trkpt>
      <trkpt lat="43.049250" lon="-4.717117">
        <ele>2328.0</ele>
        <time>2013-09-04T13:04:57Z</time>
      </trkpt>
      <trkpt lat="43.049300" lon="-4.717117">
        <ele>2327.0</ele>
        <time>2013-09-04T13:04:58Z</time>
      </trkpt>
      <trkpt lat="43.049367" lon="-4.717100">
        <ele>2326.0</ele>
        <time>2013-09-04T13:04:59Z</time>
      </trkpt>
      <trkpt lat="43.049417" lon="-4.717083">
        <ele>2326.0</ele>
        <time>2013-09-04T13:05:00Z</time>
      </trkpt>
      <trkpt lat="43.049483" lon="-4.717067">
        <ele>2324.0</ele>
        <time>2013-09-04T13:05:01Z</time>
      </trkpt>
      <trkpt lat="43.049550" lon="-4.717033">
        <ele>2324.0</ele>
        <time>2013-09-04T13:05:02Z</time>
      </trkpt>
      <trkpt lat="43.049600" lon="-4.717000">
        <ele>2323.0</ele>
        <time>2013-09-04T13:05:03Z</time>
      </trkpt>
      <trkpt lat="43.049650" lon="-4.716950">
        <ele>2323.0</ele>
        <time>2013-09-04T13:05:04Z</time>
      </trkpt>
      <trkpt lat="43.049683" lon="-4.716883">
        <ele>2322.0</ele>
        <time>2013-09-04T13:05:05Z</time>
      </trkpt>
      <trkpt lat="43.049717" lon="-4.716817">
        <ele>2322.0</ele>
        <time>2013-09-04T13:05:06Z</time>
      </trkpt>
      <trkpt lat="43.049750" lon="-4.716733">
        <ele>2321.0</ele>
        <time>2013-09-04T13:05:07Z</time>
      </trkpt>
      <trkpt lat="43.049783" lon="-4.716650">
        <ele>2321.0</ele>
        <time>2013-09-04T13:05:08Z</time>
      </trkpt>
      <trkpt lat="43.049817" lon="-4.716550">
        <ele>2321.0</ele>
        <time>2013-09-04T13:05:09Z</time>
      </trkpt>
      <trkpt lat="43.049850" lon="-4.716467">
        <ele>2321.0</ele>
        <time>2013-09-04T13:05:10Z</time>
      </trkpt>
      <trkpt lat="43.049883" lon="-4.716367">
        <ele>2321.0</ele>
        <time>2013-09-04T13:05:11Z</time>
      </trkpt>
      <trkpt lat="43.049900" lon="-4.716283">
        <ele>2322.0</ele>
        <time>2013-09-04T13:05:12Z</time>
      </trkpt>
      <trkpt lat="43.049933" lon="-4.716200">
        <ele>2323.0</ele>
        <time>2013-09-04T13:05:13Z</time>
      </trkpt>
      <trkpt lat="43.049950" lon="-4.716117">
        <ele>2324.0</ele>
        <time>2013-09-04T13:05:14Z</time>
      </trkpt>
      <trkpt lat="43.049967" lon="-4.716050">
        <ele>2325.0</ele>
        <time>2013-09-04T13:05:15Z</time>
      </trkpt>
      <trkpt lat="43.049967" lon="-4.715983">
        <ele>2327.0</ele>
        <time>2013-09-04T13:05:16Z</time>
      </trkpt>
      <trkpt lat="43.049983" lon="-4.715917">
        <ele>2328.0</ele>
        <time>2013-09-04T13:05:17Z</time>
      </trkpt>
      <trkpt lat="43.049983" lon="-4.715850">
        <ele>2329.0</ele>
        <time>2013-09-04T13:05:18Z</time>
      </trkpt>
      <trkpt lat="43.049983" lon="-4.715767">
        <ele>2330.0</ele>
        <time>2013-09-04T13:05:19Z</time>
      </trkpt>
      <trkpt lat="43.050000" lon="-4.715717">
        <ele>2331.0</ele>
        <time>2013-09-04T13:05:20Z</time>
      </trkpt>
      <trkpt lat="43.050017" lon="-4.715667">
        <ele>2333.0</ele>
        <time>2013-09-04T13:05:21Z</time>
      </trkpt>
      <trkpt lat="43.050067" lon="-4.715633">
        <ele>2334.0</ele>
        <time>2013-09-04T13:05:22Z</time>
      </trkpt>
      <trkpt lat="43.050100" lon="-4.715583">
        <ele>2336.0</ele>
        <time>2013-09-04T13:05:23Z</time>
      </trkpt>
      <trkpt lat="43.050150" lon="-4.715550">
        <ele>2338.0</ele>
        <time>2013-09-04T13:05:24Z</time>
      </trkpt>
      <trkpt lat="43.050183" lon="-4.715517">
        <ele>2341.0</ele>
        <time>2013-09-04T13:05:25Z</time>
      </trkpt>
      <trkpt lat="43.050217" lon="-4.715483">
        <ele>2343.0</ele>
        <time>2013-09-04T13:05:26Z</time>
      </trkpt>
      <trkpt lat="43.050250" lon="-4.715450">
        <ele>2345.0</ele>
        <time>2013-09-04T13:05:27Z</time>
      </trkpt>
      <trkpt lat="43.050283" lon="-4.715400">
        <ele>2346.0</ele>
        <time>2013-09-04T13:05:28Z</time>
      </trkpt>
      <trkpt lat="43.050333" lon="-4.715367">
        <ele>2347.0</ele>
        <time>2013-09-04T13:05:29Z</time>
      </trkpt>
      <trkpt lat="43.050400" lon="-4.715350">
        <ele>2349.0</ele>
        <time>2013-09-04T13:05:30Z</time>
      </trkpt>
      <trkpt lat="43.050483" lon="-4.715367">
        <ele>2351.0</ele>
        <time>2013-09-04T13:05:31Z</time>
      </trkpt>
      <trkpt lat="43.050550" lon="-4.715400">
        <ele>2352.0</ele>
        <time>2013-09-04T13:05:32Z</time>
      </trkpt>
      <trkpt lat="43.050600" lon="-4.715483">
        <ele>2354.0</ele>
        <time>2013-09-04T13:05:33Z</time>
      </trkpt>
      <trkpt lat="43.050667" lon="-4.715600">
        <ele>2355.0</ele>
        <time>2013-09-04T13:05:34Z</time>
      </trkpt>
      <trkpt lat="43.050700" lon="-4.715733">
        <ele>2356.0</ele>
        <time>2013-09-04T13:05:35Z</time>
      </trkpt>
      <trkpt lat="43.050700" lon="-4.715850">
        <ele>2358.0</ele>
        <time>2013-09-04T13:05:36Z</time>
      </trkpt>
      <trkpt lat="43.050683" lon="-4.715983">
        <ele>2360.0</ele>
        <time>2013-09-04T13:05:37Z</time>
      </trkpt>
      <trkpt lat="43.050650" lon="-4.716083">
        <ele>2361.0</ele>
        <time>2013-09-04T13:05:38Z</time>
      </trkpt>
      <trkpt lat="43.050600" lon="-4.716183">
        <ele>2361.0</ele>
        <time>2013-09-04T13:05:39Z</time>
      </trkpt>
      <trkpt lat="43.050517" lon="-4.716267">
        <ele>2361.0</ele>
        <time>2013-09-04T13:05:40Z</time>
      </trkpt>
      <trkpt lat="43.050433" lon="-4.716317">
        <ele>2361.0</ele>
        <time>2013-09-04T13:05:41Z</time>
      </trkpt>
      <trkpt lat="43.050333" lon="-4.716333">
        <ele>2361.0</ele>
        <time>2013-09-04T13:05:42Z</time>
      </trkpt>
      <trkpt lat="43.050233" lon="-4.716333">
        <ele>2361.0</ele>
        <time>2013-09-04T13:05:43Z</time>
      </trkpt>
      <trkpt lat="43.050133" lon="-4.716300">
        <ele>2362.0</ele>
        <time>2013-09-04T13:05:44Z</time>
      </trkpt>
      <trkpt lat="43.050050" lon="-4.716250">
        <ele>2363.0</ele>
        <time>2013-09-04T13:05:45Z</time>
      </trkpt>
      <trkpt lat="43.049967" lon="-4.716183">
        <ele>2364.0</ele>
        <time>2013-09-04T13:05:46Z</time>
      </trkpt>
      <trkpt lat="43.049900" lon="-4.716100">
        <ele>2366.0</ele>
        <time>2013-09-04T13:05:47Z</time>
      </trkpt>
      <trkpt lat="43.049833" lon="-4.716033">
        <ele>2368.0</ele>
        <time>2013-09-04T13:05:48Z</time>
      </trkpt>
      <trkpt lat="43.049783" lon="-4.715983">
        <ele>2371.0</ele>
        <time>2013-09-04T13:05:49Z</time>
      </trkpt>
      <trkpt lat="43.049750" lon="-4.715933">
        <ele>2373.0</ele>
        <time>2013-09-04T13:05:50Z</time>
      </trkpt>
      <trkpt lat="43.049717" lon="-4.715900">
        <ele>2375.0</ele>
        <time>2013-09-04T13:05:51Z</time>
      </trkpt>
      <trkpt lat="43.049683" lon="-4.715850">
        <ele>2376.0</ele>
        <time>2013-09-04T13:05:52Z</time>
      </trkpt>
      <trkpt lat="43.049667" lon="-4.715783">
        <ele>2377.0</ele>
        <time>2013-09-04T13:05:53Z</time>
      </trkpt>
      <trkpt lat="43.049667" lon="-4.715733">
        <ele>2379.0</ele>
        <time>2013-09-04T13:05:54Z</time>
      </trkpt>
      <trkpt lat="43.049683" lon="-4.715683">
        <ele>2380.0</ele>
        <time>2013-09-04T13:05:55Z</time>
      </trkpt>
      <trkpt lat="43.049717" lon="-4.715633">
        <ele>2382.0</ele>
        <time>2013-09-04T13:05:56Z</time>
      </trkpt>
      <trkpt lat="43.049750" lon="-4.715617">
        <ele>2384.0</ele>
        <time>2013-09-04T13:05:57Z</time>
      </trkpt>
      <trkpt lat="43.049800" lon="-4.715617">
        <ele>2385.0</ele>
        <time>2013-09-04T13:05:58Z</time>
      </trkpt>
      <trkpt lat="43.049850" lon="-4.715617">
        <ele>2386.0</ele>
        <time>2013-09-04T13:05:59Z</time>
      </trkpt>
      <trkpt lat="43.049917" lon="-4.715633">
        <ele>2386.0</ele>
        <time>2013-09-04T13:06:00Z</time>
      </trkpt>
      <trkpt lat="43.049983" lon="-4.715650">
        <ele>2387.0</ele>
        <time>2013-09-04T13:06:01Z</time>
      </trkpt>
      <trkpt lat="43.050033" lon="-4.715667">
        <ele>2389.0</ele>
        <time>2013-09-04T13:06:02Z</time>
      </trkpt>
      <trkpt lat="43.050083" lon="-4.715717">
        <ele>2391.0</ele>
        <time>2013-09-04T13:06:03Z</time>
      </trkpt>
      <trkpt lat="43.050133" lon="-4.715767">
        <ele>2393.0</ele>
        <time>2013-09-04T13:06:04Z</time>
      </trkpt>
      <trkpt lat="43.050183" lon="-4.715833">
        <ele>2394.0</ele>
        <time>2013-09-04T13:06:05Z</time>
      </trkpt>
      <trkpt lat="43.050233" lon="-4.715917">
        <ele>2395.0</ele>
        <time>2013-09-04T13:06:06Z</time>
      </trkpt>
      <trkpt lat="43.050267" lon="-4.716017">
        <ele>2396.0</ele>
        <time>2013-09-04T13:06:07Z</time>
      </trkpt>
      <trkpt lat="43.050300" lon="-4.716133">
        <ele>2398.0</ele>
        <time>2013-09-04T13:06:08Z</time>
      </trkpt>
      <trkpt lat="43.050317" lon="-4.716233">
        <ele>2399.0</ele>
        <time>2013-09-04T13:06:09Z</time>
      </trkpt>
      <trkpt lat="43.050317" lon="-4.716350">
        <ele>2399.0</ele>
        <time>2013-09-04T13:06:10Z</time>
      </trkpt>
      <trkpt lat="43.050300" lon="-4.716467">
        <ele>2400.0</ele>
        <time>2013-09-04T13:06:11Z</time>
      </trkpt>
      <trkpt lat="43.050283" lon="-4.716600">
        <ele>2400.0</ele>
        <time>2013-09-04T13:06:12Z</time>
      </trkpt>
      <trkpt lat="43.050233" lon="-4.716700">
        <ele>2400.0</ele>
        <time>2013-09-04T13:06:13Z</time>
      </trkpt>
      <trkpt lat="43.050167" lon="-4.716800">
        <ele>2401.0</ele>
        <time>2013-09-04T13:06:14Z</time>
      </trkpt>
      <trkpt lat="43.050083" lon="-4.716850">
        <ele>2401.0</ele>
        <time>2013-09-04T13:06:15Z</time>
      </trkpt>
      <trkpt lat="43.049983" lon="-4.716883">
        <ele>2402.0</ele>
        <time>2013-09-04T13:06:16Z</time>
      </trkpt>
      <trkpt lat="43.049900" lon="-4.716900">
        <ele>2402.0</ele>
        <time>2013-09-04T13:06:17Z</time>
      </trkpt>
      <trkpt lat="43.049817" lon="-4.716883">
        <ele>2402.0</ele>
        <time>2013-09-04T13:06:18Z</time>
      </trkpt>
      <trkpt lat="43.049733" lon="-4.716833">
        <ele>2401.0</ele>
        <time>2013-09-04T13:06:19Z</time>
      </trkpt>
      <trkpt lat="43.049650" lon="-4.716750">
        <ele>2401.0</ele>
        <time>2013-09-04T13:06:20Z</time>
      </trkpt>
      <trkpt lat="43.049583" lon="-4.716667">
        <ele>2402.0</ele>
        <time>2013-09-04T13:06:21Z</time>
      </trkpt>
      <trkpt lat="43.049533" lon="-4.716583">
        <ele>2402.0</ele>
        <time>2013-09-04T13:06:22Z</time>
      </trkpt>
      <trkpt lat="43.049483" lon="-4.716500">
        <ele>2403.0</ele>
        <time>2013-09-04T13:06:23Z</time>
      </trkpt>
      <trkpt lat="43.049433" lon="-4.716417">
        <ele>2403.0</ele>
        <time>2013-09-04T13:06:24Z</time>
      </trkpt>
      <trkpt lat="43.049400" lon="-4.716333">
        <ele>2403.0</ele>
        <time>2013-09-04T13:06:25Z</time>
      </trkpt>
      <trkpt lat="43.049367" lon="-4.716250">
        <ele>2403.0</ele>
        <time>2013-09-04T13:06:26Z</time>
      </trkpt>
      <trkpt lat="43.049317" lon="-4.716150">
        <ele>2406.0</ele>
        <time>2013-09-04T13:06:27Z</time>
      </trkpt>
      <trkpt lat="43.049300" lon="-4.716083">
        <ele>2409.0</ele>
        <time>2013-09-04T13:06:28Z</time>
      </trkpt>
      <trkpt lat="43.049267" lon="-4.716017">
        <ele>2412.0</ele>
        <time>2013-09-04T13:06:29Z</time>
      </trkpt>
      <trkpt lat="43.049250" lon="-4.715967">
        <ele>2413.0</ele>
        <time>2013-09-04T13:06:30Z</time>
      </trkpt>
      <trkpt lat="43.049250" lon="-4.715900">
        <ele>2413.0</ele>
        <time>2013-09-04T13:06:31Z</time>
      </trkpt>
      <trkpt lat="43.049267" lon="-4.715833">
        <ele>2414.0</ele>
        <time>2013-09-04T13:06:32Z</time>
      </trkpt>
      <trkpt lat="43.049300" lon="-4.715750">
        <ele>2415.0</ele>
        <time>2013-09-04T13:06:33Z</time>
      </trkpt>
      <trkpt lat="43.049350" lon="-4.715700">
        <ele>2416.0</ele>
        <time>2013-09-04T13:06:34Z</time>
      </trkpt>
      <trkpt lat="43.049417" lon="-4.715683">
        <ele>2418.0</ele>
        <time>2013-09-04T13:06:35Z</time>
      </trkpt>
      <trkpt lat="43.049467" lon="-4.715717">
        <ele>2418.0</ele>
        <time>2013-09-04T13:06:36Z</time>
      </trkpt>
      <trkpt lat="43.049533" lon="-4.715767">
        <ele>2417.0</ele>
        <time>2013-09-04T13:06:37Z</time>
      </trkpt>
      <trkpt lat="43.049600" lon="-4.715817">
        <ele>2417.0</ele>
        <time>2013-09-04T13:06:38Z</time>
      </trkpt>
      <trkpt lat="43.049683" lon="-4.715867">
        <ele>2417.0</ele>
        <time>2013-09-04T13:06:39Z</time>
      </trkpt>
      <trkpt lat="43.049767" lon="-4.715950">
        <ele>2417.0</ele>
        <time>2013-09-04T13:06:40Z</time>
      </trkpt>
      <trkpt lat="43.049817" lon="-4.716067">
        <ele>2417.0</ele>
        <time>2013-09-04T13:06:41Z</time>
      </trkpt>
      <trkpt lat="43.049867" lon="-4.716200">
        <ele>2416.0</ele>
        <time>2013-09-04T13:06:42Z</time>
      </trkpt>
      <trkpt lat="43.049883" lon="-4.716367">
        <ele>2416.0</ele>
        <time>2013-09-04T13:06:43Z</time>
      </trkpt>
      <trkpt lat="43.049883" lon="-4.716533">
        <ele>2416.0</ele>
        <time>2013-09-04T13:06:44Z</time>
      </trkpt>
      <trkpt lat="43.049867" lon="-4.716683">
        <ele>2417.0</ele>
        <time>2013-09-04T13:06:45Z</time>
      </trkpt>
      <trkpt lat="43.049833" lon="-4.716817">
        <ele>2419.0</ele>
        <time>2013-09-04T13:06:46Z</time>
      </trkpt>
      <trkpt lat="43.049783" lon="-4.716917">
        <ele>2419.0</ele>
        <time>2013-09-04T13:06:47Z</time>
      </trkpt>
      <trkpt lat="43.049700" lon="-4.716983">
        <ele>2420.0</ele>
        <time>2013-09-04T13:06:48Z</time>
      </trkpt>
      <trkpt lat="43.049600" lon="-4.717033">
        <ele>2420.0</ele>
        <time>2013-09-04T13:06:49Z</time>
      </trkpt>
      <trkpt lat="43.049500" lon="-4.717067">
        <ele>2420.0</ele>
        <time>2013-09-04T13:06:50Z</time>
      </trkpt>
      <trkpt lat="43.049417" lon="-4.717083">
        <ele>2421.0</ele>
        <time>2013-09-04T13:06:51Z</time>
      </trkpt>
      <trkpt lat="43.049333" lon="-4.717100">
        <ele>2422.0</ele>
        <time>2013-09-04T13:06:52Z</time>
      </trkpt>
      <trkpt lat="43.049250" lon="-4.717083">
        <ele>2421.0</ele>
        <time>2013-09-04T13:06:53Z</time>
      </trkpt>
      <trkpt lat="43.049150" lon="-4.717083">
        <ele>2421.0</ele>
        <time>2013-09-04T13:06:54Z</time>
      </trkpt>
      <trkpt lat="43.049050" lon="-4.717067">
        <ele>2422.0</ele>
        <time>2013-09-04T13:06:55Z</time>
      </trkpt>
      <trkpt lat="43.048967" lon="-4.717033">
        <ele>2423.0</ele>
        <time>2013-09-04T13:06:56Z</time>
      </trkpt>
      <trkpt lat="43.048883" lon="-4.717000">
        <ele>2424.0</ele>
        <time>2013-09-04T13:06:57Z</time>
      </trkpt>
      <trkpt lat="43.048800" lon="-4.716950">
        <ele>2425.0</ele>
        <time>2013-09-04T13:06:58Z</time>
      </trkpt>
      <trkpt lat="43.048733" lon="-4.716917">
        <ele>2426.0</ele>
        <time>2013-09-04T13:06:59Z</time>
      </trkpt>
      <trkpt lat="43.048650" lon="-4.716867">
        <ele>2426.0</ele>
        <time>2013-09-04T13:07:00Z</time>
      </trkpt>
      <trkpt lat="43.048583" lon="-4.716817">
        <ele>2427.0</ele>
        <time>2013-09-04T13:07:01Z</time>
      </trkpt>
      <trkpt lat="43.048500" lon="-4.716783">
        <ele>2427.0</ele>
        <time>2013-09-04T13:07:02Z</time>
      </trkpt>
      <trkpt lat="43.048433" lon="-4.716733">
        <ele>2428.0</ele>
        <time>2013-09-04T13:07:03Z</time>
      </trkpt>
      <trkpt lat="43.048367" lon="-4.716683">
        <ele>2428.0</ele>
        <time>2013-09-04T13:07:04Z</time>
      </trkpt>
      <trkpt lat="43.048317" lon="-4.716617">
        <ele>2429.0</ele>
        <time>2013-09-04T13:07:05Z</time>
      </trkpt>
      <trkpt lat="43.048283" lon="-4.716550">
        <ele>2428.0</ele>
        <time>2013-09-04T13:07:06Z</time>
      </trkpt>
      <trkpt lat="43.048267" lon="-4.716467">
        <ele>2428.0</ele>
        <time>2013-09-04T13:07:07Z</time>
      </trkpt>
      <trkpt lat="43.048250" lon="-4.716367">
        <ele>2428.0</ele>
        <time>2013-09-04T13:07:08Z</time>
      </trkpt>
      <trkpt lat="43.048233" lon="-4.716267">
        <ele>2427.0</ele>
        <time>2013-09-04T13:07:09Z</time>
      </trkpt>
      <trkpt lat="43.048233" lon="-4.716183">
        <ele>2428.0</ele>
        <time>2013-09-04T13:07:10Z</time>
      </trkpt>
      <trkpt lat="43.048233" lon="-4.716100">
        <ele>2429.0</ele>
        <time>2013-09-04T13:07:11Z</time>
      </trkpt>
      <trkpt lat="43.048217" lon="-4.716033">
        <ele>2431.0</ele>
        <time>2013-09-04T13:07:12Z</time>
      </trkpt>
      <trkpt lat="43.048200" lon="-4.715983">
        <ele>2432.0</ele>
        <time>2013-09-04T13:07:13Z</time>
      </trkpt>
      <trkpt lat="43.048183" lon="-4.715917">
        <ele>2433.0</ele>
        <time>2013-09-04T13:07:14Z</time>
      </trkpt>
      <trkpt lat="43.048183" lon="-4.715850">
        <ele>2434.0</ele>
        <time>2013-09-04T13:07:15Z</time>
      </trkpt>
      <trkpt lat="43.048200" lon="-4.715783">
        <ele>2435.0</ele>
        <time>2013-09-04T13:07:16Z</time>
      </trkpt>
      <trkpt lat="43.048217" lon="-4.715733">
        <ele>2436.0</ele>
        <time>2013-09-04T13:07:17Z</time>
      </trkpt>
      <trkpt lat="43.048233" lon="-4.715683">
        <ele>2437.0</ele>
        <time>2013-09-04T13:07:18Z</time>
      </trkpt>
      <trkpt lat="43.048283" lon="-4.715633">
        <ele>2437.0</ele>
        <time>2013-09-04T13:07:19Z</time>
      </trkpt>
      <trkpt lat="43.048333" lon="-4.715600">
        <ele>2437.0</ele>
        <time>2013-09-04T13:07:20Z</time>
      </trkpt>
      <trkpt lat="43.048400" lon="-4.715583">
        <ele>2437.0</ele>
        <time>2013-09-04T13:07:21Z</time>
      </trkpt>
      <trkpt lat="43.048483" lon="-4.715600">
        <ele>2437.0</ele>
        <time>2013-09-04T13:07:22Z</time>
      </trkpt>
      <trkpt lat="43.048583" lon="-4.715650">
        <ele>2438.0</ele>
        <time>2013-09-04T13:07:23Z</time>
      </trkpt>
      <trkpt lat="43.048650" lon="-4.715750">
        <ele>2440.0</ele>
        <time>2013-09-04T13:07:24Z</time>
      </trkpt>
      <trkpt lat="43.048683" lon="-4.715850">
        <ele>2441.0</ele>
        <time>2013-09-04T13:07:25Z</time>
      </trkpt>
      <trkpt lat="43.048667" lon="-4.715983">
        <ele>2442.0</ele>
        <time>2013-09-04T13:07:26Z</time>
      </trkpt>
      <trkpt lat="43.048650" lon="-4.716100">
        <ele>2443.0</ele>
        <time>2013-09-04T13:07:27Z</time>
      </trkpt>
      <trkpt lat="43.048633" lon="-4.716233">
        <ele>2443.0</ele>
        <time>2013-09-04T13:07:28Z</time>
      </trkpt>
      <trkpt lat="43.048600" lon="-4.716367">
        <ele>2444.0</ele>
        <time>2013-09-04T13:07:29Z</time>
      </trkpt>
      <trkpt lat="43.048567" lon="-4.716483">
        <ele>2445.0</ele>
        <time>2013-09-04T13:07:30Z</time>
      </trkpt>
      <trkpt lat="43.048550" lon="-4.716600">
        <ele>2446.0</ele>
        <time>2013-09-04T13:07:31Z</time>
      </trkpt>
      <trkpt lat="43.048500" lon="-4.716717">
        <ele>2447.0</ele>
        <time>2013-09-04T13:07:32Z</time>
      </trkpt>
      <trkpt lat="43.048483" lon="-4.716833">
        <ele>2447.0</ele>
        <time>2013-09-04T13:07:33Z</time>
      </trkpt>
      <trkpt lat="43.048450" lon="-4.716933">
        <ele>2447.0</ele>
        <time>2013-09-04T13:07:34Z</time>
      </trkpt>
      <trkpt lat="43.048433" lon="-4.717050">
        <ele>2446.0</ele>
        <time>2013-09-04T13:07:35Z</time>
      </trkpt>
      <trkpt lat="43.048400" lon="-4.717183">
        <ele>2444.0</ele>
        <time>2013-09-04T13:07:36Z</time>
      </trkpt>
      <trkpt lat="43.048350" lon="-4.717300">
        <ele>2444.0</ele>
        <time>2013-09-04T13:07:37Z</time>
      </trkpt>
      <trkpt lat="43.048317" lon="-4.717417">
        <ele>2444.0</ele>
        <time>2013-09-04T13:07:38Z</time>
      </trkpt>
      <trkpt lat="43.048283" lon="-4.717517">
        <ele>2444.0</ele>
        <time>2013-09-04T13:07:39Z</time>
      </trkpt>
      <trkpt lat="43.048250" lon="-4.717617">
        <ele>2443.0</ele>
        <time>2013-09-04T13:07:40Z</time>
      </trkpt>
      <trkpt lat="43.048217" lon="-4.717733">
        <ele>2442.0</ele>
        <time>2013-09-04T13:07:41Z</time>
      </trkpt>
      <trkpt lat="43.048167" lon="-4.717833">
        <ele>2440.0</ele>
        <time>2013-09-04T13:07:42Z</time>
      </trkpt>
      <trkpt lat="43.048117" lon="-4.717950">
        <ele>2440.0</ele>
        <time>2013-09-04T13:07:43Z</time>
      </trkpt>
      <trkpt lat="43.048067" lon="-4.718050">
        <ele>2440.0</ele>
        <time>2013-09-04T13:07:44Z</time>
      </trkpt>
      <trkpt lat="43.048050" lon="-4.718167">
        <ele>2440.0</ele>
        <time>2013-09-04T13:07:45Z</time>
      </trkpt>
      <trkpt lat="43.048017" lon="-4.718267">
        <ele>2440.0</ele>
        <time>2013-09-04T13:07:46Z</time>
      </trkpt>
      <trkpt lat="43.048000" lon="-4.718383">
        <ele>2439.0</ele>
        <time>2013-09-04T13:07:47Z</time>
      </trkpt>
      <trkpt lat="43.047983" lon="-4.718500">
        <ele>2438.0</ele>
        <time>2013-09-04T13:07:48Z</time>
      </trkpt>
      <trkpt lat="43.047967" lon="-4.718633">
        <ele>2437.0</ele>
        <time>2013-09-04T13:07:49Z</time>
      </trkpt>
      <trkpt lat="43.047967" lon="-4.718767">
        <ele>2437.0</ele>
        <time>2013-09-04T13:07:50Z</time>
      </trkpt>
      <trkpt lat="43.047967" lon="-4.718900">
        <ele>2436.0</ele>
        <time>2013-09-04T13:07:51Z</time>
      </trkpt>
      <trkpt lat="43.047967" lon="-4.719033">
        <ele>2436.0</ele>
        <time>2013-09-04T13:07:52Z</time>
      </trkpt>
      <trkpt lat="43.047967" lon="-4.719150">
        <ele>2435.0</ele>
        <time>2013-09-04T13:07:53Z</time>
      </trkpt>
      <trkpt lat="43.047967" lon="-4.719283">
        <ele>2434.0</ele>
        <time>2013-09-04T13:07:54Z</time>
      </trkpt>
      <trkpt lat="43.047967" lon="-4.719417">
        <ele>2432.0</ele>
        <time>2013-09-04T13:07:55Z</time>
      </trkpt>
      <trkpt lat="43.047967" lon="-4.719533">
        <ele>2431.0</ele>
        <time>2013-09-04T13:07:56Z</time>
      </trkpt>
      <trkpt lat="43.047933" lon="-4.719650">
        <ele>2430.0</ele>
        <time>2013-09-04T13:07:57Z</time>
      </trkpt>
      <trkpt lat="43.047867" lon="-4.719750">
        <ele>2428.0</ele>
        <time>2013-09-04T13:07:58Z</time>
      </trkpt>
      <trkpt lat="43.047800" lon="-4.719800">
        <ele>2426.0</ele>
        <time>2013-09-04T13:07:59Z</time>
      </trkpt>
      <trkpt lat="43.047717" lon="-4.719833">
        <ele>2423.0</ele>
        <time>2013-09-04T13:08:00Z</time>
      </trkpt>
      <trkpt lat="43.047633" lon="-4.719833">
        <ele>2421.0</ele>
        <time>2013-09-04T13:08:01Z</time>
      </trkpt>
      <trkpt lat="43.047567" lon="-4.719767">
        <ele>2419.0</ele>
        <time>2013-09-04T13:08:02Z</time>
      </trkpt>
      <trkpt lat="43.047533" lon="-4.719683">
        <ele>2417.0</ele>
        <time>2013-09-04T13:08:03Z</time>
      </trkpt>
      <trkpt lat="43.047517" lon="-4.719583">
        <ele>2415.0</ele>
        <time>2013-09-04T13:08:04Z</time>
      </trkpt>
      <trkpt lat="43.047500" lon="-4.719467">
        <ele>2412.0</ele>
        <time>2013-09-04T13:08:05Z</time>
      </trkpt>
      <trkpt lat="43.047500" lon="-4.719333">
        <ele>2411.0</ele>
        <time>2013-09-04T13:08:06Z</time>
      </trkpt>
      <trkpt lat="43.047517" lon="-4.719217">
        <ele>2411.0</ele>
        <time>2013-09-04T13:08:07Z</time>
      </trkpt>
      <trkpt lat="43.047550" lon="-4.719117">
        <ele>2412.0</ele>
        <time>2013-09-04T13:08:08Z</time>
      </trkpt>
      <trkpt lat="43.047600" lon="-4.719033">
        <ele>2412.0</ele>
        <time>2013-09-04T13:08:09Z</time>
      </trkpt>
      <trkpt lat="43.047633" lon="-4.718967">
        <ele>2413.0</ele>
        <time>2013-09-04T13:08:10Z</time>
      </trkpt>
      <trkpt lat="43.047650" lon="-4.718917">
        <ele>2412.0</ele>
        <time>2013-09-04T13:08:11Z</time>
      </trkpt>
      <trkpt lat="43.047683" lon="-4.718867">
        <ele>2410.0</ele>
        <time>2013-09-04T13:08:12Z</time>
      </trkpt>
      <trkpt lat="43.047700" lon="-4.718817">
        <ele>2407.0</ele>
        <time>2013-09-04T13:08:13Z</time>
      </trkpt>
      <trkpt lat="43.047733" lon="-4.718750">
        <ele>2404.0</ele>
        <time>2013-09-04T13:08:14Z</time>
      </trkpt>
      <trkpt lat="43.047767" lon="-4.718667">
        <ele>2401.0</ele>
        <time>2013-09-04T13:08:15Z</time>
      </trkpt>
      <trkpt lat="43.047800" lon="-4.718567">
        <ele>2398.0</ele>
        <time>2013-09-04T13:08:16Z</time>
      </trkpt>
      <trkpt lat="43.047833" lon="-4.718483">
        <ele>2395.0</ele>
        <time>2013-09-04T13:08:17Z</time>
      </trkpt>
      <trkpt lat="43.047850" lon="-4.718383">
        <ele>2393.0</ele>
        <time>2013-09-04T13:08:18Z</time>
      </trkpt>
      <trkpt lat="43.047883" lon="-4.718300">
        <ele>2391.0</ele>
        <time>2013-09-04T13:08:19Z</time>
      </trkpt>
      <trkpt lat="43.047933" lon="-4.718233">
        <ele>2388.0</ele>
        <time>2013-09-04T13:08:20Z</time>
      </trkpt>
      <trkpt lat="43.047983" lon="-4.718167">
        <ele>2385.0</ele>
        <time>2013-09-04T13:08:21Z</time>
      </trkpt>
      <trkpt lat="43.048050" lon="-4.718100">
        <ele>2381.0</ele>
        <time>2013-09-04T13:08:22Z</time>
      </trkpt>
      <trkpt lat="43.048117" lon="-4.718017">
        <ele>2379.0</ele>
        <time>2013-09-04T13:08:23Z</time>
      </trkpt>
      <trkpt lat="43.048183" lon="-4.717933">
        <ele>2376.0</ele>
        <time>2013-09-04T13:08:24Z</time>
      </trkpt>
      <trkpt lat="43.048250" lon="-4.717833">
        <ele>2374.0</ele>
        <time>2013-09-04T13:08:25Z</time>
      </trkpt>
      <trkpt lat="43.048300" lon="-4.717733">
        <ele>2373.0</ele>
        <time>2013-09-04T13:08:26Z</time>
      </trkpt>
      <trkpt lat="43.048350" lon="-4.717650">
        <ele>2372.0</ele>
        <time>2013-09-04T13:08:27Z</time>
      </trkpt>
      <trkpt lat="43.048400" lon="-4.717583">
        <ele>2370.0</ele>
        <time>2013-09-04T13:08:28Z</time>
      </trkpt>
      <trkpt lat="43.048467" lon="-4.717500">
        <ele>2367.0</ele>
        <time>2013-09-04T13:08:29Z</time>
      </trkpt>
      <trkpt lat="43.048517" lon="-4.717417">
        <ele>2364.0</ele>
        <time>2013-09-04T13:08:30Z</time>
      </trkpt>
      <trkpt lat="43.048567" lon="-4.717317">
        <ele>2361.0</ele>
        <time>2013-09-04T13:08:31Z</time>
      </trkpt>
      <trkpt lat="43.048633" lon="-4.717200">
        <ele>2359.0</ele>
        <time>2013-09-04T13:08:32Z</time>
      </trkpt>
      <trkpt lat="43.048667" lon="-4.717100">
        <ele>2358.0</ele>
        <time>2013-09-04T13:08:33Z</time>
      </trkpt>
      <trkpt lat="43.048717" lon="-4.717000">
        <ele>2358.0</ele>
        <time>2013-09-04T13:08:34Z</time>
      </trkpt>
      <trkpt lat="43.048750" lon="-4.716917">
        <ele>2358.0</ele>
        <time>2013-09-04T13:08:35Z</time>
      </trkpt>
      <trkpt lat="43.048783" lon="-4.716850">
        <ele>2357.0</ele>
        <time>2013-09-04T13:08:36Z</time>
      </trkpt>
      <trkpt lat="43.048833" lon="-4.716783">
        <ele>2355.0</ele>
        <time>2013-09-04T13:08:37Z</time>
      </trkpt>
      <trkpt lat="43.048900" lon="-4.716733">
        <ele>2352.0</ele>
        <time>2013-09-04T13:08:38Z</time>
      </trkpt>
      <trkpt lat="43.048967" lon="-4.716667">
        <ele>2350.0</ele>
        <time>2013-09-04T13:08:39Z</time>
      </trkpt>
      <trkpt lat="43.049033" lon="-4.716583">
        <ele>2347.0</ele>
        <time>2013-09-04T13:08:40Z</time>
      </trkpt>
      <trkpt lat="43.049117" lon="-4.716483">
        <ele>2346.0</ele>
        <time>2013-09-04T13:08:41Z</time>
      </trkpt>
      <trkpt lat="43.049183" lon="-4.716400">
        <ele>2346.0</ele>
        <time>2013-09-04T13:08:42Z</time>
      </trkpt>
      <trkpt lat="43.049250" lon="-4.716317">
        <ele>2349.0</ele>
        <time>2013-09-04T13:08:43Z</time>
      </trkpt>
      <trkpt lat="43.049300" lon="-4.716250">
        <ele>2352.0</ele>
        <time>2013-09-04T13:08:44Z</time>
      </trkpt>
      <trkpt lat="43.049350" lon="-4.716217">
        <ele>2354.0</ele>
        <time>2013-09-04T13:08:45Z</time>
      </trkpt>
      <trkpt lat="43.049383" lon="-4.716167">
        <ele>2354.0</ele>
        <time>2013-09-04T13:08:46Z</time>
      </trkpt>
      <trkpt lat="43.049433" lon="-4.716133">
        <ele>2355.0</ele>
        <time>2013-09-04T13:08:47Z</time>
      </trkpt>
      <trkpt lat="43.049483" lon="-4.716100">
        <ele>2354.0</ele>
        <time>2013-09-04T13:08:48Z</time>
      </trkpt>
      <trkpt lat="43.049533" lon="-4.716033">
        <ele>2353.0</ele>
        <time>2013-09-04T13:08:49Z</time>
      </trkpt>
      <trkpt lat="43.049583" lon="-4.715950">
        <ele>2353.0</ele>
        <time>2013-09-04T13:08:50Z</time>
      </trkpt>
      <trkpt lat="43.049633" lon="-4.715867">
        <ele>2354.0</ele>
        <time>2013-09-04T13:08:51Z</time>
      </trkpt>
      <trkpt lat="43.049683" lon="-4.715767">
        <ele>2354.0</ele>
        <time>2013-09-04T13:08:52Z</time>
      </trkpt>
      <trkpt lat="43.049750" lon="-4.715667">
        <ele>2355.0</ele>
        <time>2013-09-04T13:08:53Z</time>
      </trkpt>
      <trkpt lat="43.049800" lon="-4.715567">
        <ele>2357.0</ele>
        <time>2013-09-04T13:08:54Z</time>
      </trkpt>
      <trkpt lat="43.049850" lon="-4.715467">
        <ele>2360.0</ele>
        <time>2013-09-04T13:08:55Z</time>
      </trkpt>
      <trkpt lat="43.049900" lon="-4.715383">
        <ele>2363.0</ele>
        <time>2013-09-04T13:08:56Z</time>
      </trkpt>
      <trkpt lat="43.049933" lon="-4.715317">
        <ele>2367.0</ele>
        <time>2013-09-04T13:08:57Z</time>
      </trkpt>
      <trkpt lat="43.049967" lon="-4.715250">
        <ele>2371.0</ele>
        <time>2013-09-04T13:08:58Z</time>
      </trkpt>
      <trkpt lat="43.050000" lon="-4.715217">
        <ele>2374.0</ele>
        <time>2013-09-04T13:08:59Z</time>
      </trkpt>
      <trkpt lat="43.050050" lon="-4.715183">
        <ele>2376.0</ele>
        <time>2013-09-04T13:09:00Z</time>
      </trkpt>
      <trkpt lat="43.050100" lon="-4.715150">
        <ele>2378.0</ele>
        <time>2013-09-04T13:09:01Z</time>
      </trkpt>
      <trkpt lat="43.050183" lon="-4.715150">
        <ele>2379.0</ele>
        <time>2013-09-04T13:09:02Z</time>
      </trkpt>
      <trkpt lat="43.050267" lon="-4.715183">
        <ele>2380.0</ele>
        <time>2013-09-04T13:09:03Z</time>
      </trkpt>
      <trkpt lat="43.050333" lon="-4.715300">
        <ele>2382.0</ele>
        <time>2013-09-04T13:09:04Z</time>
      </trkpt>
      <trkpt lat="43.050350" lon="-4.715433">
        <ele>2384.0</ele>
        <time>2013-09-04T13:09:05Z</time>
      </trkpt>
      <trkpt lat="43.050333" lon="-4.715583">
        <ele>2386.0</ele>
        <time>2013-09-04T13:09:06Z</time>
      </trkpt>
      <trkpt lat="43.050300" lon="-4.715717">
        <ele>2389.0</ele>
        <time>2013-09-04T13:09:07Z</time>
      </trkpt>
      <trkpt lat="43.050233" lon="-4.715800">
        <ele>2392.0</ele>
        <time>2013-09-04T13:09:08Z</time>
      </trkpt>
      <trkpt lat="43.050167" lon="-4.715833">
        <ele>2395.0</ele>
        <time>2013-09-04T13:09:09Z</time>
      </trkpt>
      <trkpt lat="43.050100" lon="-4.715850">
        <ele>2396.0</ele>
        <time>2013-09-04T13:09:10Z</time>
      </trkpt>
      <trkpt lat="43.050033" lon="-4.715867">
        <ele>2397.0</ele>
        <time>2013-09-04T13:09:11Z</time>
      </trkpt>
      <trkpt lat="43.049950" lon="-4.715867">
        <ele>2398.0</ele>
        <time>2013-09-04T13:09:12Z</time>
      </trkpt>
      <trkpt lat="43.049867" lon="-4.715833">
        <ele>2400.0</ele>
        <time>2013-09-04T13:09:13Z</time>
      </trkpt>
      <trkpt lat="43.049817" lon="-4.715767">
        <ele>2401.0</ele>
        <time>2013-09-04T13:09:14Z</time>
      </trkpt>
      <trkpt lat="43.049767" lon="-4.715667">
        <ele>2403.0</ele>
        <time>2013-09-04T13:09:15Z</time>
      </trkpt>
      <trkpt lat="43.049733" lon="-4.715567">
        <ele>2405.0</ele>
        <time>2013-09-04T13:09:16Z</time>
      </trkpt>
      <trkpt lat="43.049683" lon="-4.715483">
        <ele>2409.0</ele>
        <time>2013-09-04T13:09:17Z</time>
      </trkpt>
      <trkpt lat="43.049667" lon="-4.715400">
        <ele>2413.0</ele>
        <time>2013-09-04T13:09:18Z</time>
      </trkpt>
      <trkpt lat="43.049683" lon="-4.715333">
        <ele>2416.0</ele>
        <time>2013-09-04T13:09:19Z</time>
      </trkpt>
      <trkpt lat="43.049717" lon="-4.715250">
        <ele>2417.0</ele>
        <time>2013-09-04T13:09:20Z</time>
      </trkpt>
      <trkpt lat="43.049767" lon="-4.715183">
        <ele>2419.0</ele>
        <time>2013-09-04T13:09:21Z</time>
      </trkpt>
      <trkpt lat="43.049817" lon="-4.715100">
        <ele>2420.0</ele>
        <time>2013-09-04T13:09:22Z</time>
      </trkpt>
      <trkpt lat="43.049883" lon="-4.715033">
        <ele>2420.0</ele>
        <time>2013-09-04T13:09:23Z</time>
      </trkpt>
      <trkpt lat="43.049950" lon="-4.715017">
        <ele>2420.0</ele>
        <time>2013-09-04T13:09:24Z</time>
      </trkpt>
      <trkpt lat="43.050033" lon="-4.715033">
        <ele>2418.0</ele>
        <time>2013-09-04T13:09:25Z</time>
      </trkpt>
      <trkpt lat="43.050117" lon="-4.715117">
        <ele>2418.0</ele>
        <time>2013-09-04T13:09:26Z</time>
      </trkpt>
      <trkpt lat="43.050167" lon="-4.715233">
        <ele>2417.0</ele>
        <time>2013-09-04T13:09:27Z</time>
      </trkpt>
      <trkpt lat="43.050200" lon="-4.715367">
        <ele>2417.0</ele>
        <time>2013-09-04T13:09:28Z</time>
      </trkpt>
      <trkpt lat="43.050217" lon="-4.715500">
        <ele>2417.0</ele>
        <time>2013-09-04T13:09:29Z</time>
      </trkpt>
      <trkpt lat="43.050217" lon="-4.715633">
        <ele>2418.0</ele>
        <time>2013-09-04T13:09:30Z</time>
      </trkpt>
      <trkpt lat="43.050200" lon="-4.715767">
        <ele>2420.0</ele>
        <time>2013-09-04T13:09:31Z</time>
      </trkpt>
      <trkpt lat="43.050167" lon="-4.715883">
        <ele>2423.0</ele>
        <time>2013-09-04T13:09:32Z</time>
      </trkpt>
      <trkpt lat="43.050117" lon="-4.715983">
        <ele>2425.0</ele>
        <time>2013-09-04T13:09:33Z</time>
      </trkpt>
      <trkpt lat="43.050067" lon="-4.716083">
        <ele>2428.0</ele>
        <time>2013-09-04T13:09:34Z</time>
      </trkpt>
      <trkpt lat="43.050017" lon="-4.716150">
        <ele>2430.0</ele>
        <time>2013-09-04T13:09:35Z</time>
      </trkpt>
      <trkpt lat="43.049950" lon="-4.716233">
        <ele>2432.0</ele>
        <time>2013-09-04T13:09:36Z</time>
      </trkpt>
      <trkpt lat="43.049867" lon="-4.716300">
        <ele>2434.0</ele>
        <time>2013-09-04T13:09:37Z</time>
      </trkpt>
      <trkpt lat="43.049800" lon="-4.716333">
        <ele>2435.0</ele>
        <time>2013-09-04T13:09:38Z</time>
      </trkpt>
      <trkpt lat="43.049717" lon="-4.716367">
        <ele>2436.0</ele>
        <time>2013-09-04T13:09:39Z</time>
      </trkpt>
      <trkpt lat="43.049633" lon="-4.716367">
        <ele>2437.0</ele>
        <time>2013-09-04T13:09:40Z</time>
      </trkpt>
      <trkpt lat="43.049550" lon="-4.716350">
        <ele>2437.0</ele>
        <time>2013-09-04T13:09:41Z</time>
      </trkpt>
      <trkpt lat="43.049483" lon="-4.716283">
        <ele>2437.0</ele>
        <time>2013-09-04T13:09:42Z</time>
      </trkpt>
      <trkpt lat="43.049433" lon="-4.716217">
        <ele>2436.0</ele>
        <time>2013-09-04T13:09:43Z</time>
      </trkpt>
      <trkpt lat="43.049417" lon="-4.716100">
        <ele>2435.0</ele>
        <time>2013-09-04T13:09:44Z</time>
      </trkpt>
      <trkpt lat="43.049417" lon="-4.715967">
        <ele>2435.0</ele>
        <time>2013-09-04T13:09:45Z</time>
      </trkpt>
      <trkpt lat="43.049467" lon="-4.715850">
        <ele>2435.0</ele>
        <time>2013-09-04T13:09:46Z</time>
      </trkpt>
      <trkpt lat="43.049517" lon="-4.715750">
        <ele>2435.0</ele>
        <time>2013-09-04T13:09:47Z</time>
      </trkpt>
      <trkpt lat="43.049567" lon="-4.715650">
        <ele>2435.0</ele>
        <time>2013-09-04T13:09:48Z</time>
      </trkpt>
      <trkpt lat="43.049617" lon="-4.715567">
        <ele>2437.0</ele>
        <time>2013-09-04T13:09:49Z</time>
      </trkpt>
      <trkpt lat="43.049667" lon="-4.715467">
        <ele>2439.0</ele>
        <time>2013-09-04T13:09:50Z</time>
      </trkpt>
      <trkpt lat="43.049733" lon="-4.715400">
        <ele>2440.0</ele>
        <time>2013-09-04T13:09:51Z</time>
      </trkpt>
      <trkpt lat="43.049783" lon="-4.715333">
        <ele>2441.0</ele>
        <time>2013-09-04T13:09:52Z</time>
      </trkpt>
      <trkpt lat="43.049833" lon="-4.715300">
        <ele>2442.0</ele>
        <time>2013-09-04T13:09:53Z</time>
      </trkpt>
      <trkpt lat="43.049883" lon="-4.715267">
        <ele>2443.0</ele>
        <time>2013-09-04T13:09:54Z</time>
      </trkpt>
      <trkpt lat="43.049950" lon="-4.715217">
        <ele>2442.0</ele>
        <time>2013-09-04T13:09:55Z</time>
      </trkpt>
      <trkpt lat="43.050017" lon="-4.715150">
        <ele>2441.0</ele>
        <time>2013-09-04T13:09:56Z</time>
      </trkpt>
      <trkpt lat="43.050083" lon="-4.715100">
        <ele>2441.0</ele>
        <time>2013-09-04T13:09:57Z</time>
      </trkpt>
      <trkpt lat="43.050150" lon="-4.715033">
        <ele>2440.0</ele>
        <time>2013-09-04T13:09:58Z</time>
      </trkpt>
      <trkpt lat="43.050217" lon="-4.714983">
        <ele>2440.0</ele>
        <time>2013-09-04T13:09:59Z</time>
      </trkpt>
      <trkpt lat="43.050300" lon="-4.714933">
        <ele>2440.0</ele>
        <time>2013-09-04T13:10:00Z</time>
      </trkpt>
      <trkpt lat="43.050367" lon="-4.714883">
        <ele>2440.0</ele>
        <time>2013-09-04T13:10:01Z</time>
      </trkpt>
      <trkpt lat="43.050433" lon="-4.714800">
        <ele>2439.0</ele>
        <time>2013-09-04T13:10:02Z</time>
      </trkpt>
      <trkpt lat="43.050483" lon="-4.714717">
        <ele>2438.0</ele>
        <time>2013-09-04T13:10:03Z</time>
      </trkpt>
      <trkpt lat="43.050550" lon="-4.714617">
        <ele>2438.0</ele>
        <time>2013-09-04T13:10:04Z</time>
      </trkpt>
      <trkpt lat="43.050600" lon="-4.714533">
        <ele>2438.0</ele>
        <time>2013-09-04T13:10:05Z</time>
      </trkpt>
      <trkpt lat="43.050667" lon="-4.714450">
        <ele>2437.0</ele>
        <time>2013-09-04T13:10:06Z</time>
      </trkpt>
      <trkpt lat="43.050750" lon="-4.714383">
        <ele>2437.0</ele>
        <time>2013-09-04T13:10:07Z</time>
      </trkpt>
      <trkpt lat="43.050817" lon="-4.714300">
        <ele>2438.0</ele>
        <time>2013-09-04T13:10:08Z</time>
      </trkpt>
      <trkpt lat="43.050883" lon="-4.714233">
        <ele>2438.0</ele>
        <time>2013-09-04T13:10:09Z</time>
      </trkpt>
      <trkpt lat="43.050933" lon="-4.714150">
        <ele>2438.0</ele>
        <time>2013-09-04T13:10:10Z</time>
      </trkpt>
      <trkpt lat="43.051000" lon="-4.714067">
        <ele>2437.0</ele>
        <time>2013-09-04T13:10:11Z</time>
      </trkpt>
      <trkpt lat="43.051050" lon="-4.713983">
        <ele>2437.0</ele>
        <time>2013-09-04T13:10:12Z</time>
      </trkpt>
      <trkpt lat="43.051133" lon="-4.713900">
        <ele>2436.0</ele>
        <time>2013-09-04T13:10:13Z</time>
      </trkpt>
      <trkpt lat="43.051217" lon="-4.713833">
        <ele>2436.0</ele>
        <time>2013-09-04T13:10:14Z</time>
      </trkpt>
      <trkpt lat="43.051300" lon="-4.713783">
        <ele>2435.0</ele>
        <time>2013-09-04T13:10:15Z</time>
      </trkpt>
      <trkpt lat="43.051400" lon="-4.713717">
        <ele>2434.0</ele>
        <time>2013-09-04T13:10:16Z</time>
      </trkpt>
      <trkpt lat="43.051483" lon="-4.713650">
        <ele>2433.0</ele>
        <time>2013-09-04T13:10:17Z</time>
      </trkpt>
      <trkpt lat="43.051583" lon="-4.713583">
        <ele>2434.0</ele>
        <time>2013-09-04T13:10:18Z</time>
      </trkpt>
      <trkpt lat="43.051667" lon="-4.713517">
        <ele>2434.0</ele>
        <time>2013-09-04T13:10:19Z</time>
      </trkpt>
      <trkpt lat="43.051750" lon="-4.713450">
        <ele>2434.0</ele>
        <time>2013-09-04T13:10:20Z</time>
      </trkpt>
      <trkpt lat="43.051833" lon="-4.713400">
        <ele>2435.0</ele>
        <time>2013-09-04T13:10:21Z</time>
      </trkpt>
      <trkpt lat="43.051900" lon="-4.713367">
        <ele>2435.0</ele>
        <time>2013-09-04T13:10:22Z</time>
      </trkpt>
      <trkpt lat="43.051983" lon="-4.713317">
        <ele>2435.0</ele>
        <time>2013-09-04T13:10:23Z</time>
      </trkpt>
      <trkpt lat="43.052050" lon="-4.713283">
        <ele>2435.0</ele>
        <time>2013-09-04T13:10:24Z</time>
      </trkpt>
      <trkpt lat="43.052133" lon="-4.713250">
        <ele>2435.0</ele>
        <time>2013-09-04T13:10:25Z</time>
      </trkpt>
      <trkpt lat="43.052217" lon="-4.713233">
        <ele>2434.0</ele>
        <time>2013-09-04T13:10:26Z</time>
      </trkpt>
      <trkpt lat="43.052317" lon="-4.713200">
        <ele>2434.0</ele>
        <time>2013-09-04T13:10:27Z</time>
      </trkpt>
      <trkpt lat="43.052417" lon="-4.713150">
        <ele>2432.0</ele>
        <time>2013-09-04T13:10:28Z</time>
      </trkpt>
      <trkpt lat="43.052533" lon="-4.713117">
        <ele>2431.0</ele>
        <time>2013-09-04T13:10:29Z</time>
      </trkpt>
      <trkpt lat="43.052650" lon="-4.713083">
        <ele>2431.0</ele>
        <time>2013-09-04T13:10:30Z</time>
      </trkpt>
      <trkpt lat="43.052783" lon="-4.713067">
        <ele>2432.0</ele>
        <time>2013-09-04T13:10:31Z</time>
      </trkpt>
      <trkpt lat="43.052900" lon="-4.713067">
        <ele>2434.0</ele>
        <time>2013-09-04T13:10:32Z</time>
      </trkpt>
      <trkpt lat="43.053017" lon="-4.713083">
        <ele>2436.0</ele>
        <time>2013-09-04T13:10:33Z</time>
      </trkpt>
      <trkpt lat="43.053117" lon="-4.713100">
        <ele>2438.0</ele>
        <time>2013-09-04T13:10:34Z</time>
      </trkpt>
      <trkpt lat="43.053200" lon="-4.713117">
        <ele>2440.0</ele>
        <time>2013-09-04T13:10:35Z</time>
      </trkpt>
      <trkpt lat="43.053300" lon="-4.713117">
        <ele>2440.0</ele>
        <time>2013-09-04T13:10:36Z</time>
      </trkpt>
      <trkpt lat="43.053383" lon="-4.713133">
        <ele>2441.0</ele>
        <time>2013-09-04T13:10:37Z</time>
      </trkpt>
      <trkpt lat="43.053483" lon="-4.713150">
        <ele>2441.0</ele>
        <time>2013-09-04T13:10:38Z</time>
      </trkpt>
      <trkpt lat="43.053567" lon="-4.713200">
        <ele>2441.0</ele>
        <time>2013-09-04T13:10:39Z</time>
      </trkpt>
      <trkpt lat="43.053650" lon="-4.713283">
        <ele>2440.0</ele>
        <time>2013-09-04T13:10:40Z</time>
      </trkpt>
      <trkpt lat="43.053733" lon="-4.713400">
        <ele>2439.0</ele>
        <time>2013-09-04T13:10:41Z</time>
      </trkpt>
      <trkpt lat="43.053800" lon="-4.713517">
        <ele>2438.0</ele>
        <time>2013-09-04T13:10:42Z</time>
      </trkpt>
      <trkpt lat="43.053850" lon="-4.713667">
        <ele>2438.0</ele>
        <time>2013-09-04T13:10:43Z</time>
      </trkpt>
      <trkpt lat="43.053900" lon="-4.713800">
        <ele>2437.0</ele>
        <time>2013-09-04T13:10:44Z</time>
      </trkpt>
      <trkpt lat="43.053933" lon="-4.713950">
        <ele>2437.0</ele>
        <time>2013-09-04T13:10:45Z</time>
      </trkpt>
      <trkpt lat="43.053983" lon="-4.714083">
        <ele>2438.0</ele>
        <time>2013-09-04T13:10:46Z</time>
      </trkpt>
      <trkpt lat="43.054017" lon="-4.714217">
        <ele>2438.0</ele>
        <time>2013-09-04T13:10:47Z</time>
      </trkpt>
      <trkpt lat="43.054033" lon="-4.714350">
        <ele>2437.0</ele>
        <time>2013-09-04T13:10:48Z</time>
      </trkpt>
      <trkpt lat="43.054050" lon="-4.714483">
        <ele>2436.0</ele>
        <time>2013-09-04T13:10:49Z</time>
      </trkpt>
      <trkpt lat="43.054033" lon="-4.714617">
        <ele>2435.0</ele>
        <time>2013-09-04T13:10:50Z</time>
      </trkpt>
      <trkpt lat="43.054017" lon="-4.714750">
        <ele>2433.0</ele>
        <time>2013-09-04T13:10:51Z</time>
      </trkpt>
      <trkpt lat="43.054000" lon="-4.714917">
        <ele>2432.0</ele>
        <time>2013-09-04T13:10:52Z</time>
      </trkpt>
      <trkpt lat="43.053983" lon="-4.715083">
        <ele>2433.0</ele>
        <time>2013-09-04T13:10:53Z</time>
      </trkpt>
      <trkpt lat="43.053967" lon="-4.715250">
        <ele>2435.0</ele>
        <time>2013-09-04T13:10:54Z</time>
      </trkpt>
      <trkpt lat="43.053983" lon="-4.715367">
        <ele>2437.0</ele>
        <time>2013-09-04T13:10:55Z</time>
      </trkpt>
      <trkpt lat="43.054017" lon="-4.715483">
        <ele>2439.0</ele>
        <time>2013-09-04T13:10:56Z</time>
      </trkpt>
      <trkpt lat="43.054033" lon="-4.715583">
        <ele>2440.0</ele>
        <time>2013-09-04T13:10:57Z</time>
      </trkpt>
      <trkpt lat="43.054050" lon="-4.715683">
        <ele>2441.0</ele>
        <time>2013-09-04T13:10:58Z</time>
      </trkpt>
      <trkpt lat="43.054067" lon="-4.715800">
        <ele>2441.0</ele>
        <time>2013-09-04T13:10:59Z</time>
      </trkpt>
      <trkpt lat="43.054100" lon="-4.715900">
        <ele>2441.0</ele>
        <time>2013-09-04T13:11:00Z</time>
      </trkpt>
      <trkpt lat="43.054133" lon="-4.716000">
        <ele>2440.0</ele>
        <time>2013-09-04T13:11:01Z</time>
      </trkpt>
      <trkpt lat="43.054200" lon="-4.716083">
        <ele>2440.0</ele>
        <time>2013-09-04T13:11:02Z</time>
      </trkpt>
      <trkpt lat="43.054283" lon="-4.716133">
        <ele>2440.0</ele>
        <time>2013-09-04T13:11:03Z</time>
      </trkpt>
      <trkpt lat="43.054367" lon="-4.716167">
        <ele>2441.0</ele>
        <time>2013-09-04T13:11:04Z</time>
      </trkpt>
      <trkpt lat="43.054450" lon="-4.716200">
        <ele>2441.0</ele>
        <time>2013-09-04T13:11:05Z</time>
      </trkpt>
      <trkpt lat="43.054517" lon="-4.716217">
        <ele>2442.0</ele>
        <time>2013-09-04T13:11:06Z</time>
      </trkpt>
      <trkpt lat="43.054600" lon="-4.716233">
        <ele>2442.0</ele>
        <time>2013-09-04T13:11:07Z</time>
      </trkpt>
      <trkpt lat="43.054683" lon="-4.716283">
        <ele>2442.0</ele>
        <time>2013-09-04T13:11:08Z</time>
      </trkpt>
      <trkpt lat="43.054750" lon="-4.716317">
        <ele>2442.0</ele>
        <time>2013-09-04T13:11:09Z</time>
      </trkpt>
      <trkpt lat="43.054850" lon="-4.716367">
        <ele>2441.0</ele>
        <time>2013-09-04T13:11:10Z</time>
      </trkpt>
      <trkpt lat="43.054933" lon="-4.716433">
        <ele>2441.0</ele>
        <time>2013-09-04T13:11:11Z</time>
      </trkpt>
      <trkpt lat="43.055000" lon="-4.716517">
        <ele>2442.0</ele>
        <time>2013-09-04T13:11:12Z</time>
      </trkpt>
      <trkpt lat="43.055067" lon="-4.716617">
        <ele>2443.0</ele>
        <time>2013-09-04T13:11:13Z</time>
      </trkpt>
      <trkpt lat="43.055117" lon="-4.716733">
        <ele>2443.0</ele>
        <time>2013-09-04T13:11:14Z</time>
      </trkpt>
      <trkpt lat="43.055150" lon="-4.716850">
        <ele>2443.0</ele>
        <time>2013-09-04T13:11:15Z</time>
      </trkpt>
      <trkpt lat="43.055167" lon="-4.716983">
        <ele>2443.0</ele>
        <time>2013-09-04T13:11:16Z</time>
      </trkpt>
      <trkpt lat="43.055183" lon="-4.717133">
        <ele>2443.0</ele>
        <time>2013-09-04T13:11:17Z</time>
      </trkpt>
      <trkpt lat="43.055183" lon="-4.717283">
        <ele>2443.0</ele>
        <time>2013-09-04T13:11:18Z</time>
      </trkpt>
      <trkpt lat="43.055183" lon="-4.717417">
        <ele>2443.0</ele>
        <time>2013-09-04T13:11:19Z</time>
      </trkpt>
      <trkpt lat="43.055183" lon="-4.717533">
        <ele>2443.0</ele>
        <time>2013-09-04T13:11:20Z</time>
      </trkpt>
      <trkpt lat="43.055200" lon="-4.717667">
        <ele>2442.0</ele>
        <time>2013-09-04T13:11:21Z</time>
      </trkpt>
      <trkpt lat="43.055183" lon="-4.717817">
        <ele>2440.0</ele>
        <time>2013-09-04T13:11:22Z</time>
      </trkpt>
      <trkpt lat="43.055167" lon="-4.717983">
        <ele>2439.0</ele>
        <time>2013-09-04T13:11:23Z</time>
      </trkpt>
      <trkpt lat="43.055150" lon="-4.718150">
        <ele>2438.0</ele>
        <time>2013-09-04T13:11:24Z</time>
      </trkpt>
      <trkpt lat="43.055133" lon="-4.718317">
        <ele>2438.0</ele>
        <time>2013-09-04T13:11:25Z</time>
      </trkpt>
      <trkpt lat="43.055117" lon="-4.718483">
        <ele>2440.0</ele>
        <time>2013-09-04T13:11:26Z</time>
      </trkpt>
      <trkpt lat="43.055100" lon="-4.718633">
        <ele>2441.0</ele>
        <time>2013-09-04T13:11:27Z</time>
      </trkpt>
      <trkpt lat="43.055083" lon="-4.718783">
        <ele>2441.0</ele>
        <time>2013-09-04T13:11:28Z</time>
      </trkpt>
      <trkpt lat="43.055050" lon="-4.718933">
        <ele>2441.0</ele>
        <time>2013-09-04T13:11:29Z</time>
      </trkpt>
      <trkpt lat="43.055000" lon="-4.719067">
        <ele>2442.0</ele>
        <time>2013-09-04T13:11:30Z</time>
      </trkpt>
      <trkpt lat="43.054950" lon="-4.719200">
        <ele>2443.0</ele>
        <time>2013-09-04T13:11:31Z</time>
      </trkpt>
      <trkpt lat="43.054900" lon="-4.719317">
        <ele>2445.0</ele>
        <time>2013-09-04T13:11:32Z</time>
      </trkpt>
      <trkpt lat="43.054867" lon="-4.719417">
        <ele>2447.0</ele>
        <time>2013-09-04T13:11:33Z</time>
      </trkpt>
      <trkpt lat="43.054817" lon="-4.719500">
        <ele>2448.0</ele>
        <time>2013-09-04T13:11:34Z</time>
      </trkpt>
      <trkpt lat="43.054783" lon="-4.719600">
        <ele>2449.0</ele>
        <time>2013-09-04T13:11:35Z</time>
      </trkpt>
      <trkpt lat="43.054733" lon="-4.719683">
        <ele>2450.0</ele>
        <time>2013-09-04T13:11:36Z</time>
      </trkpt>
      <trkpt lat="43.054683" lon="-4.719767">
        <ele>2451.0</ele>
        <time>2013-09-04T13:11:37Z</time>
      </trkpt>
      <trkpt lat="43.054633" lon="-4.719850">
        <ele>2451.0</ele>
        <time>2013-09-04T13:11:38Z</time>
      </trkpt>
      <trkpt lat="43.054567" lon="-4.719917">
        <ele>2452.0</ele>
        <time>2013-09-04T13:11:39Z</time>
      </trkpt>
      <trkpt lat="43.054483" lon="-4.719950">
        <ele>2453.0</ele>
        <time>2013-09-04T13:11:40Z</time>
      </trkpt>
      <trkpt lat="43.054400" lon="-4.719983">
        <ele>2454.0</ele>
        <time>2013-09-04T13:11:41Z</time>
      </trkpt>
      <trkpt lat="43.054317" lon="-4.720017">
        <ele>2456.0</ele>
        <time>2013-09-04T13:11:42Z</time>
      </trkpt>
      <trkpt lat="43.054250" lon="-4.720033">
        <ele>2458.0</ele>
        <time>2013-09-04T13:11:43Z</time>
      </trkpt>
      <trkpt lat="43.054183" lon="-4.720033">
        <ele>2459.0</ele>
        <time>2013-09-04T13:11:44Z</time>
      </trkpt>
      <trkpt lat="43.054117" lon="-4.720050">
        <ele>2460.0</ele>
        <time>2013-09-04T13:11:45Z</time>
      </trkpt>
      <trkpt lat="43.054050" lon="-4.720033">
        <ele>2461.0</ele>
        <time>2013-09-04T13:11:46Z</time>
      </trkpt>
      <trkpt lat="43.053983" lon="-4.720017">
        <ele>2461.0</ele>
        <time>2013-09-04T13:11:47Z</time>
      </trkpt>
      <trkpt lat="43.053917" lon="-4.719983">
        <ele>2462.0</ele>
        <time>2013-09-04T13:11:48Z</time>
      </trkpt>
      <trkpt lat="43.053867" lon="-4.719950">
        <ele>2462.0</ele>
        <time>2013-09-04T13:11:49Z</time>
      </trkpt>
      <trkpt lat="43.053800" lon="-4.719900">
        <ele>2462.0</ele>
        <time>2013-09-04T13:11:50Z</time>
      </trkpt>
      <trkpt lat="43.053750" lon="-4.719850">
        <ele>2462.0</ele>
        <time>2013-09-04T13:11:51Z</time>
      </trkpt>
      <trkpt lat="43.053700" lon="-4.719800">
        <ele>2462.0</ele>
        <time>2013-09-04T13:11:52Z</time>
      </trkpt>
      <trkpt lat="43.053633" lon="-4.719750">
        <ele>2462.0</ele>
        <time>2013-09-04T13:11:53Z</time>
      </trkpt>
      <trkpt lat="43.053583" lon="-4.719683">
        <ele>2462.0</ele>
        <time>2013-09-04T13:11:54Z</time>
      </trkpt>
      <trkpt lat="43.053533" lon="-4.719600">
        <ele>2462.0</ele>
        <time>2013-09-04T13:11:55Z</time>
      </trkpt>
      <trkpt lat="43.053467" lon="-4.719517">
        <ele>2462.0</ele>
        <time>2013-09-04T13:11:56Z</time>
      </trkpt>
      <trkpt lat="43.053417" lon="-4.719433">
        <ele>2462.0</ele>
        <time>2013-09-04T13:11:57Z</time>
      </trkpt>
      <trkpt lat="43.053350" lon="-4.719367">
        <ele>2463.0</ele>
        <time>2013-09-04T13:11:58Z</time>
      </trkpt>
      <trkpt lat="43.053283" lon="-4.719300">
        <ele>2464.0</ele>
        <time>2013-09-04T13:11:59Z</time>
      </trkpt>
      <trkpt lat="43.053233" lon="-4.719233">
        <ele>2464.0</ele>
        <time>2013-09-04T13:12:00Z</time>
      </trkpt>
      <trkpt lat="43.053183" lon="-4.719150">
        <ele>2465.0</ele>
        <time>2013-09-04T13:12:01Z</time>
      </trkpt>
      <trkpt lat="43.053150" lon="-4.719067">
        <ele>2465.0</ele>
        <time>2013-09-04T13:12:02Z</time>
      </trkpt>
      <trkpt lat="43.053133" lon="-4.719000">
        <ele>2466.0</ele>
        <time>2013-09-04T13:12:03Z</time>
      </trkpt>
      <trkpt lat="43.053100" lon="-4.718933">
        <ele>2467.0</ele>
        <time>2013-09-04T13:12:04Z</time>
      </trkpt>
      <trkpt lat="43.053067" lon="-4.718867">
        <ele>2468.0</ele>
        <time>2013-09-04T13:12:05Z</time>
      </trkpt>
      <trkpt lat="43.053033" lon="-4.718800">
        <ele>2468.0</ele>
        <time>2013-09-04T13:12:06Z</time>
      </trkpt>
      <trkpt lat="43.053017" lon="-4.718733">
        <ele>2468.0</ele>
        <time>2013-09-04T13:12:07Z</time>
      </trkpt>
      <trkpt lat="43.053000" lon="-4.718650">
        <ele>2468.0</ele>
        <time>2013-09-04T13:12:08Z</time>
      </trkpt>
      <trkpt lat="43.052983" lon="-4.718567">
        <ele>2469.0</ele>
        <time>2013-09-04T13:12:09Z</time>
      </trkpt>
      <trkpt lat="43.052967" lon="-4.718500">
        <ele>2470.0</ele>
        <time>2013-09-04T13:12:10Z</time>
      </trkpt>
      <trkpt lat="43.052950" lon="-4.718433">
        <ele>2471.0</ele>
        <time>2013-09-04T13:12:11Z</time>
      </trkpt>
      <trkpt lat="43.052950" lon="-4.718367">
        <ele>2472.0</ele>
        <time>2013-09-04T13:12:12Z</time>
      </trkpt>
      <trkpt lat="43.052950" lon="-4.718300">
        <ele>2473.0</ele>
        <time>2013-09-04T13:12:13Z</time>
      </trkpt>
      <trkpt lat="43.052950" lon="-4.718233">
        <ele>2474.0</ele>
        <time>2013-09-04T13:12:14Z</time>
      </trkpt>
      <trkpt lat="43.052967" lon="-4.718167">
        <ele>2474.0</ele>
        <time>2013-09-04T13:12:15Z</time>
      </trkpt>
      <trkpt lat="43.052983" lon="-4.718100">
        <ele>2475.0</ele>
        <time>2013-09-04T13:12:16Z</time>
      </trkpt>
      <trkpt lat="43.053000" lon="-4.718033">
        <ele>2476.0</ele>
        <time>2013-09-04T13:12:17Z</time>
      </trkpt>
      <trkpt lat="43.053017" lon="-4.717967">
        <ele>2477.0</ele>
        <time>2013-09-04T13:12:18Z</time>
      </trkpt>
      <trkpt lat="43.053050" lon="-4.717900">
        <ele>2479.0</ele>
        <time>2013-09-04T13:12:19Z</time>
      </trkpt>
      <trkpt lat="43.053083" lon="-4.717850">
        <ele>2481.0</ele>
        <time>2013-09-04T13:12:20Z</time>
      </trkpt>
      <trkpt lat="43.053117" lon="-4.717800">
        <ele>2484.0</ele>
        <time>2013-09-04T13:12:21Z</time>
      </trkpt>
      <trkpt lat="43.053133" lon="-4.717750">
        <ele>2486.0</ele>
        <time>2013-09-04T13:12:22Z</time>
      </trkpt>
      <trkpt lat="43.053183" lon="-4.717700">
        <ele>2488.0</ele>
        <time>2013-09-04T13:12:23Z</time>
      </trkpt>
      <trkpt lat="43.053233" lon="-4.717667">
        <ele>2491.0</ele>
        <time>2013-09-04T13:12:24Z</time>
      </trkpt>
      <trkpt lat="43.053300" lon="-4.717633">
        <ele>2493.0</ele>
        <time>2013-09-04T13:12:25Z</time>
      </trkpt>
      <trkpt lat="43.053367" lon="-4.717617">
        <ele>2497.0</ele>
        <time>2013-09-04T13:12:26Z</time>
      </trkpt>
      <trkpt lat="43.053433" lon="-4.717600">
        <ele>2499.0</ele>
        <time>2013-09-04T13:12:27Z</time>
      </trkpt>
      <trkpt lat="43.053500" lon="-4.717583">
        <ele>2502.0</ele>
        <time>2013-09-04T13:12:28Z</time>
      </trkpt>
      <trkpt lat="43.053567" lon="-4.717567">
        <ele>2504.0</ele>
        <time>2013-09-04T13:12:29Z</time>
      </trkpt>
      <trkpt lat="43.053633" lon="-4.717583">
        <ele>2504.0</ele>
        <time>2013-09-04T13:12:30Z</time>
      </trkpt>
      <trkpt lat="43.053700" lon="-4.717617">
        <ele>2504.0</ele>
        <time>2013-09-04T13:12:31Z</time>
      </trkpt>
      <trkpt lat="43.053767" lon="-4.717700">
        <ele>2504.0</ele>
        <time>2013-09-04T13:12:32Z</time>
      </trkpt>
      <trkpt lat="43.053833" lon="-4.717817">
        <ele>2503.0</ele>
        <time>2013-09-04T13:12:33Z</time>
      </trkpt>
      <trkpt lat="43.053883" lon="-4.717950">
        <ele>2503.0</ele>
        <time>2013-09-04T13:12:34Z</time>
      </trkpt>
      <trkpt lat="43.053917" lon="-4.718083">
        <ele>2503.0</ele>
        <time>2013-09-04T13:12:35Z</time>
      </trkpt>
      <trkpt lat="43.053900" lon="-4.718217">
        <ele>2503.0</ele>
        <time>2013-09-04T13:12:36Z</time>
      </trkpt>
      <trkpt lat="43.053850" lon="-4.718317">
        <ele>2502.0</ele>
        <time>2013-09-04T13:12:37Z</time>
      </trkpt>
      <trkpt lat="43.053783" lon="-4.718383">
        <ele>2502.0</ele>
        <time>2013-09-04T13:12:38Z</time>
      </trkpt>
      <trkpt lat="43.053733" lon="-4.718467">
        <ele>2502.0</ele>
        <time>2013-09-04T13:12:39Z</time>
      </trkpt>
      <trkpt lat="43.053683" lon="-4.718550">
        <ele>2502.0</ele>
        <time>2013-09-04T13:12:40Z</time>
      </trkpt>
      <trkpt lat="43.053633" lon="-4.718617">
        <ele>2502.0</ele>
        <time>2013-09-04T13:12:41Z</time>
      </trkpt>
      <trkpt lat="43.053583" lon="-4.718683">
        <ele>2501.0</ele>
        <time>2013-09-04T13:12:42Z</time>
      </trkpt>
      <trkpt lat="43.053517" lon="-4.718750">
        <ele>2499.0</ele>
        <time>2013-09-04T13:12:43Z</time>
      </trkpt>
      <trkpt lat="43.053450" lon="-4.718800">
        <ele>2497.0</ele>
        <time>2013-09-04T13:12:44Z</time>
      </trkpt>
      <trkpt lat="43.053367" lon="-4.718867">
        <ele>2496.0</ele>
        <time>2013-09-04T13:12:45Z</time>
      </trkpt>
      <trkpt lat="43.053317" lon="-4.718950">
        <ele>2496.0</ele>
        <time>2013-09-04T13:12:46Z</time>
      </trkpt>
      <trkpt lat="43.053267" lon="-4.719050">
        <ele>2497.0</ele>
        <time>2013-09-04T13:12:47Z</time>
      </trkpt>
      <trkpt lat="43.053233" lon="-4.719133">
        <ele>2498.0</ele>
        <time>2013-09-04T13:12:48Z</time>
      </trkpt>
      <trkpt lat="43.053200" lon="-4.719217">
        <ele>2499.0</ele>
        <time>2013-09-04T13:12:49Z</time>
      </trkpt>
      <trkpt lat="43.053167" lon="-4.719283">
        <ele>2498.0</ele>
        <time>2013-09-04T13:12:50Z</time>
      </trkpt>
      <trkpt lat="43.053117" lon="-4.719350">
        <ele>2496.0</ele>
        <time>2013-09-04T13:12:51Z</time>
      </trkpt>
      <trkpt lat="43.053033" lon="-4.719383">
        <ele>2493.0</ele>
        <time>2013-09-04T13:12:52Z</time>
      </trkpt>
      <trkpt lat="43.052967" lon="-4.719383">
        <ele>2492.0</ele>
        <time>2013-09-04T13:12:53Z</time>
      </trkpt>
      <trkpt lat="43.052883" lon="-4.719367">
        <ele>2491.0</ele>
        <time>2013-09-04T13:12:54Z</time>
      </trkpt>
      <trkpt lat="43.052817" lon="-4.719367">
        <ele>2491.0</ele>
        <time>2013-09-04T13:12:55Z</time>
      </trkpt>
      <trkpt lat="43.052750" lon="-4.719367">
        <ele>2491.0</ele>
        <time>2013-09-04T13:12:56Z</time>
      </trkpt>
      <trkpt lat="43.052683" lon="-4.719383">
        <ele>2490.0</ele>
        <time>2013-09-04T13:12:57Z</time>
      </trkpt>
      <trkpt lat="43.052600" lon="-4.719417">
        <ele>2489.0</ele>
        <time>2013-09-04T13:12:58Z</time>
      </trkpt>
      <trkpt lat="43.052517" lon="-4.719450">
        <ele>2488.0</ele>
        <time>2013-09-04T13:12:59Z</time>
      </trkpt>
      <trkpt lat="43.052433" lon="-4.719467">
        <ele>2489.0</ele>
        <time>2013-09-04T13:13:00Z</time>
      </trkpt>
      <trkpt lat="43.052367" lon="-4.719500">
        <ele>2489.0</ele>
        <time>2013-09-04T13:13:01Z</time>
      </trkpt>
      <trkpt lat="43.052300" lon="-4.719550">
        <ele>2490.0</ele>
        <time>2013-09-04T13:13:02Z</time>
      </trkpt>
      <trkpt lat="43.052233" lon="-4.719600">
        <ele>2491.0</ele>
        <time>2013-09-04T13:13:03Z</time>
      </trkpt>
      <trkpt lat="43.052167" lon="-4.719633">
        <ele>2492.0</ele>
        <time>2013-09-04T13:13:04Z</time>
      </trkpt>
      <trkpt lat="43.052100" lon="-4.719667">
        <ele>2493.0</ele>
        <time>2013-09-04T13:13:05Z</time>
      </trkpt>
      <trkpt lat="43.052033" lon="-4.719683">
        <ele>2492.0</ele>
        <time>2013-09-04T13:13:06Z</time>
      </trkpt>
      <trkpt lat="43.051967" lon="-4.719700">
        <ele>2492.0</ele>
        <time>2013-09-04T13:13:07Z</time>
      </trkpt>
      <trkpt lat="43.051900" lon="-4.719717">
        <ele>2490.0</ele>
        <time>2013-09-04T13:13:08Z</time>
      </trkpt>
      <trkpt lat="43.051833" lon="-4.719717">
        <ele>2489.0</ele>
        <time>2013-09-04T13:13:09Z</time>
      </trkpt>
      <trkpt lat="43.051767" lon="-4.719700">
        <ele>2487.0</ele>
        <time>2013-09-04T13:13:10Z</time>
      </trkpt>
      <trkpt lat="43.051683" lon="-4.719683">
        <ele>2485.0</ele>
        <time>2013-09-04T13:13:11Z</time>
      </trkpt>
      <trkpt lat="43.051617" lon="-4.719633">
        <ele>2484.0</ele>
        <time>2013-09-04T13:13:12Z</time>
      </trkpt>
      <trkpt lat="43.051533" lon="-4.719583">
        <ele>2484.0</ele>
        <time>2013-09-04T13:13:13Z</time>
      </trkpt>
      <trkpt lat="43.051483" lon="-4.719550">
        <ele>2484.0</ele>
        <time>2013-09-04T13:13:14Z</time>
      </trkpt>
      <trkpt lat="43.051417" lon="-4.719517">
        <ele>2483.0</ele>
        <time>2013-09-04T13:13:15Z</time>
      </trkpt>
      <trkpt lat="43.051367" lon="-4.719483">
        <ele>2482.0</ele>
        <time>2013-09-04T13:13:16Z</time>
      </trkpt>
      <trkpt lat="43.051300" lon="-4.719450">
        <ele>2480.0</ele>
        <time>2013-09-04T13:13:17Z</time>
      </trkpt>
      <trkpt lat="43.051233" lon="-4.719433">
        <ele>2477.0</ele>
        <time>2013-09-04T13:13:18Z</time>
      </trkpt>
      <trkpt lat="43.051167" lon="-4.719417">
        <ele>2475.0</ele>
        <time>2013-09-04T13:13:19Z</time>
      </trkpt>
      <trkpt lat="43.051100" lon="-4.719400">
        <ele>2473.0</ele>
        <time>2013-09-04T13:13:20Z</time>
      </trkpt>
      <trkpt lat="43.051017" lon="-4.719433">
        <ele>2471.0</ele>
        <time>2013-09-04T13:13:21Z</time>
      </trkpt>
      <trkpt lat="43.050950" lon="-4.719483">
        <ele>2468.0</ele>
        <time>2013-09-04T13:13:22Z</time>
      </trkpt>
      <trkpt lat="43.050883" lon="-4.719583">
        <ele>2465.0</ele>
        <time>2013-09-04T13:13:23Z</time>
      </trkpt>
      <trkpt lat="43.050817" lon="-4.719700">
        <ele>2463.0</ele>
        <time>2013-09-04T13:13:24Z</time>
      </trkpt>
      <trkpt lat="43.050750" lon="-4.719833">
        <ele>2461.0</ele>
        <time>2013-09-04T13:13:25Z</time>
      </trkpt>
      <trkpt lat="43.050717" lon="-4.719983">
        <ele>2461.0</ele>
        <time>2013-09-04T13:13:26Z</time>
      </trkpt>
      <trkpt lat="43.050700" lon="-4.720117">
        <ele>2460.0</ele>
        <time>2013-09-04T13:13:27Z</time>
      </trkpt>
      <trkpt lat="43.050700" lon="-4.720233">
        <ele>2458.0</ele>
        <time>2013-09-04T13:13:28Z</time>
      </trkpt>
      <trkpt lat="43.050700" lon="-4.720367">
        <ele>2456.0</ele>
        <time>2013-09-04T13:13:29Z</time>
      </trkpt>
      <trkpt lat="43.050733" lon="-4.720483">
        <ele>2454.0</ele>
        <time>2013-09-04T13:13:30Z</time>
      </trkpt>
      <trkpt lat="43.050800" lon="-4.720600">
        <ele>2451.0</ele>
        <time>2013-09-04T13:13:31Z</time>
      </trkpt>
      <trkpt lat="43.050883" lon="-4.720667">
        <ele>2447.0</ele>
        <time>2013-09-04T13:13:32Z</time>
      </trkpt>
      <trkpt lat="43.050983" lon="-4.720683">
        <ele>2445.0</ele>
        <time>2013-09-04T13:13:33Z</time>
      </trkpt>
      <trkpt lat="43.051083" lon="-4.720700">
        <ele>2443.0</ele>
        <time>2013-09-04T13:13:34Z</time>
      </trkpt>
      <trkpt lat="43.051183" lon="-4.720700">
        <ele>2441.0</ele>
        <time>2013-09-04T13:13:35Z</time>
      </trkpt>
      <trkpt lat="43.051283" lon="-4.720700">
        <ele>2439.0</ele>
        <time>2013-09-04T13:13:36Z</time>
      </trkpt>
      <trkpt lat="43.051367" lon="-4.720700">
        <ele>2437.0</ele>
        <time>2013-09-04T13:13:37Z</time>
      </trkpt>
      <trkpt lat="43.051467" lon="-4.720700">
        <ele>2435.0</ele>
        <time>2013-09-04T13:13:38Z</time>
      </trkpt>
      <trkpt lat="43.051567" lon="-4.720683">
        <ele>2434.0</ele>
        <time>2013-09-04T13:13:39Z</time>
      </trkpt>
      <trkpt lat="43.051650" lon="-4.720650">
        <ele>2434.0</ele>
        <time>2013-09-04T13:13:40Z</time>
      </trkpt>
      <trkpt lat="43.051717" lon="-4.720617">
        <ele>2434.0</ele>
        <time>2013-09-04T13:13:41Z</time>
      </trkpt>
      <trkpt lat="43.051800" lon="-4.720567">
        <ele>2434.0</ele>
        <time>2013-09-04T13:13:42Z</time>
      </trkpt>
      <trkpt lat="43.051883" lon="-4.720517">
        <ele>2435.0</ele>
        <time>2013-09-04T13:13:43Z</time>
      </trkpt>
      <trkpt lat="43.051967" lon="-4.720483">
        <ele>2435.0</ele>
        <time>2013-09-04T13:13:44Z</time>
      </trkpt>
      <trkpt lat="43.052050" lon="-4.720450">
        <ele>2436.0</ele>
        <time>2013-09-04T13:13:45Z</time>
      </trkpt>
      <trkpt lat="43.052117" lon="-4.720417">
        <ele>2438.0</ele>
        <time>2013-09-04T13:13:46Z</time>
      </trkpt>
      <trkpt lat="43.052183" lon="-4.720383">
        <ele>2438.0</ele>
        <time>2013-09-04T13:13:47Z</time>
      </trkpt>
      <trkpt lat="43.052217" lon="-4.720350">
        <ele>2439.0</ele>
        <time>2013-09-04T13:13:48Z</time>
      </trkpt>
      <trkpt lat="43.052250" lon="-4.720317">
        <ele>2439.0</ele>
        <time>2013-09-04T13:13:49Z</time>
      </trkpt>
      <trkpt lat="43.052300" lon="-4.720283">
        <ele>2439.0</ele>
        <time>2013-09-04T13:13:50Z</time>
      </trkpt>
      <trkpt lat="43.052350" lon="-4.720267">
        <ele>2438.0</ele>
        <time>2013-09-04T13:13:51Z</time>
      </trkpt>
      <trkpt lat="43.052400" lon="-4.720250">
        <ele>2436.0</ele>
        <time>2013-09-04T13:13:52Z</time>
      </trkpt>
      <trkpt lat="43.052467" lon="-4.720233">
        <ele>2435.0</ele>
        <time>2013-09-04T13:13:53Z</time>
      </trkpt>
      <trkpt lat="43.052533" lon="-4.720200">
        <ele>2434.0</ele>
        <time>2013-09-04T13:13:54Z</time>
      </trkpt>
      <trkpt lat="43.052583" lon="-4.720150">
        <ele>2434.0</ele>
        <time>2013-09-04T13:13:55Z</time>
      </trkpt>
      <trkpt lat="43.052633" lon="-4.720083">
        <ele>2433.0</ele>
        <time>2013-09-04T13:13:56Z</time>
      </trkpt>
      <trkpt lat="43.052683" lon="-4.720033">
        <ele>2433.0</ele>
        <time>2013-09-04T13:13:57Z</time>
      </trkpt>
      <trkpt lat="43.052733" lon="-4.719967">
        <ele>2432.0</ele>
        <time>2013-09-04T13:13:58Z</time>
      </trkpt>
      <trkpt lat="43.052783" lon="-4.719900">
        <ele>2431.0</ele>
        <time>2013-09-04T13:13:59Z</time>
      </trkpt>
      <trkpt lat="43.052833" lon="-4.719833">
        <ele>2429.0</ele>
        <time>2013-09-04T13:14:00Z</time>
      </trkpt>
      <trkpt lat="43.052900" lon="-4.719767">
        <ele>2428.0</ele>
        <time>2013-09-04T13:14:01Z</time>
      </trkpt>
      <trkpt lat="43.052967" lon="-4.719683">
        <ele>2426.0</ele>
        <time>2013-09-04T13:14:02Z</time>
      </trkpt>
      <trkpt lat="43.053033" lon="-4.719600">
        <ele>2425.0</ele>
        <time>2013-09-04T13:14:03Z</time>
      </trkpt>
      <trkpt lat="43.053100" lon="-4.719517">
        <ele>2423.0</ele>
        <time>2013-09-04T13:14:04Z</time>
      </trkpt>
      <trkpt lat="43.053133" lon="-4.719417">
        <ele>2422.0</ele>
        <time>2013-09-04T13:14:05Z</time>
      </trkpt>
      <trkpt lat="43.053183" lon="-4.719300">
        <ele>2421.0</ele>
        <time>2013-09-04T13:14:06Z</time>
      </trkpt>
      <trkpt lat="43.053200" lon="-4.719183">
        <ele>2420.0</ele>
        <time>2013-09-04T13:14:07Z</time>
      </trkpt>
      <trkpt lat="43.053233" lon="-4.719083">
        <ele>2420.0</ele>
        <time>2013-09-04T13:14:08Z</time>
      </trkpt>
      <trkpt lat="43.053250" lon="-4.718967">
        <ele>2421.0</ele>
        <time>2013-09-04T13:14:09Z</time>
      </trkpt>
      <trkpt lat="43.053283" lon="-4.718850">
        <ele>2421.0</ele>
        <time>2013-09-04T13:14:10Z</time>
      </trkpt>
      <trkpt lat="43.053300" lon="-4.718733">
        <ele>2422.0</ele>
        <time>2013-09-04T13:14:11Z</time>
      </trkpt>
      <trkpt lat="43.053333" lon="-4.718633">
        <ele>2422.0</ele>
        <time>2013-09-04T13:14:12Z</time>
      </trkpt>
      <trkpt lat="43.053350" lon="-4.718517">
        <ele>2423.0</ele>
        <time>2013-09-04T13:14:13Z</time>
      </trkpt>
      <trkpt lat="43.053367" lon="-4.718400">
        <ele>2424.0</ele>
        <time>2013-09-04T13:14:14Z</time>
      </trkpt>
      <trkpt lat="43.053400" lon="-4.718317">
        <ele>2427.0</ele>
        <time>2013-09-04T13:14:15Z</time>
      </trkpt>
      <trkpt lat="43.053417" lon="-4.718267">
        <ele>2429.0</ele>
        <time>2013-09-04T13:14:16Z</time>
      </trkpt>
      <trkpt lat="43.053433" lon="-4.718217">
        <ele>2432.0</ele>
        <time>2013-09-04T13:14:17Z</time>
      </trkpt>
      <trkpt lat="43.053450" lon="-4.718167">
        <ele>2433.0</ele>
        <time>2013-09-04T13:14:18Z</time>
      </trkpt>
      <trkpt lat="43.053483" lon="-4.718133">
        <ele>2432.0</ele>
        <time>2013-09-04T13:14:19Z</time>
      </trkpt>
      <trkpt lat="43.053533" lon="-4.718100">
        <ele>2431.0</ele>
        <time>2013-09-04T13:14:20Z</time>
      </trkpt>
      <trkpt lat="43.053633" lon="-4.718100">
        <ele>2430.0</ele>
        <time>2013-09-04T13:14:21Z</time>
      </trkpt>
      <trkpt lat="43.053717" lon="-4.718133">
        <ele>2431.0</ele>
        <time>2013-09-04T13:14:22Z</time>
      </trkpt>
      <trkpt lat="43.053800" lon="-4.718217">
        <ele>2433.0</ele>
        <time>2013-09-04T13:14:23Z</time>
      </trkpt>
      <trkpt lat="43.053867" lon="-4.718317">
        <ele>2434.0</ele>
        <time>2013-09-04T13:14:24Z</time>
      </trkpt>
      <trkpt lat="43.053883" lon="-4.718433">
        <ele>2436.0</ele>
        <time>2013-09-04T13:14:25Z</time>
      </trkpt>
      <trkpt lat="43.053917" lon="-4.718533">
        <ele>2437.0</ele>
        <time>2013-09-04T13:14:26Z</time>
      </trkpt>
      <trkpt lat="43.053917" lon="-4.718650">
        <ele>2438.0</ele>
        <time>2013-09-04T13:14:27Z</time>
      </trkpt>
      <trkpt lat="43.053900" lon="-4.718767">
        <ele>2438.0</ele>
        <time>2013-09-04T13:14:28Z</time>
      </trkpt>
      <trkpt lat="43.053867" lon="-4.718900">
        <ele>2438.0</ele>
        <time>2013-09-04T13:14:29Z</time>
      </trkpt>
      <trkpt lat="43.053800" lon="-4.719017">
        <ele>2438.0</ele>
        <time>2013-09-04T13:14:30Z</time>
      </trkpt>
      <trkpt lat="43.053717" lon="-4.719100">
        <ele>2440.0</ele>
        <time>2013-09-04T13:14:31Z</time>
      </trkpt>
      <trkpt lat="43.053650" lon="-4.719150">
        <ele>2441.0</ele>
        <time>2013-09-04T13:14:32Z</time>
      </trkpt>
      <trkpt lat="43.053583" lon="-4.719167">
        <ele>2442.0</ele>
        <time>2013-09-04T13:14:33Z</time>
      </trkpt>
      <trkpt lat="43.053517" lon="-4.719167">
        <ele>2443.0</ele>
        <time>2013-09-04T13:14:34Z</time>
      </trkpt>
      <trkpt lat="43.053450" lon="-4.719150">
        <ele>2443.0</ele>
        <time>2013-09-04T13:14:35Z</time>
      </trkpt>
      <trkpt lat="43.053383" lon="-4.719117">
        <ele>2443.0</ele>
        <time>2013-09-04T13:14:36Z</time>
      </trkpt>
      <trkpt lat="43.053333" lon="-4.719050">
        <ele>2444.0</ele>
        <time>2013-09-04T13:14:37Z</time>
      </trkpt>
      <trkpt lat="43.053283" lon="-4.718983">
        <ele>2444.0</ele>
        <time>2013-09-04T13:14:38Z</time>
      </trkpt>
      <trkpt lat="43.053233" lon="-4.718933">
        <ele>2445.0</ele>
        <time>2013-09-04T13:14:39Z</time>
      </trkpt>
      <trkpt lat="43.053183" lon="-4.718867">
        <ele>2446.0</ele>
        <time>2013-09-04T13:14:40Z</time>
      </trkpt>
      <trkpt lat="43.053133" lon="-4.718817">
        <ele>2447.0</ele>
        <time>2013-09-04T13:14:41Z</time>
      </trkpt>
      <trkpt lat="43.053117" lon="-4.718733">
        <ele>2447.0</ele>
        <time>2013-09-04T13:14:42Z</time>
      </trkpt>
      <trkpt lat="43.053083" lon="-4.718650">
        <ele>2447.0</ele>
        <time>2013-09-04T13:14:43Z</time>
      </trkpt>
      <trkpt lat="43.053083" lon="-4.718550">
        <ele>2447.0</ele>
        <time>2013-09-04T13:14:44Z</time>
      </trkpt>
      <trkpt lat="43.053100" lon="-4.718450">
        <ele>2447.0</ele>
        <time>2013-09-04T13:14:45Z</time>
      </trkpt>
      <trkpt lat="43.053133" lon="-4.718350">
        <ele>2446.0</ele>
        <time>2013-09-04T13:14:46Z</time>
      </trkpt>
      <trkpt lat="43.053183" lon="-4.718267">
        <ele>2446.0</ele>
        <time>2013-09-04T13:14:47Z</time>
      </trkpt>
      <trkpt lat="43.053250" lon="-4.718200">
        <ele>2446.0</ele>
        <time>2013-09-04T13:14:48Z</time>
      </trkpt>
      <trkpt lat="43.053317" lon="-4.718167">
        <ele>2447.0</ele>
        <time>2013-09-04T13:14:49Z</time>
      </trkpt>
      <trkpt lat="43.053400" lon="-4.718133">
        <ele>2447.0</ele>
        <time>2013-09-04T13:14:50Z</time>
      </trkpt>
      <trkpt lat="43.053483" lon="-4.718083">
        <ele>2447.0</ele>
        <time>2013-09-04T13:14:51Z</time>
      </trkpt>
      <trkpt lat="43.053550" lon="-4.718050">
        <ele>2447.0</ele>
        <time>2013-09-04T13:14:52Z</time>
      </trkpt>
      <trkpt lat="43.053650" lon="-4.718033">
        <ele>2447.0</ele>
        <time>2013-09-04T13:14:53Z</time>
      </trkpt>
      <trkpt lat="43.053733" lon="-4.718017">
        <ele>2447.0</ele>
        <time>2013-09-04T13:14:54Z</time>
      </trkpt>
      <trkpt lat="43.053800" lon="-4.717983">
        <ele>2448.0</ele>
        <time>2013-09-04T13:14:55Z</time>
      </trkpt>
      <trkpt lat="43.053883" lon="-4.717950">
        <ele>2448.0</ele>
        <time>2013-09-04T13:14:56Z</time>
      </trkpt>
      <trkpt lat="43.053950" lon="-4.717900">
        <ele>2448.0</ele>
        <time>2013-09-04T13:14:57Z</time>
      </trkpt>
      <trkpt lat="43.054017" lon="-4.717867">
        <ele>2447.0</ele>
        <time>2013-09-04T13:14:58Z</time>
      </trkpt>
      <trkpt lat="43.054083" lon="-4.717817">
        <ele>2447.0</ele>
        <time>2013-09-04T13:14:59Z</time>
      </trkpt>
      <trkpt lat="43.054167" lon="-4.717767">
        <ele>2448.0</ele>
        <time>2013-09-04T13:15:00Z</time>
      </trkpt>
      <trkpt lat="43.054233" lon="-4.717717">
        <ele>2449.0</ele>
        <time>2013-09-04T13:15:01Z</time>
      </trkpt>
      <trkpt lat="43.054283" lon="-4.717683">
        <ele>2451.0</ele>
        <time>2013-09-04T13:15:02Z</time>
      </trkpt>
      <trkpt lat="43.054350" lon="-4.717667">
        <ele>2452.0</ele>
        <time>2013-09-04T13:15:03Z</time>
      </trkpt>
      <trkpt lat="43.054417" lon="-4.717667">
        <ele>2453.0</ele>
        <time>2013-09-04T13:15:04Z</time>
      </trkpt>
      <trkpt lat="43.054483" lon="-4.717667">
        <ele>2453.0</ele>
        <time>2013-09-04T13:15:05Z</time>
      </trkpt>
      <trkpt lat="43.054533" lon="-4.717650">
        <ele>2454.0</ele>
        <time>2013-09-04T13:15:06Z</time>
      </trkpt>
      <trkpt lat="43.054600" lon="-4.717600">
        <ele>2454.0</ele>
        <time>2013-09-04T13:15:07Z</time>
      </trkpt>
      <trkpt lat="43.054650" lon="-4.717550">
        <ele>2454.0</ele>
        <time>2013-09-04T13:15:08Z</time>
      </trkpt>
      <trkpt lat="43.054700" lon="-4.717483">
        <ele>2454.0</ele>
        <time>2013-09-04T13:15:09Z</time>
      </trkpt>
      <trkpt lat="43.054750" lon="-4.717433">
        <ele>2455.0</ele>
        <time>2013-09-04T13:15:10Z</time>
      </trkpt>
      <trkpt lat="43.054800" lon="-4.717383">
        <ele>2455.0</ele>
        <time>2013-09-04T13:15:11Z</time>
      </trkpt>
      <trkpt lat="43.054867" lon="-4.717333">
        <ele>2456.0</ele>
        <time>2013-09-04T13:15:12Z</time>
      </trkpt>
      <trkpt lat="43.054917" lon="-4.717283">
        <ele>2456.0</ele>
        <time>2013-09-04T13:15:13Z</time>
      </trkpt>
      <trkpt lat="43.054983" lon="-4.717250">
        <ele>2457.0</ele>
        <time>2013-09-04T13:15:14Z</time>
      </trkpt>
      <trkpt lat="43.055033" lon="-4.717200">
        <ele>2457.0</ele>
        <time>2013-09-04T13:15:15Z</time>
      </trkpt>
      <trkpt lat="43.055083" lon="-4.717167">
        <ele>2458.0</ele>
        <time>2013-09-04T13:15:16Z</time>
      </trkpt>
      <trkpt lat="43.055150" lon="-4.717133">
        <ele>2457.0</ele>
        <time>2013-09-04T13:15:17Z</time>
      </trkpt>
      <trkpt lat="43.055200" lon="-4.717083">
        <ele>2457.0</ele>
        <time>2013-09-04T13:15:18Z</time>
      </trkpt>
      <trkpt lat="43.055267" lon="-4.717017">
        <ele>2457.0</ele>
        <time>2013-09-04T13:15:19Z</time>
      </trkpt>
      <trkpt lat="43.055300" lon="-4.716967">
        <ele>2459.0</ele>
        <time>2013-09-04T13:15:20Z</time>
      </trkpt>
      <trkpt lat="43.055333" lon="-4.716933">
        <ele>2460.0</ele>
        <time>2013-09-04T13:15:21Z</time>
      </trkpt>
      <trkpt lat="43.055367" lon="-4.716900">
        <ele>2461.0</ele>
        <time>2013-09-04T13:15:22Z</time>
      </trkpt>
      <trkpt lat="43.055400" lon="-4.716867">
        <ele>2460.0</ele>
        <time>2013-09-04T13:15:23Z</time>
      </trkpt>
      <trkpt lat="43.055417" lon="-4.716833">
        <ele>2459.0</ele>
        <time>2013-09-04T13:15:24Z</time>
      </trkpt>
      <trkpt lat="43.055450" lon="-4.716800">
        <ele>2457.0</ele>
        <time>2013-09-04T13:15:25Z</time>
      </trkpt>
      <trkpt lat="43.055467" lon="-4.716733">
        <ele>2455.0</ele>
        <time>2013-09-04T13:15:26Z</time>
      </trkpt>
      <trkpt lat="43.055467" lon="-4.716667">
        <ele>2453.0</ele>
        <time>2013-09-04T13:15:27Z</time>
      </trkpt>
      <trkpt lat="43.055467" lon="-4.716617">
        <ele>2451.0</ele>
        <time>2013-09-04T13:15:28Z</time>
      </trkpt>
      <trkpt lat="43.055417" lon="-4.716567">
        <ele>2449.0</ele>
        <time>2013-09-04T13:15:29Z</time>
      </trkpt>
      <trkpt lat="43.055367" lon="-4.716517">
        <ele>2446.0</ele>
        <time>2013-09-04T13:15:30Z</time>
      </trkpt>
      <trkpt lat="43.055300" lon="-4.716483">
        <ele>2445.0</ele>
        <time>2013-09-04T13:15:31Z</time>
      </trkpt>
      <trkpt lat="43.055217" lon="-4.716450">
        <ele>2444.0</ele>
        <time>2013-09-04T13:15:32Z</time>
      </trkpt>
      <trkpt lat="43.055150" lon="-4.716417">
        <ele>2443.0</ele>
        <time>2013-09-04T13:15:33Z</time>
      </trkpt>
      <trkpt lat="43.055083" lon="-4.716383">
        <ele>2442.0</ele>
        <time>2013-09-04T13:15:34Z</time>
      </trkpt>
      <trkpt lat="43.055017" lon="-4.716350">
        <ele>2442.0</ele>
        <time>2013-09-04T13:15:35Z</time>
      </trkpt>
      <trkpt lat="43.054950" lon="-4.716317">
        <ele>2441.0</ele>
        <time>2013-09-04T13:15:36Z</time>
      </trkpt>
      <trkpt lat="43.054883" lon="-4.716283">
        <ele>2441.0</ele>
        <time>2013-09-04T13:15:37Z</time>
      </trkpt>
      <trkpt lat="43.054800" lon="-4.716250">
        <ele>2440.0</ele>
        <time>2013-09-04T13:15:38Z</time>
      </trkpt>
      <trkpt lat="43.054717" lon="-4.716233">
        <ele>2440.0</ele>
        <time>2013-09-04T13:15:39Z</time>
      </trkpt>
      <trkpt lat="43.054650" lon="-4.716200">
        <ele>2440.0</ele>
        <time>2013-09-04T13:15:40Z</time>
      </trkpt>
      <trkpt lat="43.054567" lon="-4.716167">
        <ele>2440.0</ele>
        <time>2013-09-04T13:15:41Z</time>
      </trkpt>
      <trkpt lat="43.054483" lon="-4.716150">
        <ele>2441.0</ele>
        <time>2013-09-04T13:15:42Z</time>
      </trkpt>
      <trkpt lat="43.054417" lon="-4.716117">
        <ele>2441.0</ele>
        <time>2013-09-04T13:15:43Z</time>
      </trkpt>
      <trkpt lat="43.054333" lon="-4.716100">
        <ele>2441.0</ele>
        <time>2013-09-04T13:15:44Z</time>
      </trkpt>
      <trkpt lat="43.054250" lon="-4.716083">
        <ele>2441.0</ele>
        <time>2013-09-04T13:15:45Z</time>
      </trkpt>
      <trkpt lat="43.054150" lon="-4.716050">
        <ele>2442.0</ele>
        <time>2013-09-04T13:15:46Z</time>
      </trkpt>
      <trkpt lat="43.054067" lon="-4.716033">
        <ele>2443.0</ele>
        <time>2013-09-04T13:15:47Z</time>
      </trkpt>
      <trkpt lat="43.054000" lon="-4.716000">
        <ele>2445.0</ele>
        <time>2013-09-04T13:15:48Z</time>
      </trkpt>
      <trkpt lat="43.053950" lon="-4.715967">
        <ele>2448.0</ele>
        <time>2013-09-04T13:15:49Z</time>
      </trkpt>
      <trkpt lat="43.053917" lon="-4.715933">
        <ele>2449.0</ele>
        <time>2013-09-04T13:15:50Z</time>
      </trkpt>
      <trkpt lat="43.053867" lon="-4.715900">
        <ele>2450.0</ele>
        <time>2013-09-04T13:15:51Z</time>
      </trkpt>
      <trkpt lat="43.053817" lon="-4.715900">
        <ele>2450.0</ele>
        <time>2013-09-04T13:15:52Z</time>
      </trkpt>
      <trkpt lat="43.053750" lon="-4.715900">
        <ele>2450.0</ele>
        <time>2013-09-04T13:15:53Z</time>
      </trkpt>
      <trkpt lat="43.053683" lon="-4.715917">
        <ele>2451.0</ele>
        <time>2013-09-04T13:15:54Z</time>
      </trkpt>
      <trkpt lat="43.053633" lon="-4.715933">
        <ele>2453.0</ele>
        <time>2013-09-04T13:15:55Z</time>
      </trkpt>
      <trkpt lat="43.053583" lon="-4.715983">
        <ele>2455.0</ele>
        <time>2013-09-04T13:15:56Z</time>
      </trkpt>
      <trkpt lat="43.053550" lon="-4.716033">
        <ele>2456.0</ele>
        <time>2013-09-04T13:15:57Z</time>
      </trkpt>
      <trkpt lat="43.053500" lon="-4.716100">
        <ele>2457.0</ele>
        <time>2013-09-04T13:15:58Z</time>
      </trkpt>
      <trkpt lat="43.053450" lon="-4.716167">
        <ele>2457.0</ele>
        <time>2013-09-04T13:15:59Z</time>
      </trkpt>
      <trkpt lat="43.053383" lon="-4.716233">
        <ele>2458.0</ele>
        <time>2013-09-04T13:16:00Z</time>
      </trkpt>
      <trkpt lat="43.053317" lon="-4.716300">
        <ele>2459.0</ele>
        <time>2013-09-04T13:16:01Z</time>
      </trkpt>
      <trkpt lat="43.053283" lon="-4.716333">
        <ele>2459.0</ele>
        <time>2013-09-04T13:16:02Z</time>
      </trkpt>
      <trkpt lat="43.053217" lon="-4.716367">
        <ele>2460.0</ele>
        <time>2013-09-04T13:16:03Z</time>
      </trkpt>
      <trkpt lat="43.053150" lon="-4.716383">
        <ele>2458.0</ele>
        <time>2013-09-04T13:16:04Z</time>
      </trkpt>
      <trkpt lat="43.053083" lon="-4.716400">
        <ele>2457.0</ele>
        <time>2013-09-04T13:16:05Z</time>
      </trkpt>
      <trkpt lat="43.052983" lon="-4.716383">
        <ele>2455.0</ele>
        <time>2013-09-04T13:16:06Z</time>
      </trkpt>
      <trkpt lat="43.052883" lon="-4.716367">
        <ele>2454.0</ele>
        <time>2013-09-04T13:16:07Z</time>
      </trkpt>
      <trkpt lat="43.052783" lon="-4.716350">
        <ele>2455.0</ele>
        <time>2013-09-04T13:16:08Z</time>
      </trkpt>
      <trkpt lat="43.052683" lon="-4.716350">
        <ele>2456.0</ele>
        <time>2013-09-04T13:16:09Z</time>
      </trkpt>
      <trkpt lat="43.052583" lon="-4.716367">
        <ele>2457.0</ele>
        <time>2013-09-04T13:16:10Z</time>
      </trkpt>
      <trkpt lat="43.052500" lon="-4.716383">
        <ele>2458.0</ele>
        <time>2013-09-04T13:16:11Z</time>
      </trkpt>
      <trkpt lat="43.052433" lon="-4.716400">
        <ele>2459.0</ele>
        <time>2013-09-04T13:16:12Z</time>
      </trkpt>
      <trkpt lat="43.052350" lon="-4.716417">
        <ele>2459.0</ele>
        <time>2013-09-04T13:16:13Z</time>
      </trkpt>
      <trkpt lat="43.052267" lon="-4.716433">
        <ele>2459.0</ele>
        <time>2013-09-04T13:16:14Z</time>
      </trkpt>
      <trkpt lat="43.052167" lon="-4.716467">
        <ele>2459.0</ele>
        <time>2013-09-04T13:16:15Z</time>
      </trkpt>
      <trkpt lat="43.052050" lon="-4.716467">
        <ele>2460.0</ele>
        <time>2013-09-04T13:16:16Z</time>
      </trkpt>
      <trkpt lat="43.051950" lon="-4.716450">
        <ele>2462.0</ele>
        <time>2013-09-04T13:16:17Z</time>
      </trkpt>
      <trkpt lat="43.051850" lon="-4.716417">
        <ele>2465.0</ele>
        <time>2013-09-04T13:16:18Z</time>
      </trkpt>
      <trkpt lat="43.051783" lon="-4.716383">
        <ele>2468.0</ele>
        <time>2013-09-04T13:16:19Z</time>
      </trkpt>
      <trkpt lat="43.051700" lon="-4.716350">
        <ele>2470.0</ele>
        <time>2013-09-04T13:16:20Z</time>
      </trkpt>
      <trkpt lat="43.051633" lon="-4.716333">
        <ele>2472.0</ele>
        <time>2013-09-04T13:16:21Z</time>
      </trkpt>
      <trkpt lat="43.051550" lon="-4.716300">
        <ele>2475.0</ele>
        <time>2013-09-04T13:16:22Z</time>
      </trkpt>
      <trkpt lat="43.051483" lon="-4.716300">
        <ele>2477.0</ele>
        <time>2013-09-04T13:16:23Z</time>
      </trkpt>
      <trkpt lat="43.051433" lon="-4.716283">
        <ele>2478.0</ele>
        <time>2013-09-04T13:16:24Z</time>
      </trkpt>
      <trkpt lat="43.051367" lon="-4.716300">
        <ele>2479.0</ele>
        <time>2013-09-04T13:16:25Z</time>
      </trkpt>
      <trkpt lat="43.051300" lon="-4.716300">
        <ele>2480.0</ele>
        <time>2013-09-04T13:16:26Z</time>
      </trkpt>
      <trkpt lat="43.051217" lon="-4.716333">
        <ele>2480.0</ele>
        <time>2013-09-04T13:16:27Z</time>
      </trkpt>
      <trkpt lat="43.051133" lon="-4.716350">
        <ele>2480.0</ele>
        <time>2013-09-04T13:16:28Z</time>
      </trkpt>
      <trkpt lat="43.051050" lon="-4.716350">
        <ele>2480.0</ele>
        <time>2013-09-04T13:16:29Z</time>
      </trkpt>
      <trkpt lat="43.050983" lon="-4.716333">
        <ele>2481.0</ele>
        <time>2013-09-04T13:16:30Z</time>
      </trkpt>
      <trkpt lat="43.050900" lon="-4.716300">
        <ele>2482.0</ele>
        <time>2013-09-04T13:16:31Z</time>
      </trkpt>
      <trkpt lat="43.050817" lon="-4.716267">
        <ele>2483.0</ele>
        <time>2013-09-04T13:16:32Z</time>
      </trkpt>
      <trkpt lat="43.050733" lon="-4.716250">
        <ele>2484.0</ele>
        <time>2013-09-04T13:16:33Z</time>
      </trkpt>
      <trkpt lat="43.050617" lon="-4.716233">
        <ele>2485.0</ele>
        <time>2013-09-04T13:16:34Z</time>
      </trkpt>
      <trkpt lat="43.050517" lon="-4.716200">
        <ele>2488.0</ele>
        <time>2013-09-04T13:16:35Z</time>
      </trkpt>
      <trkpt lat="43.050433" lon="-4.716183">
        <ele>2491.0</ele>
        <time>2013-09-04T13:16:36Z</time>
      </trkpt>
      <trkpt lat="43.050350" lon="-4.716167">
        <ele>2494.0</ele>
        <time>2013-09-04T13:16:37Z</time>
      </trkpt>
      <trkpt lat="43.050267" lon="-4.716150">
        <ele>2496.0</ele>
        <time>2013-09-04T13:16:38Z</time>
      </trkpt>
      <trkpt lat="43.050200" lon="-4.716150">
        <ele>2498.0</ele>
        <time>2013-09-04T13:16:39Z</time>
      </trkpt>
      <trkpt lat="43.050133" lon="-4.716133">
        <ele>2500.0</ele>
        <time>2013-09-04T13:16:40Z</time>
      </trkpt>
      <trkpt lat="43.050067" lon="-4.716117">
        <ele>2501.0</ele>
        <time>2013-09-04T13:16:41Z</time>
      </trkpt>
      <trkpt lat="43.050000" lon="-4.716067">
        <ele>2500.0</ele>
        <time>2013-09-04T13:16:42Z</time>
      </trkpt>
      <trkpt lat="43.049933" lon="-4.716017">
        <ele>2500.0</ele>
        <time>2013-09-04T13:16:43Z</time>
      </trkpt>
      <trkpt lat="43.049883" lon="-4.715933">
        <ele>2501.0</ele>
        <time>2013-09-04T13:16:44Z</time>
      </trkpt>
      <trkpt lat="43.049850" lon="-4.715833">
        <ele>2502.0</ele>
        <time>2013-09-04T13:16:45Z</time>
      </trkpt>
      <trkpt lat="43.049850" lon="-4.715750">
        <ele>2502.0</ele>
        <time>2013-09-04T13:16:46Z</time>
      </trkpt>
      <trkpt lat="43.049867" lon="-4.715650">
        <ele>2503.0</ele>
        <time>2013-09-04T13:16:47Z</time>
      </trkpt>
      <trkpt lat="43.049900" lon="-4.715550">
        <ele>2504.0</ele>
        <time>2013-09-04T13:16:48Z</time>
      </trkpt>
      <trkpt lat="43.049967" lon="-4.715450">
        <ele>2506.0</ele>
        <time>2013-09-04T13:16:49Z</time>
      </trkpt>
      <trkpt lat="43.050017" lon="-4.715400">
        <ele>2508.0</ele>
        <time>2013-09-04T13:16:50Z</time>
      </trkpt>
      <trkpt lat="43.050100" lon="-4.715367">
        <ele>2509.0</ele>
        <time>2013-09-04T13:16:51Z</time>
      </trkpt>
      <trkpt lat="43.050167" lon="-4.715350">
        <ele>2510.0</ele>
        <time>2013-09-04T13:16:52Z</time>
      </trkpt>
      <trkpt lat="43.050250" lon="-4.715350">
        <ele>2510.0</ele>
        <time>2013-09-04T13:16:53Z</time>
      </trkpt>
      <trkpt lat="43.050317" lon="-4.715383">
        <ele>2511.0</ele>
        <time>2013-09-04T13:16:54Z</time>
      </trkpt>
      <trkpt lat="43.050400" lon="-4.715433">
        <ele>2512.0</ele>
        <time>2013-09-04T13:16:55Z</time>
      </trkpt>
      <trkpt lat="43.050467" lon="-4.715517">
        <ele>2512.0</ele>
        <time>2013-09-04T13:16:56Z</time>
      </trkpt>
      <trkpt lat="43.050500" lon="-4.715650">
        <ele>2512.0</ele>
        <time>2013-09-04T13:16:57Z</time>
      </trkpt>
      <trkpt lat="43.050500" lon="-4.715783">
        <ele>2511.0</ele>
        <time>2013-09-04T13:16:58Z</time>
      </trkpt>
      <trkpt lat="43.050450" lon="-4.715933">
        <ele>2511.0</ele>
        <time>2013-09-04T13:16:59Z</time>
      </trkpt>
      <trkpt lat="43.050400" lon="-4.716033">
        <ele>2511.0</ele>
        <time>2013-09-04T13:17:00Z</time>
      </trkpt>
      <trkpt lat="43.050317" lon="-4.716117">
        <ele>2513.0</ele>
        <time>2013-09-04T13:17:01Z</time>
      </trkpt>
      <trkpt lat="43.050233" lon="-4.716150">
        <ele>2515.0</ele>
        <time>2013-09-04T13:17:02Z</time>
      </trkpt>
      <trkpt lat="43.050167" lon="-4.716200">
        <ele>2517.0</ele>
        <time>2013-09-04T13:17:03Z</time>
      </trkpt>
      <trkpt lat="43.050100" lon="-4.716250">
        <ele>2519.0</ele>
        <time>2013-09-04T13:17:04Z</time>
      </trkpt>
      <trkpt lat="43.050050" lon="-4.716300">
        <ele>2521.0</ele>
        <time>2013-09-04T13:17:05Z</time>
      </trkpt>
      <trkpt lat="43.050000" lon="-4.716367">
        <ele>2522.0</ele>
        <time>2013-09-04T13:17:06Z</time>
      </trkpt>
      <trkpt lat="43.049933" lon="-4.716433">
        <ele>2523.0</ele>
        <time>2013-09-04T13:17:07Z</time>
      </trkpt>
      <trkpt lat="43.049867" lon="-4.716483">
        <ele>2522.0</ele>
        <time>2013-09-04T13:17:08Z</time>
      </trkpt>
      <trkpt lat="43.049800" lon="-4.716550">
        <ele>2522.0</ele>
        <time>2013-09-04T13:17:09Z</time>
      </trkpt>
      <trkpt lat="43.049717" lon="-4.716600">
        <ele>2523.0</ele>
        <time>2013-09-04T13:17:10Z</time>
      </trkpt>
      <trkpt lat="43.049633" lon="-4.716633">
        <ele>2523.0</ele>
        <time>2013-09-04T13:17:11Z</time>
      </trkpt>
      <trkpt lat="43.049550" lon="-4.716667">
        <ele>2524.0</ele>
        <time>2013-09-04T13:17:12Z</time>
      </trkpt>
      <trkpt lat="43.049467" lon="-4.716700">
        <ele>2524.0</ele>
        <time>2013-09-04T13:17:13Z</time>
      </trkpt>
      <trkpt lat="43.049400" lon="-4.716717">
        <ele>2524.0</ele>
        <time>2013-09-04T13:17:14Z</time>
      </trkpt>
      <trkpt lat="43.049300" lon="-4.716733">
        <ele>2524.0</ele>
        <time>2013-09-04T13:17:15Z</time>
      </trkpt>
      <trkpt lat="43.049217" lon="-4.716750">
        <ele>2525.0</ele>
        <time>2013-09-04T13:17:16Z</time>
      </trkpt>
      <trkpt lat="43.049133" lon="-4.716767">
        <ele>2527.0</ele>
        <time>2013-09-04T13:17:17Z</time>
      </trkpt>
      <trkpt lat="43.049050" lon="-4.716750">
        <ele>2529.0</ele>
        <time>2013-09-04T13:17:18Z</time>
      </trkpt>
      <trkpt lat="43.048983" lon="-4.716733">
        <ele>2530.0</ele>
        <time>2013-09-04T13:17:19Z</time>
      </trkpt>
      <trkpt lat="43.048900" lon="-4.716717">
        <ele>2532.0</ele>
        <time>2013-09-04T13:17:20Z</time>
      </trkpt>
      <trkpt lat="43.048833" lon="-4.716700">
        <ele>2532.0</ele>
        <time>2013-09-04T13:17:21Z</time>
      </trkpt>
      <trkpt lat="43.048767" lon="-4.716683">
        <ele>2533.0</ele>
        <time>2013-09-04T13:17:22Z</time>
      </trkpt>
      <trkpt lat="43.048700" lon="-4.716667">
        <ele>2533.0</ele>
        <time>2013-09-04T13:17:23Z</time>
      </trkpt>
      <trkpt lat="43.048617" lon="-4.716650">
        <ele>2534.0</ele>
        <time>2013-09-04T13:17:24Z</time>
      </trkpt>
      <trkpt lat="43.048533" lon="-4.716633">
        <ele>2536.0</ele>
        <time>2013-09-04T13:17:25Z</time>
      </trkpt>
      <trkpt lat="43.048467" lon="-4.716633">
        <ele>2537.0</ele>
        <time>2013-09-04T13:17:26Z</time>
      </trkpt>
      <trkpt lat="43.048383" lon="-4.716617">
        <ele>2539.0</ele>
        <time>2013-09-04T13:17:27Z</time>
      </trkpt>
      <trkpt lat="43.048317" lon="-4.716617">
        <ele>2540.0</ele>
        <time>2013-09-04T13:17:28Z</time>
      </trkpt>
      <trkpt lat="43.048233" lon="-4.716617">
        <ele>2541.0</ele>
        <time>2013-09-04T13:17:29Z</time>
      </trkpt>
      <trkpt lat="43.048167" lon="-4.716633">
        <ele>2542.0</ele>
        <time>2013-09-04T13:17:30Z</time>
      </trkpt>
      <trkpt lat="43.048083" lon="-4.716650">
        <ele>2544.0</ele>
        <time>2013-09-04T13:17:31Z</time>
      </trkpt>
      <trkpt lat="43.048000" lon="-4.716667">
        <ele>2545.0</ele>
        <time>2013-09-04T13:17:32Z</time>
      </trkpt>
      <trkpt lat="43.047933" lon="-4.716700">
        <ele>2547.0</ele>
        <time>2013-09-04T13:17:33Z</time>
      </trkpt>
      <trkpt lat="43.047850" lon="-4.716733">
        <ele>2549.0</ele>
        <time>2013-09-04T13:17:34Z</time>
      </trkpt>
      <trkpt lat="43.047783" lon="-4.716783">
        <ele>2551.0</ele>
        <time>2013-09-04T13:17:35Z</time>
      </trkpt>
      <trkpt lat="43.047717" lon="-4.716833">
        <ele>2552.0</ele>
        <time>2013-09-04T13:17:36Z</time>
      </trkpt>
      <trkpt lat="43.047650" lon="-4.716917">
        <ele>2553.0</ele>
        <time>2013-09-04T13:17:37Z</time>
      </trkpt>
      <trkpt lat="43.047583" lon="-4.717017">
        <ele>2554.0</ele>
        <time>2013-09-04T13:17:38Z</time>
      </trkpt>
      <trkpt lat="43.047517" lon="-4.717100">
        <ele>2554.0</ele>
        <time>2013-09-04T13:17:39Z</time>
      </trkpt>
      <trkpt lat="43.047450" lon="-4.717200">
        <ele>2555.0</ele>
        <time>2013-09-04T13:17:40Z</time>
      </trkpt>
      <trkpt lat="43.047367" lon="-4.717283">
        <ele>2556.0</ele>
        <time>2013-09-04T13:17:41Z</time>
      </trkpt>
      <trkpt lat="43.047300" lon="-4.717367">
        <ele>2557.0</ele>
        <time>2013-09-04T13:17:42Z</time>
      </trkpt>
      <trkpt lat="43.047217" lon="-4.717450">
        <ele>2558.0</ele>
        <time>2013-09-04T13:17:43Z</time>
      </trkpt>
      <trkpt lat="43.047133" lon="-4.717500">
        <ele>2559.0</ele>
        <time>2013-09-04T13:17:44Z</time>
      </trkpt>
      <trkpt lat="43.047050" lon="-4.717533">
        <ele>2561.0</ele>
        <time>2013-09-04T13:17:45Z</time>
      </trkpt>
      <trkpt lat="43.046983" lon="-4.717550">
        <ele>2562.0</ele>
        <time>2013-09-04T13:17:46Z</time>
      </trkpt>
      <trkpt lat="43.046900" lon="-4.717517">
        <ele>2563.0</ele>
        <time>2013-09-04T13:17:47Z</time>
      </trkpt>
      <trkpt lat="43.046833" lon="-4.717500">
        <ele>2565.0</ele>
        <time>2013-09-04T13:17:48Z</time>
      </trkpt>
      <trkpt lat="43.046767" lon="-4.717483">
        <ele>2567.0</ele>
        <time>2013-09-04T13:17:49Z</time>
      </trkpt>
      <trkpt lat="43.046700" lon="-4.717483">
        <ele>2567.0</ele>
        <time>2013-09-04T13:17:50Z</time>
      </trkpt>
      <trkpt lat="43.046633" lon="-4.717467">
        <ele>2567.0</ele>
        <time>2013-09-04T13:17:51Z</time>
      </trkpt>
      <trkpt lat="43.046550" lon="-4.717433">
        <ele>2567.0</ele>
        <time>2013-09-04T13:17:52Z</time>
      </trkpt>
      <trkpt lat="43.046483" lon="-4.717383">
        <ele>2567.0</ele>
        <time>2013-09-04T13:17:53Z</time>
      </trkpt>
      <trkpt lat="43.046417" lon="-4.717333">
        <ele>2569.0</ele>
        <time>2013-09-04T13:17:54Z</time>
      </trkpt>
      <trkpt lat="43.046350" lon="-4.717283">
        <ele>2570.0</ele>
        <time>2013-09-04T13:17:55Z</time>
      </trkpt>
      <trkpt lat="43.046300" lon="-4.717233">
        <ele>2571.0</ele>
        <time>2013-09-04T13:17:56Z</time>
      </trkpt>
      <trkpt lat="43.046250" lon="-4.717200">
        <ele>2571.0</ele>
        <time>2013-09-04T13:17:57Z</time>
      </trkpt>
      <trkpt lat="43.046183" lon="-4.717167">
        <ele>2570.0</ele>
        <time>2013-09-04T13:17:58Z</time>
      </trkpt>
      <trkpt lat="43.046117" lon="-4.717117">
        <ele>2569.0</ele>
        <time>2013-09-04T13:17:59Z</time>
      </trkpt>
      <trkpt lat="43.046033" lon="-4.717083">
        <ele>2568.0</ele>
        <time>2013-09-04T13:18:00Z</time>
      </trkpt>
      <trkpt lat="43.045967" lon="-4.717050">
        <ele>2567.0</ele>
        <time>2013-09-04T13:18:01Z</time>
      </trkpt>
      <trkpt lat="43.045883" lon="-4.717050">
        <ele>2566.0</ele>
        <time>2013-09-04T13:18:02Z</time>
      </trkpt>
      <trkpt lat="43.045817" lon="-4.717083">
        <ele>2565.0</ele>
        <time>2013-09-04T13:18:03Z</time>
      </trkpt>
      <trkpt lat="43.045733" lon="-4.717117">
        <ele>2563.0</ele>
        <time>2013-09-04T13:18:04Z</time>
      </trkpt>
      <trkpt lat="43.045667" lon="-4.717183">
        <ele>2562.0</ele>
        <time>2013-09-04T13:18:05Z</time>
      </trkpt>
      <trkpt lat="43.045617" lon="-4.717267">
        <ele>2561.0</ele>
        <time>2013-09-04T13:18:06Z</time>
      </trkpt>
      <trkpt lat="43.045567" lon="-4.717383">
        <ele>2560.0</ele>
        <time>2013-09-04T13:18:07Z</time>
      </trkpt>
      <trkpt lat="43.045517" lon="-4.717500">
        <ele>2558.0</ele>
        <time>2013-09-04T13:18:08Z</time>
      </trkpt>
      <trkpt lat="43.045483" lon="-4.717633">
        <ele>2557.0</ele>
        <time>2013-09-04T13:18:09Z</time>
      </trkpt>
      <trkpt lat="43.045433" lon="-4.717767">
        <ele>2555.0</ele>
        <time>2013-09-04T13:18:10Z</time>
      </trkpt>
      <trkpt lat="43.045383" lon="-4.717917">
        <ele>2555.0</ele>
        <time>2013-09-04T13:18:11Z</time>
      </trkpt>
      <trkpt lat="43.045333" lon="-4.718067">
        <ele>2554.0</ele>
        <time>2013-09-04T13:18:12Z</time>
      </trkpt>
      <trkpt lat="43.045317" lon="-4.718200">
        <ele>2554.0</ele>
        <time>2013-09-04T13:18:13Z</time>
      </trkpt>
      <trkpt lat="43.045283" lon="-4.718333">
        <ele>2553.0</ele>
        <time>2013-09-04T13:18:14Z</time>
      </trkpt>
      <trkpt lat="43.045250" lon="-4.718483">
        <ele>2552.0</ele>
        <time>2013-09-04T13:18:15Z</time>
      </trkpt>
      <trkpt lat="43.045233" lon="-4.718650">
        <ele>2550.0</ele>
        <time>2013-09-04T13:18:16Z</time>
      </trkpt>
      <trkpt lat="43.045217" lon="-4.718800">
        <ele>2549.0</ele>
        <time>2013-09-04T13:18:17Z</time>
      </trkpt>
      <trkpt lat="43.045200" lon="-4.718983">
        <ele>2548.0</ele>
        <time>2013-09-04T13:18:18Z</time>
      </trkpt>
      <trkpt lat="43.045183" lon="-4.719150">
        <ele>2547.0</ele>
        <time>2013-09-04T13:18:19Z</time>
      </trkpt>
      <trkpt lat="43.045167" lon="-4.719300">
        <ele>2547.0</ele>
        <time>2013-09-04T13:18:20Z</time>
      </trkpt>
      <trkpt lat="43.045150" lon="-4.719467">
        <ele>2547.0</ele>
        <time>2013-09-04T13:18:21Z</time>
      </trkpt>
      <trkpt lat="43.045117" lon="-4.719633">
        <ele>2547.0</ele>
        <time>2013-09-04T13:18:22Z</time>
      </trkpt>
      <trkpt lat="43.045100" lon="-4.719767">
        <ele>2548.0</ele>
        <time>2013-09-04T13:18:23Z</time>
      </trkpt>
      <trkpt lat="43.045067" lon="-4.719900">
        <ele>2549.0</ele>
        <time>2013-09-04T13:18:24Z</time>
      </trkpt>
      <trkpt lat="43.045050" lon="-4.720017">
        <ele>2550.0</ele>
        <time>2013-09-04T13:18:25Z</time>
      </trkpt>
      <trkpt lat="43.045017" lon="-4.720150">
        <ele>2550.0</ele>
        <time>2013-09-04T13:18:26Z</time>
      </trkpt>
      <trkpt lat="43.044967" lon="-4.720267">
        <ele>2550.0</ele>
        <time>2013-09-04T13:18:27Z</time>
      </trkpt>
      <trkpt lat="43.044933" lon="-4.720400">
        <ele>2551.0</ele>
        <time>2013-09-04T13:18:28Z</time>
      </trkpt>
      <trkpt lat="43.044883" lon="-4.720517">
        <ele>2551.0</ele>
        <time>2013-09-04T13:18:29Z</time>
      </trkpt>
      <trkpt lat="43.044817" lon="-4.720650">
        <ele>2553.0</ele>
        <time>2013-09-04T13:18:30Z</time>
      </trkpt>
      <trkpt lat="43.044767" lon="-4.720783">
        <ele>2555.0</ele>
        <time>2013-09-04T13:18:31Z</time>
      </trkpt>
      <trkpt lat="43.044717" lon="-4.720883">
        <ele>2556.0</ele>
        <time>2013-09-04T13:18:32Z</time>
      </trkpt>
      <trkpt lat="43.044683" lon="-4.721000">
        <ele>2557.0</ele>
        <time>2013-09-04T13:18:33Z</time>
      </trkpt>
      <trkpt lat="43.044650" lon="-4.721100">
        <ele>2558.0</ele>
        <time>2013-09-04T13:18:34Z</time>
      </trkpt>
      <trkpt lat="43.044617" lon="-4.721233">
        <ele>2558.0</ele>
        <time>2013-09-04T13:18:35Z</time>
      </trkpt>
      <trkpt lat="43.044583" lon="-4.721350">
        <ele>2558.0</ele>
        <time>2013-09-04T13:18:36Z</time>
      </trkpt>
      <trkpt lat="43.044533" lon="-4.721467">
        <ele>2558.0</ele>
        <time>2013-09-04T13:18:37Z</time>
      </trkpt>
      <trkpt lat="43.044483" lon="-4.721583">
        <ele>2557.0</ele>
        <time>2013-09-04T13:18:38Z</time>
      </trkpt>
      <trkpt lat="43.044433" lon="-4.721700">
        <ele>2556.0</ele>
        <time>2013-09-04T13:18:39Z</time>
      </trkpt>
      <trkpt lat="43.044367" lon="-4.721850">
        <ele>2555.0</ele>
        <time>2013-09-04T13:18:40Z</time>
      </trkpt>
      <trkpt lat="43.044300" lon="-4.722000">
        <ele>2556.0</ele>
        <time>2013-09-04T13:18:41Z</time>
      </trkpt>
      <trkpt lat="43.044217" lon="-4.722150">
        <ele>2558.0</ele>
        <time>2013-09-04T13:18:42Z</time>
      </trkpt>
      <trkpt lat="43.044150" lon="-4.722267">
        <ele>2560.0</ele>
        <time>2013-09-04T13:18:43Z</time>
      </trkpt>
      <trkpt lat="43.044083" lon="-4.722367">
        <ele>2561.0</ele>
        <time>2013-09-04T13:18:44Z</time>
      </trkpt>
      <trkpt lat="43.044033" lon="-4.722483">
        <ele>2562.0</ele>
        <time>2013-09-04T13:18:45Z</time>
      </trkpt>
      <trkpt lat="43.043983" lon="-4.722617">
        <ele>2563.0</ele>
        <time>2013-09-04T13:18:46Z</time>
      </trkpt>
      <trkpt lat="43.043933" lon="-4.722733">
        <ele>2564.0</ele>
        <time>2013-09-04T13:18:47Z</time>
      </trkpt>
      <trkpt lat="43.043883" lon="-4.722833">
        <ele>2565.0</ele>
        <time>2013-09-04T13:18:48Z</time>
      </trkpt>
      <trkpt lat="43.043833" lon="-4.722950">
        <ele>2567.0</ele>
        <time>2013-09-04T13:18:49Z</time>
      </trkpt>
      <trkpt lat="43.043783" lon="-4.723050">
        <ele>2567.0</ele>
        <time>2013-09-04T13:18:50Z</time>
      </trkpt>
      <trkpt lat="43.043733" lon="-4.723150">
        <ele>2568.0</ele>
        <time>2013-09-04T13:18:51Z</time>
      </trkpt>
      <trkpt lat="43.043683" lon="-4.723283">
        <ele>2570.0</ele>
        <time>2013-09-04T13:18:52Z</time>
      </trkpt>
      <trkpt lat="43.043633" lon="-4.723417">
        <ele>2571.0</ele>
        <time>2013-09-04T13:18:53Z</time>
      </trkpt>
      <trkpt lat="43.043583" lon="-4.723533">
        <ele>2572.0</ele>
        <time>2013-09-04T13:18:54Z</time>
      </trkpt>
      <trkpt lat="43.043533" lon="-4.723667">
        <ele>2574.0</ele>
        <time>2013-09-04T13:18:55Z</time>
      </trkpt>
      <trkpt lat="43.043483" lon="-4.723783">
        <ele>2575.0</ele>
        <time>2013-09-04T13:18:56Z</time>
      </trkpt>
      <trkpt lat="43.043433" lon="-4.723917">
        <ele>2577.0</ele>
        <time>2013-09-04T13:18:57Z</time>
      </trkpt>
      <trkpt lat="43.043367" lon="-4.724050">
        <ele>2578.0</ele>
        <time>2013-09-04T13:18:58Z</time>
      </trkpt>
      <trkpt lat="43.043300" lon="-4.724167">
        <ele>2579.0</ele>
        <time>2013-09-04T13:18:59Z</time>
      </trkpt>
      <trkpt lat="43.043233" lon="-4.724283">
        <ele>2580.0</ele>
        <time>2013-09-04T13:19:00Z</time>
      </trkpt>
      <trkpt lat="43.043183" lon="-4.724400">
        <ele>2582.0</ele>
        <time>2013-09-04T13:19:01Z</time>
      </trkpt>
      <trkpt lat="43.043117" lon="-4.724500">
        <ele>2583.0</ele>
        <time>2013-09-04T13:19:02Z</time>
      </trkpt>
      <trkpt lat="43.043050" lon="-4.724617">
        <ele>2584.0</ele>
        <time>2013-09-04T13:19:03Z</time>
      </trkpt>
      <trkpt lat="43.042983" lon="-4.724717">
        <ele>2585.0</ele>
        <time>2013-09-04T13:19:04Z</time>
      </trkpt>
      <trkpt lat="43.042900" lon="-4.724800">
        <ele>2585.0</ele>
        <time>2013-09-04T13:19:05Z</time>
      </trkpt>
      <trkpt lat="43.042800" lon="-4.724867">
        <ele>2585.0</ele>
        <time>2013-09-04T13:19:06Z</time>
      </trkpt>
      <trkpt lat="43.042700" lon="-4.724933">
        <ele>2586.0</ele>
        <time>2013-09-04T13:19:07Z</time>
      </trkpt>
      <trkpt lat="43.042600" lon="-4.724983">
        <ele>2588.0</ele>
        <time>2013-09-04T13:19:08Z</time>
      </trkpt>
      <trkpt lat="43.042517" lon="-4.725050">
        <ele>2590.0</ele>
        <time>2013-09-04T13:19:09Z</time>
      </trkpt>
      <trkpt lat="43.042433" lon="-4.725100">
        <ele>2591.0</ele>
        <time>2013-09-04T13:19:10Z</time>
      </trkpt>
      <trkpt lat="43.042350" lon="-4.725150">
        <ele>2591.0</ele>
        <time>2013-09-04T13:19:11Z</time>
      </trkpt>
      <trkpt lat="43.042250" lon="-4.725167">
        <ele>2591.0</ele>
        <time>2013-09-04T13:19:12Z</time>
      </trkpt>
      <trkpt lat="43.042133" lon="-4.725183">
        <ele>2592.0</ele>
        <time>2013-09-04T13:19:13Z</time>
      </trkpt>
      <trkpt lat="43.042033" lon="-4.725217">
        <ele>2593.0</ele>
        <time>2013-09-04T13:19:14Z</time>
      </trkpt>
      <trkpt lat="43.041917" lon="-4.725267">
        <ele>2595.0</ele>
        <time>2013-09-04T13:19:15Z</time>
      </trkpt>
      <trkpt lat="43.041817" lon="-4.725333">
        <ele>2597.0</ele>
        <time>2013-09-04T13:19:16Z</time>
      </trkpt>
      <trkpt lat="43.041733" lon="-4.725400">
        <ele>2598.0</ele>
        <time>2013-09-04T13:19:17Z</time>
      </trkpt>
      <trkpt lat="43.041633" lon="-4.725450">
        <ele>2599.0</ele>
        <time>2013-09-04T13:19:18Z</time>
      </trkpt>
      <trkpt lat="43.041550" lon="-4.725483">
        <ele>2599.0</ele>
        <time>2013-09-04T13:19:19Z</time>
      </trkpt>
      <trkpt lat="43.041450" lon="-4.725500">
        <ele>2600.0</ele>
        <time>2013-09-04T13:19:20Z</time>
      </trkpt>
      <trkpt lat="43.041350" lon="-4.725517">
        <ele>2601.0</ele>
        <time>2013-09-04T13:19:21Z</time>
      </trkpt>
      <trkpt lat="43.041267" lon="-4.725550">
        <ele>2601.0</ele>
        <time>2013-09-04T13:19:22Z</time>
      </trkpt>
      <trkpt lat="43.041200" lon="-4.725583">
        <ele>2600.0</ele>
        <time>2013-09-04T13:19:23Z</time>
      </trkpt>
      <trkpt lat="43.041133" lon="-4.725583">
        <ele>2598.0</ele>
        <time>2013-09-04T13:19:24Z</time>
      </trkpt>
      <trkpt lat="43.041050" lon="-4.725567">
        <ele>2595.0</ele>
        <time>2013-09-04T13:19:25Z</time>
      </trkpt>
      <trkpt lat="43.040967" lon="-4.725517">
        <ele>2592.0</ele>
        <time>2013-09-04T13:19:26Z</time>
      </trkpt>
      <trkpt lat="43.040883" lon="-4.725467">
        <ele>2590.0</ele>
        <time>2013-09-04T13:19:27Z</time>
      </trkpt>
      <trkpt lat="43.040817" lon="-4.725417">
        <ele>2588.0</ele>
        <time>2013-09-04T13:19:28Z</time>
      </trkpt>
      <trkpt lat="43.040767" lon="-4.725367">
        <ele>2586.0</ele>
        <time>2013-09-04T13:19:29Z</time>
      </trkpt>
      <trkpt lat="43.040733" lon="-4.725300">
        <ele>2586.0</ele>
        <time>2013-09-04T13:19:30Z</time>
      </trkpt>
      <trkpt lat="43.040750" lon="-4.725250">
        <ele>2585.0</ele>
        <time>2013-09-04T13:19:31Z</time>
      </trkpt>
      <trkpt lat="43.040783" lon="-4.725200">
        <ele>2583.0</ele>
        <time>2013-09-04T13:19:32Z</time>
      </trkpt>
      <trkpt lat="43.040850" lon="-4.725167">
        <ele>2582.0</ele>
        <time>2013-09-04T13:19:33Z</time>
      </trkpt>
      <trkpt lat="43.040933" lon="-4.725167">
        <ele>2580.0</ele>
        <time>2013-09-04T13:19:34Z</time>
      </trkpt>
      <trkpt lat="43.041033" lon="-4.725167">
        <ele>2579.0</ele>
        <time>2013-09-04T13:19:35Z</time>
      </trkpt>
      <trkpt lat="43.041117" lon="-4.725200">
        <ele>2577.0</ele>
        <time>2013-09-04T13:19:36Z</time>
      </trkpt>
      <trkpt lat="43.041217" lon="-4.725233">
        <ele>2575.0</ele>
        <time>2013-09-04T13:19:37Z</time>
      </trkpt>
      <trkpt lat="43.041333" lon="-4.725267">
        <ele>2573.0</ele>
        <time>2013-09-04T13:19:38Z</time>
      </trkpt>
      <trkpt lat="43.041450" lon="-4.725300">
        <ele>2570.0</ele>
        <time>2013-09-04T13:19:39Z</time>
      </trkpt>
      <trkpt lat="43.041567" lon="-4.725367">
        <ele>2569.0</ele>
        <time>2013-09-04T13:19:40Z</time>
      </trkpt>
      <trkpt lat="43.041667" lon="-4.725400">
        <ele>2568.0</ele>
        <time>2013-09-04T13:19:41Z</time>
      </trkpt>
      <trkpt lat="43.041767" lon="-4.725433">
        <ele>2567.0</ele>
        <time>2013-09-04T13:19:42Z</time>
      </trkpt>
      <trkpt lat="43.041883" lon="-4.725483">
        <ele>2565.0</ele>
        <time>2013-09-04T13:19:43Z</time>
      </trkpt>
      <trkpt lat="43.041983" lon="-4.725533">
        <ele>2564.0</ele>
        <time>2013-09-04T13:19:44Z</time>
      </trkpt>
      <trkpt lat="43.042100" lon="-4.725600">
        <ele>2563.0</ele>
        <time>2013-09-04T13:19:45Z</time>
      </trkpt>
      <trkpt lat="43.042200" lon="-4.725667">
        <ele>2563.0</ele>
        <time>2013-09-04T13:19:46Z</time>
      </trkpt>
      <trkpt lat="43.042317" lon="-4.725733">
        <ele>2563.0</ele>
        <time>2013-09-04T13:19:47Z</time>
      </trkpt>
      <trkpt lat="43.042417" lon="-4.725817">
        <ele>2564.0</ele>
        <time>2013-09-04T13:19:48Z</time>
      </trkpt>
      <trkpt lat="43.042500" lon="-4.725883">
        <ele>2564.0</ele>
        <time>2013-09-04T13:19:49Z</time>
      </trkpt>
      <trkpt lat="43.042583" lon="-4.725967">
        <ele>2564.0</ele>
        <time>2013-09-04T13:19:50Z</time>
      </trkpt>
      <trkpt lat="43.042667" lon="-4.726067">
        <ele>2565.0</ele>
        <time>2013-09-04T13:19:51Z</time>
      </trkpt>
      <trkpt lat="43.042733" lon="-4.726150">
        <ele>2566.0</ele>
        <time>2013-09-04T13:19:52Z</time>
      </trkpt>
      <trkpt lat="43.042783" lon="-4.726233">
        <ele>2566.0</ele>
        <time>2013-09-04T13:19:53Z</time>
      </trkpt>
      <trkpt lat="43.042833" lon="-4.726333">
        <ele>2566.0</ele>
        <time>2013-09-04T13:19:54Z</time>
      </trkpt>
      <trkpt lat="43.042867" lon="-4.726450">
        <ele>2566.0</ele>
        <time>2013-09-04T13:19:55Z</time>
      </trkpt>
      <trkpt lat="43.042917" lon="-4.726567">
        <ele>2565.0</ele>
        <time>2013-09-04T13:19:56Z</time>
      </trkpt>
      <trkpt lat="43.042967" lon="-4.726667">
        <ele>2565.0</ele>
        <time>2013-09-04T13:19:57Z</time>
      </trkpt>
      <trkpt lat="43.043017" lon="-4.726783">
        <ele>2564.0</ele>
        <time>2013-09-04T13:19:58Z</time>
      </trkpt>
      <trkpt lat="43.043067" lon="-4.726900">
        <ele>2562.0</ele>
        <time>2013-09-04T13:19:59Z</time>
      </trkpt>
      <trkpt lat="43.043133" lon="-4.727017">
        <ele>2559.0</ele>
        <time>2013-09-04T13:20:00Z</time>
      </trkpt>
      <trkpt lat="43.043183" lon="-4.727117">
        <ele>2557.0</ele>
        <time>2013-09-04T13:20:01Z</time>
      </trkpt>
      <trkpt lat="43.043250" lon="-4.727233">
        <ele>2555.0</ele>
        <time>2013-09-04T13:20:02Z</time>
      </trkpt>
      <trkpt lat="43.043317" lon="-4.727333">
        <ele>2553.0</ele>
        <time>2013-09-04T13:20:03Z</time>
      </trkpt>
      <trkpt lat="43.043383" lon="-4.727433">
        <ele>2552.0</ele>
        <time>2013-09-04T13:20:04Z</time>
      </trkpt>
      <trkpt lat="43.043450" lon="-4.727533">
        <ele>2551.0</ele>
        <time>2013-09-04T13:20:05Z</time>
      </trkpt>
      <trkpt lat="43.043517" lon="-4.727617">
        <ele>2550.0</ele>
        <time>2013-09-04T13:20:06Z</time>
      </trkpt>
      <trkpt lat="43.043567" lon="-4.727700">
        <ele>2548.0</ele>
        <time>2013-09-04T13:20:07Z</time>
      </trkpt>
      <trkpt lat="43.043633" lon="-4.727767">
        <ele>2546.0</ele>
        <time>2013-09-04T13:20:08Z</time>
      </trkpt>
      <trkpt lat="43.043700" lon="-4.727833">
        <ele>2544.0</ele>
        <time>2013-09-04T13:20:09Z</time>
      </trkpt>
      <trkpt lat="43.043767" lon="-4.727900">
        <ele>2542.0</ele>
        <time>2013-09-04T13:20:10Z</time>
      </trkpt>
      <trkpt lat="43.043817" lon="-4.727967">
        <ele>2540.0</ele>
        <time>2013-09-04T13:20:11Z</time>
      </trkpt>
      <trkpt lat="43.043883" lon="-4.728017">
        <ele>2539.0</ele>
        <time>2013-09-04T13:20:12Z</time>
      </trkpt>
      <trkpt lat="43.043950" lon="-4.728050">
        <ele>2537.0</ele>
        <time>2013-09-04T13:20:13Z</time>
      </trkpt>
      <trkpt lat="43.044017" lon="-4.728083">
        <ele>2535.0</ele>
        <time>2013-09-04T13:20:14Z</time>
      </trkpt>
      <trkpt lat="43.044067" lon="-4.728100">
        <ele>2533.0</ele>
        <time>2013-09-04T13:20:15Z</time>
      </trkpt>
      <trkpt lat="43.044117" lon="-4.728100">
        <ele>2531.0</ele>
        <time>2013-09-04T13:20:16Z</time>
      </trkpt>
      <trkpt lat="43.044150" lon="-4.728067">
        <ele>2529.0</ele>
        <time>2013-09-04T13:20:17Z</time>
      </trkpt>
      <trkpt lat="43.044150" lon="-4.728000">
        <ele>2526.0</ele>
        <time>2013-09-04T13:20:18Z</time>
      </trkpt>
      <trkpt lat="43.044117" lon="-4.727917">
        <ele>2521.0</ele>
        <time>2013-09-04T13:20:19Z</time>
      </trkpt>
      <trkpt lat="43.044050" lon="-4.727850">
        <ele>2517.0</ele>
        <time>2013-09-04T13:20:20Z</time>
      </trkpt>
      <trkpt lat="43.043917" lon="-4.727800">
        <ele>2513.0</ele>
        <time>2013-09-04T13:20:21Z</time>
      </trkpt>
      <trkpt lat="43.043767" lon="-4.727817">
        <ele>2510.0</ele>
        <time>2013-09-04T13:20:22Z</time>
      </trkpt>
      <trkpt lat="43.043633" lon="-4.727833">
        <ele>2511.0</ele>
        <time>2013-09-04T13:20:23Z</time>
      </trkpt>
      <trkpt lat="43.043517" lon="-4.727833">
        <ele>2511.0</ele>
        <time>2013-09-04T13:20:24Z</time>
      </trkpt>
      <trkpt lat="43.043433" lon="-4.727833">
        <ele>2510.0</ele>
        <time>2013-09-04T13:20:25Z</time>
      </trkpt>
      <trkpt lat="43.043350" lon="-4.727850">
        <ele>2507.0</ele>
        <time>2013-09-04T13:20:26Z</time>
      </trkpt>
      <trkpt lat="43.043233" lon="-4.727867">
        <ele>2504.0</ele>
        <time>2013-09-04T13:20:27Z</time>
      </trkpt>
      <trkpt lat="43.043083" lon="-4.727933">
        <ele>2500.0</ele>
        <time>2013-09-04T13:20:28Z</time>
      </trkpt>
      <trkpt lat="43.042950" lon="-4.728000">
        <ele>2498.0</ele>
        <time>2013-09-04T13:20:29Z</time>
      </trkpt>
      <trkpt lat="43.042833" lon="-4.728083">
        <ele>2497.0</ele>
        <time>2013-09-04T13:20:30Z</time>
      </trkpt>
      <trkpt lat="43.042733" lon="-4.728167">
        <ele>2496.0</ele>
        <time>2013-09-04T13:20:31Z</time>
      </trkpt>
      <trkpt lat="43.042633" lon="-4.728250">
        <ele>2495.0</ele>
        <time>2013-09-04T13:20:32Z</time>
      </trkpt>
      <trkpt lat="43.042533" lon="-4.728350">
        <ele>2492.0</ele>
        <time>2013-09-04T13:20:33Z</time>
      </trkpt>
      <trkpt lat="43.042433" lon="-4.728450">
        <ele>2489.0</ele>
        <time>2013-09-04T13:20:34Z</time>
      </trkpt>
      <trkpt lat="43.042317" lon="-4.728567">
        <ele>2486.0</ele>
        <time>2013-09-04T13:20:35Z</time>
      </trkpt>
      <trkpt lat="43.042200" lon="-4.728683">
        <ele>2485.0</ele>
        <time>2013-09-04T13:20:36Z</time>
      </trkpt>
      <trkpt lat="43.042117" lon="-4.728783">
        <ele>2485.0</ele>
        <time>2013-09-04T13:20:37Z</time>
      </trkpt>
      <trkpt lat="43.042017" lon="-4.728883">
        <ele>2484.0</ele>
        <time>2013-09-04T13:20:38Z</time>
      </trkpt>
      <trkpt lat="43.041933" lon="-4.728983">
        <ele>2482.0</ele>
        <time>2013-09-04T13:20:39Z</time>
      </trkpt>
      <trkpt lat="43.041833" lon="-4.729067">
        <ele>2479.0</ele>
        <time>2013-09-04T13:20:40Z</time>
      </trkpt>
      <trkpt lat="43.041717" lon="-4.729167">
        <ele>2476.0</ele>
        <time>2013-09-04T13:20:41Z</time>
      </trkpt>
      <trkpt lat="43.041600" lon="-4.729267">
        <ele>2473.0</ele>
        <time>2013-09-04T13:20:42Z</time>
      </trkpt>
      <trkpt lat="43.041500" lon="-4.729350">
        <ele>2472.0</ele>
        <time>2013-09-04T13:20:43Z</time>
      </trkpt>
      <trkpt lat="43.041417" lon="-4.729383">
        <ele>2472.0</ele>
        <time>2013-09-04T13:20:44Z</time>
      </trkpt>
      <trkpt lat="43.041333" lon="-4.729350">
        <ele>2468.0</ele>
        <time>2013-09-04T13:20:45Z</time>
      </trkpt>
      <trkpt lat="43.041283" lon="-4.729267">
        <ele>2464.0</ele>
        <time>2013-09-04T13:20:46Z</time>
      </trkpt>
      <trkpt lat="43.041250" lon="-4.729133">
        <ele>2461.0</ele>
        <time>2013-09-04T13:20:47Z</time>
      </trkpt>
      <trkpt lat="43.041217" lon="-4.729017">
        <ele>2459.0</ele>
        <time>2013-09-04T13:20:48Z</time>
      </trkpt>
      <trkpt lat="43.041200" lon="-4.728900">
        <ele>2458.0</ele>
        <time>2013-09-04T13:20:49Z</time>
      </trkpt>
      <trkpt lat="43.041183" lon="-4.728800">
        <ele>2458.0</ele>
        <time>2013-09-04T13:20:50Z</time>
      </trkpt>
      <trkpt lat="43.041183" lon="-4.728717">
        <ele>2457.0</ele>
        <time>2013-09-04T13:20:51Z</time>
      </trkpt>
      <trkpt lat="43.041183" lon="-4.728617">
        <ele>2455.0</ele>
        <time>2013-09-04T13:20:52Z</time>
      </trkpt>
      <trkpt lat="43.041183" lon="-4.728500">
        <ele>2453.0</ele>
        <time>2013-09-04T13:20:53Z</time>
      </trkpt>
      <trkpt lat="43.041183" lon="-4.728383">
        <ele>2451.0</ele>
        <time>2013-09-04T13:20:54Z</time>
      </trkpt>
      <trkpt lat="43.041200" lon="-4.728250">
        <ele>2450.0</ele>
        <time>2013-09-04T13:20:55Z</time>
      </trkpt>
      <trkpt lat="43.041217" lon="-4.728150">
        <ele>2449.0</ele>
        <time>2013-09-04T13:20:56Z</time>
      </trkpt>
      <trkpt lat="43.041233" lon="-4.728067">
        <ele>2449.0</ele>
        <time>2013-09-04T13:20:57Z</time>
      </trkpt>
      <trkpt lat="43.041250" lon="-4.727983">
        <ele>2449.0</ele>
        <time>2013-09-04T13:20:58Z</time>
      </trkpt>
      <trkpt lat="43.041267" lon="-4.727900">
        <ele>2449.0</ele>
        <time>2013-09-04T13:20:59Z</time>
      </trkpt>
      <trkpt lat="43.041283" lon="-4.727817">
        <ele>2448.0</ele>
        <time>2013-09-04T13:21:00Z</time>
      </trkpt>
      <trkpt lat="43.041317" lon="-4.727733">
        <ele>2447.0</ele>
        <time>2013-09-04T13:21:01Z</time>
      </trkpt>
      <trkpt lat="43.041350" lon="-4.727650">
        <ele>2445.0</ele>
        <time>2013-09-04T13:21:02Z</time>
      </trkpt>
      <trkpt lat="43.041400" lon="-4.727583">
        <ele>2444.0</ele>
        <time>2013-09-04T13:21:03Z</time>
      </trkpt>
      <trkpt lat="43.041433" lon="-4.727517">
        <ele>2444.0</ele>
        <time>2013-09-04T13:21:04Z</time>
      </trkpt>
      <trkpt lat="43.041467" lon="-4.727450">
        <ele>2443.0</ele>
        <time>2013-09-04T13:21:05Z</time>
      </trkpt>
      <trkpt lat="43.041517" lon="-4.727383">
        <ele>2441.0</ele>
        <time>2013-09-04T13:21:06Z</time>
      </trkpt>
      <trkpt lat="43.041550" lon="-4.727317">
        <ele>2439.0</ele>
        <time>2013-09-04T13:21:07Z</time>
      </trkpt>
      <trkpt lat="43.041600" lon="-4.727217">
        <ele>2436.0</ele>
        <time>2013-09-04T13:21:08Z</time>
      </trkpt>
      <trkpt lat="43.041650" lon="-4.727133">
        <ele>2434.0</ele>
        <time>2013-09-04T13:21:09Z</time>
      </trkpt>
      <trkpt lat="43.041700" lon="-4.727050">
        <ele>2434.0</ele>
        <time>2013-09-04T13:21:10Z</time>
      </trkpt>
      <trkpt lat="43.041733" lon="-4.726950">
        <ele>2434.0</ele>
        <time>2013-09-04T13:21:11Z</time>
      </trkpt>
      <trkpt lat="43.041767" lon="-4.726867">
        <ele>2434.0</ele>
        <time>2013-09-04T13:21:12Z</time>
      </trkpt>
      <trkpt lat="43.041800" lon="-4.726800">
        <ele>2433.0</ele>
        <time>2013-09-04T13:21:13Z</time>
      </trkpt>
      <trkpt lat="43.041833" lon="-4.726717">
        <ele>2432.0</ele>
        <time>2013-09-04T13:21:14Z</time>
      </trkpt>
      <trkpt lat="43.041883" lon="-4.726617">
        <ele>2430.0</ele>
        <time>2013-09-04T13:21:15Z</time>
      </trkpt>
      <trkpt lat="43.041917" lon="-4.726533">
        <ele>2428.0</ele>
        <time>2013-09-04T13:21:16Z</time>
      </trkpt>
      <trkpt lat="43.041967" lon="-4.726433">
        <ele>2427.0</ele>
        <time>2013-09-04T13:21:17Z</time>
      </trkpt>
      <trkpt lat="43.042000" lon="-4.726333">
        <ele>2425.0</ele>
        <time>2013-09-04T13:21:18Z</time>
      </trkpt>
      <trkpt lat="43.042033" lon="-4.726233">
        <ele>2424.0</ele>
        <time>2013-09-04T13:21:19Z</time>
      </trkpt>
      <trkpt lat="43.042067" lon="-4.726117">
        <ele>2422.0</ele>
        <time>2013-09-04T13:21:20Z</time>
      </trkpt>
      <trkpt lat="43.042100" lon="-4.726033">
        <ele>2422.0</ele>
        <time>2013-09-04T13:21:21Z</time>
      </trkpt>
      <trkpt lat="43.042133" lon="-4.725933">
        <ele>2420.0</ele>
        <time>2013-09-04T13:21:22Z</time>
      </trkpt>
      <trkpt lat="43.042150" lon="-4.725833">
        <ele>2418.0</ele>
        <time>2013-09-04T13:21:23Z</time>
      </trkpt>
      <trkpt lat="43.042167" lon="-4.725717">
        <ele>2417.0</ele>
        <time>2013-09-04T13:21:24Z</time>
      </trkpt>
      <trkpt lat="43.042167" lon="-4.725600">
        <ele>2417.0</ele>
        <time>2013-09-04T13:21:25Z</time>
      </trkpt>
      <trkpt lat="43.042167" lon="-4.725483">
        <ele>2415.0</ele>
        <time>2013-09-04T13:21:26Z</time>
      </trkpt>
      <trkpt lat="43.042167" lon="-4.725383">
        <ele>2414.0</ele>
        <time>2013-09-04T13:21:27Z</time>
      </trkpt>
      <trkpt lat="43.042183" lon="-4.725283">
        <ele>2413.0</ele>
        <time>2013-09-04T13:21:28Z</time>
      </trkpt>
      <trkpt lat="43.042183" lon="-4.725183">
        <ele>2412.0</ele>
        <time>2013-09-04T13:21:29Z</time>
      </trkpt>
      <trkpt lat="43.042200" lon="-4.725083">
        <ele>2411.0</ele>
        <time>2013-09-04T13:21:30Z</time>
      </trkpt>
      <trkpt lat="43.042200" lon="-4.724983">
        <ele>2410.0</ele>
        <time>2013-09-04T13:21:31Z</time>
      </trkpt>
      <trkpt lat="43.042183" lon="-4.724883">
        <ele>2409.0</ele>
        <time>2013-09-04T13:21:32Z</time>
      </trkpt>
      <trkpt lat="43.042183" lon="-4.724767">
        <ele>2406.0</ele>
        <time>2013-09-04T13:21:33Z</time>
      </trkpt>
      <trkpt lat="43.042167" lon="-4.724650">
        <ele>2404.0</ele>
        <time>2013-09-04T13:21:34Z</time>
      </trkpt>
      <trkpt lat="43.042167" lon="-4.724533">
        <ele>2402.0</ele>
        <time>2013-09-04T13:21:35Z</time>
      </trkpt>
      <trkpt lat="43.042167" lon="-4.724417">
        <ele>2401.0</ele>
        <time>2013-09-04T13:21:36Z</time>
      </trkpt>
      <trkpt lat="43.042167" lon="-4.724300">
        <ele>2399.0</ele>
        <time>2013-09-04T13:21:37Z</time>
      </trkpt>
      <trkpt lat="43.042183" lon="-4.724183">
        <ele>2398.0</ele>
        <time>2013-09-04T13:21:38Z</time>
      </trkpt>
      <trkpt lat="43.042183" lon="-4.724067">
        <ele>2397.0</ele>
        <time>2013-09-04T13:21:39Z</time>
      </trkpt>
      <trkpt lat="43.042200" lon="-4.723950">
        <ele>2395.0</ele>
        <time>2013-09-04T13:21:40Z</time>
      </trkpt>
      <trkpt lat="43.042183" lon="-4.723800">
        <ele>2392.0</ele>
        <time>2013-09-04T13:21:41Z</time>
      </trkpt>
      <trkpt lat="43.042183" lon="-4.723650">
        <ele>2391.0</ele>
        <time>2013-09-04T13:21:42Z</time>
      </trkpt>
      <trkpt lat="43.042150" lon="-4.723517">
        <ele>2389.0</ele>
        <time>2013-09-04T13:21:43Z</time>
      </trkpt>
      <trkpt lat="43.042133" lon="-4.723383">
        <ele>2388.0</ele>
        <time>2013-09-04T13:21:44Z</time>
      </trkpt>
      <trkpt lat="43.042117" lon="-4.723267">
        <ele>2388.0</ele>
        <time>2013-09-04T13:21:45Z</time>
      </trkpt>
      <trkpt lat="43.042100" lon="-4.723150">
        <ele>2387.0</ele>
        <time>2013-09-04T13:21:46Z</time>
      </trkpt>
      <trkpt lat="43.042100" lon="-4.723033">
        <ele>2386.0</ele>
        <time>2013-09-04T13:21:47Z</time>
      </trkpt>
      <trkpt lat="43.042083" lon="-4.722917">
        <ele>2384.0</ele>
        <time>2013-09-04T13:21:48Z</time>
      </trkpt>
      <trkpt lat="43.042067" lon="-4.722817">
        <ele>2381.0</ele>
        <time>2013-09-04T13:21:49Z</time>
      </trkpt>
      <trkpt lat="43.042050" lon="-4.722717">
        <ele>2379.0</ele>
        <time>2013-09-04T13:21:50Z</time>
      </trkpt>
      <trkpt lat="43.042050" lon="-4.722600">
        <ele>2376.0</ele>
        <time>2013-09-04T13:21:51Z</time>
      </trkpt>
      <trkpt lat="43.042033" lon="-4.722500">
        <ele>2374.0</ele>
        <time>2013-09-04T13:21:52Z</time>
      </trkpt>
      <trkpt lat="43.042017" lon="-4.722383">
        <ele>2372.0</ele>
        <time>2013-09-04T13:21:53Z</time>
      </trkpt>
      <trkpt lat="43.041983" lon="-4.722267">
        <ele>2370.0</ele>
        <time>2013-09-04T13:21:54Z</time>
      </trkpt>
      <trkpt lat="43.041967" lon="-4.722150">
        <ele>2368.0</ele>
        <time>2013-09-04T13:21:55Z</time>
      </trkpt>
      <trkpt lat="43.041933" lon="-4.722033">
        <ele>2366.0</ele>
        <time>2013-09-04T13:21:56Z</time>
      </trkpt>
      <trkpt lat="43.041917" lon="-4.721917">
        <ele>2363.0</ele>
        <time>2013-09-04T13:21:57Z</time>
      </trkpt>
      <trkpt lat="43.041900" lon="-4.721800">
        <ele>2359.0</ele>
        <time>2013-09-04T13:21:58Z</time>
      </trkpt>
      <trkpt lat="43.041883" lon="-4.721667">
        <ele>2355.0</ele>
        <time>2013-09-04T13:21:59Z</time>
      </trkpt>
      <trkpt lat="43.041883" lon="-4.721550">
        <ele>2352.0</ele>
        <time>2013-09-04T13:22:00Z</time>
      </trkpt>
      <trkpt lat="43.041883" lon="-4.721433">
        <ele>2349.0</ele>
        <time>2013-09-04T13:22:01Z</time>
      </trkpt>
      <trkpt lat="43.041900" lon="-4.721300">
        <ele>2346.0</ele>
        <time>2013-09-04T13:22:02Z</time>
      </trkpt>
      <trkpt lat="43.041900" lon="-4.721167">
        <ele>2341.0</ele>
        <time>2013-09-04T13:22:03Z</time>
      </trkpt>
      <trkpt lat="43.041917" lon="-4.721033">
        <ele>2337.0</ele>
        <time>2013-09-04T13:22:04Z</time>
      </trkpt>
      <trkpt lat="43.041917" lon="-4.720883">
        <ele>2333.0</ele>
        <time>2013-09-04T13:22:05Z</time>
      </trkpt>
      <trkpt lat="43.041933" lon="-4.720767">
        <ele>2330.0</ele>
        <time>2013-09-04T13:22:06Z</time>
      </trkpt>
      <trkpt lat="43.041950" lon="-4.720650">
        <ele>2327.0</ele>
        <time>2013-09-04T13:22:07Z</time>
      </trkpt>
      <trkpt lat="43.041983" lon="-4.720550">
        <ele>2324.0</ele>
        <time>2013-09-04T13:22:08Z</time>
      </trkpt>
      <trkpt lat="43.042017" lon="-4.720433">
        <ele>2321.0</ele>
        <time>2013-09-04T13:22:09Z</time>
      </trkpt>
      <trkpt lat="43.042050" lon="-4.720317">
        <ele>2318.0</ele>
        <time>2013-09-04T13:22:10Z</time>
      </trkpt>
      <trkpt lat="43.042067" lon="-4.720200">
        <ele>2317.0</ele>
        <time>2013-09-04T13:22:11Z</time>
      </trkpt>
      <trkpt lat="43.042100" lon="-4.720100">
        <ele>2314.0</ele>
        <time>2013-09-04T13:22:12Z</time>
      </trkpt>
      <trkpt lat="43.042133" lon="-4.719967">
        <ele>2310.0</ele>
        <time>2013-09-04T13:22:13Z</time>
      </trkpt>
      <trkpt lat="43.042183" lon="-4.719833">
        <ele>2306.0</ele>
        <time>2013-09-04T13:22:14Z</time>
      </trkpt>
      <trkpt lat="43.042217" lon="-4.719717">
        <ele>2303.0</ele>
        <time>2013-09-04T13:22:15Z</time>
      </trkpt>
      <trkpt lat="43.042217" lon="-4.719600">
        <ele>2302.0</ele>
        <time>2013-09-04T13:22:16Z</time>
      </trkpt>
      <trkpt lat="43.042217" lon="-4.719500">
        <ele>2301.0</ele>
        <time>2013-09-04T13:22:17Z</time>
      </trkpt>
      <trkpt lat="43.042217" lon="-4.719417">
        <ele>2299.0</ele>
        <time>2013-09-04T13:22:18Z</time>
      </trkpt>
      <trkpt lat="43.042217" lon="-4.719300">
        <ele>2297.0</ele>
        <time>2013-09-04T13:22:19Z</time>
      </trkpt>
      <trkpt lat="43.042233" lon="-4.719167">
        <ele>2295.0</ele>
        <time>2013-09-04T13:22:20Z</time>
      </trkpt>
      <trkpt lat="43.042233" lon="-4.719067">
        <ele>2296.0</ele>
        <time>2013-09-04T13:22:21Z</time>
      </trkpt>
      <trkpt lat="43.042217" lon="-4.718983">
        <ele>2298.0</ele>
        <time>2013-09-04T13:22:22Z</time>
      </trkpt>
      <trkpt lat="43.042200" lon="-4.718917">
        <ele>2299.0</ele>
        <time>2013-09-04T13:22:23Z</time>
      </trkpt>
      <trkpt lat="43.042183" lon="-4.718867">
        <ele>2298.0</ele>
        <time>2013-09-04T13:22:24Z</time>
      </trkpt>
      <trkpt lat="43.042150" lon="-4.718800">
        <ele>2296.0</ele>
        <time>2013-09-04T13:22:25Z</time>
      </trkpt>
      <trkpt lat="43.042117" lon="-4.718700">
        <ele>2293.0</ele>
        <time>2013-09-04T13:22:26Z</time>
      </trkpt>
      <trkpt lat="43.042100" lon="-4.718600">
        <ele>2290.0</ele>
        <time>2013-09-04T13:22:27Z</time>
      </trkpt>
      <trkpt lat="43.042100" lon="-4.718483">
        <ele>2289.0</ele>
        <time>2013-09-04T13:22:28Z</time>
      </trkpt>
      <trkpt lat="43.042100" lon="-4.718400">
        <ele>2289.0</ele>
        <time>2013-09-04T13:22:29Z</time>
      </trkpt>
      <trkpt lat="43.042117" lon="-4.718333">
        <ele>2288.0</ele>
        <time>2013-09-04T13:22:30Z</time>
      </trkpt>
      <trkpt lat="43.042133" lon="-4.718283">
        <ele>2286.0</ele>
        <time>2013-09-04T13:22:31Z</time>
      </trkpt>
      <trkpt lat="43.042133" lon="-4.718200">
        <ele>2283.0</ele>
        <time>2013-09-04T13:22:32Z</time>
      </trkpt>
      <trkpt lat="43.042133" lon="-4.718117">
        <ele>2280.0</ele>
        <time>2013-09-04T13:22:33Z</time>
      </trkpt>
      <trkpt lat="43.042150" lon="-4.718000">
        <ele>2278.0</ele>
        <time>2013-09-04T13:22:34Z</time>
      </trkpt>
      <trkpt lat="43.042150" lon="-4.717917">
        <ele>2276.0</ele>
        <time>2013-09-04T13:22:35Z</time>
      </trkpt>
      <trkpt lat="43.042150" lon="-4.717833">
        <ele>2276.0</ele>
        <time>2013-09-04T13:22:36Z</time>
      </trkpt>
      <trkpt lat="43.042133" lon="-4.717750">
        <ele>2275.0</ele>
        <time>2013-09-04T13:22:37Z</time>
      </trkpt>
      <trkpt lat="43.042117" lon="-4.717683">
        <ele>2276.0</ele>
        <time>2013-09-04T13:22:38Z</time>
      </trkpt>
      <trkpt lat="43.042100" lon="-4.717600">
        <ele>2274.0</ele>
        <time>2013-09-04T13:22:39Z</time>
      </trkpt>
      <trkpt lat="43.042100" lon="-4.717517">
        <ele>2272.0</ele>
        <time>2013-09-04T13:22:40Z</time>
      </trkpt>
      <trkpt lat="43.042083" lon="-4.717417">
        <ele>2270.0</ele>
        <time>2013-09-04T13:22:41Z</time>
      </trkpt>
      <trkpt lat="43.042083" lon="-4.717317">
        <ele>2269.0</ele>
        <time>2013-09-04T13:22:42Z</time>
      </trkpt>
      <trkpt lat="43.042083" lon="-4.717233">
        <ele>2268.0</ele>
        <time>2013-09-04T13:22:43Z</time>
      </trkpt>
      <trkpt lat="43.042083" lon="-4.717150">
        <ele>2268.0</ele>
        <time>2013-09-04T13:22:44Z</time>
      </trkpt>
      <trkpt lat="43.042067" lon="-4.717067">
        <ele>2268.0</ele>
        <time>2013-09-04T13:22:45Z</time>
      </trkpt>
      <trkpt lat="43.042050" lon="-4.716983">
        <ele>2267.0</ele>
        <time>2013-09-04T13:22:46Z</time>
      </trkpt>
      <trkpt lat="43.042033" lon="-4.716900">
        <ele>2266.0</ele>
        <time>2013-09-04T13:22:47Z</time>
      </trkpt>
      <trkpt lat="43.042017" lon="-4.716817">
        <ele>2265.0</ele>
        <time>2013-09-04T13:22:48Z</time>
      </trkpt>
      <trkpt lat="43.042017" lon="-4.716733">
        <ele>2264.0</ele>
        <time>2013-09-04T13:22:49Z</time>
      </trkpt>
      <trkpt lat="43.042017" lon="-4.716650">
        <ele>2264.0</ele>
        <time>2013-09-04T13:22:50Z</time>
      </trkpt>
      <trkpt lat="43.042000" lon="-4.716567">
        <ele>2263.0</ele>
        <time>2013-09-04T13:22:51Z</time>
      </trkpt>
      <trkpt lat="43.041983" lon="-4.716483">
        <ele>2263.0</ele>
        <time>2013-09-04T13:22:52Z</time>
      </trkpt>
      <trkpt lat="43.041967" lon="-4.716400">
        <ele>2262.0</ele>
        <time>2013-09-04T13:22:53Z</time>
      </trkpt>
      <trkpt lat="43.041967" lon="-4.716317">
        <ele>2262.0</ele>
        <time>2013-09-04T13:22:54Z</time>
      </trkpt>
      <trkpt lat="43.041967" lon="-4.716233">
        <ele>2261.0</ele>
        <time>2013-09-04T13:22:55Z</time>
      </trkpt>
      <trkpt lat="43.041967" lon="-4.716167">
        <ele>2261.0</ele>
        <time>2013-09-04T13:22:56Z</time>
      </trkpt>
      <trkpt lat="43.041967" lon="-4.716083">
        <ele>2260.0</ele>
        <time>2013-09-04T13:22:57Z</time>
      </trkpt>
      <trkpt lat="43.041967" lon="-4.716000">
        <ele>2259.0</ele>
        <time>2013-09-04T13:22:58Z</time>
      </trkpt>
      <trkpt lat="43.041983" lon="-4.715917">
        <ele>2258.0</ele>
        <time>2013-09-04T13:22:59Z</time>
      </trkpt>
      <trkpt lat="43.041967" lon="-4.715833">
        <ele>2258.0</ele>
        <time>2013-09-04T13:23:00Z</time>
      </trkpt>
      <trkpt lat="43.041967" lon="-4.715750">
        <ele>2257.0</ele>
        <time>2013-09-04T13:23:01Z</time>
      </trkpt>
      <trkpt lat="43.041950" lon="-4.715667">
        <ele>2257.0</ele>
        <time>2013-09-04T13:23:02Z</time>
      </trkpt>
      <trkpt lat="43.041933" lon="-4.715600">
        <ele>2257.0</ele>
        <time>2013-09-04T13:23:03Z</time>
      </trkpt>
      <trkpt lat="43.041917" lon="-4.715533">
        <ele>2257.0</ele>
        <time>2013-09-04T13:23:04Z</time>
      </trkpt>
      <trkpt lat="43.041900" lon="-4.715450">
        <ele>2257.0</ele>
        <time>2013-09-04T13:23:05Z</time>
      </trkpt>
      <trkpt lat="43.041883" lon="-4.715383">
        <ele>2256.0</ele>
        <time>2013-09-04T13:23:06Z</time>
      </trkpt>
      <trkpt lat="43.041883" lon="-4.715317">
        <ele>2256.0</ele>
        <time>2013-09-04T13:23:07Z</time>
      </trkpt>
      <trkpt lat="43.041867" lon="-4.715233">
        <ele>2255.0</ele>
        <time>2013-09-04T13:23:08Z</time>
      </trkpt>
      <trkpt lat="43.041867" lon="-4.715133">
        <ele>2255.0</ele>
        <time>2013-09-04T13:23:09Z</time>
      </trkpt>
      <trkpt lat="43.041867" lon="-4.715050">
        <ele>2255.0</ele>
        <time>2013-09-04T13:23:10Z</time>
      </trkpt>
      <trkpt lat="43.041867" lon="-4.714967">
        <ele>2254.0</ele>
        <time>2013-09-04T13:23:11Z</time>
      </trkpt>
      <trkpt lat="43.041867" lon="-4.714900">
        <ele>2253.0</ele>
        <time>2013-09-04T13:23:12Z</time>
      </trkpt>
      <trkpt lat="43.041850" lon="-4.714817">
        <ele>2252.0</ele>
        <time>2013-09-04T13:23:13Z</time>
      </trkpt>
      <trkpt lat="43.041833" lon="-4.714750">
        <ele>2251.0</ele>
        <time>2013-09-04T13:23:14Z</time>
      </trkpt>
      <trkpt lat="43.041817" lon="-4.714667">
        <ele>2249.0</ele>
        <time>2013-09-04T13:23:15Z</time>
      </trkpt>
      <trkpt lat="43.041817" lon="-4.714583">
        <ele>2247.0</ele>
        <time>2013-09-04T13:23:16Z</time>
      </trkpt>
      <trkpt lat="43.041833" lon="-4.714483">
        <ele>2245.0</ele>
        <time>2013-09-04T13:23:17Z</time>
      </trkpt>
      <trkpt lat="43.041850" lon="-4.714400">
        <ele>2243.0</ele>
        <time>2013-09-04T13:23:18Z</time>
      </trkpt>
      <trkpt lat="43.041867" lon="-4.714317">
        <ele>2242.0</ele>
        <time>2013-09-04T13:23:19Z</time>
      </trkpt>
      <trkpt lat="43.041867" lon="-4.714250">
        <ele>2242.0</ele>
        <time>2013-09-04T13:23:20Z</time>
      </trkpt>
      <trkpt lat="43.041867" lon="-4.714167">
        <ele>2241.0</ele>
        <time>2013-09-04T13:23:21Z</time>
      </trkpt>
      <trkpt lat="43.041850" lon="-4.714100">
        <ele>2241.0</ele>
        <time>2013-09-04T13:23:22Z</time>
      </trkpt>
      <trkpt lat="43.041850" lon="-4.714033">
        <ele>2240.0</ele>
        <time>2013-09-04T13:23:23Z</time>
      </trkpt>
      <trkpt lat="43.041850" lon="-4.713950">
        <ele>2239.0</ele>
        <time>2013-09-04T13:23:24Z</time>
      </trkpt>
      <trkpt lat="43.041867" lon="-4.713867">
        <ele>2238.0</ele>
        <time>2013-09-04T13:23:25Z</time>
      </trkpt>
      <trkpt lat="43.041867" lon="-4.713767">
        <ele>2238.0</ele>
        <time>2013-09-04T13:23:26Z</time>
      </trkpt>
      <trkpt lat="43.041867" lon="-4.713683">
        <ele>2238.0</ele>
        <time>2013-09-04T13:23:27Z</time>
      </trkpt>
      <trkpt lat="43.041883" lon="-4.713617">
        <ele>2239.0</ele>
        <time>2013-09-04T13:23:28Z</time>
      </trkpt>
      <trkpt lat="43.041883" lon="-4.713550">
        <ele>2241.0</ele>
        <time>2013-09-04T13:23:29Z</time>
      </trkpt>
      <trkpt lat="43.041883" lon="-4.713517">
        <ele>2241.0</ele>
        <time>2013-09-04T13:23:30Z</time>
      </trkpt>
      <trkpt lat="43.041900" lon="-4.713500">
        <ele>2241.0</ele>
        <time>2013-09-04T13:23:31Z</time>
      </trkpt>
      <trkpt lat="43.041917" lon="-4.713467">
        <ele>2241.0</ele>
        <time>2013-09-04T13:23:32Z</time>
      </trkpt>
      <trkpt lat="43.041967" lon="-4.713450">
        <ele>2239.0</ele>
        <time>2013-09-04T13:23:33Z</time>
      </trkpt>
      <trkpt lat="43.042017" lon="-4.713400">
        <ele>2237.0</ele>
        <time>2013-09-04T13:23:34Z</time>
      </trkpt>
      <trkpt lat="43.042067" lon="-4.713350">
        <ele>2235.0</ele>
        <time>2013-09-04T13:23:35Z</time>
      </trkpt>
      <trkpt lat="43.042117" lon="-4.713283">
        <ele>2234.0</ele>
        <time>2013-09-04T13:23:36Z</time>
      </trkpt>
      <trkpt lat="43.042150" lon="-4.713217">
        <ele>2234.0</ele>
        <time>2013-09-04T13:23:37Z</time>
      </trkpt>
      <trkpt lat="43.042200" lon="-4.713167">
        <ele>2234.0</ele>
        <time>2013-09-04T13:23:38Z</time>
      </trkpt>
      <trkpt lat="43.042233" lon="-4.713117">
        <ele>2234.0</ele>
        <time>2013-09-04T13:23:39Z</time>
      </trkpt>
      <trkpt lat="43.042267" lon="-4.713067">
        <ele>2234.0</ele>
        <time>2013-09-04T13:23:40Z</time>
      </trkpt>
      <trkpt lat="43.042300" lon="-4.713000">
        <ele>2232.0</ele>
        <time>2013-09-04T13:23:41Z</time>
      </trkpt>
      <trkpt lat="43.042333" lon="-4.712933">
        <ele>2231.0</ele>
        <time>2013-09-04T13:23:42Z</time>
      </trkpt>
      <trkpt lat="43.042350" lon="-4.712850">
        <ele>2231.0</ele>
        <time>2013-09-04T13:23:43Z</time>
      </trkpt>
      <trkpt lat="43.042367" lon="-4.712767">
        <ele>2232.0</ele>
        <time>2013-09-04T13:23:44Z</time>
      </trkpt>
      <trkpt lat="43.042383" lon="-4.712683">
        <ele>2233.0</ele>
        <time>2013-09-04T13:23:45Z</time>
      </trkpt>
      <trkpt lat="43.042400" lon="-4.712633">
        <ele>2233.0</ele>
        <time>2013-09-04T13:23:46Z</time>
      </trkpt>
      <trkpt lat="43.042417" lon="-4.712567">
        <ele>2233.0</ele>
        <time>2013-09-04T13:23:47Z</time>
      </trkpt>
      <trkpt lat="43.042433" lon="-4.712500">
        <ele>2232.0</ele>
        <time>2013-09-04T13:23:48Z</time>
      </trkpt>
      <trkpt lat="43.042467" lon="-4.712417">
        <ele>2231.0</ele>
        <time>2013-09-04T13:23:49Z</time>
      </trkpt>
      <trkpt lat="43.042467" lon="-4.712333">
        <ele>2231.0</ele>
        <time>2013-09-04T13:23:50Z</time>
      </trkpt>
      <trkpt lat="43.042483" lon="-4.712250">
        <ele>2230.0</ele>
        <time>2013-09-04T13:23:51Z</time>
      </trkpt>
      <trkpt lat="43.042500" lon="-4.712167">
        <ele>2230.0</ele>
        <time>2013-09-04T13:23:52Z</time>
      </trkpt>
      <trkpt lat="43.042517" lon="-4.712100">
        <ele>2230.0</ele>
        <time>2013-09-04T13:23:53Z</time>
      </trkpt>
      <trkpt lat="43.042533" lon="-4.712033">
        <ele>2230.0</ele>
        <time>2013-09-04T13:23:54Z</time>
      </trkpt>
      <trkpt lat="43.042533" lon="-4.711967">
        <ele>2229.0</ele>
        <time>2013-09-04T13:23:55Z</time>
      </trkpt>
      <trkpt lat="43.042517" lon="-4.711883">
        <ele>2228.0</ele>
        <time>2013-09-04T13:23:56Z</time>
      </trkpt>
      <trkpt lat="43.042517" lon="-4.711817">
        <ele>2226.0</ele>
        <time>2013-09-04T13:23:57Z</time>
      </trkpt>
      <trkpt lat="43.042500" lon="-4.711733">
        <ele>2225.0</ele>
        <time>2013-09-04T13:23:58Z</time>
      </trkpt>
      <trkpt lat="43.042483" lon="-4.711650">
        <ele>2225.0</ele>
        <time>2013-09-04T13:23:59Z</time>
      </trkpt>
      <trkpt lat="43.042450" lon="-4.711583">
        <ele>2224.0</ele>
        <time>2013-09-04T13:24:00Z</time>
      </trkpt>
      <trkpt lat="43.042433" lon="-4.711517">
        <ele>2224.0</ele>
        <time>2013-09-04T13:24:01Z</time>
      </trkpt>
      <trkpt lat="43.042400" lon="-4.711450">
        <ele>2224.0</ele>
        <time>2013-09-04T13:24:02Z</time>
      </trkpt>
      <trkpt lat="43.042383" lon="-4.711367">
        <ele>2223.0</ele>
        <time>2013-09-04T13:24:03Z</time>
      </trkpt>
      <trkpt lat="43.042367" lon="-4.711300">
        <ele>2222.0</ele>
        <time>2013-09-04T13:24:04Z</time>
      </trkpt>
      <trkpt lat="43.042367" lon="-4.711217">
        <ele>2221.0</ele>
        <time>2013-09-04T13:24:05Z</time>
      </trkpt>
      <trkpt lat="43.042367" lon="-4.711117">
        <ele>2221.0</ele>
        <time>2013-09-04T13:24:06Z</time>
      </trkpt>
      <trkpt lat="43.042367" lon="-4.711050">
        <ele>2220.0</ele>
        <time>2013-09-04T13:24:07Z</time>
      </trkpt>
      <trkpt lat="43.042383" lon="-4.710967">
        <ele>2220.0</ele>
        <time>2013-09-04T13:24:08Z</time>
      </trkpt>
      <trkpt lat="43.042400" lon="-4.710900">
        <ele>2219.0</ele>
        <time>2013-09-04T13:24:09Z</time>
      </trkpt>
      <trkpt lat="43.042417" lon="-4.710817">
        <ele>2218.0</ele>
        <time>2013-09-04T13:24:10Z</time>
      </trkpt>
      <trkpt lat="43.042417" lon="-4.710733">
        <ele>2217.0</ele>
        <time>2013-09-04T13:24:11Z</time>
      </trkpt>
      <trkpt lat="43.042433" lon="-4.710650">
        <ele>2216.0</ele>
        <time>2013-09-04T13:24:12Z</time>
      </trkpt>
      <trkpt lat="43.042433" lon="-4.710567">
        <ele>2216.0</ele>
        <time>2013-09-04T13:24:13Z</time>
      </trkpt>
      <trkpt lat="43.042450" lon="-4.710483">
        <ele>2216.0</ele>
        <time>2013-09-04T13:24:14Z</time>
      </trkpt>
      <trkpt lat="43.042450" lon="-4.710417">
        <ele>2216.0</ele>
        <time>2013-09-04T13:24:15Z</time>
      </trkpt>
      <trkpt lat="43.042433" lon="-4.710367">
        <ele>2215.0</ele>
        <time>2013-09-04T13:24:16Z</time>
      </trkpt>
      <trkpt lat="43.042433" lon="-4.710300">
        <ele>2215.0</ele>
        <time>2013-09-04T13:24:17Z</time>
      </trkpt>
      <trkpt lat="43.042433" lon="-4.710233">
        <ele>2215.0</ele>
        <time>2013-09-04T13:24:18Z</time>
      </trkpt>
      <trkpt lat="43.042433" lon="-4.710183">
        <ele>2215.0</ele>
        <time>2013-09-04T13:24:19Z</time>
      </trkpt>
      <trkpt lat="43.042450" lon="-4.710150">
        <ele>2215.0</ele>
        <time>2013-09-04T13:24:20Z</time>
      </trkpt>
      <trkpt lat="43.042450" lon="-4.710117">
        <ele>2215.0</ele>
        <time>2013-09-04T13:24:21Z</time>
      </trkpt>
      <trkpt lat="43.042450" lon="-4.710067">
        <ele>2213.0</ele>
        <time>2013-09-04T13:24:22Z</time>
      </trkpt>
      <trkpt lat="43.042450" lon="-4.710000">
        <ele>2211.0</ele>
        <time>2013-09-04T13:24:23Z</time>
      </trkpt>
      <trkpt lat="43.042450" lon="-4.709933">
        <ele>2210.0</ele>
        <time>2013-09-04T13:24:24Z</time>
      </trkpt>
      <trkpt lat="43.042450" lon="-4.709850">
        <ele>2208.0</ele>
        <time>2013-09-04T13:24:25Z</time>
      </trkpt>
      <trkpt lat="43.042450" lon="-4.709767">
        <ele>2205.0</ele>
        <time>2013-09-04T13:24:26Z</time>
      </trkpt>
      <trkpt lat="43.042433" lon="-4.709683">
        <ele>2203.0</ele>
        <time>2013-09-04T13:24:27Z</time>
      </trkpt>
      <trkpt lat="43.042417" lon="-4.709617">
        <ele>2201.0</ele>
        <time>2013-09-04T13:24:28Z</time>
      </trkpt>
      <trkpt lat="43.042383" lon="-4.709550">
        <ele>2200.0</ele>
        <time>2013-09-04T13:24:29Z</time>
      </trkpt>
      <trkpt lat="43.042367" lon="-4.709483">
        <ele>2198.0</ele>
        <time>2013-09-04T13:24:30Z</time>
      </trkpt>
      <trkpt lat="43.042350" lon="-4.709417">
        <ele>2197.0</ele>
        <time>2013-09-04T13:24:31Z</time>
      </trkpt>
      <trkpt lat="43.042317" lon="-4.709317">
        <ele>2196.0</ele>
        <time>2013-09-04T13:24:32Z</time>
      </trkpt>
      <trkpt lat="43.042300" lon="-4.709217">
        <ele>2196.0</ele>
        <time>2013-09-04T13:24:33Z</time>
      </trkpt>
      <trkpt lat="43.042283" lon="-4.709117">
        <ele>2197.0</ele>
        <time>2013-09-04T13:24:34Z</time>
      </trkpt>
      <trkpt lat="43.042267" lon="-4.709033">
        <ele>2198.0</ele>
        <time>2013-09-04T13:24:35Z</time>
      </trkpt>
      <trkpt lat="43.042233" lon="-4.708967">
        <ele>2198.0</ele>
        <time>2013-09-04T13:24:36Z</time>
      </trkpt>
      <trkpt lat="43.042217" lon="-4.708900">
        <ele>2198.0</ele>
        <time>2013-09-04T13:24:37Z</time>
      </trkpt>
      <trkpt lat="43.042200" lon="-4.708833">
        <ele>2198.0</ele>
        <time>2013-09-04T13:24:38Z</time>
      </trkpt>
      <trkpt lat="43.042200" lon="-4.708750">
        <ele>2198.0</ele>
        <time>2013-09-04T13:24:39Z</time>
      </trkpt>
      <trkpt lat="43.042217" lon="-4.708667">
        <ele>2197.0</ele>
        <time>2013-09-04T13:24:40Z</time>
      </trkpt>
      <trkpt lat="43.042267" lon="-4.708583">
        <ele>2197.0</ele>
        <time>2013-09-04T13:24:41Z</time>
      </trkpt>
      <trkpt lat="43.042317" lon="-4.708517">
        <ele>2198.0</ele>
        <time>2013-09-04T13:24:42Z</time>
      </trkpt>
      <trkpt lat="43.042383" lon="-4.708483">
        <ele>2198.0</ele>
        <time>2013-09-04T13:24:43Z</time>
      </trkpt>
      <trkpt lat="43.042450" lon="-4.708467">
        <ele>2198.0</ele>
        <time>2013-09-04T13:24:44Z</time>
      </trkpt>
      <trkpt lat="43.042517" lon="-4.708467">
        <ele>2198.0</ele>
        <time>2013-09-04T13:24:45Z</time>
      </trkpt>
      <trkpt lat="43.042583" lon="-4.708483">
        <ele>2199.0</ele>
        <time>2013-09-04T13:24:46Z</time>
      </trkpt>
      <trkpt lat="43.042650" lon="-4.708533">
        <ele>2199.0</ele>
        <time>2013-09-04T13:24:47Z</time>
      </trkpt>
      <trkpt lat="43.042700" lon="-4.708617">
        <ele>2199.0</ele>
        <time>2013-09-04T13:24:48Z</time>
      </trkpt>
      <trkpt lat="43.042733" lon="-4.708717">
        <ele>2199.0</ele>
        <time>2013-09-04T13:24:49Z</time>
      </trkpt>
      <trkpt lat="43.042733" lon="-4.708850">
        <ele>2198.0</ele>
        <time>2013-09-04T13:24:50Z</time>
      </trkpt>
      <trkpt lat="43.042717" lon="-4.709000">
        <ele>2198.0</ele>
        <time>2013-09-04T13:24:51Z</time>
      </trkpt>
      <trkpt lat="43.042683" lon="-4.709133">
        <ele>2199.0</ele>
        <time>2013-09-04T13:24:52Z</time>
      </trkpt>
      <trkpt lat="43.042650" lon="-4.709250">
        <ele>2200.0</ele>
        <time>2013-09-04T13:24:53Z</time>
      </trkpt>
      <trkpt lat="43.042600" lon="-4.709350">
        <ele>2201.0</ele>
        <time>2013-09-04T13:24:54Z</time>
      </trkpt>
      <trkpt lat="43.042550" lon="-4.709433">
        <ele>2201.0</ele>
        <time>2013-09-04T13:24:55Z</time>
      </trkpt>
      <trkpt lat="43.042500" lon="-4.709517">
        <ele>2199.0</ele>
        <time>2013-09-04T13:24:56Z</time>
      </trkpt>
      <trkpt lat="43.042417" lon="-4.709617">
        <ele>2198.0</ele>
        <time>2013-09-04T13:24:57Z</time>
      </trkpt>
      <trkpt lat="43.042317" lon="-4.709717">
        <ele>2198.0</ele>
        <time>2013-09-04T13:24:58Z</time>
      </trkpt>
      <trkpt lat="43.042200" lon="-4.709783">
        <ele>2200.0</ele>
        <time>2013-09-04T13:24:59Z</time>
      </trkpt>
      <trkpt lat="43.042100" lon="-4.709833">
        <ele>2201.0</ele>
        <time>2013-09-04T13:25:00Z</time>
      </trkpt>
      <trkpt lat="43.042033" lon="-4.709833">
        <ele>2203.0</ele>
        <time>2013-09-04T13:25:01Z</time>
      </trkpt>
      <trkpt lat="43.041983" lon="-4.709833">
        <ele>2206.0</ele>
        <time>2013-09-04T13:25:02Z</time>
      </trkpt>
      <trkpt lat="43.041933" lon="-4.709833">
        <ele>2208.0</ele>
        <time>2013-09-04T13:25:03Z</time>
      </trkpt>
      <trkpt lat="43.041883" lon="-4.709833">
        <ele>2209.0</ele>
        <time>2013-09-04T13:25:04Z</time>
      </trkpt>
      <trkpt lat="43.041850" lon="-4.709800">
        <ele>2204.0</ele>
        <time>2013-09-04T13:25:05Z</time>
      </trkpt>
      <trkpt lat="43.041817" lon="-4.709750">
        <ele>2203.0</ele>
        <time>2013-09-04T13:25:06Z</time>
      </trkpt>
      <trkpt lat="43.041783" lon="-4.709683">
        <ele>2202.0</ele>
        <time>2013-09-04T13:25:07Z</time>
      </trkpt>
      <trkpt lat="43.041767" lon="-4.709600">
        <ele>2202.0</ele>
        <time>2013-09-04T13:25:08Z</time>
      </trkpt>
      <trkpt lat="43.041783" lon="-4.709517">
        <ele>2202.0</ele>
        <time>2013-09-04T13:25:09Z</time>
      </trkpt>
      <trkpt lat="43.041850" lon="-4.709467">
        <ele>2201.0</ele>
        <time>2013-09-04T13:25:10Z</time>
      </trkpt>
      <trkpt lat="43.041933" lon="-4.709483">
        <ele>2201.0</ele>
        <time>2013-09-04T13:25:11Z</time>
      </trkpt>
      <trkpt lat="43.042017" lon="-4.709567">
        <ele>2201.0</ele>
        <time>2013-09-04T13:25:12Z</time>
      </trkpt>
      <trkpt lat="43.042067" lon="-4.709683">
        <ele>2202.0</ele>
        <time>2013-09-04T13:25:13Z</time>
      </trkpt>
      <trkpt lat="43.042067" lon="-4.709833">
        <ele>2203.0</ele>
        <time>2013-09-04T13:25:14Z</time>
      </trkpt>
      <trkpt lat="43.042033" lon="-4.709967">
        <ele>2204.0</ele>
        <time>2013-09-04T13:25:15Z</time>
      </trkpt>
      <trkpt lat="43.041983" lon="-4.710083">
        <ele>2204.0</ele>
        <time>2013-09-04T13:25:16Z</time>
      </trkpt>
      <trkpt lat="43.041917" lon="-4.710200">
        <ele>2204.0</ele>
        <time>2013-09-04T13:25:17Z</time>
      </trkpt>
      <trkpt lat="43.041833" lon="-4.710283">
        <ele>2205.0</ele>
        <time>2013-09-04T13:25:18Z</time>
      </trkpt>
      <trkpt lat="43.041750" lon="-4.710367">
        <ele>2206.0</ele>
        <time>2013-09-04T13:25:19Z</time>
      </trkpt>
      <trkpt lat="43.041683" lon="-4.710450">
        <ele>2206.0</ele>
        <time>2013-09-04T13:25:20Z</time>
      </trkpt>
      <trkpt lat="43.041600" lon="-4.710533">
        <ele>2206.0</ele>
        <time>2013-09-04T13:25:21Z</time>
      </trkpt>
      <trkpt lat="43.041533" lon="-4.710633">
        <ele>2206.0</ele>
        <time>2013-09-04T13:25:22Z</time>
      </trkpt>
      <trkpt lat="43.041450" lon="-4.710700">
        <ele>2207.0</ele>
        <time>2013-09-04T13:25:23Z</time>
      </trkpt>
      <trkpt lat="43.041383" lon="-4.710767">
        <ele>2207.0</ele>
        <time>2013-09-04T13:25:24Z</time>
      </trkpt>
      <trkpt lat="43.041300" lon="-4.710817">
        <ele>2208.0</ele>
        <time>2013-09-04T13:25:25Z</time>
      </trkpt>
      <trkpt lat="43.041233" lon="-4.710867">
        <ele>2209.0</ele>
        <time>2013-09-04T13:25:26Z</time>
      </trkpt>
      <trkpt lat="43.041167" lon="-4.710883">
        <ele>2210.0</ele>
        <time>2013-09-04T13:25:27Z</time>
      </trkpt>
      <trkpt lat="43.041100" lon="-4.710900">
        <ele>2210.0</ele>
        <time>2013-09-04T13:25:28Z</time>
      </trkpt>
      <trkpt lat="43.041033" lon="-4.710900">
        <ele>2210.0</ele>
        <time>2013-09-04T13:25:29Z</time>
      </trkpt>
      <trkpt lat="43.040983" lon="-4.710917">
        <ele>2209.0</ele>
        <time>2013-09-04T13:25:30Z</time>
      </trkpt>
      <trkpt lat="43.040933" lon="-4.710917">
        <ele>2207.0</ele>
        <time>2013-09-04T13:25:31Z</time>
      </trkpt>
      <trkpt lat="43.040867" lon="-4.710883">
        <ele>2205.0</ele>
        <time>2013-09-04T13:25:32Z</time>
      </trkpt>
      <trkpt lat="43.040800" lon="-4.710850">
        <ele>2203.0</ele>
        <time>2013-09-04T13:25:33Z</time>
      </trkpt>
      <trkpt lat="43.040750" lon="-4.710767">
        <ele>2203.0</ele>
        <time>2013-09-04T13:25:34Z</time>
      </trkpt>
      <trkpt lat="43.040700" lon="-4.710700">
        <ele>2203.0</ele>
        <time>2013-09-04T13:25:35Z</time>
      </trkpt>
      <trkpt lat="43.040650" lon="-4.710617">
        <ele>2203.0</ele>
        <time>2013-09-04T13:25:36Z</time>
      </trkpt>
      <trkpt lat="43.040600" lon="-4.710550">
        <ele>2204.0</ele>
        <time>2013-09-04T13:25:37Z</time>
      </trkpt>
      <trkpt lat="43.040550" lon="-4.710467">
        <ele>2207.0</ele>
        <time>2013-09-04T13:25:38Z</time>
      </trkpt>
      <trkpt lat="43.040500" lon="-4.710400">
        <ele>2210.0</ele>
        <time>2013-09-04T13:25:39Z</time>
      </trkpt>
      <trkpt lat="43.040483" lon="-4.710350">
        <ele>2212.0</ele>
        <time>2013-09-04T13:25:40Z</time>
      </trkpt>
      <trkpt lat="43.040467" lon="-4.710283">
        <ele>2212.0</ele>
        <time>2013-09-04T13:25:41Z</time>
      </trkpt>
      <trkpt lat="43.040450" lon="-4.710200">
        <ele>2211.0</ele>
        <time>2013-09-04T13:25:42Z</time>
      </trkpt>
      <trkpt lat="43.040450" lon="-4.710117">
        <ele>2210.0</ele>
        <time>2013-09-04T13:25:43Z</time>
      </trkpt>
      <trkpt lat="43.040483" lon="-4.710050">
        <ele>2209.0</ele>
        <time>2013-09-04T13:25:44Z</time>
      </trkpt>
      <trkpt lat="43.040550" lon="-4.710000">
        <ele>2208.0</ele>
        <time>2013-09-04T13:25:45Z</time>
      </trkpt>
      <trkpt lat="43.040633" lon="-4.710033">
        <ele>2207.0</ele>
        <time>2013-09-04T13:25:46Z</time>
      </trkpt>
      <trkpt lat="43.040717" lon="-4.710100">
        <ele>2206.0</ele>
        <time>2013-09-04T13:25:47Z</time>
      </trkpt>
      <trkpt lat="43.040783" lon="-4.710217">
        <ele>2206.0</ele>
        <time>2013-09-04T13:25:48Z</time>
      </trkpt>
      <trkpt lat="43.040833" lon="-4.710333">
        <ele>2206.0</ele>
        <time>2013-09-04T13:25:49Z</time>
      </trkpt>
      <trkpt lat="43.040883" lon="-4.710450">
        <ele>2206.0</ele>
        <time>2013-09-04T13:25:50Z</time>
      </trkpt>
      <trkpt lat="43.040933" lon="-4.710583">
        <ele>2207.0</ele>
        <time>2013-09-04T13:25:51Z</time>
      </trkpt>
      <trkpt lat="43.040983" lon="-4.710717">
        <ele>2207.0</ele>
        <time>2013-09-04T13:25:52Z</time>
      </trkpt>
      <trkpt lat="43.041033" lon="-4.710850">
        <ele>2209.0</ele>
        <time>2013-09-04T13:25:53Z</time>
      </trkpt>
      <trkpt lat="43.041050" lon="-4.710983">
        <ele>2211.0</ele>
        <time>2013-09-04T13:25:54Z</time>
      </trkpt>
      <trkpt lat="43.041067" lon="-4.711117">
        <ele>2213.0</ele>
        <time>2013-09-04T13:25:55Z</time>
      </trkpt>
      <trkpt lat="43.041100" lon="-4.711250">
        <ele>2214.0</ele>
        <time>2013-09-04T13:25:56Z</time>
      </trkpt>
      <trkpt lat="43.041117" lon="-4.711367">
        <ele>2216.0</ele>
        <time>2013-09-04T13:25:57Z</time>
      </trkpt>
      <trkpt lat="43.041133" lon="-4.711500">
        <ele>2216.0</ele>
        <time>2013-09-04T13:25:58Z</time>
      </trkpt>
      <trkpt lat="43.041133" lon="-4.711633">
        <ele>2217.0</ele>
        <time>2013-09-04T13:25:59Z</time>
      </trkpt>
      <trkpt lat="43.041100" lon="-4.711767">
        <ele>2217.0</ele>
        <time>2013-09-04T13:26:00Z</time>
      </trkpt>
      <trkpt lat="43.041050" lon="-4.711900">
        <ele>2216.0</ele>
        <time>2013-09-04T13:26:01Z</time>
      </trkpt>
      <trkpt lat="43.040983" lon="-4.712000">
        <ele>2216.0</ele>
        <time>2013-09-04T13:26:02Z</time>
      </trkpt>
      <trkpt lat="43.040900" lon="-4.712050">
        <ele>2216.0</ele>
        <time>2013-09-04T13:26:03Z</time>
      </trkpt>
      <trkpt lat="43.040817" lon="-4.712083">
        <ele>2215.0</ele>
        <time>2013-09-04T13:26:04Z</time>
      </trkpt>
      <trkpt lat="43.040733" lon="-4.712067">
        <ele>2214.0</ele>
        <time>2013-09-04T13:26:05Z</time>
      </trkpt>
      <trkpt lat="43.040667" lon="-4.712033">
        <ele>2214.0</ele>
        <time>2013-09-04T13:26:06Z</time>
      </trkpt>
      <trkpt lat="43.040600" lon="-4.711967">
        <ele>2214.0</ele>
        <time>2013-09-04T13:26:07Z</time>
      </trkpt>
      <trkpt lat="43.040567" lon="-4.711900">
        <ele>2214.0</ele>
        <time>2013-09-04T13:26:08Z</time>
      </trkpt>
      <trkpt lat="43.040517" lon="-4.711833">
        <ele>2215.0</ele>
        <time>2013-09-04T13:26:09Z</time>
      </trkpt>
      <trkpt lat="43.040483" lon="-4.711783">
        <ele>2219.0</ele>
        <time>2013-09-04T13:26:10Z</time>
      </trkpt>
      <trkpt lat="43.040450" lon="-4.711733">
        <ele>2221.0</ele>
        <time>2013-09-04T13:26:11Z</time>
      </trkpt>
      <trkpt lat="43.040417" lon="-4.711717">
        <ele>2222.0</ele>
        <time>2013-09-04T13:26:12Z</time>
      </trkpt>
      <trkpt lat="43.040383" lon="-4.711683">
        <ele>2224.0</ele>
        <time>2013-09-04T13:26:13Z</time>
      </trkpt>
      <trkpt lat="43.040367" lon="-4.711633">
        <ele>2225.0</ele>
        <time>2013-09-04T13:26:14Z</time>
      </trkpt>
      <trkpt lat="43.040350" lon="-4.711583">
        <ele>2226.0</ele>
        <time>2013-09-04T13:26:15Z</time>
      </trkpt>
      <trkpt lat="43.040350" lon="-4.711533">
        <ele>2227.0</ele>
        <time>2013-09-04T13:26:16Z</time>
      </trkpt>
      <trkpt lat="43.040383" lon="-4.711467">
        <ele>2227.0</ele>
        <time>2013-09-04T13:26:17Z</time>
      </trkpt>
      <trkpt lat="43.040450" lon="-4.711433">
        <ele>2228.0</ele>
        <time>2013-09-04T13:26:18Z</time>
      </trkpt>
      <trkpt lat="43.040533" lon="-4.711417">
        <ele>2229.0</ele>
        <time>2013-09-04T13:26:19Z</time>
      </trkpt>
      <trkpt lat="43.040617" lon="-4.711450">
        <ele>2229.0</ele>
        <time>2013-09-04T13:26:20Z</time>
      </trkpt>
      <trkpt lat="43.040683" lon="-4.711533">
        <ele>2230.0</ele>
        <time>2013-09-04T13:26:21Z</time>
      </trkpt>
      <trkpt lat="43.040717" lon="-4.711683">
        <ele>2232.0</ele>
        <time>2013-09-04T13:26:22Z</time>
      </trkpt>
      <trkpt lat="43.040700" lon="-4.711833">
        <ele>2233.0</ele>
        <time>2013-09-04T13:26:23Z</time>
      </trkpt>
      <trkpt lat="43.040633" lon="-4.711950">
        <ele>2234.0</ele>
        <time>2013-09-04T13:26:24Z</time>
      </trkpt>
      <trkpt lat="43.040550" lon="-4.712050">
        <ele>2235.0</ele>
        <time>2013-09-04T13:26:25Z</time>
      </trkpt>
      <trkpt lat="43.040467" lon="-4.712117">
        <ele>2236.0</ele>
        <time>2013-09-04T13:26:26Z</time>
      </trkpt>
      <trkpt lat="43.040383" lon="-4.712167">
        <ele>2238.0</ele>
        <time>2013-09-04T13:26:27Z</time>
      </trkpt>
      <trkpt lat="43.040317" lon="-4.712217">
        <ele>2240.0</ele>
        <time>2013-09-04T13:26:28Z</time>
      </trkpt>
      <trkpt lat="43.040233" lon="-4.712233">
        <ele>2242.0</ele>
        <time>2013-09-04T13:26:29Z</time>
      </trkpt>
      <trkpt lat="43.040167" lon="-4.712250">
        <ele>2244.0</ele>
        <time>2013-09-04T13:26:30Z</time>
      </trkpt>
      <trkpt lat="43.040100" lon="-4.712250">
        <ele>2245.0</ele>
        <time>2013-09-04T13:26:31Z</time>
      </trkpt>
      <trkpt lat="43.040050" lon="-4.712233">
        <ele>2246.0</ele>
        <time>2013-09-04T13:26:32Z</time>
      </trkpt>
      <trkpt lat="43.040000" lon="-4.712200">
        <ele>2247.0</ele>
        <time>2013-09-04T13:26:33Z</time>
      </trkpt>
      <trkpt lat="43.039983" lon="-4.712150">
        <ele>2242.0</ele>
        <time>2013-09-04T13:26:34Z</time>
      </trkpt>
      <trkpt lat="43.039967" lon="-4.712083">
        <ele>2239.0</ele>
        <time>2013-09-04T13:26:35Z</time>
      </trkpt>
      <trkpt lat="43.039983" lon="-4.711983">
        <ele>2235.0</ele>
        <time>2013-09-04T13:26:36Z</time>
      </trkpt>
      <trkpt lat="43.040017" lon="-4.711900">
        <ele>2233.0</ele>
        <time>2013-09-04T13:26:37Z</time>
      </trkpt>
      <trkpt lat="43.040050" lon="-4.711800">
        <ele>2231.0</ele>
        <time>2013-09-04T13:26:38Z</time>
      </trkpt>
      <trkpt lat="43.040100" lon="-4.711733">
        <ele>2231.0</ele>
        <time>2013-09-04T13:26:39Z</time>
      </trkpt>
      <trkpt lat="43.040133" lon="-4.711650">
        <ele>2230.0</ele>
        <time>2013-09-04T13:26:40Z</time>
      </trkpt>
      <trkpt lat="43.040167" lon="-4.711567">
        <ele>2229.0</ele>
        <time>2013-09-04T13:26:41Z</time>
      </trkpt>
      <trkpt lat="43.040200" lon="-4.711483">
        <ele>2228.0</ele>
        <time>2013-09-04T13:26:42Z</time>
      </trkpt>
      <trkpt lat="43.040217" lon="-4.711383">
        <ele>2226.0</ele>
        <time>2013-09-04T13:26:43Z</time>
      </trkpt>
      <trkpt lat="43.040250" lon="-4.711267">
        <ele>2225.0</ele>
        <time>2013-09-04T13:26:44Z</time>
      </trkpt>
      <trkpt lat="43.040283" lon="-4.711150">
        <ele>2226.0</ele>
        <time>2013-09-04T13:26:45Z</time>
      </trkpt>
      <trkpt lat="43.040317" lon="-4.711050">
        <ele>2227.0</ele>
        <time>2013-09-04T13:26:46Z</time>
      </trkpt>
      <trkpt lat="43.040317" lon="-4.710950">
        <ele>2229.0</ele>
        <time>2013-09-04T13:26:47Z</time>
      </trkpt>
      <trkpt lat="43.040333" lon="-4.710883">
        <ele>2231.0</ele>
        <time>2013-09-04T13:26:48Z</time>
      </trkpt>
      <trkpt lat="43.040333" lon="-4.710800">
        <ele>2231.0</ele>
        <time>2013-09-04T13:26:49Z</time>
      </trkpt>
      <trkpt lat="43.040333" lon="-4.710733">
        <ele>2232.0</ele>
        <time>2013-09-04T13:26:50Z</time>
      </trkpt>
      <trkpt lat="43.040333" lon="-4.710667">
        <ele>2233.0</ele>
        <time>2013-09-04T13:26:51Z</time>
      </trkpt>
      <trkpt lat="43.040350" lon="-4.710600">
        <ele>2232.0</ele>
        <time>2013-09-04T13:26:52Z</time>
      </trkpt>
      <trkpt lat="43.040367" lon="-4.710550">
        <ele>2232.0</ele>
        <time>2013-09-04T13:26:53Z</time>
      </trkpt>
      <trkpt lat="43.040383" lon="-4.710483">
        <ele>2230.0</ele>
        <time>2013-09-04T13:26:54Z</time>
      </trkpt>
      <trkpt lat="43.040400" lon="-4.710383">
        <ele>2227.0</ele>
        <time>2013-09-04T13:26:55Z</time>
      </trkpt>
      <trkpt lat="43.040400" lon="-4.710267">
        <ele>2225.0</ele>
        <time>2013-09-04T13:26:56Z</time>
      </trkpt>
      <trkpt lat="43.040400" lon="-4.710150">
        <ele>2223.0</ele>
        <time>2013-09-04T13:26:57Z</time>
      </trkpt>
      <trkpt lat="43.040383" lon="-4.710033">
        <ele>2223.0</ele>
        <time>2013-09-04T13:26:58Z</time>
      </trkpt>
      <trkpt lat="43.040367" lon="-4.709950">
        <ele>2223.0</ele>
        <time>2013-09-04T13:26:59Z</time>
      </trkpt>
      <trkpt lat="43.040367" lon="-4.709867">
        <ele>2223.0</ele>
        <time>2013-09-04T13:27:00Z</time>
      </trkpt>
      <trkpt lat="43.040383" lon="-4.709800">
        <ele>2222.0</ele>
        <time>2013-09-04T13:27:01Z</time>
      </trkpt>
      <trkpt lat="43.040400" lon="-4.709717">
        <ele>2221.0</ele>
        <time>2013-09-04T13:27:02Z</time>
      </trkpt>
      <trkpt lat="43.040450" lon="-4.709650">
        <ele>2219.0</ele>
        <time>2013-09-04T13:27:03Z</time>
      </trkpt>
      <trkpt lat="43.040500" lon="-4.709583">
        <ele>2218.0</ele>
        <time>2013-09-04T13:27:04Z</time>
      </trkpt>
      <trkpt lat="43.040600" lon="-4.709567">
        <ele>2216.0</ele>
        <time>2013-09-04T13:27:05Z</time>
      </trkpt>
      <trkpt lat="43.040683" lon="-4.709600">
        <ele>2214.0</ele>
        <time>2013-09-04T13:27:06Z</time>
      </trkpt>
      <trkpt lat="43.040767" lon="-4.709683">
        <ele>2213.0</ele>
        <time>2013-09-04T13:27:07Z</time>
      </trkpt>
      <trkpt lat="43.040833" lon="-4.709767">
        <ele>2213.0</ele>
        <time>2013-09-04T13:27:08Z</time>
      </trkpt>
      <trkpt lat="43.040883" lon="-4.709883">
        <ele>2212.0</ele>
        <time>2013-09-04T13:27:09Z</time>
      </trkpt>
      <trkpt lat="43.040933" lon="-4.710017">
        <ele>2211.0</ele>
        <time>2013-09-04T13:27:10Z</time>
      </trkpt>
      <trkpt lat="43.040967" lon="-4.710167">
        <ele>2209.0</ele>
        <time>2013-09-04T13:27:11Z</time>
      </trkpt>
      <trkpt lat="43.041000" lon="-4.710317">
        <ele>2208.0</ele>
        <time>2013-09-04T13:27:12Z</time>
      </trkpt>
      <trkpt lat="43.041000" lon="-4.710467">
        <ele>2206.0</ele>
        <time>2013-09-04T13:27:13Z</time>
      </trkpt>
      <trkpt lat="43.041017" lon="-4.710633">
        <ele>2205.0</ele>
        <time>2013-09-04T13:27:14Z</time>
      </trkpt>
      <trkpt lat="43.041033" lon="-4.710800">
        <ele>2203.0</ele>
        <time>2013-09-04T13:27:15Z</time>
      </trkpt>
      <trkpt lat="43.041033" lon="-4.710983">
        <ele>2201.0</ele>
        <time>2013-09-04T13:27:16Z</time>
      </trkpt>
      <trkpt lat="43.041050" lon="-4.711150">
        <ele>2200.0</ele>
        <time>2013-09-04T13:27:17Z</time>
      </trkpt>
      <trkpt lat="43.041067" lon="-4.711317">
        <ele>2199.0</ele>
        <time>2013-09-04T13:27:18Z</time>
      </trkpt>
      <trkpt lat="43.041100" lon="-4.711483">
        <ele>2199.0</ele>
        <time>2013-09-04T13:27:19Z</time>
      </trkpt>
      <trkpt lat="43.041117" lon="-4.711650">
        <ele>2198.0</ele>
        <time>2013-09-04T13:27:20Z</time>
      </trkpt>
      <trkpt lat="43.041133" lon="-4.711817">
        <ele>2197.0</ele>
        <time>2013-09-04T13:27:21Z</time>
      </trkpt>
      <trkpt lat="43.041167" lon="-4.711967">
        <ele>2195.0</ele>
        <time>2013-09-04T13:27:22Z</time>
      </trkpt>
      <trkpt lat="43.041183" lon="-4.712150">
        <ele>2193.0</ele>
        <time>2013-09-04T13:27:23Z</time>
      </trkpt>
      <trkpt lat="43.041233" lon="-4.712317">
        <ele>2191.0</ele>
        <time>2013-09-04T13:27:24Z</time>
      </trkpt>
      <trkpt lat="43.041283" lon="-4.712483">
        <ele>2190.0</ele>
        <time>2013-09-04T13:27:25Z</time>
      </trkpt>
      <trkpt lat="43.041333" lon="-4.712650">
        <ele>2189.0</ele>
        <time>2013-09-04T13:27:26Z</time>
      </trkpt>
      <trkpt lat="43.041383" lon="-4.712800">
        <ele>2189.0</ele>
        <time>2013-09-04T13:27:27Z</time>
      </trkpt>
      <trkpt lat="43.041450" lon="-4.712967">
        <ele>2189.0</ele>
        <time>2013-09-04T13:27:28Z</time>
      </trkpt>
      <trkpt lat="43.041517" lon="-4.713117">
        <ele>2189.0</ele>
        <time>2013-09-04T13:27:29Z</time>
      </trkpt>
      <trkpt lat="43.041567" lon="-4.713250">
        <ele>2189.0</ele>
        <time>2013-09-04T13:27:30Z</time>
      </trkpt>
      <trkpt lat="43.041633" lon="-4.713367">
        <ele>2188.0</ele>
        <time>2013-09-04T13:27:31Z</time>
      </trkpt>
      <trkpt lat="43.041700" lon="-4.713467">
        <ele>2186.0</ele>
        <time>2013-09-04T13:27:32Z</time>
      </trkpt>
      <trkpt lat="43.041767" lon="-4.713550">
        <ele>2184.0</ele>
        <time>2013-09-04T13:27:33Z</time>
      </trkpt>
      <trkpt lat="43.041867" lon="-4.713600">
        <ele>2182.0</ele>
        <time>2013-09-04T13:27:34Z</time>
      </trkpt>
      <trkpt lat="43.041950" lon="-4.713617">
        <ele>2180.0</ele>
        <time>2013-09-04T13:27:35Z</time>
      </trkpt>
      <trkpt lat="43.042000" lon="-4.713583">
        <ele>2178.0</ele>
        <time>2013-09-04T13:27:36Z</time>
      </trkpt>
      <trkpt lat="43.042067" lon="-4.713517">
        <ele>2176.0</ele>
        <time>2013-09-04T13:27:37Z</time>
      </trkpt>
      <trkpt lat="43.042117" lon="-4.713450">
        <ele>2175.0</ele>
        <time>2013-09-04T13:27:38Z</time>
      </trkpt>
      <trkpt lat="43.042150" lon="-4.713383">
        <ele>2174.0</ele>
        <time>2013-09-04T13:27:39Z</time>
      </trkpt>
      <trkpt lat="43.042183" lon="-4.713333">
        <ele>2175.0</ele>
        <time>2013-09-04T13:27:40Z</time>
      </trkpt>
      <trkpt lat="43.042200" lon="-4.713283">
        <ele>2175.0</ele>
        <time>2013-09-04T13:27:41Z</time>
      </trkpt>
      <trkpt lat="43.042200" lon="-4.713233">
        <ele>2172.0</ele>
        <time>2013-09-04T13:27:42Z</time>
      </trkpt>
      <trkpt lat="43.042200" lon="-4.713150">
        <ele>2170.0</ele>
        <time>2013-09-04T13:27:43Z</time>
      </trkpt>
      <trkpt lat="43.042200" lon="-4.713067">
        <ele>2167.0</ele>
        <time>2013-09-04T13:27:44Z</time>
      </trkpt>
      <trkpt lat="43.042200" lon="-4.712983">
        <ele>2165.0</ele>
        <time>2013-09-04T13:27:45Z</time>
      </trkpt>
      <trkpt lat="43.042183" lon="-4.712900">
        <ele>2164.0</ele>
        <time>2013-09-04T13:27:46Z</time>
      </trkpt>
      <trkpt lat="43.042167" lon="-4.712817">
        <ele>2163.0</ele>
        <time>2013-09-04T13:27:47Z</time>
      </trkpt>
      <trkpt lat="43.042133" lon="-4.712750">
        <ele>2162.0</ele>
        <time>2013-09-04T13:27:48Z</time>
      </trkpt>
      <trkpt lat="43.042117" lon="-4.712683">
        <ele>2161.0</ele>
        <time>2013-09-04T13:27:49Z</time>
      </trkpt>
      <trkpt lat="43.042100" lon="-4.712617">
        <ele>2159.0</ele>
        <time>2013-09-04T13:27:50Z</time>
      </trkpt>
      <trkpt lat="43.042067" lon="-4.712533">
        <ele>2158.0</ele>
        <time>2013-09-04T13:27:51Z</time>
      </trkpt>
      <trkpt lat="43.042033" lon="-4.712450">
        <ele>2157.0</ele>
        <time>2013-09-04T13:27:52Z</time>
      </trkpt>
      <trkpt lat="43.042017" lon="-4.712367">
        <ele>2157.0</ele>
        <time>2013-09-04T13:27:53Z</time>
      </trkpt>
      <trkpt lat="43.042000" lon="-4.712300">
        <ele>2156.0</ele>
        <time>2013-09-04T13:27:54Z</time>
      </trkpt>
      <trkpt lat="43.041983" lon="-4.712233">
        <ele>2155.0</ele>
        <time>2013-09-04T13:27:55Z</time>
      </trkpt>
      <trkpt lat="43.041950" lon="-4.712167">
        <ele>2153.0</ele>
        <time>2013-09-04T13:27:56Z</time>
      </trkpt>
      <trkpt lat="43.041917" lon="-4.712100">
        <ele>2151.0</ele>
        <time>2013-09-04T13:27:57Z</time>
      </trkpt>
      <trkpt lat="43.041883" lon="-4.712017">
        <ele>2149.0</ele>
        <time>2013-09-04T13:27:58Z</time>
      </trkpt>
      <trkpt lat="43.041850" lon="-4.711933">
        <ele>2148.0</ele>
        <time>2013-09-04T13:27:59Z</time>
      </trkpt>
      <trkpt lat="43.041833" lon="-4.711867">
        <ele>2147.0</ele>
        <time>2013-09-04T13:28:00Z</time>
      </trkpt>
      <trkpt lat="43.041817" lon="-4.711783">
        <ele>2146.0</ele>
        <time>2013-09-04T13:28:01Z</time>
      </trkpt>
      <trkpt lat="43.041817" lon="-4.711717">
        <ele>2145.0</ele>
        <time>2013-09-04T13:28:02Z</time>
      </trkpt>
      <trkpt lat="43.041800" lon="-4.711633">
        <ele>2144.0</ele>
        <time>2013-09-04T13:28:03Z</time>
      </trkpt>
      <trkpt lat="43.041800" lon="-4.711550">
        <ele>2144.0</ele>
        <time>2013-09-04T13:28:04Z</time>
      </trkpt>
      <trkpt lat="43.041783" lon="-4.711467">
        <ele>2144.0</ele>
        <time>2013-09-04T13:28:05Z</time>
      </trkpt>
      <trkpt lat="43.041783" lon="-4.711383">
        <ele>2143.0</ele>
        <time>2013-09-04T13:28:06Z</time>
      </trkpt>
      <trkpt lat="43.041800" lon="-4.711300">
        <ele>2142.0</ele>
        <time>2013-09-04T13:28:07Z</time>
      </trkpt>
      <trkpt lat="43.041800" lon="-4.711233">
        <ele>2141.0</ele>
        <time>2013-09-04T13:28:08Z</time>
      </trkpt>
      <trkpt lat="43.041783" lon="-4.711150">
        <ele>2140.0</ele>
        <time>2013-09-04T13:28:09Z</time>
      </trkpt>
      <trkpt lat="43.041783" lon="-4.711067">
        <ele>2138.0</ele>
        <time>2013-09-04T13:28:10Z</time>
      </trkpt>
      <trkpt lat="43.041783" lon="-4.710983">
        <ele>2137.0</ele>
        <time>2013-09-04T13:28:11Z</time>
      </trkpt>
      <trkpt lat="43.041783" lon="-4.710900">
        <ele>2136.0</ele>
        <time>2013-09-04T13:28:12Z</time>
      </trkpt>
      <trkpt lat="43.041783" lon="-4.710817">
        <ele>2135.0</ele>
        <time>2013-09-04T13:28:13Z</time>
      </trkpt>
      <trkpt lat="43.041767" lon="-4.710750">
        <ele>2134.0</ele>
        <time>2013-09-04T13:28:14Z</time>
      </trkpt>
      <trkpt lat="43.041767" lon="-4.710667">
        <ele>2132.0</ele>
        <time>2013-09-04T13:28:15Z</time>
      </trkpt>
      <trkpt lat="43.041767" lon="-4.710583">
        <ele>2131.0</ele>
        <time>2013-09-04T13:28:16Z</time>
      </trkpt>
      <trkpt lat="43.041767" lon="-4.710500">
        <ele>2130.0</ele>
        <time>2013-09-04T13:28:17Z</time>
      </trkpt>
      <trkpt lat="43.041750" lon="-4.710417">
        <ele>2129.0</ele>
        <time>2013-09-04T13:28:18Z</time>
      </trkpt>
      <trkpt lat="43.041750" lon="-4.710350">
        <ele>2128.0</ele>
        <time>2013-09-04T13:28:19Z</time>
      </trkpt>
      <trkpt lat="43.041717" lon="-4.710283">
        <ele>2132.0</ele>
        <time>2013-09-04T13:28:20Z</time>
      </trkpt>
      <trkpt lat="43.041683" lon="-4.710200">
        <ele>2132.0</ele>
        <time>2013-09-04T13:28:21Z</time>
      </trkpt>
      <trkpt lat="43.041667" lon="-4.710117">
        <ele>2132.0</ele>
        <time>2013-09-04T13:28:22Z</time>
      </trkpt>
      <trkpt lat="43.041667" lon="-4.710033">
        <ele>2132.0</ele>
        <time>2013-09-04T13:28:23Z</time>
      </trkpt>
      <trkpt lat="43.041667" lon="-4.709950">
        <ele>2132.0</ele>
        <time>2013-09-04T13:28:24Z</time>
      </trkpt>
      <trkpt lat="43.041683" lon="-4.709883">
        <ele>2132.0</ele>
        <time>2013-09-04T13:28:25Z</time>
      </trkpt>
      <trkpt lat="43.041683" lon="-4.709800">
        <ele>2132.0</ele>
        <time>2013-09-04T13:28:26Z</time>
      </trkpt>
      <trkpt lat="43.041683" lon="-4.709717">
        <ele>2131.0</ele>
        <time>2013-09-04T13:28:27Z</time>
      </trkpt>
      <trkpt lat="43.041683" lon="-4.709600">
        <ele>2130.0</ele>
        <time>2013-09-04T13:28:28Z</time>
      </trkpt>
      <trkpt lat="43.041700" lon="-4.709500">
        <ele>2129.0</ele>
        <time>2013-09-04T13:28:29Z</time>
      </trkpt>
      <trkpt lat="43.041700" lon="-4.709383">
        <ele>2128.0</ele>
        <time>2013-09-04T13:28:30Z</time>
      </trkpt>
      <trkpt lat="43.041700" lon="-4.709250">
        <ele>2128.0</ele>
        <time>2013-09-04T13:28:31Z</time>
      </trkpt>
      <trkpt lat="43.041683" lon="-4.709150">
        <ele>2128.0</ele>
        <time>2013-09-04T13:28:32Z</time>
      </trkpt>
      <trkpt lat="43.041667" lon="-4.709033">
        <ele>2128.0</ele>
        <time>2013-09-04T13:28:33Z</time>
      </trkpt>
      <trkpt lat="43.041633" lon="-4.708933">
        <ele>2128.0</ele>
        <time>2013-09-04T13:28:34Z</time>
      </trkpt>
      <trkpt lat="43.041617" lon="-4.708817">
        <ele>2128.0</ele>
        <time>2013-09-04T13:28:35Z</time>
      </trkpt>
      <trkpt lat="43.041617" lon="-4.708683">
        <ele>2127.0</ele>
        <time>2013-09-04T13:28:36Z</time>
      </trkpt>
      <trkpt lat="43.041617" lon="-4.708567">
        <ele>2127.0</ele>
        <time>2013-09-04T13:28:37Z</time>
      </trkpt>
      <trkpt lat="43.041617" lon="-4.708450">
        <ele>2127.0</ele>
        <time>2013-09-04T13:28:38Z</time>
      </trkpt>
      <trkpt lat="43.041617" lon="-4.708333">
        <ele>2128.0</ele>
        <time>2013-09-04T13:28:39Z</time>
      </trkpt>
      <trkpt lat="43.041633" lon="-4.708233">
        <ele>2128.0</ele>
        <time>2013-09-04T13:28:40Z</time>
      </trkpt>
      <trkpt lat="43.041633" lon="-4.708150">
        <ele>2129.0</ele>
        <time>2013-09-04T13:28:41Z</time>
      </trkpt>
      <trkpt lat="43.041617" lon="-4.708083">
        <ele>2131.0</ele>
        <time>2013-09-04T13:28:42Z</time>
      </trkpt>
      <trkpt lat="43.041617" lon="-4.708017">
        <ele>2132.0</ele>
        <time>2013-09-04T13:28:43Z</time>
      </trkpt>
      <trkpt lat="43.041617" lon="-4.707950">
        <ele>2130.0</ele>
        <time>2013-09-04T13:28:44Z</time>
      </trkpt>
      <trkpt lat="43.041617" lon="-4.707867">
        <ele>2129.0</ele>
        <time>2013-09-04T13:28:45Z</time>
      </trkpt>
      <trkpt lat="43.041617" lon="-4.707800">
        <ele>2129.0</ele>
        <time>2013-09-04T13:28:46Z</time>
      </trkpt>
      <trkpt lat="43.041600" lon="-4.707717">
        <ele>2129.0</ele>
        <time>2013-09-04T13:28:47Z</time>
      </trkpt>
      <trkpt lat="43.041583" lon="-4.707650">
        <ele>2129.0</ele>
        <time>2013-09-04T13:28:48Z</time>
      </trkpt>
      <trkpt lat="43.041567" lon="-4.707583">
        <ele>2129.0</ele>
        <time>2013-09-04T13:28:49Z</time>
      </trkpt>
      <trkpt lat="43.041567" lon="-4.707517">
        <ele>2128.0</ele>
        <time>2013-09-04T13:28:50Z</time>
      </trkpt>
      <trkpt lat="43.041567" lon="-4.707417">
        <ele>2127.0</ele>
        <time>2013-09-04T13:28:51Z</time>
      </trkpt>
      <trkpt lat="43.041583" lon="-4.707317">
        <ele>2126.0</ele>
        <time>2013-09-04T13:28:52Z</time>
      </trkpt>
      <trkpt lat="43.041617" lon="-4.707200">
        <ele>2125.0</ele>
        <time>2013-09-04T13:28:53Z</time>
      </trkpt>
      <trkpt lat="43.041633" lon="-4.707100">
        <ele>2124.0</ele>
        <time>2013-09-04T13:28:54Z</time>
      </trkpt>
      <trkpt lat="43.041650" lon="-4.707017">
        <ele>2123.0</ele>
        <time>2013-09-04T13:28:55Z</time>
      </trkpt>
      <trkpt lat="43.041667" lon="-4.706950">
        <ele>2122.0</ele>
        <time>2013-09-04T13:28:56Z</time>
      </trkpt>
      <trkpt lat="43.041700" lon="-4.706883">
        <ele>2121.0</ele>
        <time>2013-09-04T13:28:57Z</time>
      </trkpt>
      <trkpt lat="43.041717" lon="-4.706817">
        <ele>2119.0</ele>
        <time>2013-09-04T13:28:58Z</time>
      </trkpt>
      <trkpt lat="43.041733" lon="-4.706733">
        <ele>2118.0</ele>
        <time>2013-09-04T13:28:59Z</time>
      </trkpt>
      <trkpt lat="43.041750" lon="-4.706650">
        <ele>2116.0</ele>
        <time>2013-09-04T13:29:00Z</time>
      </trkpt>
      <trkpt lat="43.041767" lon="-4.706550">
        <ele>2114.0</ele>
        <time>2013-09-04T13:29:01Z</time>
      </trkpt>
      <trkpt lat="43.041783" lon="-4.706467">
        <ele>2112.0</ele>
        <time>2013-09-04T13:29:02Z</time>
      </trkpt>
      <trkpt lat="43.041817" lon="-4.706367">
        <ele>2109.0</ele>
        <time>2013-09-04T13:29:03Z</time>
      </trkpt>
      <trkpt lat="43.041867" lon="-4.706250">
        <ele>2107.0</ele>
        <time>2013-09-04T13:29:04Z</time>
      </trkpt>
      <trkpt lat="43.041900" lon="-4.706117">
        <ele>2105.0</ele>
        <time>2013-09-04T13:29:05Z</time>
      </trkpt>
      <trkpt lat="43.041933" lon="-4.705983">
        <ele>2104.0</ele>
        <time>2013-09-04T13:29:06Z</time>
      </trkpt>
      <trkpt lat="43.041950" lon="-4.705867">
        <ele>2103.0</ele>
        <time>2013-09-04T13:29:07Z</time>
      </trkpt>
      <trkpt lat="43.041983" lon="-4.705750">
        <ele>2102.0</ele>
        <time>2013-09-04T13:29:08Z</time>
      </trkpt>
      <trkpt lat="43.042017" lon="-4.705650">
        <ele>2101.0</ele>
        <time>2013-09-04T13:29:09Z</time>
      </trkpt>
      <trkpt lat="43.042050" lon="-4.705550">
        <ele>2099.0</ele>
        <time>2013-09-04T13:29:10Z</time>
      </trkpt>
      <trkpt lat="43.042083" lon="-4.705433">
        <ele>2094.0</ele>
        <time>2013-09-04T13:29:11Z</time>
      </trkpt>
      <trkpt lat="43.042117" lon="-4.705300">
        <ele>2090.0</ele>
        <time>2013-09-04T13:29:12Z</time>
      </trkpt>
      <trkpt lat="43.042133" lon="-4.705167">
        <ele>2088.0</ele>
        <time>2013-09-04T13:29:13Z</time>
      </trkpt>
      <trkpt lat="43.042150" lon="-4.705050">
        <ele>2086.0</ele>
        <time>2013-09-04T13:29:14Z</time>
      </trkpt>
      <trkpt lat="43.042183" lon="-4.704917">
        <ele>2084.0</ele>
        <time>2013-09-04T13:29:15Z</time>
      </trkpt>
      <trkpt lat="43.042200" lon="-4.704817">
        <ele>2081.0</ele>
        <time>2013-09-04T13:29:16Z</time>
      </trkpt>
      <trkpt lat="43.042233" lon="-4.704700">
        <ele>2078.0</ele>
        <time>2013-09-04T13:29:17Z</time>
      </trkpt>
      <trkpt lat="43.042267" lon="-4.704600">
        <ele>2075.0</ele>
        <time>2013-09-04T13:29:18Z</time>
      </trkpt>
      <trkpt lat="43.042283" lon="-4.704483">
        <ele>2073.0</ele>
        <time>2013-09-04T13:29:19Z</time>
      </trkpt>
      <trkpt lat="43.042317" lon="-4.704333">
        <ele>2071.0</ele>
        <time>2013-09-04T13:29:20Z</time>
      </trkpt>
      <trkpt lat="43.042350" lon="-4.704200">
        <ele>2069.0</ele>
        <time>2013-09-04T13:29:21Z</time>
      </trkpt>
      <trkpt lat="43.042367" lon="-4.704067">
        <ele>2068.0</ele>
        <time>2013-09-04T13:29:22Z</time>
      </trkpt>
      <trkpt lat="43.042400" lon="-4.703933">
        <ele>2067.0</ele>
        <time>2013-09-04T13:29:23Z</time>
      </trkpt>
      <trkpt lat="43.042433" lon="-4.703833">
        <ele>2066.0</ele>
        <time>2013-09-04T13:29:24Z</time>
      </trkpt>
      <trkpt lat="43.042450" lon="-4.703717">
        <ele>2064.0</ele>
        <time>2013-09-04T13:29:25Z</time>
      </trkpt>
      <trkpt lat="43.042467" lon="-4.703600">
        <ele>2062.0</ele>
        <time>2013-09-04T13:29:26Z</time>
      </trkpt>
      <trkpt lat="43.042483" lon="-4.703450">
        <ele>2060.0</ele>
        <time>2013-09-04T13:29:27Z</time>
      </trkpt>
      <trkpt lat="43.042500" lon="-4.703317">
        <ele>2058.0</ele>
        <time>2013-09-04T13:29:28Z</time>
      </trkpt>
      <trkpt lat="43.042500" lon="-4.703183">
        <ele>2056.0</ele>
        <time>2013-09-04T13:29:29Z</time>
      </trkpt>
      <trkpt lat="43.042500" lon="-4.703050">
        <ele>2055.0</ele>
        <time>2013-09-04T13:29:30Z</time>
      </trkpt>
      <trkpt lat="43.042500" lon="-4.702933">
        <ele>2054.0</ele>
        <time>2013-09-04T13:29:31Z</time>
      </trkpt>
      <trkpt lat="43.042483" lon="-4.702800">
        <ele>2052.0</ele>
        <time>2013-09-04T13:29:32Z</time>
      </trkpt>
      <trkpt lat="43.042483" lon="-4.702683">
        <ele>2051.0</ele>
        <time>2013-09-04T13:29:33Z</time>
      </trkpt>
      <trkpt lat="43.042483" lon="-4.702550">
        <ele>2050.0</ele>
        <time>2013-09-04T13:29:34Z</time>
      </trkpt>
      <trkpt lat="43.042500" lon="-4.702450">
        <ele>2050.0</ele>
        <time>2013-09-04T13:29:35Z</time>
      </trkpt>
      <trkpt lat="43.042550" lon="-4.702367">
        <ele>2049.0</ele>
        <time>2013-09-04T13:29:36Z</time>
      </trkpt>
      <trkpt lat="43.042567" lon="-4.702283">
        <ele>2047.0</ele>
        <time>2013-09-04T13:29:37Z</time>
      </trkpt>
      <trkpt lat="43.042600" lon="-4.702217">
        <ele>2042.0</ele>
        <time>2013-09-04T13:29:38Z</time>
      </trkpt>
      <trkpt lat="43.042633" lon="-4.702150">
        <ele>2041.0</ele>
        <time>2013-09-04T13:29:39Z</time>
      </trkpt>
      <trkpt lat="43.042667" lon="-4.702050">
        <ele>2039.0</ele>
        <time>2013-09-04T13:29:40Z</time>
      </trkpt>
      <trkpt lat="43.042717" lon="-4.701917">
        <ele>2037.0</ele>
        <time>2013-09-04T13:29:41Z</time>
      </trkpt>
      <trkpt lat="43.042767" lon="-4.701783">
        <ele>2035.0</ele>
        <time>2013-09-04T13:29:42Z</time>
      </trkpt>
      <trkpt lat="43.042817" lon="-4.701667">
        <ele>2035.0</ele>
        <time>2013-09-04T13:29:43Z</time>
      </trkpt>
      <trkpt lat="43.042850" lon="-4.701550">
        <ele>2037.0</ele>
        <time>2013-09-04T13:29:44Z</time>
      </trkpt>
      <trkpt lat="43.042867" lon="-4.701450">
        <ele>2038.0</ele>
        <time>2013-09-04T13:29:45Z</time>
      </trkpt>
      <trkpt lat="43.042883" lon="-4.701367">
        <ele>2038.0</ele>
        <time>2013-09-04T13:29:46Z</time>
      </trkpt>
      <trkpt lat="43.042900" lon="-4.701283">
        <ele>2038.0</ele>
        <time>2013-09-04T13:29:47Z</time>
      </trkpt>
      <trkpt lat="43.042917" lon="-4.701200">
        <ele>2038.0</ele>
        <time>2013-09-04T13:29:48Z</time>
      </trkpt>
      <trkpt lat="43.042933" lon="-4.701133">
        <ele>2038.0</ele>
        <time>2013-09-04T13:29:49Z</time>
      </trkpt>
      <trkpt lat="43.042950" lon="-4.701083">
        <ele>2039.0</ele>
        <time>2013-09-04T13:29:50Z</time>
      </trkpt>
      <trkpt lat="43.043000" lon="-4.701033">
        <ele>2039.0</ele>
        <time>2013-09-04T13:29:51Z</time>
      </trkpt>
      <trkpt lat="43.043050" lon="-4.701000">
        <ele>2039.0</ele>
        <time>2013-09-04T13:29:52Z</time>
      </trkpt>
      <trkpt lat="43.043100" lon="-4.700983">
        <ele>2039.0</ele>
        <time>2013-09-04T13:29:53Z</time>
      </trkpt>
      <trkpt lat="43.043150" lon="-4.701017">
        <ele>2040.0</ele>
        <time>2013-09-04T13:29:54Z</time>
      </trkpt>
      <trkpt lat="43.043200" lon="-4.701067">
        <ele>2041.0</ele>
        <time>2013-09-04T13:29:55Z</time>
      </trkpt>
      <trkpt lat="43.043217" lon="-4.701150">
        <ele>2042.0</ele>
        <time>2013-09-04T13:29:56Z</time>
      </trkpt>
      <trkpt lat="43.043217" lon="-4.701267">
        <ele>2042.0</ele>
        <time>2013-09-04T13:29:57Z</time>
      </trkpt>
      <trkpt lat="43.043183" lon="-4.701383">
        <ele>2043.0</ele>
        <time>2013-09-04T13:29:58Z</time>
      </trkpt>
      <trkpt lat="43.043150" lon="-4.701483">
        <ele>2043.0</ele>
        <time>2013-09-04T13:29:59Z</time>
      </trkpt>
      <trkpt lat="43.043067" lon="-4.701583">
        <ele>2044.0</ele>
        <time>2013-09-04T13:30:00Z</time>
      </trkpt>
      <trkpt lat="43.043000" lon="-4.701650">
        <ele>2044.0</ele>
        <time>2013-09-04T13:30:01Z</time>
      </trkpt>
      <trkpt lat="43.042900" lon="-4.701683">
        <ele>2044.0</ele>
        <time>2013-09-04T13:30:02Z</time>
      </trkpt>
      <trkpt lat="43.042817" lon="-4.701700">
        <ele>2044.0</ele>
        <time>2013-09-04T13:30:03Z</time>
      </trkpt>
      <trkpt lat="43.042717" lon="-4.701667">
        <ele>2044.0</ele>
        <time>2013-09-04T13:30:04Z</time>
      </trkpt>
      <trkpt lat="43.042617" lon="-4.701600">
        <ele>2044.0</ele>
        <time>2013-09-04T13:30:05Z</time>
      </trkpt>
      <trkpt lat="43.042567" lon="-4.701517">
        <ele>2044.0</ele>
        <time>2013-09-04T13:30:06Z</time>
      </trkpt>
      <trkpt lat="43.042517" lon="-4.701417">
        <ele>2044.0</ele>
        <time>2013-09-04T13:30:07Z</time>
      </trkpt>
      <trkpt lat="43.042483" lon="-4.701317">
        <ele>2045.0</ele>
        <time>2013-09-04T13:30:08Z</time>
      </trkpt>
      <trkpt lat="43.042467" lon="-4.701233">
        <ele>2046.0</ele>
        <time>2013-09-04T13:30:09Z</time>
      </trkpt>
      <trkpt lat="43.042467" lon="-4.701150">
        <ele>2046.0</ele>
        <time>2013-09-04T13:30:10Z</time>
      </trkpt>
      <trkpt lat="43.042467" lon="-4.701050">
        <ele>2047.0</ele>
        <time>2013-09-04T13:30:11Z</time>
      </trkpt>
      <trkpt lat="43.042483" lon="-4.700967">
        <ele>2048.0</ele>
        <time>2013-09-04T13:30:12Z</time>
      </trkpt>
      <trkpt lat="43.042500" lon="-4.700883">
        <ele>2048.0</ele>
        <time>2013-09-04T13:30:13Z</time>
      </trkpt>
      <trkpt lat="43.042533" lon="-4.700817">
        <ele>2047.0</ele>
        <time>2013-09-04T13:30:14Z</time>
      </trkpt>
      <trkpt lat="43.042567" lon="-4.700750">
        <ele>2047.0</ele>
        <time>2013-09-04T13:30:15Z</time>
      </trkpt>
      <trkpt lat="43.042600" lon="-4.700683">
        <ele>2047.0</ele>
        <time>2013-09-04T13:30:16Z</time>
      </trkpt>
      <trkpt lat="43.042633" lon="-4.700617">
        <ele>2048.0</ele>
        <time>2013-09-04T13:30:17Z</time>
      </trkpt>
      <trkpt lat="43.042683" lon="-4.700567">
        <ele>2049.0</ele>
        <time>2013-09-04T13:30:18Z</time>
      </trkpt>
      <trkpt lat="43.042733" lon="-4.700533">
        <ele>2049.0</ele>
        <time>2013-09-04T13:30:19Z</time>
      </trkpt>
      <trkpt lat="43.042767" lon="-4.700533">
        <ele>2050.0</ele>
        <time>2013-09-04T13:30:20Z</time>
      </trkpt>
      <trkpt lat="43.042817" lon="-4.700533">
        <ele>2049.0</ele>
        <time>2013-09-04T13:30:21Z</time>
      </trkpt>
      <trkpt lat="43.042883" lon="-4.700567">
        <ele>2048.0</ele>
        <time>2013-09-04T13:30:22Z</time>
      </trkpt>
      <trkpt lat="43.042933" lon="-4.700633">
        <ele>2047.0</ele>
        <time>2013-09-04T13:30:23Z</time>
      </trkpt>
      <trkpt lat="43.042983" lon="-4.700717">
        <ele>2047.0</ele>
        <time>2013-09-04T13:30:24Z</time>
      </trkpt>
      <trkpt lat="43.043017" lon="-4.700817">
        <ele>2047.0</ele>
        <time>2013-09-04T13:30:25Z</time>
      </trkpt>
      <trkpt lat="43.043017" lon="-4.700917">
        <ele>2047.0</ele>
        <time>2013-09-04T13:30:26Z</time>
      </trkpt>
      <trkpt lat="43.043000" lon="-4.701033">
        <ele>2047.0</ele>
        <time>2013-09-04T13:30:27Z</time>
      </trkpt>
      <trkpt lat="43.042950" lon="-4.701150">
        <ele>2047.0</ele>
        <time>2013-09-04T13:30:28Z</time>
      </trkpt>
      <trkpt lat="43.042900" lon="-4.701250">
        <ele>2047.0</ele>
        <time>2013-09-04T13:30:29Z</time>
      </trkpt>
      <trkpt lat="43.042817" lon="-4.701333">
        <ele>2047.0</ele>
        <time>2013-09-04T13:30:30Z</time>
      </trkpt>
      <trkpt lat="43.042717" lon="-4.701383">
        <ele>2047.0</ele>
        <time>2013-09-04T13:30:31Z</time>
      </trkpt>
      <trkpt lat="43.042633" lon="-4.701400">
        <ele>2047.0</ele>
        <time>2013-09-04T13:30:32Z</time>
      </trkpt>
      <trkpt lat="43.042533" lon="-4.701400">
        <ele>2048.0</ele>
        <time>2013-09-04T13:30:33Z</time>
      </trkpt>
      <trkpt lat="43.042450" lon="-4.701383">
        <ele>2049.0</ele>
        <time>2013-09-04T13:30:34Z</time>
      </trkpt>
      <trkpt lat="43.042367" lon="-4.701350">
        <ele>2049.0</ele>
        <time>2013-09-04T13:30:35Z</time>
      </trkpt>
      <trkpt lat="43.042283" lon="-4.701300">
        <ele>2049.0</ele>
        <time>2013-09-04T13:30:36Z</time>
      </trkpt>
      <trkpt lat="43.042200" lon="-4.701233">
        <ele>2049.0</ele>
        <time>2013-09-04T13:30:37Z</time>
      </trkpt>
      <trkpt lat="43.042150" lon="-4.701133">
        <ele>2050.0</ele>
        <time>2013-09-04T13:30:38Z</time>
      </trkpt>
      <trkpt lat="43.042117" lon="-4.701017">
        <ele>2050.0</ele>
        <time>2013-09-04T13:30:39Z</time>
      </trkpt>
      <trkpt lat="43.042100" lon="-4.700917">
        <ele>2050.0</ele>
        <time>2013-09-04T13:30:40Z</time>
      </trkpt>
      <trkpt lat="43.042117" lon="-4.700800">
        <ele>2050.0</ele>
        <time>2013-09-04T13:30:41Z</time>
      </trkpt>
      <trkpt lat="43.042117" lon="-4.700700">
        <ele>2051.0</ele>
        <time>2013-09-04T13:30:42Z</time>
      </trkpt>
      <trkpt lat="43.042117" lon="-4.700600">
        <ele>2049.0</ele>
        <time>2013-09-04T13:30:43Z</time>
      </trkpt>
      <trkpt lat="43.042100" lon="-4.700483">
        <ele>2049.0</ele>
        <time>2013-09-04T13:30:44Z</time>
      </trkpt>
      <trkpt lat="43.042083" lon="-4.700400">
        <ele>2049.0</ele>
        <time>2013-09-04T13:30:45Z</time>
      </trkpt>
      <trkpt lat="43.042100" lon="-4.700300">
        <ele>2048.0</ele>
        <time>2013-09-04T13:30:46Z</time>
      </trkpt>
      <trkpt lat="43.042100" lon="-4.700200">
        <ele>2048.0</ele>
        <time>2013-09-04T13:30:47Z</time>
      </trkpt>
      <trkpt lat="43.042133" lon="-4.700100">
        <ele>2047.0</ele>
        <time>2013-09-04T13:30:48Z</time>
      </trkpt>
      <trkpt lat="43.042150" lon="-4.700000">
        <ele>2046.0</ele>
        <time>2013-09-04T13:30:49Z</time>
      </trkpt>
      <trkpt lat="43.042167" lon="-4.699917">
        <ele>2045.0</ele>
        <time>2013-09-04T13:30:50Z</time>
      </trkpt>
      <trkpt lat="43.042167" lon="-4.699817">
        <ele>2045.0</ele>
        <time>2013-09-04T13:30:51Z</time>
      </trkpt>
      <trkpt lat="43.042183" lon="-4.699717">
        <ele>2045.0</ele>
        <time>2013-09-04T13:30:52Z</time>
      </trkpt>
      <trkpt lat="43.042200" lon="-4.699617">
        <ele>2043.0</ele>
        <time>2013-09-04T13:30:53Z</time>
      </trkpt>
      <trkpt lat="43.042217" lon="-4.699517">
        <ele>2043.0</ele>
        <time>2013-09-04T13:30:54Z</time>
      </trkpt>
      <trkpt lat="43.042250" lon="-4.699400">
        <ele>2041.0</ele>
        <time>2013-09-04T13:30:55Z</time>
      </trkpt>
      <trkpt lat="43.042283" lon="-4.699283">
        <ele>2040.0</ele>
        <time>2013-09-04T13:30:56Z</time>
      </trkpt>
      <trkpt lat="43.042317" lon="-4.699200">
        <ele>2038.0</ele>
        <time>2013-09-04T13:30:57Z</time>
      </trkpt>
      <trkpt lat="43.042350" lon="-4.699117">
        <ele>2037.0</ele>
        <time>2013-09-04T13:30:58Z</time>
      </trkpt>
      <trkpt lat="43.042383" lon="-4.699033">
        <ele>2035.0</ele>
        <time>2013-09-04T13:30:59Z</time>
      </trkpt>
      <trkpt lat="43.042417" lon="-4.698933">
        <ele>2033.0</ele>
        <time>2013-09-04T13:31:00Z</time>
      </trkpt>
      <trkpt lat="43.042450" lon="-4.698833">
        <ele>2030.0</ele>
        <time>2013-09-04T13:31:01Z</time>
      </trkpt>
      <trkpt lat="43.042500" lon="-4.698717">
        <ele>2026.0</ele>
        <time>2013-09-04T13:31:02Z</time>
      </trkpt>
      <trkpt lat="43.042550" lon="-4.698600">
        <ele>2021.0</ele>
        <time>2013-09-04T13:31:03Z</time>
      </trkpt>
      <trkpt lat="43.042600" lon="-4.698483">
        <ele>2017.0</ele>
        <time>2013-09-04T13:31:04Z</time>
      </trkpt>
      <trkpt lat="43.042650" lon="-4.698367">
        <ele>2014.0</ele>
        <time>2013-09-04T13:31:05Z</time>
      </trkpt>
      <trkpt lat="43.042700" lon="-4.698250">
        <ele>2011.0</ele>
        <time>2013-09-04T13:31:06Z</time>
      </trkpt>
      <trkpt lat="43.042733" lon="-4.698117">
        <ele>2009.0</ele>
        <time>2013-09-04T13:31:07Z</time>
      </trkpt>
      <trkpt lat="43.042783" lon="-4.698000">
        <ele>2006.0</ele>
        <time>2013-09-04T13:31:08Z</time>
      </trkpt>
      <trkpt lat="43.042800" lon="-4.697867">
        <ele>2005.0</ele>
        <time>2013-09-04T13:31:09Z</time>
      </trkpt>
      <trkpt lat="43.042817" lon="-4.697733">
        <ele>2004.0</ele>
        <time>2013-09-04T13:31:10Z</time>
      </trkpt>
      <trkpt lat="43.042833" lon="-4.697600">
        <ele>2004.0</ele>
        <time>2013-09-04T13:31:11Z</time>
      </trkpt>
      <trkpt lat="43.042833" lon="-4.697483">
        <ele>2004.0</ele>
        <time>2013-09-04T13:31:12Z</time>
      </trkpt>
      <trkpt lat="43.042850" lon="-4.697367">
        <ele>2003.0</ele>
        <time>2013-09-04T13:31:13Z</time>
      </trkpt>
      <trkpt lat="43.042833" lon="-4.697233">
        <ele>2003.0</ele>
        <time>2013-09-04T13:31:14Z</time>
      </trkpt>
      <trkpt lat="43.042833" lon="-4.697100">
        <ele>2003.0</ele>
        <time>2013-09-04T13:31:15Z</time>
      </trkpt>
      <trkpt lat="43.042833" lon="-4.696983">
        <ele>2004.0</ele>
        <time>2013-09-04T13:31:16Z</time>
      </trkpt>
      <trkpt lat="43.042833" lon="-4.696850">
        <ele>2005.0</ele>
        <time>2013-09-04T13:31:17Z</time>
      </trkpt>
      <trkpt lat="43.042850" lon="-4.696733">
        <ele>2006.0</ele>
        <time>2013-09-04T13:31:18Z</time>
      </trkpt>
      <trkpt lat="43.042850" lon="-4.696617">
        <ele>2007.0</ele>
        <time>2013-09-04T13:31:19Z</time>
      </trkpt>
      <trkpt lat="43.042850" lon="-4.696517">
        <ele>2007.0</ele>
        <time>2013-09-04T13:31:20Z</time>
      </trkpt>
      <trkpt lat="43.042850" lon="-4.696433">
        <ele>2007.0</ele>
        <time>2013-09-04T13:31:21Z</time>
      </trkpt>
      <trkpt lat="43.042850" lon="-4.696317">
        <ele>2007.0</ele>
        <time>2013-09-04T13:31:22Z</time>
      </trkpt>
      <trkpt lat="43.042850" lon="-4.696200">
        <ele>2006.0</ele>
        <time>2013-09-04T13:31:23Z</time>
      </trkpt>
      <trkpt lat="43.042850" lon="-4.696050">
        <ele>2005.0</ele>
        <time>2013-09-04T13:31:24Z</time>
      </trkpt>
      <trkpt lat="43.042850" lon="-4.695917">
        <ele>2004.0</ele>
        <time>2013-09-04T13:31:25Z</time>
      </trkpt>
      <trkpt lat="43.042850" lon="-4.695783">
        <ele>2004.0</ele>
        <time>2013-09-04T13:31:26Z</time>
      </trkpt>
      <trkpt lat="43.042867" lon="-4.695650">
        <ele>2005.0</ele>
        <time>2013-09-04T13:31:27Z</time>
      </trkpt>
      <trkpt lat="43.042850" lon="-4.695517">
        <ele>2005.0</ele>
        <time>2013-09-04T13:31:28Z</time>
      </trkpt>
      <trkpt lat="43.042850" lon="-4.695383">
        <ele>2005.0</ele>
        <time>2013-09-04T13:31:29Z</time>
      </trkpt>
      <trkpt lat="43.042833" lon="-4.695233">
        <ele>2005.0</ele>
        <time>2013-09-04T13:31:30Z</time>
      </trkpt>
      <trkpt lat="43.042817" lon="-4.695083">
        <ele>2005.0</ele>
        <time>2013-09-04T13:31:31Z</time>
      </trkpt>
      <trkpt lat="43.042800" lon="-4.694950">
        <ele>2005.0</ele>
        <time>2013-09-04T13:31:32Z</time>
      </trkpt>
      <trkpt lat="43.042783" lon="-4.694817">
        <ele>2006.0</ele>
        <time>2013-09-04T13:31:33Z</time>
      </trkpt>
      <trkpt lat="43.042767" lon="-4.694700">
        <ele>2006.0</ele>
        <time>2013-09-04T13:31:34Z</time>
      </trkpt>
      <trkpt lat="43.042767" lon="-4.694583">
        <ele>2006.0</ele>
        <time>2013-09-04T13:31:35Z</time>
      </trkpt>
      <trkpt lat="43.042750" lon="-4.694450">
        <ele>2006.0</ele>
        <time>2013-09-04T13:31:36Z</time>
      </trkpt>
      <trkpt lat="43.042750" lon="-4.694317">
        <ele>2006.0</ele>
        <time>2013-09-04T13:31:37Z</time>
      </trkpt>
      <trkpt lat="43.042750" lon="-4.694167">
        <ele>2006.0</ele>
        <time>2013-09-04T13:31:38Z</time>
      </trkpt>
      <trkpt lat="43.042750" lon="-4.694033">
        <ele>2008.0</ele>
        <time>2013-09-04T13:31:39Z</time>
      </trkpt>
      <trkpt lat="43.042733" lon="-4.693917">
        <ele>2010.0</ele>
        <time>2013-09-04T13:31:40Z</time>
      </trkpt>
      <trkpt lat="43.042733" lon="-4.693817">
        <ele>2011.0</ele>
        <time>2013-09-04T13:31:41Z</time>
      </trkpt>
      <trkpt lat="43.042733" lon="-4.693717">
        <ele>2010.0</ele>
        <time>2013-09-04T13:31:42Z</time>
      </trkpt>
      <trkpt lat="43.042733" lon="-4.693617">
        <ele>2010.0</ele>
        <time>2013-09-04T13:31:43Z</time>
      </trkpt>
      <trkpt lat="43.042733" lon="-4.693533">
        <ele>2010.0</ele>
        <time>2013-09-04T13:31:44Z</time>
      </trkpt>
      <trkpt lat="43.042733" lon="-4.693417">
        <ele>2010.0</ele>
        <time>2013-09-04T13:31:45Z</time>
      </trkpt>
      <trkpt lat="43.042733" lon="-4.693317">
        <ele>2010.0</ele>
        <time>2013-09-04T13:31:46Z</time>
      </trkpt>
      <trkpt lat="43.042733" lon="-4.693217">
        <ele>2010.0</ele>
        <time>2013-09-04T13:31:47Z</time>
      </trkpt>
      <trkpt lat="43.042750" lon="-4.693117">
        <ele>2011.0</ele>
        <time>2013-09-04T13:31:48Z</time>
      </trkpt>
      <trkpt lat="43.042767" lon="-4.693017">
        <ele>2011.0</ele>
        <time>2013-09-04T13:31:49Z</time>
      </trkpt>
      <trkpt lat="43.042783" lon="-4.692917">
        <ele>2012.0</ele>
        <time>2013-09-04T13:31:50Z</time>
      </trkpt>
      <trkpt lat="43.042783" lon="-4.692800">
        <ele>2013.0</ele>
        <time>2013-09-04T13:31:51Z</time>
      </trkpt>
      <trkpt lat="43.042800" lon="-4.692717">
        <ele>2015.0</ele>
        <time>2013-09-04T13:31:52Z</time>
      </trkpt>
      <trkpt lat="43.042800" lon="-4.692633">
        <ele>2017.0</ele>
        <time>2013-09-04T13:31:53Z</time>
      </trkpt>
      <trkpt lat="43.042817" lon="-4.692567">
        <ele>2019.0</ele>
        <time>2013-09-04T13:31:54Z</time>
      </trkpt>
      <trkpt lat="43.042833" lon="-4.692500">
        <ele>2020.0</ele>
        <time>2013-09-04T13:31:55Z</time>
      </trkpt>
      <trkpt lat="43.042850" lon="-4.692417">
        <ele>2020.0</ele>
        <time>2013-09-04T13:31:56Z</time>
      </trkpt>
      <trkpt lat="43.042867" lon="-4.692333">
        <ele>2020.0</ele>
        <time>2013-09-04T13:31:57Z</time>
      </trkpt>
      <trkpt lat="43.042900" lon="-4.692250">
        <ele>2020.0</ele>
        <time>2013-09-04T13:31:58Z</time>
      </trkpt>
      <trkpt lat="43.042917" lon="-4.692167">
        <ele>2020.0</ele>
        <time>2013-09-04T13:31:59Z</time>
      </trkpt>
      <trkpt lat="43.042933" lon="-4.692083">
        <ele>2021.0</ele>
        <time>2013-09-04T13:32:00Z</time>
      </trkpt>
      <trkpt lat="43.042933" lon="-4.691983">
        <ele>2021.0</ele>
        <time>2013-09-04T13:32:01Z</time>
      </trkpt>
      <trkpt lat="43.042933" lon="-4.691900">
        <ele>2020.0</ele>
        <time>2013-09-04T13:32:02Z</time>
      </trkpt>
      <trkpt lat="43.042933" lon="-4.691800">
        <ele>2020.0</ele>
        <time>2013-09-04T13:32:03Z</time>
      </trkpt>
      <trkpt lat="43.042933" lon="-4.691700">
        <ele>2021.0</ele>
        <time>2013-09-04T13:32:04Z</time>
      </trkpt>
      <trkpt lat="43.042917" lon="-4.691617">
        <ele>2022.0</ele>
        <time>2013-09-04T13:32:05Z</time>
      </trkpt>
      <trkpt lat="43.042917" lon="-4.691533">
        <ele>2023.0</ele>
        <time>2013-09-04T13:32:06Z</time>
      </trkpt>
      <trkpt lat="43.042900" lon="-4.691467">
        <ele>2024.0</ele>
        <time>2013-09-04T13:32:07Z</time>
      </trkpt>
      <trkpt lat="43.042883" lon="-4.691383">
        <ele>2024.0</ele>
        <time>2013-09-04T13:32:08Z</time>
      </trkpt>
      <trkpt lat="43.042850" lon="-4.691300">
        <ele>2025.0</ele>
        <time>2013-09-04T13:32:09Z</time>
      </trkpt>
      <trkpt lat="43.042833" lon="-4.691200">
        <ele>2025.0</ele>
        <time>2013-09-04T13:32:10Z</time>
      </trkpt>
      <trkpt lat="43.042833" lon="-4.691117">
        <ele>2027.0</ele>
        <time>2013-09-04T13:32:11Z</time>
      </trkpt>
      <trkpt lat="43.042833" lon="-4.691050">
        <ele>2030.0</ele>
        <time>2013-09-04T13:32:12Z</time>
      </trkpt>
      <trkpt lat="43.042867" lon="-4.691000">
        <ele>2032.0</ele>
        <time>2013-09-04T13:32:13Z</time>
      </trkpt>
      <trkpt lat="43.042883" lon="-4.690950">
        <ele>2034.0</ele>
        <time>2013-09-04T13:32:14Z</time>
      </trkpt>
      <trkpt lat="43.042917" lon="-4.690917">
        <ele>2036.0</ele>
        <time>2013-09-04T13:32:15Z</time>
      </trkpt>
      <trkpt lat="43.042950" lon="-4.690867">
        <ele>2038.0</ele>
        <time>2013-09-04T13:32:16Z</time>
      </trkpt>
      <trkpt lat="43.042967" lon="-4.690833">
        <ele>2041.0</ele>
        <time>2013-09-04T13:32:17Z</time>
      </trkpt>
      <trkpt lat="43.042983" lon="-4.690817">
        <ele>2043.0</ele>
        <time>2013-09-04T13:32:18Z</time>
      </trkpt>
      <trkpt lat="43.043017" lon="-4.690800">
        <ele>2044.0</ele>
        <time>2013-09-04T13:32:19Z</time>
      </trkpt>
      <trkpt lat="43.043033" lon="-4.690783">
        <ele>2045.0</ele>
        <time>2013-09-04T13:32:20Z</time>
      </trkpt>
      <trkpt lat="43.043083" lon="-4.690783">
        <ele>2047.0</ele>
        <time>2013-09-04T13:32:21Z</time>
      </trkpt>
      <trkpt lat="43.043117" lon="-4.690800">
        <ele>2047.0</ele>
        <time>2013-09-04T13:32:22Z</time>
      </trkpt>
      <trkpt lat="43.043150" lon="-4.690850">
        <ele>2047.0</ele>
        <time>2013-09-04T13:32:23Z</time>
      </trkpt>
      <trkpt lat="43.043167" lon="-4.690933">
        <ele>2045.0</ele>
        <time>2013-09-04T13:32:24Z</time>
      </trkpt>
      <trkpt lat="43.043200" lon="-4.691050">
        <ele>2044.0</ele>
        <time>2013-09-04T13:32:25Z</time>
      </trkpt>
      <trkpt lat="43.043233" lon="-4.691183">
        <ele>2043.0</ele>
        <time>2013-09-04T13:32:26Z</time>
      </trkpt>
      <trkpt lat="43.043233" lon="-4.691350">
        <ele>2044.0</ele>
        <time>2013-09-04T13:32:27Z</time>
      </trkpt>
      <trkpt lat="43.043183" lon="-4.691517">
        <ele>2044.0</ele>
        <time>2013-09-04T13:32:28Z</time>
      </trkpt>
      <trkpt lat="43.043117" lon="-4.691667">
        <ele>2044.0</ele>
        <time>2013-09-04T13:32:29Z</time>
      </trkpt>
      <trkpt lat="43.043017" lon="-4.691767">
        <ele>2046.0</ele>
        <time>2013-09-04T13:32:30Z</time>
      </trkpt>
      <trkpt lat="43.042917" lon="-4.691817">
        <ele>2047.0</ele>
        <time>2013-09-04T13:32:31Z</time>
      </trkpt>
      <trkpt lat="43.042800" lon="-4.691817">
        <ele>2049.0</ele>
        <time>2013-09-04T13:32:32Z</time>
      </trkpt>
      <trkpt lat="43.042717" lon="-4.691767">
        <ele>2050.0</ele>
        <time>2013-09-04T13:32:33Z</time>
      </trkpt>
      <trkpt lat="43.042633" lon="-4.691700">
        <ele>2052.0</ele>
        <time>2013-09-04T13:32:34Z</time>
      </trkpt>
      <trkpt lat="43.042567" lon="-4.691650">
        <ele>2055.0</ele>
        <time>2013-09-04T13:32:35Z</time>
      </trkpt>
      <trkpt lat="43.042517" lon="-4.691600">
        <ele>2057.0</ele>
        <time>2013-09-04T13:32:36Z</time>
      </trkpt>
      <trkpt lat="43.042467" lon="-4.691533">
        <ele>2058.0</ele>
        <time>2013-09-04T13:32:37Z</time>
      </trkpt>
      <trkpt lat="43.042433" lon="-4.691450">
        <ele>2058.0</ele>
        <time>2013-09-04T13:32:38Z</time>
      </trkpt>
      <trkpt lat="43.042433" lon="-4.691350">
        <ele>2058.0</ele>
        <time>2013-09-04T13:32:39Z</time>
      </trkpt>
      <trkpt lat="43.042467" lon="-4.691233">
        <ele>2059.0</ele>
        <time>2013-09-04T13:32:40Z</time>
      </trkpt>
      <trkpt lat="43.042517" lon="-4.691167">
        <ele>2063.0</ele>
        <time>2013-09-04T13:32:41Z</time>
      </trkpt>
      <trkpt lat="43.042583" lon="-4.691167">
        <ele>2067.0</ele>
        <time>2013-09-04T13:32:42Z</time>
      </trkpt>
      <trkpt lat="43.042617" lon="-4.691217">
        <ele>2071.0</ele>
        <time>2013-09-04T13:32:43Z</time>
      </trkpt>
      <trkpt lat="43.042650" lon="-4.691300">
        <ele>2072.0</ele>
        <time>2013-09-04T13:32:44Z</time>
      </trkpt>
      <trkpt lat="43.042667" lon="-4.691400">
        <ele>2072.0</ele>
        <time>2013-09-04T13:32:45Z</time>
      </trkpt>
      <trkpt lat="43.042683" lon="-4.691517">
        <ele>2074.0</ele>
        <time>2013-09-04T13:32:46Z</time>
      </trkpt>
      <trkpt lat="43.042683" lon="-4.691633">
        <ele>2075.0</ele>
        <time>2013-09-04T13:32:47Z</time>
      </trkpt>
      <trkpt lat="43.042700" lon="-4.691783">
        <ele>2076.0</ele>
        <time>2013-09-04T13:32:48Z</time>
      </trkpt>
      <trkpt lat="43.042667" lon="-4.691917">
        <ele>2078.0</ele>
        <time>2013-09-04T13:32:49Z</time>
      </trkpt>
      <trkpt lat="43.042617" lon="-4.692050">
        <ele>2081.0</ele>
        <time>2013-09-04T13:32:50Z</time>
      </trkpt>
      <trkpt lat="43.042550" lon="-4.692133">
        <ele>2084.0</ele>
        <time>2013-09-04T13:32:51Z</time>
      </trkpt>
      <trkpt lat="43.042450" lon="-4.692183">
        <ele>2086.0</ele>
        <time>2013-09-04T13:32:52Z</time>
      </trkpt>
      <trkpt lat="43.042333" lon="-4.692183">
        <ele>2087.0</ele>
        <time>2013-09-04T13:32:53Z</time>
      </trkpt>
      <trkpt lat="43.042217" lon="-4.692150">
        <ele>2089.0</ele>
        <time>2013-09-04T13:32:54Z</time>
      </trkpt>
      <trkpt lat="43.042133" lon="-4.692100">
        <ele>2093.0</ele>
        <time>2013-09-04T13:32:55Z</time>
      </trkpt>
      <trkpt lat="43.042050" lon="-4.692050">
        <ele>2095.0</ele>
        <time>2013-09-04T13:32:56Z</time>
      </trkpt>
      <trkpt lat="43.042000" lon="-4.692017">
        <ele>2097.0</ele>
        <time>2013-09-04T13:32:57Z</time>
      </trkpt>
      <trkpt lat="43.041933" lon="-4.691950">
        <ele>2099.0</ele>
        <time>2013-09-04T13:32:58Z</time>
      </trkpt>
      <trkpt lat="43.041883" lon="-4.691867">
        <ele>2099.0</ele>
        <time>2013-09-04T13:32:59Z</time>
      </trkpt>
      <trkpt lat="43.041867" lon="-4.691767">
        <ele>2099.0</ele>
        <time>2013-09-04T13:33:00Z</time>
      </trkpt>
      <trkpt lat="43.041867" lon="-4.691667">
        <ele>2100.0</ele>
        <time>2013-09-04T13:33:01Z</time>
      </trkpt>
      <trkpt lat="43.041883" lon="-4.691567">
        <ele>2100.0</ele>
        <time>2013-09-04T13:33:02Z</time>
      </trkpt>
      <trkpt lat="43.041917" lon="-4.691483">
        <ele>2101.0</ele>
        <time>2013-09-04T13:33:03Z</time>
      </trkpt>
      <trkpt lat="43.041967" lon="-4.691417">
        <ele>2102.0</ele>
        <time>2013-09-04T13:33:04Z</time>
      </trkpt>
      <trkpt lat="43.042000" lon="-4.691367">
        <ele>2104.0</ele>
        <time>2013-09-04T13:33:05Z</time>
      </trkpt>
      <trkpt lat="43.042050" lon="-4.691333">
        <ele>2106.0</ele>
        <time>2013-09-04T13:33:06Z</time>
      </trkpt>
      <trkpt lat="43.042083" lon="-4.691317">
        <ele>2108.0</ele>
        <time>2013-09-04T13:33:07Z</time>
      </trkpt>
      <trkpt lat="43.042133" lon="-4.691317">
        <ele>2110.0</ele>
        <time>2013-09-04T13:33:08Z</time>
      </trkpt>
      <trkpt lat="43.042167" lon="-4.691333">
        <ele>2113.0</ele>
        <time>2013-09-04T13:33:09Z</time>
      </trkpt>
      <trkpt lat="43.042200" lon="-4.691350">
        <ele>2115.0</ele>
        <time>2013-09-04T13:33:10Z</time>
      </trkpt>
      <trkpt lat="43.042250" lon="-4.691383">
        <ele>2116.0</ele>
        <time>2013-09-04T13:33:11Z</time>
      </trkpt>
      <trkpt lat="43.042300" lon="-4.691433">
        <ele>2117.0</ele>
        <time>2013-09-04T13:33:12Z</time>
      </trkpt>
      <trkpt lat="43.042350" lon="-4.691500">
        <ele>2116.0</ele>
        <time>2013-09-04T13:33:13Z</time>
      </trkpt>
      <trkpt lat="43.042400" lon="-4.691583">
        <ele>2116.0</ele>
        <time>2013-09-04T13:33:14Z</time>
      </trkpt>
      <trkpt lat="43.042450" lon="-4.691667">
        <ele>2115.0</ele>
        <time>2013-09-04T13:33:15Z</time>
      </trkpt>
      <trkpt lat="43.042500" lon="-4.691767">
        <ele>2115.0</ele>
        <time>2013-09-04T13:33:16Z</time>
      </trkpt>
      <trkpt lat="43.042517" lon="-4.691883">
        <ele>2114.0</ele>
        <time>2013-09-04T13:33:17Z</time>
      </trkpt>
      <trkpt lat="43.042517" lon="-4.692017">
        <ele>2114.0</ele>
        <time>2013-09-04T13:33:18Z</time>
      </trkpt>
      <trkpt lat="43.042483" lon="-4.692167">
        <ele>2113.0</ele>
        <time>2013-09-04T13:33:19Z</time>
      </trkpt>
      <trkpt lat="43.042433" lon="-4.692300">
        <ele>2113.0</ele>
        <time>2013-09-04T13:33:20Z</time>
      </trkpt>
      <trkpt lat="43.042367" lon="-4.692433">
        <ele>2114.0</ele>
        <time>2013-09-04T13:33:21Z</time>
      </trkpt>
      <trkpt lat="43.042283" lon="-4.692550">
        <ele>2117.0</ele>
        <time>2013-09-04T13:33:22Z</time>
      </trkpt>
      <trkpt lat="43.042217" lon="-4.692633">
        <ele>2118.0</ele>
        <time>2013-09-04T13:33:23Z</time>
      </trkpt>
      <trkpt lat="43.042133" lon="-4.692700">
        <ele>2119.0</ele>
        <time>2013-09-04T13:33:24Z</time>
      </trkpt>
      <trkpt lat="43.042050" lon="-4.692767">
        <ele>2120.0</ele>
        <time>2013-09-04T13:33:25Z</time>
      </trkpt>
      <trkpt lat="43.041950" lon="-4.692817">
        <ele>2121.0</ele>
        <time>2013-09-04T13:33:26Z</time>
      </trkpt>
      <trkpt lat="43.041833" lon="-4.692867">
        <ele>2121.0</ele>
        <time>2013-09-04T13:33:27Z</time>
      </trkpt>
      <trkpt lat="43.041717" lon="-4.692867">
        <ele>2122.0</ele>
        <time>2013-09-04T13:33:28Z</time>
      </trkpt>
      <trkpt lat="43.041617" lon="-4.692817">
        <ele>2123.0</ele>
        <time>2013-09-04T13:33:29Z</time>
      </trkpt>
      <trkpt lat="43.041517" lon="-4.692750">
        <ele>2123.0</ele>
        <time>2013-09-04T13:33:30Z</time>
      </trkpt>
      <trkpt lat="43.041450" lon="-4.692650">
        <ele>2123.0</ele>
        <time>2013-09-04T13:33:31Z</time>
      </trkpt>
      <trkpt lat="43.041400" lon="-4.692533">
        <ele>2124.0</ele>
        <time>2013-09-04T13:33:32Z</time>
      </trkpt>
      <trkpt lat="43.041350" lon="-4.692417">
        <ele>2125.0</ele>
        <time>2013-09-04T13:33:33Z</time>
      </trkpt>
      <trkpt lat="43.041300" lon="-4.692300">
        <ele>2126.0</ele>
        <time>2013-09-04T13:33:34Z</time>
      </trkpt>
      <trkpt lat="43.041250" lon="-4.692217">
        <ele>2129.0</ele>
        <time>2013-09-04T13:33:35Z</time>
      </trkpt>
      <trkpt lat="43.041200" lon="-4.692117">
        <ele>2131.0</ele>
        <time>2013-09-04T13:33:36Z</time>
      </trkpt>
      <trkpt lat="43.041183" lon="-4.692017">
        <ele>2131.0</ele>
        <time>2013-09-04T13:33:37Z</time>
      </trkpt>
      <trkpt lat="43.041150" lon="-4.691900">
        <ele>2130.0</ele>
        <time>2013-09-04T13:33:38Z</time>
      </trkpt>
      <trkpt lat="43.041133" lon="-4.691767">
        <ele>2131.0</ele>
        <time>2013-09-04T13:33:39Z</time>
      </trkpt>
      <trkpt lat="43.041100" lon="-4.691650">
        <ele>2133.0</ele>
        <time>2013-09-04T13:33:40Z</time>
      </trkpt>
      <trkpt lat="43.041050" lon="-4.691517">
        <ele>2135.0</ele>
        <time>2013-09-04T13:33:41Z</time>
      </trkpt>
      <trkpt lat="43.041000" lon="-4.691417">
        <ele>2137.0</ele>
        <time>2013-09-04T13:33:42Z</time>
      </trkpt>
      <trkpt lat="43.040967" lon="-4.691317">
        <ele>2139.0</ele>
        <time>2013-09-04T13:33:43Z</time>
      </trkpt>
      <trkpt lat="43.040917" lon="-4.691200">
        <ele>2142.0</ele>
        <time>2013-09-04T13:33:44Z</time>
      </trkpt>
      <trkpt lat="43.040850" lon="-4.691100">
        <ele>2145.0</ele>
        <time>2013-09-04T13:33:45Z</time>
      </trkpt>
      <trkpt lat="43.040800" lon="-4.691000">
        <ele>2148.0</ele>
        <time>2013-09-04T13:33:46Z</time>
      </trkpt>
      <trkpt lat="43.040733" lon="-4.690900">
        <ele>2152.0</ele>
        <time>2013-09-04T13:33:47Z</time>
      </trkpt>
      <trkpt lat="43.040683" lon="-4.690800">
        <ele>2155.0</ele>
        <time>2013-09-04T13:33:48Z</time>
      </trkpt>
      <trkpt lat="43.040633" lon="-4.690700">
        <ele>2159.0</ele>
        <time>2013-09-04T13:33:49Z</time>
      </trkpt>
      <trkpt lat="43.040617" lon="-4.690583">
        <ele>2162.0</ele>
        <time>2013-09-04T13:33:50Z</time>
      </trkpt>
      <trkpt lat="43.040600" lon="-4.690483">
        <ele>2165.0</ele>
        <time>2013-09-04T13:33:51Z</time>
      </trkpt>
      <trkpt lat="43.040600" lon="-4.690383">
        <ele>2168.0</ele>
        <time>2013-09-04T13:33:52Z</time>
      </trkpt>
      <trkpt lat="43.040600" lon="-4.690267">
        <ele>2170.0</ele>
        <time>2013-09-04T13:33:53Z</time>
      </trkpt>
      <trkpt lat="43.040617" lon="-4.690167">
        <ele>2172.0</ele>
        <time>2013-09-04T13:33:54Z</time>
      </trkpt>
      <trkpt lat="43.040633" lon="-4.690083">
        <ele>2176.0</ele>
        <time>2013-09-04T13:33:55Z</time>
      </trkpt>
      <trkpt lat="43.040650" lon="-4.690017">
        <ele>2179.0</ele>
        <time>2013-09-04T13:33:56Z</time>
      </trkpt>
      <trkpt lat="43.040667" lon="-4.689967">
        <ele>2180.0</ele>
        <time>2013-09-04T13:33:57Z</time>
      </trkpt>
      <trkpt lat="43.040700" lon="-4.689933">
        <ele>2181.0</ele>
        <time>2013-09-04T13:33:58Z</time>
      </trkpt>
      <trkpt lat="43.040750" lon="-4.689883">
        <ele>2181.0</ele>
        <time>2013-09-04T13:33:59Z</time>
      </trkpt>
      <trkpt lat="43.040817" lon="-4.689833">
        <ele>2183.0</ele>
        <time>2013-09-04T13:34:00Z</time>
      </trkpt>
      <trkpt lat="43.040867" lon="-4.689800">
        <ele>2186.0</ele>
        <time>2013-09-04T13:34:01Z</time>
      </trkpt>
      <trkpt lat="43.040933" lon="-4.689833">
        <ele>2188.0</ele>
        <time>2013-09-04T13:34:02Z</time>
      </trkpt>
      <trkpt lat="43.040983" lon="-4.689883">
        <ele>2188.0</ele>
        <time>2013-09-04T13:34:03Z</time>
      </trkpt>
      <trkpt lat="43.041017" lon="-4.689983">
        <ele>2188.0</ele>
        <time>2013-09-04T13:34:04Z</time>
      </trkpt>
      <trkpt lat="43.041067" lon="-4.690083">
        <ele>2187.0</ele>
        <time>2013-09-04T13:34:05Z</time>
      </trkpt>
      <trkpt lat="43.041117" lon="-4.690183">
        <ele>2187.0</ele>
        <time>2013-09-04T13:34:06Z</time>
      </trkpt>
      <trkpt lat="43.041167" lon="-4.690283">
        <ele>2187.0</ele>
        <time>2013-09-04T13:34:07Z</time>
      </trkpt>
      <trkpt lat="43.041217" lon="-4.690400">
        <ele>2187.0</ele>
        <time>2013-09-04T13:34:08Z</time>
      </trkpt>
      <trkpt lat="43.041267" lon="-4.690517">
        <ele>2187.0</ele>
        <time>2013-09-04T13:34:09Z</time>
      </trkpt>
      <trkpt lat="43.041300" lon="-4.690617">
        <ele>2188.0</ele>
        <time>2013-09-04T13:34:10Z</time>
      </trkpt>
      <trkpt lat="43.041317" lon="-4.690733">
        <ele>2188.0</ele>
        <time>2013-09-04T13:34:11Z</time>
      </trkpt>
      <trkpt lat="43.041333" lon="-4.690817">
        <ele>2189.0</ele>
        <time>2013-09-04T13:34:12Z</time>
      </trkpt>
      <trkpt lat="43.041350" lon="-4.690917">
        <ele>2189.0</ele>
        <time>2013-09-04T13:34:13Z</time>
      </trkpt>
      <trkpt lat="43.041367" lon="-4.691017">
        <ele>2189.0</ele>
        <time>2013-09-04T13:34:14Z</time>
      </trkpt>
      <trkpt lat="43.041367" lon="-4.691117">
        <ele>2189.0</ele>
        <time>2013-09-04T13:34:15Z</time>
      </trkpt>
      <trkpt lat="43.041383" lon="-4.691233">
        <ele>2188.0</ele>
        <time>2013-09-04T13:34:16Z</time>
      </trkpt>
      <trkpt lat="43.041383" lon="-4.691350">
        <ele>2187.0</ele>
        <time>2013-09-04T13:34:17Z</time>
      </trkpt>
      <trkpt lat="43.041383" lon="-4.691483">
        <ele>2186.0</ele>
        <time>2013-09-04T13:34:18Z</time>
      </trkpt>
      <trkpt lat="43.041350" lon="-4.691617">
        <ele>2185.0</ele>
        <time>2013-09-04T13:34:19Z</time>
      </trkpt>
      <trkpt lat="43.041300" lon="-4.691750">
        <ele>2185.0</ele>
        <time>2013-09-04T13:34:20Z</time>
      </trkpt>
      <trkpt lat="43.041217" lon="-4.691867">
        <ele>2184.0</ele>
        <time>2013-09-04T13:34:21Z</time>
      </trkpt>
      <trkpt lat="43.041100" lon="-4.691950">
        <ele>2185.0</ele>
        <time>2013-09-04T13:34:22Z</time>
      </trkpt>
      <trkpt lat="43.041000" lon="-4.691983">
        <ele>2187.0</ele>
        <time>2013-09-04T13:34:23Z</time>
      </trkpt>
      <trkpt lat="43.040900" lon="-4.692000">
        <ele>2189.0</ele>
        <time>2013-09-04T13:34:24Z</time>
      </trkpt>
      <trkpt lat="43.040800" lon="-4.692000">
        <ele>2193.0</ele>
        <time>2013-09-04T13:34:25Z</time>
      </trkpt>
      <trkpt lat="43.040717" lon="-4.692000">
        <ele>2197.0</ele>
        <time>2013-09-04T13:34:26Z</time>
      </trkpt>
      <trkpt lat="43.040633" lon="-4.692017">
        <ele>2201.0</ele>
        <time>2013-09-04T13:34:27Z</time>
      </trkpt>
      <trkpt lat="43.040550" lon="-4.692033">
        <ele>2204.0</ele>
        <time>2013-09-04T13:34:28Z</time>
      </trkpt>
      <trkpt lat="43.040467" lon="-4.692033">
        <ele>2206.0</ele>
        <time>2013-09-04T13:34:29Z</time>
      </trkpt>
      <trkpt lat="43.040383" lon="-4.691983">
        <ele>2209.0</ele>
        <time>2013-09-04T13:34:30Z</time>
      </trkpt>
      <trkpt lat="43.040300" lon="-4.691917">
        <ele>2211.0</ele>
        <time>2013-09-04T13:34:31Z</time>
      </trkpt>
      <trkpt lat="43.040233" lon="-4.691817">
        <ele>2213.0</ele>
        <time>2013-09-04T13:34:32Z</time>
      </trkpt>
      <trkpt lat="43.040217" lon="-4.691700">
        <ele>2215.0</ele>
        <time>2013-09-04T13:34:33Z</time>
      </trkpt>
      <trkpt lat="43.040233" lon="-4.691617">
        <ele>2219.0</ele>
        <time>2013-09-04T13:34:34Z</time>
      </trkpt>
      <trkpt lat="43.040250" lon="-4.691533">
        <ele>2222.0</ele>
        <time>2013-09-04T13:34:35Z</time>
      </trkpt>
      <trkpt lat="43.040300" lon="-4.691483">
        <ele>2225.0</ele>
        <time>2013-09-04T13:34:36Z</time>
      </trkpt>
      <trkpt lat="43.040367" lon="-4.691467">
        <ele>2229.0</ele>
        <time>2013-09-04T13:34:37Z</time>
      </trkpt>
      <trkpt lat="43.040417" lon="-4.691483">
        <ele>2233.0</ele>
        <time>2013-09-04T13:34:38Z</time>
      </trkpt>
      <trkpt lat="43.040450" lon="-4.691533">
        <ele>2239.0</ele>
        <time>2013-09-04T13:34:39Z</time>
      </trkpt>
      <trkpt lat="43.040483" lon="-4.691583">
        <ele>2243.0</ele>
        <time>2013-09-04T13:34:40Z</time>
      </trkpt>
      <trkpt lat="43.040500" lon="-4.691667">
        <ele>2246.0</ele>
        <time>2013-09-04T13:34:41Z</time>
      </trkpt>
      <trkpt lat="43.040500" lon="-4.691767">
        <ele>2246.0</ele>
        <time>2013-09-04T13:34:42Z</time>
      </trkpt>
      <trkpt lat="43.040467" lon="-4.691917">
        <ele>2247.0</ele>
        <time>2013-09-04T13:34:43Z</time>
      </trkpt>
      <trkpt lat="43.040417" lon="-4.692067">
        <ele>2248.0</ele>
        <time>2013-09-04T13:34:44Z</time>
      </trkpt>
      <trkpt lat="43.040367" lon="-4.692183">
        <ele>2252.0</ele>
        <time>2013-09-04T13:34:45Z</time>
      </trkpt>
      <trkpt lat="43.040283" lon="-4.692267">
        <ele>2256.0</ele>
        <time>2013-09-04T13:34:46Z</time>
      </trkpt>
      <trkpt lat="43.040183" lon="-4.692317">
        <ele>2260.0</ele>
        <time>2013-09-04T13:34:47Z</time>
      </trkpt>
      <trkpt lat="43.040083" lon="-4.692317">
        <ele>2263.0</ele>
        <time>2013-09-04T13:34:48Z</time>
      </trkpt>
      <trkpt lat="43.039983" lon="-4.692300">
        <ele>2267.0</ele>
        <time>2013-09-04T13:34:49Z</time>
      </trkpt>
      <trkpt lat="43.039900" lon="-4.692283">
        <ele>2271.0</ele>
        <time>2013-09-04T13:34:50Z</time>
      </trkpt>
      <trkpt lat="43.039817" lon="-4.692233">
        <ele>2274.0</ele>
        <time>2013-09-04T13:34:51Z</time>
      </trkpt>
      <trkpt lat="43.039767" lon="-4.692150">
        <ele>2278.0</ele>
        <time>2013-09-04T13:34:52Z</time>
      </trkpt>
      <trkpt lat="43.039750" lon="-4.692050">
        <ele>2281.0</ele>
        <time>2013-09-04T13:34:53Z</time>
      </trkpt>
      <trkpt lat="43.039750" lon="-4.691967">
        <ele>2283.0</ele>
        <time>2013-09-04T13:34:54Z</time>
      </trkpt>
      <trkpt lat="43.039783" lon="-4.691883">
        <ele>2286.0</ele>
        <time>2013-09-04T13:34:55Z</time>
      </trkpt>
      <trkpt lat="43.039817" lon="-4.691800">
        <ele>2289.0</ele>
        <time>2013-09-04T13:34:56Z</time>
      </trkpt>
      <trkpt lat="43.039850" lon="-4.691733">
        <ele>2292.0</ele>
        <time>2013-09-04T13:34:57Z</time>
      </trkpt>
      <trkpt lat="43.039883" lon="-4.691683">
        <ele>2296.0</ele>
        <time>2013-09-04T13:34:58Z</time>
      </trkpt>
      <trkpt lat="43.039933" lon="-4.691667">
        <ele>2301.0</ele>
        <time>2013-09-04T13:34:59Z</time>
      </trkpt>
      <trkpt lat="43.039983" lon="-4.691700">
        <ele>2305.0</ele>
        <time>2013-09-04T13:35:00Z</time>
      </trkpt>
      <trkpt lat="43.040017" lon="-4.691783">
        <ele>2309.0</ele>
        <time>2013-09-04T13:35:01Z</time>
      </trkpt>
      <trkpt lat="43.040050" lon="-4.691883">
        <ele>2311.0</ele>
        <time>2013-09-04T13:35:02Z</time>
      </trkpt>
      <trkpt lat="43.040050" lon="-4.692000">
        <ele>2312.0</ele>
        <time>2013-09-04T13:35:03Z</time>
      </trkpt>
      <trkpt lat="43.040050" lon="-4.692133">
        <ele>2315.0</ele>
        <time>2013-09-04T13:35:04Z</time>
      </trkpt>
      <trkpt lat="43.040000" lon="-4.692267">
        <ele>2318.0</ele>
        <time>2013-09-04T13:35:05Z</time>
      </trkpt>
      <trkpt lat="43.039950" lon="-4.692400">
        <ele>2320.0</ele>
        <time>2013-09-04T13:35:06Z</time>
      </trkpt>
      <trkpt lat="43.039867" lon="-4.692500">
        <ele>2324.0</ele>
        <time>2013-09-04T13:35:07Z</time>
      </trkpt>
      <trkpt lat="43.039767" lon="-4.692583">
        <ele>2330.0</ele>
        <time>2013-09-04T13:35:08Z</time>
      </trkpt>
      <trkpt lat="43.039683" lon="-4.692633">
        <ele>2335.0</ele>
        <time>2013-09-04T13:35:09Z</time>
      </trkpt>
      <trkpt lat="43.039600" lon="-4.692650">
        <ele>2339.0</ele>
        <time>2013-09-04T13:35:10Z</time>
      </trkpt>
      <trkpt lat="43.039517" lon="-4.692650">
        <ele>2343.0</ele>
        <time>2013-09-04T13:35:11Z</time>
      </trkpt>
      <trkpt lat="43.039417" lon="-4.692633">
        <ele>2345.0</ele>
        <time>2013-09-04T13:35:12Z</time>
      </trkpt>
      <trkpt lat="43.039333" lon="-4.692567">
        <ele>2348.0</ele>
        <time>2013-09-04T13:35:13Z</time>
      </trkpt>
      <trkpt lat="43.039267" lon="-4.692467">
        <ele>2350.0</ele>
        <time>2013-09-04T13:35:14Z</time>
      </trkpt>
      <trkpt lat="43.039233" lon="-4.692367">
        <ele>2353.0</ele>
        <time>2013-09-04T13:35:15Z</time>
      </trkpt>
      <trkpt lat="43.039233" lon="-4.692267">
        <ele>2355.0</ele>
        <time>2013-09-04T13:35:16Z</time>
      </trkpt>
      <trkpt lat="43.039250" lon="-4.692200">
        <ele>2357.0</ele>
        <time>2013-09-04T13:35:17Z</time>
      </trkpt>
      <trkpt lat="43.039300" lon="-4.692133">
        <ele>2357.0</ele>
        <time>2013-09-04T13:35:18Z</time>
      </trkpt>
      <trkpt lat="43.039350" lon="-4.692067">
        <ele>2358.0</ele>
        <time>2013-09-04T13:35:19Z</time>
      </trkpt>
      <trkpt lat="43.039400" lon="-4.692017">
        <ele>2359.0</ele>
        <time>2013-09-04T13:35:20Z</time>
      </trkpt>
      <trkpt lat="43.039450" lon="-4.691950">
        <ele>2359.0</ele>
        <time>2013-09-04T13:35:21Z</time>
      </trkpt>
      <trkpt lat="43.039517" lon="-4.691933">
        <ele>2362.0</ele>
        <time>2013-09-04T13:35:22Z</time>
      </trkpt>
      <trkpt lat="43.039583" lon="-4.691950">
        <ele>2366.0</ele>
        <time>2013-09-04T13:35:23Z</time>
      </trkpt>
      <trkpt lat="43.039617" lon="-4.692033">
        <ele>2370.0</ele>
        <time>2013-09-04T13:35:24Z</time>
      </trkpt>
      <trkpt lat="43.039650" lon="-4.692133">
        <ele>2373.0</ele>
        <time>2013-09-04T13:35:25Z</time>
      </trkpt>
      <trkpt lat="43.039650" lon="-4.692250">
        <ele>2376.0</ele>
        <time>2013-09-04T13:35:26Z</time>
      </trkpt>
      <trkpt lat="43.039650" lon="-4.692350">
        <ele>2379.0</ele>
        <time>2013-09-04T13:35:27Z</time>
      </trkpt>
      <trkpt lat="43.039667" lon="-4.692450">
        <ele>2381.0</ele>
        <time>2013-09-04T13:35:28Z</time>
      </trkpt>
      <trkpt lat="43.039667" lon="-4.692567">
        <ele>2384.0</ele>
        <time>2013-09-04T13:35:29Z</time>
      </trkpt>
      <trkpt lat="43.039667" lon="-4.692700">
        <ele>2386.0</ele>
        <time>2013-09-04T13:35:30Z</time>
      </trkpt>
      <trkpt lat="43.039617" lon="-4.692833">
        <ele>2389.0</ele>
        <time>2013-09-04T13:35:31Z</time>
      </trkpt>
      <trkpt lat="43.039550" lon="-4.692967">
        <ele>2392.0</ele>
        <time>2013-09-04T13:35:32Z</time>
      </trkpt>
      <trkpt lat="43.039483" lon="-4.693050">
        <ele>2396.0</ele>
        <time>2013-09-04T13:35:33Z</time>
      </trkpt>
      <trkpt lat="43.039400" lon="-4.693117">
        <ele>2400.0</ele>
        <time>2013-09-04T13:35:34Z</time>
      </trkpt>
      <trkpt lat="43.039317" lon="-4.693167">
        <ele>2403.0</ele>
        <time>2013-09-04T13:35:35Z</time>
      </trkpt>
      <trkpt lat="43.039217" lon="-4.693217">
        <ele>2406.0</ele>
        <time>2013-09-04T13:35:36Z</time>
      </trkpt>
      <trkpt lat="43.039133" lon="-4.693250">
        <ele>2409.0</ele>
        <time>2013-09-04T13:35:37Z</time>
      </trkpt>
      <trkpt lat="43.039050" lon="-4.693267">
        <ele>2412.0</ele>
        <time>2013-09-04T13:35:38Z</time>
      </trkpt>
      <trkpt lat="43.038967" lon="-4.693267">
        <ele>2415.0</ele>
        <time>2013-09-04T13:35:39Z</time>
      </trkpt>
      <trkpt lat="43.038900" lon="-4.693267">
        <ele>2418.0</ele>
        <time>2013-09-04T13:35:40Z</time>
      </trkpt>
      <trkpt lat="43.038833" lon="-4.693267">
        <ele>2421.0</ele>
        <time>2013-09-04T13:35:41Z</time>
      </trkpt>
      <trkpt lat="43.038767" lon="-4.693267">
        <ele>2422.0</ele>
        <time>2013-09-04T13:35:42Z</time>
      </trkpt>
      <trkpt lat="43.038700" lon="-4.693233">
        <ele>2423.0</ele>
        <time>2013-09-04T13:35:43Z</time>
      </trkpt>
      <trkpt lat="43.038633" lon="-4.693183">
        <ele>2424.0</ele>
        <time>2013-09-04T13:35:44Z</time>
      </trkpt>
      <trkpt lat="43.038583" lon="-4.693100">
        <ele>2425.0</ele>
        <time>2013-09-04T13:35:45Z</time>
      </trkpt>
      <trkpt lat="43.038533" lon="-4.693017">
        <ele>2426.0</ele>
        <time>2013-09-04T13:35:46Z</time>
      </trkpt>
      <trkpt lat="43.038500" lon="-4.692933">
        <ele>2427.0</ele>
        <time>2013-09-04T13:35:47Z</time>
      </trkpt>
      <trkpt lat="43.038483" lon="-4.692833">
        <ele>2428.0</ele>
        <time>2013-09-04T13:35:48Z</time>
      </trkpt>
      <trkpt lat="43.038500" lon="-4.692767">
        <ele>2428.0</ele>
        <time>2013-09-04T13:35:49Z</time>
      </trkpt>
      <trkpt lat="43.038550" lon="-4.692733">
        <ele>2428.0</ele>
        <time>2013-09-04T13:35:50Z</time>
      </trkpt>
      <trkpt lat="43.038617" lon="-4.692700">
        <ele>2428.0</ele>
        <time>2013-09-04T13:35:51Z</time>
      </trkpt>
      <trkpt lat="43.038667" lon="-4.692700">
        <ele>2429.0</ele>
        <time>2013-09-04T13:35:52Z</time>
      </trkpt>
      <trkpt lat="43.038717" lon="-4.692717">
        <ele>2429.0</ele>
        <time>2013-09-04T13:35:53Z</time>
      </trkpt>
      <trkpt lat="43.038783" lon="-4.692733">
        <ele>2428.0</ele>
        <time>2013-09-04T13:35:54Z</time>
      </trkpt>
      <trkpt lat="43.038850" lon="-4.692800">
        <ele>2427.0</ele>
        <time>2013-09-04T13:35:55Z</time>
      </trkpt>
      <trkpt lat="43.038900" lon="-4.692900">
        <ele>2428.0</ele>
        <time>2013-09-04T13:35:56Z</time>
      </trkpt>
      <trkpt lat="43.038917" lon="-4.693000">
        <ele>2429.0</ele>
        <time>2013-09-04T13:35:57Z</time>
      </trkpt>
      <trkpt lat="43.038883" lon="-4.693133">
        <ele>2430.0</ele>
        <time>2013-09-04T13:35:58Z</time>
      </trkpt>
      <trkpt lat="43.038833" lon="-4.693233">
        <ele>2431.0</ele>
        <time>2013-09-04T13:35:59Z</time>
      </trkpt>
      <trkpt lat="43.038783" lon="-4.693317">
        <ele>2433.0</ele>
        <time>2013-09-04T13:36:00Z</time>
      </trkpt>
      <trkpt lat="43.038733" lon="-4.693383">
        <ele>2434.0</ele>
        <time>2013-09-04T13:36:01Z</time>
      </trkpt>
      <trkpt lat="43.038667" lon="-4.693467">
        <ele>2435.0</ele>
        <time>2013-09-04T13:36:02Z</time>
      </trkpt>
      <trkpt lat="43.038600" lon="-4.693533">
        <ele>2435.0</ele>
        <time>2013-09-04T13:36:03Z</time>
      </trkpt>
      <trkpt lat="43.038517" lon="-4.693617">
        <ele>2436.0</ele>
        <time>2013-09-04T13:36:04Z</time>
      </trkpt>
      <trkpt lat="43.038417" lon="-4.693700">
        <ele>2437.0</ele>
        <time>2013-09-04T13:36:05Z</time>
      </trkpt>
      <trkpt lat="43.038333" lon="-4.693783">
        <ele>2440.0</ele>
        <time>2013-09-04T13:36:06Z</time>
      </trkpt>
      <trkpt lat="43.038250" lon="-4.693850">
        <ele>2444.0</ele>
        <time>2013-09-04T13:36:07Z</time>
      </trkpt>
      <trkpt lat="43.038183" lon="-4.693917">
        <ele>2448.0</ele>
        <time>2013-09-04T13:36:08Z</time>
      </trkpt>
      <trkpt lat="43.038117" lon="-4.693983">
        <ele>2452.0</ele>
        <time>2013-09-04T13:36:09Z</time>
      </trkpt>
      <trkpt lat="43.038067" lon="-4.694033">
        <ele>2455.0</ele>
        <time>2013-09-04T13:36:10Z</time>
      </trkpt>
      <trkpt lat="43.038000" lon="-4.694067">
        <ele>2457.0</ele>
        <time>2013-09-04T13:36:11Z</time>
      </trkpt>
      <trkpt lat="43.037933" lon="-4.694083">
        <ele>2458.0</ele>
        <time>2013-09-04T13:36:12Z</time>
      </trkpt>
      <trkpt lat="43.037850" lon="-4.694050">
        <ele>2460.0</ele>
        <time>2013-09-04T13:36:13Z</time>
      </trkpt>
      <trkpt lat="43.037800" lon="-4.694017">
        <ele>2462.0</ele>
        <time>2013-09-04T13:36:14Z</time>
      </trkpt>
      <trkpt lat="43.037783" lon="-4.693967">
        <ele>2465.0</ele>
        <time>2013-09-04T13:36:15Z</time>
      </trkpt>
      <trkpt lat="43.037767" lon="-4.693933">
        <ele>2467.0</ele>
        <time>2013-09-04T13:36:16Z</time>
      </trkpt>
      <trkpt lat="43.037800" lon="-4.693883">
        <ele>2467.0</ele>
        <time>2013-09-04T13:36:17Z</time>
      </trkpt>
      <trkpt lat="43.037817" lon="-4.693833">
        <ele>2468.0</ele>
        <time>2013-09-04T13:36:18Z</time>
      </trkpt>
      <trkpt lat="43.037867" lon="-4.693767">
        <ele>2470.0</ele>
        <time>2013-09-04T13:36:19Z</time>
      </trkpt>
      <trkpt lat="43.037900" lon="-4.693717">
        <ele>2472.0</ele>
        <time>2013-09-04T13:36:20Z</time>
      </trkpt>
      <trkpt lat="43.037933" lon="-4.693683">
        <ele>2474.0</ele>
        <time>2013-09-04T13:36:21Z</time>
      </trkpt>
      <trkpt lat="43.037950" lon="-4.693633">
        <ele>2476.0</ele>
        <time>2013-09-04T13:36:22Z</time>
      </trkpt>
      <trkpt lat="43.038000" lon="-4.693600">
        <ele>2479.0</ele>
        <time>2013-09-04T13:36:23Z</time>
      </trkpt>
      <trkpt lat="43.038033" lon="-4.693550">
        <ele>2481.0</ele>
        <time>2013-09-04T13:36:24Z</time>
      </trkpt>
      <trkpt lat="43.038083" lon="-4.693533">
        <ele>2483.0</ele>
        <time>2013-09-04T13:36:25Z</time>
      </trkpt>
      <trkpt lat="43.038117" lon="-4.693550">
        <ele>2483.0</ele>
        <time>2013-09-04T13:36:26Z</time>
      </trkpt>
      <trkpt lat="43.038183" lon="-4.693567">
        <ele>2483.0</ele>
        <time>2013-09-04T13:36:27Z</time>
      </trkpt>
      <trkpt lat="43.038250" lon="-4.693617">
        <ele>2484.0</ele>
        <time>2013-09-04T13:36:28Z</time>
      </trkpt>
      <trkpt lat="43.038317" lon="-4.693667">
        <ele>2487.0</ele>
        <time>2013-09-04T13:36:29Z</time>
      </trkpt>
      <trkpt lat="43.038367" lon="-4.693717">
        <ele>2491.0</ele>
        <time>2013-09-04T13:36:30Z</time>
      </trkpt>
      <trkpt lat="43.038400" lon="-4.693767">
        <ele>2494.0</ele>
        <time>2013-09-04T13:36:31Z</time>
      </trkpt>
      <trkpt lat="43.038417" lon="-4.693833">
        <ele>2497.0</ele>
        <time>2013-09-04T13:36:32Z</time>
      </trkpt>
      <trkpt lat="43.038467" lon="-4.693900">
        <ele>2498.0</ele>
        <time>2013-09-04T13:36:33Z</time>
      </trkpt>
      <trkpt lat="43.038517" lon="-4.693967">
        <ele>2500.0</ele>
        <time>2013-09-04T13:36:34Z</time>
      </trkpt>
      <trkpt lat="43.038567" lon="-4.694033">
        <ele>2502.0</ele>
        <time>2013-09-04T13:36:35Z</time>
      </trkpt>
      <trkpt lat="43.038600" lon="-4.694100">
        <ele>2505.0</ele>
        <time>2013-09-04T13:36:36Z</time>
      </trkpt>
      <trkpt lat="43.038617" lon="-4.694183">
        <ele>2507.0</ele>
        <time>2013-09-04T13:36:37Z</time>
      </trkpt>
      <trkpt lat="43.038650" lon="-4.694250">
        <ele>2509.0</ele>
        <time>2013-09-04T13:36:38Z</time>
      </trkpt>
      <trkpt lat="43.038667" lon="-4.694350">
        <ele>2510.0</ele>
        <time>2013-09-04T13:36:39Z</time>
      </trkpt>
      <trkpt lat="43.038700" lon="-4.694450">
        <ele>2511.0</ele>
        <time>2013-09-04T13:36:40Z</time>
      </trkpt>
      <trkpt lat="43.038717" lon="-4.694583">
        <ele>2512.0</ele>
        <time>2013-09-04T13:36:41Z</time>
      </trkpt>
      <trkpt lat="43.038733" lon="-4.694700">
        <ele>2515.0</ele>
        <time>2013-09-04T13:36:42Z</time>
      </trkpt>
      <trkpt lat="43.038700" lon="-4.694833">
        <ele>2517.0</ele>
        <time>2013-09-04T13:36:43Z</time>
      </trkpt>
      <trkpt lat="43.038667" lon="-4.694950">
        <ele>2518.0</ele>
        <time>2013-09-04T13:36:44Z</time>
      </trkpt>
      <trkpt lat="43.038600" lon="-4.695067">
        <ele>2519.0</ele>
        <time>2013-09-04T13:36:45Z</time>
      </trkpt>
      <trkpt lat="43.038550" lon="-4.695167">
        <ele>2521.0</ele>
        <time>2013-09-04T13:36:46Z</time>
      </trkpt>
      <trkpt lat="43.038483" lon="-4.695250">
        <ele>2524.0</ele>
        <time>2013-09-04T13:36:47Z</time>
      </trkpt>
      <trkpt lat="43.038433" lon="-4.695333">
        <ele>2526.0</ele>
        <time>2013-09-04T13:36:48Z</time>
      </trkpt>
      <trkpt lat="43.038350" lon="-4.695400">
        <ele>2528.0</ele>
        <time>2013-09-04T13:36:49Z</time>
      </trkpt>
      <trkpt lat="43.038283" lon="-4.695450">
        <ele>2530.0</ele>
        <time>2013-09-04T13:36:50Z</time>
      </trkpt>
      <trkpt lat="43.038200" lon="-4.695517">
        <ele>2533.0</ele>
        <time>2013-09-04T13:36:51Z</time>
      </trkpt>
      <trkpt lat="43.038133" lon="-4.695533">
        <ele>2536.0</ele>
        <time>2013-09-04T13:36:52Z</time>
      </trkpt>
      <trkpt lat="43.038067" lon="-4.695550">
        <ele>2539.0</ele>
        <time>2013-09-04T13:36:53Z</time>
      </trkpt>
      <trkpt lat="43.038000" lon="-4.695533">
        <ele>2542.0</ele>
        <time>2013-09-04T13:36:54Z</time>
      </trkpt>
      <trkpt lat="43.037933" lon="-4.695500">
        <ele>2545.0</ele>
        <time>2013-09-04T13:36:55Z</time>
      </trkpt>
      <trkpt lat="43.037867" lon="-4.695467">
        <ele>2548.0</ele>
        <time>2013-09-04T13:36:56Z</time>
      </trkpt>
      <trkpt lat="43.037800" lon="-4.695433">
        <ele>2551.0</ele>
        <time>2013-09-04T13:36:57Z</time>
      </trkpt>
      <trkpt lat="43.037767" lon="-4.695383">
        <ele>2554.0</ele>
        <time>2013-09-04T13:36:58Z</time>
      </trkpt>
      <trkpt lat="43.037733" lon="-4.695350">
        <ele>2558.0</ele>
        <time>2013-09-04T13:36:59Z</time>
      </trkpt>
      <trkpt lat="43.037717" lon="-4.695317">
        <ele>2561.0</ele>
        <time>2013-09-04T13:37:00Z</time>
      </trkpt>
      <trkpt lat="43.037683" lon="-4.695267">
        <ele>2565.0</ele>
        <time>2013-09-04T13:37:01Z</time>
      </trkpt>
      <trkpt lat="43.037667" lon="-4.695233">
        <ele>2568.0</ele>
        <time>2013-09-04T13:37:02Z</time>
      </trkpt>
      <trkpt lat="43.037650" lon="-4.695183">
        <ele>2571.0</ele>
        <time>2013-09-04T13:37:03Z</time>
      </trkpt>
      <trkpt lat="43.037650" lon="-4.695133">
        <ele>2574.0</ele>
        <time>2013-09-04T13:37:04Z</time>
      </trkpt>
      <trkpt lat="43.037650" lon="-4.695100">
        <ele>2577.0</ele>
        <time>2013-09-04T13:37:05Z</time>
      </trkpt>
      <trkpt lat="43.037667" lon="-4.695050">
        <ele>2580.0</ele>
        <time>2013-09-04T13:37:06Z</time>
      </trkpt>
      <trkpt lat="43.037683" lon="-4.695017">
        <ele>2583.0</ele>
        <time>2013-09-04T13:37:07Z</time>
      </trkpt>
      <trkpt lat="43.037700" lon="-4.694983">
        <ele>2584.0</ele>
        <time>2013-09-04T13:37:08Z</time>
      </trkpt>
      <trkpt lat="43.037750" lon="-4.694950">
        <ele>2585.0</ele>
        <time>2013-09-04T13:37:09Z</time>
      </trkpt>
      <trkpt lat="43.037800" lon="-4.694933">
        <ele>2586.0</ele>
        <time>2013-09-04T13:37:10Z</time>
      </trkpt>
      <trkpt lat="43.037867" lon="-4.694950">
        <ele>2587.0</ele>
        <time>2013-09-04T13:37:11Z</time>
      </trkpt>
      <trkpt lat="43.037950" lon="-4.695000">
        <ele>2590.0</ele>
        <time>2013-09-04T13:37:12Z</time>
      </trkpt>
      <trkpt lat="43.038017" lon="-4.695083">
        <ele>2593.0</ele>
        <time>2013-09-04T13:37:13Z</time>
      </trkpt>
      <trkpt lat="43.038050" lon="-4.695183">
        <ele>2597.0</ele>
        <time>2013-09-04T13:37:14Z</time>
      </trkpt>
      <trkpt lat="43.038083" lon="-4.695283">
        <ele>2601.0</ele>
        <time>2013-09-04T13:37:15Z</time>
      </trkpt>
      <trkpt lat="43.038100" lon="-4.695383">
        <ele>2604.0</ele>
        <time>2013-09-04T13:37:16Z</time>
      </trkpt>
      <trkpt lat="43.038117" lon="-4.695483">
        <ele>2605.0</ele>
        <time>2013-09-04T13:37:17Z</time>
      </trkpt>
      <trkpt lat="43.038150" lon="-4.695633">
        <ele>2605.0</ele>
        <time>2013-09-04T13:37:18Z</time>
      </trkpt>
      <trkpt lat="43.038167" lon="-4.695783">
        <ele>2606.0</ele>
        <time>2013-09-04T13:37:19Z</time>
      </trkpt>
      <trkpt lat="43.038183" lon="-4.695917">
        <ele>2608.0</ele>
        <time>2013-09-04T13:37:20Z</time>
      </trkpt>
      <trkpt lat="43.038183" lon="-4.696050">
        <ele>2611.0</ele>
        <time>2013-09-04T13:37:21Z</time>
      </trkpt>
      <trkpt lat="43.038150" lon="-4.696183">
        <ele>2613.0</ele>
        <time>2013-09-04T13:37:22Z</time>
      </trkpt>
      <trkpt lat="43.038083" lon="-4.696283">
        <ele>2614.0</ele>
        <time>2013-09-04T13:37:23Z</time>
      </trkpt>
      <trkpt lat="43.038017" lon="-4.696383">
        <ele>2615.0</ele>
        <time>2013-09-04T13:37:24Z</time>
      </trkpt>
      <trkpt lat="43.037917" lon="-4.696467">
        <ele>2616.0</ele>
        <time>2013-09-04T13:37:25Z</time>
      </trkpt>
      <trkpt lat="43.037833" lon="-4.696517">
        <ele>2618.0</ele>
        <time>2013-09-04T13:37:26Z</time>
      </trkpt>
      <trkpt lat="43.037750" lon="-4.696550">
        <ele>2620.0</ele>
        <time>2013-09-04T13:37:27Z</time>
      </trkpt>
      <trkpt lat="43.037667" lon="-4.696567">
        <ele>2622.0</ele>
        <time>2013-09-04T13:37:28Z</time>
      </trkpt>
      <trkpt lat="43.037583" lon="-4.696600">
        <ele>2625.0</ele>
        <time>2013-09-04T13:37:29Z</time>
      </trkpt>
      <trkpt lat="43.037517" lon="-4.696617">
        <ele>2627.0</ele>
        <time>2013-09-04T13:37:30Z</time>
      </trkpt>
      <trkpt lat="43.037450" lon="-4.696617">
        <ele>2630.0</ele>
        <time>2013-09-04T13:37:31Z</time>
      </trkpt>
      <trkpt lat="43.037400" lon="-4.696600">
        <ele>2632.0</ele>
        <time>2013-09-04T13:37:32Z</time>
      </trkpt>
      <trkpt lat="43.037350" lon="-4.696583">
        <ele>2635.0</ele>
        <time>2013-09-04T13:37:33Z</time>
      </trkpt>
      <trkpt lat="43.037300" lon="-4.696567">
        <ele>2638.0</ele>
        <time>2013-09-04T13:37:34Z</time>
      </trkpt>
      <trkpt lat="43.037250" lon="-4.696533">
        <ele>2641.0</ele>
        <time>2013-09-04T13:37:35Z</time>
      </trkpt>
      <trkpt lat="43.037233" lon="-4.696483">
        <ele>2643.0</ele>
        <time>2013-09-04T13:37:36Z</time>
      </trkpt>
      <trkpt lat="43.037233" lon="-4.696417">
        <ele>2646.0</ele>
        <time>2013-09-04T13:37:37Z</time>
      </trkpt>
      <trkpt lat="43.037233" lon="-4.696367">
        <ele>2650.0</ele>
        <time>2013-09-04T13:37:38Z</time>
      </trkpt>
      <trkpt lat="43.037267" lon="-4.696333">
        <ele>2654.0</ele>
        <time>2013-09-04T13:37:39Z</time>
      </trkpt>
      <trkpt lat="43.037300" lon="-4.696317">
        <ele>2658.0</ele>
        <time>2013-09-04T13:37:40Z</time>
      </trkpt>
      <trkpt lat="43.037350" lon="-4.696317">
        <ele>2661.0</ele>
        <time>2013-09-04T13:37:41Z</time>
      </trkpt>
      <trkpt lat="43.037400" lon="-4.696333">
        <ele>2663.0</ele>
        <time>2013-09-04T13:37:42Z</time>
      </trkpt>
      <trkpt lat="43.037467" lon="-4.696333">
        <ele>2664.0</ele>
        <time>2013-09-04T13:37:43Z</time>
      </trkpt>
      <trkpt lat="43.037550" lon="-4.696333">
        <ele>2666.0</ele>
        <time>2013-09-04T13:37:44Z</time>
      </trkpt>
      <trkpt lat="43.037617" lon="-4.696367">
        <ele>2668.0</ele>
        <time>2013-09-04T13:37:45Z</time>
      </trkpt>
      <trkpt lat="43.037700" lon="-4.696417">
        <ele>2670.0</ele>
        <time>2013-09-04T13:37:46Z</time>
      </trkpt>
      <trkpt lat="43.037767" lon="-4.696533">
        <ele>2672.0</ele>
        <time>2013-09-04T13:37:47Z</time>
      </trkpt>
      <trkpt lat="43.037817" lon="-4.696650">
        <ele>2673.0</ele>
        <time>2013-09-04T13:37:48Z</time>
      </trkpt>
      <trkpt lat="43.037850" lon="-4.696800">
        <ele>2675.0</ele>
        <time>2013-09-04T13:37:49Z</time>
      </trkpt>
      <trkpt lat="43.037883" lon="-4.696967">
        <ele>2677.0</ele>
        <time>2013-09-04T13:37:50Z</time>
      </trkpt>
      <trkpt lat="43.037917" lon="-4.697117">
        <ele>2679.0</ele>
        <time>2013-09-04T13:37:51Z</time>
      </trkpt>
      <trkpt lat="43.037917" lon="-4.697267">
        <ele>2682.0</ele>
        <time>2013-09-04T13:37:52Z</time>
      </trkpt>
      <trkpt lat="43.037917" lon="-4.697400">
        <ele>2684.0</ele>
        <time>2013-09-04T13:37:53Z</time>
      </trkpt>
      <trkpt lat="43.037900" lon="-4.697550">
        <ele>2685.0</ele>
        <time>2013-09-04T13:37:54Z</time>
      </trkpt>
      <trkpt lat="43.037883" lon="-4.697717">
        <ele>2686.0</ele>
        <time>2013-09-04T13:37:55Z</time>
      </trkpt>
      <trkpt lat="43.037850" lon="-4.697883">
        <ele>2687.0</ele>
        <time>2013-09-04T13:37:56Z</time>
      </trkpt>
      <trkpt lat="43.037800" lon="-4.698033">
        <ele>2688.0</ele>
        <time>2013-09-04T13:37:57Z</time>
      </trkpt>
      <trkpt lat="43.037733" lon="-4.698167">
        <ele>2688.0</ele>
        <time>2013-09-04T13:37:58Z</time>
      </trkpt>
      <trkpt lat="43.037650" lon="-4.698267">
        <ele>2688.0</ele>
        <time>2013-09-04T13:37:59Z</time>
      </trkpt>
      <trkpt lat="43.037567" lon="-4.698333">
        <ele>2688.0</ele>
        <time>2013-09-04T13:38:00Z</time>
      </trkpt>
      <trkpt lat="43.037467" lon="-4.698383">
        <ele>2689.0</ele>
        <time>2013-09-04T13:38:01Z</time>
      </trkpt>
      <trkpt lat="43.037383" lon="-4.698433">
        <ele>2693.0</ele>
        <time>2013-09-04T13:38:02Z</time>
      </trkpt>
      <trkpt lat="43.037300" lon="-4.698483">
        <ele>2698.0</ele>
        <time>2013-09-04T13:38:03Z</time>
      </trkpt>
      <trkpt lat="43.037233" lon="-4.698533">
        <ele>2701.0</ele>
        <time>2013-09-04T13:38:04Z</time>
      </trkpt>
      <trkpt lat="43.037183" lon="-4.698550">
        <ele>2704.0</ele>
        <time>2013-09-04T13:38:05Z</time>
      </trkpt>
      <trkpt lat="43.037117" lon="-4.698550">
        <ele>2706.0</ele>
        <time>2013-09-04T13:38:06Z</time>
      </trkpt>
      <trkpt lat="43.037067" lon="-4.698533">
        <ele>2707.0</ele>
        <time>2013-09-04T13:38:07Z</time>
      </trkpt>
      <trkpt lat="43.037050" lon="-4.698483">
        <ele>2708.0</ele>
        <time>2013-09-04T13:38:08Z</time>
      </trkpt>
      <trkpt lat="43.037033" lon="-4.698417">
        <ele>2709.0</ele>
        <time>2013-09-04T13:38:09Z</time>
      </trkpt>
      <trkpt lat="43.037050" lon="-4.698367">
        <ele>2711.0</ele>
        <time>2013-09-04T13:38:10Z</time>
      </trkpt>
      <trkpt lat="43.037050" lon="-4.698333">
        <ele>2714.0</ele>
        <time>2013-09-04T13:38:11Z</time>
      </trkpt>
      <trkpt lat="43.037067" lon="-4.698300">
        <ele>2718.0</ele>
        <time>2013-09-04T13:38:12Z</time>
      </trkpt>
      <trkpt lat="43.037083" lon="-4.698267">
        <ele>2720.0</ele>
        <time>2013-09-04T13:38:13Z</time>
      </trkpt>
      <trkpt lat="43.037117" lon="-4.698233">
        <ele>2723.0</ele>
        <time>2013-09-04T13:38:14Z</time>
      </trkpt>
      <trkpt lat="43.037167" lon="-4.698200">
        <ele>2725.0</ele>
        <time>2013-09-04T13:38:15Z</time>
      </trkpt>
      <trkpt lat="43.037233" lon="-4.698167">
        <ele>2727.0</ele>
        <time>2013-09-04T13:38:16Z</time>
      </trkpt>
      <trkpt lat="43.037300" lon="-4.698150">
        <ele>2731.0</ele>
        <time>2013-09-04T13:38:17Z</time>
      </trkpt>
      <trkpt lat="43.037350" lon="-4.698150">
        <ele>2735.0</ele>
        <time>2013-09-04T13:38:18Z</time>
      </trkpt>
      <trkpt lat="43.037417" lon="-4.698167">
        <ele>2739.0</ele>
        <time>2013-09-04T13:38:19Z</time>
      </trkpt>
      <trkpt lat="43.037483" lon="-4.698200">
        <ele>2741.0</ele>
        <time>2013-09-04T13:38:20Z</time>
      </trkpt>
      <trkpt lat="43.037567" lon="-4.698250">
        <ele>2743.0</ele>
        <time>2013-09-04T13:38:21Z</time>
      </trkpt>
      <trkpt lat="43.037667" lon="-4.698317">
        <ele>2744.0</ele>
        <time>2013-09-04T13:38:22Z</time>
      </trkpt>
      <trkpt lat="43.037750" lon="-4.698417">
        <ele>2745.0</ele>
        <time>2013-09-04T13:38:23Z</time>
      </trkpt>
      <trkpt lat="43.037817" lon="-4.698533">
        <ele>2745.0</ele>
        <time>2013-09-04T13:38:24Z</time>
      </trkpt>
      <trkpt lat="43.037867" lon="-4.698683">
        <ele>2744.0</ele>
        <time>2013-09-04T13:38:25Z</time>
      </trkpt>
      <trkpt lat="43.037917" lon="-4.698867">
        <ele>2744.0</ele>
        <time>2013-09-04T13:38:26Z</time>
      </trkpt>
      <trkpt lat="43.037950" lon="-4.699033">
        <ele>2744.0</ele>
        <time>2013-09-04T13:38:27Z</time>
      </trkpt>
      <trkpt lat="43.037967" lon="-4.699183">
        <ele>2745.0</ele>
        <time>2013-09-04T13:38:28Z</time>
      </trkpt>
      <trkpt lat="43.037967" lon="-4.699333">
        <ele>2746.0</ele>
        <time>2013-09-04T13:38:29Z</time>
      </trkpt>
      <trkpt lat="43.037967" lon="-4.699500">
        <ele>2746.0</ele>
        <time>2013-09-04T13:38:30Z</time>
      </trkpt>
      <trkpt lat="43.037950" lon="-4.699667">
        <ele>2746.0</ele>
        <time>2013-09-04T13:38:31Z</time>
      </trkpt>
      <trkpt lat="43.037917" lon="-4.699833">
        <ele>2747.0</ele>
        <time>2013-09-04T13:38:32Z</time>
      </trkpt>
      <trkpt lat="43.037867" lon="-4.699983">
        <ele>2747.0</ele>
        <time>2013-09-04T13:38:33Z</time>
      </trkpt>
      <trkpt lat="43.037783" lon="-4.700083">
        <ele>2747.0</ele>
        <time>2013-09-04T13:38:34Z</time>
      </trkpt>
      <trkpt lat="43.037700" lon="-4.700150">
        <ele>2747.0</ele>
        <time>2013-09-04T13:38:35Z</time>
      </trkpt>
      <trkpt lat="43.037633" lon="-4.700183">
        <ele>2747.0</ele>
        <time>2013-09-04T13:38:36Z</time>
      </trkpt>
      <trkpt lat="43.037550" lon="-4.700183">
        <ele>2747.0</ele>
        <time>2013-09-04T13:38:37Z</time>
      </trkpt>
      <trkpt lat="43.037467" lon="-4.700183">
        <ele>2747.0</ele>
        <time>2013-09-04T13:38:38Z</time>
      </trkpt>
      <trkpt lat="43.037400" lon="-4.700167">
        <ele>2747.0</ele>
        <time>2013-09-04T13:38:39Z</time>
      </trkpt>
      <trkpt lat="43.037300" lon="-4.700167">
        <ele>2749.0</ele>
        <time>2013-09-04T13:38:40Z</time>
      </trkpt>
      <trkpt lat="43.037217" lon="-4.700200">
        <ele>2751.0</ele>
        <time>2013-09-04T13:38:41Z</time>
      </trkpt>
      <trkpt lat="43.037150" lon="-4.700233">
        <ele>2753.0</ele>
        <time>2013-09-04T13:38:42Z</time>
      </trkpt>
      <trkpt lat="43.037083" lon="-4.700300">
        <ele>2755.0</ele>
        <time>2013-09-04T13:38:43Z</time>
      </trkpt>
      <trkpt lat="43.037000" lon="-4.700367">
        <ele>2757.0</ele>
        <time>2013-09-04T13:38:44Z</time>
      </trkpt>
      <trkpt lat="43.036933" lon="-4.700433">
        <ele>2759.0</ele>
        <time>2013-09-04T13:38:45Z</time>
      </trkpt>
      <trkpt lat="43.036850" lon="-4.700517">
        <ele>2760.0</ele>
        <time>2013-09-04T13:38:46Z</time>
      </trkpt>
      <trkpt lat="43.036767" lon="-4.700600">
        <ele>2763.0</ele>
        <time>2013-09-04T13:38:47Z</time>
      </trkpt>
      <trkpt lat="43.036700" lon="-4.700700">
        <ele>2767.0</ele>
        <time>2013-09-04T13:38:48Z</time>
      </trkpt>
      <trkpt lat="43.036633" lon="-4.700817">
        <ele>2772.0</ele>
        <time>2013-09-04T13:38:49Z</time>
      </trkpt>
      <trkpt lat="43.036600" lon="-4.700950">
        <ele>2775.0</ele>
        <time>2013-09-04T13:38:50Z</time>
      </trkpt>
      <trkpt lat="43.036567" lon="-4.701067">
        <ele>2778.0</ele>
        <time>2013-09-04T13:38:51Z</time>
      </trkpt>
      <trkpt lat="43.036533" lon="-4.701200">
        <ele>2780.0</ele>
        <time>2013-09-04T13:38:52Z</time>
      </trkpt>
      <trkpt lat="43.036467" lon="-4.701300">
        <ele>2782.0</ele>
        <time>2013-09-04T13:38:53Z</time>
      </trkpt>
      <trkpt lat="43.036400" lon="-4.701400">
        <ele>2783.0</ele>
        <time>2013-09-04T13:38:54Z</time>
      </trkpt>
      <trkpt lat="43.036300" lon="-4.701467">
        <ele>2785.0</ele>
        <time>2013-09-04T13:38:55Z</time>
      </trkpt>
      <trkpt lat="43.036217" lon="-4.701500">
        <ele>2787.0</ele>
        <time>2013-09-04T13:38:56Z</time>
      </trkpt>
      <trkpt lat="43.036133" lon="-4.701517">
        <ele>2789.0</ele>
        <time>2013-09-04T13:38:57Z</time>
      </trkpt>
      <trkpt lat="43.036067" lon="-4.701500">
        <ele>2791.0</ele>
        <time>2013-09-04T13:38:58Z</time>
      </trkpt>
      <trkpt lat="43.036000" lon="-4.701500">
        <ele>2793.0</ele>
        <time>2013-09-04T13:38:59Z</time>
      </trkpt>
      <trkpt lat="43.035950" lon="-4.701500">
        <ele>2796.0</ele>
        <time>2013-09-04T13:39:00Z</time>
      </trkpt>
      <trkpt lat="43.035883" lon="-4.701483">
        <ele>2799.0</ele>
        <time>2013-09-04T13:39:01Z</time>
      </trkpt>
      <trkpt lat="43.035850" lon="-4.701483">
        <ele>2803.0</ele>
        <time>2013-09-04T13:39:02Z</time>
      </trkpt>
      <trkpt lat="43.035833" lon="-4.701450">
        <ele>2806.0</ele>
        <time>2013-09-04T13:39:03Z</time>
      </trkpt>
      <trkpt lat="43.035833" lon="-4.701433">
        <ele>2810.0</ele>
        <time>2013-09-04T13:39:04Z</time>
      </trkpt>
      <trkpt lat="43.035833" lon="-4.701417">
        <ele>2813.0</ele>
        <time>2013-09-04T13:39:05Z</time>
      </trkpt>
      <trkpt lat="43.035850" lon="-4.701400">
        <ele>2816.0</ele>
        <time>2013-09-04T13:39:06Z</time>
      </trkpt>
      <trkpt lat="43.035850" lon="-4.701383">
        <ele>2818.0</ele>
        <time>2013-09-04T13:39:07Z</time>
      </trkpt>
      <trkpt lat="43.035883" lon="-4.701367">
        <ele>2820.0</ele>
        <time>2013-09-04T13:39:08Z</time>
      </trkpt>
      <trkpt lat="43.035967" lon="-4.701367">
        <ele>2821.0</ele>
        <time>2013-09-04T13:39:09Z</time>
      </trkpt>
      <trkpt lat="43.036050" lon="-4.701400">
        <ele>2823.0</ele>
        <time>2013-09-04T13:39:10Z</time>
      </trkpt>
      <trkpt lat="43.036133" lon="-4.701500">
        <ele>2825.0</ele>
        <time>2013-09-04T13:39:11Z</time>
      </trkpt>
      <trkpt lat="43.036217" lon="-4.701617">
        <ele>2828.0</ele>
        <time>2013-09-04T13:39:12Z</time>
      </trkpt>
      <trkpt lat="43.036250" lon="-4.701767">
        <ele>2831.0</ele>
        <time>2013-09-04T13:39:13Z</time>
      </trkpt>
      <trkpt lat="43.036283" lon="-4.701933">
        <ele>2834.0</ele>
        <time>2013-09-04T13:39:14Z</time>
      </trkpt>
      <trkpt lat="43.036283" lon="-4.702117">
        <ele>2837.0</ele>
        <time>2013-09-04T13:39:15Z</time>
      </trkpt>
      <trkpt lat="43.036267" lon="-4.702283">
        <ele>2840.0</ele>
        <time>2013-09-04T13:39:16Z</time>
      </trkpt>
      <trkpt lat="43.036233" lon="-4.702433">
        <ele>2843.0</ele>
        <time>2013-09-04T13:39:17Z</time>
      </trkpt>
      <trkpt lat="43.036200" lon="-4.702583">
        <ele>2846.0</ele>
        <time>2013-09-04T13:39:18Z</time>
      </trkpt>
      <trkpt lat="43.036167" lon="-4.702717">
        <ele>2848.0</ele>
        <time>2013-09-04T13:39:19Z</time>
      </trkpt>
      <trkpt lat="43.036117" lon="-4.702833">
        <ele>2850.0</ele>
        <time>2013-09-04T13:39:20Z</time>
      </trkpt>
      <trkpt lat="43.036050" lon="-4.702950">
        <ele>2851.0</ele>
        <time>2013-09-04T13:39:21Z</time>
      </trkpt>
      <trkpt lat="43.035967" lon="-4.703033">
        <ele>2852.0</ele>
        <time>2013-09-04T13:39:22Z</time>
      </trkpt>
      <trkpt lat="43.035867" lon="-4.703100">
        <ele>2853.0</ele>
        <time>2013-09-04T13:39:23Z</time>
      </trkpt>
      <trkpt lat="43.035783" lon="-4.703150">
        <ele>2855.0</ele>
        <time>2013-09-04T13:39:24Z</time>
      </trkpt>
      <trkpt lat="43.035700" lon="-4.703183">
        <ele>2857.0</ele>
        <time>2013-09-04T13:39:25Z</time>
      </trkpt>
      <trkpt lat="43.035633" lon="-4.703200">
        <ele>2859.0</ele>
        <time>2013-09-04T13:39:26Z</time>
      </trkpt>
      <trkpt lat="43.035567" lon="-4.703217">
        <ele>2862.0</ele>
        <time>2013-09-04T13:39:27Z</time>
      </trkpt>
      <trkpt lat="43.035500" lon="-4.703250">
        <ele>2865.0</ele>
        <time>2013-09-04T13:39:28Z</time>
      </trkpt>
      <trkpt lat="43.035433" lon="-4.703267">
        <ele>2868.0</ele>
        <time>2013-09-04T13:39:29Z</time>
      </trkpt>
      <trkpt lat="43.035367" lon="-4.703283">
        <ele>2871.0</ele>
        <time>2013-09-04T13:39:30Z</time>
      </trkpt>
      <trkpt lat="43.035300" lon="-4.703283">
        <ele>2874.0</ele>
        <time>2013-09-04T13:39:31Z</time>
      </trkpt>
      <trkpt lat="43.035233" lon="-4.703283">
        <ele>2876.0</ele>
        <time>2013-09-04T13:39:32Z</time>
      </trkpt>
      <trkpt lat="43.035167" lon="-4.703283">
        <ele>2879.0</ele>
        <time>2013-09-04T13:39:33Z</time>
      </trkpt>
      <trkpt lat="43.035117" lon="-4.703250">
        <ele>2881.0</ele>
        <time>2013-09-04T13:39:34Z</time>
      </trkpt>
      <trkpt lat="43.035083" lon="-4.703200">
        <ele>2884.0</ele>
        <time>2013-09-04T13:39:35Z</time>
      </trkpt>
      <trkpt lat="43.035067" lon="-4.703150">
        <ele>2887.0</ele>
        <time>2013-09-04T13:39:36Z</time>
      </trkpt>
      <trkpt lat="43.035067" lon="-4.703117">
        <ele>2890.0</ele>
        <time>2013-09-04T13:39:37Z</time>
      </trkpt>
      <trkpt lat="43.035100" lon="-4.703067">
        <ele>2892.0</ele>
        <time>2013-09-04T13:39:38Z</time>
      </trkpt>
      <trkpt lat="43.035133" lon="-4.703050">
        <ele>2894.0</ele>
        <time>2013-09-04T13:39:39Z</time>
      </trkpt>
      <trkpt lat="43.035183" lon="-4.703033">
        <ele>2897.0</ele>
        <time>2013-09-04T13:39:40Z</time>
      </trkpt>
      <trkpt lat="43.035250" lon="-4.703017">
        <ele>2900.0</ele>
        <time>2013-09-04T13:39:41Z</time>
      </trkpt>
      <trkpt lat="43.035317" lon="-4.703033">
        <ele>2903.0</ele>
        <time>2013-09-04T13:39:42Z</time>
      </trkpt>
      <trkpt lat="43.035400" lon="-4.703067">
        <ele>2905.0</ele>
        <time>2013-09-04T13:39:43Z</time>
      </trkpt>
      <trkpt lat="43.035483" lon="-4.703133">
        <ele>2907.0</ele>
        <time>2013-09-04T13:39:44Z</time>
      </trkpt>
      <trkpt lat="43.035567" lon="-4.703233">
        <ele>2909.0</ele>
        <time>2013-09-04T13:39:45Z</time>
      </trkpt>
      <trkpt lat="43.035633" lon="-4.703367">
        <ele>2911.0</ele>
        <time>2013-09-04T13:39:46Z</time>
      </trkpt>
      <trkpt lat="43.035683" lon="-4.703517">
        <ele>2914.0</ele>
        <time>2013-09-04T13:39:47Z</time>
      </trkpt>
      <trkpt lat="43.035717" lon="-4.703667">
        <ele>2917.0</ele>
        <time>2013-09-04T13:39:48Z</time>
      </trkpt>
      <trkpt lat="43.035733" lon="-4.703833">
        <ele>2919.0</ele>
        <time>2013-09-04T13:39:49Z</time>
      </trkpt>
      <trkpt lat="43.035733" lon="-4.704000">
        <ele>2921.0</ele>
        <time>2013-09-04T13:39:50Z</time>
      </trkpt>
      <trkpt lat="43.035733" lon="-4.704167">
        <ele>2924.0</ele>
        <time>2013-09-04T13:39:51Z</time>
      </trkpt>
      <trkpt lat="43.035717" lon="-4.704333">
        <ele>2926.0</ele>
        <time>2013-09-04T13:39:52Z</time>
      </trkpt>
      <trkpt lat="43.035700" lon="-4.704500">
        <ele>2929.0</ele>
        <time>2013-09-04T13:39:53Z</time>
      </trkpt>
      <trkpt lat="43.035650" lon="-4.704650">
        <ele>2932.0</ele>
        <time>2013-09-04T13:39:54Z</time>
      </trkpt>
      <trkpt lat="43.035600" lon="-4.704783">
        <ele>2934.0</ele>
        <time>2013-09-04T13:39:55Z</time>
      </trkpt>
      <trkpt lat="43.035533" lon="-4.704917">
        <ele>2936.0</ele>
        <time>2013-09-04T13:39:56Z</time>
      </trkpt>
      <trkpt lat="43.035467" lon="-4.705017">
        <ele>2938.0</ele>
        <time>2013-09-04T13:39:57Z</time>
      </trkpt>
      <trkpt lat="43.035383" lon="-4.705100">
        <ele>2941.0</ele>
        <time>2013-09-04T13:39:58Z</time>
      </trkpt>
      <trkpt lat="43.035300" lon="-4.705150">
        <ele>2944.0</ele>
        <time>2013-09-04T13:39:59Z</time>
      </trkpt>
      <trkpt lat="43.035217" lon="-4.705183">
        <ele>2947.0</ele>
        <time>2013-09-04T13:40:00Z</time>
      </trkpt>
      <trkpt lat="43.035150" lon="-4.705200">
        <ele>2949.0</ele>
        <time>2013-09-04T13:40:01Z</time>
      </trkpt>
      <trkpt lat="43.035083" lon="-4.705233">
        <ele>2951.0</ele>
        <time>2013-09-04T13:40:02Z</time>
      </trkpt>
      <trkpt lat="43.035000" lon="-4.705233">
        <ele>2954.0</ele>
        <time>2013-09-04T13:40:03Z</time>
      </trkpt>
      <trkpt lat="43.034933" lon="-4.705233">
        <ele>2956.0</ele>
        <time>2013-09-04T13:40:04Z</time>
      </trkpt>
      <trkpt lat="43.034883" lon="-4.705217">
        <ele>2958.0</ele>
        <time>2013-09-04T13:40:05Z</time>
      </trkpt>
      <trkpt lat="43.034867" lon="-4.705183">
        <ele>2960.0</ele>
        <time>2013-09-04T13:40:06Z</time>
      </trkpt>
      <trkpt lat="43.034867" lon="-4.705117">
        <ele>2962.0</ele>
        <time>2013-09-04T13:40:07Z</time>
      </trkpt>
      <trkpt lat="43.034917" lon="-4.705083">
        <ele>2963.0</ele>
        <time>2013-09-04T13:40:08Z</time>
      </trkpt>
      <trkpt lat="43.034967" lon="-4.705067">
        <ele>2965.0</ele>
        <time>2013-09-04T13:40:09Z</time>
      </trkpt>
      <trkpt lat="43.035017" lon="-4.705050">
        <ele>2967.0</ele>
        <time>2013-09-04T13:40:10Z</time>
      </trkpt>
      <trkpt lat="43.035067" lon="-4.705050">
        <ele>2969.0</ele>
        <time>2013-09-04T13:40:11Z</time>
      </trkpt>
      <trkpt lat="43.035150" lon="-4.705083">
        <ele>2971.0</ele>
        <time>2013-09-04T13:40:12Z</time>
      </trkpt>
      <trkpt lat="43.035233" lon="-4.705133">
        <ele>2972.0</ele>
        <time>2013-09-04T13:40:13Z</time>
      </trkpt>
      <trkpt lat="43.035317" lon="-4.705217">
        <ele>2973.0</ele>
        <time>2013-09-04T13:40:14Z</time>
      </trkpt>
      <trkpt lat="43.035400" lon="-4.705333">
        <ele>2975.0</ele>
        <time>2013-09-04T13:40:15Z</time>
      </trkpt>
      <trkpt lat="43.035467" lon="-4.705433">
        <ele>2978.0</ele>
        <time>2013-09-04T13:40:16Z</time>
      </trkpt>
      <trkpt lat="43.035517" lon="-4.705533">
        <ele>2980.0</ele>
        <time>2013-09-04T13:40:17Z</time>
      </trkpt>
      <trkpt lat="43.035550" lon="-4.705667">
        <ele>2982.0</ele>
        <time>2013-09-04T13:40:18Z</time>
      </trkpt>
      <trkpt lat="43.035583" lon="-4.705800">
        <ele>2982.0</ele>
        <time>2013-09-04T13:40:19Z</time>
      </trkpt>
      <trkpt lat="43.035617" lon="-4.705967">
        <ele>2982.0</ele>
        <time>2013-09-04T13:40:20Z</time>
      </trkpt>
      <trkpt lat="43.035633" lon="-4.706150">
        <ele>2983.0</ele>
        <time>2013-09-04T13:40:21Z</time>
      </trkpt>
      <trkpt lat="43.035650" lon="-4.706317">
        <ele>2986.0</ele>
        <time>2013-09-04T13:40:22Z</time>
      </trkpt>
      <trkpt lat="43.035650" lon="-4.706483">
        <ele>2988.0</ele>
        <time>2013-09-04T13:40:23Z</time>
      </trkpt>
      <trkpt lat="43.035650" lon="-4.706633">
        <ele>2990.0</ele>
        <time>2013-09-04T13:40:24Z</time>
      </trkpt>
      <trkpt lat="43.035633" lon="-4.706783">
        <ele>2990.0</ele>
        <time>2013-09-04T13:40:25Z</time>
      </trkpt>
      <trkpt lat="43.035600" lon="-4.706950">
        <ele>2990.0</ele>
        <time>2013-09-04T13:40:26Z</time>
      </trkpt>
      <trkpt lat="43.035567" lon="-4.707117">
        <ele>2991.0</ele>
        <time>2013-09-04T13:40:27Z</time>
      </trkpt>
      <trkpt lat="43.035517" lon="-4.707267">
        <ele>2992.0</ele>
        <time>2013-09-04T13:40:28Z</time>
      </trkpt>
      <trkpt lat="43.035450" lon="-4.707383">
        <ele>2994.0</ele>
        <time>2013-09-04T13:40:29Z</time>
      </trkpt>
      <trkpt lat="43.035383" lon="-4.707483">
        <ele>2996.0</ele>
        <time>2013-09-04T13:40:30Z</time>
      </trkpt>
      <trkpt lat="43.035317" lon="-4.707567">
        <ele>2997.0</ele>
        <time>2013-09-04T13:40:31Z</time>
      </trkpt>
      <trkpt lat="43.035267" lon="-4.707650">
        <ele>2998.0</ele>
        <time>2013-09-04T13:40:32Z</time>
      </trkpt>
      <trkpt lat="43.035200" lon="-4.707733">
        <ele>2999.0</ele>
        <time>2013-09-04T13:40:33Z</time>
      </trkpt>
      <trkpt lat="43.035133" lon="-4.707817">
        <ele>3000.0</ele>
        <time>2013-09-04T13:40:34Z</time>
      </trkpt>
      <trkpt lat="43.035067" lon="-4.707883">
        <ele>3001.0</ele>
        <time>2013-09-04T13:40:35Z</time>
      </trkpt>
      <trkpt lat="43.035017" lon="-4.707933">
        <ele>3002.0</ele>
        <time>2013-09-04T13:40:36Z</time>
      </trkpt>
      <trkpt lat="43.034967" lon="-4.707967">
        <ele>3002.0</ele>
        <time>2013-09-04T13:40:37Z</time>
      </trkpt>
      <trkpt lat="43.034900" lon="-4.708017">
        <ele>3002.0</ele>
        <time>2013-09-04T13:40:38Z</time>
      </trkpt>
      <trkpt lat="43.034833" lon="-4.708050">
        <ele>3001.0</ele>
        <time>2013-09-04T13:40:39Z</time>
      </trkpt>
      <trkpt lat="43.034767" lon="-4.708067">
        <ele>3001.0</ele>
        <time>2013-09-04T13:40:40Z</time>
      </trkpt>
      <trkpt lat="43.034700" lon="-4.708067">
        <ele>3000.0</ele>
        <time>2013-09-04T13:40:41Z</time>
      </trkpt>
      <trkpt lat="43.034633" lon="-4.708033">
        <ele>2999.0</ele>
        <time>2013-09-04T13:40:42Z</time>
      </trkpt>
      <trkpt lat="43.034567" lon="-4.707967">
        <ele>2998.0</ele>
        <time>2013-09-04T13:40:43Z</time>
      </trkpt>
      <trkpt lat="43.034517" lon="-4.707900">
        <ele>2998.0</ele>
        <time>2013-09-04T13:40:44Z</time>
      </trkpt>
      <trkpt lat="43.034483" lon="-4.707850">
        <ele>2999.0</ele>
        <time>2013-09-04T13:40:45Z</time>
      </trkpt>
      <trkpt lat="43.034450" lon="-4.707783">
        <ele>3000.0</ele>
        <time>2013-09-04T13:40:46Z</time>
      </trkpt>
      <trkpt lat="43.034417" lon="-4.707750">
        <ele>3000.0</ele>
        <time>2013-09-04T13:40:47Z</time>
      </trkpt>
      <trkpt lat="43.034400" lon="-4.707683">
        <ele>3000.0</ele>
        <time>2013-09-04T13:40:48Z</time>
      </trkpt>
      <trkpt lat="43.034367" lon="-4.707617">
        <ele>3001.0</ele>
        <time>2013-09-04T13:40:49Z</time>
      </trkpt>
      <trkpt lat="43.034350" lon="-4.707550">
        <ele>3001.0</ele>
        <time>2013-09-04T13:40:50Z</time>
      </trkpt>
      <trkpt lat="43.034333" lon="-4.707500">
        <ele>3003.0</ele>
        <time>2013-09-04T13:40:51Z</time>
      </trkpt>
      <trkpt lat="43.034333" lon="-4.707450">
        <ele>3004.0</ele>
        <time>2013-09-04T13:40:52Z</time>
      </trkpt>
      <trkpt lat="43.034333" lon="-4.707400">
        <ele>3005.0</ele>
        <time>2013-09-04T13:40:53Z</time>
      </trkpt>
      <trkpt lat="43.034317" lon="-4.707333">
        <ele>3005.0</ele>
        <time>2013-09-04T13:40:54Z</time>
      </trkpt>
      <trkpt lat="43.034317" lon="-4.707267">
        <ele>3005.0</ele>
        <time>2013-09-04T13:40:55Z</time>
      </trkpt>
      <trkpt lat="43.034300" lon="-4.707183">
        <ele>3005.0</ele>
        <time>2013-09-04T13:40:56Z</time>
      </trkpt>
      <trkpt lat="43.034283" lon="-4.707117">
        <ele>3007.0</ele>
        <time>2013-09-04T13:40:57Z</time>
      </trkpt>
      <trkpt lat="43.034283" lon="-4.707033">
        <ele>3009.0</ele>
        <time>2013-09-04T13:40:58Z</time>
      </trkpt>
      <trkpt lat="43.034300" lon="-4.706983">
        <ele>3010.0</ele>
        <time>2013-09-04T13:40:59Z</time>
      </trkpt>
      <trkpt lat="43.034317" lon="-4.706950">
        <ele>3011.0</ele>
        <time>2013-09-04T13:41:00Z</time>
      </trkpt>
      <trkpt lat="43.034317" lon="-4.706900">
        <ele>3011.0</ele>
        <time>2013-09-04T13:41:01Z</time>
      </trkpt>
      <trkpt lat="43.034333" lon="-4.706850">
        <ele>3010.0</ele>
        <time>2013-09-04T13:41:02Z</time>
      </trkpt>
      <trkpt lat="43.034367" lon="-4.706783">
        <ele>3008.0</ele>
        <time>2013-09-04T13:41:03Z</time>
      </trkpt>
      <trkpt lat="43.034400" lon="-4.706717">
        <ele>3007.0</ele>
        <time>2013-09-04T13:41:04Z</time>
      </trkpt>
      <trkpt lat="43.034433" lon="-4.706650">
        <ele>3006.0</ele>
        <time>2013-09-04T13:41:05Z</time>
      </trkpt>
      <trkpt lat="43.034483" lon="-4.706600">
        <ele>3006.0</ele>
        <time>2013-09-04T13:41:06Z</time>
      </trkpt>
      <trkpt lat="43.034500" lon="-4.706550">
        <ele>3007.0</ele>
        <time>2013-09-04T13:41:07Z</time>
      </trkpt>
      <trkpt lat="43.034517" lon="-4.706500">
        <ele>3007.0</ele>
        <time>2013-09-04T13:41:08Z</time>
      </trkpt>
      <trkpt lat="43.034500" lon="-4.706467">
        <ele>3008.0</ele>
        <time>2013-09-04T13:41:09Z</time>
      </trkpt>
      <trkpt lat="43.034500" lon="-4.706433">
        <ele>3008.0</ele>
        <time>2013-09-04T13:41:10Z</time>
      </trkpt>
      <trkpt lat="43.034517" lon="-4.706417">
        <ele>3009.0</ele>
        <time>2013-09-04T13:41:11Z</time>
      </trkpt>
      <trkpt lat="43.034567" lon="-4.706383">
        <ele>3009.0</ele>
        <time>2013-09-04T13:41:12Z</time>
      </trkpt>
      <trkpt lat="43.034633" lon="-4.706367">
        <ele>3010.0</ele>
        <time>2013-09-04T13:41:13Z</time>
      </trkpt>
      <trkpt lat="43.034683" lon="-4.706367">
        <ele>3011.0</ele>
        <time>2013-09-04T13:41:14Z</time>
      </trkpt>
      <trkpt lat="43.034733" lon="-4.706350">
        <ele>3013.0</ele>
        <time>2013-09-04T13:41:15Z</time>
      </trkpt>
      <trkpt lat="43.034783" lon="-4.706350">
        <ele>3015.0</ele>
        <time>2013-09-04T13:41:16Z</time>
      </trkpt>
      <trkpt lat="43.034833" lon="-4.706333">
        <ele>3017.0</ele>
        <time>2013-09-04T13:41:17Z</time>
      </trkpt>
      <trkpt lat="43.034900" lon="-4.706317">
        <ele>3018.0</ele>
        <time>2013-09-04T13:41:18Z</time>
      </trkpt>
      <trkpt lat="43.034967" lon="-4.706317">
        <ele>3020.0</ele>
        <time>2013-09-04T13:41:19Z</time>
      </trkpt>
      <trkpt lat="43.035017" lon="-4.706317">
        <ele>3022.0</ele>
        <time>2013-09-04T13:41:20Z</time>
      </trkpt>
      <trkpt lat="43.035083" lon="-4.706333">
        <ele>3024.0</ele>
        <time>2013-09-04T13:41:21Z</time>
      </trkpt>
      <trkpt lat="43.035167" lon="-4.706350">
        <ele>3026.0</ele>
        <time>2013-09-04T13:41:22Z</time>
      </trkpt>
      <trkpt lat="43.035233" lon="-4.706383">
        <ele>3028.0</ele>
        <time>2013-09-04T13:41:23Z</time>
      </trkpt>
      <trkpt lat="43.035300" lon="-4.706433">
        <ele>3030.0</ele>
        <time>2013-09-04T13:41:24Z</time>
      </trkpt>
      <trkpt lat="43.035367" lon="-4.706517">
        <ele>3031.0</ele>
        <time>2013-09-04T13:41:25Z</time>
      </trkpt>
      <trkpt lat="43.035433" lon="-4.706600">
        <ele>3033.0</ele>
        <time>2013-09-04T13:41:26Z</time>
      </trkpt>
      <trkpt lat="43.035467" lon="-4.706717">
        <ele>3034.0</ele>
        <time>2013-09-04T13:41:27Z</time>
      </trkpt>
      <trkpt lat="43.035517" lon="-4.706833">
        <ele>3035.0</ele>
        <time>2013-09-04T13:41:28Z</time>
      </trkpt>
      <trkpt lat="43.035533" lon="-4.706967">
        <ele>3037.0</ele>
        <time>2013-09-04T13:41:29Z</time>
      </trkpt>
      <trkpt lat="43.035550" lon="-4.707117">
        <ele>3038.0</ele>
        <time>2013-09-04T13:41:30Z</time>
      </trkpt>
      <trkpt lat="43.035550" lon="-4.707250">
        <ele>3040.0</ele>
        <time>2013-09-04T13:41:31Z</time>
      </trkpt>
      <trkpt lat="43.035550" lon="-4.707383">
        <ele>3041.0</ele>
        <time>2013-09-04T13:41:32Z</time>
      </trkpt>
      <trkpt lat="43.035533" lon="-4.707517">
        <ele>3043.0</ele>
        <time>2013-09-04T13:41:33Z</time>
      </trkpt>
      <trkpt lat="43.035500" lon="-4.707650">
        <ele>3044.0</ele>
        <time>2013-09-04T13:41:34Z</time>
      </trkpt>
      <trkpt lat="43.035467" lon="-4.707783">
        <ele>3046.0</ele>
        <time>2013-09-04T13:41:35Z</time>
      </trkpt>
      <trkpt lat="43.035433" lon="-4.707900">
        <ele>3048.0</ele>
        <time>2013-09-04T13:41:36Z</time>
      </trkpt>
      <trkpt lat="43.035383" lon="-4.708017">
        <ele>3050.0</ele>
        <time>2013-09-04T13:41:37Z</time>
      </trkpt>
      <trkpt lat="43.035333" lon="-4.708133">
        <ele>3051.0</ele>
        <time>2013-09-04T13:41:38Z</time>
      </trkpt>
      <trkpt lat="43.035267" lon="-4.708250">
        <ele>3053.0</ele>
        <time>2013-09-04T13:41:39Z</time>
      </trkpt>
      <trkpt lat="43.035217" lon="-4.708350">
        <ele>3056.0</ele>
        <time>2013-09-04T13:41:40Z</time>
      </trkpt>
      <trkpt lat="43.035150" lon="-4.708450">
        <ele>3058.0</ele>
        <time>2013-09-04T13:41:41Z</time>
      </trkpt>
      <trkpt lat="43.035083" lon="-4.708550">
        <ele>3060.0</ele>
        <time>2013-09-04T13:41:42Z</time>
      </trkpt>
      <trkpt lat="43.035033" lon="-4.708633">
        <ele>3060.0</ele>
        <time>2013-09-04T13:41:43Z</time>
      </trkpt>
      <trkpt lat="43.034950" lon="-4.708717">
        <ele>3061.0</ele>
        <time>2013-09-04T13:41:44Z</time>
      </trkpt>
      <trkpt lat="43.034883" lon="-4.708767">
        <ele>3060.0</ele>
        <time>2013-09-04T13:41:45Z</time>
      </trkpt>
      <trkpt lat="43.034800" lon="-4.708783">
        <ele>3059.0</ele>
        <time>2013-09-04T13:41:46Z</time>
      </trkpt>
      <trkpt lat="43.034733" lon="-4.708767">
        <ele>3057.0</ele>
        <time>2013-09-04T13:41:47Z</time>
      </trkpt>
      <trkpt lat="43.034683" lon="-4.708717">
        <ele>3055.0</ele>
        <time>2013-09-04T13:41:48Z</time>
      </trkpt>
      <trkpt lat="43.034683" lon="-4.708633">
        <ele>3053.0</ele>
        <time>2013-09-04T13:41:49Z</time>
      </trkpt>
      <trkpt lat="43.034700" lon="-4.708567">
        <ele>3051.0</ele>
        <time>2013-09-04T13:41:50Z</time>
      </trkpt>
      <trkpt lat="43.034767" lon="-4.708500">
        <ele>3050.0</ele>
        <time>2013-09-04T13:41:51Z</time>
      </trkpt>
      <trkpt lat="43.034833" lon="-4.708467">
        <ele>3050.0</ele>
        <time>2013-09-04T13:41:52Z</time>
      </trkpt>
      <trkpt lat="43.034900" lon="-4.708450">
        <ele>3049.0</ele>
        <time>2013-09-04T13:41:53Z</time>
      </trkpt>
      <trkpt lat="43.034983" lon="-4.708450">
        <ele>3049.0</ele>
        <time>2013-09-04T13:41:54Z</time>
      </trkpt>
      <trkpt lat="43.035067" lon="-4.708450">
        <ele>3049.0</ele>
        <time>2013-09-04T13:41:55Z</time>
      </trkpt>
      <trkpt lat="43.035167" lon="-4.708450">
        <ele>3051.0</ele>
        <time>2013-09-04T13:41:56Z</time>
      </trkpt>
      <trkpt lat="43.035250" lon="-4.708483">
        <ele>3053.0</ele>
        <time>2013-09-04T13:41:57Z</time>
      </trkpt>
      <trkpt lat="43.035350" lon="-4.708517">
        <ele>3056.0</ele>
        <time>2013-09-04T13:41:58Z</time>
      </trkpt>
      <trkpt lat="43.035433" lon="-4.708567">
        <ele>3059.0</ele>
        <time>2013-09-04T13:41:59Z</time>
      </trkpt>
      <trkpt lat="43.035500" lon="-4.708617">
        <ele>3062.0</ele>
        <time>2013-09-04T13:42:00Z</time>
      </trkpt>
      <trkpt lat="43.035583" lon="-4.708667">
        <ele>3064.0</ele>
        <time>2013-09-04T13:42:01Z</time>
      </trkpt>
      <trkpt lat="43.035667" lon="-4.708733">
        <ele>3066.0</ele>
        <time>2013-09-04T13:42:02Z</time>
      </trkpt>
      <trkpt lat="43.035750" lon="-4.708783">
        <ele>3067.0</ele>
        <time>2013-09-04T13:42:03Z</time>
      </trkpt>
      <trkpt lat="43.035833" lon="-4.708850">
        <ele>3068.0</ele>
        <time>2013-09-04T13:42:04Z</time>
      </trkpt>
      <trkpt lat="43.035917" lon="-4.708933">
        <ele>3070.0</ele>
        <time>2013-09-04T13:42:05Z</time>
      </trkpt>
      <trkpt lat="43.035983" lon="-4.709017">
        <ele>3071.0</ele>
        <time>2013-09-04T13:42:06Z</time>
      </trkpt>
      <trkpt lat="43.036050" lon="-4.709100">
        <ele>3072.0</ele>
        <time>2013-09-04T13:42:07Z</time>
      </trkpt>
      <trkpt lat="43.036133" lon="-4.709183">
        <ele>3073.0</ele>
        <time>2013-09-04T13:42:08Z</time>
      </trkpt>
      <trkpt lat="43.036200" lon="-4.709283">
        <ele>3074.0</ele>
        <time>2013-09-04T13:42:09Z</time>
      </trkpt>
      <trkpt lat="43.036283" lon="-4.709367">
        <ele>3075.0</ele>
        <time>2013-09-04T13:42:10Z</time>
      </trkpt>
      <trkpt lat="43.036367" lon="-4.709467">
        <ele>3076.0</ele>
        <time>2013-09-04T13:42:11Z</time>
      </trkpt>
      <trkpt lat="43.036433" lon="-4.709583">
        <ele>3078.0</ele>
        <time>2013-09-04T13:42:12Z</time>
      </trkpt>
      <trkpt lat="43.036483" lon="-4.709700">
        <ele>3079.0</ele>
        <time>2013-09-04T13:42:13Z</time>
      </trkpt>
      <trkpt lat="43.036517" lon="-4.709850">
        <ele>3080.0</ele>
        <time>2013-09-04T13:42:14Z</time>
      </trkpt>
      <trkpt lat="43.036550" lon="-4.710000">
        <ele>3081.0</ele>
        <time>2013-09-04T13:42:15Z</time>
      </trkpt>
      <trkpt lat="43.036583" lon="-4.710167">
        <ele>3083.0</ele>
        <time>2013-09-04T13:42:16Z</time>
      </trkpt>
      <trkpt lat="43.036600" lon="-4.710317">
        <ele>3085.0</ele>
        <time>2013-09-04T13:42:17Z</time>
      </trkpt>
      <trkpt lat="43.036600" lon="-4.710467">
        <ele>3087.0</ele>
        <time>2013-09-04T13:42:18Z</time>
      </trkpt>
      <trkpt lat="43.036600" lon="-4.710600">
        <ele>3088.0</ele>
        <time>2013-09-04T13:42:19Z</time>
      </trkpt>
      <trkpt lat="43.036600" lon="-4.710750">
        <ele>3088.0</ele>
        <time>2013-09-04T13:42:20Z</time>
      </trkpt>
      <trkpt lat="43.036600" lon="-4.710917">
        <ele>3088.0</ele>
        <time>2013-09-04T13:42:21Z</time>
      </trkpt>
      <trkpt lat="43.036600" lon="-4.711083">
        <ele>3089.0</ele>
        <time>2013-09-04T13:42:22Z</time>
      </trkpt>
      <trkpt lat="43.036600" lon="-4.711250">
        <ele>3090.0</ele>
        <time>2013-09-04T13:42:23Z</time>
      </trkpt>
      <trkpt lat="43.036567" lon="-4.711400">
        <ele>3092.0</ele>
        <time>2013-09-04T13:42:24Z</time>
      </trkpt>
      <trkpt lat="43.036550" lon="-4.711517">
        <ele>3094.0</ele>
        <time>2013-09-04T13:42:25Z</time>
      </trkpt>
      <trkpt lat="43.036500" lon="-4.711617">
        <ele>3094.0</ele>
        <time>2013-09-04T13:42:26Z</time>
      </trkpt>
      <trkpt lat="43.036450" lon="-4.711700">
        <ele>3093.0</ele>
        <time>2013-09-04T13:42:27Z</time>
      </trkpt>
      <trkpt lat="43.036383" lon="-4.711750">
        <ele>3093.0</ele>
        <time>2013-09-04T13:42:28Z</time>
      </trkpt>
      <trkpt lat="43.036300" lon="-4.711783">
        <ele>3093.0</ele>
        <time>2013-09-04T13:42:29Z</time>
      </trkpt>
      <trkpt lat="43.036250" lon="-4.711767">
        <ele>3092.0</ele>
        <time>2013-09-04T13:42:30Z</time>
      </trkpt>
      <trkpt lat="43.036200" lon="-4.711733">
        <ele>3092.0</ele>
        <time>2013-09-04T13:42:31Z</time>
      </trkpt>
      <trkpt lat="43.036167" lon="-4.711683">
        <ele>3092.0</ele>
        <time>2013-09-04T13:42:32Z</time>
      </trkpt>
      <trkpt lat="43.036150" lon="-4.711617">
        <ele>3091.0</ele>
        <time>2013-09-04T13:42:33Z</time>
      </trkpt>
      <trkpt lat="43.036133" lon="-4.711533">
        <ele>3090.0</ele>
        <time>2013-09-04T13:42:34Z</time>
      </trkpt>
      <trkpt lat="43.036133" lon="-4.711450">
        <ele>3089.0</ele>
        <time>2013-09-04T13:42:35Z</time>
      </trkpt>
      <trkpt lat="43.036150" lon="-4.711350">
        <ele>3089.0</ele>
        <time>2013-09-04T13:42:36Z</time>
      </trkpt>
      <trkpt lat="43.036183" lon="-4.711250">
        <ele>3088.0</ele>
        <time>2013-09-04T13:42:37Z</time>
      </trkpt>
      <trkpt lat="43.036200" lon="-4.711167">
        <ele>3088.0</ele>
        <time>2013-09-04T13:42:38Z</time>
      </trkpt>
      <trkpt lat="43.036233" lon="-4.711067">
        <ele>3088.0</ele>
        <time>2013-09-04T13:42:39Z</time>
      </trkpt>
      <trkpt lat="43.036267" lon="-4.710983">
        <ele>3089.0</ele>
        <time>2013-09-04T13:42:40Z</time>
      </trkpt>
      <trkpt lat="43.036283" lon="-4.710900">
        <ele>3089.0</ele>
        <time>2013-09-04T13:42:41Z</time>
      </trkpt>
      <trkpt lat="43.036283" lon="-4.710833">
        <ele>3089.0</ele>
        <time>2013-09-04T13:42:42Z</time>
      </trkpt>
      <trkpt lat="43.036317" lon="-4.710750">
        <ele>3089.0</ele>
        <time>2013-09-04T13:42:43Z</time>
      </trkpt>
      <trkpt lat="43.036350" lon="-4.710667">
        <ele>3089.0</ele>
        <time>2013-09-04T13:42:44Z</time>
      </trkpt>
      <trkpt lat="43.036383" lon="-4.710567">
        <ele>3089.0</ele>
        <time>2013-09-04T13:42:45Z</time>
      </trkpt>
      <trkpt lat="43.036433" lon="-4.710483">
        <ele>3090.0</ele>
        <time>2013-09-04T13:42:46Z</time>
      </trkpt>
      <trkpt lat="43.036483" lon="-4.710417">
        <ele>3091.0</ele>
        <time>2013-09-04T13:42:47Z</time>
      </trkpt>
      <trkpt lat="43.036517" lon="-4.710350">
        <ele>3093.0</ele>
        <time>2013-09-04T13:42:48Z</time>
      </trkpt>
      <trkpt lat="43.036567" lon="-4.710283">
        <ele>3094.0</ele>
        <time>2013-09-04T13:42:49Z</time>
      </trkpt>
      <trkpt lat="43.036617" lon="-4.710217">
        <ele>3095.0</ele>
        <time>2013-09-04T13:42:50Z</time>
      </trkpt>
      <trkpt lat="43.036683" lon="-4.710150">
        <ele>3096.0</ele>
        <time>2013-09-04T13:42:51Z</time>
      </trkpt>
      <trkpt lat="43.036733" lon="-4.710083">
        <ele>3097.0</ele>
        <time>2013-09-04T13:42:52Z</time>
      </trkpt>
      <trkpt lat="43.036783" lon="-4.710017">
        <ele>3099.0</ele>
        <time>2013-09-04T13:42:53Z</time>
      </trkpt>
      <trkpt lat="43.036800" lon="-4.709983">
        <ele>3101.0</ele>
        <time>2013-09-04T13:42:54Z</time>
      </trkpt>
      <trkpt lat="43.036817" lon="-4.709933">
        <ele>3103.0</ele>
        <time>2013-09-04T13:42:55Z</time>
      </trkpt>
      <trkpt lat="43.036850" lon="-4.709900">
        <ele>3106.0</ele>
        <time>2013-09-04T13:42:56Z</time>
      </trkpt>
      <trkpt lat="43.036900" lon="-4.709867">
        <ele>3107.0</ele>
        <time>2013-09-04T13:42:57Z</time>
      </trkpt>
      <trkpt lat="43.036950" lon="-4.709833">
        <ele>3109.0</ele>
        <time>2013-09-04T13:42:58Z</time>
      </trkpt>
      <trkpt lat="43.037017" lon="-4.709817">
        <ele>3111.0</ele>
        <time>2013-09-04T13:42:59Z</time>
      </trkpt>
      <trkpt lat="43.037100" lon="-4.709817">
        <ele>3112.0</ele>
        <time>2013-09-04T13:43:00Z</time>
      </trkpt>
      <trkpt lat="43.037167" lon="-4.709817">
        <ele>3114.0</ele>
        <time>2013-09-04T13:43:01Z</time>
      </trkpt>
      <trkpt lat="43.037250" lon="-4.709850">
        <ele>3115.0</ele>
        <time>2013-09-04T13:43:02Z</time>
      </trkpt>
      <trkpt lat="43.037350" lon="-4.709933">
        <ele>3115.0</ele>
        <time>2013-09-04T13:43:03Z</time>
      </trkpt>
      <trkpt lat="43.037433" lon="-4.710050">
        <ele>3116.0</ele>
        <time>2013-09-04T13:43:04Z</time>
      </trkpt>
      <trkpt lat="43.037483" lon="-4.710200">
        <ele>3116.0</ele>
        <time>2013-09-04T13:43:05Z</time>
      </trkpt>
      <trkpt lat="43.037533" lon="-4.710383">
        <ele>3116.0</ele>
        <time>2013-09-04T13:43:06Z</time>
      </trkpt>
      <trkpt lat="43.037550" lon="-4.710567">
        <ele>3118.0</ele>
        <time>2013-09-04T13:43:07Z</time>
      </trkpt>
      <trkpt lat="43.037550" lon="-4.710733">
        <ele>3121.0</ele>
        <time>2013-09-04T13:43:08Z</time>
      </trkpt>
      <trkpt lat="43.037533" lon="-4.710900">
        <ele>3125.0</ele>
        <time>2013-09-04T13:43:09Z</time>
      </trkpt>
      <trkpt lat="43.037533" lon="-4.711033">
        <ele>3128.0</ele>
        <time>2013-09-04T13:43:10Z</time>
      </trkpt>
      <trkpt lat="43.037517" lon="-4.711133">
        <ele>3131.0</ele>
        <time>2013-09-04T13:43:11Z</time>
      </trkpt>
      <trkpt lat="43.037500" lon="-4.711233">
        <ele>3132.0</ele>
        <time>2013-09-04T13:43:12Z</time>
      </trkpt>
      <trkpt lat="43.037467" lon="-4.711333">
        <ele>3132.0</ele>
        <time>2013-09-04T13:43:13Z</time>
      </trkpt>
      <trkpt lat="43.037433" lon="-4.711417">
        <ele>3132.0</ele>
        <time>2013-09-04T13:43:14Z</time>
      </trkpt>
      <trkpt lat="43.037367" lon="-4.711483">
        <ele>3132.0</ele>
        <time>2013-09-04T13:43:15Z</time>
      </trkpt>
      <trkpt lat="43.037317" lon="-4.711500">
        <ele>3133.0</ele>
        <time>2013-09-04T13:43:16Z</time>
      </trkpt>
      <trkpt lat="43.037267" lon="-4.711483">
        <ele>3132.0</ele>
        <time>2013-09-04T13:43:17Z</time>
      </trkpt>
      <trkpt lat="43.037250" lon="-4.711417">
        <ele>3132.0</ele>
        <time>2013-09-04T13:43:18Z</time>
      </trkpt>
      <trkpt lat="43.037233" lon="-4.711333">
        <ele>3133.0</ele>
        <time>2013-09-04T13:43:19Z</time>
      </trkpt>
      <trkpt lat="43.037233" lon="-4.711283">
        <ele>3135.0</ele>
        <time>2013-09-04T13:43:20Z</time>
      </trkpt>
      <trkpt lat="43.037233" lon="-4.711233">
        <ele>3140.0</ele>
        <time>2013-09-04T13:43:21Z</time>
      </trkpt>
      <trkpt lat="43.037217" lon="-4.711200">
        <ele>3142.0</ele>
        <time>2013-09-04T13:43:22Z</time>
      </trkpt>
      <trkpt lat="43.037233" lon="-4.711167">
        <ele>3143.0</ele>
        <time>2013-09-04T13:43:23Z</time>
      </trkpt>
      <trkpt lat="43.037250" lon="-4.711133">
        <ele>3145.0</ele>
        <time>2013-09-04T13:43:24Z</time>
      </trkpt>
      <trkpt lat="43.037300" lon="-4.711100">
        <ele>3146.0</ele>
        <time>2013-09-04T13:43:25Z</time>
      </trkpt>
      <trkpt lat="43.037350" lon="-4.711067">
        <ele>3147.0</ele>
        <time>2013-09-04T13:43:26Z</time>
      </trkpt>
      <trkpt lat="43.037433" lon="-4.711067">
        <ele>3149.0</ele>
        <time>2013-09-04T13:43:27Z</time>
      </trkpt>
      <trkpt lat="43.037517" lon="-4.711083">
        <ele>3149.0</ele>
        <time>2013-09-04T13:43:28Z</time>
      </trkpt>
      <trkpt lat="43.037600" lon="-4.711133">
        <ele>3150.0</ele>
        <time>2013-09-04T13:43:29Z</time>
      </trkpt>
      <trkpt lat="43.037700" lon="-4.711183">
        <ele>3150.0</ele>
        <time>2013-09-04T13:43:30Z</time>
      </trkpt>
      <trkpt lat="43.037783" lon="-4.711250">
        <ele>3150.0</ele>
        <time>2013-09-04T13:43:31Z</time>
      </trkpt>
      <trkpt lat="43.037867" lon="-4.711350">
        <ele>3151.0</ele>
        <time>2013-09-04T13:43:32Z</time>
      </trkpt>
      <trkpt lat="43.037950" lon="-4.711483">
        <ele>3152.0</ele>
        <time>2013-09-04T13:43:33Z</time>
      </trkpt>
      <trkpt lat="43.038017" lon="-4.711617">
        <ele>3154.0</ele>
        <time>2013-09-04T13:43:34Z</time>
      </trkpt>
      <trkpt lat="43.038083" lon="-4.711767">
        <ele>3155.0</ele>
        <time>2013-09-04T13:43:35Z</time>
      </trkpt>
      <trkpt lat="43.038150" lon="-4.711917">
        <ele>3157.0</ele>
        <time>2013-09-04T13:43:36Z</time>
      </trkpt>
      <trkpt lat="43.038183" lon="-4.712067">
        <ele>3159.0</ele>
        <time>2013-09-04T13:43:37Z</time>
      </trkpt>
      <trkpt lat="43.038217" lon="-4.712233">
        <ele>3162.0</ele>
        <time>2013-09-04T13:43:38Z</time>
      </trkpt>
      <trkpt lat="43.038233" lon="-4.712367">
        <ele>3164.0</ele>
        <time>2013-09-04T13:43:39Z</time>
      </trkpt>
      <trkpt lat="43.038233" lon="-4.712500">
        <ele>3165.0</ele>
        <time>2013-09-04T13:43:40Z</time>
      </trkpt>
      <trkpt lat="43.038233" lon="-4.712633">
        <ele>3166.0</ele>
        <time>2013-09-04T13:43:41Z</time>
      </trkpt>
      <trkpt lat="43.038217" lon="-4.712767">
        <ele>3165.0</ele>
        <time>2013-09-04T13:43:42Z</time>
      </trkpt>
      <trkpt lat="43.038183" lon="-4.712900">
        <ele>3165.0</ele>
        <time>2013-09-04T13:43:43Z</time>
      </trkpt>
      <trkpt lat="43.038133" lon="-4.713000">
        <ele>3166.0</ele>
        <time>2013-09-04T13:43:44Z</time>
      </trkpt>
      <trkpt lat="43.038083" lon="-4.713067">
        <ele>3167.0</ele>
        <time>2013-09-04T13:43:45Z</time>
      </trkpt>
      <trkpt lat="43.038017" lon="-4.713083">
        <ele>3168.0</ele>
        <time>2013-09-04T13:43:46Z</time>
      </trkpt>
      <trkpt lat="43.037967" lon="-4.713083">
        <ele>3169.0</ele>
        <time>2013-09-04T13:43:47Z</time>
      </trkpt>
      <trkpt lat="43.037917" lon="-4.713083">
        <ele>3171.0</ele>
        <time>2013-09-04T13:43:48Z</time>
      </trkpt>
      <trkpt lat="43.037883" lon="-4.713083">
        <ele>3173.0</ele>
        <time>2013-09-04T13:43:49Z</time>
      </trkpt>
      <trkpt lat="43.037833" lon="-4.713083">
        <ele>3174.0</ele>
        <time>2013-09-04T13:43:50Z</time>
      </trkpt>
      <trkpt lat="43.037800" lon="-4.713050">
        <ele>3175.0</ele>
        <time>2013-09-04T13:43:51Z</time>
      </trkpt>
      <trkpt lat="43.037767" lon="-4.712983">
        <ele>3175.0</ele>
        <time>2013-09-04T13:43:52Z</time>
      </trkpt>
      <trkpt lat="43.037767" lon="-4.712917">
        <ele>3176.0</ele>
        <time>2013-09-04T13:43:53Z</time>
      </trkpt>
      <trkpt lat="43.037783" lon="-4.712867">
        <ele>3176.0</ele>
        <time>2013-09-04T13:43:54Z</time>
      </trkpt>
      <trkpt lat="43.037817" lon="-4.712800">
        <ele>3176.0</ele>
        <time>2013-09-04T13:43:55Z</time>
      </trkpt>
      <trkpt lat="43.037867" lon="-4.712733">
        <ele>3178.0</ele>
        <time>2013-09-04T13:43:56Z</time>
      </trkpt>
      <trkpt lat="43.037933" lon="-4.712667">
        <ele>3181.0</ele>
        <time>2013-09-04T13:43:57Z</time>
      </trkpt>
      <trkpt lat="43.038017" lon="-4.712650">
        <ele>3184.0</ele>
        <time>2013-09-04T13:43:58Z</time>
      </trkpt>
      <trkpt lat="43.038083" lon="-4.712683">
        <ele>3186.0</ele>
        <time>2013-09-04T13:43:59Z</time>
      </trkpt>
      <trkpt lat="43.038167" lon="-4.712750">
        <ele>3187.0</ele>
        <time>2013-09-04T13:44:00Z</time>
      </trkpt>
      <trkpt lat="43.038267" lon="-4.712800">
        <ele>3187.0</ele>
        <time>2013-09-04T13:44:01Z</time>
      </trkpt>
      <trkpt lat="43.038367" lon="-4.712883">
        <ele>3188.0</ele>
        <time>2013-09-04T13:44:02Z</time>
      </trkpt>
      <trkpt lat="43.038467" lon="-4.712983">
        <ele>3189.0</ele>
        <time>2013-09-04T13:44:03Z</time>
      </trkpt>
      <trkpt lat="43.038550" lon="-4.713100">
        <ele>3189.0</ele>
        <time>2013-09-04T13:44:04Z</time>
      </trkpt>
      <trkpt lat="43.038617" lon="-4.713267">
        <ele>3189.0</ele>
        <time>2013-09-04T13:44:05Z</time>
      </trkpt>
      <trkpt lat="43.038683" lon="-4.713433">
        <ele>3189.0</ele>
        <time>2013-09-04T13:44:06Z</time>
      </trkpt>
      <trkpt lat="43.038733" lon="-4.713600">
        <ele>3191.0</ele>
        <time>2013-09-04T13:44:07Z</time>
      </trkpt>
      <trkpt lat="43.038767" lon="-4.713767">
        <ele>3192.0</ele>
        <time>2013-09-04T13:44:08Z</time>
      </trkpt>
      <trkpt lat="43.038783" lon="-4.713917">
        <ele>3194.0</ele>
        <time>2013-09-04T13:44:09Z</time>
      </trkpt>
      <trkpt lat="43.038783" lon="-4.714067">
        <ele>3194.0</ele>
        <time>2013-09-04T13:44:10Z</time>
      </trkpt>
      <trkpt lat="43.038767" lon="-4.714200">
        <ele>3195.0</ele>
        <time>2013-09-04T13:44:11Z</time>
      </trkpt>
      <trkpt lat="43.038733" lon="-4.714317">
        <ele>3195.0</ele>
        <time>2013-09-04T13:44:12Z</time>
      </trkpt>
      <trkpt lat="43.038667" lon="-4.714417">
        <ele>3194.0</ele>
        <time>2013-09-04T13:44:13Z</time>
      </trkpt>
      <trkpt lat="43.038617" lon="-4.714483">
        <ele>3194.0</ele>
        <time>2013-09-04T13:44:14Z</time>
      </trkpt>
      <trkpt lat="43.038550" lon="-4.714517">
        <ele>3195.0</ele>
        <time>2013-09-04T13:44:15Z</time>
      </trkpt>
      <trkpt lat="43.038483" lon="-4.714550">
        <ele>3195.0</ele>
        <time>2013-09-04T13:44:16Z</time>
      </trkpt>
      <trkpt lat="43.038417" lon="-4.714583">
        <ele>3196.0</ele>
        <time>2013-09-04T13:44:17Z</time>
      </trkpt>
      <trkpt lat="43.038350" lon="-4.714600">
        <ele>3197.0</ele>
        <time>2013-09-04T13:44:18Z</time>
      </trkpt>
      <trkpt lat="43.038300" lon="-4.714617">
        <ele>3197.0</ele>
        <time>2013-09-04T13:44:19Z</time>
      </trkpt>
      <trkpt lat="43.038217" lon="-4.714617">
        <ele>3197.0</ele>
        <time>2013-09-04T13:44:20Z</time>
      </trkpt>
      <trkpt lat="43.038150" lon="-4.714583">
        <ele>3197.0</ele>
        <time>2013-09-04T13:44:21Z</time>
      </trkpt>
      <trkpt lat="43.038100" lon="-4.714550">
        <ele>3197.0</ele>
        <time>2013-09-04T13:44:22Z</time>
      </trkpt>
      <trkpt lat="43.038033" lon="-4.714533">
        <ele>3199.0</ele>
        <time>2013-09-04T13:44:23Z</time>
      </trkpt>
      <trkpt lat="43.038000" lon="-4.714517">
        <ele>3201.0</ele>
        <time>2013-09-04T13:44:24Z</time>
      </trkpt>
      <trkpt lat="43.037983" lon="-4.714517">
        <ele>3202.0</ele>
        <time>2013-09-04T13:44:25Z</time>
      </trkpt>
      <trkpt lat="43.037967" lon="-4.714533">
        <ele>3202.0</ele>
        <time>2013-09-04T13:44:26Z</time>
      </trkpt>
      <trkpt lat="43.037950" lon="-4.714533">
        <ele>3202.0</ele>
        <time>2013-09-04T13:44:27Z</time>
      </trkpt>
      <trkpt lat="43.037917" lon="-4.714517">
        <ele>3202.0</ele>
        <time>2013-09-04T13:44:28Z</time>
      </trkpt>
      <trkpt lat="43.037867" lon="-4.714483">
        <ele>3201.0</ele>
        <time>2013-09-04T13:44:29Z</time>
      </trkpt>
      <trkpt lat="43.037833" lon="-4.714433">
        <ele>3202.0</ele>
        <time>2013-09-04T13:44:30Z</time>
      </trkpt>
      <trkpt lat="43.037817" lon="-4.714400">
        <ele>3203.0</ele>
        <time>2013-09-04T13:44:31Z</time>
      </trkpt>
      <trkpt lat="43.037800" lon="-4.714350">
        <ele>3204.0</ele>
        <time>2013-09-04T13:44:32Z</time>
      </trkpt>
      <trkpt lat="43.037783" lon="-4.714317">
        <ele>3204.0</ele>
        <time>2013-09-04T13:44:33Z</time>
      </trkpt>
      <trkpt lat="43.037783" lon="-4.714283">
        <ele>3204.0</ele>
        <time>2013-09-04T13:44:34Z</time>
      </trkpt>
      <trkpt lat="43.037750" lon="-4.714250">
        <ele>3204.0</ele>
        <time>2013-09-04T13:44:35Z</time>
      </trkpt>
      <trkpt lat="43.037717" lon="-4.714217">
        <ele>3204.0</ele>
        <time>2013-09-04T13:44:36Z</time>
      </trkpt>
      <trkpt lat="43.037683" lon="-4.714183">
        <ele>3204.0</ele>
        <time>2013-09-04T13:44:37Z</time>
      </trkpt>
      <trkpt lat="43.037617" lon="-4.714150">
        <ele>3205.0</ele>
        <time>2013-09-04T13:44:38Z</time>
      </trkpt>
      <trkpt lat="43.037567" lon="-4.714133">
        <ele>3206.0</ele>
        <time>2013-09-04T13:44:39Z</time>
      </trkpt>
      <trkpt lat="43.037517" lon="-4.714133">
        <ele>3208.0</ele>
        <time>2013-09-04T13:44:40Z</time>
      </trkpt>
      <trkpt lat="43.037483" lon="-4.714117">
        <ele>3209.0</ele>
        <time>2013-09-04T13:44:41Z</time>
      </trkpt>
      <trkpt lat="43.037450" lon="-4.714100">
        <ele>3209.0</ele>
        <time>2013-09-04T13:44:42Z</time>
      </trkpt>
      <trkpt lat="43.037400" lon="-4.714067">
        <ele>3209.0</ele>
        <time>2013-09-04T13:44:43Z</time>
      </trkpt>
      <trkpt lat="43.037367" lon="-4.714033">
        <ele>3209.0</ele>
        <time>2013-09-04T13:44:44Z</time>
      </trkpt>
      <trkpt lat="43.037317" lon="-4.713983">
        <ele>3208.0</ele>
        <time>2013-09-04T13:44:45Z</time>
      </trkpt>
      <trkpt lat="43.037267" lon="-4.713950">
        <ele>3208.0</ele>
        <time>2013-09-04T13:44:46Z</time>
      </trkpt>
      <trkpt lat="43.037217" lon="-4.713900">
        <ele>3208.0</ele>
        <time>2013-09-04T13:44:47Z</time>
      </trkpt>
      <trkpt lat="43.037167" lon="-4.713883">
        <ele>3208.0</ele>
        <time>2013-09-04T13:44:48Z</time>
      </trkpt>
      <trkpt lat="43.037117" lon="-4.713867">
        <ele>3208.0</ele>
        <time>2013-09-04T13:44:49Z</time>
      </trkpt>
      <trkpt lat="43.037067" lon="-4.713833">
        <ele>3208.0</ele>
        <time>2013-09-04T13:44:50Z</time>
      </trkpt>
      <trkpt lat="43.037000" lon="-4.713817">
        <ele>3207.0</ele>
        <time>2013-09-04T13:44:51Z</time>
      </trkpt>
      <trkpt lat="43.036933" lon="-4.713817">
        <ele>3206.0</ele>
        <time>2013-09-04T13:44:52Z</time>
      </trkpt>
      <trkpt lat="43.036867" lon="-4.713833">
        <ele>3206.0</ele>
        <time>2013-09-04T13:44:53Z</time>
      </trkpt>
      <trkpt lat="43.036817" lon="-4.713867">
        <ele>3206.0</ele>
        <time>2013-09-04T13:44:54Z</time>
      </trkpt>
      <trkpt lat="43.036767" lon="-4.713883">
        <ele>3206.0</ele>
        <time>2013-09-04T13:44:55Z</time>
      </trkpt>
      <trkpt lat="43.036700" lon="-4.713917">
        <ele>3206.0</ele>
        <time>2013-09-04T13:44:56Z</time>
      </trkpt>
      <trkpt lat="43.036650" lon="-4.713950">
        <ele>3206.0</ele>
        <time>2013-09-04T13:44:57Z</time>
      </trkpt>
      <trkpt lat="43.036583" lon="-4.713967">
        <ele>3205.0</ele>
        <time>2013-09-04T13:44:58Z</time>
      </trkpt>
      <trkpt lat="43.036533" lon="-4.714000">
        <ele>3205.0</ele>
        <time>2013-09-04T13:44:59Z</time>
      </trkpt>
      <trkpt lat="43.036467" lon="-4.714033">
        <ele>3205.0</ele>
        <time>2013-09-04T13:45:00Z</time>
      </trkpt>
      <trkpt lat="43.036400" lon="-4.714067">
        <ele>3204.0</ele>
        <time>2013-09-04T13:45:01Z</time>
      </trkpt>
      <trkpt lat="43.036350" lon="-4.714100">
        <ele>3204.0</ele>
        <time>2013-09-04T13:45:02Z</time>
      </trkpt>
      <trkpt lat="43.036283" lon="-4.714133">
        <ele>3203.0</ele>
        <time>2013-09-04T13:45:03Z</time>
      </trkpt>
      <trkpt lat="43.036217" lon="-4.714200">
        <ele>3202.0</ele>
        <time>2013-09-04T13:45:04Z</time>
      </trkpt>
      <trkpt lat="43.036167" lon="-4.714283">
        <ele>3201.0</ele>
        <time>2013-09-04T13:45:05Z</time>
      </trkpt>
      <trkpt lat="43.036133" lon="-4.714383">
        <ele>3199.0</ele>
        <time>2013-09-04T13:45:06Z</time>
      </trkpt>
      <trkpt lat="43.036083" lon="-4.714483">
        <ele>3197.0</ele>
        <time>2013-09-04T13:45:07Z</time>
      </trkpt>
      <trkpt lat="43.036050" lon="-4.714600">
        <ele>3196.0</ele>
        <time>2013-09-04T13:45:08Z</time>
      </trkpt>
      <trkpt lat="43.036017" lon="-4.714733">
        <ele>3194.0</ele>
        <time>2013-09-04T13:45:09Z</time>
      </trkpt>
      <trkpt lat="43.035983" lon="-4.714850">
        <ele>3193.0</ele>
        <time>2013-09-04T13:45:10Z</time>
      </trkpt>
      <trkpt lat="43.035967" lon="-4.714983">
        <ele>3191.0</ele>
        <time>2013-09-04T13:45:11Z</time>
      </trkpt>
      <trkpt lat="43.035933" lon="-4.715117">
        <ele>3189.0</ele>
        <time>2013-09-04T13:45:12Z</time>
      </trkpt>
      <trkpt lat="43.035917" lon="-4.715250">
        <ele>3189.0</ele>
        <time>2013-09-04T13:45:13Z</time>
      </trkpt>
      <trkpt lat="43.035900" lon="-4.715367">
        <ele>3188.0</ele>
        <time>2013-09-04T13:45:14Z</time>
      </trkpt>
      <trkpt lat="43.035883" lon="-4.715467">
        <ele>3188.0</ele>
        <time>2013-09-04T13:45:15Z</time>
      </trkpt>
      <trkpt lat="43.035867" lon="-4.715583">
        <ele>3186.0</ele>
        <time>2013-09-04T13:45:16Z</time>
      </trkpt>
      <trkpt lat="43.035850" lon="-4.715717">
        <ele>3183.0</ele>
        <time>2013-09-04T13:45:17Z</time>
      </trkpt>
      <trkpt lat="43.035833" lon="-4.715867">
        <ele>3180.0</ele>
        <time>2013-09-04T13:45:18Z</time>
      </trkpt>
      <trkpt lat="43.035800" lon="-4.716017">
        <ele>3177.0</ele>
        <time>2013-09-04T13:45:19Z</time>
      </trkpt>
      <trkpt lat="43.035783" lon="-4.716150">
        <ele>3175.0</ele>
        <time>2013-09-04T13:45:20Z</time>
      </trkpt>
      <trkpt lat="43.035750" lon="-4.716283">
        <ele>3174.0</ele>
        <time>2013-09-04T13:45:21Z</time>
      </trkpt>
      <trkpt lat="43.035733" lon="-4.716400">
        <ele>3173.0</ele>
        <time>2013-09-04T13:45:22Z</time>
      </trkpt>
      <trkpt lat="43.035733" lon="-4.716533">
        <ele>3172.0</ele>
        <time>2013-09-04T13:45:23Z</time>
      </trkpt>
      <trkpt lat="43.035717" lon="-4.716667">
        <ele>3169.0</ele>
        <time>2013-09-04T13:45:24Z</time>
      </trkpt>
      <trkpt lat="43.035683" lon="-4.716800">
        <ele>3167.0</ele>
        <time>2013-09-04T13:45:25Z</time>
      </trkpt>
      <trkpt lat="43.035650" lon="-4.716933">
        <ele>3165.0</ele>
        <time>2013-09-04T13:45:26Z</time>
      </trkpt>
      <trkpt lat="43.035617" lon="-4.717067">
        <ele>3162.0</ele>
        <time>2013-09-04T13:45:27Z</time>
      </trkpt>
      <trkpt lat="43.035583" lon="-4.717200">
        <ele>3160.0</ele>
        <time>2013-09-04T13:45:28Z</time>
      </trkpt>
      <trkpt lat="43.035533" lon="-4.717300">
        <ele>3158.0</ele>
        <time>2013-09-04T13:45:29Z</time>
      </trkpt>
      <trkpt lat="43.035483" lon="-4.717417">
        <ele>3156.0</ele>
        <time>2013-09-04T13:45:30Z</time>
      </trkpt>
      <trkpt lat="43.035450" lon="-4.717533">
        <ele>3154.0</ele>
        <time>2013-09-04T13:45:31Z</time>
      </trkpt>
      <trkpt lat="43.035400" lon="-4.717650">
        <ele>3151.0</ele>
        <time>2013-09-04T13:45:32Z</time>
      </trkpt>
      <trkpt lat="43.035350" lon="-4.717750">
        <ele>3149.0</ele>
        <time>2013-09-04T13:45:33Z</time>
      </trkpt>
      <trkpt lat="43.035283" lon="-4.717850">
        <ele>3146.0</ele>
        <time>2013-09-04T13:45:34Z</time>
      </trkpt>
      <trkpt lat="43.035217" lon="-4.717933">
        <ele>3144.0</ele>
        <time>2013-09-04T13:45:35Z</time>
      </trkpt>
      <trkpt lat="43.035167" lon="-4.718017">
        <ele>3141.0</ele>
        <time>2013-09-04T13:45:36Z</time>
      </trkpt>
      <trkpt lat="43.035100" lon="-4.718117">
        <ele>3139.0</ele>
        <time>2013-09-04T13:45:37Z</time>
      </trkpt>
      <trkpt lat="43.035033" lon="-4.718200">
        <ele>3136.0</ele>
        <time>2013-09-04T13:45:38Z</time>
      </trkpt>
      <trkpt lat="43.034967" lon="-4.718283">
        <ele>3133.0</ele>
        <time>2013-09-04T13:45:39Z</time>
      </trkpt>
      <trkpt lat="43.034883" lon="-4.718383">
        <ele>3131.0</ele>
        <time>2013-09-04T13:45:40Z</time>
      </trkpt>
      <trkpt lat="43.034833" lon="-4.718483">
        <ele>3129.0</ele>
        <time>2013-09-04T13:45:41Z</time>
      </trkpt>
      <trkpt lat="43.034767" lon="-4.718600">
        <ele>3127.0</ele>
        <time>2013-09-04T13:45:42Z</time>
      </trkpt>
      <trkpt lat="43.034717" lon="-4.718717">
        <ele>3125.0</ele>
        <time>2013-09-04T13:45:43Z</time>
      </trkpt>
      <trkpt lat="43.034667" lon="-4.718833">
        <ele>3123.0</ele>
        <time>2013-09-04T13:45:44Z</time>
      </trkpt>
      <trkpt lat="43.034600" lon="-4.718950">
        <ele>3122.0</ele>
        <time>2013-09-04T13:45:45Z</time>
      </trkpt>
      <trkpt lat="43.034533" lon="-4.719067">
        <ele>3122.0</ele>
        <time>2013-09-04T13:45:46Z</time>
      </trkpt>
      <trkpt lat="43.034483" lon="-4.719183">
        <ele>3121.0</ele>
        <time>2013-09-04T13:45:47Z</time>
      </trkpt>
      <trkpt lat="43.034417" lon="-4.719283">
        <ele>3120.0</ele>
        <time>2013-09-04T13:45:48Z</time>
      </trkpt>
      <trkpt lat="43.034350" lon="-4.719383">
        <ele>3118.0</ele>
        <time>2013-09-04T13:45:49Z</time>
      </trkpt>
      <trkpt lat="43.034283" lon="-4.719483">
        <ele>3116.0</ele>
        <time>2013-09-04T13:45:50Z</time>
      </trkpt>
      <trkpt lat="43.034217" lon="-4.719600">
        <ele>3114.0</ele>
        <time>2013-09-04T13:45:51Z</time>
      </trkpt>
      <trkpt lat="43.034150" lon="-4.719717">
        <ele>3112.0</ele>
        <time>2013-09-04T13:45:52Z</time>
      </trkpt>
      <trkpt lat="43.034083" lon="-4.719817">
        <ele>3110.0</ele>
        <time>2013-09-04T13:45:53Z</time>
      </trkpt>
      <trkpt lat="43.034000" lon="-4.719917">
        <ele>3107.0</ele>
        <time>2013-09-04T13:45:54Z</time>
      </trkpt>
      <trkpt lat="43.033917" lon="-4.720000">
        <ele>3105.0</ele>
        <time>2013-09-04T13:45:55Z</time>
      </trkpt>
      <trkpt lat="43.033817" lon="-4.720067">
        <ele>3102.0</ele>
        <time>2013-09-04T13:45:56Z</time>
      </trkpt>
      <trkpt lat="43.033733" lon="-4.720133">
        <ele>3100.0</ele>
        <time>2013-09-04T13:45:57Z</time>
      </trkpt>
      <trkpt lat="43.033650" lon="-4.720217">
        <ele>3099.0</ele>
        <time>2013-09-04T13:45:58Z</time>
      </trkpt>
      <trkpt lat="43.033550" lon="-4.720300">
        <ele>3097.0</ele>
        <time>2013-09-04T13:45:59Z</time>
      </trkpt>
      <trkpt lat="43.033467" lon="-4.720367">
        <ele>3095.0</ele>
        <time>2013-09-04T13:46:00Z</time>
      </trkpt>
      <trkpt lat="43.033383" lon="-4.720450">
        <ele>3093.0</ele>
        <time>2013-09-04T13:46:01Z</time>
      </trkpt>
      <trkpt lat="43.033283" lon="-4.720533">
        <ele>3091.0</ele>
        <time>2013-09-04T13:46:02Z</time>
      </trkpt>
      <trkpt lat="43.033200" lon="-4.720617">
        <ele>3089.0</ele>
        <time>2013-09-04T13:46:03Z</time>
      </trkpt>
      <trkpt lat="43.033117" lon="-4.720700">
        <ele>3087.0</ele>
        <time>2013-09-04T13:46:04Z</time>
      </trkpt>
      <trkpt lat="43.033017" lon="-4.720783">
        <ele>3085.0</ele>
        <time>2013-09-04T13:46:05Z</time>
      </trkpt>
      <trkpt lat="43.032933" lon="-4.720850">
        <ele>3083.0</ele>
        <time>2013-09-04T13:46:06Z</time>
      </trkpt>
      <trkpt lat="43.032833" lon="-4.720933">
        <ele>3081.0</ele>
        <time>2013-09-04T13:46:07Z</time>
      </trkpt>
      <trkpt lat="43.032733" lon="-4.721017">
        <ele>3079.0</ele>
        <time>2013-09-04T13:46:08Z</time>
      </trkpt>
      <trkpt lat="43.032650" lon="-4.721100">
        <ele>3077.0</ele>
        <time>2013-09-04T13:46:09Z</time>
      </trkpt>
      <trkpt lat="43.032567" lon="-4.721183">
        <ele>3075.0</ele>
        <time>2013-09-04T13:46:10Z</time>
      </trkpt>
      <trkpt lat="43.032483" lon="-4.721283">
        <ele>3073.0</ele>
        <time>2013-09-04T13:46:11Z</time>
      </trkpt>
      <trkpt lat="43.032400" lon="-4.721383">
        <ele>3071.0</ele>
        <time>2013-09-04T13:46:12Z</time>
      </trkpt>
      <trkpt lat="43.032317" lon="-4.721467">
        <ele>3068.0</ele>
        <time>2013-09-04T13:46:13Z</time>
      </trkpt>
      <trkpt lat="43.032233" lon="-4.721567">
        <ele>3066.0</ele>
        <time>2013-09-04T13:46:14Z</time>
      </trkpt>
      <trkpt lat="43.032133" lon="-4.721650">
        <ele>3064.0</ele>
        <time>2013-09-04T13:46:15Z</time>
      </trkpt>
      <trkpt lat="43.032050" lon="-4.721750">
        <ele>3062.0</ele>
        <time>2013-09-04T13:46:16Z</time>
      </trkpt>
      <trkpt lat="43.031967" lon="-4.721850">
        <ele>3061.0</ele>
        <time>2013-09-04T13:46:17Z</time>
      </trkpt>
      <trkpt lat="43.031883" lon="-4.721933">
        <ele>3059.0</ele>
        <time>2013-09-04T13:46:18Z</time>
      </trkpt>
      <trkpt lat="43.031800" lon="-4.722017">
        <ele>3057.0</ele>
        <time>2013-09-04T13:46:19Z</time>
      </trkpt>
      <trkpt lat="43.031717" lon="-4.722117">
        <ele>3054.0</ele>
        <time>2013-09-04T13:46:20Z</time>
      </trkpt>
      <trkpt lat="43.031633" lon="-4.722200">
        <ele>3052.0</ele>
        <time>2013-09-04T13:46:21Z</time>
      </trkpt>
      <trkpt lat="43.031533" lon="-4.722283">
        <ele>3049.0</ele>
        <time>2013-09-04T13:46:22Z</time>
      </trkpt>
      <trkpt lat="43.031450" lon="-4.722383">
        <ele>3047.0</ele>
        <time>2013-09-04T13:46:23Z</time>
      </trkpt>
      <trkpt lat="43.031367" lon="-4.722483">
        <ele>3046.0</ele>
        <time>2013-09-04T13:46:24Z</time>
      </trkpt>
      <trkpt lat="43.031283" lon="-4.722567">
        <ele>3043.0</ele>
        <time>2013-09-04T13:46:25Z</time>
      </trkpt>
      <trkpt lat="43.031217" lon="-4.722650">
        <ele>3040.0</ele>
        <time>2013-09-04T13:46:26Z</time>
      </trkpt>
      <trkpt lat="43.031150" lon="-4.722717">
        <ele>3038.0</ele>
        <time>2013-09-04T13:46:27Z</time>
      </trkpt>
      <trkpt lat="43.031083" lon="-4.722817">
        <ele>3034.0</ele>
        <time>2013-09-04T13:46:28Z</time>
      </trkpt>
      <trkpt lat="43.031033" lon="-4.722900">
        <ele>3030.0</ele>
        <time>2013-09-04T13:46:29Z</time>
      </trkpt>
      <trkpt lat="43.030967" lon="-4.723000">
        <ele>3025.0</ele>
        <time>2013-09-04T13:46:30Z</time>
      </trkpt>
      <trkpt lat="43.030900" lon="-4.723083">
        <ele>3020.0</ele>
        <time>2013-09-04T13:46:31Z</time>
      </trkpt>
      <trkpt lat="43.030817" lon="-4.723167">
        <ele>3014.0</ele>
        <time>2013-09-04T13:46:32Z</time>
      </trkpt>
      <trkpt lat="43.030733" lon="-4.723233">
        <ele>3009.0</ele>
        <time>2013-09-04T13:46:33Z</time>
      </trkpt>
      <trkpt lat="43.030633" lon="-4.723300">
        <ele>3004.0</ele>
        <time>2013-09-04T13:46:34Z</time>
      </trkpt>
      <trkpt lat="43.030517" lon="-4.723367">
        <ele>2999.0</ele>
        <time>2013-09-04T13:46:35Z</time>
      </trkpt>
      <trkpt lat="43.030417" lon="-4.723417">
        <ele>2994.0</ele>
        <time>2013-09-04T13:46:36Z</time>
      </trkpt>
      <trkpt lat="43.030317" lon="-4.723483">
        <ele>2992.0</ele>
        <time>2013-09-04T13:46:37Z</time>
      </trkpt>
      <trkpt lat="43.030217" lon="-4.723567">
        <ele>2989.0</ele>
        <time>2013-09-04T13:46:38Z</time>
      </trkpt>
      <trkpt lat="43.030117" lon="-4.723650">
        <ele>2988.0</ele>
        <time>2013-09-04T13:46:39Z</time>
      </trkpt>
      <trkpt lat="43.030017" lon="-4.723733">
        <ele>2987.0</ele>
        <time>2013-09-04T13:46:40Z</time>
      </trkpt>
      <trkpt lat="43.029933" lon="-4.723833">
        <ele>2986.0</ele>
        <time>2013-09-04T13:46:41Z</time>
      </trkpt>
      <trkpt lat="43.029833" lon="-4.723933">
        <ele>2985.0</ele>
        <time>2013-09-04T13:46:42Z</time>
      </trkpt>
      <trkpt lat="43.029733" lon="-4.724017">
        <ele>2984.0</ele>
        <time>2013-09-04T13:46:43Z</time>
      </trkpt>
      <trkpt lat="43.029633" lon="-4.724100">
        <ele>2982.0</ele>
        <time>2013-09-04T13:46:44Z</time>
      </trkpt>
      <trkpt lat="43.029517" lon="-4.724183">
        <ele>2980.0</ele>
        <time>2013-09-04T13:46:45Z</time>
      </trkpt>
      <trkpt lat="43.029417" lon="-4.724267">
        <ele>2979.0</ele>
        <time>2013-09-04T13:46:46Z</time>
      </trkpt>
      <trkpt lat="43.029317" lon="-4.724367">
        <ele>2980.0</ele>
        <time>2013-09-04T13:46:47Z</time>
      </trkpt>
      <trkpt lat="43.029233" lon="-4.724467">
        <ele>2980.0</ele>
        <time>2013-09-04T13:46:48Z</time>
      </trkpt>
      <trkpt lat="43.029133" lon="-4.724533">
        <ele>2979.0</ele>
        <time>2013-09-04T13:46:49Z</time>
      </trkpt>
      <trkpt lat="43.029050" lon="-4.724617">
        <ele>2978.0</ele>
        <time>2013-09-04T13:46:50Z</time>
      </trkpt>
      <trkpt lat="43.028950" lon="-4.724683">
        <ele>2977.0</ele>
        <time>2013-09-04T13:46:51Z</time>
      </trkpt>
      <trkpt lat="43.028833" lon="-4.724767">
        <ele>2975.0</ele>
        <time>2013-09-04T13:46:52Z</time>
      </trkpt>
      <trkpt lat="43.028733" lon="-4.724867">
        <ele>2974.0</ele>
        <time>2013-09-04T13:46:53Z</time>
      </trkpt>
      <trkpt lat="43.028633" lon="-4.724967">
        <ele>2974.0</ele>
        <time>2013-09-04T13:46:54Z</time>
      </trkpt>
      <trkpt lat="43.028533" lon="-4.725050">
        <ele>2973.0</ele>
        <time>2013-09-04T13:46:55Z</time>
      </trkpt>
      <trkpt lat="43.028433" lon="-4.725100">
        <ele>2973.0</ele>
        <time>2013-09-04T13:46:56Z</time>
      </trkpt>
      <trkpt lat="43.028333" lon="-4.725167">
        <ele>2972.0</ele>
        <time>2013-09-04T13:46:57Z</time>
      </trkpt>
      <trkpt lat="43.028217" lon="-4.725233">
        <ele>2971.0</ele>
        <time>2013-09-04T13:46:58Z</time>
      </trkpt>
      <trkpt lat="43.028100" lon="-4.725317">
        <ele>2971.0</ele>
        <time>2013-09-04T13:46:59Z</time>
      </trkpt>
      <trkpt lat="43.028000" lon="-4.725400">
        <ele>2970.0</ele>
        <time>2013-09-04T13:47:00Z</time>
      </trkpt>
      <trkpt lat="43.027900" lon="-4.725500">
        <ele>2971.0</ele>
        <time>2013-09-04T13:47:01Z</time>
      </trkpt>
      <trkpt lat="43.027800" lon="-4.725583">
        <ele>2971.0</ele>
        <time>2013-09-04T13:47:02Z</time>
      </trkpt>
      <trkpt lat="43.027717" lon="-4.725683">
        <ele>2971.0</ele>
        <time>2013-09-04T13:47:03Z</time>
      </trkpt>
      <trkpt lat="43.027633" lon="-4.725783">
        <ele>2971.0</ele>
        <time>2013-09-04T13:47:04Z</time>
      </trkpt>
      <trkpt lat="43.027550" lon="-4.725867">
        <ele>2971.0</ele>
        <time>2013-09-04T13:47:05Z</time>
      </trkpt>
      <trkpt lat="43.027483" lon="-4.725967">
        <ele>2971.0</ele>
        <time>2013-09-04T13:47:06Z</time>
      </trkpt>
      <trkpt lat="43.027417" lon="-4.726050">
        <ele>2971.0</ele>
        <time>2013-09-04T13:47:07Z</time>
      </trkpt>
      <trkpt lat="43.027350" lon="-4.726150">
        <ele>2969.0</ele>
        <time>2013-09-04T13:47:08Z</time>
      </trkpt>
      <trkpt lat="43.027283" lon="-4.726233">
        <ele>2967.0</ele>
        <time>2013-09-04T13:47:09Z</time>
      </trkpt>
      <trkpt lat="43.027200" lon="-4.726317">
        <ele>2965.0</ele>
        <time>2013-09-04T13:47:10Z</time>
      </trkpt>
      <trkpt lat="43.027133" lon="-4.726417">
        <ele>2963.0</ele>
        <time>2013-09-04T13:47:11Z</time>
      </trkpt>
      <trkpt lat="43.027050" lon="-4.726517">
        <ele>2961.0</ele>
        <time>2013-09-04T13:47:12Z</time>
      </trkpt>
      <trkpt lat="43.026967" lon="-4.726617">
        <ele>2958.0</ele>
        <time>2013-09-04T13:47:13Z</time>
      </trkpt>
      <trkpt lat="43.026883" lon="-4.726750">
        <ele>2956.0</ele>
        <time>2013-09-04T13:47:14Z</time>
      </trkpt>
      <trkpt lat="43.026800" lon="-4.726867">
        <ele>2954.0</ele>
        <time>2013-09-04T13:47:15Z</time>
      </trkpt>
      <trkpt lat="43.026717" lon="-4.726983">
        <ele>2954.0</ele>
        <time>2013-09-04T13:47:16Z</time>
      </trkpt>
      <trkpt lat="43.026633" lon="-4.727100">
        <ele>2953.0</ele>
        <time>2013-09-04T13:47:17Z</time>
      </trkpt>
      <trkpt lat="43.026550" lon="-4.727217">
        <ele>2952.0</ele>
        <time>2013-09-04T13:47:18Z</time>
      </trkpt>
      <trkpt lat="43.026483" lon="-4.727333">
        <ele>2951.0</ele>
        <time>2013-09-04T13:47:19Z</time>
      </trkpt>
      <trkpt lat="43.026400" lon="-4.727433">
        <ele>2950.0</ele>
        <time>2013-09-04T13:47:20Z</time>
      </trkpt>
      <trkpt lat="43.026317" lon="-4.727550">
        <ele>2949.0</ele>
        <time>2013-09-04T13:47:21Z</time>
      </trkpt>
      <trkpt lat="43.026233" lon="-4.727650">
        <ele>2949.0</ele>
        <time>2013-09-04T13:47:22Z</time>
      </trkpt>
      <trkpt lat="43.026150" lon="-4.727750">
        <ele>2948.0</ele>
        <time>2013-09-04T13:47:23Z</time>
      </trkpt>
      <trkpt lat="43.026083" lon="-4.727850">
        <ele>2947.0</ele>
        <time>2013-09-04T13:47:24Z</time>
      </trkpt>
      <trkpt lat="43.026017" lon="-4.727950">
        <ele>2946.0</ele>
        <time>2013-09-04T13:47:25Z</time>
      </trkpt>
      <trkpt lat="43.025950" lon="-4.728050">
        <ele>2945.0</ele>
        <time>2013-09-04T13:47:26Z</time>
      </trkpt>
      <trkpt lat="43.025867" lon="-4.728150">
        <ele>2943.0</ele>
        <time>2013-09-04T13:47:27Z</time>
      </trkpt>
      <trkpt lat="43.025783" lon="-4.728250">
        <ele>2942.0</ele>
        <time>2013-09-04T13:47:28Z</time>
      </trkpt>
      <trkpt lat="43.025700" lon="-4.728367">
        <ele>2942.0</ele>
        <time>2013-09-04T13:47:29Z</time>
      </trkpt>
      <trkpt lat="43.025633" lon="-4.728467">
        <ele>2942.0</ele>
        <time>2013-09-04T13:47:30Z</time>
      </trkpt>
      <trkpt lat="43.025567" lon="-4.728567">
        <ele>2941.0</ele>
        <time>2013-09-04T13:47:31Z</time>
      </trkpt>
      <trkpt lat="43.025500" lon="-4.728667">
        <ele>2939.0</ele>
        <time>2013-09-04T13:47:32Z</time>
      </trkpt>
      <trkpt lat="43.025417" lon="-4.728767">
        <ele>2937.0</ele>
        <time>2013-09-04T13:47:33Z</time>
      </trkpt>
      <trkpt lat="43.025333" lon="-4.728883">
        <ele>2936.0</ele>
        <time>2013-09-04T13:47:34Z</time>
      </trkpt>
      <trkpt lat="43.025267" lon="-4.729017">
        <ele>2935.0</ele>
        <time>2013-09-04T13:47:35Z</time>
      </trkpt>
      <trkpt lat="43.025200" lon="-4.729133">
        <ele>2935.0</ele>
        <time>2013-09-04T13:47:36Z</time>
      </trkpt>
      <trkpt lat="43.025133" lon="-4.729250">
        <ele>2936.0</ele>
        <time>2013-09-04T13:47:37Z</time>
      </trkpt>
      <trkpt lat="43.025083" lon="-4.729367">
        <ele>2936.0</ele>
        <time>2013-09-04T13:47:38Z</time>
      </trkpt>
      <trkpt lat="43.025017" lon="-4.729483">
        <ele>2936.0</ele>
        <time>2013-09-04T13:47:39Z</time>
      </trkpt>
      <trkpt lat="43.024950" lon="-4.729617">
        <ele>2935.0</ele>
        <time>2013-09-04T13:47:40Z</time>
      </trkpt>
      <trkpt lat="43.024883" lon="-4.729750">
        <ele>2935.0</ele>
        <time>2013-09-04T13:47:41Z</time>
      </trkpt>
      <trkpt lat="43.024817" lon="-4.729883">
        <ele>2936.0</ele>
        <time>2013-09-04T13:47:42Z</time>
      </trkpt>
      <trkpt lat="43.024750" lon="-4.730017">
        <ele>2937.0</ele>
        <time>2013-09-04T13:47:43Z</time>
      </trkpt>
      <trkpt lat="43.024683" lon="-4.730117">
        <ele>2938.0</ele>
        <time>2013-09-04T13:47:44Z</time>
      </trkpt>
      <trkpt lat="43.024633" lon="-4.730217">
        <ele>2938.0</ele>
        <time>2013-09-04T13:47:45Z</time>
      </trkpt>
      <trkpt lat="43.024567" lon="-4.730333">
        <ele>2937.0</ele>
        <time>2013-09-04T13:47:46Z</time>
      </trkpt>
      <trkpt lat="43.024500" lon="-4.730450">
        <ele>2936.0</ele>
        <time>2013-09-04T13:47:47Z</time>
      </trkpt>
      <trkpt lat="43.024450" lon="-4.730567">
        <ele>2936.0</ele>
        <time>2013-09-04T13:47:48Z</time>
      </trkpt>
      <trkpt lat="43.024383" lon="-4.730667">
        <ele>2937.0</ele>
        <time>2013-09-04T13:47:49Z</time>
      </trkpt>
      <trkpt lat="43.024317" lon="-4.730783">
        <ele>2937.0</ele>
        <time>2013-09-04T13:47:50Z</time>
      </trkpt>
      <trkpt lat="43.024250" lon="-4.730900">
        <ele>2937.0</ele>
        <time>2013-09-04T13:47:51Z</time>
      </trkpt>
      <trkpt lat="43.024183" lon="-4.731017">
        <ele>2937.0</ele>
        <time>2013-09-04T13:47:52Z</time>
      </trkpt>
      <trkpt lat="43.024117" lon="-4.731133">
        <ele>2935.0</ele>
        <time>2013-09-04T13:47:53Z</time>
      </trkpt>
      <trkpt lat="43.024050" lon="-4.731267">
        <ele>2933.0</ele>
        <time>2013-09-04T13:47:54Z</time>
      </trkpt>
      <trkpt lat="43.023967" lon="-4.731417">
        <ele>2932.0</ele>
        <time>2013-09-04T13:47:55Z</time>
      </trkpt>
      <trkpt lat="43.023900" lon="-4.731550">
        <ele>2931.0</ele>
        <time>2013-09-04T13:47:56Z</time>
      </trkpt>
      <trkpt lat="43.023833" lon="-4.731683">
        <ele>2932.0</ele>
        <time>2013-09-04T13:47:57Z</time>
      </trkpt>
      <trkpt lat="43.023783" lon="-4.731833">
        <ele>2932.0</ele>
        <time>2013-09-04T13:47:58Z</time>
      </trkpt>
      <trkpt lat="43.023750" lon="-4.731967">
        <ele>2932.0</ele>
        <time>2013-09-04T13:47:59Z</time>
      </trkpt>
      <trkpt lat="43.023733" lon="-4.732100">
        <ele>2933.0</ele>
        <time>2013-09-04T13:48:00Z</time>
      </trkpt>
      <trkpt lat="43.023700" lon="-4.732233">
        <ele>2933.0</ele>
        <time>2013-09-04T13:48:01Z</time>
      </trkpt>
      <trkpt lat="43.023683" lon="-4.732367">
        <ele>2933.0</ele>
        <time>2013-09-04T13:48:02Z</time>
      </trkpt>
      <trkpt lat="43.023650" lon="-4.732467">
        <ele>2932.0</ele>
        <time>2013-09-04T13:48:03Z</time>
      </trkpt>
      <trkpt lat="43.023600" lon="-4.732567">
        <ele>2932.0</ele>
        <time>2013-09-04T13:48:04Z</time>
      </trkpt>
      <trkpt lat="43.023567" lon="-4.732667">
        <ele>2931.0</ele>
        <time>2013-09-04T13:48:05Z</time>
      </trkpt>
      <trkpt lat="43.023517" lon="-4.732783">
        <ele>2930.0</ele>
        <time>2013-09-04T13:48:06Z</time>
      </trkpt>
      <trkpt lat="43.023450" lon="-4.732917">
        <ele>2928.0</ele>
        <time>2013-09-04T13:48:07Z</time>
      </trkpt>
      <trkpt lat="43.023383" lon="-4.733067">
        <ele>2929.0</ele>
        <time>2013-09-04T13:48:08Z</time>
      </trkpt>
      <trkpt lat="43.023350" lon="-4.733200">
        <ele>2932.0</ele>
        <time>2013-09-04T13:48:09Z</time>
      </trkpt>
      <trkpt lat="43.023317" lon="-4.733317">
        <ele>2933.0</ele>
        <time>2013-09-04T13:48:10Z</time>
      </trkpt>
      <trkpt lat="43.023300" lon="-4.733433">
        <ele>2935.0</ele>
        <time>2013-09-04T13:48:11Z</time>
      </trkpt>
      <trkpt lat="43.023283" lon="-4.733550">
        <ele>2935.0</ele>
        <time>2013-09-04T13:48:12Z</time>
      </trkpt>
      <trkpt lat="43.023267" lon="-4.733650">
        <ele>2936.0</ele>
        <time>2013-09-04T13:48:13Z</time>
      </trkpt>
      <trkpt lat="43.023250" lon="-4.733750">
        <ele>2936.0</ele>
        <time>2013-09-04T13:48:14Z</time>
      </trkpt>
      <trkpt lat="43.023233" lon="-4.733833">
        <ele>2936.0</ele>
        <time>2013-09-04T13:48:15Z</time>
      </trkpt>
      <trkpt lat="43.023200" lon="-4.733917">
        <ele>2935.0</ele>
        <time>2013-09-04T13:48:16Z</time>
      </trkpt>
      <trkpt lat="43.023183" lon="-4.734000">
        <ele>2935.0</ele>
        <time>2013-09-04T13:48:17Z</time>
      </trkpt>
      <trkpt lat="43.023167" lon="-4.734083">
        <ele>2935.0</ele>
        <time>2013-09-04T13:48:18Z</time>
      </trkpt>
      <trkpt lat="43.023167" lon="-4.734183">
        <ele>2934.0</ele>
        <time>2013-09-04T13:48:19Z</time>
      </trkpt>
      <trkpt lat="43.023167" lon="-4.734267">
        <ele>2932.0</ele>
        <time>2013-09-04T13:48:20Z</time>
      </trkpt>
      <trkpt lat="43.023167" lon="-4.734383">
        <ele>2931.0</ele>
        <time>2013-09-04T13:48:21Z</time>
      </trkpt>
      <trkpt lat="43.023150" lon="-4.734483">
        <ele>2930.0</ele>
        <time>2013-09-04T13:48:22Z</time>
      </trkpt>
      <trkpt lat="43.023167" lon="-4.734600">
        <ele>2929.0</ele>
        <time>2013-09-04T13:48:23Z</time>
      </trkpt>
      <trkpt lat="43.023167" lon="-4.734717">
        <ele>2930.0</ele>
        <time>2013-09-04T13:48:24Z</time>
      </trkpt>
      <trkpt lat="43.023200" lon="-4.734850">
        <ele>2932.0</ele>
        <time>2013-09-04T13:48:25Z</time>
      </trkpt>
      <trkpt lat="43.023217" lon="-4.734950">
        <ele>2933.0</ele>
        <time>2013-09-04T13:48:26Z</time>
      </trkpt>
      <trkpt lat="43.023250" lon="-4.735050">
        <ele>2934.0</ele>
        <time>2013-09-04T13:48:27Z</time>
      </trkpt>
      <trkpt lat="43.023267" lon="-4.735150">
        <ele>2935.0</ele>
        <time>2013-09-04T13:48:28Z</time>
      </trkpt>
      <trkpt lat="43.023250" lon="-4.735250">
        <ele>2934.0</ele>
        <time>2013-09-04T13:48:29Z</time>
      </trkpt>
      <trkpt lat="43.023233" lon="-4.735317">
        <ele>2934.0</ele>
        <time>2013-09-04T13:48:30Z</time>
      </trkpt>
      <trkpt lat="43.023183" lon="-4.735400">
        <ele>2934.0</ele>
        <time>2013-09-04T13:48:31Z</time>
      </trkpt>
      <trkpt lat="43.023150" lon="-4.735467">
        <ele>2936.0</ele>
        <time>2013-09-04T13:48:32Z</time>
      </trkpt>
      <trkpt lat="43.023133" lon="-4.735533">
        <ele>2937.0</ele>
        <time>2013-09-04T13:48:33Z</time>
      </trkpt>
      <trkpt lat="43.023100" lon="-4.735600">
        <ele>2937.0</ele>
        <time>2013-09-04T13:48:34Z</time>
      </trkpt>
      <trkpt lat="43.023083" lon="-4.735650">
        <ele>2937.0</ele>
        <time>2013-09-04T13:48:35Z</time>
      </trkpt>
      <trkpt lat="43.023083" lon="-4.735683">
        <ele>2937.0</ele>
        <time>2013-09-04T13:48:36Z</time>
      </trkpt>
      <trkpt lat="43.023067" lon="-4.735733">
        <ele>2937.0</ele>
        <time>2013-09-04T13:48:37Z</time>
      </trkpt>
      <trkpt lat="43.023050" lon="-4.735767">
        <ele>2936.0</ele>
        <time>2013-09-04T13:48:38Z</time>
      </trkpt>
      <trkpt lat="43.023033" lon="-4.735800">
        <ele>2934.0</ele>
        <time>2013-09-04T13:48:39Z</time>
      </trkpt>
      <trkpt lat="43.022983" lon="-4.735817">
        <ele>2933.0</ele>
        <time>2013-09-04T13:48:40Z</time>
      </trkpt>
      <trkpt lat="43.022917" lon="-4.735833">
        <ele>2932.0</ele>
        <time>2013-09-04T13:48:41Z</time>
      </trkpt>
      <trkpt lat="43.022850" lon="-4.735850">
        <ele>2932.0</ele>
        <time>2013-09-04T13:48:42Z</time>
      </trkpt>
      <trkpt lat="43.022800" lon="-4.735867">
        <ele>2932.0</ele>
        <time>2013-09-04T13:48:43Z</time>
      </trkpt>
      <trkpt lat="43.022750" lon="-4.735900">
        <ele>2933.0</ele>
        <time>2013-09-04T13:48:44Z</time>
      </trkpt>
      <trkpt lat="43.022700" lon="-4.735917">
        <ele>2933.0</ele>
        <time>2013-09-04T13:48:45Z</time>
      </trkpt>
      <trkpt lat="43.022667" lon="-4.735950">
        <ele>2932.0</ele>
        <time>2013-09-04T13:48:46Z</time>
      </trkpt>
      <trkpt lat="43.022617" lon="-4.735967">
        <ele>2931.0</ele>
        <time>2013-09-04T13:48:47Z</time>
      </trkpt>
      <trkpt lat="43.022567" lon="-4.735967">
        <ele>2929.0</ele>
        <time>2013-09-04T13:48:48Z</time>
      </trkpt>
      <trkpt lat="43.022500" lon="-4.735983">
        <ele>2929.0</ele>
        <time>2013-09-04T13:48:49Z</time>
      </trkpt>
      <trkpt lat="43.022433" lon="-4.736000">
        <ele>2929.0</ele>
        <time>2013-09-04T13:48:50Z</time>
      </trkpt>
      <trkpt lat="43.022383" lon="-4.736017">
        <ele>2928.0</ele>
        <time>2013-09-04T13:48:51Z</time>
      </trkpt>
      <trkpt lat="43.022333" lon="-4.736033">
        <ele>2928.0</ele>
        <time>2013-09-04T13:48:52Z</time>
      </trkpt>
      <trkpt lat="43.022300" lon="-4.736050">
        <ele>2927.0</ele>
        <time>2013-09-04T13:48:53Z</time>
      </trkpt>
      <trkpt lat="43.022250" lon="-4.736067">
        <ele>2925.0</ele>
        <time>2013-09-04T13:48:54Z</time>
      </trkpt>
      <trkpt lat="43.022183" lon="-4.736100">
        <ele>2925.0</ele>
        <time>2013-09-04T13:48:55Z</time>
      </trkpt>
      <trkpt lat="43.022117" lon="-4.736133">
        <ele>2924.0</ele>
        <time>2013-09-04T13:48:56Z</time>
      </trkpt>
      <trkpt lat="43.022050" lon="-4.736167">
        <ele>2923.0</ele>
        <time>2013-09-04T13:48:57Z</time>
      </trkpt>
      <trkpt lat="43.022000" lon="-4.736200">
        <ele>2921.0</ele>
        <time>2013-09-04T13:48:58Z</time>
      </trkpt>
      <trkpt lat="43.021967" lon="-4.736233">
        <ele>2919.0</ele>
        <time>2013-09-04T13:48:59Z</time>
      </trkpt>
      <trkpt lat="43.021917" lon="-4.736267">
        <ele>2918.0</ele>
        <time>2013-09-04T13:49:00Z</time>
      </trkpt>
      <trkpt lat="43.021850" lon="-4.736317">
        <ele>2916.0</ele>
        <time>2013-09-04T13:49:01Z</time>
      </trkpt>
      <trkpt lat="43.021800" lon="-4.736383">
        <ele>2915.0</ele>
        <time>2013-09-04T13:49:02Z</time>
      </trkpt>
      <trkpt lat="43.021767" lon="-4.736467">
        <ele>2915.0</ele>
        <time>2013-09-04T13:49:03Z</time>
      </trkpt>
      <trkpt lat="43.021783" lon="-4.736583">
        <ele>2913.0</ele>
        <time>2013-09-04T13:49:04Z</time>
      </trkpt>
      <trkpt lat="43.021817" lon="-4.736717">
        <ele>2911.0</ele>
        <time>2013-09-04T13:49:05Z</time>
      </trkpt>
      <trkpt lat="43.021883" lon="-4.736850">
        <ele>2909.0</ele>
        <time>2013-09-04T13:49:06Z</time>
      </trkpt>
      <trkpt lat="43.021967" lon="-4.736983">
        <ele>2907.0</ele>
        <time>2013-09-04T13:49:07Z</time>
      </trkpt>
      <trkpt lat="43.022067" lon="-4.737100">
        <ele>2904.0</ele>
        <time>2013-09-04T13:49:08Z</time>
      </trkpt>
      <trkpt lat="43.022183" lon="-4.737217">
        <ele>2901.0</ele>
        <time>2013-09-04T13:49:09Z</time>
      </trkpt>
      <trkpt lat="43.022317" lon="-4.737333">
        <ele>2899.0</ele>
        <time>2013-09-04T13:49:10Z</time>
      </trkpt>
      <trkpt lat="43.022433" lon="-4.737433">
        <ele>2897.0</ele>
        <time>2013-09-04T13:49:11Z</time>
      </trkpt>
      <trkpt lat="43.022567" lon="-4.737517">
        <ele>2895.0</ele>
        <time>2013-09-04T13:49:12Z</time>
      </trkpt>
      <trkpt lat="43.022700" lon="-4.737583">
        <ele>2894.0</ele>
        <time>2013-09-04T13:49:13Z</time>
      </trkpt>
      <trkpt lat="43.022850" lon="-4.737650">
        <ele>2893.0</ele>
        <time>2013-09-04T13:49:14Z</time>
      </trkpt>
      <trkpt lat="43.022983" lon="-4.737700">
        <ele>2894.0</ele>
        <time>2013-09-04T13:49:15Z</time>
      </trkpt>
      <trkpt lat="43.023117" lon="-4.737750">
        <ele>2895.0</ele>
        <time>2013-09-04T13:49:16Z</time>
      </trkpt>
      <trkpt lat="43.023233" lon="-4.737817">
        <ele>2895.0</ele>
        <time>2013-09-04T13:49:17Z</time>
      </trkpt>
      <trkpt lat="43.023350" lon="-4.737867">
        <ele>2896.0</ele>
        <time>2013-09-04T13:49:18Z</time>
      </trkpt>
      <trkpt lat="43.023450" lon="-4.737933">
        <ele>2897.0</ele>
        <time>2013-09-04T13:49:19Z</time>
      </trkpt>
      <trkpt lat="43.023550" lon="-4.738000">
        <ele>2898.0</ele>
        <time>2013-09-04T13:49:20Z</time>
      </trkpt>
      <trkpt lat="43.023650" lon="-4.738083">
        <ele>2900.0</ele>
        <time>2013-09-04T13:49:21Z</time>
      </trkpt>
      <trkpt lat="43.023750" lon="-4.738183">
        <ele>2901.0</ele>
        <time>2013-09-04T13:49:22Z</time>
      </trkpt>
      <trkpt lat="43.023850" lon="-4.738300">
        <ele>2903.0</ele>
        <time>2013-09-04T13:49:23Z</time>
      </trkpt>
      <trkpt lat="43.023933" lon="-4.738417">
        <ele>2905.0</ele>
        <time>2013-09-04T13:49:24Z</time>
      </trkpt>
      <trkpt lat="43.024017" lon="-4.738550">
        <ele>2908.0</ele>
        <time>2013-09-04T13:49:25Z</time>
      </trkpt>
      <trkpt lat="43.024067" lon="-4.738667">
        <ele>2909.0</ele>
        <time>2013-09-04T13:49:26Z</time>
      </trkpt>
      <trkpt lat="43.024100" lon="-4.738817">
        <ele>2910.0</ele>
        <time>2013-09-04T13:49:27Z</time>
      </trkpt>
      <trkpt lat="43.024117" lon="-4.738983">
        <ele>2911.0</ele>
        <time>2013-09-04T13:49:28Z</time>
      </trkpt>
      <trkpt lat="43.024117" lon="-4.739133">
        <ele>2915.0</ele>
        <time>2013-09-04T13:49:29Z</time>
      </trkpt>
      <trkpt lat="43.024100" lon="-4.739250">
        <ele>2918.0</ele>
        <time>2013-09-04T13:49:30Z</time>
      </trkpt>
      <trkpt lat="43.024083" lon="-4.739333">
        <ele>2921.0</ele>
        <time>2013-09-04T13:49:31Z</time>
      </trkpt>
      <trkpt lat="43.024050" lon="-4.739367">
        <ele>2923.0</ele>
        <time>2013-09-04T13:49:32Z</time>
      </trkpt>
      <trkpt lat="43.024017" lon="-4.739367">
        <ele>2924.0</ele>
        <time>2013-09-04T13:49:33Z</time>
      </trkpt>
      <trkpt lat="43.024000" lon="-4.739333">
        <ele>2926.0</ele>
        <time>2013-09-04T13:49:34Z</time>
      </trkpt>
      <trkpt lat="43.024000" lon="-4.739283">
        <ele>2928.0</ele>
        <time>2013-09-04T13:49:35Z</time>
      </trkpt>
      <trkpt lat="43.024050" lon="-4.739200">
        <ele>2931.0</ele>
        <time>2013-09-04T13:49:36Z</time>
      </trkpt>
      <trkpt lat="43.024117" lon="-4.739150">
        <ele>2936.0</ele>
        <time>2013-09-04T13:49:37Z</time>
      </trkpt>
      <trkpt lat="43.024217" lon="-4.739117">
        <ele>2939.0</ele>
        <time>2013-09-04T13:49:38Z</time>
      </trkpt>
      <trkpt lat="43.024333" lon="-4.739117">
        <ele>2942.0</ele>
        <time>2013-09-04T13:49:39Z</time>
      </trkpt>
      <trkpt lat="43.024450" lon="-4.739183">
        <ele>2944.0</ele>
        <time>2013-09-04T13:49:40Z</time>
      </trkpt>
      <trkpt lat="43.024583" lon="-4.739267">
        <ele>2945.0</ele>
        <time>2013-09-04T13:49:41Z</time>
      </trkpt>
      <trkpt lat="43.024700" lon="-4.739400">
        <ele>2947.0</ele>
        <time>2013-09-04T13:49:42Z</time>
      </trkpt>
      <trkpt lat="43.024783" lon="-4.739533">
        <ele>2950.0</ele>
        <time>2013-09-04T13:49:43Z</time>
      </trkpt>
      <trkpt lat="43.024867" lon="-4.739683">
        <ele>2953.0</ele>
        <time>2013-09-04T13:49:44Z</time>
      </trkpt>
      <trkpt lat="43.024900" lon="-4.739833">
        <ele>2955.0</ele>
        <time>2013-09-04T13:49:45Z</time>
      </trkpt>
      <trkpt lat="43.024933" lon="-4.739983">
        <ele>2957.0</ele>
        <time>2013-09-04T13:49:46Z</time>
      </trkpt>
      <trkpt lat="43.024933" lon="-4.740133">
        <ele>2958.0</ele>
        <time>2013-09-04T13:49:47Z</time>
      </trkpt>
      <trkpt lat="43.024933" lon="-4.740267">
        <ele>2960.0</ele>
        <time>2013-09-04T13:49:48Z</time>
      </trkpt>
      <trkpt lat="43.024933" lon="-4.740350">
        <ele>2962.0</ele>
        <time>2013-09-04T13:49:49Z</time>
      </trkpt>
      <trkpt lat="43.024900" lon="-4.740417">
        <ele>2964.0</ele>
        <time>2013-09-04T13:49:50Z</time>
      </trkpt>
      <trkpt lat="43.024883" lon="-4.740467">
        <ele>2965.0</ele>
        <time>2013-09-04T13:49:51Z</time>
      </trkpt>
      <trkpt lat="43.024850" lon="-4.740500">
        <ele>2968.0</ele>
        <time>2013-09-04T13:49:52Z</time>
      </trkpt>
      <trkpt lat="43.024817" lon="-4.740517">
        <ele>2970.0</ele>
        <time>2013-09-04T13:49:53Z</time>
      </trkpt>
      <trkpt lat="43.024800" lon="-4.740500">
        <ele>2972.0</ele>
        <time>2013-09-04T13:49:54Z</time>
      </trkpt>
      <trkpt lat="43.024800" lon="-4.740450">
        <ele>2974.0</ele>
        <time>2013-09-04T13:49:55Z</time>
      </trkpt>
      <trkpt lat="43.024833" lon="-4.740383">
        <ele>2976.0</ele>
        <time>2013-09-04T13:49:56Z</time>
      </trkpt>
      <trkpt lat="43.024883" lon="-4.740317">
        <ele>2979.0</ele>
        <time>2013-09-04T13:49:57Z</time>
      </trkpt>
      <trkpt lat="43.024950" lon="-4.740250">
        <ele>2985.0</ele>
        <time>2013-09-04T13:49:58Z</time>
      </trkpt>
      <trkpt lat="43.025033" lon="-4.740217">
        <ele>2991.0</ele>
        <time>2013-09-04T13:49:59Z</time>
      </trkpt>
      <trkpt lat="43.025117" lon="-4.740183">
        <ele>2995.0</ele>
        <time>2013-09-04T13:50:00Z</time>
      </trkpt>
      <trkpt lat="43.025217" lon="-4.740183">
        <ele>2999.0</ele>
        <time>2013-09-04T13:50:01Z</time>
      </trkpt>
      <trkpt lat="43.025333" lon="-4.740200">
        <ele>3002.0</ele>
        <time>2013-09-04T13:50:02Z</time>
      </trkpt>
      <trkpt lat="43.025450" lon="-4.740233">
        <ele>3003.0</ele>
        <time>2013-09-04T13:50:03Z</time>
      </trkpt>
      <trkpt lat="43.025583" lon="-4.740300">
        <ele>3004.0</ele>
        <time>2013-09-04T13:50:04Z</time>
      </trkpt>
      <trkpt lat="43.025733" lon="-4.740400">
        <ele>3005.0</ele>
        <time>2013-09-04T13:50:05Z</time>
      </trkpt>
      <trkpt lat="43.025850" lon="-4.740533">
        <ele>3007.0</ele>
        <time>2013-09-04T13:50:06Z</time>
      </trkpt>
      <trkpt lat="43.025917" lon="-4.740700">
        <ele>3008.0</ele>
        <time>2013-09-04T13:50:07Z</time>
      </trkpt>
      <trkpt lat="43.025950" lon="-4.740867">
        <ele>3009.0</ele>
        <time>2013-09-04T13:50:08Z</time>
      </trkpt>
      <trkpt lat="43.025933" lon="-4.741000">
        <ele>3012.0</ele>
        <time>2013-09-04T13:50:09Z</time>
      </trkpt>
      <trkpt lat="43.025917" lon="-4.741083">
        <ele>3015.0</ele>
        <time>2013-09-04T13:50:10Z</time>
      </trkpt>
      <trkpt lat="43.025900" lon="-4.741133">
        <ele>3019.0</ele>
        <time>2013-09-04T13:50:11Z</time>
      </trkpt>
      <trkpt lat="43.025883" lon="-4.741167">
        <ele>3022.0</ele>
        <time>2013-09-04T13:50:12Z</time>
      </trkpt>
      <trkpt lat="43.025850" lon="-4.741217">
        <ele>3024.0</ele>
        <time>2013-09-04T13:50:13Z</time>
      </trkpt>
      <trkpt lat="43.025817" lon="-4.741217">
        <ele>3026.0</ele>
        <time>2013-09-04T13:50:14Z</time>
      </trkpt>
      <trkpt lat="43.025800" lon="-4.741200">
        <ele>3029.0</ele>
        <time>2013-09-04T13:50:15Z</time>
      </trkpt>
      <trkpt lat="43.025783" lon="-4.741150">
        <ele>3033.0</ele>
        <time>2013-09-04T13:50:16Z</time>
      </trkpt>
      <trkpt lat="43.025817" lon="-4.741100">
        <ele>3037.0</ele>
        <time>2013-09-04T13:50:17Z</time>
      </trkpt>
      <trkpt lat="43.025883" lon="-4.741050">
        <ele>3041.0</ele>
        <time>2013-09-04T13:50:18Z</time>
      </trkpt>
      <trkpt lat="43.025983" lon="-4.741017">
        <ele>3043.0</ele>
        <time>2013-09-04T13:50:19Z</time>
      </trkpt>
      <trkpt lat="43.026100" lon="-4.741000">
        <ele>3047.0</ele>
        <time>2013-09-04T13:50:20Z</time>
      </trkpt>
      <trkpt lat="43.026233" lon="-4.741033">
        <ele>3051.0</ele>
        <time>2013-09-04T13:50:21Z</time>
      </trkpt>
      <trkpt lat="43.026367" lon="-4.741100">
        <ele>3054.0</ele>
        <time>2013-09-04T13:50:22Z</time>
      </trkpt>
      <trkpt lat="43.026483" lon="-4.741233">
        <ele>3057.0</ele>
        <time>2013-09-04T13:50:23Z</time>
      </trkpt>
      <trkpt lat="43.026583" lon="-4.741383">
        <ele>3059.0</ele>
        <time>2013-09-04T13:50:24Z</time>
      </trkpt>
      <trkpt lat="43.026650" lon="-4.741550">
        <ele>3062.0</ele>
        <time>2013-09-04T13:50:25Z</time>
      </trkpt>
      <trkpt lat="43.026683" lon="-4.741717">
        <ele>3066.0</ele>
        <time>2013-09-04T13:50:26Z</time>
      </trkpt>
      <trkpt lat="43.026700" lon="-4.741850">
        <ele>3069.0</ele>
        <time>2013-09-04T13:50:27Z</time>
      </trkpt>
      <trkpt lat="43.026683" lon="-4.741950">
        <ele>3072.0</ele>
        <time>2013-09-04T13:50:28Z</time>
      </trkpt>
      <trkpt lat="43.026683" lon="-4.742067">
        <ele>3075.0</ele>
        <time>2013-09-04T13:50:29Z</time>
      </trkpt>
      <trkpt lat="43.026667" lon="-4.742167">
        <ele>3078.0</ele>
        <time>2013-09-04T13:50:30Z</time>
      </trkpt>
      <trkpt lat="43.026650" lon="-4.742250">
        <ele>3082.0</ele>
        <time>2013-09-04T13:50:31Z</time>
      </trkpt>
      <trkpt lat="43.026633" lon="-4.742283">
        <ele>3086.0</ele>
        <time>2013-09-04T13:50:32Z</time>
      </trkpt>
      <trkpt lat="43.026617" lon="-4.742283">
        <ele>3089.0</ele>
        <time>2013-09-04T13:50:33Z</time>
      </trkpt>
      <trkpt lat="43.026600" lon="-4.742267">
        <ele>3091.0</ele>
        <time>2013-09-04T13:50:34Z</time>
      </trkpt>
      <trkpt lat="43.026600" lon="-4.742200">
        <ele>3094.0</ele>
        <time>2013-09-04T13:50:35Z</time>
      </trkpt>
      <trkpt lat="43.026617" lon="-4.742150">
        <ele>3097.0</ele>
        <time>2013-09-04T13:50:36Z</time>
      </trkpt>
      <trkpt lat="43.026683" lon="-4.742083">
        <ele>3099.0</ele>
        <time>2013-09-04T13:50:37Z</time>
      </trkpt>
      <trkpt lat="43.026767" lon="-4.742000">
        <ele>3101.0</ele>
        <time>2013-09-04T13:50:38Z</time>
      </trkpt>
      <trkpt lat="43.026883" lon="-4.741950">
        <ele>3105.0</ele>
        <time>2013-09-04T13:50:39Z</time>
      </trkpt>
      <trkpt lat="43.027000" lon="-4.741933">
        <ele>3109.0</ele>
        <time>2013-09-04T13:50:40Z</time>
      </trkpt>
      <trkpt lat="43.027117" lon="-4.741950">
        <ele>3115.0</ele>
        <time>2013-09-04T13:50:41Z</time>
      </trkpt>
      <trkpt lat="43.027233" lon="-4.742000">
        <ele>3120.0</ele>
        <time>2013-09-04T13:50:42Z</time>
      </trkpt>
      <trkpt lat="43.027350" lon="-4.742033">
        <ele>3123.0</ele>
        <time>2013-09-04T13:50:43Z</time>
      </trkpt>
      <trkpt lat="43.027467" lon="-4.742083">
        <ele>3125.0</ele>
        <time>2013-09-04T13:50:44Z</time>
      </trkpt>
      <trkpt lat="43.027600" lon="-4.742150">
        <ele>3127.0</ele>
        <time>2013-09-04T13:50:45Z</time>
      </trkpt>
      <trkpt lat="43.027717" lon="-4.742250">
        <ele>3129.0</ele>
        <time>2013-09-04T13:50:46Z</time>
      </trkpt>
      <trkpt lat="43.027833" lon="-4.742400">
        <ele>3131.0</ele>
        <time>2013-09-04T13:50:47Z</time>
      </trkpt>
      <trkpt lat="43.027917" lon="-4.742583">
        <ele>3133.0</ele>
        <time>2013-09-04T13:50:48Z</time>
      </trkpt>
      <trkpt lat="43.027967" lon="-4.742767">
        <ele>3135.0</ele>
        <time>2013-09-04T13:50:49Z</time>
      </trkpt>
      <trkpt lat="43.027983" lon="-4.742917">
        <ele>3139.0</ele>
        <time>2013-09-04T13:50:50Z</time>
      </trkpt>
      <trkpt lat="43.028000" lon="-4.743050">
        <ele>3142.0</ele>
        <time>2013-09-04T13:50:51Z</time>
      </trkpt>
      <trkpt lat="43.028000" lon="-4.743150">
        <ele>3144.0</ele>
        <time>2013-09-04T13:50:52Z</time>
      </trkpt>
      <trkpt lat="43.028000" lon="-4.743267">
        <ele>3145.0</ele>
        <time>2013-09-04T13:50:53Z</time>
      </trkpt>
      <trkpt lat="43.027983" lon="-4.743367">
        <ele>3146.0</ele>
        <time>2013-09-04T13:50:54Z</time>
      </trkpt>
      <trkpt lat="43.027950" lon="-4.743450">
        <ele>3147.0</ele>
        <time>2013-09-04T13:50:55Z</time>
      </trkpt>
      <trkpt lat="43.027900" lon="-4.743517">
        <ele>3148.0</ele>
        <time>2013-09-04T13:50:56Z</time>
      </trkpt>
      <trkpt lat="43.027867" lon="-4.743533">
        <ele>3151.0</ele>
        <time>2013-09-04T13:50:57Z</time>
      </trkpt>
      <trkpt lat="43.027833" lon="-4.743517">
        <ele>3154.0</ele>
        <time>2013-09-04T13:50:58Z</time>
      </trkpt>
      <trkpt lat="43.027817" lon="-4.743500">
        <ele>3158.0</ele>
        <time>2013-09-04T13:50:59Z</time>
      </trkpt>
      <trkpt lat="43.027800" lon="-4.743483">
        <ele>3160.0</ele>
        <time>2013-09-04T13:51:00Z</time>
      </trkpt>
      <trkpt lat="43.027783" lon="-4.743500">
        <ele>3162.0</ele>
        <time>2013-09-04T13:51:01Z</time>
      </trkpt>
      <trkpt lat="43.027733" lon="-4.743517">
        <ele>3164.0</ele>
        <time>2013-09-04T13:51:02Z</time>
      </trkpt>
      <trkpt lat="43.027700" lon="-4.743500">
        <ele>3166.0</ele>
        <time>2013-09-04T13:51:03Z</time>
      </trkpt>
      <trkpt lat="43.027667" lon="-4.743433">
        <ele>3168.0</ele>
        <time>2013-09-04T13:51:04Z</time>
      </trkpt>
      <trkpt lat="43.027667" lon="-4.743350">
        <ele>3170.0</ele>
        <time>2013-09-04T13:51:05Z</time>
      </trkpt>
      <trkpt lat="43.027700" lon="-4.743267">
        <ele>3175.0</ele>
        <time>2013-09-04T13:51:06Z</time>
      </trkpt>
      <trkpt lat="43.027767" lon="-4.743200">
        <ele>3179.0</ele>
        <time>2013-09-04T13:51:07Z</time>
      </trkpt>
      <trkpt lat="43.027867" lon="-4.743167">
        <ele>3183.0</ele>
        <time>2013-09-04T13:51:08Z</time>
      </trkpt>
      <trkpt lat="43.027983" lon="-4.743167">
        <ele>3185.0</ele>
        <time>2013-09-04T13:51:09Z</time>
      </trkpt>
      <trkpt lat="43.028100" lon="-4.743167">
        <ele>3188.0</ele>
        <time>2013-09-04T13:51:10Z</time>
      </trkpt>
      <trkpt lat="43.028217" lon="-4.743183">
        <ele>3192.0</ele>
        <time>2013-09-04T13:51:11Z</time>
      </trkpt>
      <trkpt lat="43.028333" lon="-4.743200">
        <ele>3195.0</ele>
        <time>2013-09-04T13:51:12Z</time>
      </trkpt>
      <trkpt lat="43.028467" lon="-4.743233">
        <ele>3199.0</ele>
        <time>2013-09-04T13:51:13Z</time>
      </trkpt>
      <trkpt lat="43.028600" lon="-4.743283">
        <ele>3202.0</ele>
        <time>2013-09-04T13:51:14Z</time>
      </trkpt>
      <trkpt lat="43.028717" lon="-4.743383">
        <ele>3206.0</ele>
        <time>2013-09-04T13:51:15Z</time>
      </trkpt>
      <trkpt lat="43.028833" lon="-4.743483">
        <ele>3208.0</ele>
        <time>2013-09-04T13:51:16Z</time>
      </trkpt>
      <trkpt lat="43.028950" lon="-4.743583">
        <ele>3210.0</ele>
        <time>2013-09-04T13:51:17Z</time>
      </trkpt>
      <trkpt lat="43.029067" lon="-4.743683">
        <ele>3212.0</ele>
        <time>2013-09-04T13:51:18Z</time>
      </trkpt>
      <trkpt lat="43.029200" lon="-4.743767">
        <ele>3216.0</ele>
        <time>2013-09-04T13:51:19Z</time>
      </trkpt>
      <trkpt lat="43.029317" lon="-4.743867">
        <ele>3219.0</ele>
        <time>2013-09-04T13:51:20Z</time>
      </trkpt>
      <trkpt lat="43.029400" lon="-4.743967">
        <ele>3222.0</ele>
        <time>2013-09-04T13:51:21Z</time>
      </trkpt>
      <trkpt lat="43.029467" lon="-4.744100">
        <ele>3223.0</ele>
        <time>2013-09-04T13:51:22Z</time>
      </trkpt>
      <trkpt lat="43.029517" lon="-4.744283">
        <ele>3223.0</ele>
        <time>2013-09-04T13:51:23Z</time>
      </trkpt>
      <trkpt lat="43.029567" lon="-4.744483">
        <ele>3223.0</ele>
        <time>2013-09-04T13:51:24Z</time>
      </trkpt>
      <trkpt lat="43.029600" lon="-4.744683">
        <ele>3225.0</ele>
        <time>2013-09-04T13:51:25Z</time>
      </trkpt>
      <trkpt lat="43.029600" lon="-4.744833">
        <ele>3229.0</ele>
        <time>2013-09-04T13:51:26Z</time>
      </trkpt>
      <trkpt lat="43.029583" lon="-4.744950">
        <ele>3230.0</ele>
        <time>2013-09-04T13:51:27Z</time>
      </trkpt>
      <trkpt lat="43.029550" lon="-4.745050">
        <ele>3232.0</ele>
        <time>2013-09-04T13:51:28Z</time>
      </trkpt>
      <trkpt lat="43.029500" lon="-4.745133">
        <ele>3232.0</ele>
        <time>2013-09-04T13:51:29Z</time>
      </trkpt>
      <trkpt lat="43.029450" lon="-4.745183">
        <ele>3232.0</ele>
        <time>2013-09-04T13:51:30Z</time>
      </trkpt>
      <trkpt lat="43.029400" lon="-4.745200">
        <ele>3233.0</ele>
        <time>2013-09-04T13:51:31Z</time>
      </trkpt>
      <trkpt lat="43.029367" lon="-4.745217">
        <ele>3235.0</ele>
        <time>2013-09-04T13:51:32Z</time>
      </trkpt>
      <trkpt lat="43.029333" lon="-4.745233">
        <ele>3237.0</ele>
        <time>2013-09-04T13:51:33Z</time>
      </trkpt>
      <trkpt lat="43.029300" lon="-4.745233">
        <ele>3238.0</ele>
        <time>2013-09-04T13:51:34Z</time>
      </trkpt>
      <trkpt lat="43.029267" lon="-4.745217">
        <ele>3239.0</ele>
        <time>2013-09-04T13:51:35Z</time>
      </trkpt>
      <trkpt lat="43.029233" lon="-4.745183">
        <ele>3239.0</ele>
        <time>2013-09-04T13:51:36Z</time>
      </trkpt>
      <trkpt lat="43.029200" lon="-4.745150">
        <ele>3239.0</ele>
        <time>2013-09-04T13:51:37Z</time>
      </trkpt>
      <trkpt lat="43.029133" lon="-4.745117">
        <ele>3241.0</ele>
        <time>2013-09-04T13:51:38Z</time>
      </trkpt>
      <trkpt lat="43.029083" lon="-4.745100">
        <ele>3245.0</ele>
        <time>2013-09-04T13:51:39Z</time>
      </trkpt>
      <trkpt lat="43.029033" lon="-4.745117">
        <ele>3248.0</ele>
        <time>2013-09-04T13:51:40Z</time>
      </trkpt>
      <trkpt lat="43.029000" lon="-4.745117">
        <ele>3251.0</ele>
        <time>2013-09-04T13:51:41Z</time>
      </trkpt>
      <trkpt lat="43.028967" lon="-4.745083">
        <ele>3253.0</ele>
        <time>2013-09-04T13:51:42Z</time>
      </trkpt>
      <trkpt lat="43.028933" lon="-4.745050">
        <ele>3255.0</ele>
        <time>2013-09-04T13:51:43Z</time>
      </trkpt>
      <trkpt lat="43.028900" lon="-4.745000">
        <ele>3257.0</ele>
        <time>2013-09-04T13:51:44Z</time>
      </trkpt>
      <trkpt lat="43.028900" lon="-4.744917">
        <ele>3259.0</ele>
        <time>2013-09-04T13:51:45Z</time>
      </trkpt>
      <trkpt lat="43.028950" lon="-4.744833">
        <ele>3261.0</ele>
        <time>2013-09-04T13:51:46Z</time>
      </trkpt>
      <trkpt lat="43.029017" lon="-4.744750">
        <ele>3262.0</ele>
        <time>2013-09-04T13:51:47Z</time>
      </trkpt>
      <trkpt lat="43.029083" lon="-4.744683">
        <ele>3265.0</ele>
        <time>2013-09-04T13:51:48Z</time>
      </trkpt>
      <trkpt lat="43.029150" lon="-4.744633">
        <ele>3268.0</ele>
        <time>2013-09-04T13:51:49Z</time>
      </trkpt>
      <trkpt lat="43.029217" lon="-4.744583">
        <ele>3269.0</ele>
        <time>2013-09-04T13:51:50Z</time>
      </trkpt>
      <trkpt lat="43.029300" lon="-4.744533">
        <ele>3271.0</ele>
        <time>2013-09-04T13:51:51Z</time>
      </trkpt>
      <trkpt lat="43.029400" lon="-4.744467">
        <ele>3272.0</ele>
        <time>2013-09-04T13:51:52Z</time>
      </trkpt>
      <trkpt lat="43.029500" lon="-4.744433">
        <ele>3276.0</ele>
        <time>2013-09-04T13:51:53Z</time>
      </trkpt>
      <trkpt lat="43.029617" lon="-4.744433">
        <ele>3280.0</ele>
        <time>2013-09-04T13:51:54Z</time>
      </trkpt>
      <trkpt lat="43.029733" lon="-4.744467">
        <ele>3284.0</ele>
        <time>2013-09-04T13:51:55Z</time>
      </trkpt>
      <trkpt lat="43.029850" lon="-4.744517">
        <ele>3288.0</ele>
        <time>2013-09-04T13:51:56Z</time>
      </trkpt>
      <trkpt lat="43.029967" lon="-4.744567">
        <ele>3291.0</ele>
        <time>2013-09-04T13:51:57Z</time>
      </trkpt>
      <trkpt lat="43.030083" lon="-4.744633">
        <ele>3293.0</ele>
        <time>2013-09-04T13:51:58Z</time>
      </trkpt>
      <trkpt lat="43.030200" lon="-4.744700">
        <ele>3296.0</ele>
        <time>2013-09-04T13:51:59Z</time>
      </trkpt>
      <trkpt lat="43.030317" lon="-4.744800">
        <ele>3298.0</ele>
        <time>2013-09-04T13:52:00Z</time>
      </trkpt>
      <trkpt lat="43.030417" lon="-4.744950">
        <ele>3299.0</ele>
        <time>2013-09-04T13:52:01Z</time>
      </trkpt>
      <trkpt lat="43.030483" lon="-4.745117">
        <ele>3300.0</ele>
        <time>2013-09-04T13:52:02Z</time>
      </trkpt>
      <trkpt lat="43.030517" lon="-4.745283">
        <ele>3302.0</ele>
        <time>2013-09-04T13:52:03Z</time>
      </trkpt>
      <trkpt lat="43.030550" lon="-4.745450">
        <ele>3305.0</ele>
        <time>2013-09-04T13:52:04Z</time>
      </trkpt>
      <trkpt lat="43.030567" lon="-4.745583">
        <ele>3308.0</ele>
        <time>2013-09-04T13:52:05Z</time>
      </trkpt>
      <trkpt lat="43.030600" lon="-4.745700">
        <ele>3309.0</ele>
        <time>2013-09-04T13:52:06Z</time>
      </trkpt>
      <trkpt lat="43.030633" lon="-4.745833">
        <ele>3310.0</ele>
        <time>2013-09-04T13:52:07Z</time>
      </trkpt>
      <trkpt lat="43.030650" lon="-4.745967">
        <ele>3311.0</ele>
        <time>2013-09-04T13:52:08Z</time>
      </trkpt>
      <trkpt lat="43.030667" lon="-4.746100">
        <ele>3311.0</ele>
        <time>2013-09-04T13:52:09Z</time>
      </trkpt>
      <trkpt lat="43.030650" lon="-4.746233">
        <ele>3312.0</ele>
        <time>2013-09-04T13:52:10Z</time>
      </trkpt>
      <trkpt lat="43.030633" lon="-4.746350">
        <ele>3313.0</ele>
        <time>2013-09-04T13:52:11Z</time>
      </trkpt>
      <trkpt lat="43.030600" lon="-4.746433">
        <ele>3314.0</ele>
        <time>2013-09-04T13:52:12Z</time>
      </trkpt>
      <trkpt lat="43.030550" lon="-4.746500">
        <ele>3315.0</ele>
        <time>2013-09-04T13:52:13Z</time>
      </trkpt>
      <trkpt lat="43.030500" lon="-4.746550">
        <ele>3316.0</ele>
        <time>2013-09-04T13:52:14Z</time>
      </trkpt>
      <trkpt lat="43.030450" lon="-4.746583">
        <ele>3317.0</ele>
        <time>2013-09-04T13:52:15Z</time>
      </trkpt>
      <trkpt lat="43.030400" lon="-4.746617">
        <ele>3317.0</ele>
        <time>2013-09-04T13:52:16Z</time>
      </trkpt>
      <trkpt lat="43.030350" lon="-4.746633">
        <ele>3319.0</ele>
        <time>2013-09-04T13:52:17Z</time>
      </trkpt>
      <trkpt lat="43.030283" lon="-4.746633">
        <ele>3320.0</ele>
        <time>2013-09-04T13:52:18Z</time>
      </trkpt>
      <trkpt lat="43.030233" lon="-4.746600">
        <ele>3322.0</ele>
        <time>2013-09-04T13:52:19Z</time>
      </trkpt>
      <trkpt lat="43.030183" lon="-4.746533">
        <ele>3323.0</ele>
        <time>2013-09-04T13:52:20Z</time>
      </trkpt>
      <trkpt lat="43.030150" lon="-4.746400">
        <ele>3324.0</ele>
        <time>2013-09-04T13:52:21Z</time>
      </trkpt>
      <trkpt lat="43.030183" lon="-4.746267">
        <ele>3325.0</ele>
        <time>2013-09-04T13:52:22Z</time>
      </trkpt>
      <trkpt lat="43.030233" lon="-4.746150">
        <ele>3327.0</ele>
        <time>2013-09-04T13:52:23Z</time>
      </trkpt>
      <trkpt lat="43.030300" lon="-4.746067">
        <ele>3330.0</ele>
        <time>2013-09-04T13:52:24Z</time>
      </trkpt>
      <trkpt lat="43.030383" lon="-4.745983">
        <ele>3331.0</ele>
        <time>2013-09-04T13:52:25Z</time>
      </trkpt>
      <trkpt lat="43.030450" lon="-4.745917">
        <ele>3332.0</ele>
        <time>2013-09-04T13:52:26Z</time>
      </trkpt>
      <trkpt lat="43.030533" lon="-4.745867">
        <ele>3332.0</ele>
        <time>2013-09-04T13:52:27Z</time>
      </trkpt>
      <trkpt lat="43.030617" lon="-4.745800">
        <ele>3333.0</ele>
        <time>2013-09-04T13:52:28Z</time>
      </trkpt>
      <trkpt lat="43.030733" lon="-4.745750">
        <ele>3333.0</ele>
        <time>2013-09-04T13:52:29Z</time>
      </trkpt>
      <trkpt lat="43.030817" lon="-4.745700">
        <ele>3336.0</ele>
        <time>2013-09-04T13:52:30Z</time>
      </trkpt>
      <trkpt lat="43.030917" lon="-4.745650">
        <ele>3340.0</ele>
        <time>2013-09-04T13:52:31Z</time>
      </trkpt>
      <trkpt lat="43.031000" lon="-4.745617">
        <ele>3342.0</ele>
        <time>2013-09-04T13:52:32Z</time>
      </trkpt>
      <trkpt lat="43.031100" lon="-4.745600">
        <ele>3345.0</ele>
        <time>2013-09-04T13:52:33Z</time>
      </trkpt>
      <trkpt lat="43.031233" lon="-4.745600">
        <ele>3347.0</ele>
        <time>2013-09-04T13:52:34Z</time>
      </trkpt>
      <trkpt lat="43.031350" lon="-4.745633">
        <ele>3349.0</ele>
        <time>2013-09-04T13:52:35Z</time>
      </trkpt>
      <trkpt lat="43.031483" lon="-4.745667">
        <ele>3352.0</ele>
        <time>2013-09-04T13:52:36Z</time>
      </trkpt>
      <trkpt lat="43.031617" lon="-4.745717">
        <ele>3355.0</ele>
        <time>2013-09-04T13:52:37Z</time>
      </trkpt>
      <trkpt lat="43.031717" lon="-4.745800">
        <ele>3357.0</ele>
        <time>2013-09-04T13:52:38Z</time>
      </trkpt>
      <trkpt lat="43.031817" lon="-4.745933">
        <ele>3359.0</ele>
        <time>2013-09-04T13:52:39Z</time>
      </trkpt>
      <trkpt lat="43.031867" lon="-4.746083">
        <ele>3360.0</ele>
        <time>2013-09-04T13:52:40Z</time>
      </trkpt>
      <trkpt lat="43.031867" lon="-4.746217">
        <ele>3359.0</ele>
        <time>2013-09-04T13:52:41Z</time>
      </trkpt>
      <trkpt lat="43.031833" lon="-4.746333">
        <ele>3359.0</ele>
        <time>2013-09-04T13:52:42Z</time>
      </trkpt>
      <trkpt lat="43.031783" lon="-4.746433">
        <ele>3361.0</ele>
        <time>2013-09-04T13:52:43Z</time>
      </trkpt>
      <trkpt lat="43.031767" lon="-4.746500">
        <ele>3364.0</ele>
        <time>2013-09-04T13:52:44Z</time>
      </trkpt>
      <trkpt lat="43.031750" lon="-4.746550">
        <ele>3366.0</ele>
        <time>2013-09-04T13:52:45Z</time>
      </trkpt>
      <trkpt lat="43.031767" lon="-4.746600">
        <ele>3367.0</ele>
        <time>2013-09-04T13:52:46Z</time>
      </trkpt>
      <trkpt lat="43.031750" lon="-4.746650">
        <ele>3367.0</ele>
        <time>2013-09-04T13:52:47Z</time>
      </trkpt>
      <trkpt lat="43.031717" lon="-4.746700">
        <ele>3366.0</ele>
        <time>2013-09-04T13:52:48Z</time>
      </trkpt>
      <trkpt lat="43.031683" lon="-4.746750">
        <ele>3365.0</ele>
        <time>2013-09-04T13:52:49Z</time>
      </trkpt>
      <trkpt lat="43.031633" lon="-4.746767">
        <ele>3365.0</ele>
        <time>2013-09-04T13:52:50Z</time>
      </trkpt>
      <trkpt lat="43.031600" lon="-4.746783">
        <ele>3365.0</ele>
        <time>2013-09-04T13:52:51Z</time>
      </trkpt>
      <trkpt lat="43.031567" lon="-4.746783">
        <ele>3366.0</ele>
        <time>2013-09-04T13:52:52Z</time>
      </trkpt>
      <trkpt lat="43.031533" lon="-4.746783">
        <ele>3366.0</ele>
        <time>2013-09-04T13:52:53Z</time>
      </trkpt>
      <trkpt lat="43.031500" lon="-4.746767">
        <ele>3365.0</ele>
        <time>2013-09-04T13:52:54Z</time>
      </trkpt>
      <trkpt lat="43.031483" lon="-4.746717">
        <ele>3365.0</ele>
        <time>2013-09-04T13:52:55Z</time>
      </trkpt>
      <trkpt lat="43.031467" lon="-4.746650">
        <ele>3364.0</ele>
        <time>2013-09-04T13:52:56Z</time>
      </trkpt>
      <trkpt lat="43.031483" lon="-4.746567">
        <ele>3362.0</ele>
        <time>2013-09-04T13:52:57Z</time>
      </trkpt>
      <trkpt lat="43.031533" lon="-4.746467">
        <ele>3360.0</ele>
        <time>2013-09-04T13:52:58Z</time>
      </trkpt>
      <trkpt lat="43.031633" lon="-4.746383">
        <ele>3359.0</ele>
        <time>2013-09-04T13:52:59Z</time>
      </trkpt>
      <trkpt lat="43.031750" lon="-4.746317">
        <ele>3358.0</ele>
        <time>2013-09-04T13:53:00Z</time>
      </trkpt>
      <trkpt lat="43.031867" lon="-4.746283">
        <ele>3359.0</ele>
        <time>2013-09-04T13:53:01Z</time>
      </trkpt>
      <trkpt lat="43.031983" lon="-4.746267">
        <ele>3362.0</ele>
        <time>2013-09-04T13:53:02Z</time>
      </trkpt>
      <trkpt lat="43.032100" lon="-4.746267">
        <ele>3365.0</ele>
        <time>2013-09-04T13:53:03Z</time>
      </trkpt>
      <trkpt lat="43.032200" lon="-4.746300">
        <ele>3368.0</ele>
        <time>2013-09-04T13:53:04Z</time>
      </trkpt>
      <trkpt lat="43.032300" lon="-4.746333">
        <ele>3369.0</ele>
        <time>2013-09-04T13:53:05Z</time>
      </trkpt>
      <trkpt lat="43.032417" lon="-4.746350">
        <ele>3369.0</ele>
        <time>2013-09-04T13:53:06Z</time>
      </trkpt>
      <trkpt lat="43.032533" lon="-4.746383">
        <ele>3368.0</ele>
        <time>2013-09-04T13:53:07Z</time>
      </trkpt>
      <trkpt lat="43.032667" lon="-4.746400">
        <ele>3368.0</ele>
        <time>2013-09-04T13:53:08Z</time>
      </trkpt>
      <trkpt lat="43.032800" lon="-4.746450">
        <ele>3369.0</ele>
        <time>2013-09-04T13:53:09Z</time>
      </trkpt>
      <trkpt lat="43.032917" lon="-4.746500">
        <ele>3371.0</ele>
        <time>2013-09-04T13:53:10Z</time>
      </trkpt>
      <trkpt lat="43.033017" lon="-4.746550">
        <ele>3372.0</ele>
        <time>2013-09-04T13:53:11Z</time>
      </trkpt>
      <trkpt lat="43.033117" lon="-4.746617">
        <ele>3372.0</ele>
        <time>2013-09-04T13:53:12Z</time>
      </trkpt>
      <trkpt lat="43.033217" lon="-4.746717">
        <ele>3371.0</ele>
        <time>2013-09-04T13:53:13Z</time>
      </trkpt>
      <trkpt lat="43.033300" lon="-4.746833">
        <ele>3370.0</ele>
        <time>2013-09-04T13:53:14Z</time>
      </trkpt>
      <trkpt lat="43.033383" lon="-4.746967">
        <ele>3369.0</ele>
        <time>2013-09-04T13:53:15Z</time>
      </trkpt>
      <trkpt lat="43.033467" lon="-4.747100">
        <ele>3369.0</ele>
        <time>2013-09-04T13:53:16Z</time>
      </trkpt>
      <trkpt lat="43.033550" lon="-4.747233">
        <ele>3369.0</ele>
        <time>2013-09-04T13:53:17Z</time>
      </trkpt>
      <trkpt lat="43.033617" lon="-4.747333">
        <ele>3371.0</ele>
        <time>2013-09-04T13:53:18Z</time>
      </trkpt>
      <trkpt lat="43.033683" lon="-4.747433">
        <ele>3373.0</ele>
        <time>2013-09-04T13:53:19Z</time>
      </trkpt>
      <trkpt lat="43.033733" lon="-4.747517">
        <ele>3373.0</ele>
        <time>2013-09-04T13:53:20Z</time>
      </trkpt>
      <trkpt lat="43.033783" lon="-4.747617">
        <ele>3374.0</ele>
        <time>2013-09-04T13:53:21Z</time>
      </trkpt>
      <trkpt lat="43.033817" lon="-4.747733">
        <ele>3373.0</ele>
        <time>2013-09-04T13:53:22Z</time>
      </trkpt>
      <trkpt lat="43.033850" lon="-4.747867">
        <ele>3373.0</ele>
        <time>2013-09-04T13:53:23Z</time>
      </trkpt>
      <trkpt lat="43.033867" lon="-4.748017">
        <ele>3373.0</ele>
        <time>2013-09-04T13:53:24Z</time>
      </trkpt>
      <trkpt lat="43.033883" lon="-4.748150">
        <ele>3375.0</ele>
        <time>2013-09-04T13:53:25Z</time>
      </trkpt>
      <trkpt lat="43.033900" lon="-4.748267">
        <ele>3377.0</ele>
        <time>2013-09-04T13:53:26Z</time>
      </trkpt>
      <trkpt lat="43.033900" lon="-4.748367">
        <ele>3379.0</ele>
        <time>2013-09-04T13:53:27Z</time>
      </trkpt>
      <trkpt lat="43.033933" lon="-4.748450">
        <ele>3381.0</ele>
        <time>2013-09-04T13:53:28Z</time>
      </trkpt>
      <trkpt lat="43.033950" lon="-4.748533">
        <ele>3382.0</ele>
        <time>2013-09-04T13:53:29Z</time>
      </trkpt>
      <trkpt lat="43.033950" lon="-4.748617">
        <ele>3383.0</ele>
        <time>2013-09-04T13:53:30Z</time>
      </trkpt>
      <trkpt lat="43.033950" lon="-4.748700">
        <ele>3383.0</ele>
        <time>2013-09-04T13:53:31Z</time>
      </trkpt>
      <trkpt lat="43.033933" lon="-4.748783">
        <ele>3383.0</ele>
        <time>2013-09-04T13:53:32Z</time>
      </trkpt>
      <trkpt lat="43.033917" lon="-4.748883">
        <ele>3383.0</ele>
        <time>2013-09-04T13:53:33Z</time>
      </trkpt>
      <trkpt lat="43.033900" lon="-4.748950">
        <ele>3383.0</ele>
        <time>2013-09-04T13:53:34Z</time>
      </trkpt>
      <trkpt lat="43.033883" lon="-4.749033">
        <ele>3384.0</ele>
        <time>2013-09-04T13:53:35Z</time>
      </trkpt>
      <trkpt lat="43.033867" lon="-4.749100">
        <ele>3384.0</ele>
        <time>2013-09-04T13:53:36Z</time>
      </trkpt>
      <trkpt lat="43.033833" lon="-4.749167">
        <ele>3384.0</ele>
        <time>2013-09-04T13:53:37Z</time>
      </trkpt>
      <trkpt lat="43.033800" lon="-4.749217">
        <ele>3386.0</ele>
        <time>2013-09-04T13:53:38Z</time>
      </trkpt>
      <trkpt lat="43.033783" lon="-4.749267">
        <ele>3390.0</ele>
        <time>2013-09-04T13:53:39Z</time>
      </trkpt>
      <trkpt lat="43.033767" lon="-4.749283">
        <ele>3395.0</ele>
        <time>2013-09-04T13:53:40Z</time>
      </trkpt>
      <trkpt lat="43.033767" lon="-4.749300">
        <ele>3398.0</ele>
        <time>2013-09-04T13:53:41Z</time>
      </trkpt>
      <trkpt lat="43.033767" lon="-4.749333">
        <ele>3401.0</ele>
        <time>2013-09-04T13:53:42Z</time>
      </trkpt>
      <trkpt lat="43.033733" lon="-4.749350">
        <ele>3402.0</ele>
        <time>2013-09-04T13:53:43Z</time>
      </trkpt>
      <trkpt lat="43.033700" lon="-4.749367">
        <ele>3404.0</ele>
        <time>2013-09-04T13:53:44Z</time>
      </trkpt>
      <trkpt lat="43.033683" lon="-4.749367">
        <ele>3406.0</ele>
        <time>2013-09-04T13:53:45Z</time>
      </trkpt>
      <trkpt lat="43.033650" lon="-4.749367">
        <ele>3408.0</ele>
        <time>2013-09-04T13:53:46Z</time>
      </trkpt>
      <trkpt lat="43.033650" lon="-4.749350">
        <ele>3409.0</ele>
        <time>2013-09-04T13:53:47Z</time>
      </trkpt>
      <trkpt lat="43.033633" lon="-4.749333">
        <ele>3409.0</ele>
        <time>2013-09-04T13:53:48Z</time>
      </trkpt>
      <trkpt lat="43.033617" lon="-4.749317">
        <ele>3409.0</ele>
        <time>2013-09-04T13:53:49Z</time>
      </trkpt>
      <trkpt lat="43.033600" lon="-4.749267">
        <ele>3409.0</ele>
        <time>2013-09-04T13:53:50Z</time>
      </trkpt>
      <trkpt lat="43.033600" lon="-4.749200">
        <ele>3408.0</ele>
        <time>2013-09-04T13:53:51Z</time>
      </trkpt>
      <trkpt lat="43.033600" lon="-4.749100">
        <ele>3407.0</ele>
        <time>2013-09-04T13:53:52Z</time>
      </trkpt>
      <trkpt lat="43.033633" lon="-4.748983">
        <ele>3405.0</ele>
        <time>2013-09-04T13:53:53Z</time>
      </trkpt>
      <trkpt lat="43.033700" lon="-4.748833">
        <ele>3403.0</ele>
        <time>2013-09-04T13:53:54Z</time>
      </trkpt>
      <trkpt lat="43.033800" lon="-4.748700">
        <ele>3401.0</ele>
        <time>2013-09-04T13:53:55Z</time>
      </trkpt>
      <trkpt lat="43.033933" lon="-4.748600">
        <ele>3401.0</ele>
        <time>2013-09-04T13:53:56Z</time>
      </trkpt>
      <trkpt lat="43.034050" lon="-4.748517">
        <ele>3403.0</ele>
        <time>2013-09-04T13:53:57Z</time>
      </trkpt>
      <trkpt lat="43.034167" lon="-4.748450">
        <ele>3406.0</ele>
        <time>2013-09-04T13:53:58Z</time>
      </trkpt>
      <trkpt lat="43.034283" lon="-4.748383">
        <ele>3408.0</ele>
        <time>2013-09-04T13:53:59Z</time>
      </trkpt>
      <trkpt lat="43.034383" lon="-4.748333">
        <ele>3409.0</ele>
        <time>2013-09-04T13:54:00Z</time>
      </trkpt>
      <trkpt lat="43.034483" lon="-4.748283">
        <ele>3409.0</ele>
        <time>2013-09-04T13:54:01Z</time>
      </trkpt>
      <trkpt lat="43.034600" lon="-4.748233">
        <ele>3409.0</ele>
        <time>2013-09-04T13:54:02Z</time>
      </trkpt>
      <trkpt lat="43.034733" lon="-4.748217">
        <ele>3408.0</ele>
        <time>2013-09-04T13:54:03Z</time>
      </trkpt>
      <trkpt lat="43.034867" lon="-4.748217">
        <ele>3407.0</ele>
        <time>2013-09-04T13:54:04Z</time>
      </trkpt>
      <trkpt lat="43.035000" lon="-4.748250">
        <ele>3407.0</ele>
        <time>2013-09-04T13:54:05Z</time>
      </trkpt>
      <trkpt lat="43.035117" lon="-4.748300">
        <ele>3407.0</ele>
        <time>2013-09-04T13:54:06Z</time>
      </trkpt>
      <trkpt lat="43.035200" lon="-4.748383">
        <ele>3407.0</ele>
        <time>2013-09-04T13:54:07Z</time>
      </trkpt>
      <trkpt lat="43.035283" lon="-4.748483">
        <ele>3406.0</ele>
        <time>2013-09-04T13:54:08Z</time>
      </trkpt>
      <trkpt lat="43.035350" lon="-4.748583">
        <ele>3405.0</ele>
        <time>2013-09-04T13:54:09Z</time>
      </trkpt>
      <trkpt lat="43.035417" lon="-4.748683">
        <ele>3405.0</ele>
        <time>2013-09-04T13:54:10Z</time>
      </trkpt>
      <trkpt lat="43.035483" lon="-4.748783">
        <ele>3404.0</ele>
        <time>2013-09-04T13:54:11Z</time>
      </trkpt>
      <trkpt lat="43.035517" lon="-4.748900">
        <ele>3404.0</ele>
        <time>2013-09-04T13:54:12Z</time>
      </trkpt>
      <trkpt lat="43.035550" lon="-4.749000">
        <ele>3405.0</ele>
        <time>2013-09-04T13:54:13Z</time>
      </trkpt>
      <trkpt lat="43.035583" lon="-4.749100">
        <ele>3406.0</ele>
        <time>2013-09-04T13:54:14Z</time>
      </trkpt>
      <trkpt lat="43.035600" lon="-4.749183">
        <ele>3407.0</ele>
        <time>2013-09-04T13:54:15Z</time>
      </trkpt>
      <trkpt lat="43.035617" lon="-4.749250">
        <ele>3408.0</ele>
        <time>2013-09-04T13:54:16Z</time>
      </trkpt>
      <trkpt lat="43.035633" lon="-4.749300">
        <ele>3409.0</ele>
        <time>2013-09-04T13:54:17Z</time>
      </trkpt>
      <trkpt lat="43.035633" lon="-4.749367">
        <ele>3409.0</ele>
        <time>2013-09-04T13:54:18Z</time>
      </trkpt>
      <trkpt lat="43.035650" lon="-4.749417">
        <ele>3409.0</ele>
        <time>2013-09-04T13:54:19Z</time>
      </trkpt>
      <trkpt lat="43.035650" lon="-4.749450">
        <ele>3408.0</ele>
        <time>2013-09-04T13:54:20Z</time>
      </trkpt>
      <trkpt lat="43.035617" lon="-4.749500">
        <ele>3407.0</ele>
        <time>2013-09-04T13:54:21Z</time>
      </trkpt>
      <trkpt lat="43.035567" lon="-4.749500">
        <ele>3406.0</ele>
        <time>2013-09-04T13:54:22Z</time>
      </trkpt>
      <trkpt lat="43.035533" lon="-4.749500">
        <ele>3405.0</ele>
        <time>2013-09-04T13:54:23Z</time>
      </trkpt>
      <trkpt lat="43.035483" lon="-4.749483">
        <ele>3405.0</ele>
        <time>2013-09-04T13:54:24Z</time>
      </trkpt>
      <trkpt lat="43.035433" lon="-4.749467">
        <ele>3404.0</ele>
        <time>2013-09-04T13:54:25Z</time>
      </trkpt>
      <trkpt lat="43.035400" lon="-4.749450">
        <ele>3404.0</ele>
        <time>2013-09-04T13:54:26Z</time>
      </trkpt>
      <trkpt lat="43.035350" lon="-4.749433">
        <ele>3403.0</ele>
        <time>2013-09-04T13:54:27Z</time>
      </trkpt>
      <trkpt lat="43.035317" lon="-4.749400">
        <ele>3403.0</ele>
        <time>2013-09-04T13:54:28Z</time>
      </trkpt>
      <trkpt lat="43.035267" lon="-4.749367">
        <ele>3402.0</ele>
        <time>2013-09-04T13:54:29Z</time>
      </trkpt>
      <trkpt lat="43.035233" lon="-4.749333">
        <ele>3402.0</ele>
        <time>2013-09-04T13:54:30Z</time>
      </trkpt>
      <trkpt lat="43.035200" lon="-4.749300">
        <ele>3402.0</ele>
        <time>2013-09-04T13:54:31Z</time>
      </trkpt>
      <trkpt lat="43.035167" lon="-4.749267">
        <ele>3402.0</ele>
        <time>2013-09-04T13:54:32Z</time>
      </trkpt>
      <trkpt lat="43.035133" lon="-4.749233">
        <ele>3401.0</ele>
        <time>2013-09-04T13:54:33Z</time>
      </trkpt>
      <trkpt lat="43.035100" lon="-4.749200">
        <ele>3401.0</ele>
        <time>2013-09-04T13:54:34Z</time>
      </trkpt>
      <trkpt lat="43.035067" lon="-4.749150">
        <ele>3400.0</ele>
        <time>2013-09-04T13:54:35Z</time>
      </trkpt>
      <trkpt lat="43.035033" lon="-4.749067">
        <ele>3399.0</ele>
        <time>2013-09-04T13:54:36Z</time>
      </trkpt>
      <trkpt lat="43.035000" lon="-4.748967">
        <ele>3397.0</ele>
        <time>2013-09-04T13:54:37Z</time>
      </trkpt>
      <trkpt lat="43.034967" lon="-4.748883">
        <ele>3396.0</ele>
        <time>2013-09-04T13:54:38Z</time>
      </trkpt>
      <trkpt lat="43.034917" lon="-4.748800">
        <ele>3393.0</ele>
        <time>2013-09-04T13:54:39Z</time>
      </trkpt>
      <trkpt lat="43.034850" lon="-4.748750">
        <ele>3391.0</ele>
        <time>2013-09-04T13:54:40Z</time>
      </trkpt>
      <trkpt lat="43.034783" lon="-4.748700">
        <ele>3389.0</ele>
        <time>2013-09-04T13:54:41Z</time>
      </trkpt>
      <trkpt lat="43.034733" lon="-4.748633">
        <ele>3388.0</ele>
        <time>2013-09-04T13:54:42Z</time>
      </trkpt>
      <trkpt lat="43.034683" lon="-4.748583">
        <ele>3388.0</ele>
        <time>2013-09-04T13:54:43Z</time>
      </trkpt>
      <trkpt lat="43.034633" lon="-4.748517">
        <ele>3388.0</ele>
        <time>2013-09-04T13:54:44Z</time>
      </trkpt>
      <trkpt lat="43.034600" lon="-4.748467">
        <ele>3387.0</ele>
        <time>2013-09-04T13:54:45Z</time>
      </trkpt>
      <trkpt lat="43.034550" lon="-4.748433">
        <ele>3387.0</ele>
        <time>2013-09-04T13:54:46Z</time>
      </trkpt>
      <trkpt lat="43.034500" lon="-4.748383">
        <ele>3386.0</ele>
        <time>2013-09-04T13:54:47Z</time>
      </trkpt>
      <trkpt lat="43.034450" lon="-4.748333">
        <ele>3385.0</ele>
        <time>2013-09-04T13:54:48Z</time>
      </trkpt>
      <trkpt lat="43.034400" lon="-4.748250">
        <ele>3385.0</ele>
        <time>2013-09-04T13:54:49Z</time>
      </trkpt>
      <trkpt lat="43.034367" lon="-4.748150">
        <ele>3385.0</ele>
        <time>2013-09-04T13:54:50Z</time>
      </trkpt>
      <trkpt lat="43.034317" lon="-4.748033">
        <ele>3386.0</ele>
        <time>2013-09-04T13:54:51Z</time>
      </trkpt>
      <trkpt lat="43.034283" lon="-4.747933">
        <ele>3389.0</ele>
        <time>2013-09-04T13:54:52Z</time>
      </trkpt>
      <trkpt lat="43.034267" lon="-4.747867">
        <ele>3391.0</ele>
        <time>2013-09-04T13:54:53Z</time>
      </trkpt>
      <trkpt lat="43.034233" lon="-4.747833">
        <ele>3391.0</ele>
        <time>2013-09-04T13:54:54Z</time>
      </trkpt>
      <trkpt lat="43.034217" lon="-4.747800">
        <ele>3391.0</ele>
        <time>2013-09-04T13:54:55Z</time>
      </trkpt>
      <trkpt lat="43.034200" lon="-4.747767">
        <ele>3391.0</ele>
        <time>2013-09-04T13:54:56Z</time>
      </trkpt>
      <trkpt lat="43.034167" lon="-4.747700">
        <ele>3390.0</ele>
        <time>2013-09-04T13:54:57Z</time>
      </trkpt>
      <trkpt lat="43.034133" lon="-4.747633">
        <ele>3390.0</ele>
        <time>2013-09-04T13:54:58Z</time>
      </trkpt>
      <trkpt lat="43.034100" lon="-4.747567">
        <ele>3390.0</ele>
        <time>2013-09-04T13:54:59Z</time>
      </trkpt>
      <trkpt lat="43.034067" lon="-4.747517">
        <ele>3391.0</ele>
        <time>2013-09-04T13:55:00Z</time>
      </trkpt>
      <trkpt lat="43.034033" lon="-4.747467">
        <ele>3392.0</ele>
        <time>2013-09-04T13:55:01Z</time>
      </trkpt>
      <trkpt lat="43.034017" lon="-4.747433">
        <ele>3392.0</ele>
        <time>2013-09-04T13:55:02Z</time>
      </trkpt>
      <trkpt lat="43.033983" lon="-4.747400">
        <ele>3391.0</ele>
        <time>2013-09-04T13:55:03Z</time>
      </trkpt>
      <trkpt lat="43.033950" lon="-4.747350">
        <ele>3390.0</ele>
        <time>2013-09-04T13:55:04Z</time>
      </trkpt>
      <trkpt lat="43.033900" lon="-4.747317">
        <ele>3389.0</ele>
        <time>2013-09-04T13:55:05Z</time>
      </trkpt>
      <trkpt lat="43.033850" lon="-4.747317">
        <ele>3388.0</ele>
        <time>2013-09-04T13:55:06Z</time>
      </trkpt>
      <trkpt lat="43.033800" lon="-4.747317">
        <ele>3388.0</ele>
        <time>2013-09-04T13:55:07Z</time>
      </trkpt>
      <trkpt lat="43.033750" lon="-4.747317">
        <ele>3388.0</ele>
        <time>2013-09-04T13:55:08Z</time>
      </trkpt>
      <trkpt lat="43.033700" lon="-4.747317">
        <ele>3387.0</ele>
        <time>2013-09-04T13:55:09Z</time>
      </trkpt>
      <trkpt lat="43.033650" lon="-4.747333">
        <ele>3387.0</ele>
        <time>2013-09-04T13:55:10Z</time>
      </trkpt>
      <trkpt lat="43.033617" lon="-4.747383">
        <ele>3386.0</ele>
        <time>2013-09-04T13:55:11Z</time>
      </trkpt>
      <trkpt lat="43.033567" lon="-4.747433">
        <ele>3386.0</ele>
        <time>2013-09-04T13:55:12Z</time>
      </trkpt>
      <trkpt lat="43.033517" lon="-4.747467">
        <ele>3386.0</ele>
        <time>2013-09-04T13:55:13Z</time>
      </trkpt>
      <trkpt lat="43.033483" lon="-4.747483">
        <ele>3385.0</ele>
        <time>2013-09-04T13:55:14Z</time>
      </trkpt>
      <trkpt lat="43.033467" lon="-4.747517">
        <ele>3384.0</ele>
        <time>2013-09-04T13:55:15Z</time>
      </trkpt>
      <trkpt lat="43.033433" lon="-4.747567">
        <ele>3382.0</ele>
        <time>2013-09-04T13:55:16Z</time>
      </trkpt>
      <trkpt lat="43.033417" lon="-4.747617">
        <ele>3381.0</ele>
        <time>2013-09-04T13:55:17Z</time>
      </trkpt>
      <trkpt lat="43.033367" lon="-4.747667">
        <ele>3380.0</ele>
        <time>2013-09-04T13:55:18Z</time>
      </trkpt>
      <trkpt lat="43.033317" lon="-4.747683">
        <ele>3379.0</ele>
        <time>2013-09-04T13:55:19Z</time>
      </trkpt>
      <trkpt lat="43.033267" lon="-4.747717">
        <ele>3378.0</ele>
        <time>2013-09-04T13:55:20Z</time>
      </trkpt>
      <trkpt lat="43.033217" lon="-4.747750">
        <ele>3378.0</ele>
        <time>2013-09-04T13:55:21Z</time>
      </trkpt>
      <trkpt lat="43.033167" lon="-4.747783">
        <ele>3377.0</ele>
        <time>2013-09-04T13:55:22Z</time>
      </trkpt>
      <trkpt lat="43.033117" lon="-4.747817">
        <ele>3377.0</ele>
        <time>2013-09-04T13:55:23Z</time>
      </trkpt>
      <trkpt lat="43.033067" lon="-4.747850">
        <ele>3377.0</ele>
        <time>2013-09-04T13:55:24Z</time>
      </trkpt>
      <trkpt lat="43.033017" lon="-4.747850">
        <ele>3377.0</ele>
        <time>2013-09-04T13:55:25Z</time>
      </trkpt>
      <trkpt lat="43.032967" lon="-4.747833">
        <ele>3376.0</ele>
        <time>2013-09-04T13:55:26Z</time>
      </trkpt>
      <trkpt lat="43.032917" lon="-4.747817">
        <ele>3376.0</ele>
        <time>2013-09-04T13:55:27Z</time>
      </trkpt>
      <trkpt lat="43.032867" lon="-4.747800">
        <ele>3376.0</ele>
        <time>2013-09-04T13:55:28Z</time>
      </trkpt>
      <trkpt lat="43.032800" lon="-4.747767">
        <ele>3375.0</ele>
        <time>2013-09-04T13:55:29Z</time>
      </trkpt>
      <trkpt lat="43.032733" lon="-4.747750">
        <ele>3375.0</ele>
        <time>2013-09-04T13:55:30Z</time>
      </trkpt>
      <trkpt lat="43.032650" lon="-4.747733">
        <ele>3375.0</ele>
        <time>2013-09-04T13:55:31Z</time>
      </trkpt>
      <trkpt lat="43.032583" lon="-4.747717">
        <ele>3375.0</ele>
        <time>2013-09-04T13:55:32Z</time>
      </trkpt>
      <trkpt lat="43.032517" lon="-4.747700">
        <ele>3375.0</ele>
        <time>2013-09-04T13:55:33Z</time>
      </trkpt>
      <trkpt lat="43.032450" lon="-4.747667">
        <ele>3376.0</ele>
        <time>2013-09-04T13:55:34Z</time>
      </trkpt>
      <trkpt lat="43.032383" lon="-4.747633">
        <ele>3376.0</ele>
        <time>2013-09-04T13:55:35Z</time>
      </trkpt>
      <trkpt lat="43.032300" lon="-4.747600">
        <ele>3377.0</ele>
        <time>2013-09-04T13:55:36Z</time>
      </trkpt>
      <trkpt lat="43.032250" lon="-4.747567">
        <ele>3381.0</ele>
        <time>2013-09-04T13:55:37Z</time>
      </trkpt>
      <trkpt lat="43.032200" lon="-4.747533">
        <ele>3384.0</ele>
        <time>2013-09-04T13:55:38Z</time>
      </trkpt>
      <trkpt lat="43.032150" lon="-4.747500">
        <ele>3385.0</ele>
        <time>2013-09-04T13:55:39Z</time>
      </trkpt>
      <trkpt lat="43.032117" lon="-4.747483">
        <ele>3385.0</ele>
        <time>2013-09-04T13:55:40Z</time>
      </trkpt>
      <trkpt lat="43.032067" lon="-4.747450">
        <ele>3385.0</ele>
        <time>2013-09-04T13:55:41Z</time>
      </trkpt>
      <trkpt lat="43.032017" lon="-4.747383">
        <ele>3384.0</ele>
        <time>2013-09-04T13:55:42Z</time>
      </trkpt>
      <trkpt lat="43.031950" lon="-4.747300">
        <ele>3383.0</ele>
        <time>2013-09-04T13:55:43Z</time>
      </trkpt>
      <trkpt lat="43.031883" lon="-4.747200">
        <ele>3383.0</ele>
        <time>2013-09-04T13:55:44Z</time>
      </trkpt>
      <trkpt lat="43.031833" lon="-4.747117">
        <ele>3382.0</ele>
        <time>2013-09-04T13:55:45Z</time>
      </trkpt>
      <trkpt lat="43.031783" lon="-4.747050">
        <ele>3380.0</ele>
        <time>2013-09-04T13:55:46Z</time>
      </trkpt>
      <trkpt lat="43.031717" lon="-4.746983">
        <ele>3379.0</ele>
        <time>2013-09-04T13:55:47Z</time>
      </trkpt>
      <trkpt lat="43.031633" lon="-4.746900">
        <ele>3378.0</ele>
        <time>2013-09-04T13:55:48Z</time>
      </trkpt>
      <trkpt lat="43.031567" lon="-4.746817">
        <ele>3376.0</ele>
        <time>2013-09-04T13:55:49Z</time>
      </trkpt>
      <trkpt lat="43.031500" lon="-4.746717">
        <ele>3376.0</ele>
        <time>2013-09-04T13:55:50Z</time>
      </trkpt>
      <trkpt lat="43.031450" lon="-4.746633">
        <ele>3377.0</ele>
        <time>2013-09-04T13:55:51Z</time>
      </trkpt>
      <trkpt lat="43.031383" lon="-4.746600">
        <ele>3376.0</ele>
        <time>2013-09-04T13:55:52Z</time>
      </trkpt>
      <trkpt lat="43.031333" lon="-4.746550">
        <ele>3375.0</ele>
        <time>2013-09-04T13:55:53Z</time>
      </trkpt>
      <trkpt lat="43.031267" lon="-4.746500">
        <ele>3373.0</ele>
        <time>2013-09-04T13:55:54Z</time>
      </trkpt>
      <trkpt lat="43.031200" lon="-4.746417">
        <ele>3372.0</ele>
        <time>2013-09-04T13:55:55Z</time>
      </trkpt>
      <trkpt lat="43.031117" lon="-4.746333">
        <ele>3371.0</ele>
        <time>2013-09-04T13:55:56Z</time>
      </trkpt>
      <trkpt lat="43.031050" lon="-4.746250">
        <ele>3371.0</ele>
        <time>2013-09-04T13:55:57Z</time>
      </trkpt>
      <trkpt lat="43.030983" lon="-4.746167">
        <ele>3373.0</ele>
        <time>2013-09-04T13:55:58Z</time>
      </trkpt>
      <trkpt lat="43.030933" lon="-4.746100">
        <ele>3374.0</ele>
        <time>2013-09-04T13:55:59Z</time>
      </trkpt>
      <trkpt lat="43.030883" lon="-4.746050">
        <ele>3375.0</ele>
        <time>2013-09-04T13:56:00Z</time>
      </trkpt>
      <trkpt lat="43.030833" lon="-4.746000">
        <ele>3375.0</ele>
        <time>2013-09-04T13:56:01Z</time>
      </trkpt>
      <trkpt lat="43.030783" lon="-4.745933">
        <ele>3375.0</ele>
        <time>2013-09-04T13:56:02Z</time>
      </trkpt>
      <trkpt lat="43.030733" lon="-4.745867">
        <ele>3376.0</ele>
        <time>2013-09-04T13:56:03Z</time>
      </trkpt>
      <trkpt lat="43.030667" lon="-4.745783">
        <ele>3376.0</ele>
        <time>2013-09-04T13:56:04Z</time>
      </trkpt>
      <trkpt lat="43.030600" lon="-4.745700">
        <ele>3376.0</ele>
        <time>2013-09-04T13:56:05Z</time>
      </trkpt>
      <trkpt lat="43.030533" lon="-4.745633">
        <ele>3378.0</ele>
        <time>2013-09-04T13:56:06Z</time>
      </trkpt>
      <trkpt lat="43.030467" lon="-4.745567">
        <ele>3380.0</ele>
        <time>2013-09-04T13:56:07Z</time>
      </trkpt>
      <trkpt lat="43.030417" lon="-4.745517">
        <ele>3381.0</ele>
        <time>2013-09-04T13:56:08Z</time>
      </trkpt>
      <trkpt lat="43.030383" lon="-4.745467">
        <ele>3381.0</ele>
        <time>2013-09-04T13:56:09Z</time>
      </trkpt>
      <trkpt lat="43.030350" lon="-4.745433">
        <ele>3381.0</ele>
        <time>2013-09-04T13:56:10Z</time>
      </trkpt>
      <trkpt lat="43.030300" lon="-4.745383">
        <ele>3382.0</ele>
        <time>2013-09-04T13:56:11Z</time>
      </trkpt>
      <trkpt lat="43.030250" lon="-4.745317">
        <ele>3381.0</ele>
        <time>2013-09-04T13:56:12Z</time>
      </trkpt>
      <trkpt lat="43.030183" lon="-4.745267">
        <ele>3381.0</ele>
        <time>2013-09-04T13:56:13Z</time>
      </trkpt>
      <trkpt lat="43.030100" lon="-4.745200">
        <ele>3381.0</ele>
        <time>2013-09-04T13:56:14Z</time>
      </trkpt>
      <trkpt lat="43.030017" lon="-4.745150">
        <ele>3382.0</ele>
        <time>2013-09-04T13:56:15Z</time>
      </trkpt>
      <trkpt lat="43.029933" lon="-4.745083">
        <ele>3382.0</ele>
        <time>2013-09-04T13:56:16Z</time>
      </trkpt>
      <trkpt lat="43.029850" lon="-4.745033">
        <ele>3385.0</ele>
        <time>2013-09-04T13:56:17Z</time>
      </trkpt>
      <trkpt lat="43.029800" lon="-4.744983">
        <ele>3389.0</ele>
        <time>2013-09-04T13:56:18Z</time>
      </trkpt>
      <trkpt lat="43.029750" lon="-4.744950">
        <ele>3392.0</ele>
        <time>2013-09-04T13:56:19Z</time>
      </trkpt>
      <trkpt lat="43.029700" lon="-4.744950">
        <ele>3394.0</ele>
        <time>2013-09-04T13:56:20Z</time>
      </trkpt>
      <trkpt lat="43.029650" lon="-4.744967">
        <ele>3396.0</ele>
        <time>2013-09-04T13:56:21Z</time>
      </trkpt>
      <trkpt lat="43.029617" lon="-4.744950">
        <ele>3396.0</ele>
        <time>2013-09-04T13:56:22Z</time>
      </trkpt>
      <trkpt lat="43.029550" lon="-4.744933">
        <ele>3397.0</ele>
        <time>2013-09-04T13:56:23Z</time>
      </trkpt>
      <trkpt lat="43.029500" lon="-4.744917">
        <ele>3398.0</ele>
        <time>2013-09-04T13:56:24Z</time>
      </trkpt>
      <trkpt lat="43.029433" lon="-4.744883">
        <ele>3400.0</ele>
        <time>2013-09-04T13:56:25Z</time>
      </trkpt>
      <trkpt lat="43.029383" lon="-4.744867">
        <ele>3403.0</ele>
        <time>2013-09-04T13:56:26Z</time>
      </trkpt>
      <trkpt lat="43.029333" lon="-4.744850">
        <ele>3405.0</ele>
        <time>2013-09-04T13:56:27Z</time>
      </trkpt>
      <trkpt lat="43.029283" lon="-4.744833">
        <ele>3408.0</ele>
        <time>2013-09-04T13:56:28Z</time>
      </trkpt>
      <trkpt lat="43.029250" lon="-4.744800">
        <ele>3410.0</ele>
        <time>2013-09-04T13:56:29Z</time>
      </trkpt>
      <trkpt lat="43.029217" lon="-4.744750">
        <ele>3412.0</ele>
        <time>2013-09-04T13:56:30Z</time>
      </trkpt>
      <trkpt lat="43.029167" lon="-4.744700">
        <ele>3414.0</ele>
        <time>2013-09-04T13:56:31Z</time>
      </trkpt>
      <trkpt lat="43.029133" lon="-4.744650">
        <ele>3416.0</ele>
        <time>2013-09-04T13:56:32Z</time>
      </trkpt>
      <trkpt lat="43.029083" lon="-4.744617">
        <ele>3419.0</ele>
        <time>2013-09-04T13:56:33Z</time>
      </trkpt>
      <trkpt lat="43.029050" lon="-4.744567">
        <ele>3422.0</ele>
        <time>2013-09-04T13:56:34Z</time>
      </trkpt>
      <trkpt lat="43.029033" lon="-4.744533">
        <ele>3424.0</ele>
        <time>2013-09-04T13:56:35Z</time>
      </trkpt>
      <trkpt lat="43.029000" lon="-4.744500">
        <ele>3426.0</ele>
        <time>2013-09-04T13:56:36Z</time>
      </trkpt>
      <trkpt lat="43.028967" lon="-4.744467">
        <ele>3428.0</ele>
        <time>2013-09-04T13:56:37Z</time>
      </trkpt>
      <trkpt lat="43.028933" lon="-4.744417">
        <ele>3430.0</ele>
        <time>2013-09-04T13:56:38Z</time>
      </trkpt>
      <trkpt lat="43.028900" lon="-4.744350">
        <ele>3432.0</ele>
        <time>2013-09-04T13:56:39Z</time>
      </trkpt>
      <trkpt lat="43.028867" lon="-4.744283">
        <ele>3434.0</ele>
        <time>2013-09-04T13:56:40Z</time>
      </trkpt>
      <trkpt lat="43.028850" lon="-4.744200">
        <ele>3438.0</ele>
        <time>2013-09-04T13:56:41Z</time>
      </trkpt>
      <trkpt lat="43.028817" lon="-4.744133">
        <ele>3441.0</ele>
        <time>2013-09-04T13:56:42Z</time>
      </trkpt>
      <trkpt lat="43.028800" lon="-4.744100">
        <ele>3444.0</ele>
        <time>2013-09-04T13:56:43Z</time>
      </trkpt>
      <trkpt lat="43.028750" lon="-4.744067">
        <ele>3447.0</ele>
        <time>2013-09-04T13:56:44Z</time>
      </trkpt>
      <trkpt lat="43.028717" lon="-4.744033">
        <ele>3449.0</ele>
        <time>2013-09-04T13:56:45Z</time>
      </trkpt>
      <trkpt lat="43.028667" lon="-4.743950">
        <ele>3451.0</ele>
        <time>2013-09-04T13:56:46Z</time>
      </trkpt>
      <trkpt lat="43.028617" lon="-4.743850">
        <ele>3455.0</ele>
        <time>2013-09-04T13:56:47Z</time>
      </trkpt>
      <trkpt lat="43.028583" lon="-4.743750">
        <ele>3459.0</ele>
        <time>2013-09-04T13:56:48Z</time>
      </trkpt>
      <trkpt lat="43.028550" lon="-4.743667">
        <ele>3463.0</ele>
        <time>2013-09-04T13:56:49Z</time>
      </trkpt>
      <trkpt lat="43.028533" lon="-4.743583">
        <ele>3466.0</ele>
        <time>2013-09-04T13:56:50Z</time>
      </trkpt>
      <trkpt lat="43.028517" lon="-4.743500">
        <ele>3469.0</ele>
        <time>2013-09-04T13:56:51Z</time>
      </trkpt>
      <trkpt lat="43.028500" lon="-4.743417">
        <ele>3471.0</ele>
        <time>2013-09-04T13:56:52Z</time>
      </trkpt>
      <trkpt lat="43.028483" lon="-4.743350">
        <ele>3474.0</ele>
        <time>2013-09-04T13:56:53Z</time>
      </trkpt>
      <trkpt lat="43.028467" lon="-4.743267">
        <ele>3475.0</ele>
        <time>2013-09-04T13:56:54Z</time>
      </trkpt>
      <trkpt lat="43.028450" lon="-4.743200">
        <ele>3477.0</ele>
        <time>2013-09-04T13:56:55Z</time>
      </trkpt>
      <trkpt lat="43.028433" lon="-4.743100">
        <ele>3481.0</ele>
        <time>2013-09-04T13:56:56Z</time>
      </trkpt>
      <trkpt lat="43.028417" lon="-4.743017">
        <ele>3484.0</ele>
        <time>2013-09-04T13:56:57Z</time>
      </trkpt>
      <trkpt lat="43.028433" lon="-4.742967">
        <ele>3487.0</ele>
        <time>2013-09-04T13:56:58Z</time>
      </trkpt>
      <trkpt lat="43.028433" lon="-4.742917">
        <ele>3490.0</ele>
        <time>2013-09-04T13:56:59Z</time>
      </trkpt>
      <trkpt lat="43.028417" lon="-4.742850">
        <ele>3492.0</ele>
        <time>2013-09-04T13:57:00Z</time>
      </trkpt>
      <trkpt lat="43.028400" lon="-4.742733">
        <ele>3495.0</ele>
        <time>2013-09-04T13:57:01Z</time>
      </trkpt>
      <trkpt lat="43.028383" lon="-4.742617">
        <ele>3498.0</ele>
        <time>2013-09-04T13:57:02Z</time>
      </trkpt>
      <trkpt lat="43.028350" lon="-4.742517">
        <ele>3501.0</ele>
        <time>2013-09-04T13:57:03Z</time>
      </trkpt>
      <trkpt lat="43.028317" lon="-4.742417">
        <ele>3503.0</ele>
        <time>2013-09-04T13:57:04Z</time>
      </trkpt>
      <trkpt lat="43.028267" lon="-4.742333">
        <ele>3505.0</ele>
        <time>2013-09-04T13:57:05Z</time>
      </trkpt>
      <trkpt lat="43.028217" lon="-4.742250">
        <ele>3508.0</ele>
        <time>2013-09-04T13:57:06Z</time>
      </trkpt>
      <trkpt lat="43.028150" lon="-4.742167">
        <ele>3511.0</ele>
        <time>2013-09-04T13:57:07Z</time>
      </trkpt>
      <trkpt lat="43.028083" lon="-4.742083">
        <ele>3515.0</ele>
        <time>2013-09-04T13:57:08Z</time>
      </trkpt>
      <trkpt lat="43.028033" lon="-4.742033">
        <ele>3519.0</ele>
        <time>2013-09-04T13:57:09Z</time>
      </trkpt>
      <trkpt lat="43.027983" lon="-4.742000">
        <ele>3523.0</ele>
        <time>2013-09-04T13:57:10Z</time>
      </trkpt>
      <trkpt lat="43.027933" lon="-4.741950">
        <ele>3527.0</ele>
        <time>2013-09-04T13:57:11Z</time>
      </trkpt>
      <trkpt lat="43.027883" lon="-4.741900">
        <ele>3530.0</ele>
        <time>2013-09-04T13:57:12Z</time>
      </trkpt>
      <trkpt lat="43.027817" lon="-4.741867">
        <ele>3532.0</ele>
        <time>2013-09-04T13:57:13Z</time>
      </trkpt>
      <trkpt lat="43.027767" lon="-4.741817">
        <ele>3536.0</ele>
        <time>2013-09-04T13:57:14Z</time>
      </trkpt>
      <trkpt lat="43.027700" lon="-4.741767">
        <ele>3539.0</ele>
        <time>2013-09-04T13:57:15Z</time>
      </trkpt>
      <trkpt lat="43.027650" lon="-4.741717">
        <ele>3543.0</ele>
        <time>2013-09-04T13:57:16Z</time>
      </trkpt>
      <trkpt lat="43.027600" lon="-4.741683">
        <ele>3547.0</ele>
        <time>2013-09-04T13:57:17Z</time>
      </trkpt>
      <trkpt lat="43.027567" lon="-4.741650">
        <ele>3552.0</ele>
        <time>2013-09-04T13:57:18Z</time>
      </trkpt>
      <trkpt lat="43.027517" lon="-4.741600">
        <ele>3557.0</ele>
        <time>2013-09-04T13:57:19Z</time>
      </trkpt>
      <trkpt lat="43.027483" lon="-4.741533">
        <ele>3561.0</ele>
        <time>2013-09-04T13:57:20Z</time>
      </trkpt>
      <trkpt lat="43.027433" lon="-4.741467">
        <ele>3567.0</ele>
        <time>2013-09-04T13:57:21Z</time>
      </trkpt>
      <trkpt lat="43.027400" lon="-4.741417">
        <ele>3572.0</ele>
        <time>2013-09-04T13:57:22Z</time>
      </trkpt>
      <trkpt lat="43.027367" lon="-4.741383">
        <ele>3576.0</ele>
        <time>2013-09-04T13:57:23Z</time>
      </trkpt>
      <trkpt lat="43.027333" lon="-4.741367">
        <ele>3581.0</ele>
        <time>2013-09-04T13:57:24Z</time>
      </trkpt>
      <trkpt lat="43.027317" lon="-4.741317">
        <ele>3585.0</ele>
        <time>2013-09-04T13:57:25Z</time>
      </trkpt>
      <trkpt lat="43.027283" lon="-4.741267">
        <ele>3589.0</ele>
        <time>2013-09-04T13:57:26Z</time>
      </trkpt>
      <trkpt lat="43.027250" lon="-4.741233">
        <ele>3592.0</ele>
        <time>2013-09-04T13:57:27Z</time>
      </trkpt>
      <trkpt lat="43.027217" lon="-4.741200">
        <ele>3595.0</ele>
        <time>2013-09-04T13:57:28Z</time>
      </trkpt>
      <trkpt lat="43.027183" lon="-4.741167">
        <ele>3599.0</ele>
        <time>2013-09-04T13:57:29Z</time>
      </trkpt>
      <trkpt lat="43.027167" lon="-4.741083">
        <ele>3602.0</ele>
        <time>2013-09-04T13:57:30Z</time>
      </trkpt>
      <trkpt lat="43.027183" lon="-4.740967">
        <ele>3605.0</ele>
        <time>2013-09-04T13:57:31Z</time>
      </trkpt>
      <trkpt lat="43.027250" lon="-4.740833">
        <ele>3608.0</ele>
        <time>2013-09-04T13:57:32Z</time>
      </trkpt>
      <trkpt lat="43.027350" lon="-4.740717">
        <ele>3611.0</ele>
        <time>2013-09-04T13:57:33Z</time>
      </trkpt>
      <trkpt lat="43.027467" lon="-4.740633">
        <ele>3615.0</ele>
        <time>2013-09-04T13:57:34Z</time>
      </trkpt>
      <trkpt lat="43.027583" lon="-4.740600">
        <ele>3619.0</ele>
        <time>2013-09-04T13:57:35Z</time>
      </trkpt>
      <trkpt lat="43.027700" lon="-4.740600">
        <ele>3623.0</ele>
        <time>2013-09-04T13:57:36Z</time>
      </trkpt>
      <trkpt lat="43.027783" lon="-4.740633">
        <ele>3625.0</ele>
        <time>2013-09-04T13:57:37Z</time>
      </trkpt>
      <trkpt lat="43.027883" lon="-4.740683">
        <ele>3628.0</ele>
        <time>2013-09-04T13:57:38Z</time>
      </trkpt>
      <trkpt lat="43.028000" lon="-4.740700">
        <ele>3631.0</ele>
        <time>2013-09-04T13:57:39Z</time>
      </trkpt>
      <trkpt lat="43.028100" lon="-4.740733">
        <ele>3635.0</ele>
        <time>2013-09-04T13:57:40Z</time>
      </trkpt>
      <trkpt lat="43.028183" lon="-4.740767">
        <ele>3639.0</ele>
        <time>2013-09-04T13:57:41Z</time>
      </trkpt>
      <trkpt lat="43.028283" lon="-4.740817">
        <ele>3642.0</ele>
        <time>2013-09-04T13:57:42Z</time>
      </trkpt>
      <trkpt lat="43.028383" lon="-4.740883">
        <ele>3646.0</ele>
        <time>2013-09-04T13:57:43Z</time>
      </trkpt>
      <trkpt lat="43.028467" lon="-4.740967">
        <ele>3649.0</ele>
        <time>2013-09-04T13:57:44Z</time>
      </trkpt>
      <trkpt lat="43.028550" lon="-4.741050">
        <ele>3652.0</ele>
        <time>2013-09-04T13:57:45Z</time>
      </trkpt>
      <trkpt lat="43.028617" lon="-4.741133">
        <ele>3656.0</ele>
        <time>2013-09-04T13:57:46Z</time>
      </trkpt>
      <trkpt lat="43.028683" lon="-4.741217">
        <ele>3659.0</ele>
        <time>2013-09-04T13:57:47Z</time>
      </trkpt>
      <trkpt lat="43.028733" lon="-4.741317">
        <ele>3662.0</ele>
        <time>2013-09-04T13:57:48Z</time>
      </trkpt>
      <trkpt lat="43.028783" lon="-4.741417">
        <ele>3664.0</ele>
        <time>2013-09-04T13:57:49Z</time>
      </trkpt>
      <trkpt lat="43.028800" lon="-4.741500">
        <ele>3666.0</ele>
        <time>2013-09-04T13:57:50Z</time>
      </trkpt>
      <trkpt lat="43.028800" lon="-4.741583">
        <ele>3668.0</ele>
        <time>2013-09-04T13:57:51Z</time>
      </trkpt>
      <trkpt lat="43.028767" lon="-4.741667">
        <ele>3670.0</ele>
        <time>2013-09-04T13:57:52Z</time>
      </trkpt>
      <trkpt lat="43.028733" lon="-4.741733">
        <ele>3673.0</ele>
        <time>2013-09-04T13:57:53Z</time>
      </trkpt>
      <trkpt lat="43.028700" lon="-4.741783">
        <ele>3678.0</ele>
        <time>2013-09-04T13:57:54Z</time>
      </trkpt>
      <trkpt lat="43.028683" lon="-4.741817">
        <ele>3684.0</ele>
        <time>2013-09-04T13:57:55Z</time>
      </trkpt>
      <trkpt lat="43.028667" lon="-4.741833">
        <ele>3688.0</ele>
        <time>2013-09-04T13:57:56Z</time>
      </trkpt>
      <trkpt lat="43.028667" lon="-4.741867">
        <ele>3692.0</ele>
        <time>2013-09-04T13:57:57Z</time>
      </trkpt>
      <trkpt lat="43.028650" lon="-4.741883">
        <ele>3695.0</ele>
        <time>2013-09-04T13:57:58Z</time>
      </trkpt>
      <trkpt lat="43.028600" lon="-4.741917">
        <ele>3698.0</ele>
        <time>2013-09-04T13:57:59Z</time>
      </trkpt>
      <trkpt lat="43.028567" lon="-4.741900">
        <ele>3701.0</ele>
        <time>2013-09-04T13:58:00Z</time>
      </trkpt>
      <trkpt lat="43.028533" lon="-4.741867">
        <ele>3707.0</ele>
        <time>2013-09-04T13:58:01Z</time>
      </trkpt>
      <trkpt lat="43.028517" lon="-4.741817">
        <ele>3712.0</ele>
        <time>2013-09-04T13:58:02Z</time>
      </trkpt>
      <trkpt lat="43.028517" lon="-4.741733">
        <ele>3717.0</ele>
        <time>2013-09-04T13:58:03Z</time>
      </trkpt>
      <trkpt lat="43.028517" lon="-4.741650">
        <ele>3721.0</ele>
        <time>2013-09-04T13:58:04Z</time>
      </trkpt>
      <trkpt lat="43.028517" lon="-4.741550">
        <ele>3725.0</ele>
        <time>2013-09-04T13:58:05Z</time>
      </trkpt>
      <trkpt lat="43.028533" lon="-4.741433">
        <ele>3728.0</ele>
        <time>2013-09-04T13:58:06Z</time>
      </trkpt>
      <trkpt lat="43.028567" lon="-4.741317">
        <ele>3731.0</ele>
        <time>2013-09-04T13:58:07Z</time>
      </trkpt>
      <trkpt lat="43.028617" lon="-4.741183">
        <ele>3734.0</ele>
        <time>2013-09-04T13:58:08Z</time>
      </trkpt>
      <trkpt lat="43.028683" lon="-4.741050">
        <ele>3737.0</ele>
        <time>2013-09-04T13:58:09Z</time>
      </trkpt>
      <trkpt lat="43.028767" lon="-4.740950">
        <ele>3740.0</ele>
        <time>2013-09-04T13:58:10Z</time>
      </trkpt>
      <trkpt lat="43.028867" lon="-4.740883">
        <ele>3742.0</ele>
        <time>2013-09-04T13:58:11Z</time>
      </trkpt>
      <trkpt lat="43.028983" lon="-4.740833">
        <ele>3742.0</ele>
        <time>2013-09-04T13:58:12Z</time>
      </trkpt>
      <trkpt lat="43.029117" lon="-4.740783">
        <ele>3742.0</ele>
        <time>2013-09-04T13:58:13Z</time>
      </trkpt>
      <trkpt lat="43.029250" lon="-4.740733">
        <ele>3743.0</ele>
        <time>2013-09-04T13:58:14Z</time>
      </trkpt>
      <trkpt lat="43.029400" lon="-4.740700">
        <ele>3746.0</ele>
        <time>2013-09-04T13:58:15Z</time>
      </trkpt>
      <trkpt lat="43.029533" lon="-4.740700">
        <ele>3749.0</ele>
        <time>2013-09-04T13:58:16Z</time>
      </trkpt>
      <trkpt lat="43.029650" lon="-4.740717">
        <ele>3751.0</ele>
        <time>2013-09-04T13:58:17Z</time>
      </trkpt>
      <trkpt lat="43.029767" lon="-4.740750">
        <ele>3753.0</ele>
        <time>2013-09-04T13:58:18Z</time>
      </trkpt>
      <trkpt lat="43.029867" lon="-4.740817">
        <ele>3754.0</ele>
        <time>2013-09-04T13:58:19Z</time>
      </trkpt>
      <trkpt lat="43.029950" lon="-4.740883">
        <ele>3755.0</ele>
        <time>2013-09-04T13:58:20Z</time>
      </trkpt>
      <trkpt lat="43.030050" lon="-4.740983">
        <ele>3756.0</ele>
        <time>2013-09-04T13:58:21Z</time>
      </trkpt>
      <trkpt lat="43.030117" lon="-4.741083">
        <ele>3757.0</ele>
        <time>2013-09-04T13:58:22Z</time>
      </trkpt>
      <trkpt lat="43.030183" lon="-4.741183">
        <ele>3759.0</ele>
        <time>2013-09-04T13:58:23Z</time>
      </trkpt>
      <trkpt lat="43.030217" lon="-4.741283">
        <ele>3761.0</ele>
        <time>2013-09-04T13:58:24Z</time>
      </trkpt>
      <trkpt lat="43.030233" lon="-4.741383">
        <ele>3762.0</ele>
        <time>2013-09-04T13:58:25Z</time>
      </trkpt>
      <trkpt lat="43.030233" lon="-4.741483">
        <ele>3764.0</ele>
        <time>2013-09-04T13:58:26Z</time>
      </trkpt>
      <trkpt lat="43.030217" lon="-4.741567">
        <ele>3766.0</ele>
        <time>2013-09-04T13:58:27Z</time>
      </trkpt>
      <trkpt lat="43.030200" lon="-4.741650">
        <ele>3769.0</ele>
        <time>2013-09-04T13:58:28Z</time>
      </trkpt>
      <trkpt lat="43.030200" lon="-4.741717">
        <ele>3772.0</ele>
        <time>2013-09-04T13:58:29Z</time>
      </trkpt>
      <trkpt lat="43.030217" lon="-4.741767">
        <ele>3776.0</ele>
        <time>2013-09-04T13:58:30Z</time>
      </trkpt>
      <trkpt lat="43.030217" lon="-4.741800">
        <ele>3779.0</ele>
        <time>2013-09-04T13:58:31Z</time>
      </trkpt>
      <trkpt lat="43.030217" lon="-4.741850">
        <ele>3781.0</ele>
        <time>2013-09-04T13:58:32Z</time>
      </trkpt>
      <trkpt lat="43.030200" lon="-4.741867">
        <ele>3783.0</ele>
        <time>2013-09-04T13:58:33Z</time>
      </trkpt>
      <trkpt lat="43.030183" lon="-4.741883">
        <ele>3786.0</ele>
        <time>2013-09-04T13:58:34Z</time>
      </trkpt>
      <trkpt lat="43.030167" lon="-4.741850">
        <ele>3790.0</ele>
        <time>2013-09-04T13:58:35Z</time>
      </trkpt>
      <trkpt lat="43.030167" lon="-4.741817">
        <ele>3794.0</ele>
        <time>2013-09-04T13:58:36Z</time>
      </trkpt>
      <trkpt lat="43.030167" lon="-4.741750">
        <ele>3797.0</ele>
        <time>2013-09-04T13:58:37Z</time>
      </trkpt>
      <trkpt lat="43.030167" lon="-4.741700">
        <ele>3801.0</ele>
        <time>2013-09-04T13:58:38Z</time>
      </trkpt>
      <trkpt lat="43.030167" lon="-4.741633">
        <ele>3803.0</ele>
        <time>2013-09-04T13:58:39Z</time>
      </trkpt>
      <trkpt lat="43.030167" lon="-4.741583">
        <ele>3805.0</ele>
        <time>2013-09-04T13:58:40Z</time>
      </trkpt>
      <trkpt lat="43.030183" lon="-4.741500">
        <ele>3807.0</ele>
        <time>2013-09-04T13:58:41Z</time>
      </trkpt>
      <trkpt lat="43.030200" lon="-4.741400">
        <ele>3809.0</ele>
        <time>2013-09-04T13:58:42Z</time>
      </trkpt>
      <trkpt lat="43.030250" lon="-4.741283">
        <ele>3810.0</ele>
        <time>2013-09-04T13:58:43Z</time>
      </trkpt>
      <trkpt lat="43.030283" lon="-4.741150">
        <ele>3812.0</ele>
        <time>2013-09-04T13:58:44Z</time>
      </trkpt>
      <trkpt lat="43.030333" lon="-4.741033">
        <ele>3814.0</ele>
        <time>2013-09-04T13:58:45Z</time>
      </trkpt>
      <trkpt lat="43.030400" lon="-4.740950">
        <ele>3815.0</ele>
        <time>2013-09-04T13:58:46Z</time>
      </trkpt>
      <trkpt lat="43.030450" lon="-4.740867">
        <ele>3816.0</ele>
        <time>2013-09-04T13:58:47Z</time>
      </trkpt>
      <trkpt lat="43.030517" lon="-4.740767">
        <ele>3816.0</ele>
        <time>2013-09-04T13:58:48Z</time>
      </trkpt>
      <trkpt lat="43.030617" lon="-4.740667">
        <ele>3814.0</ele>
        <time>2013-09-04T13:58:49Z</time>
      </trkpt>
      <trkpt lat="43.030733" lon="-4.740567">
        <ele>3813.0</ele>
        <time>2013-09-04T13:58:50Z</time>
      </trkpt>
      <trkpt lat="43.030867" lon="-4.740483">
        <ele>3814.0</ele>
        <time>2013-09-04T13:58:51Z</time>
      </trkpt>
      <trkpt lat="43.031000" lon="-4.740433">
        <ele>3816.0</ele>
        <time>2013-09-04T13:58:52Z</time>
      </trkpt>
      <trkpt lat="43.031117" lon="-4.740417">
        <ele>3817.0</ele>
        <time>2013-09-04T13:58:53Z</time>
      </trkpt>
      <trkpt lat="43.031233" lon="-4.740417">
        <ele>3820.0</ele>
        <time>2013-09-04T13:58:54Z</time>
      </trkpt>
      <trkpt lat="43.031333" lon="-4.740433">
        <ele>3822.0</ele>
        <time>2013-09-04T13:58:55Z</time>
      </trkpt>
      <trkpt lat="43.031417" lon="-4.740467">
        <ele>3822.0</ele>
        <time>2013-09-04T13:58:56Z</time>
      </trkpt>
      <trkpt lat="43.031500" lon="-4.740517">
        <ele>3822.0</ele>
        <time>2013-09-04T13:58:57Z</time>
      </trkpt>
      <trkpt lat="43.031583" lon="-4.740600">
        <ele>3823.0</ele>
        <time>2013-09-04T13:58:58Z</time>
      </trkpt>
      <trkpt lat="43.031667" lon="-4.740683">
        <ele>3824.0</ele>
        <time>2013-09-04T13:58:59Z</time>
      </trkpt>
      <trkpt lat="43.031717" lon="-4.740783">
        <ele>3826.0</ele>
        <time>2013-09-04T13:59:00Z</time>
      </trkpt>
      <trkpt lat="43.031733" lon="-4.740850">
        <ele>3828.0</ele>
        <time>2013-09-04T13:59:01Z</time>
      </trkpt>
      <trkpt lat="43.031767" lon="-4.740933">
        <ele>3830.0</ele>
        <time>2013-09-04T13:59:02Z</time>
      </trkpt>
      <trkpt lat="43.031783" lon="-4.741000">
        <ele>3831.0</ele>
        <time>2013-09-04T13:59:03Z</time>
      </trkpt>
      <trkpt lat="43.031800" lon="-4.741050">
        <ele>3833.0</ele>
        <time>2013-09-04T13:59:04Z</time>
      </trkpt>
      <trkpt lat="43.031833" lon="-4.741117">
        <ele>3835.0</ele>
        <time>2013-09-04T13:59:05Z</time>
      </trkpt>
      <trkpt lat="43.031850" lon="-4.741167">
        <ele>3837.0</ele>
        <time>2013-09-04T13:59:06Z</time>
      </trkpt>
      <trkpt lat="43.031867" lon="-4.741217">
        <ele>3837.0</ele>
        <time>2013-09-04T13:59:07Z</time>
      </trkpt>
      <trkpt lat="43.031867" lon="-4.741267">
        <ele>3838.0</ele>
        <time>2013-09-04T13:59:08Z</time>
      </trkpt>
      <trkpt lat="43.031883" lon="-4.741317">
        <ele>3838.0</ele>
        <time>2013-09-04T13:59:09Z</time>
      </trkpt>
      <trkpt lat="43.031883" lon="-4.741383">
        <ele>3838.0</ele>
        <time>2013-09-04T13:59:10Z</time>
      </trkpt>
      <trkpt lat="43.031867" lon="-4.741417">
        <ele>3839.0</ele>
        <time>2013-09-04T13:59:11Z</time>
      </trkpt>
      <trkpt lat="43.031850" lon="-4.741433">
        <ele>3839.0</ele>
        <time>2013-09-04T13:59:12Z</time>
      </trkpt>
      <trkpt lat="43.031817" lon="-4.741417">
        <ele>3839.0</ele>
        <time>2013-09-04T13:59:13Z</time>
      </trkpt>
      <trkpt lat="43.031800" lon="-4.741383">
        <ele>3838.0</ele>
        <time>2013-09-04T13:59:14Z</time>
      </trkpt>
      <trkpt lat="43.031783" lon="-4.741333">
        <ele>3838.0</ele>
        <time>2013-09-04T13:59:15Z</time>
      </trkpt>
      <trkpt lat="43.031767" lon="-4.741317">
        <ele>3838.0</ele>
        <time>2013-09-04T13:59:16Z</time>
      </trkpt>
      <trkpt lat="43.031733" lon="-4.741300">
        <ele>3837.0</ele>
        <time>2013-09-04T13:59:17Z</time>
      </trkpt>
      <trkpt lat="43.031717" lon="-4.741283">
        <ele>3837.0</ele>
        <time>2013-09-04T13:59:18Z</time>
      </trkpt>
      <trkpt lat="43.031683" lon="-4.741267">
        <ele>3836.0</ele>
        <time>2013-09-04T13:59:19Z</time>
      </trkpt>
      <trkpt lat="43.031667" lon="-4.741250">
        <ele>3837.0</ele>
        <time>2013-09-04T13:59:20Z</time>
      </trkpt>
      <trkpt lat="43.031633" lon="-4.741233">
        <ele>3837.0</ele>
        <time>2013-09-04T13:59:21Z</time>
      </trkpt>
      <trkpt lat="43.031617" lon="-4.741200">
        <ele>3838.0</ele>
        <time>2013-09-04T13:59:22Z</time>
      </trkpt>
      <trkpt lat="43.031600" lon="-4.741183">
        <ele>3837.0</ele>
        <time>2013-09-04T13:59:23Z</time>
      </trkpt>
      <trkpt lat="43.031600" lon="-4.741167">
        <ele>3836.0</ele>
        <time>2013-09-04T13:59:24Z</time>
      </trkpt>
      <trkpt lat="43.031567" lon="-4.741133">
        <ele>3837.0</ele>
        <time>2013-09-04T13:59:25Z</time>
      </trkpt>
      <trkpt lat="43.031533" lon="-4.741117">
        <ele>3835.0</ele>
        <time>2013-09-04T13:59:26Z</time>
      </trkpt>
      <trkpt lat="43.031500" lon="-4.741083">
        <ele>3834.0</ele>
        <time>2013-09-04T13:59:27Z</time>
      </trkpt>
      <trkpt lat="43.031467" lon="-4.741050">
        <ele>3834.0</ele>
        <time>2013-09-04T13:59:28Z</time>
      </trkpt>
      <trkpt lat="43.031417" lon="-4.741017">
        <ele>3834.0</ele>
        <time>2013-09-04T13:59:29Z</time>
      </trkpt>
      <trkpt lat="43.031383" lon="-4.741000">
        <ele>3833.0</ele>
        <time>2013-09-04T13:59:30Z</time>
      </trkpt>
      <trkpt lat="43.031367" lon="-4.740983">
        <ele>3833.0</ele>
        <time>2013-09-04T13:59:31Z</time>
      </trkpt>
      <trkpt lat="43.031333" lon="-4.740967">
        <ele>3834.0</ele>
        <time>2013-09-04T13:59:32Z</time>
      </trkpt>
      <trkpt lat="43.031300" lon="-4.740933">
        <ele>3835.0</ele>
        <time>2013-09-04T13:59:33Z</time>
      </trkpt>
      <trkpt lat="43.031283" lon="-4.740900">
        <ele>3836.0</ele>
        <time>2013-09-04T13:59:34Z</time>
      </trkpt>
      <trkpt lat="43.031250" lon="-4.740883">
        <ele>3837.0</ele>
        <time>2013-09-04T13:59:35Z</time>
      </trkpt>
      <trkpt lat="43.031233" lon="-4.740850">
        <ele>3838.0</ele>
        <time>2013-09-04T13:59:36Z</time>
      </trkpt>
      <trkpt lat="43.031200" lon="-4.740800">
        <ele>3838.0</ele>
        <time>2013-09-04T13:59:37Z</time>
      </trkpt>
      <trkpt lat="43.031167" lon="-4.740733">
        <ele>3839.0</ele>
        <time>2013-09-04T13:59:38Z</time>
      </trkpt>
      <trkpt lat="43.031133" lon="-4.740667">
        <ele>3840.0</ele>
        <time>2013-09-04T13:59:39Z</time>
      </trkpt>
      <trkpt lat="43.031117" lon="-4.740633">
        <ele>3840.0</ele>
        <time>2013-09-04T13:59:40Z</time>
      </trkpt>
      <trkpt lat="43.031117" lon="-4.740600">
        <ele>3840.0</ele>
        <time>2013-09-04T13:59:41Z</time>
      </trkpt>
      <trkpt lat="43.031083" lon="-4.740583">
        <ele>3838.0</ele>
        <time>2013-09-04T13:59:42Z</time>
      </trkpt>
      <trkpt lat="43.031050" lon="-4.740567">
        <ele>3836.0</ele>
        <time>2013-09-04T13:59:43Z</time>
      </trkpt>
      <trkpt lat="43.031017" lon="-4.740517">
        <ele>3834.0</ele>
        <time>2013-09-04T13:59:44Z</time>
      </trkpt>
      <trkpt lat="43.030967" lon="-4.740483">
        <ele>3833.0</ele>
        <time>2013-09-04T13:59:45Z</time>
      </trkpt>
      <trkpt lat="43.030917" lon="-4.740450">
        <ele>3832.0</ele>
        <time>2013-09-04T13:59:46Z</time>
      </trkpt>
      <trkpt lat="43.030883" lon="-4.740433">
        <ele>3832.0</ele>
        <time>2013-09-04T13:59:47Z</time>
      </trkpt>
      <trkpt lat="43.030833" lon="-4.740450">
        <ele>3831.0</ele>
        <time>2013-09-04T13:59:48Z</time>
      </trkpt>
      <trkpt lat="43.030783" lon="-4.740450">
        <ele>3831.0</ele>
        <time>2013-09-04T13:59:49Z</time>
      </trkpt>
      <trkpt lat="43.030750" lon="-4.740450">
        <ele>3832.0</ele>
        <time>2013-09-04T13:59:50Z</time>
      </trkpt>
      <trkpt lat="43.030717" lon="-4.740450">
        <ele>3834.0</ele>
        <time>2013-09-04T13:59:51Z</time>
      </trkpt>
      <trkpt lat="43.030700" lon="-4.740467">
        <ele>3835.0</ele>
        <time>2013-09-04T13:59:52Z</time>
      </trkpt>
      <trkpt lat="43.030700" lon="-4.740500">
        <ele>3836.0</ele>
        <time>2013-09-04T13:59:53Z</time>
      </trkpt>
      <trkpt lat="43.030683" lon="-4.740550">
        <ele>3837.0</ele>
        <time>2013-09-04T13:59:54Z</time>
      </trkpt>
      <trkpt lat="43.030667" lon="-4.740583">
        <ele>3838.0</ele>
        <time>2013-09-04T13:59:55Z</time>
      </trkpt>
      <trkpt lat="43.030650" lon="-4.740617">
        <ele>3838.0</ele>
        <time>2013-09-04T13:59:56Z</time>
      </trkpt>
      <trkpt lat="43.030617" lon="-4.740633">
        <ele>3839.0</ele>
        <time>2013-09-04T13:59:57Z</time>
      </trkpt>
      <trkpt lat="43.030583" lon="-4.740667">
        <ele>3841.0</ele>
        <time>2013-09-04T13:59:58Z</time>
      </trkpt>
      <trkpt lat="43.030567" lon="-4.740700">
        <ele>3844.0</ele>
        <time>2013-09-04T13:59:59Z</time>
      </trkpt>
      <trkpt lat="43.030550" lon="-4.740750">
        <ele>3846.0</ele>
        <time>2013-09-04T14:00:00Z</time>
      </trkpt>
      <trkpt lat="43.030550" lon="-4.740783">
        <ele>3847.0</ele>
        <time>2013-09-04T14:00:01Z</time>
      </trkpt>
      <trkpt lat="43.030533" lon="-4.740850">
        <ele>3849.0</ele>
        <time>2013-09-04T14:00:02Z</time>
      </trkpt>
      <trkpt lat="43.030533" lon="-4.740900">
        <ele>3851.0</ele>
        <time>2013-09-04T14:00:03Z</time>
      </trkpt>
      <trkpt lat="43.030517" lon="-4.740967">
        <ele>3852.0</ele>
        <time>2013-09-04T14:00:04Z</time>
      </trkpt>
      <trkpt lat="43.030500" lon="-4.741033">
        <ele>3854.0</ele>
        <time>2013-09-04T14:00:05Z</time>
      </trkpt>
      <trkpt lat="43.030500" lon="-4.741100">
        <ele>3855.0</ele>
        <time>2013-09-04T14:00:06Z</time>
      </trkpt>
      <trkpt lat="43.030500" lon="-4.741150">
        <ele>3857.0</ele>
        <time>2013-09-04T14:00:07Z</time>
      </trkpt>
      <trkpt lat="43.030517" lon="-4.741200">
        <ele>3857.0</ele>
        <time>2013-09-04T14:00:08Z</time>
      </trkpt>
      <trkpt lat="43.030517" lon="-4.741267">
        <ele>3857.0</ele>
        <time>2013-09-04T14:00:09Z</time>
      </trkpt>
      <trkpt lat="43.030550" lon="-4.741350">
        <ele>3857.0</ele>
        <time>2013-09-04T14:00:10Z</time>
      </trkpt>
      <trkpt lat="43.030583" lon="-4.741433">
        <ele>3858.0</ele>
        <time>2013-09-04T14:00:11Z</time>
      </trkpt>
      <trkpt lat="43.030650" lon="-4.741500">
        <ele>3860.0</ele>
        <time>2013-09-04T14:00:12Z</time>
      </trkpt>
      <trkpt lat="43.030717" lon="-4.741550">
        <ele>3863.0</ele>
        <time>2013-09-04T14:00:13Z</time>
      </trkpt>
      <trkpt lat="43.030800" lon="-4.741583">
        <ele>3867.0</ele>
        <time>2013-09-04T14:00:14Z</time>
      </trkpt>
      <trkpt lat="43.030867" lon="-4.741617">
        <ele>3870.0</ele>
        <time>2013-09-04T14:00:15Z</time>
      </trkpt>
      <trkpt lat="43.030950" lon="-4.741633">
        <ele>3874.0</ele>
        <time>2013-09-04T14:00:16Z</time>
      </trkpt>
      <trkpt lat="43.031033" lon="-4.741650">
        <ele>3877.0</ele>
        <time>2013-09-04T14:00:17Z</time>
      </trkpt>
      <trkpt lat="43.031133" lon="-4.741650">
        <ele>3881.0</ele>
        <time>2013-09-04T14:00:18Z</time>
      </trkpt>
      <trkpt lat="43.031233" lon="-4.741633">
        <ele>3884.0</ele>
        <time>2013-09-04T14:00:19Z</time>
      </trkpt>
      <trkpt lat="43.031350" lon="-4.741567">
        <ele>3887.0</ele>
        <time>2013-09-04T14:00:20Z</time>
      </trkpt>
      <trkpt lat="43.031450" lon="-4.741483">
        <ele>3889.0</ele>
        <time>2013-09-04T14:00:21Z</time>
      </trkpt>
      <trkpt lat="43.031550" lon="-4.741367">
        <ele>3890.0</ele>
        <time>2013-09-04T14:00:22Z</time>
      </trkpt>
      <trkpt lat="43.031617" lon="-4.741233">
        <ele>3891.0</ele>
        <time>2013-09-04T14:00:23Z</time>
      </trkpt>
      <trkpt lat="43.031650" lon="-4.741100">
        <ele>3891.0</ele>
        <time>2013-09-04T14:00:24Z</time>
      </trkpt>
      <trkpt lat="43.031650" lon="-4.740983">
        <ele>3890.0</ele>
        <time>2013-09-04T14:00:25Z</time>
      </trkpt>
      <trkpt lat="43.031633" lon="-4.740883">
        <ele>3888.0</ele>
        <time>2013-09-04T14:00:26Z</time>
      </trkpt>
      <trkpt lat="43.031600" lon="-4.740817">
        <ele>3887.0</ele>
        <time>2013-09-04T14:00:27Z</time>
      </trkpt>
      <trkpt lat="43.031550" lon="-4.740783">
        <ele>3885.0</ele>
        <time>2013-09-04T14:00:28Z</time>
      </trkpt>
      <trkpt lat="43.031500" lon="-4.740767">
        <ele>3884.0</ele>
        <time>2013-09-04T14:00:29Z</time>
      </trkpt>
      <trkpt lat="43.031450" lon="-4.740767">
        <ele>3885.0</ele>
        <time>2013-09-04T14:00:30Z</time>
      </trkpt>
      <trkpt lat="43.031417" lon="-4.740767">
        <ele>3885.0</ele>
        <time>2013-09-04T14:00:31Z</time>
      </trkpt>
      <trkpt lat="43.031367" lon="-4.740750">
        <ele>3886.0</ele>
        <time>2013-09-04T14:00:32Z</time>
      </trkpt>
      <trkpt lat="43.031317" lon="-4.740717">
        <ele>3886.0</ele>
        <time>2013-09-04T14:00:33Z</time>
      </trkpt>
      <trkpt lat="43.031283" lon="-4.740700">
        <ele>3887.0</ele>
        <time>2013-09-04T14:00:34Z</time>
      </trkpt>
      <trkpt lat="43.031250" lon="-4.740700">
        <ele>3889.0</ele>
        <time>2013-09-04T14:00:35Z</time>
      </trkpt>
      <trkpt lat="43.031233" lon="-4.740733">
        <ele>3890.0</ele>
        <time>2013-09-04T14:00:36Z</time>
      </trkpt>
      <trkpt lat="43.031217" lon="-4.740783">
        <ele>3892.0</ele>
        <time>2013-09-04T14:00:37Z</time>
      </trkpt>
      <trkpt lat="43.031200" lon="-4.740817">
        <ele>3894.0</ele>
        <time>2013-09-04T14:00:38Z</time>
      </trkpt>
      <trkpt lat="43.031200" lon="-4.740867">
        <ele>3896.0</ele>
        <time>2013-09-04T14:00:39Z</time>
      </trkpt>
      <trkpt lat="43.031183" lon="-4.740933">
        <ele>3898.0</ele>
        <time>2013-09-04T14:00:40Z</time>
      </trkpt>
      <trkpt lat="43.031200" lon="-4.741000">
        <ele>3899.0</ele>
        <time>2013-09-04T14:00:41Z</time>
      </trkpt>
      <trkpt lat="43.031217" lon="-4.741083">
        <ele>3901.0</ele>
        <time>2013-09-04T14:00:42Z</time>
      </trkpt>
      <trkpt lat="43.031217" lon="-4.741167">
        <ele>3903.0</ele>
        <time>2013-09-04T14:00:43Z</time>
      </trkpt>
      <trkpt lat="43.031233" lon="-4.741267">
        <ele>3904.0</ele>
        <time>2013-09-04T14:00:44Z</time>
      </trkpt>
      <trkpt lat="43.031267" lon="-4.741350">
        <ele>3907.0</ele>
        <time>2013-09-04T14:00:45Z</time>
      </trkpt>
      <trkpt lat="43.031300" lon="-4.741433">
        <ele>3908.0</ele>
        <time>2013-09-04T14:00:46Z</time>
      </trkpt>
      <trkpt lat="43.031350" lon="-4.741533">
        <ele>3909.0</ele>
        <time>2013-09-04T14:00:47Z</time>
      </trkpt>
      <trkpt lat="43.031383" lon="-4.741650">
        <ele>3911.0</ele>
        <time>2013-09-04T14:00:48Z</time>
      </trkpt>
      <trkpt lat="43.031433" lon="-4.741767">
        <ele>3914.0</ele>
        <time>2013-09-04T14:00:49Z</time>
      </trkpt>
      <trkpt lat="43.031483" lon="-4.741850">
        <ele>3919.0</ele>
        <time>2013-09-04T14:00:50Z</time>
      </trkpt>
      <trkpt lat="43.031533" lon="-4.741917">
        <ele>3923.0</ele>
        <time>2013-09-04T14:00:51Z</time>
      </trkpt>
      <trkpt lat="43.031600" lon="-4.741983">
        <ele>3925.0</ele>
        <time>2013-09-04T14:00:52Z</time>
      </trkpt>
      <trkpt lat="43.031683" lon="-4.742083">
        <ele>3928.0</ele>
        <time>2013-09-04T14:00:53Z</time>
      </trkpt>
      <trkpt lat="43.031767" lon="-4.742200">
        <ele>3932.0</ele>
        <time>2013-09-04T14:00:54Z</time>
      </trkpt>
      <trkpt lat="43.031850" lon="-4.742283">
        <ele>3938.0</ele>
        <time>2013-09-04T14:00:55Z</time>
      </trkpt>
      <trkpt lat="43.031933" lon="-4.742350">
        <ele>3944.0</ele>
        <time>2013-09-04T14:00:56Z</time>
      </trkpt>
      <trkpt lat="43.032033" lon="-4.742400">
        <ele>3950.0</ele>
        <time>2013-09-04T14:00:57Z</time>
      </trkpt>
      <trkpt lat="43.032150" lon="-4.742433">
        <ele>3956.0</ele>
        <time>2013-09-04T14:00:58Z</time>
      </trkpt>
      <trkpt lat="43.032267" lon="-4.742467">
        <ele>3961.0</ele>
        <time>2013-09-04T14:00:59Z</time>
      </trkpt>
      <trkpt lat="43.032383" lon="-4.742483">
        <ele>3966.0</ele>
        <time>2013-09-04T14:01:00Z</time>
      </trkpt>
      <trkpt lat="43.032500" lon="-4.742500">
        <ele>3970.0</ele>
        <time>2013-09-04T14:01:01Z</time>
      </trkpt>
      <trkpt lat="43.032633" lon="-4.742517">
        <ele>3973.0</ele>
        <time>2013-09-04T14:01:02Z</time>
      </trkpt>
      <trkpt lat="43.032783" lon="-4.742517">
        <ele>3975.0</ele>
        <time>2013-09-04T14:01:03Z</time>
      </trkpt>
      <trkpt lat="43.032950" lon="-4.742483">
        <ele>3978.0</ele>
        <time>2013-09-04T14:01:04Z</time>
      </trkpt>
      <trkpt lat="43.033117" lon="-4.742367">
        <ele>3981.0</ele>
        <time>2013-09-04T14:01:05Z</time>
      </trkpt>
      <trkpt lat="43.033217" lon="-4.742217">
        <ele>3984.0</ele>
        <time>2013-09-04T14:01:06Z</time>
      </trkpt>
      <trkpt lat="43.033267" lon="-4.742033">
        <ele>3986.0</ele>
        <time>2013-09-04T14:01:07Z</time>
      </trkpt>
      <trkpt lat="43.033283" lon="-4.741867">
        <ele>3989.0</ele>
        <time>2013-09-04T14:01:08Z</time>
      </trkpt>
      <trkpt lat="43.033283" lon="-4.741750">
        <ele>3996.0</ele>
        <time>2013-09-04T14:01:09Z</time>
      </trkpt>
      <trkpt lat="43.033283" lon="-4.741667">
        <ele>4002.0</ele>
        <time>2013-09-04T14:01:10Z</time>
      </trkpt>
      <trkpt lat="43.033283" lon="-4.741600">
        <ele>4005.0</ele>
        <time>2013-09-04T14:01:11Z</time>
      </trkpt>
      <trkpt lat="43.033317" lon="-4.741533">
        <ele>4008.0</ele>
        <time>2013-09-04T14:01:12Z</time>
      </trkpt>
      <trkpt lat="43.033317" lon="-4.741500">
        <ele>4008.0</ele>
        <time>2013-09-04T14:01:13Z</time>
      </trkpt>
      <trkpt lat="43.033333" lon="-4.741483">
        <ele>4008.0</ele>
        <time>2013-09-04T14:01:14Z</time>
      </trkpt>
      <trkpt lat="43.033317" lon="-4.741550">
        <ele>4007.0</ele>
        <time>2013-09-04T14:01:15Z</time>
      </trkpt>
      <trkpt lat="43.033300" lon="-4.741650">
        <ele>4008.0</ele>
        <time>2013-09-04T14:01:16Z</time>
      </trkpt>
      <trkpt lat="43.033317" lon="-4.741750">
        <ele>4011.0</ele>
        <time>2013-09-04T14:01:17Z</time>
      </trkpt>
      <trkpt lat="43.033367" lon="-4.741850">
        <ele>4017.0</ele>
        <time>2013-09-04T14:01:18Z</time>
      </trkpt>
      <trkpt lat="43.033433" lon="-4.741933">
        <ele>4023.0</ele>
        <time>2013-09-04T14:01:19Z</time>
      </trkpt>
      <trkpt lat="43.033483" lon="-4.742000">
        <ele>4028.0</ele>
        <time>2013-09-04T14:01:20Z</time>
      </trkpt>
      <trkpt lat="43.033533" lon="-4.742067">
        <ele>4032.0</ele>
        <time>2013-09-04T14:01:21Z</time>
      </trkpt>
      <trkpt lat="43.033583" lon="-4.742150">
        <ele>4035.0</ele>
        <time>2013-09-04T14:01:22Z</time>
      </trkpt>
      <trkpt lat="43.033667" lon="-4.742233">
        <ele>4037.0</ele>
        <time>2013-09-04T14:01:23Z</time>
      </trkpt>
      <trkpt lat="43.033767" lon="-4.742333">
        <ele>4040.0</ele>
        <time>2013-09-04T14:01:24Z</time>
      </trkpt>
      <trkpt lat="43.033883" lon="-4.742417">
        <ele>4043.0</ele>
        <time>2013-09-04T14:01:25Z</time>
      </trkpt>
      <trkpt lat="43.033983" lon="-4.742483">
        <ele>4046.0</ele>
        <time>2013-09-04T14:01:26Z</time>
      </trkpt>
      <trkpt lat="43.034067" lon="-4.742533">
        <ele>4048.0</ele>
        <time>2013-09-04T14:01:27Z</time>
      </trkpt>
      <trkpt lat="43.034133" lon="-4.742600">
        <ele>4049.0</ele>
        <time>2013-09-04T14:01:28Z</time>
      </trkpt>
      <trkpt lat="43.034200" lon="-4.742683">
        <ele>4050.0</ele>
        <time>2013-09-04T14:01:29Z</time>
      </trkpt>
      <trkpt lat="43.034250" lon="-4.742767">
        <ele>4051.0</ele>
        <time>2013-09-04T14:01:30Z</time>
      </trkpt>
      <trkpt lat="43.034300" lon="-4.742850">
        <ele>4052.0</ele>
        <time>2013-09-04T14:01:31Z</time>
      </trkpt>
      <trkpt lat="43.034317" lon="-4.742900">
        <ele>4054.0</ele>
        <time>2013-09-04T14:01:32Z</time>
      </trkpt>
      <trkpt lat="43.034350" lon="-4.742967">
        <ele>4055.0</ele>
        <time>2013-09-04T14:01:33Z</time>
      </trkpt>
      <trkpt lat="43.034367" lon="-4.743017">
        <ele>4057.0</ele>
        <time>2013-09-04T14:01:34Z</time>
      </trkpt>
      <trkpt lat="43.034367" lon="-4.743067">
        <ele>4058.0</ele>
        <time>2013-09-04T14:01:35Z</time>
      </trkpt>
      <trkpt lat="43.034367" lon="-4.743100">
        <ele>4059.0</ele>
        <time>2013-09-04T14:01:36Z</time>
      </trkpt>
      <trkpt lat="43.034367" lon="-4.743117">
        <ele>4060.0</ele>
        <time>2013-09-04T14:01:37Z</time>
      </trkpt>
      <trkpt lat="43.034350" lon="-4.743100">
        <ele>4061.0</ele>
        <time>2013-09-04T14:01:38Z</time>
      </trkpt>
      <trkpt lat="43.034333" lon="-4.743083">
        <ele>4062.0</ele>
        <time>2013-09-04T14:01:39Z</time>
      </trkpt>
      <trkpt lat="43.034317" lon="-4.743067">
        <ele>4063.0</ele>
        <time>2013-09-04T14:01:40Z</time>
      </trkpt>
      <trkpt lat="43.034300" lon="-4.743033">
        <ele>4064.0</ele>
        <time>2013-09-04T14:01:41Z</time>
      </trkpt>
      <trkpt lat="43.034283" lon="-4.742983">
        <ele>4066.0</ele>
        <time>2013-09-04T14:01:42Z</time>
      </trkpt>
      <trkpt lat="43.034283" lon="-4.742950">
        <ele>4067.0</ele>
        <time>2013-09-04T14:01:43Z</time>
      </trkpt>
      <trkpt lat="43.034283" lon="-4.742900">
        <ele>4069.0</ele>
        <time>2013-09-04T14:01:44Z</time>
      </trkpt>
      <trkpt lat="43.034267" lon="-4.742850">
        <ele>4070.0</ele>
        <time>2013-09-04T14:01:45Z</time>
      </trkpt>
      <trkpt lat="43.034267" lon="-4.742783">
        <ele>4070.0</ele>
        <time>2013-09-04T14:01:46Z</time>
      </trkpt>
      <trkpt lat="43.034250" lon="-4.742717">
        <ele>4072.0</ele>
        <time>2013-09-04T14:01:47Z</time>
      </trkpt>
      <trkpt lat="43.034233" lon="-4.742650">
        <ele>4074.0</ele>
        <time>2013-09-04T14:01:48Z</time>
      </trkpt>
      <trkpt lat="43.034233" lon="-4.742567">
        <ele>4077.0</ele>
        <time>2013-09-04T14:01:49Z</time>
      </trkpt>
      <trkpt lat="43.034233" lon="-4.742483">
        <ele>4080.0</ele>
        <time>2013-09-04T14:01:50Z</time>
      </trkpt>
      <trkpt lat="43.034267" lon="-4.742400">
        <ele>4082.0</ele>
        <time>2013-09-04T14:01:51Z</time>
      </trkpt>
      <trkpt lat="43.034283" lon="-4.742333">
        <ele>4083.0</ele>
        <time>2013-09-04T14:01:52Z</time>
      </trkpt>
      <trkpt lat="43.034317" lon="-4.742233">
        <ele>4083.0</ele>
        <time>2013-09-04T14:01:53Z</time>
      </trkpt>
      <trkpt lat="43.034333" lon="-4.742117">
        <ele>4083.0</ele>
        <time>2013-09-04T14:01:54Z</time>
      </trkpt>
      <trkpt lat="43.034350" lon="-4.742000">
        <ele>4083.0</ele>
        <time>2013-09-04T14:01:55Z</time>
      </trkpt>
      <trkpt lat="43.034383" lon="-4.741867">
        <ele>4084.0</ele>
        <time>2013-09-04T14:01:56Z</time>
      </trkpt>
      <trkpt lat="43.034433" lon="-4.741717">
        <ele>4085.0</ele>
        <time>2013-09-04T14:01:57Z</time>
      </trkpt>
      <trkpt lat="43.034500" lon="-4.741583">
        <ele>4084.0</ele>
        <time>2013-09-04T14:01:58Z</time>
      </trkpt>
      <trkpt lat="43.034567" lon="-4.741450">
        <ele>4084.0</ele>
        <time>2013-09-04T14:01:59Z</time>
      </trkpt>
      <trkpt lat="43.034650" lon="-4.741317">
        <ele>4086.0</ele>
        <time>2013-09-04T14:02:00Z</time>
      </trkpt>
      <trkpt lat="43.034733" lon="-4.741167">
        <ele>4088.0</ele>
        <time>2013-09-04T14:02:01Z</time>
      </trkpt>
      <trkpt lat="43.034833" lon="-4.741050">
        <ele>4091.0</ele>
        <time>2013-09-04T14:02:02Z</time>
      </trkpt>
      <trkpt lat="43.034933" lon="-4.740950">
        <ele>4093.0</ele>
        <time>2013-09-04T14:02:03Z</time>
      </trkpt>
      <trkpt lat="43.035067" lon="-4.740867">
        <ele>4095.0</ele>
        <time>2013-09-04T14:02:04Z</time>
      </trkpt>
      <trkpt lat="43.035183" lon="-4.740800">
        <ele>4097.0</ele>
        <time>2013-09-04T14:02:05Z</time>
      </trkpt>
      <trkpt lat="43.035300" lon="-4.740733">
        <ele>4098.0</ele>
        <time>2013-09-04T14:02:06Z</time>
      </trkpt>
      <trkpt lat="43.035433" lon="-4.740667">
        <ele>4100.0</ele>
        <time>2013-09-04T14:02:07Z</time>
      </trkpt>
      <trkpt lat="43.035583" lon="-4.740600">
        <ele>4100.0</ele>
        <time>2013-09-04T14:02:08Z</time>
      </trkpt>
      <trkpt lat="43.035717" lon="-4.740567">
        <ele>4102.0</ele>
        <time>2013-09-04T14:02:09Z</time>
      </trkpt>
      <trkpt lat="43.035867" lon="-4.740567">
        <ele>4103.0</ele>
        <time>2013-09-04T14:02:10Z</time>
      </trkpt>
      <trkpt lat="43.036000" lon="-4.740600">
        <ele>4105.0</ele>
        <time>2013-09-04T14:02:11Z</time>
      </trkpt>
      <trkpt lat="43.036100" lon="-4.740667">
        <ele>4107.0</ele>
        <time>2013-09-04T14:02:12Z</time>
      </trkpt>
      <trkpt lat="43.036200" lon="-4.740750">
        <ele>4109.0</ele>
        <time>2013-09-04T14:02:13Z</time>
      </trkpt>
      <trkpt lat="43.036283" lon="-4.740817">
        <ele>4112.0</ele>
        <time>2013-09-04T14:02:14Z</time>
      </trkpt>
      <trkpt lat="43.036350" lon="-4.740883">
        <ele>4114.0</ele>
        <time>2013-09-04T14:02:15Z</time>
      </trkpt>
      <trkpt lat="43.036417" lon="-4.740950">
        <ele>4116.0</ele>
        <time>2013-09-04T14:02:16Z</time>
      </trkpt>
      <trkpt lat="43.036467" lon="-4.741033">
        <ele>4119.0</ele>
        <time>2013-09-04T14:02:17Z</time>
      </trkpt>
      <trkpt lat="43.036500" lon="-4.741100">
        <ele>4121.0</ele>
        <time>2013-09-04T14:02:18Z</time>
      </trkpt>
      <trkpt lat="43.036533" lon="-4.741167">
        <ele>4123.0</ele>
        <time>2013-09-04T14:02:19Z</time>
      </trkpt>
      <trkpt lat="43.036550" lon="-4.741217">
        <ele>4126.0</ele>
        <time>2013-09-04T14:02:20Z</time>
      </trkpt>
      <trkpt lat="43.036567" lon="-4.741267">
        <ele>4127.0</ele>
        <time>2013-09-04T14:02:21Z</time>
      </trkpt>
      <trkpt lat="43.036550" lon="-4.741300">
        <ele>4129.0</ele>
        <time>2013-09-04T14:02:22Z</time>
      </trkpt>
      <trkpt lat="43.036533" lon="-4.741317">
        <ele>4131.0</ele>
        <time>2013-09-04T14:02:23Z</time>
      </trkpt>
      <trkpt lat="43.036517" lon="-4.741317">
        <ele>4134.0</ele>
        <time>2013-09-04T14:02:24Z</time>
      </trkpt>
      <trkpt lat="43.036500" lon="-4.741300">
        <ele>4136.0</ele>
        <time>2013-09-04T14:02:25Z</time>
      </trkpt>
      <trkpt lat="43.036467" lon="-4.741283">
        <ele>4139.0</ele>
        <time>2013-09-04T14:02:26Z</time>
      </trkpt>
      <trkpt lat="43.036467" lon="-4.741233">
        <ele>4141.0</ele>
        <time>2013-09-04T14:02:27Z</time>
      </trkpt>
      <trkpt lat="43.036450" lon="-4.741183">
        <ele>4143.0</ele>
        <time>2013-09-04T14:02:28Z</time>
      </trkpt>
      <trkpt lat="43.036450" lon="-4.741117">
        <ele>4145.0</ele>
        <time>2013-09-04T14:02:29Z</time>
      </trkpt>
      <trkpt lat="43.036450" lon="-4.741033">
        <ele>4146.0</ele>
        <time>2013-09-04T14:02:30Z</time>
      </trkpt>
      <trkpt lat="43.036450" lon="-4.740950">
        <ele>4147.0</ele>
        <time>2013-09-04T14:02:31Z</time>
      </trkpt>
      <trkpt lat="43.036450" lon="-4.740833">
        <ele>4148.0</ele>
        <time>2013-09-04T14:02:32Z</time>
      </trkpt>
      <trkpt lat="43.036467" lon="-4.740700">
        <ele>4148.0</ele>
        <time>2013-09-04T14:02:33Z</time>
      </trkpt>
      <trkpt lat="43.036500" lon="-4.740567">
        <ele>4148.0</ele>
        <time>2013-09-04T14:02:34Z</time>
      </trkpt>
      <trkpt lat="43.036500" lon="-4.740417">
        <ele>4148.0</ele>
        <time>2013-09-04T14:02:35Z</time>
      </trkpt>
      <trkpt lat="43.036483" lon="-4.740267">
        <ele>4147.0</ele>
        <time>2013-09-04T14:02:36Z</time>
      </trkpt>
      <trkpt lat="43.036450" lon="-4.740150">
        <ele>4150.0</ele>
        <time>2013-09-04T14:02:37Z</time>
      </trkpt>
      <trkpt lat="43.036417" lon="-4.740067">
        <ele>4153.0</ele>
        <time>2013-09-04T14:02:38Z</time>
      </trkpt>
      <trkpt lat="43.036400" lon="-4.740017">
        <ele>4155.0</ele>
        <time>2013-09-04T14:02:39Z</time>
      </trkpt>
      <trkpt lat="43.036400" lon="-4.740000">
        <ele>4156.0</ele>
        <time>2013-09-04T14:02:40Z</time>
      </trkpt>
      <trkpt lat="43.036383" lon="-4.739983">
        <ele>4156.0</ele>
        <time>2013-09-04T14:02:41Z</time>
      </trkpt>
      <trkpt lat="43.036383" lon="-4.740000">
        <ele>4157.0</ele>
        <time>2013-09-04T14:02:42Z</time>
      </trkpt>
      <trkpt lat="43.036367" lon="-4.740050">
        <ele>4158.0</ele>
        <time>2013-09-04T14:02:43Z</time>
      </trkpt>
      <trkpt lat="43.036400" lon="-4.740117">
        <ele>4158.0</ele>
        <time>2013-09-04T14:02:44Z</time>
      </trkpt>
      <trkpt lat="43.036450" lon="-4.740200">
        <ele>4158.0</ele>
        <time>2013-09-04T14:02:45Z</time>
      </trkpt>
      <trkpt lat="43.036517" lon="-4.740267">
        <ele>4158.0</ele>
        <time>2013-09-04T14:02:46Z</time>
      </trkpt>
      <trkpt lat="43.036583" lon="-4.740350">
        <ele>4157.0</ele>
        <time>2013-09-04T14:02:47Z</time>
      </trkpt>
      <trkpt lat="43.036633" lon="-4.740417">
        <ele>4156.0</ele>
        <time>2013-09-04T14:02:48Z</time>
      </trkpt>
      <trkpt lat="43.036683" lon="-4.740500">
        <ele>4156.0</ele>
        <time>2013-09-04T14:02:49Z</time>
      </trkpt>
      <trkpt lat="43.036750" lon="-4.740600">
        <ele>4157.0</ele>
        <time>2013-09-04T14:02:50Z</time>
      </trkpt>
      <trkpt lat="43.036817" lon="-4.740717">
        <ele>4159.0</ele>
        <time>2013-09-04T14:02:51Z</time>
      </trkpt>
      <trkpt lat="43.036900" lon="-4.740800">
        <ele>4162.0</ele>
        <time>2013-09-04T14:02:52Z</time>
      </trkpt>
      <trkpt lat="43.037000" lon="-4.740867">
        <ele>4166.0</ele>
        <time>2013-09-04T14:02:53Z</time>
      </trkpt>
      <trkpt lat="43.037083" lon="-4.740917">
        <ele>4168.0</ele>
        <time>2013-09-04T14:02:54Z</time>
      </trkpt>
      <trkpt lat="43.037183" lon="-4.740983">
        <ele>4170.0</ele>
        <time>2013-09-04T14:02:55Z</time>
      </trkpt>
      <trkpt lat="43.037267" lon="-4.741067">
        <ele>4170.0</ele>
        <time>2013-09-04T14:02:56Z</time>
      </trkpt>
      <trkpt lat="43.037317" lon="-4.741150">
        <ele>4170.0</ele>
        <time>2013-09-04T14:02:57Z</time>
      </trkpt>
      <trkpt lat="43.037350" lon="-4.741250">
        <ele>4171.0</ele>
        <time>2013-09-04T14:02:58Z</time>
      </trkpt>
      <trkpt lat="43.037383" lon="-4.741333">
        <ele>4171.0</ele>
        <time>2013-09-04T14:02:59Z</time>
      </trkpt>
      <trkpt lat="43.037417" lon="-4.741400">
        <ele>4171.0</ele>
        <time>2013-09-04T14:03:00Z</time>
      </trkpt>
      <trkpt lat="43.037433" lon="-4.741483">
        <ele>4170.0</ele>
        <time>2013-09-04T14:03:01Z</time>
      </trkpt>
      <trkpt lat="43.037433" lon="-4.741533">
        <ele>4169.0</ele>
        <time>2013-09-04T14:03:02Z</time>
      </trkpt>
      <trkpt lat="43.037417" lon="-4.741583">
        <ele>4169.0</ele>
        <time>2013-09-04T14:03:03Z</time>
      </trkpt>
      <trkpt lat="43.037400" lon="-4.741633">
        <ele>4168.0</ele>
        <time>2013-09-04T14:03:04Z</time>
      </trkpt>
      <trkpt lat="43.037400" lon="-4.741683">
        <ele>4167.0</ele>
        <time>2013-09-04T14:03:05Z</time>
      </trkpt>
      <trkpt lat="43.037400" lon="-4.741733">
        <ele>4166.0</ele>
        <time>2013-09-04T14:03:06Z</time>
      </trkpt>
      <trkpt lat="43.037417" lon="-4.741800">
        <ele>4164.0</ele>
        <time>2013-09-04T14:03:07Z</time>
      </trkpt>
      <trkpt lat="43.037400" lon="-4.741850">
        <ele>4163.0</ele>
        <time>2013-09-04T14:03:08Z</time>
      </trkpt>
      <trkpt lat="43.037400" lon="-4.741883">
        <ele>4160.0</ele>
        <time>2013-09-04T14:03:09Z</time>
      </trkpt>
      <trkpt lat="43.037367" lon="-4.741883">
        <ele>4158.0</ele>
        <time>2013-09-04T14:03:10Z</time>
      </trkpt>
      <trkpt lat="43.037333" lon="-4.741850">
        <ele>4156.0</ele>
        <time>2013-09-04T14:03:11Z</time>
      </trkpt>
      <trkpt lat="43.037317" lon="-4.741783">
        <ele>4154.0</ele>
        <time>2013-09-04T14:03:12Z</time>
      </trkpt>
      <trkpt lat="43.037300" lon="-4.741700">
        <ele>4153.0</ele>
        <time>2013-09-04T14:03:13Z</time>
      </trkpt>
      <trkpt lat="43.037283" lon="-4.741600">
        <ele>4151.0</ele>
        <time>2013-09-04T14:03:14Z</time>
      </trkpt>
      <trkpt lat="43.037283" lon="-4.741483">
        <ele>4151.0</ele>
        <time>2013-09-04T14:03:15Z</time>
      </trkpt>
      <trkpt lat="43.037283" lon="-4.741400">
        <ele>4152.0</ele>
        <time>2013-09-04T14:03:16Z</time>
      </trkpt>
      <trkpt lat="43.037283" lon="-4.741317">
        <ele>4152.0</ele>
        <time>2013-09-04T14:03:17Z</time>
      </trkpt>
      <trkpt lat="43.037267" lon="-4.741250">
        <ele>4151.0</ele>
        <time>2013-09-04T14:03:18Z</time>
      </trkpt>
      <trkpt lat="43.037250" lon="-4.741183">
        <ele>4149.0</ele>
        <time>2013-09-04T14:03:19Z</time>
      </trkpt>
      <trkpt lat="43.037233" lon="-4.741083">
        <ele>4146.0</ele>
        <time>2013-09-04T14:03:20Z</time>
      </trkpt>
      <trkpt lat="43.037183" lon="-4.740950">
        <ele>4144.0</ele>
        <time>2013-09-04T14:03:21Z</time>
      </trkpt>
      <trkpt lat="43.037150" lon="-4.740817">
        <ele>4143.0</ele>
        <time>2013-09-04T14:03:22Z</time>
      </trkpt>
      <trkpt lat="43.037100" lon="-4.740683">
        <ele>4145.0</ele>
        <time>2013-09-04T14:03:23Z</time>
      </trkpt>
      <trkpt lat="43.037083" lon="-4.740567">
        <ele>4147.0</ele>
        <time>2013-09-04T14:03:24Z</time>
      </trkpt>
      <trkpt lat="43.037050" lon="-4.740483">
        <ele>4147.0</ele>
        <time>2013-09-04T14:03:25Z</time>
      </trkpt>
      <trkpt lat="43.037033" lon="-4.740417">
        <ele>4147.0</ele>
        <time>2013-09-04T14:03:26Z</time>
      </trkpt>
      <trkpt lat="43.037000" lon="-4.740350">
        <ele>4146.0</ele>
        <time>2013-09-04T14:03:27Z</time>
      </trkpt>
      <trkpt lat="43.036983" lon="-4.740283">
        <ele>4146.0</ele>
        <time>2013-09-04T14:03:28Z</time>
      </trkpt>
      <trkpt lat="43.036950" lon="-4.740250">
        <ele>4145.0</ele>
        <time>2013-09-04T14:03:29Z</time>
      </trkpt>
      <trkpt lat="43.036917" lon="-4.740200">
        <ele>4145.0</ele>
        <time>2013-09-04T14:03:30Z</time>
      </trkpt>
      <trkpt lat="43.036900" lon="-4.740150">
        <ele>4144.0</ele>
        <time>2013-09-04T14:03:31Z</time>
      </trkpt>
      <trkpt lat="43.036867" lon="-4.740067">
        <ele>4143.0</ele>
        <time>2013-09-04T14:03:32Z</time>
      </trkpt>
      <trkpt lat="43.036850" lon="-4.739967">
        <ele>4143.0</ele>
        <time>2013-09-04T14:03:33Z</time>
      </trkpt>
      <trkpt lat="43.036817" lon="-4.739850">
        <ele>4142.0</ele>
        <time>2013-09-04T14:03:34Z</time>
      </trkpt>
      <trkpt lat="43.036783" lon="-4.739733">
        <ele>4141.0</ele>
        <time>2013-09-04T14:03:35Z</time>
      </trkpt>
      <trkpt lat="43.036733" lon="-4.739633">
        <ele>4142.0</ele>
        <time>2013-09-04T14:03:36Z</time>
      </trkpt>
      <trkpt lat="43.036700" lon="-4.739550">
        <ele>4143.0</ele>
        <time>2013-09-04T14:03:37Z</time>
      </trkpt>
      <trkpt lat="43.036667" lon="-4.739467">
        <ele>4143.0</ele>
        <time>2013-09-04T14:03:38Z</time>
      </trkpt>
      <trkpt lat="43.036633" lon="-4.739367">
        <ele>4143.0</ele>
        <time>2013-09-04T14:03:39Z</time>
      </trkpt>
      <trkpt lat="43.036583" lon="-4.739283">
        <ele>4142.0</ele>
        <time>2013-09-04T14:03:40Z</time>
      </trkpt>
      <trkpt lat="43.036533" lon="-4.739167">
        <ele>4141.0</ele>
        <time>2013-09-04T14:03:41Z</time>
      </trkpt>
      <trkpt lat="43.036467" lon="-4.739067">
        <ele>4140.0</ele>
        <time>2013-09-04T14:03:42Z</time>
      </trkpt>
      <trkpt lat="43.036417" lon="-4.738950">
        <ele>4139.0</ele>
        <time>2013-09-04T14:03:43Z</time>
      </trkpt>
      <trkpt lat="43.036350" lon="-4.738850">
        <ele>4140.0</ele>
        <time>2013-09-04T14:03:44Z</time>
      </trkpt>
      <trkpt lat="43.036300" lon="-4.738783">
        <ele>4140.0</ele>
        <time>2013-09-04T14:03:45Z</time>
      </trkpt>
      <trkpt lat="43.036267" lon="-4.738700">
        <ele>4140.0</ele>
        <time>2013-09-04T14:03:46Z</time>
      </trkpt>
      <trkpt lat="43.036250" lon="-4.738600">
        <ele>4140.0</ele>
        <time>2013-09-04T14:03:47Z</time>
      </trkpt>
      <trkpt lat="43.036233" lon="-4.738483">
        <ele>4139.0</ele>
        <time>2013-09-04T14:03:48Z</time>
      </trkpt>
      <trkpt lat="43.036217" lon="-4.738350">
        <ele>4138.0</ele>
        <time>2013-09-04T14:03:49Z</time>
      </trkpt>
      <trkpt lat="43.036183" lon="-4.738217">
        <ele>4138.0</ele>
        <time>2013-09-04T14:03:50Z</time>
      </trkpt>
      <trkpt lat="43.036150" lon="-4.738100">
        <ele>4138.0</ele>
        <time>2013-09-04T14:03:51Z</time>
      </trkpt>
      <trkpt lat="43.036100" lon="-4.738000">
        <ele>4138.0</ele>
        <time>2013-09-04T14:03:52Z</time>
      </trkpt>
      <trkpt lat="43.036050" lon="-4.737900">
        <ele>4138.0</ele>
        <time>2013-09-04T14:03:53Z</time>
      </trkpt>
      <trkpt lat="43.036000" lon="-4.737800">
        <ele>4139.0</ele>
        <time>2013-09-04T14:03:54Z</time>
      </trkpt>
      <trkpt lat="43.035967" lon="-4.737667">
        <ele>4139.0</ele>
        <time>2013-09-04T14:03:55Z</time>
      </trkpt>
      <trkpt lat="43.035933" lon="-4.737550">
        <ele>4140.0</ele>
        <time>2013-09-04T14:03:56Z</time>
      </trkpt>
      <trkpt lat="43.035900" lon="-4.737433">
        <ele>4141.0</ele>
        <time>2013-09-04T14:03:57Z</time>
      </trkpt>
      <trkpt lat="43.035867" lon="-4.737333">
        <ele>4143.0</ele>
        <time>2013-09-04T14:03:58Z</time>
      </trkpt>
      <trkpt lat="43.035850" lon="-4.737250">
        <ele>4144.0</ele>
        <time>2013-09-04T14:03:59Z</time>
      </trkpt>
      <trkpt lat="43.035833" lon="-4.737167">
        <ele>4145.0</ele>
        <time>2013-09-04T14:04:00Z</time>
      </trkpt>
      <trkpt lat="43.035817" lon="-4.737067">
        <ele>4145.0</ele>
        <time>2013-09-04T14:04:01Z</time>
      </trkpt>
      <trkpt lat="43.035817" lon="-4.736950">
        <ele>4145.0</ele>
        <time>2013-09-04T14:04:02Z</time>
      </trkpt>
      <trkpt lat="43.035800" lon="-4.736833">
        <ele>4145.0</ele>
        <time>2013-09-04T14:04:03Z</time>
      </trkpt>
      <trkpt lat="43.035783" lon="-4.736717">
        <ele>4143.0</ele>
        <time>2013-09-04T14:04:04Z</time>
      </trkpt>
      <trkpt lat="43.035750" lon="-4.736600">
        <ele>4142.0</ele>
        <time>2013-09-04T14:04:05Z</time>
      </trkpt>
      <trkpt lat="43.035717" lon="-4.736500">
        <ele>4142.0</ele>
        <time>2013-09-04T14:04:06Z</time>
      </trkpt>
      <trkpt lat="43.035683" lon="-4.736417">
        <ele>4141.0</ele>
        <time>2013-09-04T14:04:07Z</time>
      </trkpt>
      <trkpt lat="43.035667" lon="-4.736333">
        <ele>4139.0</ele>
        <time>2013-09-04T14:04:08Z</time>
      </trkpt>
      <trkpt lat="43.035650" lon="-4.736250">
        <ele>4136.0</ele>
        <time>2013-09-04T14:04:09Z</time>
      </trkpt>
      <trkpt lat="43.035617" lon="-4.736167">
        <ele>4133.0</ele>
        <time>2013-09-04T14:04:10Z</time>
      </trkpt>
      <trkpt lat="43.035583" lon="-4.736067">
        <ele>4130.0</ele>
        <time>2013-09-04T14:04:11Z</time>
      </trkpt>
      <trkpt lat="43.035533" lon="-4.735950">
        <ele>4127.0</ele>
        <time>2013-09-04T14:04:12Z</time>
      </trkpt>
      <trkpt lat="43.035500" lon="-4.735833">
        <ele>4124.0</ele>
        <time>2013-09-04T14:04:13Z</time>
      </trkpt>
      <trkpt lat="43.035467" lon="-4.735717">
        <ele>4122.0</ele>
        <time>2013-09-04T14:04:14Z</time>
      </trkpt>
      <trkpt lat="43.035450" lon="-4.735617">
        <ele>4119.0</ele>
        <time>2013-09-04T14:04:15Z</time>
      </trkpt>
      <trkpt lat="43.035433" lon="-4.735517">
        <ele>4116.0</ele>
        <time>2013-09-04T14:04:16Z</time>
      </trkpt>
      <trkpt lat="43.035400" lon="-4.735417">
        <ele>4113.0</ele>
        <time>2013-09-04T14:04:17Z</time>
      </trkpt>
      <trkpt lat="43.035367" lon="-4.735300">
        <ele>4109.0</ele>
        <time>2013-09-04T14:04:18Z</time>
      </trkpt>
      <trkpt lat="43.035333" lon="-4.735200">
        <ele>4105.0</ele>
        <time>2013-09-04T14:04:19Z</time>
      </trkpt>
      <trkpt lat="43.035300" lon="-4.735083">
        <ele>4102.0</ele>
        <time>2013-09-04T14:04:20Z</time>
      </trkpt>
      <trkpt lat="43.035250" lon="-4.734983">
        <ele>4099.0</ele>
        <time>2013-09-04T14:04:21Z</time>
      </trkpt>
      <trkpt lat="43.035200" lon="-4.734883">
        <ele>4096.0</ele>
        <time>2013-09-04T14:04:22Z</time>
      </trkpt>
      <trkpt lat="43.035150" lon="-4.734783">
        <ele>4094.0</ele>
        <time>2013-09-04T14:04:23Z</time>
      </trkpt>
      <trkpt lat="43.035117" lon="-4.734700">
        <ele>4091.0</ele>
        <time>2013-09-04T14:04:24Z</time>
      </trkpt>
      <trkpt lat="43.035083" lon="-4.734583">
        <ele>4089.0</ele>
        <time>2013-09-04T14:04:25Z</time>
      </trkpt>
      <trkpt lat="43.035033" lon="-4.734483">
        <ele>4090.0</ele>
        <time>2013-09-04T14:04:26Z</time>
      </trkpt>
      <trkpt lat="43.035000" lon="-4.734367">
        <ele>4089.0</ele>
        <time>2013-09-04T14:04:27Z</time>
      </trkpt>
      <trkpt lat="43.034950" lon="-4.734267">
        <ele>4088.0</ele>
        <time>2013-09-04T14:04:28Z</time>
      </trkpt>
      <trkpt lat="43.034917" lon="-4.734150">
        <ele>4088.0</ele>
        <time>2013-09-04T14:04:29Z</time>
      </trkpt>
      <trkpt lat="43.034900" lon="-4.734033">
        <ele>4090.0</ele>
        <time>2013-09-04T14:04:30Z</time>
      </trkpt>
      <trkpt lat="43.034900" lon="-4.733933">
        <ele>4090.0</ele>
        <time>2013-09-04T14:04:31Z</time>
      </trkpt>
      <trkpt lat="43.034883" lon="-4.733833">
        <ele>4089.0</ele>
        <time>2013-09-04T14:04:32Z</time>
      </trkpt>
      <trkpt lat="43.034867" lon="-4.733733">
        <ele>4088.0</ele>
        <time>2013-09-04T14:04:33Z</time>
      </trkpt>
      <trkpt lat="43.034833" lon="-4.733633">
        <ele>4087.0</ele>
        <time>2013-09-04T14:04:34Z</time>
      </trkpt>
      <trkpt lat="43.034783" lon="-4.733500">
        <ele>4086.0</ele>
        <time>2013-09-04T14:04:35Z</time>
      </trkpt>
      <trkpt lat="43.034750" lon="-4.733367">
        <ele>4086.0</ele>
        <time>2013-09-04T14:04:36Z</time>
      </trkpt>
      <trkpt lat="43.034717" lon="-4.733250">
        <ele>4088.0</ele>
        <time>2013-09-04T14:04:37Z</time>
      </trkpt>
      <trkpt lat="43.034683" lon="-4.733133">
        <ele>4089.0</ele>
        <time>2013-09-04T14:04:38Z</time>
      </trkpt>
      <trkpt lat="43.034650" lon="-4.733033">
        <ele>4090.0</ele>
        <time>2013-09-04T14:04:39Z</time>
      </trkpt>
      <trkpt lat="43.034600" lon="-4.732933">
        <ele>4091.0</ele>
        <time>2013-09-04T14:04:40Z</time>
      </trkpt>
      <trkpt lat="43.034567" lon="-4.732817">
        <ele>4092.0</ele>
        <time>2013-09-04T14:04:41Z</time>
      </trkpt>
      <trkpt lat="43.034550" lon="-4.732683">
        <ele>4091.0</ele>
        <time>2013-09-04T14:04:42Z</time>
      </trkpt>
      <trkpt lat="43.034550" lon="-4.732550">
        <ele>4091.0</ele>
        <time>2013-09-04T14:04:43Z</time>
      </trkpt>
      <trkpt lat="43.034550" lon="-4.732400">
        <ele>4091.0</ele>
        <time>2013-09-04T14:04:44Z</time>
      </trkpt>
      <trkpt lat="43.034533" lon="-4.732267">
        <ele>4090.0</ele>
        <time>2013-09-04T14:04:45Z</time>
      </trkpt>
      <trkpt lat="43.034500" lon="-4.732150">
        <ele>4091.0</ele>
        <time>2013-09-04T14:04:46Z</time>
      </trkpt>
      <trkpt lat="43.034467" lon="-4.732050">
        <ele>4092.0</ele>
        <time>2013-09-04T14:04:47Z</time>
      </trkpt>
      <trkpt lat="43.034433" lon="-4.731967">
        <ele>4093.0</ele>
        <time>2013-09-04T14:04:48Z</time>
      </trkpt>
      <trkpt lat="43.034400" lon="-4.731883">
        <ele>4095.0</ele>
        <time>2013-09-04T14:04:49Z</time>
      </trkpt>
      <trkpt lat="43.034367" lon="-4.731817">
        <ele>4096.0</ele>
        <time>2013-09-04T14:04:50Z</time>
      </trkpt>
      <trkpt lat="43.034350" lon="-4.731717">
        <ele>4097.0</ele>
        <time>2013-09-04T14:04:51Z</time>
      </trkpt>
      <trkpt lat="43.034333" lon="-4.731617">
        <ele>4098.0</ele>
        <time>2013-09-04T14:04:52Z</time>
      </trkpt>
      <trkpt lat="43.034317" lon="-4.731500">
        <ele>4099.0</ele>
        <time>2013-09-04T14:04:53Z</time>
      </trkpt>
      <trkpt lat="43.034283" lon="-4.731367">
        <ele>4100.0</ele>
        <time>2013-09-04T14:04:54Z</time>
      </trkpt>
      <trkpt lat="43.034250" lon="-4.731233">
        <ele>4101.0</ele>
        <time>2013-09-04T14:04:55Z</time>
      </trkpt>
      <trkpt lat="43.034217" lon="-4.731100">
        <ele>4103.0</ele>
        <time>2013-09-04T14:04:56Z</time>
      </trkpt>
      <trkpt lat="43.034183" lon="-4.731000">
        <ele>4104.0</ele>
        <time>2013-09-04T14:04:57Z</time>
      </trkpt>
      <trkpt lat="43.034150" lon="-4.730900">
        <ele>4106.0</ele>
        <time>2013-09-04T14:04:58Z</time>
      </trkpt>
      <trkpt lat="43.034117" lon="-4.730817">
        <ele>4106.0</ele>
        <time>2013-09-04T14:04:59Z</time>
      </trkpt>
      <trkpt lat="43.034100" lon="-4.730717">
        <ele>4107.0</ele>
        <time>2013-09-04T14:05:00Z</time>
      </trkpt>
      <trkpt lat="43.034067" lon="-4.730600">
        <ele>4107.0</ele>
        <time>2013-09-04T14:05:01Z</time>
      </trkpt>
      <trkpt lat="43.034050" lon="-4.730483">
        <ele>4107.0</ele>
        <time>2013-09-04T14:05:02Z</time>
      </trkpt>
      <trkpt lat="43.034017" lon="-4.730367">
        <ele>4107.0</ele>
        <time>2013-09-04T14:05:03Z</time>
      </trkpt>
      <trkpt lat="43.033983" lon="-4.730267">
        <ele>4107.0</ele>
        <time>2013-09-04T14:05:04Z</time>
      </trkpt>
      <trkpt lat="43.033950" lon="-4.730167">
        <ele>4106.0</ele>
        <time>2013-09-04T14:05:05Z</time>
      </trkpt>
      <trkpt lat="43.033917" lon="-4.730083">
        <ele>4106.0</ele>
        <time>2013-09-04T14:05:06Z</time>
      </trkpt>
      <trkpt lat="43.033883" lon="-4.729967">
        <ele>4105.0</ele>
        <time>2013-09-04T14:05:07Z</time>
      </trkpt>
      <trkpt lat="43.033833" lon="-4.729867">
        <ele>4105.0</ele>
        <time>2013-09-04T14:05:08Z</time>
      </trkpt>
      <trkpt lat="43.033800" lon="-4.729750">
        <ele>4104.0</ele>
        <time>2013-09-04T14:05:09Z</time>
      </trkpt>
      <trkpt lat="43.033767" lon="-4.729633">
        <ele>4103.0</ele>
        <time>2013-09-04T14:05:10Z</time>
      </trkpt>
      <trkpt lat="43.033733" lon="-4.729533">
        <ele>4103.0</ele>
        <time>2013-09-04T14:05:11Z</time>
      </trkpt>
      <trkpt lat="43.033700" lon="-4.729433">
        <ele>4102.0</ele>
        <time>2013-09-04T14:05:12Z</time>
      </trkpt>
      <trkpt lat="43.033683" lon="-4.729333">
        <ele>4101.0</ele>
        <time>2013-09-04T14:05:13Z</time>
      </trkpt>
      <trkpt lat="43.033650" lon="-4.729233">
        <ele>4100.0</ele>
        <time>2013-09-04T14:05:14Z</time>
      </trkpt>
      <trkpt lat="43.033617" lon="-4.729133">
        <ele>4098.0</ele>
        <time>2013-09-04T14:05:15Z</time>
      </trkpt>
      <trkpt lat="43.033583" lon="-4.729033">
        <ele>4099.0</ele>
        <time>2013-09-04T14:05:16Z</time>
      </trkpt>
      <trkpt lat="43.033550" lon="-4.728950">
        <ele>4096.0</ele>
        <time>2013-09-04T14:05:17Z</time>
      </trkpt>
      <trkpt lat="43.033517" lon="-4.728867">
        <ele>4095.0</ele>
        <time>2013-09-04T14:05:18Z</time>
      </trkpt>
      <trkpt lat="43.033483" lon="-4.728783">
        <ele>4093.0</ele>
        <time>2013-09-04T14:05:19Z</time>
      </trkpt>
      <trkpt lat="43.033450" lon="-4.728683">
        <ele>4091.0</ele>
        <time>2013-09-04T14:05:20Z</time>
      </trkpt>
      <trkpt lat="43.033417" lon="-4.728567">
        <ele>4089.0</ele>
        <time>2013-09-04T14:05:21Z</time>
      </trkpt>
      <trkpt lat="43.033400" lon="-4.728450">
        <ele>4088.0</ele>
        <time>2013-09-04T14:05:22Z</time>
      </trkpt>
      <trkpt lat="43.033383" lon="-4.728317">
        <ele>4086.0</ele>
        <time>2013-09-04T14:05:23Z</time>
      </trkpt>
      <trkpt lat="43.033367" lon="-4.728183">
        <ele>4085.0</ele>
        <time>2013-09-04T14:05:24Z</time>
      </trkpt>
      <trkpt lat="43.033350" lon="-4.728067">
        <ele>4084.0</ele>
        <time>2013-09-04T14:05:25Z</time>
      </trkpt>
      <trkpt lat="43.033317" lon="-4.727967">
        <ele>4083.0</ele>
        <time>2013-09-04T14:05:26Z</time>
      </trkpt>
      <trkpt lat="43.033300" lon="-4.727867">
        <ele>4081.0</ele>
        <time>2013-09-04T14:05:27Z</time>
      </trkpt>
      <trkpt lat="43.033267" lon="-4.727767">
        <ele>4080.0</ele>
        <time>2013-09-04T14:05:28Z</time>
      </trkpt>
      <trkpt lat="43.033233" lon="-4.727667">
        <ele>4079.0</ele>
        <time>2013-09-04T14:05:29Z</time>
      </trkpt>
      <trkpt lat="43.033200" lon="-4.727567">
        <ele>4077.0</ele>
        <time>2013-09-04T14:05:30Z</time>
      </trkpt>
      <trkpt lat="43.033167" lon="-4.727433">
        <ele>4079.0</ele>
        <time>2013-09-04T14:05:31Z</time>
      </trkpt>
      <trkpt lat="43.033133" lon="-4.727333">
        <ele>4078.0</ele>
        <time>2013-09-04T14:05:32Z</time>
      </trkpt>
      <trkpt lat="43.033117" lon="-4.727217">
        <ele>4077.0</ele>
        <time>2013-09-04T14:05:33Z</time>
      </trkpt>
      <trkpt lat="43.033100" lon="-4.727117">
        <ele>4076.0</ele>
        <time>2013-09-04T14:05:34Z</time>
      </trkpt>
      <trkpt lat="43.033083" lon="-4.727017">
        <ele>4075.0</ele>
        <time>2013-09-04T14:05:35Z</time>
      </trkpt>
      <trkpt lat="43.033067" lon="-4.726917">
        <ele>4073.0</ele>
        <time>2013-09-04T14:05:36Z</time>
      </trkpt>
      <trkpt lat="43.033033" lon="-4.726817">
        <ele>4071.0</ele>
        <time>2013-09-04T14:05:37Z</time>
      </trkpt>
      <trkpt lat="43.033000" lon="-4.726717">
        <ele>4068.0</ele>
        <time>2013-09-04T14:05:38Z</time>
      </trkpt>
      <trkpt lat="43.032967" lon="-4.726633">
        <ele>4066.0</ele>
        <time>2013-09-04T14:05:39Z</time>
      </trkpt>
      <trkpt lat="43.032950" lon="-4.726567">
        <ele>4064.0</ele>
        <time>2013-09-04T14:05:40Z</time>
      </trkpt>
      <trkpt lat="43.032933" lon="-4.726500">
        <ele>4061.0</ele>
        <time>2013-09-04T14:05:41Z</time>
      </trkpt>
      <trkpt lat="43.032917" lon="-4.726450">
        <ele>4056.0</ele>
        <time>2013-09-04T14:05:42Z</time>
      </trkpt>
      <trkpt lat="43.032883" lon="-4.726367">
        <ele>4051.0</ele>
        <time>2013-09-04T14:05:43Z</time>
      </trkpt>
      <trkpt lat="43.032867" lon="-4.726267">
        <ele>4046.0</ele>
        <time>2013-09-04T14:05:44Z</time>
      </trkpt>
      <trkpt lat="43.032833" lon="-4.726133">
        <ele>4041.0</ele>
        <time>2013-09-04T14:05:45Z</time>
      </trkpt>
      <trkpt lat="43.032800" lon="-4.726000">
        <ele>4037.0</ele>
        <time>2013-09-04T14:05:46Z</time>
      </trkpt>
      <trkpt lat="43.032783" lon="-4.725900">
        <ele>4037.0</ele>
        <time>2013-09-04T14:05:47Z</time>
      </trkpt>
      <trkpt lat="43.032767" lon="-4.725833">
        <ele>4035.0</ele>
        <time>2013-09-04T14:05:48Z</time>
      </trkpt>
      <trkpt lat="43.032750" lon="-4.725783">
        <ele>4032.0</ele>
        <time>2013-09-04T14:05:49Z</time>
      </trkpt>
      <trkpt lat="43.032733" lon="-4.725717">
        <ele>4033.0</ele>
        <time>2013-09-04T14:05:50Z</time>
      </trkpt>
      <trkpt lat="43.032700" lon="-4.725650">
        <ele>4031.0</ele>
        <time>2013-09-04T14:05:51Z</time>
      </trkpt>
      <trkpt lat="43.032667" lon="-4.725567">
        <ele>4028.0</ele>
        <time>2013-09-04T14:05:52Z</time>
      </trkpt>
      <trkpt lat="43.032617" lon="-4.725500">
        <ele>4025.0</ele>
        <time>2013-09-04T14:05:53Z</time>
      </trkpt>
      <trkpt lat="43.032567" lon="-4.725417">
        <ele>4020.0</ele>
        <time>2013-09-04T14:05:54Z</time>
      </trkpt>
      <trkpt lat="43.032517" lon="-4.725350">
        <ele>4015.0</ele>
        <time>2013-09-04T14:05:55Z</time>
      </trkpt>
      <trkpt lat="43.032467" lon="-4.725283">
        <ele>4010.0</ele>
        <time>2013-09-04T14:05:56Z</time>
      </trkpt>
      <trkpt lat="43.032433" lon="-4.725217">
        <ele>4006.0</ele>
        <time>2013-09-04T14:05:57Z</time>
      </trkpt>
      <trkpt lat="43.032400" lon="-4.725150">
        <ele>4001.0</ele>
        <time>2013-09-04T14:05:58Z</time>
      </trkpt>
      <trkpt lat="43.032350" lon="-4.725067">
        <ele>3998.0</ele>
        <time>2013-09-04T14:05:59Z</time>
      </trkpt>
      <trkpt lat="43.032317" lon="-4.724967">
        <ele>3994.0</ele>
        <time>2013-09-04T14:06:00Z</time>
      </trkpt>
      <trkpt lat="43.032283" lon="-4.724850">
        <ele>3991.0</ele>
        <time>2013-09-04T14:06:01Z</time>
      </trkpt>
      <trkpt lat="43.032250" lon="-4.724733">
        <ele>3988.0</ele>
        <time>2013-09-04T14:06:02Z</time>
      </trkpt>
      <trkpt lat="43.032217" lon="-4.724633">
        <ele>3985.0</ele>
        <time>2013-09-04T14:06:03Z</time>
      </trkpt>
      <trkpt lat="43.032183" lon="-4.724533">
        <ele>3983.0</ele>
        <time>2013-09-04T14:06:04Z</time>
      </trkpt>
      <trkpt lat="43.032167" lon="-4.724467">
        <ele>3980.0</ele>
        <time>2013-09-04T14:06:05Z</time>
      </trkpt>
      <trkpt lat="43.032150" lon="-4.724400">
        <ele>3976.0</ele>
        <time>2013-09-04T14:06:06Z</time>
      </trkpt>
      <trkpt lat="43.032133" lon="-4.724317">
        <ele>3972.0</ele>
        <time>2013-09-04T14:06:07Z</time>
      </trkpt>
      <trkpt lat="43.032100" lon="-4.724217">
        <ele>3968.0</ele>
        <time>2013-09-04T14:06:08Z</time>
      </trkpt>
      <trkpt lat="43.032067" lon="-4.724117">
        <ele>3963.0</ele>
        <time>2013-09-04T14:06:09Z</time>
      </trkpt>
      <trkpt lat="43.032050" lon="-4.724000">
        <ele>3959.0</ele>
        <time>2013-09-04T14:06:10Z</time>
      </trkpt>
      <trkpt lat="43.032033" lon="-4.723900">
        <ele>3955.0</ele>
        <time>2013-09-04T14:06:11Z</time>
      </trkpt>
      <trkpt lat="43.032017" lon="-4.723800">
        <ele>3952.0</ele>
        <time>2013-09-04T14:06:12Z</time>
      </trkpt>
      <trkpt lat="43.032000" lon="-4.723700">
        <ele>3949.0</ele>
        <time>2013-09-04T14:06:13Z</time>
      </trkpt>
      <trkpt lat="43.032000" lon="-4.723617">
        <ele>3946.0</ele>
        <time>2013-09-04T14:06:14Z</time>
      </trkpt>
      <trkpt lat="43.031983" lon="-4.723533">
        <ele>3943.0</ele>
        <time>2013-09-04T14:06:15Z</time>
      </trkpt>
      <trkpt lat="43.031967" lon="-4.723433">
        <ele>3943.0</ele>
        <time>2013-09-04T14:06:16Z</time>
      </trkpt>
      <trkpt lat="43.031950" lon="-4.723333">
        <ele>3941.0</ele>
        <time>2013-09-04T14:06:17Z</time>
      </trkpt>
      <trkpt lat="43.031917" lon="-4.723217">
        <ele>3938.0</ele>
        <time>2013-09-04T14:06:18Z</time>
      </trkpt>
      <trkpt lat="43.031900" lon="-4.723117">
        <ele>3934.0</ele>
        <time>2013-09-04T14:06:19Z</time>
      </trkpt>
      <trkpt lat="43.031867" lon="-4.723017">
        <ele>3930.0</ele>
        <time>2013-09-04T14:06:20Z</time>
      </trkpt>
      <trkpt lat="43.031833" lon="-4.722933">
        <ele>3928.0</ele>
        <time>2013-09-04T14:06:21Z</time>
      </trkpt>
      <trkpt lat="43.031817" lon="-4.722833">
        <ele>3928.0</ele>
        <time>2013-09-04T14:06:22Z</time>
      </trkpt>
      <trkpt lat="43.031817" lon="-4.722767">
        <ele>3927.0</ele>
        <time>2013-09-04T14:06:23Z</time>
      </trkpt>
      <trkpt lat="43.031817" lon="-4.722700">
        <ele>3926.0</ele>
        <time>2013-09-04T14:06:24Z</time>
      </trkpt>
      <trkpt lat="43.031817" lon="-4.722633">
        <ele>3925.0</ele>
        <time>2013-09-04T14:06:25Z</time>
      </trkpt>
      <trkpt lat="43.031800" lon="-4.722567">
        <ele>3924.0</ele>
        <time>2013-09-04T14:06:26Z</time>
      </trkpt>
      <trkpt lat="43.031783" lon="-4.722467">
        <ele>3924.0</ele>
        <time>2013-09-04T14:06:27Z</time>
      </trkpt>
      <trkpt lat="43.031783" lon="-4.722383">
        <ele>3924.0</ele>
        <time>2013-09-04T14:06:28Z</time>
      </trkpt>
      <trkpt lat="43.031767" lon="-4.722283">
        <ele>3923.0</ele>
        <time>2013-09-04T14:06:29Z</time>
      </trkpt>
      <trkpt lat="43.031733" lon="-4.722183">
        <ele>3923.0</ele>
        <time>2013-09-04T14:06:30Z</time>
      </trkpt>
      <trkpt lat="43.031717" lon="-4.722083">
        <ele>3921.0</ele>
        <time>2013-09-04T14:06:31Z</time>
      </trkpt>
      <trkpt lat="43.031700" lon="-4.722000">
        <ele>3919.0</ele>
        <time>2013-09-04T14:06:32Z</time>
      </trkpt>
      <trkpt lat="43.031683" lon="-4.721950">
        <ele>3915.0</ele>
        <time>2013-09-04T14:06:33Z</time>
      </trkpt>
      <trkpt lat="43.031650" lon="-4.721900">
        <ele>3911.0</ele>
        <time>2013-09-04T14:06:34Z</time>
      </trkpt>
      <trkpt lat="43.031633" lon="-4.721850">
        <ele>3908.0</ele>
        <time>2013-09-04T14:06:35Z</time>
      </trkpt>
      <trkpt lat="43.031617" lon="-4.721783">
        <ele>3908.0</ele>
        <time>2013-09-04T14:06:36Z</time>
      </trkpt>
      <trkpt lat="43.031583" lon="-4.721700">
        <ele>3906.0</ele>
        <time>2013-09-04T14:06:37Z</time>
      </trkpt>
      <trkpt lat="43.031567" lon="-4.721617">
        <ele>3903.0</ele>
        <time>2013-09-04T14:06:38Z</time>
      </trkpt>
      <trkpt lat="43.031550" lon="-4.721533">
        <ele>3900.0</ele>
        <time>2013-09-04T14:06:39Z</time>
      </trkpt>
      <trkpt lat="43.031517" lon="-4.721450">
        <ele>3896.0</ele>
        <time>2013-09-04T14:06:40Z</time>
      </trkpt>
      <trkpt lat="43.031483" lon="-4.721383">
        <ele>3892.0</ele>
        <time>2013-09-04T14:06:41Z</time>
      </trkpt>
      <trkpt lat="43.031467" lon="-4.721317">
        <ele>3888.0</ele>
        <time>2013-09-04T14:06:42Z</time>
      </trkpt>
      <trkpt lat="43.031433" lon="-4.721250">
        <ele>3885.0</ele>
        <time>2013-09-04T14:06:43Z</time>
      </trkpt>
      <trkpt lat="43.031400" lon="-4.721183">
        <ele>3882.0</ele>
        <time>2013-09-04T14:06:44Z</time>
      </trkpt>
      <trkpt lat="43.031350" lon="-4.721133">
        <ele>3878.0</ele>
        <time>2013-09-04T14:06:45Z</time>
      </trkpt>
      <trkpt lat="43.031267" lon="-4.721083">
        <ele>3874.0</ele>
        <time>2013-09-04T14:06:46Z</time>
      </trkpt>
      <trkpt lat="43.031200" lon="-4.721033">
        <ele>3871.0</ele>
        <time>2013-09-04T14:06:47Z</time>
      </trkpt>
      <trkpt lat="43.031117" lon="-4.720983">
        <ele>3869.0</ele>
        <time>2013-09-04T14:06:48Z</time>
      </trkpt>
      <trkpt lat="43.031067" lon="-4.720950">
        <ele>3867.0</ele>
        <time>2013-09-04T14:06:49Z</time>
      </trkpt>
      <trkpt lat="43.031033" lon="-4.720900">
        <ele>3864.0</ele>
        <time>2013-09-04T14:06:50Z</time>
      </trkpt>
      <trkpt lat="43.031000" lon="-4.720850">
        <ele>3861.0</ele>
        <time>2013-09-04T14:06:51Z</time>
      </trkpt>
      <trkpt lat="43.030967" lon="-4.720783">
        <ele>3856.0</ele>
        <time>2013-09-04T14:06:52Z</time>
      </trkpt>
      <trkpt lat="43.030933" lon="-4.720700">
        <ele>3852.0</ele>
        <time>2013-09-04T14:06:53Z</time>
      </trkpt>
      <trkpt lat="43.030900" lon="-4.720633">
        <ele>3853.0</ele>
        <time>2013-09-04T14:06:54Z</time>
      </trkpt>
      <trkpt lat="43.030850" lon="-4.720567">
        <ele>3847.0</ele>
        <time>2013-09-04T14:06:55Z</time>
      </trkpt>
      <trkpt lat="43.030817" lon="-4.720517">
        <ele>3842.0</ele>
        <time>2013-09-04T14:06:56Z</time>
      </trkpt>
      <trkpt lat="43.030767" lon="-4.720467">
        <ele>3838.0</ele>
        <time>2013-09-04T14:06:57Z</time>
      </trkpt>
      <trkpt lat="43.030717" lon="-4.720400">
        <ele>3834.0</ele>
        <time>2013-09-04T14:06:58Z</time>
      </trkpt>
      <trkpt lat="43.030667" lon="-4.720333">
        <ele>3830.0</ele>
        <time>2013-09-04T14:06:59Z</time>
      </trkpt>
      <trkpt lat="43.030633" lon="-4.720250">
        <ele>3826.0</ele>
        <time>2013-09-04T14:07:00Z</time>
      </trkpt>
      <trkpt lat="43.030600" lon="-4.720183">
        <ele>3822.0</ele>
        <time>2013-09-04T14:07:01Z</time>
      </trkpt>
      <trkpt lat="43.030567" lon="-4.720117">
        <ele>3818.0</ele>
        <time>2013-09-04T14:07:02Z</time>
      </trkpt>
      <trkpt lat="43.030533" lon="-4.720050">
        <ele>3813.0</ele>
        <time>2013-09-04T14:07:03Z</time>
      </trkpt>
      <trkpt lat="43.030483" lon="-4.719950">
        <ele>3808.0</ele>
        <time>2013-09-04T14:07:04Z</time>
      </trkpt>
      <trkpt lat="43.030433" lon="-4.719867">
        <ele>3802.0</ele>
        <time>2013-09-04T14:07:05Z</time>
      </trkpt>
      <trkpt lat="43.030367" lon="-4.719767">
        <ele>3797.0</ele>
        <time>2013-09-04T14:07:06Z</time>
      </trkpt>
      <trkpt lat="43.030300" lon="-4.719700">
        <ele>3793.0</ele>
        <time>2013-09-04T14:07:07Z</time>
      </trkpt>
      <trkpt lat="43.030217" lon="-4.719617">
        <ele>3790.0</ele>
        <time>2013-09-04T14:07:08Z</time>
      </trkpt>
      <trkpt lat="43.030150" lon="-4.719567">
        <ele>3788.0</ele>
        <time>2013-09-04T14:07:09Z</time>
      </trkpt>
      <trkpt lat="43.030100" lon="-4.719500">
        <ele>3785.0</ele>
        <time>2013-09-04T14:07:10Z</time>
      </trkpt>
      <trkpt lat="43.030050" lon="-4.719467">
        <ele>3781.0</ele>
        <time>2013-09-04T14:07:11Z</time>
      </trkpt>
      <trkpt lat="43.029983" lon="-4.719417">
        <ele>3777.0</ele>
        <time>2013-09-04T14:07:12Z</time>
      </trkpt>
      <trkpt lat="43.029917" lon="-4.719350">
        <ele>3772.0</ele>
        <time>2013-09-04T14:07:13Z</time>
      </trkpt>
      <trkpt lat="43.029833" lon="-4.719283">
        <ele>3768.0</ele>
        <time>2013-09-04T14:07:14Z</time>
      </trkpt>
      <trkpt lat="43.029767" lon="-4.719200">
        <ele>3763.0</ele>
        <time>2013-09-04T14:07:15Z</time>
      </trkpt>
      <trkpt lat="43.029683" lon="-4.719133">
        <ele>3760.0</ele>
        <time>2013-09-04T14:07:16Z</time>
      </trkpt>
      <trkpt lat="43.029617" lon="-4.719050">
        <ele>3758.0</ele>
        <time>2013-09-04T14:07:17Z</time>
      </trkpt>
      <trkpt lat="43.029567" lon="-4.718983">
        <ele>3756.0</ele>
        <time>2013-09-04T14:07:18Z</time>
      </trkpt>
      <trkpt lat="43.029500" lon="-4.718917">
        <ele>3753.0</ele>
        <time>2013-09-04T14:07:19Z</time>
      </trkpt>
      <trkpt lat="43.029450" lon="-4.718850">
        <ele>3750.0</ele>
        <time>2013-09-04T14:07:20Z</time>
      </trkpt>
      <trkpt lat="43.029367" lon="-4.718783">
        <ele>3747.0</ele>
        <time>2013-09-04T14:07:21Z</time>
      </trkpt>
      <trkpt lat="43.029300" lon="-4.718717">
        <ele>3749.0</ele>
        <time>2013-09-04T14:07:22Z</time>
      </trkpt>
      <trkpt lat="43.029233" lon="-4.718650">
        <ele>3749.0</ele>
        <time>2013-09-04T14:07:23Z</time>
      </trkpt>
      <trkpt lat="43.029167" lon="-4.718567">
        <ele>3748.0</ele>
        <time>2013-09-04T14:07:24Z</time>
      </trkpt>
      <trkpt lat="43.029100" lon="-4.718500">
        <ele>3746.0</ele>
        <time>2013-09-04T14:07:25Z</time>
      </trkpt>
      <trkpt lat="43.029033" lon="-4.718433">
        <ele>3745.0</ele>
        <time>2013-09-04T14:07:26Z</time>
      </trkpt>
      <trkpt lat="43.028967" lon="-4.718383">
        <ele>3743.0</ele>
        <time>2013-09-04T14:07:27Z</time>
      </trkpt>
      <trkpt lat="43.028900" lon="-4.718333">
        <ele>3741.0</ele>
        <time>2013-09-04T14:07:28Z</time>
      </trkpt>
      <trkpt lat="43.028850" lon="-4.718283">
        <ele>3741.0</ele>
        <time>2013-09-04T14:07:29Z</time>
      </trkpt>
      <trkpt lat="43.028800" lon="-4.718233">
        <ele>3740.0</ele>
        <time>2013-09-04T14:07:30Z</time>
      </trkpt>
      <trkpt lat="43.028750" lon="-4.718200">
        <ele>3738.0</ele>
        <time>2013-09-04T14:07:31Z</time>
      </trkpt>
      <trkpt lat="43.028717" lon="-4.718167">
        <ele>3736.0</ele>
        <time>2013-09-04T14:07:32Z</time>
      </trkpt>
      <trkpt lat="43.028667" lon="-4.718117">
        <ele>3733.0</ele>
        <time>2013-09-04T14:07:33Z</time>
      </trkpt>
      <trkpt lat="43.028633" lon="-4.718067">
        <ele>3732.0</ele>
        <time>2013-09-04T14:07:34Z</time>
      </trkpt>
      <trkpt lat="43.028600" lon="-4.718000">
        <ele>3732.0</ele>
        <time>2013-09-04T14:07:35Z</time>
      </trkpt>
      <trkpt lat="43.028567" lon="-4.717950">
        <ele>3731.0</ele>
        <time>2013-09-04T14:07:36Z</time>
      </trkpt>
      <trkpt lat="43.028533" lon="-4.717883">
        <ele>3729.0</ele>
        <time>2013-09-04T14:07:37Z</time>
      </trkpt>
      <trkpt lat="43.028500" lon="-4.717800">
        <ele>3728.0</ele>
        <time>2013-09-04T14:07:38Z</time>
      </trkpt>
      <trkpt lat="43.028467" lon="-4.717717">
        <ele>3727.0</ele>
        <time>2013-09-04T14:07:39Z</time>
      </trkpt>
      <trkpt lat="43.028450" lon="-4.717617">
        <ele>3725.0</ele>
        <time>2013-09-04T14:07:40Z</time>
      </trkpt>
      <trkpt lat="43.028433" lon="-4.717517">
        <ele>3724.0</ele>
        <time>2013-09-04T14:07:41Z</time>
      </trkpt>
      <trkpt lat="43.028400" lon="-4.717433">
        <ele>3723.0</ele>
        <time>2013-09-04T14:07:42Z</time>
      </trkpt>
      <trkpt lat="43.028383" lon="-4.717350">
        <ele>3721.0</ele>
        <time>2013-09-04T14:07:43Z</time>
      </trkpt>
      <trkpt lat="43.028350" lon="-4.717250">
        <ele>3720.0</ele>
        <time>2013-09-04T14:07:44Z</time>
      </trkpt>
      <trkpt lat="43.028317" lon="-4.717167">
        <ele>3717.0</ele>
        <time>2013-09-04T14:07:45Z</time>
      </trkpt>
      <trkpt lat="43.028267" lon="-4.717083">
        <ele>3714.0</ele>
        <time>2013-09-04T14:07:46Z</time>
      </trkpt>
      <trkpt lat="43.028217" lon="-4.717000">
        <ele>3712.0</ele>
        <time>2013-09-04T14:07:47Z</time>
      </trkpt>
      <trkpt lat="43.028150" lon="-4.716917">
        <ele>3711.0</ele>
        <time>2013-09-04T14:07:48Z</time>
      </trkpt>
      <trkpt lat="43.028100" lon="-4.716850">
        <ele>3710.0</ele>
        <time>2013-09-04T14:07:49Z</time>
      </trkpt>
      <trkpt lat="43.028050" lon="-4.716783">
        <ele>3709.0</ele>
        <time>2013-09-04T14:07:50Z</time>
      </trkpt>
      <trkpt lat="43.028017" lon="-4.716717">
        <ele>3708.0</ele>
        <time>2013-09-04T14:07:51Z</time>
      </trkpt>
      <trkpt lat="43.027983" lon="-4.716633">
        <ele>3706.0</ele>
        <time>2013-09-04T14:07:52Z</time>
      </trkpt>
      <trkpt lat="43.027950" lon="-4.716567">
        <ele>3703.0</ele>
        <time>2013-09-04T14:07:53Z</time>
      </trkpt>
      <trkpt lat="43.027917" lon="-4.716483">
        <ele>3700.0</ele>
        <time>2013-09-04T14:07:54Z</time>
      </trkpt>
      <trkpt lat="43.027883" lon="-4.716400">
        <ele>3696.0</ele>
        <time>2013-09-04T14:07:55Z</time>
      </trkpt>
      <trkpt lat="43.027867" lon="-4.716317">
        <ele>3693.0</ele>
        <time>2013-09-04T14:07:56Z</time>
      </trkpt>
      <trkpt lat="43.027833" lon="-4.716233">
        <ele>3689.0</ele>
        <time>2013-09-04T14:07:57Z</time>
      </trkpt>
      <trkpt lat="43.027800" lon="-4.716133">
        <ele>3686.0</ele>
        <time>2013-09-04T14:07:58Z</time>
      </trkpt>
      <trkpt lat="43.027750" lon="-4.716050">
        <ele>3683.0</ele>
        <time>2013-09-04T14:07:59Z</time>
      </trkpt>
      <trkpt lat="43.027700" lon="-4.716000">
        <ele>3682.0</ele>
        <time>2013-09-04T14:08:00Z</time>
      </trkpt>
      <trkpt lat="43.027650" lon="-4.715983">
        <ele>3681.0</ele>
        <time>2013-09-04T14:08:01Z</time>
      </trkpt>
      <trkpt lat="43.027617" lon="-4.715983">
        <ele>3679.0</ele>
        <time>2013-09-04T14:08:02Z</time>
      </trkpt>
      <trkpt lat="43.027583" lon="-4.715983">
        <ele>3676.0</ele>
        <time>2013-09-04T14:08:03Z</time>
      </trkpt>
      <trkpt lat="43.027550" lon="-4.715983">
        <ele>3674.0</ele>
        <time>2013-09-04T14:08:04Z</time>
      </trkpt>
      <trkpt lat="43.027500" lon="-4.715950">
        <ele>3671.0</ele>
        <time>2013-09-04T14:08:05Z</time>
      </trkpt>
      <trkpt lat="43.027450" lon="-4.715900">
        <ele>3667.0</ele>
        <time>2013-09-04T14:08:06Z</time>
      </trkpt>
      <trkpt lat="43.027383" lon="-4.715833">
        <ele>3664.0</ele>
        <time>2013-09-04T14:08:07Z</time>
      </trkpt>
      <trkpt lat="43.027333" lon="-4.715767">
        <ele>3661.0</ele>
        <time>2013-09-04T14:08:08Z</time>
      </trkpt>
      <trkpt lat="43.027283" lon="-4.715683">
        <ele>3659.0</ele>
        <time>2013-09-04T14:08:09Z</time>
      </trkpt>
      <trkpt lat="43.027233" lon="-4.715600">
        <ele>3657.0</ele>
        <time>2013-09-04T14:08:10Z</time>
      </trkpt>
      <trkpt lat="43.027217" lon="-4.715517">
        <ele>3654.0</ele>
        <time>2013-09-04T14:08:11Z</time>
      </trkpt>
      <trkpt lat="43.027183" lon="-4.715433">
        <ele>3651.0</ele>
        <time>2013-09-04T14:08:12Z</time>
      </trkpt>
      <trkpt lat="43.027150" lon="-4.715350">
        <ele>3648.0</ele>
        <time>2013-09-04T14:08:13Z</time>
      </trkpt>
      <trkpt lat="43.027100" lon="-4.715267">
        <ele>3645.0</ele>
        <time>2013-09-04T14:08:14Z</time>
      </trkpt>
      <trkpt lat="43.027050" lon="-4.715183">
        <ele>3643.0</ele>
        <time>2013-09-04T14:08:15Z</time>
      </trkpt>
      <trkpt lat="43.027000" lon="-4.715100">
        <ele>3642.0</ele>
        <time>2013-09-04T14:08:16Z</time>
      </trkpt>
      <trkpt lat="43.026950" lon="-4.715050">
        <ele>3640.0</ele>
        <time>2013-09-04T14:08:17Z</time>
      </trkpt>
      <trkpt lat="43.026900" lon="-4.714983">
        <ele>3638.0</ele>
        <time>2013-09-04T14:08:18Z</time>
      </trkpt>
      <trkpt lat="43.026850" lon="-4.714917">
        <ele>3635.0</ele>
        <time>2013-09-04T14:08:19Z</time>
      </trkpt>
      <trkpt lat="43.026800" lon="-4.714850">
        <ele>3633.0</ele>
        <time>2013-09-04T14:08:20Z</time>
      </trkpt>
      <trkpt lat="43.026750" lon="-4.714767">
        <ele>3631.0</ele>
        <time>2013-09-04T14:08:21Z</time>
      </trkpt>
      <trkpt lat="43.026717" lon="-4.714683">
        <ele>3629.0</ele>
        <time>2013-09-04T14:08:22Z</time>
      </trkpt>
      <trkpt lat="43.026683" lon="-4.714617">
        <ele>3626.0</ele>
        <time>2013-09-04T14:08:23Z</time>
      </trkpt>
      <trkpt lat="43.026633" lon="-4.714550">
        <ele>3624.0</ele>
        <time>2013-09-04T14:08:24Z</time>
      </trkpt>
      <trkpt lat="43.026567" lon="-4.714483">
        <ele>3622.0</ele>
        <time>2013-09-04T14:08:25Z</time>
      </trkpt>
      <trkpt lat="43.026500" lon="-4.714417">
        <ele>3620.0</ele>
        <time>2013-09-04T14:08:26Z</time>
      </trkpt>
      <trkpt lat="43.026433" lon="-4.714333">
        <ele>3619.0</ele>
        <time>2013-09-04T14:08:27Z</time>
      </trkpt>
      <trkpt lat="43.026367" lon="-4.714267">
        <ele>3619.0</ele>
        <time>2013-09-04T14:08:28Z</time>
      </trkpt>
      <trkpt lat="43.026333" lon="-4.714217">
        <ele>3620.0</ele>
        <time>2013-09-04T14:08:29Z</time>
      </trkpt>
      <trkpt lat="43.026283" lon="-4.714150">
        <ele>3620.0</ele>
        <time>2013-09-04T14:08:30Z</time>
      </trkpt>
      <trkpt lat="43.026250" lon="-4.714117">
        <ele>3621.0</ele>
        <time>2013-09-04T14:08:31Z</time>
      </trkpt>
      <trkpt lat="43.026200" lon="-4.714067">
        <ele>3620.0</ele>
        <time>2013-09-04T14:08:32Z</time>
      </trkpt>
      <trkpt lat="43.026167" lon="-4.714000">
        <ele>3619.0</ele>
        <time>2013-09-04T14:08:33Z</time>
      </trkpt>
      <trkpt lat="43.026117" lon="-4.713933">
        <ele>3618.0</ele>
        <time>2013-09-04T14:08:34Z</time>
      </trkpt>
      <trkpt lat="43.026067" lon="-4.713883">
        <ele>3618.0</ele>
        <time>2013-09-04T14:08:35Z</time>
      </trkpt>
      <trkpt lat="43.026033" lon="-4.713817">
        <ele>3617.0</ele>
        <time>2013-09-04T14:08:36Z</time>
      </trkpt>
      <trkpt lat="43.026017" lon="-4.713767">
        <ele>3617.0</ele>
        <time>2013-09-04T14:08:37Z</time>
      </trkpt>
      <trkpt lat="43.025983" lon="-4.713700">
        <ele>3616.0</ele>
        <time>2013-09-04T14:08:38Z</time>
      </trkpt>
      <trkpt lat="43.025950" lon="-4.713650">
        <ele>3614.0</ele>
        <time>2013-09-04T14:08:39Z</time>
      </trkpt>
      <trkpt lat="43.025883" lon="-4.713600">
        <ele>3611.0</ele>
        <time>2013-09-04T14:08:40Z</time>
      </trkpt>
      <trkpt lat="43.025817" lon="-4.713533">
        <ele>3609.0</ele>
        <time>2013-09-04T14:08:41Z</time>
      </trkpt>
      <trkpt lat="43.025750" lon="-4.713467">
        <ele>3607.0</ele>
        <time>2013-09-04T14:08:42Z</time>
      </trkpt>
      <trkpt lat="43.025700" lon="-4.713400">
        <ele>3606.0</ele>
        <time>2013-09-04T14:08:43Z</time>
      </trkpt>
      <trkpt lat="43.025650" lon="-4.713333">
        <ele>3605.0</ele>
        <time>2013-09-04T14:08:44Z</time>
      </trkpt>
      <trkpt lat="43.025617" lon="-4.713267">
        <ele>3604.0</ele>
        <time>2013-09-04T14:08:45Z</time>
      </trkpt>
      <trkpt lat="43.025583" lon="-4.713217">
        <ele>3603.0</ele>
        <time>2013-09-04T14:08:46Z</time>
      </trkpt>
      <trkpt lat="43.025533" lon="-4.713150">
        <ele>3601.0</ele>
        <time>2013-09-04T14:08:47Z</time>
      </trkpt>
      <trkpt lat="43.025483" lon="-4.713083">
        <ele>3600.0</ele>
        <time>2013-09-04T14:08:48Z</time>
      </trkpt>
      <trkpt lat="43.025433" lon="-4.713017">
        <ele>3599.0</ele>
        <time>2013-09-04T14:08:49Z</time>
      </trkpt>
      <trkpt lat="43.025383" lon="-4.712967">
        <ele>3599.0</ele>
        <time>2013-09-04T14:08:50Z</time>
      </trkpt>
      <trkpt lat="43.025350" lon="-4.712900">
        <ele>3599.0</ele>
        <time>2013-09-04T14:08:51Z</time>
      </trkpt>
      <trkpt lat="43.025300" lon="-4.712867">
        <ele>3598.0</ele>
        <time>2013-09-04T14:08:52Z</time>
      </trkpt>
      <trkpt lat="43.025250" lon="-4.712833">
        <ele>3597.0</ele>
        <time>2013-09-04T14:08:53Z</time>
      </trkpt>
      <trkpt lat="43.025200" lon="-4.712783">
        <ele>3597.0</ele>
        <time>2013-09-04T14:08:54Z</time>
      </trkpt>
      <trkpt lat="43.025133" lon="-4.712750">
        <ele>3596.0</ele>
        <time>2013-09-04T14:08:55Z</time>
      </trkpt>
      <trkpt lat="43.025083" lon="-4.712700">
        <ele>3595.0</ele>
        <time>2013-09-04T14:08:56Z</time>
      </trkpt>
      <trkpt lat="43.025017" lon="-4.712650">
        <ele>3594.0</ele>
        <time>2013-09-04T14:08:57Z</time>
      </trkpt>
      <trkpt lat="43.024950" lon="-4.712600">
        <ele>3593.0</ele>
        <time>2013-09-04T14:08:58Z</time>
      </trkpt>
      <trkpt lat="43.024900" lon="-4.712550">
        <ele>3593.0</ele>
        <time>2013-09-04T14:08:59Z</time>
      </trkpt>
      <trkpt lat="43.024850" lon="-4.712500">
        <ele>3593.0</ele>
        <time>2013-09-04T14:09:00Z</time>
      </trkpt>
      <trkpt lat="43.024800" lon="-4.712450">
        <ele>3592.0</ele>
        <time>2013-09-04T14:09:01Z</time>
      </trkpt>
      <trkpt lat="43.024733" lon="-4.712367">
        <ele>3591.0</ele>
        <time>2013-09-04T14:09:02Z</time>
      </trkpt>
      <trkpt lat="43.024700" lon="-4.712300">
        <ele>3591.0</ele>
        <time>2013-09-04T14:09:03Z</time>
      </trkpt>
      <trkpt lat="43.024650" lon="-4.712217">
        <ele>3590.0</ele>
        <time>2013-09-04T14:09:04Z</time>
      </trkpt>
      <trkpt lat="43.024617" lon="-4.712133">
        <ele>3590.0</ele>
        <time>2013-09-04T14:09:05Z</time>
      </trkpt>
      <trkpt lat="43.024583" lon="-4.712067">
        <ele>3589.0</ele>
        <time>2013-09-04T14:09:06Z</time>
      </trkpt>
      <trkpt lat="43.024550" lon="-4.712000">
        <ele>3587.0</ele>
        <time>2013-09-04T14:09:07Z</time>
      </trkpt>
      <trkpt lat="43.024500" lon="-4.711917">
        <ele>3585.0</ele>
        <time>2013-09-04T14:09:08Z</time>
      </trkpt>
      <trkpt lat="43.024450" lon="-4.711833">
        <ele>3584.0</ele>
        <time>2013-09-04T14:09:09Z</time>
      </trkpt>
      <trkpt lat="43.024400" lon="-4.711750">
        <ele>3582.0</ele>
        <time>2013-09-04T14:09:10Z</time>
      </trkpt>
      <trkpt lat="43.024350" lon="-4.711667">
        <ele>3581.0</ele>
        <time>2013-09-04T14:09:11Z</time>
      </trkpt>
      <trkpt lat="43.024300" lon="-4.711583">
        <ele>3581.0</ele>
        <time>2013-09-04T14:09:12Z</time>
      </trkpt>
      <trkpt lat="43.024250" lon="-4.711500">
        <ele>3580.0</ele>
        <time>2013-09-04T14:09:13Z</time>
      </trkpt>
      <trkpt lat="43.024217" lon="-4.711433">
        <ele>3580.0</ele>
        <time>2013-09-04T14:09:14Z</time>
      </trkpt>
      <trkpt lat="43.024167" lon="-4.711350">
        <ele>3580.0</ele>
        <time>2013-09-04T14:09:15Z</time>
      </trkpt>
      <trkpt lat="43.024117" lon="-4.711283">
        <ele>3580.0</ele>
        <time>2013-09-04T14:09:16Z</time>
      </trkpt>
      <trkpt lat="43.024067" lon="-4.711217">
        <ele>3580.0</ele>
        <time>2013-09-04T14:09:17Z</time>
      </trkpt>
      <trkpt lat="43.024017" lon="-4.711133">
        <ele>3581.0</ele>
        <time>2013-09-04T14:09:18Z</time>
      </trkpt>
      <trkpt lat="43.023983" lon="-4.711067">
        <ele>3581.0</ele>
        <time>2013-09-04T14:09:19Z</time>
      </trkpt>
      <trkpt lat="43.023933" lon="-4.711000">
        <ele>3582.0</ele>
        <time>2013-09-04T14:09:20Z</time>
      </trkpt>
      <trkpt lat="43.023900" lon="-4.710933">
        <ele>3583.0</ele>
        <time>2013-09-04T14:09:21Z</time>
      </trkpt>
      <trkpt lat="43.023867" lon="-4.710883">
        <ele>3584.0</ele>
        <time>2013-09-04T14:09:22Z</time>
      </trkpt>
      <trkpt lat="43.023833" lon="-4.710850">
        <ele>3585.0</ele>
        <time>2013-09-04T14:09:23Z</time>
      </trkpt>
      <trkpt lat="43.023800" lon="-4.710817">
        <ele>3586.0</ele>
        <time>2013-09-04T14:09:24Z</time>
      </trkpt>
      <trkpt lat="43.023767" lon="-4.710783">
        <ele>3587.0</ele>
        <time>2013-09-04T14:09:25Z</time>
      </trkpt>
      <trkpt lat="43.023750" lon="-4.710750">
        <ele>3588.0</ele>
        <time>2013-09-04T14:09:26Z</time>
      </trkpt>
      <trkpt lat="43.023733" lon="-4.710700">
        <ele>3587.0</ele>
        <time>2013-09-04T14:09:27Z</time>
      </trkpt>
      <trkpt lat="43.023717" lon="-4.710650">
        <ele>3587.0</ele>
        <time>2013-09-04T14:09:28Z</time>
      </trkpt>
      <trkpt lat="43.023683" lon="-4.710600">
        <ele>3587.0</ele>
        <time>2013-09-04T14:09:29Z</time>
      </trkpt>
      <trkpt lat="43.023667" lon="-4.710567">
        <ele>3588.0</ele>
        <time>2013-09-04T14:09:30Z</time>
      </trkpt>
      <trkpt lat="43.023633" lon="-4.710517">
        <ele>3587.0</ele>
        <time>2013-09-04T14:09:31Z</time>
      </trkpt>
      <trkpt lat="43.023617" lon="-4.710467">
        <ele>3587.0</ele>
        <time>2013-09-04T14:09:32Z</time>
      </trkpt>
      <trkpt lat="43.023583" lon="-4.710417">
        <ele>3587.0</ele>
        <time>2013-09-04T14:09:33Z</time>
      </trkpt>
      <trkpt lat="43.023550" lon="-4.710350">
        <ele>3587.0</ele>
        <time>2013-09-04T14:09:34Z</time>
      </trkpt>
      <trkpt lat="43.023517" lon="-4.710300">
        <ele>3586.0</ele>
        <time>2013-09-04T14:09:35Z</time>
      </trkpt>
      <trkpt lat="43.023483" lon="-4.710250">
        <ele>3586.0</ele>
        <time>2013-09-04T14:09:36Z</time>
      </trkpt>
      <trkpt lat="43.023433" lon="-4.710217">
        <ele>3585.0</ele>
        <time>2013-09-04T14:09:37Z</time>
      </trkpt>
      <trkpt lat="43.023383" lon="-4.710167">
        <ele>3585.0</ele>
        <time>2013-09-04T14:09:38Z</time>
      </trkpt>
      <trkpt lat="43.023333" lon="-4.710133">
        <ele>3585.0</ele>
        <time>2013-09-04T14:09:39Z</time>
      </trkpt>
      <trkpt lat="43.023283" lon="-4.710117">
        <ele>3585.0</ele>
        <time>2013-09-04T14:09:40Z</time>
      </trkpt>
      <trkpt lat="43.023250" lon="-4.710100">
        <ele>3584.0</ele>
        <time>2013-09-04T14:09:41Z</time>
      </trkpt>
      <trkpt lat="43.023200" lon="-4.710083">
        <ele>3584.0</ele>
        <time>2013-09-04T14:09:42Z</time>
      </trkpt>
      <trkpt lat="43.023150" lon="-4.710067">
        <ele>3583.0</ele>
        <time>2013-09-04T14:09:43Z</time>
      </trkpt>
      <trkpt lat="43.023083" lon="-4.710050">
        <ele>3581.0</ele>
        <time>2013-09-04T14:09:44Z</time>
      </trkpt>
      <trkpt lat="43.023017" lon="-4.710050">
        <ele>3580.0</ele>
        <time>2013-09-04T14:09:45Z</time>
      </trkpt>
      <trkpt lat="43.022950" lon="-4.710050">
        <ele>3580.0</ele>
        <time>2013-09-04T14:09:46Z</time>
      </trkpt>
      <trkpt lat="43.022883" lon="-4.710050">
        <ele>3580.0</ele>
        <time>2013-09-04T14:09:47Z</time>
      </trkpt>
      <trkpt lat="43.022833" lon="-4.710050">
        <ele>3581.0</ele>
        <time>2013-09-04T14:09:48Z</time>
      </trkpt>
      <trkpt lat="43.022783" lon="-4.710033">
        <ele>3581.0</ele>
        <time>2013-09-04T14:09:49Z</time>
      </trkpt>
      <trkpt lat="43.022750" lon="-4.710000">
        <ele>3580.0</ele>
        <time>2013-09-04T14:09:50Z</time>
      </trkpt>
      <trkpt lat="43.022733" lon="-4.709967">
        <ele>3578.0</ele>
        <time>2013-09-04T14:09:51Z</time>
      </trkpt>
      <trkpt lat="43.022717" lon="-4.709917">
        <ele>3576.0</ele>
        <time>2013-09-04T14:09:52Z</time>
      </trkpt>
      <trkpt lat="43.022683" lon="-4.709883">
        <ele>3574.0</ele>
        <time>2013-09-04T14:09:53Z</time>
      </trkpt>
      <trkpt lat="43.022650" lon="-4.709833">
        <ele>3572.0</ele>
        <time>2013-09-04T14:09:54Z</time>
      </trkpt>
      <trkpt lat="43.022600" lon="-4.709767">
        <ele>3569.0</ele>
        <time>2013-09-04T14:09:55Z</time>
      </trkpt>
      <trkpt lat="43.022550" lon="-4.709733">
        <ele>3567.0</ele>
        <time>2013-09-04T14:09:56Z</time>
      </trkpt>
      <trkpt lat="43.022483" lon="-4.709683">
        <ele>3565.0</ele>
        <time>2013-09-04T14:09:57Z</time>
      </trkpt>
      <trkpt lat="43.022433" lon="-4.709650">
        <ele>3563.0</ele>
        <time>2013-09-04T14:09:58Z</time>
      </trkpt>
      <trkpt lat="43.022367" lon="-4.709633">
        <ele>3561.0</ele>
        <time>2013-09-04T14:09:59Z</time>
      </trkpt>
      <trkpt lat="43.022317" lon="-4.709617">
        <ele>3559.0</ele>
        <time>2013-09-04T14:10:00Z</time>
      </trkpt>
      <trkpt lat="43.022250" lon="-4.709600">
        <ele>3557.0</ele>
        <time>2013-09-04T14:10:01Z</time>
      </trkpt>
      <trkpt lat="43.022200" lon="-4.709567">
        <ele>3556.0</ele>
        <time>2013-09-04T14:10:02Z</time>
      </trkpt>
      <trkpt lat="43.022133" lon="-4.709550">
        <ele>3553.0</ele>
        <time>2013-09-04T14:10:03Z</time>
      </trkpt>
      <trkpt lat="43.022050" lon="-4.709533">
        <ele>3551.0</ele>
        <time>2013-09-04T14:10:04Z</time>
      </trkpt>
      <trkpt lat="43.021983" lon="-4.709500">
        <ele>3549.0</ele>
        <time>2013-09-04T14:10:05Z</time>
      </trkpt>
      <trkpt lat="43.021900" lon="-4.709450">
        <ele>3547.0</ele>
        <time>2013-09-04T14:10:06Z</time>
      </trkpt>
      <trkpt lat="43.021817" lon="-4.709417">
        <ele>3547.0</ele>
        <time>2013-09-04T14:10:07Z</time>
      </trkpt>
      <trkpt lat="43.021750" lon="-4.709367">
        <ele>3549.0</ele>
        <time>2013-09-04T14:10:08Z</time>
      </trkpt>
      <trkpt lat="43.021683" lon="-4.709333">
        <ele>3549.0</ele>
        <time>2013-09-04T14:10:09Z</time>
      </trkpt>
      <trkpt lat="43.021633" lon="-4.709283">
        <ele>3549.0</ele>
        <time>2013-09-04T14:10:10Z</time>
      </trkpt>
      <trkpt lat="43.021600" lon="-4.709233">
        <ele>3548.0</ele>
        <time>2013-09-04T14:10:11Z</time>
      </trkpt>
      <trkpt lat="43.021583" lon="-4.709200">
        <ele>3546.0</ele>
        <time>2013-09-04T14:10:12Z</time>
      </trkpt>
      <trkpt lat="43.021550" lon="-4.709167">
        <ele>3545.0</ele>
        <time>2013-09-04T14:10:13Z</time>
      </trkpt>
      <trkpt lat="43.021517" lon="-4.709117">
        <ele>3543.0</ele>
        <time>2013-09-04T14:10:14Z</time>
      </trkpt>
      <trkpt lat="43.021467" lon="-4.709083">
        <ele>3542.0</ele>
        <time>2013-09-04T14:10:15Z</time>
      </trkpt>
      <trkpt lat="43.021417" lon="-4.709033">
        <ele>3540.0</ele>
        <time>2013-09-04T14:10:16Z</time>
      </trkpt>
      <trkpt lat="43.021383" lon="-4.709000">
        <ele>3540.0</ele>
        <time>2013-09-04T14:10:17Z</time>
      </trkpt>
      <trkpt lat="43.021333" lon="-4.708983">
        <ele>3539.0</ele>
        <time>2013-09-04T14:10:18Z</time>
      </trkpt>
      <trkpt lat="43.021300" lon="-4.708967">
        <ele>3537.0</ele>
        <time>2013-09-04T14:10:19Z</time>
      </trkpt>
      <trkpt lat="43.021250" lon="-4.708933">
        <ele>3536.0</ele>
        <time>2013-09-04T14:10:20Z</time>
      </trkpt>
      <trkpt lat="43.021200" lon="-4.708917">
        <ele>3533.0</ele>
        <time>2013-09-04T14:10:21Z</time>
      </trkpt>
      <trkpt lat="43.021150" lon="-4.708900">
        <ele>3531.0</ele>
        <time>2013-09-04T14:10:22Z</time>
      </trkpt>
      <trkpt lat="43.021083" lon="-4.708867">
        <ele>3530.0</ele>
        <time>2013-09-04T14:10:23Z</time>
      </trkpt>
      <trkpt lat="43.021050" lon="-4.708817">
        <ele>3529.0</ele>
        <time>2013-09-04T14:10:24Z</time>
      </trkpt>
      <trkpt lat="43.021017" lon="-4.708750">
        <ele>3528.0</ele>
        <time>2013-09-04T14:10:25Z</time>
      </trkpt>
      <trkpt lat="43.020983" lon="-4.708717">
        <ele>3527.0</ele>
        <time>2013-09-04T14:10:26Z</time>
      </trkpt>
      <trkpt lat="43.020933" lon="-4.708650">
        <ele>3525.0</ele>
        <time>2013-09-04T14:10:27Z</time>
      </trkpt>
      <trkpt lat="43.020883" lon="-4.708600">
        <ele>3523.0</ele>
        <time>2013-09-04T14:10:28Z</time>
      </trkpt>
      <trkpt lat="43.020833" lon="-4.708533">
        <ele>3522.0</ele>
        <time>2013-09-04T14:10:29Z</time>
      </trkpt>
      <trkpt lat="43.020767" lon="-4.708483">
        <ele>3519.0</ele>
        <time>2013-09-04T14:10:30Z</time>
      </trkpt>
      <trkpt lat="43.020717" lon="-4.708450">
        <ele>3518.0</ele>
        <time>2013-09-04T14:10:31Z</time>
      </trkpt>
      <trkpt lat="43.020650" lon="-4.708417">
        <ele>3516.0</ele>
        <time>2013-09-04T14:10:32Z</time>
      </trkpt>
      <trkpt lat="43.020600" lon="-4.708350">
        <ele>3515.0</ele>
        <time>2013-09-04T14:10:33Z</time>
      </trkpt>
      <trkpt lat="43.020533" lon="-4.708283">
        <ele>3512.0</ele>
        <time>2013-09-04T14:10:34Z</time>
      </trkpt>
      <trkpt lat="43.020483" lon="-4.708183">
        <ele>3514.0</ele>
        <time>2013-09-04T14:10:35Z</time>
      </trkpt>
      <trkpt lat="43.020433" lon="-4.708100">
        <ele>3513.0</ele>
        <time>2013-09-04T14:10:36Z</time>
      </trkpt>
      <trkpt lat="43.020367" lon="-4.708017">
        <ele>3511.0</ele>
        <time>2013-09-04T14:10:37Z</time>
      </trkpt>
      <trkpt lat="43.020300" lon="-4.707933">
        <ele>3510.0</ele>
        <time>2013-09-04T14:10:38Z</time>
      </trkpt>
      <trkpt lat="43.020250" lon="-4.707850">
        <ele>3509.0</ele>
        <time>2013-09-04T14:10:39Z</time>
      </trkpt>
      <trkpt lat="43.020217" lon="-4.707783">
        <ele>3508.0</ele>
        <time>2013-09-04T14:10:40Z</time>
      </trkpt>
      <trkpt lat="43.020167" lon="-4.707717">
        <ele>3507.0</ele>
        <time>2013-09-04T14:10:41Z</time>
      </trkpt>
      <trkpt lat="43.020133" lon="-4.707667">
        <ele>3505.0</ele>
        <time>2013-09-04T14:10:42Z</time>
      </trkpt>
      <trkpt lat="43.020083" lon="-4.707600">
        <ele>3503.0</ele>
        <time>2013-09-04T14:10:43Z</time>
      </trkpt>
      <trkpt lat="43.020017" lon="-4.707533">
        <ele>3502.0</ele>
        <time>2013-09-04T14:10:44Z</time>
      </trkpt>
      <trkpt lat="43.019983" lon="-4.707467">
        <ele>3500.0</ele>
        <time>2013-09-04T14:10:45Z</time>
      </trkpt>
      <trkpt lat="43.019933" lon="-4.707433">
        <ele>3498.0</ele>
        <time>2013-09-04T14:10:46Z</time>
      </trkpt>
      <trkpt lat="43.019900" lon="-4.707400">
        <ele>3496.0</ele>
        <time>2013-09-04T14:10:47Z</time>
      </trkpt>
      <trkpt lat="43.019867" lon="-4.707367">
        <ele>3493.0</ele>
        <time>2013-09-04T14:10:48Z</time>
      </trkpt>
      <trkpt lat="43.019817" lon="-4.707333">
        <ele>3489.0</ele>
        <time>2013-09-04T14:10:49Z</time>
      </trkpt>
      <trkpt lat="43.019767" lon="-4.707283">
        <ele>3485.0</ele>
        <time>2013-09-04T14:10:50Z</time>
      </trkpt>
      <trkpt lat="43.019700" lon="-4.707267">
        <ele>3481.0</ele>
        <time>2013-09-04T14:10:51Z</time>
      </trkpt>
      <trkpt lat="43.019633" lon="-4.707233">
        <ele>3479.0</ele>
        <time>2013-09-04T14:10:52Z</time>
      </trkpt>
      <trkpt lat="43.019550" lon="-4.707217">
        <ele>3478.0</ele>
        <time>2013-09-04T14:10:53Z</time>
      </trkpt>
      <trkpt lat="43.019500" lon="-4.707183">
        <ele>3479.0</ele>
        <time>2013-09-04T14:10:54Z</time>
      </trkpt>
      <trkpt lat="43.019433" lon="-4.707167">
        <ele>3481.0</ele>
        <time>2013-09-04T14:10:55Z</time>
      </trkpt>
      <trkpt lat="43.019383" lon="-4.707150">
        <ele>3482.0</ele>
        <time>2013-09-04T14:10:56Z</time>
      </trkpt>
      <trkpt lat="43.019317" lon="-4.707150">
        <ele>3483.0</ele>
        <time>2013-09-04T14:10:57Z</time>
      </trkpt>
      <trkpt lat="43.019267" lon="-4.707150">
        <ele>3484.0</ele>
        <time>2013-09-04T14:10:58Z</time>
      </trkpt>
      <trkpt lat="43.019233" lon="-4.707133">
        <ele>3486.0</ele>
        <time>2013-09-04T14:10:59Z</time>
      </trkpt>
      <trkpt lat="43.019200" lon="-4.707067">
        <ele>3488.0</ele>
        <time>2013-09-04T14:11:00Z</time>
      </trkpt>
      <trkpt lat="43.019183" lon="-4.707017">
        <ele>3490.0</ele>
        <time>2013-09-04T14:11:01Z</time>
      </trkpt>
      <trkpt lat="43.019183" lon="-4.706950">
        <ele>3493.0</ele>
        <time>2013-09-04T14:11:02Z</time>
      </trkpt>
      <trkpt lat="43.019200" lon="-4.706917">
        <ele>3496.0</ele>
        <time>2013-09-04T14:11:03Z</time>
      </trkpt>
      <trkpt lat="43.019217" lon="-4.706867">
        <ele>3499.0</ele>
        <time>2013-09-04T14:11:04Z</time>
      </trkpt>
      <trkpt lat="43.019250" lon="-4.706833">
        <ele>3500.0</ele>
        <time>2013-09-04T14:11:05Z</time>
      </trkpt>
      <trkpt lat="43.019267" lon="-4.706800">
        <ele>3500.0</ele>
        <time>2013-09-04T14:11:06Z</time>
      </trkpt>
      <trkpt lat="43.019317" lon="-4.706750">
        <ele>3500.0</ele>
        <time>2013-09-04T14:11:07Z</time>
      </trkpt>
      <trkpt lat="43.019400" lon="-4.706717">
        <ele>3501.0</ele>
        <time>2013-09-04T14:11:08Z</time>
      </trkpt>
      <trkpt lat="43.019483" lon="-4.706700">
        <ele>3502.0</ele>
        <time>2013-09-04T14:11:09Z</time>
      </trkpt>
      <trkpt lat="43.019583" lon="-4.706717">
        <ele>3504.0</ele>
        <time>2013-09-04T14:11:10Z</time>
      </trkpt>
      <trkpt lat="43.019683" lon="-4.706750">
        <ele>3507.0</ele>
        <time>2013-09-04T14:11:11Z</time>
      </trkpt>
      <trkpt lat="43.019750" lon="-4.706833">
        <ele>3508.0</ele>
        <time>2013-09-04T14:11:12Z</time>
      </trkpt>
      <trkpt lat="43.019817" lon="-4.706933">
        <ele>3509.0</ele>
        <time>2013-09-04T14:11:13Z</time>
      </trkpt>
      <trkpt lat="43.019867" lon="-4.707083">
        <ele>3510.0</ele>
        <time>2013-09-04T14:11:14Z</time>
      </trkpt>
      <trkpt lat="43.019900" lon="-4.707233">
        <ele>3511.0</ele>
        <time>2013-09-04T14:11:15Z</time>
      </trkpt>
      <trkpt lat="43.019917" lon="-4.707383">
        <ele>3511.0</ele>
        <time>2013-09-04T14:11:16Z</time>
      </trkpt>
      <trkpt lat="43.019900" lon="-4.707533">
        <ele>3512.0</ele>
        <time>2013-09-04T14:11:17Z</time>
      </trkpt>
      <trkpt lat="43.019867" lon="-4.707667">
        <ele>3512.0</ele>
        <time>2013-09-04T14:11:18Z</time>
      </trkpt>
      <trkpt lat="43.019817" lon="-4.707783">
        <ele>3512.0</ele>
        <time>2013-09-04T14:11:19Z</time>
      </trkpt>
      <trkpt lat="43.019767" lon="-4.707867">
        <ele>3512.0</ele>
        <time>2013-09-04T14:11:20Z</time>
      </trkpt>
      <trkpt lat="43.019717" lon="-4.707950">
        <ele>3512.0</ele>
        <time>2013-09-04T14:11:21Z</time>
      </trkpt>
      <trkpt lat="43.019650" lon="-4.708033">
        <ele>3512.0</ele>
        <time>2013-09-04T14:11:22Z</time>
      </trkpt>
      <trkpt lat="43.019567" lon="-4.708117">
        <ele>3512.0</ele>
        <time>2013-09-04T14:11:23Z</time>
      </trkpt>
      <trkpt lat="43.019483" lon="-4.708183">
        <ele>3513.0</ele>
        <time>2013-09-04T14:11:24Z</time>
      </trkpt>
      <trkpt lat="43.019400" lon="-4.708217">
        <ele>3515.0</ele>
        <time>2013-09-04T14:11:25Z</time>
      </trkpt>
      <trkpt lat="43.019333" lon="-4.708217">
        <ele>3516.0</ele>
        <time>2013-09-04T14:11:26Z</time>
      </trkpt>
      <trkpt lat="43.019283" lon="-4.708183">
        <ele>3519.0</ele>
        <time>2013-09-04T14:11:27Z</time>
      </trkpt>
      <trkpt lat="43.019267" lon="-4.708167">
        <ele>3521.0</ele>
        <time>2013-09-04T14:11:28Z</time>
      </trkpt>
      <trkpt lat="43.019233" lon="-4.708150">
        <ele>3522.0</ele>
        <time>2013-09-04T14:11:29Z</time>
      </trkpt>
      <trkpt lat="43.019200" lon="-4.708133">
        <ele>3523.0</ele>
        <time>2013-09-04T14:11:30Z</time>
      </trkpt>
      <trkpt lat="43.019167" lon="-4.708117">
        <ele>3523.0</ele>
        <time>2013-09-04T14:11:31Z</time>
      </trkpt>
      <trkpt lat="43.019117" lon="-4.708067">
        <ele>3524.0</ele>
        <time>2013-09-04T14:11:32Z</time>
      </trkpt>
      <trkpt lat="43.019083" lon="-4.708017">
        <ele>3525.0</ele>
        <time>2013-09-04T14:11:33Z</time>
      </trkpt>
      <trkpt lat="43.019067" lon="-4.707967">
        <ele>3526.0</ele>
        <time>2013-09-04T14:11:34Z</time>
      </trkpt>
      <trkpt lat="43.019033" lon="-4.707917">
        <ele>3527.0</ele>
        <time>2013-09-04T14:11:35Z</time>
      </trkpt>
      <trkpt lat="43.019017" lon="-4.707900">
        <ele>3529.0</ele>
        <time>2013-09-04T14:11:36Z</time>
      </trkpt>
      <trkpt lat="43.018983" lon="-4.707883">
        <ele>3530.0</ele>
        <time>2013-09-04T14:11:37Z</time>
      </trkpt>
      <trkpt lat="43.018950" lon="-4.707867">
        <ele>3530.0</ele>
        <time>2013-09-04T14:11:38Z</time>
      </trkpt>
      <trkpt lat="43.018917" lon="-4.707850">
        <ele>3530.0</ele>
        <time>2013-09-04T14:11:39Z</time>
      </trkpt>
      <trkpt lat="43.018883" lon="-4.707800">
        <ele>3529.0</ele>
        <time>2013-09-04T14:11:40Z</time>
      </trkpt>
      <trkpt lat="43.018867" lon="-4.707733">
        <ele>3529.0</ele>
        <time>2013-09-04T14:11:41Z</time>
      </trkpt>
      <trkpt lat="43.018817" lon="-4.707683">
        <ele>3528.0</ele>
        <time>2013-09-04T14:11:42Z</time>
      </trkpt>
      <trkpt lat="43.018783" lon="-4.707633">
        <ele>3527.0</ele>
        <time>2013-09-04T14:11:43Z</time>
      </trkpt>
      <trkpt lat="43.018733" lon="-4.707600">
        <ele>3526.0</ele>
        <time>2013-09-04T14:11:44Z</time>
      </trkpt>
      <trkpt lat="43.018683" lon="-4.707567">
        <ele>3526.0</ele>
        <time>2013-09-04T14:11:45Z</time>
      </trkpt>
      <trkpt lat="43.018633" lon="-4.707533">
        <ele>3525.0</ele>
        <time>2013-09-04T14:11:46Z</time>
      </trkpt>
      <trkpt lat="43.018550" lon="-4.707500">
        <ele>3524.0</ele>
        <time>2013-09-04T14:11:47Z</time>
      </trkpt>
      <trkpt lat="43.018467" lon="-4.707483">
        <ele>3522.0</ele>
        <time>2013-09-04T14:11:48Z</time>
      </trkpt>
      <trkpt lat="43.018400" lon="-4.707450">
        <ele>3523.0</ele>
        <time>2013-09-04T14:11:49Z</time>
      </trkpt>
      <trkpt lat="43.018333" lon="-4.707400">
        <ele>3524.0</ele>
        <time>2013-09-04T14:11:50Z</time>
      </trkpt>
      <trkpt lat="43.018283" lon="-4.707367">
        <ele>3527.0</ele>
        <time>2013-09-04T14:11:51Z</time>
      </trkpt>
      <trkpt lat="43.018250" lon="-4.707350">
        <ele>3528.0</ele>
        <time>2013-09-04T14:11:52Z</time>
      </trkpt>
      <trkpt lat="43.018217" lon="-4.707350">
        <ele>3529.0</ele>
        <time>2013-09-04T14:11:53Z</time>
      </trkpt>
      <trkpt lat="43.018167" lon="-4.707350">
        <ele>3527.0</ele>
        <time>2013-09-04T14:11:54Z</time>
      </trkpt>
      <trkpt lat="43.018117" lon="-4.707317">
        <ele>3526.0</ele>
        <time>2013-09-04T14:11:55Z</time>
      </trkpt>
      <trkpt lat="43.018050" lon="-4.707283">
        <ele>3526.0</ele>
        <time>2013-09-04T14:11:56Z</time>
      </trkpt>
      <trkpt lat="43.018000" lon="-4.707250">
        <ele>3526.0</ele>
        <time>2013-09-04T14:11:57Z</time>
      </trkpt>
      <trkpt lat="43.017950" lon="-4.707217">
        <ele>3526.0</ele>
        <time>2013-09-04T14:11:58Z</time>
      </trkpt>
      <trkpt lat="43.017900" lon="-4.707183">
        <ele>3527.0</ele>
        <time>2013-09-04T14:11:59Z</time>
      </trkpt>
      <trkpt lat="43.017850" lon="-4.707167">
        <ele>3527.0</ele>
        <time>2013-09-04T14:12:00Z</time>
      </trkpt>
      <trkpt lat="43.017800" lon="-4.707133">
        <ele>3527.0</ele>
        <time>2013-09-04T14:12:01Z</time>
      </trkpt>
      <trkpt lat="43.017733" lon="-4.707100">
        <ele>3529.0</ele>
        <time>2013-09-04T14:12:02Z</time>
      </trkpt>
      <trkpt lat="43.017683" lon="-4.707067">
        <ele>3531.0</ele>
        <time>2013-09-04T14:12:03Z</time>
      </trkpt>
      <trkpt lat="43.017633" lon="-4.707033">
        <ele>3532.0</ele>
        <time>2013-09-04T14:12:04Z</time>
      </trkpt>
      <trkpt lat="43.017600" lon="-4.707017">
        <ele>3533.0</ele>
        <time>2013-09-04T14:12:05Z</time>
      </trkpt>
      <trkpt lat="43.017550" lon="-4.707000">
        <ele>3533.0</ele>
        <time>2013-09-04T14:12:06Z</time>
      </trkpt>
      <trkpt lat="43.017500" lon="-4.706967">
        <ele>3533.0</ele>
        <time>2013-09-04T14:12:07Z</time>
      </trkpt>
      <trkpt lat="43.017467" lon="-4.706950">
        <ele>3533.0</ele>
        <time>2013-09-04T14:12:08Z</time>
      </trkpt>
      <trkpt lat="43.017417" lon="-4.706900">
        <ele>3532.0</ele>
        <time>2013-09-04T14:12:09Z</time>
      </trkpt>
      <trkpt lat="43.017367" lon="-4.706867">
        <ele>3531.0</ele>
        <time>2013-09-04T14:12:10Z</time>
      </trkpt>
      <trkpt lat="43.017317" lon="-4.706817">
        <ele>3531.0</ele>
        <time>2013-09-04T14:12:11Z</time>
      </trkpt>
      <trkpt lat="43.017267" lon="-4.706767">
        <ele>3531.0</ele>
        <time>2013-09-04T14:12:12Z</time>
      </trkpt>
      <trkpt lat="43.017233" lon="-4.706717">
        <ele>3530.0</ele>
        <time>2013-09-04T14:12:13Z</time>
      </trkpt>
      <trkpt lat="43.017183" lon="-4.706667">
        <ele>3529.0</ele>
        <time>2013-09-04T14:12:14Z</time>
      </trkpt>
      <trkpt lat="43.017150" lon="-4.706583">
        <ele>3528.0</ele>
        <time>2013-09-04T14:12:15Z</time>
      </trkpt>
      <trkpt lat="43.017117" lon="-4.706517">
        <ele>3526.0</ele>
        <time>2013-09-04T14:12:16Z</time>
      </trkpt>
      <trkpt lat="43.017083" lon="-4.706450">
        <ele>3524.0</ele>
        <time>2013-09-04T14:12:17Z</time>
      </trkpt>
      <trkpt lat="43.017050" lon="-4.706367">
        <ele>3522.0</ele>
        <time>2013-09-04T14:12:18Z</time>
      </trkpt>
      <trkpt lat="43.017017" lon="-4.706283">
        <ele>3520.0</ele>
        <time>2013-09-04T14:12:19Z</time>
      </trkpt>
      <trkpt lat="43.017000" lon="-4.706200">
        <ele>3518.0</ele>
        <time>2013-09-04T14:12:20Z</time>
      </trkpt>
      <trkpt lat="43.016983" lon="-4.706100">
        <ele>3516.0</ele>
        <time>2013-09-04T14:12:21Z</time>
      </trkpt>
      <trkpt lat="43.016967" lon="-4.706017">
        <ele>3515.0</ele>
        <time>2013-09-04T14:12:22Z</time>
      </trkpt>
      <trkpt lat="43.016933" lon="-4.705950">
        <ele>3514.0</ele>
        <time>2013-09-04T14:12:23Z</time>
      </trkpt>
      <trkpt lat="43.016900" lon="-4.705900">
        <ele>3514.0</ele>
        <time>2013-09-04T14:12:24Z</time>
      </trkpt>
      <trkpt lat="43.016850" lon="-4.705850">
        <ele>3512.0</ele>
        <time>2013-09-04T14:12:25Z</time>
      </trkpt>
      <trkpt lat="43.016800" lon="-4.705833">
        <ele>3511.0</ele>
        <time>2013-09-04T14:12:26Z</time>
      </trkpt>
      <trkpt lat="43.016750" lon="-4.705800">
        <ele>3509.0</ele>
        <time>2013-09-04T14:12:27Z</time>
      </trkpt>
      <trkpt lat="43.016700" lon="-4.705750">
        <ele>3507.0</ele>
        <time>2013-09-04T14:12:28Z</time>
      </trkpt>
      <trkpt lat="43.016650" lon="-4.705683">
        <ele>3506.0</ele>
        <time>2013-09-04T14:12:29Z</time>
      </trkpt>
      <trkpt lat="43.016600" lon="-4.705600">
        <ele>3505.0</ele>
        <time>2013-09-04T14:12:30Z</time>
      </trkpt>
      <trkpt lat="43.016567" lon="-4.705517">
        <ele>3504.0</ele>
        <time>2013-09-04T14:12:31Z</time>
      </trkpt>
      <trkpt lat="43.016533" lon="-4.705400">
        <ele>3505.0</ele>
        <time>2013-09-04T14:12:32Z</time>
      </trkpt>
      <trkpt lat="43.016483" lon="-4.705300">
        <ele>3506.0</ele>
        <time>2013-09-04T14:12:33Z</time>
      </trkpt>
      <trkpt lat="43.016450" lon="-4.705217">
        <ele>3507.0</ele>
        <time>2013-09-04T14:12:34Z</time>
      </trkpt>
      <trkpt lat="43.016417" lon="-4.705150">
        <ele>3508.0</ele>
        <time>2013-09-04T14:12:35Z</time>
      </trkpt>
      <trkpt lat="43.016383" lon="-4.705100">
        <ele>3511.0</ele>
        <time>2013-09-04T14:12:36Z</time>
      </trkpt>
      <trkpt lat="43.016350" lon="-4.705050">
        <ele>3513.0</ele>
        <time>2013-09-04T14:12:37Z</time>
      </trkpt>
      <trkpt lat="43.016333" lon="-4.705017">
        <ele>3514.0</ele>
        <time>2013-09-04T14:12:38Z</time>
      </trkpt>
      <trkpt lat="43.016317" lon="-4.704950">
        <ele>3516.0</ele>
        <time>2013-09-04T14:12:39Z</time>
      </trkpt>
      <trkpt lat="43.016317" lon="-4.704867">
        <ele>3517.0</ele>
        <time>2013-09-04T14:12:40Z</time>
      </trkpt>
      <trkpt lat="43.016333" lon="-4.704750">
        <ele>3519.0</ele>
        <time>2013-09-04T14:12:41Z</time>
      </trkpt>
      <trkpt lat="43.016383" lon="-4.704650">
        <ele>3522.0</ele>
        <time>2013-09-04T14:12:42Z</time>
      </trkpt>
      <trkpt lat="43.016467" lon="-4.704550">
        <ele>3525.0</ele>
        <time>2013-09-04T14:12:43Z</time>
      </trkpt>
      <trkpt lat="43.016567" lon="-4.704483">
        <ele>3527.0</ele>
        <time>2013-09-04T14:12:44Z</time>
      </trkpt>
      <trkpt lat="43.016650" lon="-4.704433">
        <ele>3529.0</ele>
        <time>2013-09-04T14:12:45Z</time>
      </trkpt>
      <trkpt lat="43.016767" lon="-4.704383">
        <ele>3531.0</ele>
        <time>2013-09-04T14:12:46Z</time>
      </trkpt>
      <trkpt lat="43.016867" lon="-4.704367">
        <ele>3532.0</ele>
        <time>2013-09-04T14:12:47Z</time>
      </trkpt>
      <trkpt lat="43.016983" lon="-4.704333">
        <ele>3532.0</ele>
        <time>2013-09-04T14:12:48Z</time>
      </trkpt>
      <trkpt lat="43.017117" lon="-4.704333">
        <ele>3532.0</ele>
        <time>2013-09-04T14:12:49Z</time>
      </trkpt>
      <trkpt lat="43.017250" lon="-4.704333">
        <ele>3533.0</ele>
        <time>2013-09-04T14:12:50Z</time>
      </trkpt>
      <trkpt lat="43.017367" lon="-4.704367">
        <ele>3533.0</ele>
        <time>2013-09-04T14:12:51Z</time>
      </trkpt>
      <trkpt lat="43.017483" lon="-4.704417">
        <ele>3535.0</ele>
        <time>2013-09-04T14:12:52Z</time>
      </trkpt>
      <trkpt lat="43.017583" lon="-4.704483">
        <ele>3536.0</ele>
        <time>2013-09-04T14:12:53Z</time>
      </trkpt>
      <trkpt lat="43.017667" lon="-4.704567">
        <ele>3536.0</ele>
        <time>2013-09-04T14:12:54Z</time>
      </trkpt>
      <trkpt lat="43.017750" lon="-4.704650">
        <ele>3537.0</ele>
        <time>2013-09-04T14:12:55Z</time>
      </trkpt>
      <trkpt lat="43.017833" lon="-4.704750">
        <ele>3537.0</ele>
        <time>2013-09-04T14:12:56Z</time>
      </trkpt>
      <trkpt lat="43.017900" lon="-4.704867">
        <ele>3537.0</ele>
        <time>2013-09-04T14:12:57Z</time>
      </trkpt>
      <trkpt lat="43.017933" lon="-4.705000">
        <ele>3537.0</ele>
        <time>2013-09-04T14:12:58Z</time>
      </trkpt>
      <trkpt lat="43.017950" lon="-4.705150">
        <ele>3536.0</ele>
        <time>2013-09-04T14:12:59Z</time>
      </trkpt>
      <trkpt lat="43.017950" lon="-4.705283">
        <ele>3537.0</ele>
        <time>2013-09-04T14:13:00Z</time>
      </trkpt>
      <trkpt lat="43.017950" lon="-4.705417">
        <ele>3538.0</ele>
        <time>2013-09-04T14:13:01Z</time>
      </trkpt>
      <trkpt lat="43.017933" lon="-4.705533">
        <ele>3538.0</ele>
        <time>2013-09-04T14:13:02Z</time>
      </trkpt>
      <trkpt lat="43.017900" lon="-4.705650">
        <ele>3539.0</ele>
        <time>2013-09-04T14:13:03Z</time>
      </trkpt>
      <trkpt lat="43.017867" lon="-4.705750">
        <ele>3539.0</ele>
        <time>2013-09-04T14:13:04Z</time>
      </trkpt>
      <trkpt lat="43.017817" lon="-4.705833">
        <ele>3538.0</ele>
        <time>2013-09-04T14:13:05Z</time>
      </trkpt>
      <trkpt lat="43.017767" lon="-4.705883">
        <ele>3538.0</ele>
        <time>2013-09-04T14:13:06Z</time>
      </trkpt>
      <trkpt lat="43.017717" lon="-4.705900">
        <ele>3537.0</ele>
        <time>2013-09-04T14:13:07Z</time>
      </trkpt>
      <trkpt lat="43.017667" lon="-4.705900">
        <ele>3536.0</ele>
        <time>2013-09-04T14:13:08Z</time>
      </trkpt>
      <trkpt lat="43.017633" lon="-4.705900">
        <ele>3536.0</ele>
        <time>2013-09-04T14:13:09Z</time>
      </trkpt>
      <trkpt lat="43.017583" lon="-4.705883">
        <ele>3535.0</ele>
        <time>2013-09-04T14:13:10Z</time>
      </trkpt>
      <trkpt lat="43.017550" lon="-4.705867">
        <ele>3535.0</ele>
        <time>2013-09-04T14:13:11Z</time>
      </trkpt>
      <trkpt lat="43.017500" lon="-4.705850">
        <ele>3536.0</ele>
        <time>2013-09-04T14:13:12Z</time>
      </trkpt>
      <trkpt lat="43.017467" lon="-4.705833">
        <ele>3537.0</ele>
        <time>2013-09-04T14:13:13Z</time>
      </trkpt>
      <trkpt lat="43.017433" lon="-4.705833">
        <ele>3537.0</ele>
        <time>2013-09-04T14:13:14Z</time>
      </trkpt>
      <trkpt lat="43.017417" lon="-4.705833">
        <ele>3538.0</ele>
        <time>2013-09-04T14:13:15Z</time>
      </trkpt>
      <trkpt lat="43.017400" lon="-4.705817">
        <ele>3538.0</ele>
        <time>2013-09-04T14:13:16Z</time>
      </trkpt>
      <trkpt lat="43.017367" lon="-4.705783">
        <ele>3538.0</ele>
        <time>2013-09-04T14:13:17Z</time>
      </trkpt>
      <trkpt lat="43.017350" lon="-4.705750">
        <ele>3538.0</ele>
        <time>2013-09-04T14:13:18Z</time>
      </trkpt>
      <trkpt lat="43.017300" lon="-4.705700">
        <ele>3539.0</ele>
        <time>2013-09-04T14:13:19Z</time>
      </trkpt>
      <trkpt lat="43.017267" lon="-4.705650">
        <ele>3541.0</ele>
        <time>2013-09-04T14:13:20Z</time>
      </trkpt>
      <trkpt lat="43.017250" lon="-4.705617">
        <ele>3543.0</ele>
        <time>2013-09-04T14:13:21Z</time>
      </trkpt>
      <trkpt lat="43.017233" lon="-4.705567">
        <ele>3545.0</ele>
        <time>2013-09-04T14:13:22Z</time>
      </trkpt>
      <trkpt lat="43.017217" lon="-4.705517">
        <ele>3547.0</ele>
        <time>2013-09-04T14:13:23Z</time>
      </trkpt>
      <trkpt lat="43.017217" lon="-4.705467">
        <ele>3548.0</ele>
        <time>2013-09-04T14:13:24Z</time>
      </trkpt>
      <trkpt lat="43.017200" lon="-4.705417">
        <ele>3547.0</ele>
        <time>2013-09-04T14:13:25Z</time>
      </trkpt>
      <trkpt lat="43.017200" lon="-4.705367">
        <ele>3548.0</ele>
        <time>2013-09-04T14:13:26Z</time>
      </trkpt>
      <trkpt lat="43.017200" lon="-4.705317">
        <ele>3548.0</ele>
        <time>2013-09-04T14:13:27Z</time>
      </trkpt>
      <trkpt lat="43.017233" lon="-4.705250">
        <ele>3548.0</ele>
        <time>2013-09-04T14:13:28Z</time>
      </trkpt>
      <trkpt lat="43.017250" lon="-4.705167">
        <ele>3548.0</ele>
        <time>2013-09-04T14:13:29Z</time>
      </trkpt>
      <trkpt lat="43.017267" lon="-4.705100">
        <ele>3547.0</ele>
        <time>2013-09-04T14:13:30Z</time>
      </trkpt>
      <trkpt lat="43.017283" lon="-4.705017">
        <ele>3547.0</ele>
        <time>2013-09-04T14:13:31Z</time>
      </trkpt>
      <trkpt lat="43.017300" lon="-4.704917">
        <ele>3546.0</ele>
        <time>2013-09-04T14:13:32Z</time>
      </trkpt>
      <trkpt lat="43.017333" lon="-4.704833">
        <ele>3546.0</ele>
        <time>2013-09-04T14:13:33Z</time>
      </trkpt>
      <trkpt lat="43.017367" lon="-4.704733">
        <ele>3546.0</ele>
        <time>2013-09-04T14:13:34Z</time>
      </trkpt>
      <trkpt lat="43.017383" lon="-4.704617">
        <ele>3546.0</ele>
        <time>2013-09-04T14:13:35Z</time>
      </trkpt>
      <trkpt lat="43.017417" lon="-4.704500">
        <ele>3545.0</ele>
        <time>2013-09-04T14:13:36Z</time>
      </trkpt>
      <trkpt lat="43.017433" lon="-4.704383">
        <ele>3543.0</ele>
        <time>2013-09-04T14:13:37Z</time>
      </trkpt>
      <trkpt lat="43.017467" lon="-4.704267">
        <ele>3542.0</ele>
        <time>2013-09-04T14:13:38Z</time>
      </trkpt>
      <trkpt lat="43.017483" lon="-4.704150">
        <ele>3541.0</ele>
        <time>2013-09-04T14:13:39Z</time>
      </trkpt>
      <trkpt lat="43.017517" lon="-4.704033">
        <ele>3540.0</ele>
        <time>2013-09-04T14:13:40Z</time>
      </trkpt>
      <trkpt lat="43.017550" lon="-4.703917">
        <ele>3539.0</ele>
        <time>2013-09-04T14:13:41Z</time>
      </trkpt>
      <trkpt lat="43.017583" lon="-4.703783">
        <ele>3539.0</ele>
        <time>2013-09-04T14:13:42Z</time>
      </trkpt>
      <trkpt lat="43.017600" lon="-4.703667">
        <ele>3539.0</ele>
        <time>2013-09-04T14:13:43Z</time>
      </trkpt>
      <trkpt lat="43.017617" lon="-4.703550">
        <ele>3539.0</ele>
        <time>2013-09-04T14:13:44Z</time>
      </trkpt>
      <trkpt lat="43.017617" lon="-4.703433">
        <ele>3541.0</ele>
        <time>2013-09-04T14:13:45Z</time>
      </trkpt>
      <trkpt lat="43.017617" lon="-4.703317">
        <ele>3543.0</ele>
        <time>2013-09-04T14:13:46Z</time>
      </trkpt>
      <trkpt lat="43.017617" lon="-4.703217">
        <ele>3546.0</ele>
        <time>2013-09-04T14:13:47Z</time>
      </trkpt>
      <trkpt lat="43.017633" lon="-4.703133">
        <ele>3549.0</ele>
        <time>2013-09-04T14:13:48Z</time>
      </trkpt>
      <trkpt lat="43.017667" lon="-4.703067">
        <ele>3552.0</ele>
        <time>2013-09-04T14:13:49Z</time>
      </trkpt>
      <trkpt lat="43.017683" lon="-4.703000">
        <ele>3554.0</ele>
        <time>2013-09-04T14:13:50Z</time>
      </trkpt>
      <trkpt lat="43.017717" lon="-4.702933">
        <ele>3555.0</ele>
        <time>2013-09-04T14:13:51Z</time>
      </trkpt>
      <trkpt lat="43.017750" lon="-4.702867">
        <ele>3554.0</ele>
        <time>2013-09-04T14:13:52Z</time>
      </trkpt>
      <trkpt lat="43.017800" lon="-4.702783">
        <ele>3554.0</ele>
        <time>2013-09-04T14:13:53Z</time>
      </trkpt>
      <trkpt lat="43.017867" lon="-4.702700">
        <ele>3554.0</ele>
        <time>2013-09-04T14:13:54Z</time>
      </trkpt>
      <trkpt lat="43.017950" lon="-4.702633">
        <ele>3555.0</ele>
        <time>2013-09-04T14:13:55Z</time>
      </trkpt>
      <trkpt lat="43.018050" lon="-4.702600">
        <ele>3556.0</ele>
        <time>2013-09-04T14:13:56Z</time>
      </trkpt>
      <trkpt lat="43.018150" lon="-4.702617">
        <ele>3557.0</ele>
        <time>2013-09-04T14:13:57Z</time>
      </trkpt>
      <trkpt lat="43.018250" lon="-4.702667">
        <ele>3557.0</ele>
        <time>2013-09-04T14:13:58Z</time>
      </trkpt>
      <trkpt lat="43.018333" lon="-4.702750">
        <ele>3557.0</ele>
        <time>2013-09-04T14:13:59Z</time>
      </trkpt>
      <trkpt lat="43.018417" lon="-4.702850">
        <ele>3557.0</ele>
        <time>2013-09-04T14:14:00Z</time>
      </trkpt>
      <trkpt lat="43.018483" lon="-4.702983">
        <ele>3557.0</ele>
        <time>2013-09-04T14:14:01Z</time>
      </trkpt>
      <trkpt lat="43.018550" lon="-4.703117">
        <ele>3558.0</ele>
        <time>2013-09-04T14:14:02Z</time>
      </trkpt>
      <trkpt lat="43.018600" lon="-4.703250">
        <ele>3560.0</ele>
        <time>2013-09-04T14:14:03Z</time>
      </trkpt>
      <trkpt lat="43.018633" lon="-4.703383">
        <ele>3561.0</ele>
        <time>2013-09-04T14:14:04Z</time>
      </trkpt>
      <trkpt lat="43.018650" lon="-4.703517">
        <ele>3563.0</ele>
        <time>2013-09-04T14:14:05Z</time>
      </trkpt>
      <trkpt lat="43.018650" lon="-4.703617">
        <ele>3565.0</ele>
        <time>2013-09-04T14:14:06Z</time>
      </trkpt>
      <trkpt lat="43.018633" lon="-4.703733">
        <ele>3565.0</ele>
        <time>2013-09-04T14:14:07Z</time>
      </trkpt>
      <trkpt lat="43.018617" lon="-4.703833">
        <ele>3565.0</ele>
        <time>2013-09-04T14:14:08Z</time>
      </trkpt>
      <trkpt lat="43.018600" lon="-4.703933">
        <ele>3564.0</ele>
        <time>2013-09-04T14:14:09Z</time>
      </trkpt>
      <trkpt lat="43.018567" lon="-4.704033">
        <ele>3563.0</ele>
        <time>2013-09-04T14:14:10Z</time>
      </trkpt>
      <trkpt lat="43.018500" lon="-4.704117">
        <ele>3564.0</ele>
        <time>2013-09-04T14:14:11Z</time>
      </trkpt>
      <trkpt lat="43.018450" lon="-4.704183">
        <ele>3564.0</ele>
        <time>2013-09-04T14:14:12Z</time>
      </trkpt>
      <trkpt lat="43.018400" lon="-4.704233">
        <ele>3566.0</ele>
        <time>2013-09-04T14:14:13Z</time>
      </trkpt>
      <trkpt lat="43.018367" lon="-4.704250">
        <ele>3566.0</ele>
        <time>2013-09-04T14:14:14Z</time>
      </trkpt>
      <trkpt lat="43.018317" lon="-4.704283">
        <ele>3566.0</ele>
        <time>2013-09-04T14:14:15Z</time>
      </trkpt>
      <trkpt lat="43.018250" lon="-4.704317">
        <ele>3565.0</ele>
        <time>2013-09-04T14:14:16Z</time>
      </trkpt>
      <trkpt lat="43.018183" lon="-4.704333">
        <ele>3565.0</ele>
        <time>2013-09-04T14:14:17Z</time>
      </trkpt>
      <trkpt lat="43.018117" lon="-4.704333">
        <ele>3565.0</ele>
        <time>2013-09-04T14:14:18Z</time>
      </trkpt>
      <trkpt lat="43.018050" lon="-4.704317">
        <ele>3565.0</ele>
        <time>2013-09-04T14:14:19Z</time>
      </trkpt>
      <trkpt lat="43.018000" lon="-4.704283">
        <ele>3566.0</ele>
        <time>2013-09-04T14:14:20Z</time>
      </trkpt>
      <trkpt lat="43.017950" lon="-4.704267">
        <ele>3566.0</ele>
        <time>2013-09-04T14:14:21Z</time>
      </trkpt>
      <trkpt lat="43.017883" lon="-4.704250">
        <ele>3566.0</ele>
        <time>2013-09-04T14:14:22Z</time>
      </trkpt>
      <trkpt lat="43.017817" lon="-4.704217">
        <ele>3566.0</ele>
        <time>2013-09-04T14:14:23Z</time>
      </trkpt>
      <trkpt lat="43.017750" lon="-4.704200">
        <ele>3565.0</ele>
        <time>2013-09-04T14:14:24Z</time>
      </trkpt>
      <trkpt lat="43.017683" lon="-4.704167">
        <ele>3564.0</ele>
        <time>2013-09-04T14:14:25Z</time>
      </trkpt>
      <trkpt lat="43.017633" lon="-4.704150">
        <ele>3563.0</ele>
        <time>2013-09-04T14:14:26Z</time>
      </trkpt>
      <trkpt lat="43.017583" lon="-4.704133">
        <ele>3562.0</ele>
        <time>2013-09-04T14:14:27Z</time>
      </trkpt>
      <trkpt lat="43.017517" lon="-4.704067">
        <ele>3561.0</ele>
        <time>2013-09-04T14:14:28Z</time>
      </trkpt>
      <trkpt lat="43.017467" lon="-4.704017">
        <ele>3558.0</ele>
        <time>2013-09-04T14:14:29Z</time>
      </trkpt>
      <trkpt lat="43.017417" lon="-4.703933">
        <ele>3556.0</ele>
        <time>2013-09-04T14:14:30Z</time>
      </trkpt>
      <trkpt lat="43.017367" lon="-4.703867">
        <ele>3554.0</ele>
        <time>2013-09-04T14:14:31Z</time>
      </trkpt>
      <trkpt lat="43.017317" lon="-4.703817">
        <ele>3554.0</ele>
        <time>2013-09-04T14:14:32Z</time>
      </trkpt>
      <trkpt lat="43.017283" lon="-4.703783">
        <ele>3553.0</ele>
        <time>2013-09-04T14:14:33Z</time>
      </trkpt>
      <trkpt lat="43.017233" lon="-4.703750">
        <ele>3552.0</ele>
        <time>2013-09-04T14:14:34Z</time>
      </trkpt>
      <trkpt lat="43.017183" lon="-4.703717">
        <ele>3550.0</ele>
        <time>2013-09-04T14:14:35Z</time>
      </trkpt>
      <trkpt lat="43.017117" lon="-4.703667">
        <ele>3548.0</ele>
        <time>2013-09-04T14:14:36Z</time>
      </trkpt>
      <trkpt lat="43.017067" lon="-4.703617">
        <ele>3546.0</ele>
        <time>2013-09-04T14:14:37Z</time>
      </trkpt>
      <trkpt lat="43.017017" lon="-4.703550">
        <ele>3546.0</ele>
        <time>2013-09-04T14:14:38Z</time>
      </trkpt>
      <trkpt lat="43.016967" lon="-4.703483">
        <ele>3546.0</ele>
        <time>2013-09-04T14:14:39Z</time>
      </trkpt>
      <trkpt lat="43.016933" lon="-4.703417">
        <ele>3544.0</ele>
        <time>2013-09-04T14:14:40Z</time>
      </trkpt>
      <trkpt lat="43.016883" lon="-4.703350">
        <ele>3543.0</ele>
        <time>2013-09-04T14:14:41Z</time>
      </trkpt>
      <trkpt lat="43.016850" lon="-4.703267">
        <ele>3542.0</ele>
        <time>2013-09-04T14:14:42Z</time>
      </trkpt>
      <trkpt lat="43.016800" lon="-4.703200">
        <ele>3542.0</ele>
        <time>2013-09-04T14:14:43Z</time>
      </trkpt>
      <trkpt lat="43.016733" lon="-4.703150">
        <ele>3541.0</ele>
        <time>2013-09-04T14:14:44Z</time>
      </trkpt>
      <trkpt lat="43.016683" lon="-4.703100">
        <ele>3542.0</ele>
        <time>2013-09-04T14:14:45Z</time>
      </trkpt>
      <trkpt lat="43.016633" lon="-4.703083">
        <ele>3541.0</ele>
        <time>2013-09-04T14:14:46Z</time>
      </trkpt>
      <trkpt lat="43.016567" lon="-4.703067">
        <ele>3541.0</ele>
        <time>2013-09-04T14:14:47Z</time>
      </trkpt>
      <trkpt lat="43.016517" lon="-4.703050">
        <ele>3541.0</ele>
        <time>2013-09-04T14:14:48Z</time>
      </trkpt>
      <trkpt lat="43.016450" lon="-4.703017">
        <ele>3541.0</ele>
        <time>2013-09-04T14:14:49Z</time>
      </trkpt>
      <trkpt lat="43.016400" lon="-4.703000">
        <ele>3541.0</ele>
        <time>2013-09-04T14:14:50Z</time>
      </trkpt>
      <trkpt lat="43.016350" lon="-4.702983">
        <ele>3541.0</ele>
        <time>2013-09-04T14:14:51Z</time>
      </trkpt>
      <trkpt lat="43.016283" lon="-4.702983">
        <ele>3541.0</ele>
        <time>2013-09-04T14:14:52Z</time>
      </trkpt>
      <trkpt lat="43.016233" lon="-4.702967">
        <ele>3541.0</ele>
        <time>2013-09-04T14:14:53Z</time>
      </trkpt>
      <trkpt lat="43.016183" lon="-4.702967">
        <ele>3541.0</ele>
        <time>2013-09-04T14:14:54Z</time>
      </trkpt>
      <trkpt lat="43.016117" lon="-4.702967">
        <ele>3541.0</ele>
        <time>2013-09-04T14:14:55Z</time>
      </trkpt>
      <trkpt lat="43.016067" lon="-4.702950">
        <ele>3541.0</ele>
        <time>2013-09-04T14:14:56Z</time>
      </trkpt>
      <trkpt lat="43.016000" lon="-4.702933">
        <ele>3541.0</ele>
        <time>2013-09-04T14:14:57Z</time>
      </trkpt>
      <trkpt lat="43.015950" lon="-4.702917">
        <ele>3541.0</ele>
        <time>2013-09-04T14:14:58Z</time>
      </trkpt>
      <trkpt lat="43.015900" lon="-4.702917">
        <ele>3541.0</ele>
        <time>2013-09-04T14:14:59Z</time>
      </trkpt>
      <trkpt lat="43.015833" lon="-4.702900">
        <ele>3541.0</ele>
        <time>2013-09-04T14:15:00Z</time>
      </trkpt>
      <trkpt lat="43.015783" lon="-4.702883">
        <ele>3540.0</ele>
        <time>2013-09-04T14:15:01Z</time>
      </trkpt>
      <trkpt lat="43.015733" lon="-4.702850">
        <ele>3540.0</ele>
        <time>2013-09-04T14:15:02Z</time>
      </trkpt>
      <trkpt lat="43.015683" lon="-4.702817">
        <ele>3539.0</ele>
        <time>2013-09-04T14:15:03Z</time>
      </trkpt>
      <trkpt lat="43.015633" lon="-4.702767">
        <ele>3539.0</ele>
        <time>2013-09-04T14:15:04Z</time>
      </trkpt>
      <trkpt lat="43.015583" lon="-4.702733">
        <ele>3539.0</ele>
        <time>2013-09-04T14:15:05Z</time>
      </trkpt>
      <trkpt lat="43.015517" lon="-4.702683">
        <ele>3538.0</ele>
        <time>2013-09-04T14:15:06Z</time>
      </trkpt>
      <trkpt lat="43.015450" lon="-4.702650">
        <ele>3537.0</ele>
        <time>2013-09-04T14:15:07Z</time>
      </trkpt>
      <trkpt lat="43.015383" lon="-4.702583">
        <ele>3538.0</ele>
        <time>2013-09-04T14:15:08Z</time>
      </trkpt>
      <trkpt lat="43.015317" lon="-4.702533">
        <ele>3538.0</ele>
        <time>2013-09-04T14:15:09Z</time>
      </trkpt>
      <trkpt lat="43.015267" lon="-4.702483">
        <ele>3539.0</ele>
        <time>2013-09-04T14:15:10Z</time>
      </trkpt>
      <trkpt lat="43.015217" lon="-4.702433">
        <ele>3540.0</ele>
        <time>2013-09-04T14:15:11Z</time>
      </trkpt>
      <trkpt lat="43.015150" lon="-4.702383">
        <ele>3541.0</ele>
        <time>2013-09-04T14:15:12Z</time>
      </trkpt>
      <trkpt lat="43.015100" lon="-4.702367">
        <ele>3542.0</ele>
        <time>2013-09-04T14:15:13Z</time>
      </trkpt>
      <trkpt lat="43.015050" lon="-4.702350">
        <ele>3544.0</ele>
        <time>2013-09-04T14:15:14Z</time>
      </trkpt>
      <trkpt lat="43.015000" lon="-4.702333">
        <ele>3545.0</ele>
        <time>2013-09-04T14:15:15Z</time>
      </trkpt>
      <trkpt lat="43.014950" lon="-4.702300">
        <ele>3545.0</ele>
        <time>2013-09-04T14:15:16Z</time>
      </trkpt>
      <trkpt lat="43.014900" lon="-4.702267">
        <ele>3546.0</ele>
        <time>2013-09-04T14:15:17Z</time>
      </trkpt>
      <trkpt lat="43.014850" lon="-4.702233">
        <ele>3547.0</ele>
        <time>2013-09-04T14:15:18Z</time>
      </trkpt>
      <trkpt lat="43.014800" lon="-4.702217">
        <ele>3548.0</ele>
        <time>2013-09-04T14:15:19Z</time>
      </trkpt>
      <trkpt lat="43.014767" lon="-4.702183">
        <ele>3549.0</ele>
        <time>2013-09-04T14:15:20Z</time>
      </trkpt>
      <trkpt lat="43.014733" lon="-4.702167">
        <ele>3549.0</ele>
        <time>2013-09-04T14:15:21Z</time>
      </trkpt>
      <trkpt lat="43.014700" lon="-4.702133">
        <ele>3550.0</ele>
        <time>2013-09-04T14:15:22Z</time>
      </trkpt>
      <trkpt lat="43.014667" lon="-4.702117">
        <ele>3550.0</ele>
        <time>2013-09-04T14:15:23Z</time>
      </trkpt>
      <trkpt lat="43.014633" lon="-4.702083">
        <ele>3550.0</ele>
        <time>2013-09-04T14:15:24Z</time>
      </trkpt>
      <trkpt lat="43.014583" lon="-4.702050">
        <ele>3550.0</ele>
        <time>2013-09-04T14:15:25Z</time>
      </trkpt>
      <trkpt lat="43.014550" lon="-4.702017">
        <ele>3549.0</ele>
        <time>2013-09-04T14:15:26Z</time>
      </trkpt>
      <trkpt lat="43.014517" lon="-4.701983">
        <ele>3548.0</ele>
        <time>2013-09-04T14:15:27Z</time>
      </trkpt>
      <trkpt lat="43.014467" lon="-4.701950">
        <ele>3548.0</ele>
        <time>2013-09-04T14:15:28Z</time>
      </trkpt>
      <trkpt lat="43.014417" lon="-4.701917">
        <ele>3547.0</ele>
        <time>2013-09-04T14:15:29Z</time>
      </trkpt>
      <trkpt lat="43.014367" lon="-4.701900">
        <ele>3548.0</ele>
        <time>2013-09-04T14:15:30Z</time>
      </trkpt>
      <trkpt lat="43.014333" lon="-4.701867">
        <ele>3549.0</ele>
        <time>2013-09-04T14:15:31Z</time>
      </trkpt>
      <trkpt lat="43.014300" lon="-4.701850">
        <ele>3549.0</ele>
        <time>2013-09-04T14:15:32Z</time>
      </trkpt>
      <trkpt lat="43.014250" lon="-4.701833">
        <ele>3550.0</ele>
        <time>2013-09-04T14:15:33Z</time>
      </trkpt>
      <trkpt lat="43.014217" lon="-4.701817">
        <ele>3550.0</ele>
        <time>2013-09-04T14:15:34Z</time>
      </trkpt>
      <trkpt lat="43.014167" lon="-4.701800">
        <ele>3550.0</ele>
        <time>2013-09-04T14:15:35Z</time>
      </trkpt>
      <trkpt lat="43.014133" lon="-4.701783">
        <ele>3550.0</ele>
        <time>2013-09-04T14:15:36Z</time>
      </trkpt>
      <trkpt lat="43.014083" lon="-4.701767">
        <ele>3550.0</ele>
        <time>2013-09-04T14:15:37Z</time>
      </trkpt>
      <trkpt lat="43.014033" lon="-4.701767">
        <ele>3550.0</ele>
        <time>2013-09-04T14:15:38Z</time>
      </trkpt>
      <trkpt lat="43.013983" lon="-4.701767">
        <ele>3550.0</ele>
        <time>2013-09-04T14:15:39Z</time>
      </trkpt>
      <trkpt lat="43.013933" lon="-4.701783">
        <ele>3549.0</ele>
        <time>2013-09-04T14:15:40Z</time>
      </trkpt>
      <trkpt lat="43.013883" lon="-4.701767">
        <ele>3549.0</ele>
        <time>2013-09-04T14:15:41Z</time>
      </trkpt>
      <trkpt lat="43.013833" lon="-4.701733">
        <ele>3548.0</ele>
        <time>2013-09-04T14:15:42Z</time>
      </trkpt>
      <trkpt lat="43.013800" lon="-4.701683">
        <ele>3548.0</ele>
        <time>2013-09-04T14:15:43Z</time>
      </trkpt>
      <trkpt lat="43.013767" lon="-4.701617">
        <ele>3548.0</ele>
        <time>2013-09-04T14:15:44Z</time>
      </trkpt>
      <trkpt lat="43.013733" lon="-4.701567">
        <ele>3548.0</ele>
        <time>2013-09-04T14:15:45Z</time>
      </trkpt>
      <trkpt lat="43.013717" lon="-4.701517">
        <ele>3548.0</ele>
        <time>2013-09-04T14:15:46Z</time>
      </trkpt>
      <trkpt lat="43.013700" lon="-4.701450">
        <ele>3547.0</ele>
        <time>2013-09-04T14:15:47Z</time>
      </trkpt>
      <trkpt lat="43.013700" lon="-4.701367">
        <ele>3547.0</ele>
        <time>2013-09-04T14:15:48Z</time>
      </trkpt>
      <trkpt lat="43.013717" lon="-4.701267">
        <ele>3546.0</ele>
        <time>2013-09-04T14:15:49Z</time>
      </trkpt>
      <trkpt lat="43.013733" lon="-4.701167">
        <ele>3545.0</ele>
        <time>2013-09-04T14:15:50Z</time>
      </trkpt>
      <trkpt lat="43.013750" lon="-4.701067">
        <ele>3544.0</ele>
        <time>2013-09-04T14:15:51Z</time>
      </trkpt>
      <trkpt lat="43.013767" lon="-4.700967">
        <ele>3545.0</ele>
        <time>2013-09-04T14:15:52Z</time>
      </trkpt>
      <trkpt lat="43.013767" lon="-4.700883">
        <ele>3544.0</ele>
        <time>2013-09-04T14:15:53Z</time>
      </trkpt>
      <trkpt lat="43.013783" lon="-4.700783">
        <ele>3544.0</ele>
        <time>2013-09-04T14:15:54Z</time>
      </trkpt>
      <trkpt lat="43.013783" lon="-4.700700">
        <ele>3543.0</ele>
        <time>2013-09-04T14:15:55Z</time>
      </trkpt>
      <trkpt lat="43.013783" lon="-4.700600">
        <ele>3543.0</ele>
        <time>2013-09-04T14:15:56Z</time>
      </trkpt>
      <trkpt lat="43.013783" lon="-4.700517">
        <ele>3542.0</ele>
        <time>2013-09-04T14:15:57Z</time>
      </trkpt>
      <trkpt lat="43.013783" lon="-4.700433">
        <ele>3541.0</ele>
        <time>2013-09-04T14:15:58Z</time>
      </trkpt>
      <trkpt lat="43.013783" lon="-4.700350">
        <ele>3541.0</ele>
        <time>2013-09-04T14:15:59Z</time>
      </trkpt>
      <trkpt lat="43.013783" lon="-4.700250">
        <ele>3540.0</ele>
        <time>2013-09-04T14:16:00Z</time>
      </trkpt>
      <trkpt lat="43.013800" lon="-4.700150">
        <ele>3540.0</ele>
        <time>2013-09-04T14:16:01Z</time>
      </trkpt>
      <trkpt lat="43.013817" lon="-4.700050">
        <ele>3539.0</ele>
        <time>2013-09-04T14:16:02Z</time>
      </trkpt>
      <trkpt lat="43.013850" lon="-4.699950">
        <ele>3539.0</ele>
        <time>2013-09-04T14:16:03Z</time>
      </trkpt>
      <trkpt lat="43.013883" lon="-4.699850">
        <ele>3538.0</ele>
        <time>2013-09-04T14:16:04Z</time>
      </trkpt>
      <trkpt lat="43.013933" lon="-4.699750">
        <ele>3538.0</ele>
        <time>2013-09-04T14:16:05Z</time>
      </trkpt>
      <trkpt lat="43.013967" lon="-4.699650">
        <ele>3539.0</ele>
        <time>2013-09-04T14:16:06Z</time>
      </trkpt>
      <trkpt lat="43.014000" lon="-4.699550">
        <ele>3540.0</ele>
        <time>2013-09-04T14:16:07Z</time>
      </trkpt>
      <trkpt lat="43.014033" lon="-4.699467">
        <ele>3540.0</ele>
        <time>2013-09-04T14:16:08Z</time>
      </trkpt>
      <trkpt lat="43.014083" lon="-4.699383">
        <ele>3541.0</ele>
        <time>2013-09-04T14:16:09Z</time>
      </trkpt>
      <trkpt lat="43.014117" lon="-4.699283">
        <ele>3542.0</ele>
        <time>2013-09-04T14:16:10Z</time>
      </trkpt>
      <trkpt lat="43.014150" lon="-4.699200">
        <ele>3543.0</ele>
        <time>2013-09-04T14:16:11Z</time>
      </trkpt>
      <trkpt lat="43.014167" lon="-4.699133">
        <ele>3544.0</ele>
        <time>2013-09-04T14:16:12Z</time>
      </trkpt>
      <trkpt lat="43.014200" lon="-4.699067">
        <ele>3545.0</ele>
        <time>2013-09-04T14:16:13Z</time>
      </trkpt>
      <trkpt lat="43.014217" lon="-4.699017">
        <ele>3545.0</ele>
        <time>2013-09-04T14:16:14Z</time>
      </trkpt>
      <trkpt lat="43.014250" lon="-4.698950">
        <ele>3544.0</ele>
        <time>2013-09-04T14:16:15Z</time>
      </trkpt>
      <trkpt lat="43.014283" lon="-4.698867">
        <ele>3543.0</ele>
        <time>2013-09-04T14:16:16Z</time>
      </trkpt>
      <trkpt lat="43.014317" lon="-4.698767">
        <ele>3543.0</ele>
        <time>2013-09-04T14:16:17Z</time>
      </trkpt>
      <trkpt lat="43.014350" lon="-4.698667">
        <ele>3543.0</ele>
        <time>2013-09-04T14:16:18Z</time>
      </trkpt>
      <trkpt lat="43.014400" lon="-4.698550">
        <ele>3543.0</ele>
        <time>2013-09-04T14:16:19Z</time>
      </trkpt>
      <trkpt lat="43.014450" lon="-4.698450">
        <ele>3543.0</ele>
        <time>2013-09-04T14:16:20Z</time>
      </trkpt>
      <trkpt lat="43.014483" lon="-4.698350">
        <ele>3542.0</ele>
        <time>2013-09-04T14:16:21Z</time>
      </trkpt>
      <trkpt lat="43.014533" lon="-4.698233">
        <ele>3542.0</ele>
        <time>2013-09-04T14:16:22Z</time>
      </trkpt>
      <trkpt lat="43.014567" lon="-4.698117">
        <ele>3541.0</ele>
        <time>2013-09-04T14:16:23Z</time>
      </trkpt>
      <trkpt lat="43.014617" lon="-4.697983">
        <ele>3541.0</ele>
        <time>2013-09-04T14:16:24Z</time>
      </trkpt>
      <trkpt lat="43.014650" lon="-4.697867">
        <ele>3540.0</ele>
        <time>2013-09-04T14:16:25Z</time>
      </trkpt>
      <trkpt lat="43.014700" lon="-4.697733">
        <ele>3540.0</ele>
        <time>2013-09-04T14:16:26Z</time>
      </trkpt>
      <trkpt lat="43.014733" lon="-4.697617">
        <ele>3540.0</ele>
        <time>2013-09-04T14:16:27Z</time>
      </trkpt>
      <trkpt lat="43.014767" lon="-4.697483">
        <ele>3539.0</ele>
        <time>2013-09-04T14:16:28Z</time>
      </trkpt>
      <trkpt lat="43.014800" lon="-4.697350">
        <ele>3539.0</ele>
        <time>2013-09-04T14:16:29Z</time>
      </trkpt>
      <trkpt lat="43.014833" lon="-4.697233">
        <ele>3540.0</ele>
        <time>2013-09-04T14:16:30Z</time>
      </trkpt>
      <trkpt lat="43.014850" lon="-4.697100">
        <ele>3541.0</ele>
        <time>2013-09-04T14:16:31Z</time>
      </trkpt>
      <trkpt lat="43.014883" lon="-4.696983">
        <ele>3541.0</ele>
        <time>2013-09-04T14:16:32Z</time>
      </trkpt>
      <trkpt lat="43.014917" lon="-4.696867">
        <ele>3542.0</ele>
        <time>2013-09-04T14:16:33Z</time>
      </trkpt>
      <trkpt lat="43.014950" lon="-4.696750">
        <ele>3542.0</ele>
        <time>2013-09-04T14:16:34Z</time>
      </trkpt>
      <trkpt lat="43.014983" lon="-4.696633">
        <ele>3543.0</ele>
        <time>2013-09-04T14:16:35Z</time>
      </trkpt>
      <trkpt lat="43.015017" lon="-4.696517">
        <ele>3544.0</ele>
        <time>2013-09-04T14:16:36Z</time>
      </trkpt>
      <trkpt lat="43.015050" lon="-4.696400">
        <ele>3545.0</ele>
        <time>2013-09-04T14:16:37Z</time>
      </trkpt>
      <trkpt lat="43.015067" lon="-4.696283">
        <ele>3546.0</ele>
        <time>2013-09-04T14:16:38Z</time>
      </trkpt>
      <trkpt lat="43.015100" lon="-4.696183">
        <ele>3548.0</ele>
        <time>2013-09-04T14:16:39Z</time>
      </trkpt>
      <trkpt lat="43.015133" lon="-4.696067">
        <ele>3549.0</ele>
        <time>2013-09-04T14:16:40Z</time>
      </trkpt>
      <trkpt lat="43.015183" lon="-4.695967">
        <ele>3552.0</ele>
        <time>2013-09-04T14:16:41Z</time>
      </trkpt>
      <trkpt lat="43.015217" lon="-4.695883">
        <ele>3553.0</ele>
        <time>2013-09-04T14:16:42Z</time>
      </trkpt>
      <trkpt lat="43.015250" lon="-4.695800">
        <ele>3555.0</ele>
        <time>2013-09-04T14:16:43Z</time>
      </trkpt>
      <trkpt lat="43.015267" lon="-4.695700">
        <ele>3556.0</ele>
        <time>2013-09-04T14:16:44Z</time>
      </trkpt>
      <trkpt lat="43.015283" lon="-4.695600">
        <ele>3557.0</ele>
        <time>2013-09-04T14:16:45Z</time>
      </trkpt>
      <trkpt lat="43.015283" lon="-4.695483">
        <ele>3558.0</ele>
        <time>2013-09-04T14:16:46Z</time>
      </trkpt>
      <trkpt lat="43.015283" lon="-4.695400">
        <ele>3559.0</ele>
        <time>2013-09-04T14:16:47Z</time>
      </trkpt>
      <trkpt lat="43.015267" lon="-4.695317">
        <ele>3560.0</ele>
        <time>2013-09-04T14:16:48Z</time>
      </trkpt>
      <trkpt lat="43.015250" lon="-4.695250">
        <ele>3560.0</ele>
        <time>2013-09-04T14:16:49Z</time>
      </trkpt>
      <trkpt lat="43.015217" lon="-4.695183">
        <ele>3561.0</ele>
        <time>2013-09-04T14:16:50Z</time>
      </trkpt>
      <trkpt lat="43.015183" lon="-4.695150">
        <ele>3561.0</ele>
        <time>2013-09-04T14:16:51Z</time>
      </trkpt>
      <trkpt lat="43.015150" lon="-4.695100">
        <ele>3561.0</ele>
        <time>2013-09-04T14:16:52Z</time>
      </trkpt>
      <trkpt lat="43.015117" lon="-4.695083">
        <ele>3561.0</ele>
        <time>2013-09-04T14:16:53Z</time>
      </trkpt>
      <trkpt lat="43.015067" lon="-4.695083">
        <ele>3561.0</ele>
        <time>2013-09-04T14:16:54Z</time>
      </trkpt>
      <trkpt lat="43.015017" lon="-4.695117">
        <ele>3560.0</ele>
        <time>2013-09-04T14:16:55Z</time>
      </trkpt>
      <trkpt lat="43.014983" lon="-4.695167">
        <ele>3559.0</ele>
        <time>2013-09-04T14:16:56Z</time>
      </trkpt>
      <trkpt lat="43.014933" lon="-4.695233">
        <ele>3559.0</ele>
        <time>2013-09-04T14:16:57Z</time>
      </trkpt>
      <trkpt lat="43.014900" lon="-4.695300">
        <ele>3559.0</ele>
        <time>2013-09-04T14:16:58Z</time>
      </trkpt>
      <trkpt lat="43.014883" lon="-4.695383">
        <ele>3560.0</ele>
        <time>2013-09-04T14:16:59Z</time>
      </trkpt>
      <trkpt lat="43.014867" lon="-4.695467">
        <ele>3560.0</ele>
        <time>2013-09-04T14:17:00Z</time>
      </trkpt>
      <trkpt lat="43.014850" lon="-4.695567">
        <ele>3560.0</ele>
        <time>2013-09-04T14:17:01Z</time>
      </trkpt>
      <trkpt lat="43.014850" lon="-4.695667">
        <ele>3560.0</ele>
        <time>2013-09-04T14:17:02Z</time>
      </trkpt>
      <trkpt lat="43.014850" lon="-4.695783">
        <ele>3560.0</ele>
        <time>2013-09-04T14:17:03Z</time>
      </trkpt>
      <trkpt lat="43.014867" lon="-4.695917">
        <ele>3561.0</ele>
        <time>2013-09-04T14:17:04Z</time>
      </trkpt>
      <trkpt lat="43.014867" lon="-4.696033">
        <ele>3561.0</ele>
        <time>2013-09-04T14:17:05Z</time>
      </trkpt>
      <trkpt lat="43.014900" lon="-4.696150">
        <ele>3562.0</ele>
        <time>2013-09-04T14:17:06Z</time>
      </trkpt>
      <trkpt lat="43.014933" lon="-4.696250">
        <ele>3563.0</ele>
        <time>2013-09-04T14:17:07Z</time>
      </trkpt>
      <trkpt lat="43.014967" lon="-4.696367">
        <ele>3563.0</ele>
        <time>2013-09-04T14:17:08Z</time>
      </trkpt>
      <trkpt lat="43.015017" lon="-4.696500">
        <ele>3563.0</ele>
        <time>2013-09-04T14:17:09Z</time>
      </trkpt>
      <trkpt lat="43.015050" lon="-4.696633">
        <ele>3564.0</ele>
        <time>2013-09-04T14:17:10Z</time>
      </trkpt>
      <trkpt lat="43.015100" lon="-4.696767">
        <ele>3565.0</ele>
        <time>2013-09-04T14:17:11Z</time>
      </trkpt>
      <trkpt lat="43.015150" lon="-4.696867">
        <ele>3566.0</ele>
        <time>2013-09-04T14:17:12Z</time>
      </trkpt>
      <trkpt lat="43.015217" lon="-4.696967">
        <ele>3566.0</ele>
        <time>2013-09-04T14:17:13Z</time>
      </trkpt>
      <trkpt lat="43.015300" lon="-4.697067">
        <ele>3566.0</ele>
        <time>2013-09-04T14:17:14Z</time>
      </trkpt>
      <trkpt lat="43.015383" lon="-4.697150">
        <ele>3566.0</ele>
        <time>2013-09-04T14:17:15Z</time>
      </trkpt>
      <trkpt lat="43.015467" lon="-4.697250">
        <ele>3566.0</ele>
        <time>2013-09-04T14:17:16Z</time>
      </trkpt>
      <trkpt lat="43.015567" lon="-4.697333">
        <ele>3566.0</ele>
        <time>2013-09-04T14:17:17Z</time>
      </trkpt>
      <trkpt lat="43.015667" lon="-4.697400">
        <ele>3566.0</ele>
        <time>2013-09-04T14:17:18Z</time>
      </trkpt>
      <trkpt lat="43.015767" lon="-4.697467">
        <ele>3567.0</ele>
        <time>2013-09-04T14:17:19Z</time>
      </trkpt>
      <trkpt lat="43.015883" lon="-4.697517">
        <ele>3568.0</ele>
        <time>2013-09-04T14:17:20Z</time>
      </trkpt>
      <trkpt lat="43.016000" lon="-4.697550">
        <ele>3568.0</ele>
        <time>2013-09-04T14:17:21Z</time>
      </trkpt>
      <trkpt lat="43.016117" lon="-4.697550">
        <ele>3569.0</ele>
        <time>2013-09-04T14:17:22Z</time>
      </trkpt>
      <trkpt lat="43.016217" lon="-4.697533">
        <ele>3570.0</ele>
        <time>2013-09-04T14:17:23Z</time>
      </trkpt>
      <trkpt lat="43.016317" lon="-4.697483">
        <ele>3570.0</ele>
        <time>2013-09-04T14:17:24Z</time>
      </trkpt>
      <trkpt lat="43.016417" lon="-4.697417">
        <ele>3570.0</ele>
        <time>2013-09-04T14:17:25Z</time>
      </trkpt>
      <trkpt lat="43.016517" lon="-4.697350">
        <ele>3571.0</ele>
        <time>2013-09-04T14:17:26Z</time>
      </trkpt>
      <trkpt lat="43.016600" lon="-4.697300">
        <ele>3573.0</ele>
        <time>2013-09-04T14:17:27Z</time>
      </trkpt>
      <trkpt lat="43.016683" lon="-4.697250">
        <ele>3574.0</ele>
        <time>2013-09-04T14:17:28Z</time>
      </trkpt>
      <trkpt lat="43.016750" lon="-4.697217">
        <ele>3574.0</ele>
        <time>2013-09-04T14:17:29Z</time>
      </trkpt>
      <trkpt lat="43.016833" lon="-4.697167">
        <ele>3572.0</ele>
        <time>2013-09-04T14:17:30Z</time>
      </trkpt>
      <trkpt lat="43.016933" lon="-4.697100">
        <ele>3569.0</ele>
        <time>2013-09-04T14:17:31Z</time>
      </trkpt>
      <trkpt lat="43.017050" lon="-4.697033">
        <ele>3566.0</ele>
        <time>2013-09-04T14:17:32Z</time>
      </trkpt>
      <trkpt lat="43.017167" lon="-4.696933">
        <ele>3567.0</ele>
        <time>2013-09-04T14:17:33Z</time>
      </trkpt>
      <trkpt lat="43.017300" lon="-4.696867">
        <ele>3569.0</ele>
        <time>2013-09-04T14:17:34Z</time>
      </trkpt>
      <trkpt lat="43.017400" lon="-4.696800">
        <ele>3573.0</ele>
        <time>2013-09-04T14:17:35Z</time>
      </trkpt>
      <trkpt lat="43.017500" lon="-4.696733">
        <ele>3576.0</ele>
        <time>2013-09-04T14:17:36Z</time>
      </trkpt>
      <trkpt lat="43.017583" lon="-4.696667">
        <ele>3580.0</ele>
        <time>2013-09-04T14:17:37Z</time>
      </trkpt>
      <trkpt lat="43.017667" lon="-4.696633">
        <ele>3584.0</ele>
        <time>2013-09-04T14:17:38Z</time>
      </trkpt>
      <trkpt lat="43.017750" lon="-4.696600">
        <ele>3586.0</ele>
        <time>2013-09-04T14:17:39Z</time>
      </trkpt>
      <trkpt lat="43.017867" lon="-4.696600">
        <ele>3588.0</ele>
        <time>2013-09-04T14:17:40Z</time>
      </trkpt>
      <trkpt lat="43.017967" lon="-4.696617">
        <ele>3589.0</ele>
        <time>2013-09-04T14:17:41Z</time>
      </trkpt>
      <trkpt lat="43.018083" lon="-4.696683">
        <ele>3591.0</ele>
        <time>2013-09-04T14:17:42Z</time>
      </trkpt>
      <trkpt lat="43.018183" lon="-4.696767">
        <ele>3593.0</ele>
        <time>2013-09-04T14:17:43Z</time>
      </trkpt>
      <trkpt lat="43.018267" lon="-4.696883">
        <ele>3596.0</ele>
        <time>2013-09-04T14:17:44Z</time>
      </trkpt>
      <trkpt lat="43.018333" lon="-4.697017">
        <ele>3599.0</ele>
        <time>2013-09-04T14:17:45Z</time>
      </trkpt>
      <trkpt lat="43.018383" lon="-4.697150">
        <ele>3602.0</ele>
        <time>2013-09-04T14:17:46Z</time>
      </trkpt>
      <trkpt lat="43.018400" lon="-4.697283">
        <ele>3605.0</ele>
        <time>2013-09-04T14:17:47Z</time>
      </trkpt>
      <trkpt lat="43.018417" lon="-4.697417">
        <ele>3607.0</ele>
        <time>2013-09-04T14:17:48Z</time>
      </trkpt>
      <trkpt lat="43.018400" lon="-4.697533">
        <ele>3610.0</ele>
        <time>2013-09-04T14:17:49Z</time>
      </trkpt>
      <trkpt lat="43.018383" lon="-4.697633">
        <ele>3612.0</ele>
        <time>2013-09-04T14:17:50Z</time>
      </trkpt>
      <trkpt lat="43.018350" lon="-4.697717">
        <ele>3615.0</ele>
        <time>2013-09-04T14:17:51Z</time>
      </trkpt>
      <trkpt lat="43.018317" lon="-4.697783">
        <ele>3618.0</ele>
        <time>2013-09-04T14:17:52Z</time>
      </trkpt>
      <trkpt lat="43.018283" lon="-4.697833">
        <ele>3621.0</ele>
        <time>2013-09-04T14:17:53Z</time>
      </trkpt>
      <trkpt lat="43.018233" lon="-4.697867">
        <ele>3623.0</ele>
        <time>2013-09-04T14:17:54Z</time>
      </trkpt>
      <trkpt lat="43.018183" lon="-4.697883">
        <ele>3625.0</ele>
        <time>2013-09-04T14:17:55Z</time>
      </trkpt>
      <trkpt lat="43.018133" lon="-4.697867">
        <ele>3627.0</ele>
        <time>2013-09-04T14:17:56Z</time>
      </trkpt>
      <trkpt lat="43.018067" lon="-4.697850">
        <ele>3629.0</ele>
        <time>2013-09-04T14:17:57Z</time>
      </trkpt>
      <trkpt lat="43.018000" lon="-4.697833">
        <ele>3631.0</ele>
        <time>2013-09-04T14:17:58Z</time>
      </trkpt>
      <trkpt lat="43.017950" lon="-4.697833">
        <ele>3633.0</ele>
        <time>2013-09-04T14:17:59Z</time>
      </trkpt>
      <trkpt lat="43.017917" lon="-4.697850">
        <ele>3637.0</ele>
        <time>2013-09-04T14:18:00Z</time>
      </trkpt>
      <trkpt lat="43.017883" lon="-4.697867">
        <ele>3638.0</ele>
        <time>2013-09-04T14:18:01Z</time>
      </trkpt>
      <trkpt lat="43.017867" lon="-4.697900">
        <ele>3640.0</ele>
        <time>2013-09-04T14:18:02Z</time>
      </trkpt>
      <trkpt lat="43.017817" lon="-4.697917">
        <ele>3639.0</ele>
        <time>2013-09-04T14:18:03Z</time>
      </trkpt>
      <trkpt lat="43.017767" lon="-4.697933">
        <ele>3638.0</ele>
        <time>2013-09-04T14:18:04Z</time>
      </trkpt>
      <trkpt lat="43.017700" lon="-4.697917">
        <ele>3636.0</ele>
        <time>2013-09-04T14:18:05Z</time>
      </trkpt>
      <trkpt lat="43.017633" lon="-4.697883">
        <ele>3636.0</ele>
        <time>2013-09-04T14:18:06Z</time>
      </trkpt>
      <trkpt lat="43.017583" lon="-4.697867">
        <ele>3637.0</ele>
        <time>2013-09-04T14:18:07Z</time>
      </trkpt>
      <trkpt lat="43.017533" lon="-4.697867">
        <ele>3638.0</ele>
        <time>2013-09-04T14:18:08Z</time>
      </trkpt>
      <trkpt lat="43.017500" lon="-4.697867">
        <ele>3637.0</ele>
        <time>2013-09-04T14:18:09Z</time>
      </trkpt>
      <trkpt lat="43.017450" lon="-4.697850">
        <ele>3637.0</ele>
        <time>2013-09-04T14:18:10Z</time>
      </trkpt>
      <trkpt lat="43.017383" lon="-4.697800">
        <ele>3636.0</ele>
        <time>2013-09-04T14:18:11Z</time>
      </trkpt>
      <trkpt lat="43.017317" lon="-4.697733">
        <ele>3636.0</ele>
        <time>2013-09-04T14:18:12Z</time>
      </trkpt>
      <trkpt lat="43.017267" lon="-4.697667">
        <ele>3638.0</ele>
        <time>2013-09-04T14:18:13Z</time>
      </trkpt>
      <trkpt lat="43.017250" lon="-4.697583">
        <ele>3640.0</ele>
        <time>2013-09-04T14:18:14Z</time>
      </trkpt>
      <trkpt lat="43.017233" lon="-4.697517">
        <ele>3641.0</ele>
        <time>2013-09-04T14:18:15Z</time>
      </trkpt>
      <trkpt lat="43.017233" lon="-4.697417">
        <ele>3642.0</ele>
        <time>2013-09-04T14:18:16Z</time>
      </trkpt>
      <trkpt lat="43.017233" lon="-4.697317">
        <ele>3641.0</ele>
        <time>2013-09-04T14:18:17Z</time>
      </trkpt>
      <trkpt lat="43.017217" lon="-4.697217">
        <ele>3640.0</ele>
        <time>2013-09-04T14:18:18Z</time>
      </trkpt>
      <trkpt lat="43.017233" lon="-4.697100">
        <ele>3640.0</ele>
        <time>2013-09-04T14:18:19Z</time>
      </trkpt>
      <trkpt lat="43.017233" lon="-4.696983">
        <ele>3639.0</ele>
        <time>2013-09-04T14:18:20Z</time>
      </trkpt>
      <trkpt lat="43.017267" lon="-4.696867">
        <ele>3639.0</ele>
        <time>2013-09-04T14:18:21Z</time>
      </trkpt>
      <trkpt lat="43.017300" lon="-4.696767">
        <ele>3639.0</ele>
        <time>2013-09-04T14:18:22Z</time>
      </trkpt>
      <trkpt lat="43.017333" lon="-4.696650">
        <ele>3639.0</ele>
        <time>2013-09-04T14:18:23Z</time>
      </trkpt>
      <trkpt lat="43.017350" lon="-4.696533">
        <ele>3640.0</ele>
        <time>2013-09-04T14:18:24Z</time>
      </trkpt>
      <trkpt lat="43.017383" lon="-4.696433">
        <ele>3640.0</ele>
        <time>2013-09-04T14:18:25Z</time>
      </trkpt>
      <trkpt lat="43.017417" lon="-4.696317">
        <ele>3641.0</ele>
        <time>2013-09-04T14:18:26Z</time>
      </trkpt>
      <trkpt lat="43.017467" lon="-4.696217">
        <ele>3641.0</ele>
        <time>2013-09-04T14:18:27Z</time>
      </trkpt>
      <trkpt lat="43.017500" lon="-4.696100">
        <ele>3642.0</ele>
        <time>2013-09-04T14:18:28Z</time>
      </trkpt>
      <trkpt lat="43.017550" lon="-4.696000">
        <ele>3643.0</ele>
        <time>2013-09-04T14:18:29Z</time>
      </trkpt>
      <trkpt lat="43.017600" lon="-4.695883">
        <ele>3643.0</ele>
        <time>2013-09-04T14:18:30Z</time>
      </trkpt>
      <trkpt lat="43.017650" lon="-4.695783">
        <ele>3644.0</ele>
        <time>2013-09-04T14:18:31Z</time>
      </trkpt>
      <trkpt lat="43.017717" lon="-4.695667">
        <ele>3645.0</ele>
        <time>2013-09-04T14:18:32Z</time>
      </trkpt>
      <trkpt lat="43.017783" lon="-4.695567">
        <ele>3646.0</ele>
        <time>2013-09-04T14:18:33Z</time>
      </trkpt>
      <trkpt lat="43.017850" lon="-4.695467">
        <ele>3647.0</ele>
        <time>2013-09-04T14:18:34Z</time>
      </trkpt>
      <trkpt lat="43.017917" lon="-4.695383">
        <ele>3648.0</ele>
        <time>2013-09-04T14:18:35Z</time>
      </trkpt>
      <trkpt lat="43.017983" lon="-4.695283">
        <ele>3649.0</ele>
        <time>2013-09-04T14:18:36Z</time>
      </trkpt>
      <trkpt lat="43.018067" lon="-4.695200">
        <ele>3650.0</ele>
        <time>2013-09-04T14:18:37Z</time>
      </trkpt>
      <trkpt lat="43.018167" lon="-4.695117">
        <ele>3651.0</ele>
        <time>2013-09-04T14:18:38Z</time>
      </trkpt>
      <trkpt lat="43.018267" lon="-4.695067">
        <ele>3652.0</ele>
        <time>2013-09-04T14:18:39Z</time>
      </trkpt>
      <trkpt lat="43.018367" lon="-4.695000">
        <ele>3654.0</ele>
        <time>2013-09-04T14:18:40Z</time>
      </trkpt>
      <trkpt lat="43.018467" lon="-4.694967">
        <ele>3655.0</ele>
        <time>2013-09-04T14:18:41Z</time>
      </trkpt>
      <trkpt lat="43.018567" lon="-4.694933">
        <ele>3656.0</ele>
        <time>2013-09-04T14:18:42Z</time>
      </trkpt>
      <trkpt lat="43.018683" lon="-4.694933">
        <ele>3657.0</ele>
        <time>2013-09-04T14:18:43Z</time>
      </trkpt>
      <trkpt lat="43.018800" lon="-4.694933">
        <ele>3657.0</ele>
        <time>2013-09-04T14:18:44Z</time>
      </trkpt>
      <trkpt lat="43.018917" lon="-4.694983">
        <ele>3657.0</ele>
        <time>2013-09-04T14:18:45Z</time>
      </trkpt>
      <trkpt lat="43.019033" lon="-4.695050">
        <ele>3658.0</ele>
        <time>2013-09-04T14:18:46Z</time>
      </trkpt>
      <trkpt lat="43.019133" lon="-4.695117">
        <ele>3659.0</ele>
        <time>2013-09-04T14:18:47Z</time>
      </trkpt>
      <trkpt lat="43.019233" lon="-4.695200">
        <ele>3661.0</ele>
        <time>2013-09-04T14:18:48Z</time>
      </trkpt>
      <trkpt lat="43.019317" lon="-4.695283">
        <ele>3662.0</ele>
        <time>2013-09-04T14:18:49Z</time>
      </trkpt>
      <trkpt lat="43.019400" lon="-4.695383">
        <ele>3664.0</ele>
        <time>2013-09-04T14:18:50Z</time>
      </trkpt>
      <trkpt lat="43.019483" lon="-4.695483">
        <ele>3665.0</ele>
        <time>2013-09-04T14:18:51Z</time>
      </trkpt>
      <trkpt lat="43.019550" lon="-4.695600">
        <ele>3666.0</ele>
        <time>2013-09-04T14:18:52Z</time>
      </trkpt>
      <trkpt lat="43.019617" lon="-4.695717">
        <ele>3668.0</ele>
        <time>2013-09-04T14:18:53Z</time>
      </trkpt>
      <trkpt lat="43.019683" lon="-4.695817">
        <ele>3669.0</ele>
        <time>2013-09-04T14:18:54Z</time>
      </trkpt>
      <trkpt lat="43.019733" lon="-4.695933">
        <ele>3671.0</ele>
        <time>2013-09-04T14:18:55Z</time>
      </trkpt>
      <trkpt lat="43.019783" lon="-4.696050">
        <ele>3673.0</ele>
        <time>2013-09-04T14:18:56Z</time>
      </trkpt>
      <trkpt lat="43.019833" lon="-4.696150">
        <ele>3675.0</ele>
        <time>2013-09-04T14:18:57Z</time>
      </trkpt>
      <trkpt lat="43.019867" lon="-4.696267">
        <ele>3677.0</ele>
        <time>2013-09-04T14:18:58Z</time>
      </trkpt>
      <trkpt lat="43.019917" lon="-4.696367">
        <ele>3679.0</ele>
        <time>2013-09-04T14:18:59Z</time>
      </trkpt>
      <trkpt lat="43.019933" lon="-4.696467">
        <ele>3681.0</ele>
        <time>2013-09-04T14:19:00Z</time>
      </trkpt>
      <trkpt lat="43.019950" lon="-4.696583">
        <ele>3683.0</ele>
        <time>2013-09-04T14:19:01Z</time>
      </trkpt>
      <trkpt lat="43.019950" lon="-4.696683">
        <ele>3685.0</ele>
        <time>2013-09-04T14:19:02Z</time>
      </trkpt>
      <trkpt lat="43.019967" lon="-4.696783">
        <ele>3687.0</ele>
        <time>2013-09-04T14:19:03Z</time>
      </trkpt>
      <trkpt lat="43.019967" lon="-4.696883">
        <ele>3690.0</ele>
        <time>2013-09-04T14:19:04Z</time>
      </trkpt>
      <trkpt lat="43.019950" lon="-4.696967">
        <ele>3692.0</ele>
        <time>2013-09-04T14:19:05Z</time>
      </trkpt>
      <trkpt lat="43.019933" lon="-4.697050">
        <ele>3694.0</ele>
        <time>2013-09-04T14:19:06Z</time>
      </trkpt>
      <trkpt lat="43.019917" lon="-4.697133">
        <ele>3696.0</ele>
        <time>2013-09-04T14:19:07Z</time>
      </trkpt>
      <trkpt lat="43.019883" lon="-4.697200">
        <ele>3697.0</ele>
        <time>2013-09-04T14:19:08Z</time>
      </trkpt>
      <trkpt lat="43.019833" lon="-4.697250">
        <ele>3699.0</ele>
        <time>2013-09-04T14:19:09Z</time>
      </trkpt>
      <trkpt lat="43.019800" lon="-4.697283">
        <ele>3701.0</ele>
        <time>2013-09-04T14:19:10Z</time>
      </trkpt>
      <trkpt lat="43.019767" lon="-4.697317">
        <ele>3702.0</ele>
        <time>2013-09-04T14:19:11Z</time>
      </trkpt>
      <trkpt lat="43.019717" lon="-4.697350">
        <ele>3703.0</ele>
        <time>2013-09-04T14:19:12Z</time>
      </trkpt>
      <trkpt lat="43.019683" lon="-4.697350">
        <ele>3704.0</ele>
        <time>2013-09-04T14:19:13Z</time>
      </trkpt>
      <trkpt lat="43.019633" lon="-4.697367">
        <ele>3704.0</ele>
        <time>2013-09-04T14:19:14Z</time>
      </trkpt>
      <trkpt lat="43.019583" lon="-4.697350">
        <ele>3705.0</ele>
        <time>2013-09-04T14:19:15Z</time>
      </trkpt>
      <trkpt lat="43.019533" lon="-4.697317">
        <ele>3706.0</ele>
        <time>2013-09-04T14:19:16Z</time>
      </trkpt>
      <trkpt lat="43.019500" lon="-4.697283">
        <ele>3707.0</ele>
        <time>2013-09-04T14:19:17Z</time>
      </trkpt>
      <trkpt lat="43.019467" lon="-4.697250">
        <ele>3708.0</ele>
        <time>2013-09-04T14:19:18Z</time>
      </trkpt>
      <trkpt lat="43.019433" lon="-4.697200">
        <ele>3708.0</ele>
        <time>2013-09-04T14:19:19Z</time>
      </trkpt>
      <trkpt lat="43.019400" lon="-4.697150">
        <ele>3709.0</ele>
        <time>2013-09-04T14:19:20Z</time>
      </trkpt>
      <trkpt lat="43.019367" lon="-4.697083">
        <ele>3709.0</ele>
        <time>2013-09-04T14:19:21Z</time>
      </trkpt>
      <trkpt lat="43.019333" lon="-4.697017">
        <ele>3710.0</ele>
        <time>2013-09-04T14:19:22Z</time>
      </trkpt>
      <trkpt lat="43.019317" lon="-4.696933">
        <ele>3710.0</ele>
        <time>2013-09-04T14:19:23Z</time>
      </trkpt>
      <trkpt lat="43.019300" lon="-4.696850">
        <ele>3710.0</ele>
        <time>2013-09-04T14:19:24Z</time>
      </trkpt>
      <trkpt lat="43.019283" lon="-4.696750">
        <ele>3710.0</ele>
        <time>2013-09-04T14:19:25Z</time>
      </trkpt>
      <trkpt lat="43.019250" lon="-4.696667">
        <ele>3710.0</ele>
        <time>2013-09-04T14:19:26Z</time>
      </trkpt>
      <trkpt lat="43.019250" lon="-4.696550">
        <ele>3710.0</ele>
        <time>2013-09-04T14:19:27Z</time>
      </trkpt>
      <trkpt lat="43.019250" lon="-4.696450">
        <ele>3711.0</ele>
        <time>2013-09-04T14:19:28Z</time>
      </trkpt>
      <trkpt lat="43.019267" lon="-4.696333">
        <ele>3711.0</ele>
        <time>2013-09-04T14:19:29Z</time>
      </trkpt>
      <trkpt lat="43.019283" lon="-4.696217">
        <ele>3712.0</ele>
        <time>2013-09-04T14:19:30Z</time>
      </trkpt>
      <trkpt lat="43.019300" lon="-4.696117">
        <ele>3712.0</ele>
        <time>2013-09-04T14:19:31Z</time>
      </trkpt>
      <trkpt lat="43.019317" lon="-4.696000">
        <ele>3713.0</ele>
        <time>2013-09-04T14:19:32Z</time>
      </trkpt>
      <trkpt lat="43.019350" lon="-4.695883">
        <ele>3713.0</ele>
        <time>2013-09-04T14:19:33Z</time>
      </trkpt>
      <trkpt lat="43.019383" lon="-4.695767">
        <ele>3714.0</ele>
        <time>2013-09-04T14:19:34Z</time>
      </trkpt>
      <trkpt lat="43.019417" lon="-4.695650">
        <ele>3715.0</ele>
        <time>2013-09-04T14:19:35Z</time>
      </trkpt>
      <trkpt lat="43.019467" lon="-4.695517">
        <ele>3715.0</ele>
        <time>2013-09-04T14:19:36Z</time>
      </trkpt>
      <trkpt lat="43.019517" lon="-4.695400">
        <ele>3716.0</ele>
        <time>2013-09-04T14:19:37Z</time>
      </trkpt>
      <trkpt lat="43.019567" lon="-4.695283">
        <ele>3716.0</ele>
        <time>2013-09-04T14:19:38Z</time>
      </trkpt>
      <trkpt lat="43.019633" lon="-4.695167">
        <ele>3717.0</ele>
        <time>2013-09-04T14:19:39Z</time>
      </trkpt>
      <trkpt lat="43.019700" lon="-4.695050">
        <ele>3718.0</ele>
        <time>2013-09-04T14:19:40Z</time>
      </trkpt>
      <trkpt lat="43.019783" lon="-4.694950">
        <ele>3719.0</ele>
        <time>2013-09-04T14:19:41Z</time>
      </trkpt>
      <trkpt lat="43.019850" lon="-4.694850">
        <ele>3720.0</ele>
        <time>2013-09-04T14:19:42Z</time>
      </trkpt>
      <trkpt lat="43.019933" lon="-4.694750">
        <ele>3721.0</ele>
        <time>2013-09-04T14:19:43Z</time>
      </trkpt>
      <trkpt lat="43.020017" lon="-4.694650">
        <ele>3721.0</ele>
        <time>2013-09-04T14:19:44Z</time>
      </trkpt>
      <trkpt lat="43.020117" lon="-4.694550">
        <ele>3721.0</ele>
        <time>2013-09-04T14:19:45Z</time>
      </trkpt>
      <trkpt lat="43.020217" lon="-4.694450">
        <ele>3721.0</ele>
        <time>2013-09-04T14:19:46Z</time>
      </trkpt>
      <trkpt lat="43.020350" lon="-4.694367">
        <ele>3721.0</ele>
        <time>2013-09-04T14:19:47Z</time>
      </trkpt>
      <trkpt lat="43.020467" lon="-4.694283">
        <ele>3723.0</ele>
        <time>2013-09-04T14:19:48Z</time>
      </trkpt>
      <trkpt lat="43.020567" lon="-4.694217">
        <ele>3725.0</ele>
        <time>2013-09-04T14:19:49Z</time>
      </trkpt>
      <trkpt lat="43.020683" lon="-4.694167">
        <ele>3726.0</ele>
        <time>2013-09-04T14:19:50Z</time>
      </trkpt>
      <trkpt lat="43.020800" lon="-4.694133">
        <ele>3728.0</ele>
        <time>2013-09-04T14:19:51Z</time>
      </trkpt>
      <trkpt lat="43.020917" lon="-4.694133">
        <ele>3730.0</ele>
        <time>2013-09-04T14:19:52Z</time>
      </trkpt>
      <trkpt lat="43.021050" lon="-4.694133">
        <ele>3733.0</ele>
        <time>2013-09-04T14:19:53Z</time>
      </trkpt>
      <trkpt lat="43.021167" lon="-4.694183">
        <ele>3735.0</ele>
        <time>2013-09-04T14:19:54Z</time>
      </trkpt>
      <trkpt lat="43.021267" lon="-4.694267">
        <ele>3737.0</ele>
        <time>2013-09-04T14:19:55Z</time>
      </trkpt>
      <trkpt lat="43.021333" lon="-4.694367">
        <ele>3738.0</ele>
        <time>2013-09-04T14:19:56Z</time>
      </trkpt>
      <trkpt lat="43.021367" lon="-4.694483">
        <ele>3739.0</ele>
        <time>2013-09-04T14:19:57Z</time>
      </trkpt>
      <trkpt lat="43.021400" lon="-4.694583">
        <ele>3740.0</ele>
        <time>2013-09-04T14:19:58Z</time>
      </trkpt>
      <trkpt lat="43.021400" lon="-4.694667">
        <ele>3741.0</ele>
        <time>2013-09-04T14:19:59Z</time>
      </trkpt>
      <trkpt lat="43.021383" lon="-4.694733">
        <ele>3741.0</ele>
        <time>2013-09-04T14:20:00Z</time>
      </trkpt>
      <trkpt lat="43.021350" lon="-4.694783">
        <ele>3741.0</ele>
        <time>2013-09-04T14:20:01Z</time>
      </trkpt>
      <trkpt lat="43.021300" lon="-4.694800">
        <ele>3741.0</ele>
        <time>2013-09-04T14:20:02Z</time>
      </trkpt>
      <trkpt lat="43.021250" lon="-4.694817">
        <ele>3742.0</ele>
        <time>2013-09-04T14:20:03Z</time>
      </trkpt>
      <trkpt lat="43.021200" lon="-4.694817">
        <ele>3743.0</ele>
        <time>2013-09-04T14:20:04Z</time>
      </trkpt>
      <trkpt lat="43.021150" lon="-4.694833">
        <ele>3746.0</ele>
        <time>2013-09-04T14:20:05Z</time>
      </trkpt>
      <trkpt lat="43.021117" lon="-4.694833">
        <ele>3749.0</ele>
        <time>2013-09-04T14:20:06Z</time>
      </trkpt>
      <trkpt lat="43.021083" lon="-4.694817">
        <ele>3752.0</ele>
        <time>2013-09-04T14:20:07Z</time>
      </trkpt>
      <trkpt lat="43.021050" lon="-4.694800">
        <ele>3754.0</ele>
        <time>2013-09-04T14:20:08Z</time>
      </trkpt>
      <trkpt lat="43.021017" lon="-4.694783">
        <ele>3755.0</ele>
        <time>2013-09-04T14:20:09Z</time>
      </trkpt>
      <trkpt lat="43.020983" lon="-4.694750">
        <ele>3757.0</ele>
        <time>2013-09-04T14:20:10Z</time>
      </trkpt>
      <trkpt lat="43.020933" lon="-4.694733">
        <ele>3758.0</ele>
        <time>2013-09-04T14:20:11Z</time>
      </trkpt>
      <trkpt lat="43.020900" lon="-4.694717">
        <ele>3760.0</ele>
        <time>2013-09-04T14:20:12Z</time>
      </trkpt>
      <trkpt lat="43.020850" lon="-4.694700">
        <ele>3761.0</ele>
        <time>2013-09-04T14:20:13Z</time>
      </trkpt>
      <trkpt lat="43.020817" lon="-4.694683">
        <ele>3762.0</ele>
        <time>2013-09-04T14:20:14Z</time>
      </trkpt>
      <trkpt lat="43.020783" lon="-4.694667">
        <ele>3762.0</ele>
        <time>2013-09-04T14:20:15Z</time>
      </trkpt>
      <trkpt lat="43.020717" lon="-4.694633">
        <ele>3763.0</ele>
        <time>2013-09-04T14:20:16Z</time>
      </trkpt>
      <trkpt lat="43.020650" lon="-4.694600">
        <ele>3764.0</ele>
        <time>2013-09-04T14:20:17Z</time>
      </trkpt>
      <trkpt lat="43.020600" lon="-4.694567">
        <ele>3766.0</ele>
        <time>2013-09-04T14:20:18Z</time>
      </trkpt>
      <trkpt lat="43.020550" lon="-4.694550">
        <ele>3769.0</ele>
        <time>2013-09-04T14:20:19Z</time>
      </trkpt>
      <trkpt lat="43.020500" lon="-4.694517">
        <ele>3771.0</ele>
        <time>2013-09-04T14:20:20Z</time>
      </trkpt>
      <trkpt lat="43.020467" lon="-4.694483">
        <ele>3773.0</ele>
        <time>2013-09-04T14:20:21Z</time>
      </trkpt>
      <trkpt lat="43.020433" lon="-4.694450">
        <ele>3774.0</ele>
        <time>2013-09-04T14:20:22Z</time>
      </trkpt>
      <trkpt lat="43.020383" lon="-4.694400">
        <ele>3774.0</ele>
        <time>2013-09-04T14:20:23Z</time>
      </trkpt>
      <trkpt lat="43.020333" lon="-4.694383">
        <ele>3775.0</ele>
        <time>2013-09-04T14:20:24Z</time>
      </trkpt>
      <trkpt lat="43.020300" lon="-4.694367">
        <ele>3775.0</ele>
        <time>2013-09-04T14:20:25Z</time>
      </trkpt>
      <trkpt lat="43.020250" lon="-4.694367">
        <ele>3774.0</ele>
        <time>2013-09-04T14:20:26Z</time>
      </trkpt>
      <trkpt lat="43.020200" lon="-4.694367">
        <ele>3775.0</ele>
        <time>2013-09-04T14:20:27Z</time>
      </trkpt>
      <trkpt lat="43.020167" lon="-4.694383">
        <ele>3774.0</ele>
        <time>2013-09-04T14:20:28Z</time>
      </trkpt>
      <trkpt lat="43.020133" lon="-4.694417">
        <ele>3774.0</ele>
        <time>2013-09-04T14:20:29Z</time>
      </trkpt>
      <trkpt lat="43.020100" lon="-4.694450">
        <ele>3774.0</ele>
        <time>2013-09-04T14:20:30Z</time>
      </trkpt>
      <trkpt lat="43.020067" lon="-4.694483">
        <ele>3773.0</ele>
        <time>2013-09-04T14:20:31Z</time>
      </trkpt>
      <trkpt lat="43.020033" lon="-4.694533">
        <ele>3772.0</ele>
        <time>2013-09-04T14:20:32Z</time>
      </trkpt>
      <trkpt lat="43.020000" lon="-4.694600">
        <ele>3772.0</ele>
        <time>2013-09-04T14:20:33Z</time>
      </trkpt>
      <trkpt lat="43.019967" lon="-4.694650">
        <ele>3772.0</ele>
        <time>2013-09-04T14:20:34Z</time>
      </trkpt>
      <trkpt lat="43.019967" lon="-4.694700">
        <ele>3772.0</ele>
        <time>2013-09-04T14:20:35Z</time>
      </trkpt>
      <trkpt lat="43.019950" lon="-4.694767">
        <ele>3769.0</ele>
        <time>2013-09-04T14:20:36Z</time>
      </trkpt>
      <trkpt lat="43.019950" lon="-4.694850">
        <ele>3766.0</ele>
        <time>2013-09-04T14:20:37Z</time>
      </trkpt>
      <trkpt lat="43.019950" lon="-4.694950">
        <ele>3763.0</ele>
        <time>2013-09-04T14:20:38Z</time>
      </trkpt>
      <trkpt lat="43.019917" lon="-4.695050">
        <ele>3762.0</ele>
        <time>2013-09-04T14:20:39Z</time>
      </trkpt>
      <trkpt lat="43.019883" lon="-4.695150">
        <ele>3761.0</ele>
        <time>2013-09-04T14:20:40Z</time>
      </trkpt>
      <trkpt lat="43.019850" lon="-4.695217">
        <ele>3762.0</ele>
        <time>2013-09-04T14:20:41Z</time>
      </trkpt>
      <trkpt lat="43.019833" lon="-4.695283">
        <ele>3761.0</ele>
        <time>2013-09-04T14:20:42Z</time>
      </trkpt>
      <trkpt lat="43.019833" lon="-4.695367">
        <ele>3760.0</ele>
        <time>2013-09-04T14:20:43Z</time>
      </trkpt>
      <trkpt lat="43.019817" lon="-4.695467">
        <ele>3759.0</ele>
        <time>2013-09-04T14:20:44Z</time>
      </trkpt>
      <trkpt lat="43.019783" lon="-4.695567">
        <ele>3757.0</ele>
        <time>2013-09-04T14:20:45Z</time>
      </trkpt>
      <trkpt lat="43.019750" lon="-4.695667">
        <ele>3758.0</ele>
        <time>2013-09-04T14:20:46Z</time>
      </trkpt>
      <trkpt lat="43.019717" lon="-4.695733">
        <ele>3759.0</ele>
        <time>2013-09-04T14:20:47Z</time>
      </trkpt>
      <trkpt lat="43.019683" lon="-4.695800">
        <ele>3759.0</ele>
        <time>2013-09-04T14:20:48Z</time>
      </trkpt>
      <trkpt lat="43.019650" lon="-4.695867">
        <ele>3759.0</ele>
        <time>2013-09-04T14:20:49Z</time>
      </trkpt>
      <trkpt lat="43.019617" lon="-4.695917">
        <ele>3758.0</ele>
        <time>2013-09-04T14:20:50Z</time>
      </trkpt>
      <trkpt lat="43.019583" lon="-4.695983">
        <ele>3757.0</ele>
        <time>2013-09-04T14:20:51Z</time>
      </trkpt>
      <trkpt lat="43.019533" lon="-4.696083">
        <ele>3755.0</ele>
        <time>2013-09-04T14:20:52Z</time>
      </trkpt>
      <trkpt lat="43.019500" lon="-4.696183">
        <ele>3754.0</ele>
        <time>2013-09-04T14:20:53Z</time>
      </trkpt>
      <trkpt lat="43.019483" lon="-4.696283">
        <ele>3753.0</ele>
        <time>2013-09-04T14:20:54Z</time>
      </trkpt>
      <trkpt lat="43.019483" lon="-4.696383">
        <ele>3753.0</ele>
        <time>2013-09-04T14:20:55Z</time>
      </trkpt>
      <trkpt lat="43.019500" lon="-4.696450">
        <ele>3752.0</ele>
        <time>2013-09-04T14:20:56Z</time>
      </trkpt>
      <trkpt lat="43.019533" lon="-4.696533">
        <ele>3751.0</ele>
        <time>2013-09-04T14:20:57Z</time>
      </trkpt>
      <trkpt lat="43.019550" lon="-4.696633">
        <ele>3748.0</ele>
        <time>2013-09-04T14:20:58Z</time>
      </trkpt>
      <trkpt lat="43.019567" lon="-4.696750">
        <ele>3745.0</ele>
        <time>2013-09-04T14:20:59Z</time>
      </trkpt>
      <trkpt lat="43.019583" lon="-4.696867">
        <ele>3743.0</ele>
        <time>2013-09-04T14:21:00Z</time>
      </trkpt>
      <trkpt lat="43.019583" lon="-4.696983">
        <ele>3743.0</ele>
        <time>2013-09-04T14:21:01Z</time>
      </trkpt>
      <trkpt lat="43.019567" lon="-4.697067">
        <ele>3742.0</ele>
        <time>2013-09-04T14:21:02Z</time>
      </trkpt>
      <trkpt lat="43.019550" lon="-4.697150">
        <ele>3741.0</ele>
        <time>2013-09-04T14:21:03Z</time>
      </trkpt>
      <trkpt lat="43.019500" lon="-4.697217">
        <ele>3738.0</ele>
        <time>2013-09-04T14:21:04Z</time>
      </trkpt>
      <trkpt lat="43.019433" lon="-4.697267">
        <ele>3736.0</ele>
        <time>2013-09-04T14:21:05Z</time>
      </trkpt>
      <trkpt lat="43.019367" lon="-4.697300">
        <ele>3733.0</ele>
        <time>2013-09-04T14:21:06Z</time>
      </trkpt>
      <trkpt lat="43.019283" lon="-4.697350">
        <ele>3732.0</ele>
        <time>2013-09-04T14:21:07Z</time>
      </trkpt>
      <trkpt lat="43.019200" lon="-4.697383">
        <ele>3731.0</ele>
        <time>2013-09-04T14:21:08Z</time>
      </trkpt>
      <trkpt lat="43.019133" lon="-4.697417">
        <ele>3731.0</ele>
        <time>2013-09-04T14:21:09Z</time>
      </trkpt>
      <trkpt lat="43.019050" lon="-4.697450">
        <ele>3731.0</ele>
        <time>2013-09-04T14:21:10Z</time>
      </trkpt>
      <trkpt lat="43.019000" lon="-4.697483">
        <ele>3731.0</ele>
        <time>2013-09-04T14:21:11Z</time>
      </trkpt>
      <trkpt lat="43.018933" lon="-4.697500">
        <ele>3730.0</ele>
        <time>2013-09-04T14:21:12Z</time>
      </trkpt>
      <trkpt lat="43.018883" lon="-4.697500">
        <ele>3729.0</ele>
        <time>2013-09-04T14:21:13Z</time>
      </trkpt>
      <trkpt lat="43.018833" lon="-4.697517">
        <ele>3727.0</ele>
        <time>2013-09-04T14:21:14Z</time>
      </trkpt>
      <trkpt lat="43.018783" lon="-4.697550">
        <ele>3724.0</ele>
        <time>2013-09-04T14:21:15Z</time>
      </trkpt>
      <trkpt lat="43.018700" lon="-4.697600">
        <ele>3721.0</ele>
        <time>2013-09-04T14:21:16Z</time>
      </trkpt>
      <trkpt lat="43.018617" lon="-4.697650">
        <ele>3720.0</ele>
        <time>2013-09-04T14:21:17Z</time>
      </trkpt>
      <trkpt lat="43.018517" lon="-4.697700">
        <ele>3721.0</ele>
        <time>2013-09-04T14:21:18Z</time>
      </trkpt>
      <trkpt lat="43.018433" lon="-4.697733">
        <ele>3723.0</ele>
        <time>2013-09-04T14:21:19Z</time>
      </trkpt>
      <trkpt lat="43.018350" lon="-4.697750">
        <ele>3726.0</ele>
        <time>2013-09-04T14:21:20Z</time>
      </trkpt>
      <trkpt lat="43.018300" lon="-4.697783">
        <ele>3728.0</ele>
        <time>2013-09-04T14:21:21Z</time>
      </trkpt>
      <trkpt lat="43.018250" lon="-4.697800">
        <ele>3730.0</ele>
        <time>2013-09-04T14:21:22Z</time>
      </trkpt>
      <trkpt lat="43.018183" lon="-4.697833">
        <ele>3731.0</ele>
        <time>2013-09-04T14:21:23Z</time>
      </trkpt>
      <trkpt lat="43.018133" lon="-4.697867">
        <ele>3731.0</ele>
        <time>2013-09-04T14:21:24Z</time>
      </trkpt>
      <trkpt lat="43.018083" lon="-4.697883">
        <ele>3732.0</ele>
        <time>2013-09-04T14:21:25Z</time>
      </trkpt>
      <trkpt lat="43.018017" lon="-4.697867">
        <ele>3732.0</ele>
        <time>2013-09-04T14:21:26Z</time>
      </trkpt>
      <trkpt lat="43.017967" lon="-4.697833">
        <ele>3731.0</ele>
        <time>2013-09-04T14:21:27Z</time>
      </trkpt>
      <trkpt lat="43.017917" lon="-4.697800">
        <ele>3731.0</ele>
        <time>2013-09-04T14:21:28Z</time>
      </trkpt>
      <trkpt lat="43.017867" lon="-4.697750">
        <ele>3730.0</ele>
        <time>2013-09-04T14:21:29Z</time>
      </trkpt>
      <trkpt lat="43.017800" lon="-4.697700">
        <ele>3729.0</ele>
        <time>2013-09-04T14:21:30Z</time>
      </trkpt>
      <trkpt lat="43.017733" lon="-4.697633">
        <ele>3728.0</ele>
        <time>2013-09-04T14:21:31Z</time>
      </trkpt>
      <trkpt lat="43.017667" lon="-4.697583">
        <ele>3726.0</ele>
        <time>2013-09-04T14:21:32Z</time>
      </trkpt>
      <trkpt lat="43.017583" lon="-4.697533">
        <ele>3725.0</ele>
        <time>2013-09-04T14:21:33Z</time>
      </trkpt>
      <trkpt lat="43.017517" lon="-4.697483">
        <ele>3725.0</ele>
        <time>2013-09-04T14:21:34Z</time>
      </trkpt>
      <trkpt lat="43.017433" lon="-4.697450">
        <ele>3724.0</ele>
        <time>2013-09-04T14:21:35Z</time>
      </trkpt>
      <trkpt lat="43.017350" lon="-4.697433">
        <ele>3724.0</ele>
        <time>2013-09-04T14:21:36Z</time>
      </trkpt>
      <trkpt lat="43.017267" lon="-4.697400">
        <ele>3723.0</ele>
        <time>2013-09-04T14:21:37Z</time>
      </trkpt>
      <trkpt lat="43.017200" lon="-4.697383">
        <ele>3724.0</ele>
        <time>2013-09-04T14:21:38Z</time>
      </trkpt>
      <trkpt lat="43.017133" lon="-4.697383">
        <ele>3724.0</ele>
        <time>2013-09-04T14:21:39Z</time>
      </trkpt>
      <trkpt lat="43.017067" lon="-4.697383">
        <ele>3724.0</ele>
        <time>2013-09-04T14:21:40Z</time>
      </trkpt>
      <trkpt lat="43.016983" lon="-4.697383">
        <ele>3724.0</ele>
        <time>2013-09-04T14:21:41Z</time>
      </trkpt>
      <trkpt lat="43.016917" lon="-4.697383">
        <ele>3723.0</ele>
        <time>2013-09-04T14:21:42Z</time>
      </trkpt>
      <trkpt lat="43.016817" lon="-4.697383">
        <ele>3724.0</ele>
        <time>2013-09-04T14:21:43Z</time>
      </trkpt>
      <trkpt lat="43.016750" lon="-4.697367">
        <ele>3725.0</ele>
        <time>2013-09-04T14:21:44Z</time>
      </trkpt>
      <trkpt lat="43.016667" lon="-4.697350">
        <ele>3727.0</ele>
        <time>2013-09-04T14:21:45Z</time>
      </trkpt>
      <trkpt lat="43.016600" lon="-4.697367">
        <ele>3730.0</ele>
        <time>2013-09-04T14:21:46Z</time>
      </trkpt>
      <trkpt lat="43.016533" lon="-4.697383">
        <ele>3732.0</ele>
        <time>2013-09-04T14:21:47Z</time>
      </trkpt>
      <trkpt lat="43.016483" lon="-4.697383">
        <ele>3734.0</ele>
        <time>2013-09-04T14:21:48Z</time>
      </trkpt>
      <trkpt lat="43.016400" lon="-4.697383">
        <ele>3735.0</ele>
        <time>2013-09-04T14:21:49Z</time>
      </trkpt>
      <trkpt lat="43.016333" lon="-4.697367">
        <ele>3738.0</ele>
        <time>2013-09-04T14:21:50Z</time>
      </trkpt>
      <trkpt lat="43.016283" lon="-4.697333">
        <ele>3741.0</ele>
        <time>2013-09-04T14:21:51Z</time>
      </trkpt>
      <trkpt lat="43.016250" lon="-4.697300">
        <ele>3744.0</ele>
        <time>2013-09-04T14:21:52Z</time>
      </trkpt>
      <trkpt lat="43.016217" lon="-4.697267">
        <ele>3745.0</ele>
        <time>2013-09-04T14:21:53Z</time>
      </trkpt>
      <trkpt lat="43.016167" lon="-4.697250">
        <ele>3746.0</ele>
        <time>2013-09-04T14:21:54Z</time>
      </trkpt>
      <trkpt lat="43.016117" lon="-4.697250">
        <ele>3747.0</ele>
        <time>2013-09-04T14:21:55Z</time>
      </trkpt>
      <trkpt lat="43.016050" lon="-4.697217">
        <ele>3748.0</ele>
        <time>2013-09-04T14:21:56Z</time>
      </trkpt>
      <trkpt lat="43.016000" lon="-4.697167">
        <ele>3750.0</ele>
        <time>2013-09-04T14:21:57Z</time>
      </trkpt>
      <trkpt lat="43.015967" lon="-4.697100">
        <ele>3751.0</ele>
        <time>2013-09-04T14:21:58Z</time>
      </trkpt>
      <trkpt lat="43.015933" lon="-4.697033">
        <ele>3752.0</ele>
        <time>2013-09-04T14:21:59Z</time>
      </trkpt>
      <trkpt lat="43.015883" lon="-4.696950">
        <ele>3753.0</ele>
        <time>2013-09-04T14:22:00Z</time>
      </trkpt>
      <trkpt lat="43.015850" lon="-4.696867">
        <ele>3753.0</ele>
        <time>2013-09-04T14:22:01Z</time>
      </trkpt>
      <trkpt lat="43.015800" lon="-4.696783">
        <ele>3753.0</ele>
        <time>2013-09-04T14:22:02Z</time>
      </trkpt>
      <trkpt lat="43.015750" lon="-4.696700">
        <ele>3754.0</ele>
        <time>2013-09-04T14:22:03Z</time>
      </trkpt>
      <trkpt lat="43.015683" lon="-4.696633">
        <ele>3754.0</ele>
        <time>2013-09-04T14:22:04Z</time>
      </trkpt>
      <trkpt lat="43.015617" lon="-4.696583">
        <ele>3756.0</ele>
        <time>2013-09-04T14:22:05Z</time>
      </trkpt>
      <trkpt lat="43.015550" lon="-4.696550">
        <ele>3757.0</ele>
        <time>2013-09-04T14:22:06Z</time>
      </trkpt>
      <trkpt lat="43.015483" lon="-4.696517">
        <ele>3758.0</ele>
        <time>2013-09-04T14:22:07Z</time>
      </trkpt>
      <trkpt lat="43.015417" lon="-4.696483">
        <ele>3759.0</ele>
        <time>2013-09-04T14:22:08Z</time>
      </trkpt>
      <trkpt lat="43.015350" lon="-4.696450">
        <ele>3760.0</ele>
        <time>2013-09-04T14:22:09Z</time>
      </trkpt>
      <trkpt lat="43.015283" lon="-4.696400">
        <ele>3761.0</ele>
        <time>2013-09-04T14:22:10Z</time>
      </trkpt>
      <trkpt lat="43.015200" lon="-4.696350">
        <ele>3761.0</ele>
        <time>2013-09-04T14:22:11Z</time>
      </trkpt>
      <trkpt lat="43.015133" lon="-4.696300">
        <ele>3761.0</ele>
        <time>2013-09-04T14:22:12Z</time>
      </trkpt>
      <trkpt lat="43.015050" lon="-4.696217">
        <ele>3761.0</ele>
        <time>2013-09-04T14:22:13Z</time>
      </trkpt>
      <trkpt lat="43.014983" lon="-4.696117">
        <ele>3761.0</ele>
        <time>2013-09-04T14:22:14Z</time>
      </trkpt>
      <trkpt lat="43.014917" lon="-4.696033">
        <ele>3761.0</ele>
        <time>2013-09-04T14:22:15Z</time>
      </trkpt>
      <trkpt lat="43.014850" lon="-4.695933">
        <ele>3761.0</ele>
        <time>2013-09-04T14:22:16Z</time>
      </trkpt>
      <trkpt lat="43.014783" lon="-4.695850">
        <ele>3760.0</ele>
        <time>2013-09-04T14:22:17Z</time>
      </trkpt>
      <trkpt lat="43.014717" lon="-4.695767">
        <ele>3759.0</ele>
        <time>2013-09-04T14:22:18Z</time>
      </trkpt>
      <trkpt lat="43.014633" lon="-4.695683">
        <ele>3759.0</ele>
        <time>2013-09-04T14:22:19Z</time>
      </trkpt>
      <trkpt lat="43.014550" lon="-4.695617">
        <ele>3759.0</ele>
        <time>2013-09-04T14:22:20Z</time>
      </trkpt>
      <trkpt lat="43.014483" lon="-4.695533">
        <ele>3760.0</ele>
        <time>2013-09-04T14:22:21Z</time>
      </trkpt>
      <trkpt lat="43.014417" lon="-4.695483">
        <ele>3763.0</ele>
        <time>2013-09-04T14:22:22Z</time>
      </trkpt>
      <trkpt lat="43.014350" lon="-4.695433">
        <ele>3764.0</ele>
        <time>2013-09-04T14:22:23Z</time>
      </trkpt>
      <trkpt lat="43.014283" lon="-4.695383">
        <ele>3766.0</ele>
        <time>2013-09-04T14:22:24Z</time>
      </trkpt>
      <trkpt lat="43.014233" lon="-4.695367">
        <ele>3767.0</ele>
        <time>2013-09-04T14:22:25Z</time>
      </trkpt>
      <trkpt lat="43.014167" lon="-4.695333">
        <ele>3769.0</ele>
        <time>2013-09-04T14:22:26Z</time>
      </trkpt>
      <trkpt lat="43.014100" lon="-4.695300">
        <ele>3771.0</ele>
        <time>2013-09-04T14:22:27Z</time>
      </trkpt>
      <trkpt lat="43.014050" lon="-4.695250">
        <ele>3772.0</ele>
        <time>2013-09-04T14:22:28Z</time>
      </trkpt>
      <trkpt lat="43.014000" lon="-4.695200">
        <ele>3774.0</ele>
        <time>2013-09-04T14:22:29Z</time>
      </trkpt>
      <trkpt lat="43.013950" lon="-4.695150">
        <ele>3776.0</ele>
        <time>2013-09-04T14:22:30Z</time>
      </trkpt>
      <trkpt lat="43.013883" lon="-4.695117">
        <ele>3778.0</ele>
        <time>2013-09-04T14:22:31Z</time>
      </trkpt>
      <trkpt lat="43.013850" lon="-4.695067">
        <ele>3780.0</ele>
        <time>2013-09-04T14:22:32Z</time>
      </trkpt>
      <trkpt lat="43.013800" lon="-4.695033">
        <ele>3781.0</ele>
        <time>2013-09-04T14:22:33Z</time>
      </trkpt>
      <trkpt lat="43.013733" lon="-4.695000">
        <ele>3783.0</ele>
        <time>2013-09-04T14:22:34Z</time>
      </trkpt>
      <trkpt lat="43.013683" lon="-4.694950">
        <ele>3784.0</ele>
        <time>2013-09-04T14:22:35Z</time>
      </trkpt>
      <trkpt lat="43.013633" lon="-4.694900">
        <ele>3786.0</ele>
        <time>2013-09-04T14:22:36Z</time>
      </trkpt>
      <trkpt lat="43.013600" lon="-4.694833">
        <ele>3788.0</ele>
        <time>2013-09-04T14:22:37Z</time>
      </trkpt>
      <trkpt lat="43.013550" lon="-4.694783">
        <ele>3789.0</ele>
        <time>2013-09-04T14:22:38Z</time>
      </trkpt>
      <trkpt lat="43.013517" lon="-4.694733">
        <ele>3791.0</ele>
        <time>2013-09-04T14:22:39Z</time>
      </trkpt>
      <trkpt lat="43.013467" lon="-4.694700">
        <ele>3792.0</ele>
        <time>2013-09-04T14:22:40Z</time>
      </trkpt>
      <trkpt lat="43.013417" lon="-4.694650">
        <ele>3792.0</ele>
        <time>2013-09-04T14:22:41Z</time>
      </trkpt>
      <trkpt lat="43.013383" lon="-4.694600">
        <ele>3793.0</ele>
        <time>2013-09-04T14:22:42Z</time>
      </trkpt>
      <trkpt lat="43.013317" lon="-4.694533">
        <ele>3793.0</ele>
        <time>2013-09-04T14:22:43Z</time>
      </trkpt>
      <trkpt lat="43.013250" lon="-4.694483">
        <ele>3794.0</ele>
        <time>2013-09-04T14:22:44Z</time>
      </trkpt>
      <trkpt lat="43.013200" lon="-4.694450">
        <ele>3794.0</ele>
        <time>2013-09-04T14:22:45Z</time>
      </trkpt>
      <trkpt lat="43.013133" lon="-4.694417">
        <ele>3794.0</ele>
        <time>2013-09-04T14:22:46Z</time>
      </trkpt>
      <trkpt lat="43.013067" lon="-4.694417">
        <ele>3794.0</ele>
        <time>2013-09-04T14:22:47Z</time>
      </trkpt>
      <trkpt lat="43.013000" lon="-4.694433">
        <ele>3794.0</ele>
        <time>2013-09-04T14:22:48Z</time>
      </trkpt>
      <trkpt lat="43.012933" lon="-4.694433">
        <ele>3795.0</ele>
        <time>2013-09-04T14:22:49Z</time>
      </trkpt>
      <trkpt lat="43.012867" lon="-4.694450">
        <ele>3797.0</ele>
        <time>2013-09-04T14:22:50Z</time>
      </trkpt>
      <trkpt lat="43.012800" lon="-4.694450">
        <ele>3799.0</ele>
        <time>2013-09-04T14:22:51Z</time>
      </trkpt>
      <trkpt lat="43.012750" lon="-4.694450">
        <ele>3800.0</ele>
        <time>2013-09-04T14:22:52Z</time>
      </trkpt>
      <trkpt lat="43.012700" lon="-4.694450">
        <ele>3802.0</ele>
        <time>2013-09-04T14:22:53Z</time>
      </trkpt>
      <trkpt lat="43.012633" lon="-4.694433">
        <ele>3803.0</ele>
        <time>2013-09-04T14:22:54Z</time>
      </trkpt>
      <trkpt lat="43.012583" lon="-4.694417">
        <ele>3804.0</ele>
        <time>2013-09-04T14:22:55Z</time>
      </trkpt>
      <trkpt lat="43.012517" lon="-4.694400">
        <ele>3805.0</ele>
        <time>2013-09-04T14:22:56Z</time>
      </trkpt>
      <trkpt lat="43.012467" lon="-4.694367">
        <ele>3806.0</ele>
        <time>2013-09-04T14:22:57Z</time>
      </trkpt>
      <trkpt lat="43.012400" lon="-4.694333">
        <ele>3807.0</ele>
        <time>2013-09-04T14:22:58Z</time>
      </trkpt>
      <trkpt lat="43.012350" lon="-4.694300">
        <ele>3808.0</ele>
        <time>2013-09-04T14:22:59Z</time>
      </trkpt>
      <trkpt lat="43.012283" lon="-4.694267">
        <ele>3808.0</ele>
        <time>2013-09-04T14:23:00Z</time>
      </trkpt>
      <trkpt lat="43.012250" lon="-4.694250">
        <ele>3809.0</ele>
        <time>2013-09-04T14:23:01Z</time>
      </trkpt>
      <trkpt lat="43.012200" lon="-4.694233">
        <ele>3810.0</ele>
        <time>2013-09-04T14:23:02Z</time>
      </trkpt>
      <trkpt lat="43.012167" lon="-4.694233">
        <ele>3811.0</ele>
        <time>2013-09-04T14:23:03Z</time>
      </trkpt>
      <trkpt lat="43.012133" lon="-4.694200">
        <ele>3811.0</ele>
        <time>2013-09-04T14:23:04Z</time>
      </trkpt>
      <trkpt lat="43.012083" lon="-4.694183">
        <ele>3810.0</ele>
        <time>2013-09-04T14:23:05Z</time>
      </trkpt>
      <trkpt lat="43.012050" lon="-4.694150">
        <ele>3808.0</ele>
        <time>2013-09-04T14:23:06Z</time>
      </trkpt>
      <trkpt lat="43.011983" lon="-4.694100">
        <ele>3806.0</ele>
        <time>2013-09-04T14:23:07Z</time>
      </trkpt>
      <trkpt lat="43.011917" lon="-4.694050">
        <ele>3804.0</ele>
        <time>2013-09-04T14:23:08Z</time>
      </trkpt>
      <trkpt lat="43.011833" lon="-4.693983">
        <ele>3802.0</ele>
        <time>2013-09-04T14:23:09Z</time>
      </trkpt>
      <trkpt lat="43.011750" lon="-4.693917">
        <ele>3801.0</ele>
        <time>2013-09-04T14:23:10Z</time>
      </trkpt>
      <trkpt lat="43.011650" lon="-4.693850">
        <ele>3801.0</ele>
        <time>2013-09-04T14:23:11Z</time>
      </trkpt>
      <trkpt lat="43.011567" lon="-4.693783">
        <ele>3802.0</ele>
        <time>2013-09-04T14:23:12Z</time>
      </trkpt>
      <trkpt lat="43.011483" lon="-4.693750">
        <ele>3803.0</ele>
        <time>2013-09-04T14:23:13Z</time>
      </trkpt>
      <trkpt lat="43.011400" lon="-4.693717">
        <ele>3803.0</ele>
        <time>2013-09-04T14:23:14Z</time>
      </trkpt>
      <trkpt lat="43.011317" lon="-4.693667">
        <ele>3804.0</ele>
        <time>2013-09-04T14:23:15Z</time>
      </trkpt>
      <trkpt lat="43.011233" lon="-4.693617">
        <ele>3805.0</ele>
        <time>2013-09-04T14:23:16Z</time>
      </trkpt>
      <trkpt lat="43.011150" lon="-4.693550">
        <ele>3806.0</ele>
        <time>2013-09-04T14:23:17Z</time>
      </trkpt>
      <trkpt lat="43.011067" lon="-4.693500">
        <ele>3806.0</ele>
        <time>2013-09-04T14:23:18Z</time>
      </trkpt>
      <trkpt lat="43.010967" lon="-4.693433">
        <ele>3807.0</ele>
        <time>2013-09-04T14:23:19Z</time>
      </trkpt>
      <trkpt lat="43.010883" lon="-4.693383">
        <ele>3808.0</ele>
        <time>2013-09-04T14:23:20Z</time>
      </trkpt>
      <trkpt lat="43.010800" lon="-4.693333">
        <ele>3808.0</ele>
        <time>2013-09-04T14:23:21Z</time>
      </trkpt>
      <trkpt lat="43.010717" lon="-4.693283">
        <ele>3809.0</ele>
        <time>2013-09-04T14:23:22Z</time>
      </trkpt>
      <trkpt lat="43.010617" lon="-4.693233">
        <ele>3809.0</ele>
        <time>2013-09-04T14:23:23Z</time>
      </trkpt>
      <trkpt lat="43.010533" lon="-4.693183">
        <ele>3809.0</ele>
        <time>2013-09-04T14:23:24Z</time>
      </trkpt>
      <trkpt lat="43.010433" lon="-4.693133">
        <ele>3810.0</ele>
        <time>2013-09-04T14:23:25Z</time>
      </trkpt>
      <trkpt lat="43.010317" lon="-4.693083">
        <ele>3811.0</ele>
        <time>2013-09-04T14:23:26Z</time>
      </trkpt>
      <trkpt lat="43.010217" lon="-4.693033">
        <ele>3813.0</ele>
        <time>2013-09-04T14:23:27Z</time>
      </trkpt>
      <trkpt lat="43.010117" lon="-4.692967">
        <ele>3814.0</ele>
        <time>2013-09-04T14:23:28Z</time>
      </trkpt>
      <trkpt lat="43.010033" lon="-4.692917">
        <ele>3816.0</ele>
        <time>2013-09-04T14:23:29Z</time>
      </trkpt>
      <trkpt lat="43.009933" lon="-4.692867">
        <ele>3818.0</ele>
        <time>2013-09-04T14:23:30Z</time>
      </trkpt>
      <trkpt lat="43.009850" lon="-4.692833">
        <ele>3819.0</ele>
        <time>2013-09-04T14:23:31Z</time>
      </trkpt>
      <trkpt lat="43.009767" lon="-4.692800">
        <ele>3821.0</ele>
        <time>2013-09-04T14:23:32Z</time>
      </trkpt>
      <trkpt lat="43.009683" lon="-4.692783">
        <ele>3823.0</ele>
        <time>2013-09-04T14:23:33Z</time>
      </trkpt>
      <trkpt lat="43.009617" lon="-4.692767">
        <ele>3825.0</ele>
        <time>2013-09-04T14:23:34Z</time>
      </trkpt>
      <trkpt lat="43.009550" lon="-4.692733">
        <ele>3827.0</ele>
        <time>2013-09-04T14:23:35Z</time>
      </trkpt>
      <trkpt lat="43.009483" lon="-4.692700">
        <ele>3829.0</ele>
        <time>2013-09-04T14:23:36Z</time>
      </trkpt>
      <trkpt lat="43.009417" lon="-4.692667">
        <ele>3830.0</ele>
        <time>2013-09-04T14:23:37Z</time>
      </trkpt>
      <trkpt lat="43.009367" lon="-4.692617">
        <ele>3831.0</ele>
        <time>2013-09-04T14:23:38Z</time>
      </trkpt>
      <trkpt lat="43.009283" lon="-4.692583">
        <ele>3830.0</ele>
        <time>2013-09-04T14:23:39Z</time>
      </trkpt>
      <trkpt lat="43.009200" lon="-4.692567">
        <ele>3830.0</ele>
        <time>2013-09-04T14:23:40Z</time>
      </trkpt>
      <trkpt lat="43.009117" lon="-4.692550">
        <ele>3831.0</ele>
        <time>2013-09-04T14:23:41Z</time>
      </trkpt>
      <trkpt lat="43.009033" lon="-4.692517">
        <ele>3833.0</ele>
        <time>2013-09-04T14:23:42Z</time>
      </trkpt>
      <trkpt lat="43.008967" lon="-4.692483">
        <ele>3835.0</ele>
        <time>2013-09-04T14:23:43Z</time>
      </trkpt>
      <trkpt lat="43.008900" lon="-4.692433">
        <ele>3838.0</ele>
        <time>2013-09-04T14:23:44Z</time>
      </trkpt>
      <trkpt lat="43.008850" lon="-4.692383">
        <ele>3840.0</ele>
        <time>2013-09-04T14:23:45Z</time>
      </trkpt>
      <trkpt lat="43.008783" lon="-4.692333">
        <ele>3843.0</ele>
        <time>2013-09-04T14:23:46Z</time>
      </trkpt>
      <trkpt lat="43.008717" lon="-4.692267">
        <ele>3845.0</ele>
        <time>2013-09-04T14:23:47Z</time>
      </trkpt>
      <trkpt lat="43.008650" lon="-4.692200">
        <ele>3848.0</ele>
        <time>2013-09-04T14:23:48Z</time>
      </trkpt>
      <trkpt lat="43.008600" lon="-4.692117">
        <ele>3852.0</ele>
        <time>2013-09-04T14:23:49Z</time>
      </trkpt>
      <trkpt lat="43.008550" lon="-4.692017">
        <ele>3855.0</ele>
        <time>2013-09-04T14:23:50Z</time>
      </trkpt>
      <trkpt lat="43.008517" lon="-4.691917">
        <ele>3858.0</ele>
        <time>2013-09-04T14:23:51Z</time>
      </trkpt>
      <trkpt lat="43.008467" lon="-4.691817">
        <ele>3861.0</ele>
        <time>2013-09-04T14:23:52Z</time>
      </trkpt>
      <trkpt lat="43.008433" lon="-4.691700">
        <ele>3864.0</ele>
        <time>2013-09-04T14:23:53Z</time>
      </trkpt>
      <trkpt lat="43.008400" lon="-4.691583">
        <ele>3867.0</ele>
        <time>2013-09-04T14:23:54Z</time>
      </trkpt>
      <trkpt lat="43.008383" lon="-4.691450">
        <ele>3870.0</ele>
        <time>2013-09-04T14:23:55Z</time>
      </trkpt>
      <trkpt lat="43.008383" lon="-4.691317">
        <ele>3872.0</ele>
        <time>2013-09-04T14:23:56Z</time>
      </trkpt>
      <trkpt lat="43.008367" lon="-4.691200">
        <ele>3875.0</ele>
        <time>2013-09-04T14:23:57Z</time>
      </trkpt>
      <trkpt lat="43.008383" lon="-4.691050">
        <ele>3877.0</ele>
        <time>2013-09-04T14:23:58Z</time>
      </trkpt>
      <trkpt lat="43.008383" lon="-4.690917">
        <ele>3878.0</ele>
        <time>2013-09-04T14:23:59Z</time>
      </trkpt>
      <trkpt lat="43.008417" lon="-4.690767">
        <ele>3880.0</ele>
        <time>2013-09-04T14:24:00Z</time>
      </trkpt>
      <trkpt lat="43.008450" lon="-4.690633">
        <ele>3881.0</ele>
        <time>2013-09-04T14:24:01Z</time>
      </trkpt>
      <trkpt lat="43.008500" lon="-4.690517">
        <ele>3882.0</ele>
        <time>2013-09-04T14:24:02Z</time>
      </trkpt>
      <trkpt lat="43.008567" lon="-4.690417">
        <ele>3884.0</ele>
        <time>2013-09-04T14:24:03Z</time>
      </trkpt>
      <trkpt lat="43.008633" lon="-4.690333">
        <ele>3885.0</ele>
        <time>2013-09-04T14:24:04Z</time>
      </trkpt>
      <trkpt lat="43.008717" lon="-4.690267">
        <ele>3886.0</ele>
        <time>2013-09-04T14:24:05Z</time>
      </trkpt>
      <trkpt lat="43.008817" lon="-4.690233">
        <ele>3887.0</ele>
        <time>2013-09-04T14:24:06Z</time>
      </trkpt>
      <trkpt lat="43.008900" lon="-4.690233">
        <ele>3889.0</ele>
        <time>2013-09-04T14:24:07Z</time>
      </trkpt>
      <trkpt lat="43.008983" lon="-4.690250">
        <ele>3891.0</ele>
        <time>2013-09-04T14:24:08Z</time>
      </trkpt>
      <trkpt lat="43.009050" lon="-4.690300">
        <ele>3893.0</ele>
        <time>2013-09-04T14:24:09Z</time>
      </trkpt>
      <trkpt lat="43.009083" lon="-4.690350">
        <ele>3895.0</ele>
        <time>2013-09-04T14:24:10Z</time>
      </trkpt>
      <trkpt lat="43.009100" lon="-4.690433">
        <ele>3896.0</ele>
        <time>2013-09-04T14:24:11Z</time>
      </trkpt>
      <trkpt lat="43.009100" lon="-4.690517">
        <ele>3898.0</ele>
        <time>2013-09-04T14:24:12Z</time>
      </trkpt>
      <trkpt lat="43.009100" lon="-4.690600">
        <ele>3900.0</ele>
        <time>2013-09-04T14:24:13Z</time>
      </trkpt>
      <trkpt lat="43.009067" lon="-4.690667">
        <ele>3902.0</ele>
        <time>2013-09-04T14:24:14Z</time>
      </trkpt>
      <trkpt lat="43.009033" lon="-4.690733">
        <ele>3903.0</ele>
        <time>2013-09-04T14:24:15Z</time>
      </trkpt>
      <trkpt lat="43.008983" lon="-4.690783">
        <ele>3904.0</ele>
        <time>2013-09-04T14:24:16Z</time>
      </trkpt>
      <trkpt lat="43.008917" lon="-4.690817">
        <ele>3906.0</ele>
        <time>2013-09-04T14:24:17Z</time>
      </trkpt>
      <trkpt lat="43.008833" lon="-4.690850">
        <ele>3908.0</ele>
        <time>2013-09-04T14:24:18Z</time>
      </trkpt>
      <trkpt lat="43.008767" lon="-4.690867">
        <ele>3910.0</ele>
        <time>2013-09-04T14:24:19Z</time>
      </trkpt>
      <trkpt lat="43.008683" lon="-4.690867">
        <ele>3913.0</ele>
        <time>2013-09-04T14:24:20Z</time>
      </trkpt>
      <trkpt lat="43.008617" lon="-4.690850">
        <ele>3915.0</ele>
        <time>2013-09-04T14:24:21Z</time>
      </trkpt>
      <trkpt lat="43.008533" lon="-4.690817">
        <ele>3917.0</ele>
        <time>2013-09-04T14:24:22Z</time>
      </trkpt>
      <trkpt lat="43.008450" lon="-4.690783">
        <ele>3919.0</ele>
        <time>2013-09-04T14:24:23Z</time>
      </trkpt>
      <trkpt lat="43.008383" lon="-4.690733">
        <ele>3922.0</ele>
        <time>2013-09-04T14:24:24Z</time>
      </trkpt>
      <trkpt lat="43.008317" lon="-4.690700">
        <ele>3925.0</ele>
        <time>2013-09-04T14:24:25Z</time>
      </trkpt>
      <trkpt lat="43.008250" lon="-4.690667">
        <ele>3927.0</ele>
        <time>2013-09-04T14:24:26Z</time>
      </trkpt>
      <trkpt lat="43.008200" lon="-4.690633">
        <ele>3929.0</ele>
        <time>2013-09-04T14:24:27Z</time>
      </trkpt>
      <trkpt lat="43.008133" lon="-4.690583">
        <ele>3930.0</ele>
        <time>2013-09-04T14:24:28Z</time>
      </trkpt>
      <trkpt lat="43.008050" lon="-4.690550">
        <ele>3932.0</ele>
        <time>2013-09-04T14:24:29Z</time>
      </trkpt>
      <trkpt lat="43.007983" lon="-4.690483">
        <ele>3933.0</ele>
        <time>2013-09-04T14:24:30Z</time>
      </trkpt>
      <trkpt lat="43.007917" lon="-4.690417">
        <ele>3934.0</ele>
        <time>2013-09-04T14:24:31Z</time>
      </trkpt>
      <trkpt lat="43.007867" lon="-4.690350">
        <ele>3935.0</ele>
        <time>2013-09-04T14:24:32Z</time>
      </trkpt>
      <trkpt lat="43.007817" lon="-4.690267">
        <ele>3936.0</ele>
        <time>2013-09-04T14:24:33Z</time>
      </trkpt>
      <trkpt lat="43.007767" lon="-4.690183">
        <ele>3937.0</ele>
        <time>2013-09-04T14:24:34Z</time>
      </trkpt>
      <trkpt lat="43.007700" lon="-4.690117">
        <ele>3937.0</ele>
        <time>2013-09-04T14:24:35Z</time>
      </trkpt>
      <trkpt lat="43.007633" lon="-4.690033">
        <ele>3936.0</ele>
        <time>2013-09-04T14:24:36Z</time>
      </trkpt>
      <trkpt lat="43.007567" lon="-4.689950">
        <ele>3936.0</ele>
        <time>2013-09-04T14:24:37Z</time>
      </trkpt>
      <trkpt lat="43.007500" lon="-4.689833">
        <ele>3935.0</ele>
        <time>2013-09-04T14:24:38Z</time>
      </trkpt>
      <trkpt lat="43.007417" lon="-4.689733">
        <ele>3932.0</ele>
        <time>2013-09-04T14:24:39Z</time>
      </trkpt>
      <trkpt lat="43.007317" lon="-4.689617">
        <ele>3930.0</ele>
        <time>2013-09-04T14:24:40Z</time>
      </trkpt>
      <trkpt lat="43.007217" lon="-4.689517">
        <ele>3930.0</ele>
        <time>2013-09-04T14:24:41Z</time>
      </trkpt>
      <trkpt lat="43.007117" lon="-4.689433">
        <ele>3929.0</ele>
        <time>2013-09-04T14:24:42Z</time>
      </trkpt>
      <trkpt lat="43.007033" lon="-4.689367">
        <ele>3929.0</ele>
        <time>2013-09-04T14:24:43Z</time>
      </trkpt>
      <trkpt lat="43.006950" lon="-4.689300">
        <ele>3929.0</ele>
        <time>2013-09-04T14:24:44Z</time>
      </trkpt>
      <trkpt lat="43.006883" lon="-4.689250">
        <ele>3928.0</ele>
        <time>2013-09-04T14:24:45Z</time>
      </trkpt>
      <trkpt lat="43.006783" lon="-4.689167">
        <ele>3925.0</ele>
        <time>2013-09-04T14:24:46Z</time>
      </trkpt>
      <trkpt lat="43.006683" lon="-4.689083">
        <ele>3924.0</ele>
        <time>2013-09-04T14:24:47Z</time>
      </trkpt>
      <trkpt lat="43.006583" lon="-4.689000">
        <ele>3924.0</ele>
        <time>2013-09-04T14:24:48Z</time>
      </trkpt>
      <trkpt lat="43.006517" lon="-4.688900">
        <ele>3925.0</ele>
        <time>2013-09-04T14:24:49Z</time>
      </trkpt>
      <trkpt lat="43.006433" lon="-4.688817">
        <ele>3927.0</ele>
        <time>2013-09-04T14:24:50Z</time>
      </trkpt>
      <trkpt lat="43.006383" lon="-4.688717">
        <ele>3929.0</ele>
        <time>2013-09-04T14:24:51Z</time>
      </trkpt>
      <trkpt lat="43.006317" lon="-4.688617">
        <ele>3929.0</ele>
        <time>2013-09-04T14:24:52Z</time>
      </trkpt>
      <trkpt lat="43.006250" lon="-4.688533">
        <ele>3929.0</ele>
        <time>2013-09-04T14:24:53Z</time>
      </trkpt>
      <trkpt lat="43.006167" lon="-4.688450">
        <ele>3927.0</ele>
        <time>2013-09-04T14:24:54Z</time>
      </trkpt>
      <trkpt lat="43.006067" lon="-4.688383">
        <ele>3927.0</ele>
        <time>2013-09-04T14:24:55Z</time>
      </trkpt>
      <trkpt lat="43.005983" lon="-4.688317">
        <ele>3927.0</ele>
        <time>2013-09-04T14:24:56Z</time>
      </trkpt>
      <trkpt lat="43.005917" lon="-4.688283">
        <ele>3929.0</ele>
        <time>2013-09-04T14:24:57Z</time>
      </trkpt>
      <trkpt lat="43.005867" lon="-4.688283">
        <ele>3929.0</ele>
        <time>2013-09-04T14:24:58Z</time>
      </trkpt>
      <trkpt lat="43.005817" lon="-4.688283">
        <ele>3927.0</ele>
        <time>2013-09-04T14:24:59Z</time>
      </trkpt>
      <trkpt lat="43.005750" lon="-4.688317">
        <ele>3925.0</ele>
        <time>2013-09-04T14:25:00Z</time>
      </trkpt>
      <trkpt lat="43.005683" lon="-4.688300">
        <ele>3922.0</ele>
        <time>2013-09-04T14:25:01Z</time>
      </trkpt>
      <trkpt lat="43.005583" lon="-4.688283">
        <ele>3920.0</ele>
        <time>2013-09-04T14:25:02Z</time>
      </trkpt>
      <trkpt lat="43.005500" lon="-4.688250">
        <ele>3918.0</ele>
        <time>2013-09-04T14:25:03Z</time>
      </trkpt>
      <trkpt lat="43.005433" lon="-4.688233">
        <ele>3918.0</ele>
        <time>2013-09-04T14:25:04Z</time>
      </trkpt>
      <trkpt lat="43.005367" lon="-4.688217">
        <ele>3917.0</ele>
        <time>2013-09-04T14:25:05Z</time>
      </trkpt>
      <trkpt lat="43.005283" lon="-4.688183">
        <ele>3914.0</ele>
        <time>2013-09-04T14:25:06Z</time>
      </trkpt>
      <trkpt lat="43.005200" lon="-4.688150">
        <ele>3911.0</ele>
        <time>2013-09-04T14:25:07Z</time>
      </trkpt>
      <trkpt lat="43.005117" lon="-4.688100">
        <ele>3907.0</ele>
        <time>2013-09-04T14:25:08Z</time>
      </trkpt>
      <trkpt lat="43.005000" lon="-4.688033">
        <ele>3904.0</ele>
        <time>2013-09-04T14:25:09Z</time>
      </trkpt>
      <trkpt lat="43.004900" lon="-4.687983">
        <ele>3902.0</ele>
        <time>2013-09-04T14:25:10Z</time>
      </trkpt>
      <trkpt lat="43.004800" lon="-4.687917">
        <ele>3901.0</ele>
        <time>2013-09-04T14:25:11Z</time>
      </trkpt>
      <trkpt lat="43.004700" lon="-4.687867">
        <ele>3900.0</ele>
        <time>2013-09-04T14:25:12Z</time>
      </trkpt>
      <trkpt lat="43.004633" lon="-4.687817">
        <ele>3899.0</ele>
        <time>2013-09-04T14:25:13Z</time>
      </trkpt>
      <trkpt lat="43.004567" lon="-4.687783">
        <ele>3897.0</ele>
        <time>2013-09-04T14:25:14Z</time>
      </trkpt>
      <trkpt lat="43.004500" lon="-4.687767">
        <ele>3894.0</ele>
        <time>2013-09-04T14:25:15Z</time>
      </trkpt>
      <trkpt lat="43.004417" lon="-4.687750">
        <ele>3890.0</ele>
        <time>2013-09-04T14:25:16Z</time>
      </trkpt>
      <trkpt lat="43.004333" lon="-4.687717">
        <ele>3886.0</ele>
        <time>2013-09-04T14:25:17Z</time>
      </trkpt>
      <trkpt lat="43.004250" lon="-4.687667">
        <ele>3883.0</ele>
        <time>2013-09-04T14:25:18Z</time>
      </trkpt>
      <trkpt lat="43.004150" lon="-4.687600">
        <ele>3881.0</ele>
        <time>2013-09-04T14:25:19Z</time>
      </trkpt>
      <trkpt lat="43.004067" lon="-4.687550">
        <ele>3879.0</ele>
        <time>2013-09-04T14:25:20Z</time>
      </trkpt>
      <trkpt lat="43.004000" lon="-4.687517">
        <ele>3877.0</ele>
        <time>2013-09-04T14:25:21Z</time>
      </trkpt>
      <trkpt lat="43.003917" lon="-4.687467">
        <ele>3876.0</ele>
        <time>2013-09-04T14:25:22Z</time>
      </trkpt>
      <trkpt lat="43.003850" lon="-4.687417">
        <ele>3874.0</ele>
        <time>2013-09-04T14:25:23Z</time>
      </trkpt>
      <trkpt lat="43.003783" lon="-4.687367">
        <ele>3871.0</ele>
        <time>2013-09-04T14:25:24Z</time>
      </trkpt>
      <trkpt lat="43.003700" lon="-4.687333">
        <ele>3869.0</ele>
        <time>2013-09-04T14:25:25Z</time>
      </trkpt>
      <trkpt lat="43.003617" lon="-4.687300">
        <ele>3866.0</ele>
        <time>2013-09-04T14:25:26Z</time>
      </trkpt>
      <trkpt lat="43.003533" lon="-4.687267">
        <ele>3864.0</ele>
        <time>2013-09-04T14:25:27Z</time>
      </trkpt>
      <trkpt lat="43.003467" lon="-4.687217">
        <ele>3863.0</ele>
        <time>2013-09-04T14:25:28Z</time>
      </trkpt>
      <trkpt lat="43.003400" lon="-4.687167">
        <ele>3862.0</ele>
        <time>2013-09-04T14:25:29Z</time>
      </trkpt>
      <trkpt lat="43.003350" lon="-4.687117">
        <ele>3860.0</ele>
        <time>2013-09-04T14:25:30Z</time>
      </trkpt>
      <trkpt lat="43.003283" lon="-4.687050">
        <ele>3858.0</ele>
        <time>2013-09-04T14:25:31Z</time>
      </trkpt>
      <trkpt lat="43.003200" lon="-4.686983">
        <ele>3855.0</ele>
        <time>2013-09-04T14:25:32Z</time>
      </trkpt>
      <trkpt lat="43.003117" lon="-4.686900">
        <ele>3852.0</ele>
        <time>2013-09-04T14:25:33Z</time>
      </trkpt>
      <trkpt lat="43.003017" lon="-4.686800">
        <ele>3849.0</ele>
        <time>2013-09-04T14:25:34Z</time>
      </trkpt>
      <trkpt lat="43.002933" lon="-4.686700">
        <ele>3848.0</ele>
        <time>2013-09-04T14:25:35Z</time>
      </trkpt>
      <trkpt lat="43.002850" lon="-4.686617">
        <ele>3846.0</ele>
        <time>2013-09-04T14:25:36Z</time>
      </trkpt>
      <trkpt lat="43.002783" lon="-4.686533">
        <ele>3844.0</ele>
        <time>2013-09-04T14:25:37Z</time>
      </trkpt>
      <trkpt lat="43.002700" lon="-4.686467">
        <ele>3842.0</ele>
        <time>2013-09-04T14:25:38Z</time>
      </trkpt>
      <trkpt lat="43.002617" lon="-4.686400">
        <ele>3838.0</ele>
        <time>2013-09-04T14:25:39Z</time>
      </trkpt>
      <trkpt lat="43.002533" lon="-4.686333">
        <ele>3835.0</ele>
        <time>2013-09-04T14:25:40Z</time>
      </trkpt>
      <trkpt lat="43.002450" lon="-4.686250">
        <ele>3831.0</ele>
        <time>2013-09-04T14:25:41Z</time>
      </trkpt>
      <trkpt lat="43.002367" lon="-4.686183">
        <ele>3828.0</ele>
        <time>2013-09-04T14:25:42Z</time>
      </trkpt>
      <trkpt lat="43.002300" lon="-4.686117">
        <ele>3826.0</ele>
        <time>2013-09-04T14:25:43Z</time>
      </trkpt>
      <trkpt lat="43.002217" lon="-4.686067">
        <ele>3825.0</ele>
        <time>2013-09-04T14:25:44Z</time>
      </trkpt>
      <trkpt lat="43.002150" lon="-4.686033">
        <ele>3823.0</ele>
        <time>2013-09-04T14:25:45Z</time>
      </trkpt>
      <trkpt lat="43.002083" lon="-4.685983">
        <ele>3821.0</ele>
        <time>2013-09-04T14:25:46Z</time>
      </trkpt>
      <trkpt lat="43.002000" lon="-4.685950">
        <ele>3821.0</ele>
        <time>2013-09-04T14:25:47Z</time>
      </trkpt>
      <trkpt lat="43.001933" lon="-4.685917">
        <ele>3819.0</ele>
        <time>2013-09-04T14:25:48Z</time>
      </trkpt>
      <trkpt lat="43.001867" lon="-4.685900">
        <ele>3817.0</ele>
        <time>2013-09-04T14:25:49Z</time>
      </trkpt>
      <trkpt lat="43.001800" lon="-4.685883">
        <ele>3815.0</ele>
        <time>2013-09-04T14:25:50Z</time>
      </trkpt>
      <trkpt lat="43.001733" lon="-4.685867">
        <ele>3813.0</ele>
        <time>2013-09-04T14:25:51Z</time>
      </trkpt>
      <trkpt lat="43.001667" lon="-4.685833">
        <ele>3811.0</ele>
        <time>2013-09-04T14:25:52Z</time>
      </trkpt>
      <trkpt lat="43.001600" lon="-4.685783">
        <ele>3808.0</ele>
        <time>2013-09-04T14:25:53Z</time>
      </trkpt>
      <trkpt lat="43.001550" lon="-4.685750">
        <ele>3806.0</ele>
        <time>2013-09-04T14:25:54Z</time>
      </trkpt>
      <trkpt lat="43.001483" lon="-4.685700">
        <ele>3805.0</ele>
        <time>2013-09-04T14:25:55Z</time>
      </trkpt>
      <trkpt lat="43.001433" lon="-4.685683">
        <ele>3803.0</ele>
        <time>2013-09-04T14:25:56Z</time>
      </trkpt>
      <trkpt lat="43.001383" lon="-4.685667">
        <ele>3800.0</ele>
        <time>2013-09-04T14:25:57Z</time>
      </trkpt>
      <trkpt lat="43.001333" lon="-4.685650">
        <ele>3797.0</ele>
        <time>2013-09-04T14:25:58Z</time>
      </trkpt>
      <trkpt lat="43.001267" lon="-4.685600">
        <ele>3794.0</ele>
        <time>2013-09-04T14:25:59Z</time>
      </trkpt>
      <trkpt lat="43.001183" lon="-4.685567">
        <ele>3791.0</ele>
        <time>2013-09-04T14:26:00Z</time>
      </trkpt>
      <trkpt lat="43.001117" lon="-4.685533">
        <ele>3790.0</ele>
        <time>2013-09-04T14:26:01Z</time>
      </trkpt>
      <trkpt lat="43.001033" lon="-4.685517">
        <ele>3788.0</ele>
        <time>2013-09-04T14:26:02Z</time>
      </trkpt>
      <trkpt lat="43.000967" lon="-4.685483">
        <ele>3786.0</ele>
        <time>2013-09-04T14:26:03Z</time>
      </trkpt>
      <trkpt lat="43.000900" lon="-4.685450">
        <ele>3783.0</ele>
        <time>2013-09-04T14:26:04Z</time>
      </trkpt>
      <trkpt lat="43.000817" lon="-4.685417">
        <ele>3779.0</ele>
        <time>2013-09-04T14:26:05Z</time>
      </trkpt>
      <trkpt lat="43.000733" lon="-4.685367">
        <ele>3775.0</ele>
        <time>2013-09-04T14:26:06Z</time>
      </trkpt>
      <trkpt lat="43.000650" lon="-4.685333">
        <ele>3772.0</ele>
        <time>2013-09-04T14:26:07Z</time>
      </trkpt>
      <trkpt lat="43.000567" lon="-4.685300">
        <ele>3770.0</ele>
        <time>2013-09-04T14:26:08Z</time>
      </trkpt>
      <trkpt lat="43.000483" lon="-4.685283">
        <ele>3768.0</ele>
        <time>2013-09-04T14:26:09Z</time>
      </trkpt>
      <trkpt lat="43.000417" lon="-4.685233">
        <ele>3766.0</ele>
        <time>2013-09-04T14:26:10Z</time>
      </trkpt>
      <trkpt lat="43.000333" lon="-4.685183">
        <ele>3763.0</ele>
        <time>2013-09-04T14:26:11Z</time>
      </trkpt>
      <trkpt lat="43.000250" lon="-4.685133">
        <ele>3760.0</ele>
        <time>2013-09-04T14:26:12Z</time>
      </trkpt>
      <trkpt lat="43.000167" lon="-4.685100">
        <ele>3756.0</ele>
        <time>2013-09-04T14:26:13Z</time>
      </trkpt>
      <trkpt lat="43.000067" lon="-4.685067">
        <ele>3754.0</ele>
        <time>2013-09-04T14:26:14Z</time>
      </trkpt>
      <trkpt lat="42.999967" lon="-4.685050">
        <ele>3752.0</ele>
        <time>2013-09-04T14:26:15Z</time>
      </trkpt>
      <trkpt lat="42.999883" lon="-4.685017">
        <ele>3751.0</ele>
        <time>2013-09-04T14:26:16Z</time>
      </trkpt>
      <trkpt lat="42.999800" lon="-4.684967">
        <ele>3749.0</ele>
        <time>2013-09-04T14:26:17Z</time>
      </trkpt>
      <trkpt lat="42.999717" lon="-4.684917">
        <ele>3746.0</ele>
        <time>2013-09-04T14:26:18Z</time>
      </trkpt>
      <trkpt lat="42.999633" lon="-4.684883">
        <ele>3742.0</ele>
        <time>2013-09-04T14:26:19Z</time>
      </trkpt>
      <trkpt lat="42.999517" lon="-4.684833">
        <ele>3738.0</ele>
        <time>2013-09-04T14:26:20Z</time>
      </trkpt>
      <trkpt lat="42.999417" lon="-4.684817">
        <ele>3735.0</ele>
        <time>2013-09-04T14:26:21Z</time>
      </trkpt>
      <trkpt lat="42.999317" lon="-4.684800">
        <ele>3733.0</ele>
        <time>2013-09-04T14:26:22Z</time>
      </trkpt>
      <trkpt lat="42.999217" lon="-4.684783">
        <ele>3731.0</ele>
        <time>2013-09-04T14:26:23Z</time>
      </trkpt>
      <trkpt lat="42.999117" lon="-4.684767">
        <ele>3729.0</ele>
        <time>2013-09-04T14:26:24Z</time>
      </trkpt>
      <trkpt lat="42.999017" lon="-4.684767">
        <ele>3726.0</ele>
        <time>2013-09-04T14:26:25Z</time>
      </trkpt>
      <trkpt lat="42.998917" lon="-4.684767">
        <ele>3723.0</ele>
        <time>2013-09-04T14:26:26Z</time>
      </trkpt>
      <trkpt lat="42.998800" lon="-4.684750">
        <ele>3720.0</ele>
        <time>2013-09-04T14:26:27Z</time>
      </trkpt>
      <trkpt lat="42.998700" lon="-4.684733">
        <ele>3719.0</ele>
        <time>2013-09-04T14:26:28Z</time>
      </trkpt>
      <trkpt lat="42.998600" lon="-4.684733">
        <ele>3718.0</ele>
        <time>2013-09-04T14:26:29Z</time>
      </trkpt>
      <trkpt lat="42.998500" lon="-4.684750">
        <ele>3717.0</ele>
        <time>2013-09-04T14:26:30Z</time>
      </trkpt>
      <trkpt lat="42.998417" lon="-4.684767">
        <ele>3715.0</ele>
        <time>2013-09-04T14:26:31Z</time>
      </trkpt>
      <trkpt lat="42.998317" lon="-4.684800">
        <ele>3712.0</ele>
        <time>2013-09-04T14:26:32Z</time>
      </trkpt>
      <trkpt lat="42.998217" lon="-4.684800">
        <ele>3709.0</ele>
        <time>2013-09-04T14:26:33Z</time>
      </trkpt>
      <trkpt lat="42.998117" lon="-4.684767">
        <ele>3705.0</ele>
        <time>2013-09-04T14:26:34Z</time>
      </trkpt>
      <trkpt lat="42.998017" lon="-4.684733">
        <ele>3701.0</ele>
        <time>2013-09-04T14:26:35Z</time>
      </trkpt>
      <trkpt lat="42.997900" lon="-4.684700">
        <ele>3698.0</ele>
        <time>2013-09-04T14:26:36Z</time>
      </trkpt>
      <trkpt lat="42.997800" lon="-4.684683">
        <ele>3696.0</ele>
        <time>2013-09-04T14:26:37Z</time>
      </trkpt>
      <trkpt lat="42.997700" lon="-4.684683">
        <ele>3694.0</ele>
        <time>2013-09-04T14:26:38Z</time>
      </trkpt>
      <trkpt lat="42.997600" lon="-4.684683">
        <ele>3692.0</ele>
        <time>2013-09-04T14:26:39Z</time>
      </trkpt>
      <trkpt lat="42.997517" lon="-4.684650">
        <ele>3689.0</ele>
        <time>2013-09-04T14:26:40Z</time>
      </trkpt>
      <trkpt lat="42.997417" lon="-4.684617">
        <ele>3685.0</ele>
        <time>2013-09-04T14:26:41Z</time>
      </trkpt>
      <trkpt lat="42.997300" lon="-4.684567">
        <ele>3682.0</ele>
        <time>2013-09-04T14:26:42Z</time>
      </trkpt>
      <trkpt lat="42.997200" lon="-4.684533">
        <ele>3679.0</ele>
        <time>2013-09-04T14:26:43Z</time>
      </trkpt>
      <trkpt lat="42.997117" lon="-4.684500">
        <ele>3677.0</ele>
        <time>2013-09-04T14:26:44Z</time>
      </trkpt>
      <trkpt lat="42.997017" lon="-4.684467">
        <ele>3674.0</ele>
        <time>2013-09-04T14:26:45Z</time>
      </trkpt>
      <trkpt lat="42.996917" lon="-4.684417">
        <ele>3671.0</ele>
        <time>2013-09-04T14:26:46Z</time>
      </trkpt>
      <trkpt lat="42.996817" lon="-4.684383">
        <ele>3667.0</ele>
        <time>2013-09-04T14:26:47Z</time>
      </trkpt>
      <trkpt lat="42.996717" lon="-4.684350">
        <ele>3665.0</ele>
        <time>2013-09-04T14:26:48Z</time>
      </trkpt>
      <trkpt lat="42.996617" lon="-4.684317">
        <ele>3663.0</ele>
        <time>2013-09-04T14:26:49Z</time>
      </trkpt>
      <trkpt lat="42.996517" lon="-4.684283">
        <ele>3662.0</ele>
        <time>2013-09-04T14:26:50Z</time>
      </trkpt>
      <trkpt lat="42.996433" lon="-4.684250">
        <ele>3660.0</ele>
        <time>2013-09-04T14:26:51Z</time>
      </trkpt>
      <trkpt lat="42.996350" lon="-4.684217">
        <ele>3658.0</ele>
        <time>2013-09-04T14:26:52Z</time>
      </trkpt>
      <trkpt lat="42.996267" lon="-4.684200">
        <ele>3657.0</ele>
        <time>2013-09-04T14:26:53Z</time>
      </trkpt>
      <trkpt lat="42.996167" lon="-4.684167">
        <ele>3652.0</ele>
        <time>2013-09-04T14:26:54Z</time>
      </trkpt>
      <trkpt lat="42.996083" lon="-4.684133">
        <ele>3648.0</ele>
        <time>2013-09-04T14:26:55Z</time>
      </trkpt>
      <trkpt lat="42.995983" lon="-4.684100">
        <ele>3645.0</ele>
        <time>2013-09-04T14:26:56Z</time>
      </trkpt>
      <trkpt lat="42.995883" lon="-4.684067">
        <ele>3642.0</ele>
        <time>2013-09-04T14:26:57Z</time>
      </trkpt>
      <trkpt lat="42.995783" lon="-4.684033">
        <ele>3640.0</ele>
        <time>2013-09-04T14:26:58Z</time>
      </trkpt>
      <trkpt lat="42.995700" lon="-4.684017">
        <ele>3637.0</ele>
        <time>2013-09-04T14:26:59Z</time>
      </trkpt>
      <trkpt lat="42.995600" lon="-4.684000">
        <ele>3635.0</ele>
        <time>2013-09-04T14:27:00Z</time>
      </trkpt>
      <trkpt lat="42.995500" lon="-4.683967">
        <ele>3632.0</ele>
        <time>2013-09-04T14:27:01Z</time>
      </trkpt>
      <trkpt lat="42.995417" lon="-4.683933">
        <ele>3630.0</ele>
        <time>2013-09-04T14:27:02Z</time>
      </trkpt>
      <trkpt lat="42.995317" lon="-4.683900">
        <ele>3628.0</ele>
        <time>2013-09-04T14:27:03Z</time>
      </trkpt>
      <trkpt lat="42.995233" lon="-4.683867">
        <ele>3626.0</ele>
        <time>2013-09-04T14:27:04Z</time>
      </trkpt>
      <trkpt lat="42.995150" lon="-4.683833">
        <ele>3625.0</ele>
        <time>2013-09-04T14:27:05Z</time>
      </trkpt>
      <trkpt lat="42.995067" lon="-4.683800">
        <ele>3623.0</ele>
        <time>2013-09-04T14:27:06Z</time>
      </trkpt>
      <trkpt lat="42.995000" lon="-4.683767">
        <ele>3622.0</ele>
        <time>2013-09-04T14:27:07Z</time>
      </trkpt>
      <trkpt lat="42.994933" lon="-4.683733">
        <ele>3620.0</ele>
        <time>2013-09-04T14:27:08Z</time>
      </trkpt>
      <trkpt lat="42.994867" lon="-4.683650">
        <ele>3618.0</ele>
        <time>2013-09-04T14:27:09Z</time>
      </trkpt>
      <trkpt lat="42.994800" lon="-4.683567">
        <ele>3616.0</ele>
        <time>2013-09-04T14:27:10Z</time>
      </trkpt>
      <trkpt lat="42.994733" lon="-4.683483">
        <ele>3615.0</ele>
        <time>2013-09-04T14:27:11Z</time>
      </trkpt>
      <trkpt lat="42.994683" lon="-4.683367">
        <ele>3615.0</ele>
        <time>2013-09-04T14:27:12Z</time>
      </trkpt>
      <trkpt lat="42.994633" lon="-4.683267">
        <ele>3615.0</ele>
        <time>2013-09-04T14:27:13Z</time>
      </trkpt>
      <trkpt lat="42.994583" lon="-4.683167">
        <ele>3616.0</ele>
        <time>2013-09-04T14:27:14Z</time>
      </trkpt>
      <trkpt lat="42.994550" lon="-4.683083">
        <ele>3616.0</ele>
        <time>2013-09-04T14:27:15Z</time>
      </trkpt>
      <trkpt lat="42.994500" lon="-4.683017">
        <ele>3617.0</ele>
        <time>2013-09-04T14:27:16Z</time>
      </trkpt>
      <trkpt lat="42.994467" lon="-4.682950">
        <ele>3617.0</ele>
        <time>2013-09-04T14:27:17Z</time>
      </trkpt>
      <trkpt lat="42.994433" lon="-4.682883">
        <ele>3618.0</ele>
        <time>2013-09-04T14:27:18Z</time>
      </trkpt>
      <trkpt lat="42.994400" lon="-4.682833">
        <ele>3619.0</ele>
        <time>2013-09-04T14:27:19Z</time>
      </trkpt>
      <trkpt lat="42.994383" lon="-4.682767">
        <ele>3619.0</ele>
        <time>2013-09-04T14:27:20Z</time>
      </trkpt>
      <trkpt lat="42.994367" lon="-4.682700">
        <ele>3618.0</ele>
        <time>2013-09-04T14:27:21Z</time>
      </trkpt>
      <trkpt lat="42.994333" lon="-4.682650">
        <ele>3616.0</ele>
        <time>2013-09-04T14:27:22Z</time>
      </trkpt>
      <trkpt lat="42.994300" lon="-4.682583">
        <ele>3614.0</ele>
        <time>2013-09-04T14:27:23Z</time>
      </trkpt>
      <trkpt lat="42.994250" lon="-4.682517">
        <ele>3611.0</ele>
        <time>2013-09-04T14:27:24Z</time>
      </trkpt>
      <trkpt lat="42.994200" lon="-4.682450">
        <ele>3608.0</ele>
        <time>2013-09-04T14:27:25Z</time>
      </trkpt>
      <trkpt lat="42.994133" lon="-4.682383">
        <ele>3606.0</ele>
        <time>2013-09-04T14:27:26Z</time>
      </trkpt>
      <trkpt lat="42.994067" lon="-4.682333">
        <ele>3605.0</ele>
        <time>2013-09-04T14:27:27Z</time>
      </trkpt>
      <trkpt lat="42.994000" lon="-4.682267">
        <ele>3604.0</ele>
        <time>2013-09-04T14:27:28Z</time>
      </trkpt>
      <trkpt lat="42.993933" lon="-4.682217">
        <ele>3604.0</ele>
        <time>2013-09-04T14:27:29Z</time>
      </trkpt>
      <trkpt lat="42.993883" lon="-4.682167">
        <ele>3603.0</ele>
        <time>2013-09-04T14:27:30Z</time>
      </trkpt>
      <trkpt lat="42.993833" lon="-4.682133">
        <ele>3601.0</ele>
        <time>2013-09-04T14:27:31Z</time>
      </trkpt>
      <trkpt lat="42.993767" lon="-4.682083">
        <ele>3601.0</ele>
        <time>2013-09-04T14:27:32Z</time>
      </trkpt>
      <trkpt lat="42.993717" lon="-4.682017">
        <ele>3600.0</ele>
        <time>2013-09-04T14:27:33Z</time>
      </trkpt>
      <trkpt lat="42.993650" lon="-4.681967">
        <ele>3598.0</ele>
        <time>2013-09-04T14:27:34Z</time>
      </trkpt>
      <trkpt lat="42.993600" lon="-4.681917">
        <ele>3596.0</ele>
        <time>2013-09-04T14:27:35Z</time>
      </trkpt>
      <trkpt lat="42.993533" lon="-4.681867">
        <ele>3594.0</ele>
        <time>2013-09-04T14:27:36Z</time>
      </trkpt>
      <trkpt lat="42.993483" lon="-4.681800">
        <ele>3592.0</ele>
        <time>2013-09-04T14:27:37Z</time>
      </trkpt>
      <trkpt lat="42.993417" lon="-4.681717">
        <ele>3589.0</ele>
        <time>2013-09-04T14:27:38Z</time>
      </trkpt>
      <trkpt lat="42.993350" lon="-4.681617">
        <ele>3588.0</ele>
        <time>2013-09-04T14:27:39Z</time>
      </trkpt>
      <trkpt lat="42.993267" lon="-4.681550">
        <ele>3589.0</ele>
        <time>2013-09-04T14:27:40Z</time>
      </trkpt>
      <trkpt lat="42.993217" lon="-4.681517">
        <ele>3590.0</ele>
        <time>2013-09-04T14:27:41Z</time>
      </trkpt>
      <trkpt lat="42.993167" lon="-4.681483">
        <ele>3592.0</ele>
        <time>2013-09-04T14:27:42Z</time>
      </trkpt>
      <trkpt lat="42.993133" lon="-4.681467">
        <ele>3593.0</ele>
        <time>2013-09-04T14:27:43Z</time>
      </trkpt>
      <trkpt lat="42.993100" lon="-4.681417">
        <ele>3592.0</ele>
        <time>2013-09-04T14:27:44Z</time>
      </trkpt>
      <trkpt lat="42.993067" lon="-4.681367">
        <ele>3592.0</ele>
        <time>2013-09-04T14:27:45Z</time>
      </trkpt>
      <trkpt lat="42.993033" lon="-4.681300">
        <ele>3591.0</ele>
        <time>2013-09-04T14:27:46Z</time>
      </trkpt>
      <trkpt lat="42.993000" lon="-4.681233">
        <ele>3590.0</ele>
        <time>2013-09-04T14:27:47Z</time>
      </trkpt>
      <trkpt lat="42.992950" lon="-4.681167">
        <ele>3590.0</ele>
        <time>2013-09-04T14:27:48Z</time>
      </trkpt>
      <trkpt lat="42.992900" lon="-4.681100">
        <ele>3591.0</ele>
        <time>2013-09-04T14:27:49Z</time>
      </trkpt>
      <trkpt lat="42.992850" lon="-4.681067">
        <ele>3592.0</ele>
        <time>2013-09-04T14:27:50Z</time>
      </trkpt>
      <trkpt lat="42.992817" lon="-4.681033">
        <ele>3595.0</ele>
        <time>2013-09-04T14:27:51Z</time>
      </trkpt>
      <trkpt lat="42.992767" lon="-4.681033">
        <ele>3597.0</ele>
        <time>2013-09-04T14:27:52Z</time>
      </trkpt>
      <trkpt lat="42.992733" lon="-4.681017">
        <ele>3599.0</ele>
        <time>2013-09-04T14:27:53Z</time>
      </trkpt>
      <trkpt lat="42.992700" lon="-4.681017">
        <ele>3599.0</ele>
        <time>2013-09-04T14:27:54Z</time>
      </trkpt>
      <trkpt lat="42.992667" lon="-4.681000">
        <ele>3599.0</ele>
        <time>2013-09-04T14:27:55Z</time>
      </trkpt>
      <trkpt lat="42.992617" lon="-4.680983">
        <ele>3601.0</ele>
        <time>2013-09-04T14:27:56Z</time>
      </trkpt>
      <trkpt lat="42.992567" lon="-4.680950">
        <ele>3602.0</ele>
        <time>2013-09-04T14:27:57Z</time>
      </trkpt>
      <trkpt lat="42.992517" lon="-4.680917">
        <ele>3602.0</ele>
        <time>2013-09-04T14:27:58Z</time>
      </trkpt>
      <trkpt lat="42.992483" lon="-4.680883">
        <ele>3603.0</ele>
        <time>2013-09-04T14:27:59Z</time>
      </trkpt>
      <trkpt lat="42.992433" lon="-4.680833">
        <ele>3604.0</ele>
        <time>2013-09-04T14:28:00Z</time>
      </trkpt>
      <trkpt lat="42.992383" lon="-4.680800">
        <ele>3605.0</ele>
        <time>2013-09-04T14:28:01Z</time>
      </trkpt>
      <trkpt lat="42.992333" lon="-4.680750">
        <ele>3606.0</ele>
        <time>2013-09-04T14:28:02Z</time>
      </trkpt>
      <trkpt lat="42.992283" lon="-4.680717">
        <ele>3607.0</ele>
        <time>2013-09-04T14:28:03Z</time>
      </trkpt>
      <trkpt lat="42.992233" lon="-4.680683">
        <ele>3609.0</ele>
        <time>2013-09-04T14:28:04Z</time>
      </trkpt>
      <trkpt lat="42.992183" lon="-4.680650">
        <ele>3611.0</ele>
        <time>2013-09-04T14:28:05Z</time>
      </trkpt>
      <trkpt lat="42.992117" lon="-4.680617">
        <ele>3613.0</ele>
        <time>2013-09-04T14:28:06Z</time>
      </trkpt>
      <trkpt lat="42.992050" lon="-4.680583">
        <ele>3613.0</ele>
        <time>2013-09-04T14:28:07Z</time>
      </trkpt>
      <trkpt lat="42.992000" lon="-4.680567">
        <ele>3616.0</ele>
        <time>2013-09-04T14:28:08Z</time>
      </trkpt>
      <trkpt lat="42.991950" lon="-4.680533">
        <ele>3618.0</ele>
        <time>2013-09-04T14:28:09Z</time>
      </trkpt>
      <trkpt lat="42.991883" lon="-4.680517">
        <ele>3620.0</ele>
        <time>2013-09-04T14:28:10Z</time>
      </trkpt>
      <trkpt lat="42.991817" lon="-4.680500">
        <ele>3621.0</ele>
        <time>2013-09-04T14:28:11Z</time>
      </trkpt>
      <trkpt lat="42.991750" lon="-4.680500">
        <ele>3623.0</ele>
        <time>2013-09-04T14:28:12Z</time>
      </trkpt>
      <trkpt lat="42.991700" lon="-4.680483">
        <ele>3623.0</ele>
        <time>2013-09-04T14:28:13Z</time>
      </trkpt>
      <trkpt lat="42.991650" lon="-4.680467">
        <ele>3624.0</ele>
        <time>2013-09-04T14:28:14Z</time>
      </trkpt>
      <trkpt lat="42.991600" lon="-4.680450">
        <ele>3623.0</ele>
        <time>2013-09-04T14:28:15Z</time>
      </trkpt>
      <trkpt lat="42.991533" lon="-4.680417">
        <ele>3623.0</ele>
        <time>2013-09-04T14:28:16Z</time>
      </trkpt>
      <trkpt lat="42.991467" lon="-4.680350">
        <ele>3622.0</ele>
        <time>2013-09-04T14:28:17Z</time>
      </trkpt>
      <trkpt lat="42.991400" lon="-4.680283">
        <ele>3623.0</ele>
        <time>2013-09-04T14:28:18Z</time>
      </trkpt>
      <trkpt lat="42.991317" lon="-4.680200">
        <ele>3625.0</ele>
        <time>2013-09-04T14:28:19Z</time>
      </trkpt>
      <trkpt lat="42.991233" lon="-4.680150">
        <ele>3629.0</ele>
        <time>2013-09-04T14:28:20Z</time>
      </trkpt>
      <trkpt lat="42.991150" lon="-4.680100">
        <ele>3635.0</ele>
        <time>2013-09-04T14:28:21Z</time>
      </trkpt>
      <trkpt lat="42.991083" lon="-4.680067">
        <ele>3641.0</ele>
        <time>2013-09-04T14:28:22Z</time>
      </trkpt>
      <trkpt lat="42.991033" lon="-4.680050">
        <ele>3646.0</ele>
        <time>2013-09-04T14:28:23Z</time>
      </trkpt>
      <trkpt lat="42.991000" lon="-4.680050">
        <ele>3650.0</ele>
        <time>2013-09-04T14:28:24Z</time>
      </trkpt>
      <trkpt lat="42.990950" lon="-4.680050">
        <ele>3651.0</ele>
        <time>2013-09-04T14:28:25Z</time>
      </trkpt>
      <trkpt lat="42.990917" lon="-4.680017">
        <ele>3652.0</ele>
        <time>2013-09-04T14:28:26Z</time>
      </trkpt>
      <trkpt lat="42.990850" lon="-4.679950">
        <ele>3653.0</ele>
        <time>2013-09-04T14:28:27Z</time>
      </trkpt>
      <trkpt lat="42.990817" lon="-4.679833">
        <ele>3653.0</ele>
        <time>2013-09-04T14:28:28Z</time>
      </trkpt>
      <trkpt lat="42.990800" lon="-4.679717">
        <ele>3654.0</ele>
        <time>2013-09-04T14:28:29Z</time>
      </trkpt>
      <trkpt lat="42.990817" lon="-4.679600">
        <ele>3654.0</ele>
        <time>2013-09-04T14:28:30Z</time>
      </trkpt>
      <trkpt lat="42.990850" lon="-4.679483">
        <ele>3654.0</ele>
        <time>2013-09-04T14:28:31Z</time>
      </trkpt>
      <trkpt lat="42.990933" lon="-4.679367">
        <ele>3654.0</ele>
        <time>2013-09-04T14:28:32Z</time>
      </trkpt>
      <trkpt lat="42.991033" lon="-4.679267">
        <ele>3655.0</ele>
        <time>2013-09-04T14:28:33Z</time>
      </trkpt>
      <trkpt lat="42.991133" lon="-4.679200">
        <ele>3656.0</ele>
        <time>2013-09-04T14:28:34Z</time>
      </trkpt>
      <trkpt lat="42.991233" lon="-4.679183">
        <ele>3658.0</ele>
        <time>2013-09-04T14:28:35Z</time>
      </trkpt>
      <trkpt lat="42.991350" lon="-4.679167">
        <ele>3659.0</ele>
        <time>2013-09-04T14:28:36Z</time>
      </trkpt>
      <trkpt lat="42.991433" lon="-4.679167">
        <ele>3660.0</ele>
        <time>2013-09-04T14:28:37Z</time>
      </trkpt>
      <trkpt lat="42.991533" lon="-4.679183">
        <ele>3661.0</ele>
        <time>2013-09-04T14:28:38Z</time>
      </trkpt>
      <trkpt lat="42.991650" lon="-4.679217">
        <ele>3662.0</ele>
        <time>2013-09-04T14:28:39Z</time>
      </trkpt>
      <trkpt lat="42.991750" lon="-4.679267">
        <ele>3663.0</ele>
        <time>2013-09-04T14:28:40Z</time>
      </trkpt>
      <trkpt lat="42.991850" lon="-4.679350">
        <ele>3663.0</ele>
        <time>2013-09-04T14:28:41Z</time>
      </trkpt>
      <trkpt lat="42.991917" lon="-4.679450">
        <ele>3664.0</ele>
        <time>2013-09-04T14:28:42Z</time>
      </trkpt>
      <trkpt lat="42.991967" lon="-4.679567">
        <ele>3665.0</ele>
        <time>2013-09-04T14:28:43Z</time>
      </trkpt>
      <trkpt lat="42.992017" lon="-4.679667">
        <ele>3668.0</ele>
        <time>2013-09-04T14:28:44Z</time>
      </trkpt>
      <trkpt lat="42.992033" lon="-4.679750">
        <ele>3669.0</ele>
        <time>2013-09-04T14:28:45Z</time>
      </trkpt>
      <trkpt lat="42.992033" lon="-4.679817">
        <ele>3669.0</ele>
        <time>2013-09-04T14:28:46Z</time>
      </trkpt>
      <trkpt lat="42.992017" lon="-4.679917">
        <ele>3668.0</ele>
        <time>2013-09-04T14:28:47Z</time>
      </trkpt>
      <trkpt lat="42.992017" lon="-4.680033">
        <ele>3668.0</ele>
        <time>2013-09-04T14:28:48Z</time>
      </trkpt>
      <trkpt lat="42.992000" lon="-4.680167">
        <ele>3668.0</ele>
        <time>2013-09-04T14:28:49Z</time>
      </trkpt>
      <trkpt lat="42.991967" lon="-4.680317">
        <ele>3671.0</ele>
        <time>2013-09-04T14:28:50Z</time>
      </trkpt>
      <trkpt lat="42.991900" lon="-4.680417">
        <ele>3674.0</ele>
        <time>2013-09-04T14:28:51Z</time>
      </trkpt>
      <trkpt lat="42.991817" lon="-4.680483">
        <ele>3676.0</ele>
        <time>2013-09-04T14:28:52Z</time>
      </trkpt>
      <trkpt lat="42.991750" lon="-4.680533">
        <ele>3679.0</ele>
        <time>2013-09-04T14:28:53Z</time>
      </trkpt>
      <trkpt lat="42.991683" lon="-4.680567">
        <ele>3682.0</ele>
        <time>2013-09-04T14:28:54Z</time>
      </trkpt>
      <trkpt lat="42.991617" lon="-4.680600">
        <ele>3685.0</ele>
        <time>2013-09-04T14:28:55Z</time>
      </trkpt>
      <trkpt lat="42.991550" lon="-4.680633">
        <ele>3688.0</ele>
        <time>2013-09-04T14:28:56Z</time>
      </trkpt>
      <trkpt lat="42.991483" lon="-4.680650">
        <ele>3690.0</ele>
        <time>2013-09-04T14:28:57Z</time>
      </trkpt>
      <trkpt lat="42.991417" lon="-4.680650">
        <ele>3692.0</ele>
        <time>2013-09-04T14:28:58Z</time>
      </trkpt>
      <trkpt lat="42.991333" lon="-4.680633">
        <ele>3695.0</ele>
        <time>2013-09-04T14:28:59Z</time>
      </trkpt>
      <trkpt lat="42.991283" lon="-4.680600">
        <ele>3699.0</ele>
        <time>2013-09-04T14:29:00Z</time>
      </trkpt>
      <trkpt lat="42.991250" lon="-4.680583">
        <ele>3701.0</ele>
        <time>2013-09-04T14:29:01Z</time>
      </trkpt>
      <trkpt lat="42.991200" lon="-4.680567">
        <ele>3702.0</ele>
        <time>2013-09-04T14:29:02Z</time>
      </trkpt>
      <trkpt lat="42.991150" lon="-4.680550">
        <ele>3702.0</ele>
        <time>2013-09-04T14:29:03Z</time>
      </trkpt>
      <trkpt lat="42.991083" lon="-4.680500">
        <ele>3702.0</ele>
        <time>2013-09-04T14:29:04Z</time>
      </trkpt>
      <trkpt lat="42.991017" lon="-4.680433">
        <ele>3702.0</ele>
        <time>2013-09-04T14:29:05Z</time>
      </trkpt>
      <trkpt lat="42.990967" lon="-4.680350">
        <ele>3703.0</ele>
        <time>2013-09-04T14:29:06Z</time>
      </trkpt>
      <trkpt lat="42.990933" lon="-4.680267">
        <ele>3704.0</ele>
        <time>2013-09-04T14:29:07Z</time>
      </trkpt>
      <trkpt lat="42.990900" lon="-4.680167">
        <ele>3705.0</ele>
        <time>2013-09-04T14:29:08Z</time>
      </trkpt>
      <trkpt lat="42.990883" lon="-4.680083">
        <ele>3706.0</ele>
        <time>2013-09-04T14:29:09Z</time>
      </trkpt>
      <trkpt lat="42.990867" lon="-4.679983">
        <ele>3707.0</ele>
        <time>2013-09-04T14:29:10Z</time>
      </trkpt>
      <trkpt lat="42.990867" lon="-4.679867">
        <ele>3707.0</ele>
        <time>2013-09-04T14:29:11Z</time>
      </trkpt>
      <trkpt lat="42.990850" lon="-4.679750">
        <ele>3707.0</ele>
        <time>2013-09-04T14:29:12Z</time>
      </trkpt>
      <trkpt lat="42.990867" lon="-4.679617">
        <ele>3707.0</ele>
        <time>2013-09-04T14:29:13Z</time>
      </trkpt>
      <trkpt lat="42.990883" lon="-4.679483">
        <ele>3708.0</ele>
        <time>2013-09-04T14:29:14Z</time>
      </trkpt>
      <trkpt lat="42.990900" lon="-4.679367">
        <ele>3708.0</ele>
        <time>2013-09-04T14:29:15Z</time>
      </trkpt>
      <trkpt lat="42.990933" lon="-4.679267">
        <ele>3709.0</ele>
        <time>2013-09-04T14:29:16Z</time>
      </trkpt>
      <trkpt lat="42.990967" lon="-4.679167">
        <ele>3708.0</ele>
        <time>2013-09-04T14:29:17Z</time>
      </trkpt>
      <trkpt lat="42.990983" lon="-4.679050">
        <ele>3708.0</ele>
        <time>2013-09-04T14:29:18Z</time>
      </trkpt>
      <trkpt lat="42.991033" lon="-4.678933">
        <ele>3707.0</ele>
        <time>2013-09-04T14:29:19Z</time>
      </trkpt>
      <trkpt lat="42.991067" lon="-4.678800">
        <ele>3706.0</ele>
        <time>2013-09-04T14:29:20Z</time>
      </trkpt>
      <trkpt lat="42.991117" lon="-4.678683">
        <ele>3706.0</ele>
        <time>2013-09-04T14:29:21Z</time>
      </trkpt>
      <trkpt lat="42.991183" lon="-4.678567">
        <ele>3706.0</ele>
        <time>2013-09-04T14:29:22Z</time>
      </trkpt>
      <trkpt lat="42.991250" lon="-4.678467">
        <ele>3705.0</ele>
        <time>2013-09-04T14:29:23Z</time>
      </trkpt>
      <trkpt lat="42.991317" lon="-4.678367">
        <ele>3704.0</ele>
        <time>2013-09-04T14:29:24Z</time>
      </trkpt>
      <trkpt lat="42.991400" lon="-4.678233">
        <ele>3704.0</ele>
        <time>2013-09-04T14:29:25Z</time>
      </trkpt>
      <trkpt lat="42.991467" lon="-4.678117">
        <ele>3703.0</ele>
        <time>2013-09-04T14:29:26Z</time>
      </trkpt>
      <trkpt lat="42.991567" lon="-4.678017">
        <ele>3702.0</ele>
        <time>2013-09-04T14:29:27Z</time>
      </trkpt>
      <trkpt lat="42.991667" lon="-4.677900">
        <ele>3702.0</ele>
        <time>2013-09-04T14:29:28Z</time>
      </trkpt>
      <trkpt lat="42.991750" lon="-4.677800">
        <ele>3702.0</ele>
        <time>2013-09-04T14:29:29Z</time>
      </trkpt>
      <trkpt lat="42.991850" lon="-4.677700">
        <ele>3702.0</ele>
        <time>2013-09-04T14:29:30Z</time>
      </trkpt>
      <trkpt lat="42.991933" lon="-4.677583">
        <ele>3703.0</ele>
        <time>2013-09-04T14:29:31Z</time>
      </trkpt>
      <trkpt lat="42.992033" lon="-4.677483">
        <ele>3705.0</ele>
        <time>2013-09-04T14:29:32Z</time>
      </trkpt>
      <trkpt lat="42.992117" lon="-4.677383">
        <ele>3706.0</ele>
        <time>2013-09-04T14:29:33Z</time>
      </trkpt>
      <trkpt lat="42.992200" lon="-4.677300">
        <ele>3708.0</ele>
        <time>2013-09-04T14:29:34Z</time>
      </trkpt>
      <trkpt lat="42.992283" lon="-4.677217">
        <ele>3708.0</ele>
        <time>2013-09-04T14:29:35Z</time>
      </trkpt>
      <trkpt lat="42.992367" lon="-4.677117">
        <ele>3709.0</ele>
        <time>2013-09-04T14:29:36Z</time>
      </trkpt>
      <trkpt lat="42.992450" lon="-4.677000">
        <ele>3710.0</ele>
        <time>2013-09-04T14:29:37Z</time>
      </trkpt>
      <trkpt lat="42.992550" lon="-4.676900">
        <ele>3711.0</ele>
        <time>2013-09-04T14:29:38Z</time>
      </trkpt>
      <trkpt lat="42.992633" lon="-4.676800">
        <ele>3714.0</ele>
        <time>2013-09-04T14:29:39Z</time>
      </trkpt>
      <trkpt lat="42.992717" lon="-4.676717">
        <ele>3716.0</ele>
        <time>2013-09-04T14:29:40Z</time>
      </trkpt>
      <trkpt lat="42.992800" lon="-4.676650">
        <ele>3718.0</ele>
        <time>2013-09-04T14:29:41Z</time>
      </trkpt>
      <trkpt lat="42.992883" lon="-4.676567">
        <ele>3720.0</ele>
        <time>2013-09-04T14:29:42Z</time>
      </trkpt>
      <trkpt lat="42.992967" lon="-4.676483">
        <ele>3722.0</ele>
        <time>2013-09-04T14:29:43Z</time>
      </trkpt>
      <trkpt lat="42.993050" lon="-4.676417">
        <ele>3724.0</ele>
        <time>2013-09-04T14:29:44Z</time>
      </trkpt>
      <trkpt lat="42.993117" lon="-4.676367">
        <ele>3726.0</ele>
        <time>2013-09-04T14:29:45Z</time>
      </trkpt>
      <trkpt lat="42.993183" lon="-4.676333">
        <ele>3728.0</ele>
        <time>2013-09-04T14:29:46Z</time>
      </trkpt>
      <trkpt lat="42.993267" lon="-4.676300">
        <ele>3729.0</ele>
        <time>2013-09-04T14:29:47Z</time>
      </trkpt>
      <trkpt lat="42.993367" lon="-4.676250">
        <ele>3730.0</ele>
        <time>2013-09-04T14:29:48Z</time>
      </trkpt>
      <trkpt lat="42.993467" lon="-4.676217">
        <ele>3731.0</ele>
        <time>2013-09-04T14:29:49Z</time>
      </trkpt>
      <trkpt lat="42.993567" lon="-4.676183">
        <ele>3734.0</ele>
        <time>2013-09-04T14:29:50Z</time>
      </trkpt>
      <trkpt lat="42.993650" lon="-4.676150">
        <ele>3736.0</ele>
        <time>2013-09-04T14:29:51Z</time>
      </trkpt>
      <trkpt lat="42.993733" lon="-4.676117">
        <ele>3737.0</ele>
        <time>2013-09-04T14:29:52Z</time>
      </trkpt>
      <trkpt lat="42.993833" lon="-4.676083">
        <ele>3738.0</ele>
        <time>2013-09-04T14:29:53Z</time>
      </trkpt>
      <trkpt lat="42.993933" lon="-4.676067">
        <ele>3740.0</ele>
        <time>2013-09-04T14:29:54Z</time>
      </trkpt>
      <trkpt lat="42.994050" lon="-4.676067">
        <ele>3743.0</ele>
        <time>2013-09-04T14:29:55Z</time>
      </trkpt>
      <trkpt lat="42.994133" lon="-4.676083">
        <ele>3747.0</ele>
        <time>2013-09-04T14:29:56Z</time>
      </trkpt>
      <trkpt lat="42.994233" lon="-4.676083">
        <ele>3750.0</ele>
        <time>2013-09-04T14:29:57Z</time>
      </trkpt>
      <trkpt lat="42.994317" lon="-4.676100">
        <ele>3751.0</ele>
        <time>2013-09-04T14:29:58Z</time>
      </trkpt>
      <trkpt lat="42.994383" lon="-4.676117">
        <ele>3752.0</ele>
        <time>2013-09-04T14:29:59Z</time>
      </trkpt>
      <trkpt lat="42.994467" lon="-4.676167">
        <ele>3752.0</ele>
        <time>2013-09-04T14:30:00Z</time>
      </trkpt>
      <trkpt lat="42.994567" lon="-4.676233">
        <ele>3752.0</ele>
        <time>2013-09-04T14:30:01Z</time>
      </trkpt>
      <trkpt lat="42.994650" lon="-4.676300">
        <ele>3753.0</ele>
        <time>2013-09-04T14:30:02Z</time>
      </trkpt>
      <trkpt lat="42.994733" lon="-4.676400">
        <ele>3754.0</ele>
        <time>2013-09-04T14:30:03Z</time>
      </trkpt>
      <trkpt lat="42.994783" lon="-4.676500">
        <ele>3755.0</ele>
        <time>2013-09-04T14:30:04Z</time>
      </trkpt>
      <trkpt lat="42.994850" lon="-4.676600">
        <ele>3755.0</ele>
        <time>2013-09-04T14:30:05Z</time>
      </trkpt>
      <trkpt lat="42.994900" lon="-4.676717">
        <ele>3756.0</ele>
        <time>2013-09-04T14:30:06Z</time>
      </trkpt>
      <trkpt lat="42.994933" lon="-4.676833">
        <ele>3756.0</ele>
        <time>2013-09-04T14:30:07Z</time>
      </trkpt>
      <trkpt lat="42.994967" lon="-4.676967">
        <ele>3756.0</ele>
        <time>2013-09-04T14:30:08Z</time>
      </trkpt>
      <trkpt lat="42.994967" lon="-4.677117">
        <ele>3756.0</ele>
        <time>2013-09-04T14:30:09Z</time>
      </trkpt>
      <trkpt lat="42.994933" lon="-4.677267">
        <ele>3757.0</ele>
        <time>2013-09-04T14:30:10Z</time>
      </trkpt>
      <trkpt lat="42.994883" lon="-4.677400">
        <ele>3759.0</ele>
        <time>2013-09-04T14:30:11Z</time>
      </trkpt>
      <trkpt lat="42.994817" lon="-4.677517">
        <ele>3762.0</ele>
        <time>2013-09-04T14:30:12Z</time>
      </trkpt>
      <trkpt lat="42.994750" lon="-4.677617">
        <ele>3766.0</ele>
        <time>2013-09-04T14:30:13Z</time>
      </trkpt>
      <trkpt lat="42.994683" lon="-4.677700">
        <ele>3769.0</ele>
        <time>2013-09-04T14:30:14Z</time>
      </trkpt>
      <trkpt lat="42.994600" lon="-4.677750">
        <ele>3772.0</ele>
        <time>2013-09-04T14:30:15Z</time>
      </trkpt>
      <trkpt lat="42.994517" lon="-4.677800">
        <ele>3773.0</ele>
        <time>2013-09-04T14:30:16Z</time>
      </trkpt>
      <trkpt lat="42.994433" lon="-4.677833">
        <ele>3774.0</ele>
        <time>2013-09-04T14:30:17Z</time>
      </trkpt>
      <trkpt lat="42.994333" lon="-4.677817">
        <ele>3776.0</ele>
        <time>2013-09-04T14:30:18Z</time>
      </trkpt>
      <trkpt lat="42.994250" lon="-4.677767">
        <ele>3777.0</ele>
        <time>2013-09-04T14:30:19Z</time>
      </trkpt>
      <trkpt lat="42.994183" lon="-4.677683">
        <ele>3780.0</ele>
        <time>2013-09-04T14:30:20Z</time>
      </trkpt>
      <trkpt lat="42.994150" lon="-4.677583">
        <ele>3782.0</ele>
        <time>2013-09-04T14:30:21Z</time>
      </trkpt>
      <trkpt lat="42.994133" lon="-4.677483">
        <ele>3785.0</ele>
        <time>2013-09-04T14:30:22Z</time>
      </trkpt>
      <trkpt lat="42.994133" lon="-4.677383">
        <ele>3787.0</ele>
        <time>2013-09-04T14:30:23Z</time>
      </trkpt>
      <trkpt lat="42.994117" lon="-4.677283">
        <ele>3791.0</ele>
        <time>2013-09-04T14:30:24Z</time>
      </trkpt>
      <trkpt lat="42.994117" lon="-4.677183">
        <ele>3793.0</ele>
        <time>2013-09-04T14:30:25Z</time>
      </trkpt>
      <trkpt lat="42.994133" lon="-4.677083">
        <ele>3796.0</ele>
        <time>2013-09-04T14:30:26Z</time>
      </trkpt>
      <trkpt lat="42.994150" lon="-4.676967">
        <ele>3799.0</ele>
        <time>2013-09-04T14:30:27Z</time>
      </trkpt>
      <trkpt lat="42.994183" lon="-4.676867">
        <ele>3801.0</ele>
        <time>2013-09-04T14:30:28Z</time>
      </trkpt>
      <trkpt lat="42.994217" lon="-4.676750">
        <ele>3804.0</ele>
        <time>2013-09-04T14:30:29Z</time>
      </trkpt>
      <trkpt lat="42.994250" lon="-4.676633">
        <ele>3807.0</ele>
        <time>2013-09-04T14:30:30Z</time>
      </trkpt>
      <trkpt lat="42.994283" lon="-4.676517">
        <ele>3811.0</ele>
        <time>2013-09-04T14:30:31Z</time>
      </trkpt>
      <trkpt lat="42.994317" lon="-4.676400">
        <ele>3813.0</ele>
        <time>2013-09-04T14:30:32Z</time>
      </trkpt>
      <trkpt lat="42.994350" lon="-4.676283">
        <ele>3816.0</ele>
        <time>2013-09-04T14:30:33Z</time>
      </trkpt>
      <trkpt lat="42.994383" lon="-4.676183">
        <ele>3817.0</ele>
        <time>2013-09-04T14:30:34Z</time>
      </trkpt>
      <trkpt lat="42.994433" lon="-4.676083">
        <ele>3819.0</ele>
        <time>2013-09-04T14:30:35Z</time>
      </trkpt>
      <trkpt lat="42.994500" lon="-4.676000">
        <ele>3821.0</ele>
        <time>2013-09-04T14:30:36Z</time>
      </trkpt>
      <trkpt lat="42.994567" lon="-4.675933">
        <ele>3822.0</ele>
        <time>2013-09-04T14:30:37Z</time>
      </trkpt>
      <trkpt lat="42.994617" lon="-4.675850">
        <ele>3824.0</ele>
        <time>2013-09-04T14:30:38Z</time>
      </trkpt>
      <trkpt lat="42.994683" lon="-4.675767">
        <ele>3825.0</ele>
        <time>2013-09-04T14:30:39Z</time>
      </trkpt>
      <trkpt lat="42.994750" lon="-4.675700">
        <ele>3826.0</ele>
        <time>2013-09-04T14:30:40Z</time>
      </trkpt>
      <trkpt lat="42.994817" lon="-4.675633">
        <ele>3827.0</ele>
        <time>2013-09-04T14:30:41Z</time>
      </trkpt>
      <trkpt lat="42.994900" lon="-4.675567">
        <ele>3827.0</ele>
        <time>2013-09-04T14:30:42Z</time>
      </trkpt>
      <trkpt lat="42.994967" lon="-4.675483">
        <ele>3827.0</ele>
        <time>2013-09-04T14:30:43Z</time>
      </trkpt>
      <trkpt lat="42.995050" lon="-4.675417">
        <ele>3826.0</ele>
        <time>2013-09-04T14:30:44Z</time>
      </trkpt>
      <trkpt lat="42.995150" lon="-4.675367">
        <ele>3827.0</ele>
        <time>2013-09-04T14:30:45Z</time>
      </trkpt>
      <trkpt lat="42.995233" lon="-4.675350">
        <ele>3827.0</ele>
        <time>2013-09-04T14:30:46Z</time>
      </trkpt>
      <trkpt lat="42.995333" lon="-4.675367">
        <ele>3828.0</ele>
        <time>2013-09-04T14:30:47Z</time>
      </trkpt>
      <trkpt lat="42.995417" lon="-4.675367">
        <ele>3829.0</ele>
        <time>2013-09-04T14:30:48Z</time>
      </trkpt>
      <trkpt lat="42.995500" lon="-4.675367">
        <ele>3829.0</ele>
        <time>2013-09-04T14:30:49Z</time>
      </trkpt>
      <trkpt lat="42.995567" lon="-4.675350">
        <ele>3829.0</ele>
        <time>2013-09-04T14:30:50Z</time>
      </trkpt>
      <trkpt lat="42.995650" lon="-4.675317">
        <ele>3829.0</ele>
        <time>2013-09-04T14:30:51Z</time>
      </trkpt>
      <trkpt lat="42.995733" lon="-4.675300">
        <ele>3830.0</ele>
        <time>2013-09-04T14:30:52Z</time>
      </trkpt>
      <trkpt lat="42.995817" lon="-4.675267">
        <ele>3831.0</ele>
        <time>2013-09-04T14:30:53Z</time>
      </trkpt>
      <trkpt lat="42.995883" lon="-4.675250">
        <ele>3833.0</ele>
        <time>2013-09-04T14:30:54Z</time>
      </trkpt>
      <trkpt lat="42.995950" lon="-4.675233">
        <ele>3835.0</ele>
        <time>2013-09-04T14:30:55Z</time>
      </trkpt>
      <trkpt lat="42.996017" lon="-4.675200">
        <ele>3836.0</ele>
        <time>2013-09-04T14:30:56Z</time>
      </trkpt>
      <trkpt lat="42.996083" lon="-4.675183">
        <ele>3837.0</ele>
        <time>2013-09-04T14:30:57Z</time>
      </trkpt>
      <trkpt lat="42.996167" lon="-4.675133">
        <ele>3837.0</ele>
        <time>2013-09-04T14:30:58Z</time>
      </trkpt>
      <trkpt lat="42.996267" lon="-4.675083">
        <ele>3838.0</ele>
        <time>2013-09-04T14:30:59Z</time>
      </trkpt>
      <trkpt lat="42.996350" lon="-4.675033">
        <ele>3841.0</ele>
        <time>2013-09-04T14:31:00Z</time>
      </trkpt>
      <trkpt lat="42.996417" lon="-4.675000">
        <ele>3845.0</ele>
        <time>2013-09-04T14:31:01Z</time>
      </trkpt>
      <trkpt lat="42.996467" lon="-4.674950">
        <ele>3849.0</ele>
        <time>2013-09-04T14:31:02Z</time>
      </trkpt>
      <trkpt lat="42.996500" lon="-4.674933">
        <ele>3851.0</ele>
        <time>2013-09-04T14:31:03Z</time>
      </trkpt>
      <trkpt lat="42.996550" lon="-4.674900">
        <ele>3852.0</ele>
        <time>2013-09-04T14:31:04Z</time>
      </trkpt>
      <trkpt lat="42.996633" lon="-4.674867">
        <ele>3851.0</ele>
        <time>2013-09-04T14:31:05Z</time>
      </trkpt>
      <trkpt lat="42.996717" lon="-4.674833">
        <ele>3851.0</ele>
        <time>2013-09-04T14:31:06Z</time>
      </trkpt>
      <trkpt lat="42.996800" lon="-4.674833">
        <ele>3851.0</ele>
        <time>2013-09-04T14:31:07Z</time>
      </trkpt>
      <trkpt lat="42.996900" lon="-4.674833">
        <ele>3852.0</ele>
        <time>2013-09-04T14:31:08Z</time>
      </trkpt>
      <trkpt lat="42.996983" lon="-4.674850">
        <ele>3853.0</ele>
        <time>2013-09-04T14:31:09Z</time>
      </trkpt>
      <trkpt lat="42.997050" lon="-4.674867">
        <ele>3854.0</ele>
        <time>2013-09-04T14:31:10Z</time>
      </trkpt>
      <trkpt lat="42.997133" lon="-4.674900">
        <ele>3855.0</ele>
        <time>2013-09-04T14:31:11Z</time>
      </trkpt>
      <trkpt lat="42.997200" lon="-4.674933">
        <ele>3856.0</ele>
        <time>2013-09-04T14:31:12Z</time>
      </trkpt>
      <trkpt lat="42.997267" lon="-4.674983">
        <ele>3857.0</ele>
        <time>2013-09-04T14:31:13Z</time>
      </trkpt>
      <trkpt lat="42.997333" lon="-4.675067">
        <ele>3857.0</ele>
        <time>2013-09-04T14:31:14Z</time>
      </trkpt>
      <trkpt lat="42.997383" lon="-4.675183">
        <ele>3857.0</ele>
        <time>2013-09-04T14:31:15Z</time>
      </trkpt>
      <trkpt lat="42.997417" lon="-4.675300">
        <ele>3858.0</ele>
        <time>2013-09-04T14:31:16Z</time>
      </trkpt>
      <trkpt lat="42.997450" lon="-4.675433">
        <ele>3858.0</ele>
        <time>2013-09-04T14:31:17Z</time>
      </trkpt>
      <trkpt lat="42.997450" lon="-4.675567">
        <ele>3858.0</ele>
        <time>2013-09-04T14:31:18Z</time>
      </trkpt>
      <trkpt lat="42.997433" lon="-4.675700">
        <ele>3860.0</ele>
        <time>2013-09-04T14:31:19Z</time>
      </trkpt>
      <trkpt lat="42.997400" lon="-4.675817">
        <ele>3861.0</ele>
        <time>2013-09-04T14:31:20Z</time>
      </trkpt>
      <trkpt lat="42.997350" lon="-4.675900">
        <ele>3861.0</ele>
        <time>2013-09-04T14:31:21Z</time>
      </trkpt>
      <trkpt lat="42.997267" lon="-4.675950">
        <ele>3862.0</ele>
        <time>2013-09-04T14:31:22Z</time>
      </trkpt>
      <trkpt lat="42.997200" lon="-4.675950">
        <ele>3862.0</ele>
        <time>2013-09-04T14:31:23Z</time>
      </trkpt>
      <trkpt lat="42.997150" lon="-4.675917">
        <ele>3864.0</ele>
        <time>2013-09-04T14:31:24Z</time>
      </trkpt>
      <trkpt lat="42.997117" lon="-4.675850">
        <ele>3865.0</ele>
        <time>2013-09-04T14:31:25Z</time>
      </trkpt>
      <trkpt lat="42.997100" lon="-4.675783">
        <ele>3867.0</ele>
        <time>2013-09-04T14:31:26Z</time>
      </trkpt>
      <trkpt lat="42.997117" lon="-4.675683">
        <ele>3868.0</ele>
        <time>2013-09-04T14:31:27Z</time>
      </trkpt>
      <trkpt lat="42.997150" lon="-4.675600">
        <ele>3869.0</ele>
        <time>2013-09-04T14:31:28Z</time>
      </trkpt>
      <trkpt lat="42.997217" lon="-4.675533">
        <ele>3870.0</ele>
        <time>2013-09-04T14:31:29Z</time>
      </trkpt>
      <trkpt lat="42.997283" lon="-4.675500">
        <ele>3871.0</ele>
        <time>2013-09-04T14:31:30Z</time>
      </trkpt>
      <trkpt lat="42.997350" lon="-4.675467">
        <ele>3871.0</ele>
        <time>2013-09-04T14:31:31Z</time>
      </trkpt>
      <trkpt lat="42.997433" lon="-4.675450">
        <ele>3871.0</ele>
        <time>2013-09-04T14:31:32Z</time>
      </trkpt>
      <trkpt lat="42.997533" lon="-4.675450">
        <ele>3871.0</ele>
        <time>2013-09-04T14:31:33Z</time>
      </trkpt>
      <trkpt lat="42.997633" lon="-4.675467">
        <ele>3870.0</ele>
        <time>2013-09-04T14:31:34Z</time>
      </trkpt>
      <trkpt lat="42.997750" lon="-4.675483">
        <ele>3870.0</ele>
        <time>2013-09-04T14:31:35Z</time>
      </trkpt>
      <trkpt lat="42.997867" lon="-4.675517">
        <ele>3871.0</ele>
        <time>2013-09-04T14:31:36Z</time>
      </trkpt>
      <trkpt lat="42.997983" lon="-4.675533">
        <ele>3872.0</ele>
        <time>2013-09-04T14:31:37Z</time>
      </trkpt>
      <trkpt lat="42.998100" lon="-4.675550">
        <ele>3873.0</ele>
        <time>2013-09-04T14:31:38Z</time>
      </trkpt>
      <trkpt lat="42.998200" lon="-4.675567">
        <ele>3875.0</ele>
        <time>2013-09-04T14:31:39Z</time>
      </trkpt>
      <trkpt lat="42.998317" lon="-4.675567">
        <ele>3876.0</ele>
        <time>2013-09-04T14:31:40Z</time>
      </trkpt>
      <trkpt lat="42.998433" lon="-4.675567">
        <ele>3878.0</ele>
        <time>2013-09-04T14:31:41Z</time>
      </trkpt>
      <trkpt lat="42.998533" lon="-4.675567">
        <ele>3880.0</ele>
        <time>2013-09-04T14:31:42Z</time>
      </trkpt>
      <trkpt lat="42.998650" lon="-4.675533">
        <ele>3882.0</ele>
        <time>2013-09-04T14:31:43Z</time>
      </trkpt>
      <trkpt lat="42.998733" lon="-4.675500">
        <ele>3885.0</ele>
        <time>2013-09-04T14:31:44Z</time>
      </trkpt>
      <trkpt lat="42.998817" lon="-4.675467">
        <ele>3886.0</ele>
        <time>2013-09-04T14:31:45Z</time>
      </trkpt>
      <trkpt lat="42.998900" lon="-4.675417">
        <ele>3885.0</ele>
        <time>2013-09-04T14:31:46Z</time>
      </trkpt>
      <trkpt lat="42.998983" lon="-4.675383">
        <ele>3884.0</ele>
        <time>2013-09-04T14:31:47Z</time>
      </trkpt>
      <trkpt lat="42.999067" lon="-4.675350">
        <ele>3882.0</ele>
        <time>2013-09-04T14:31:48Z</time>
      </trkpt>
      <trkpt lat="42.999167" lon="-4.675300">
        <ele>3879.0</ele>
        <time>2013-09-04T14:31:49Z</time>
      </trkpt>
      <trkpt lat="42.999267" lon="-4.675233">
        <ele>3877.0</ele>
        <time>2013-09-04T14:31:50Z</time>
      </trkpt>
      <trkpt lat="42.999383" lon="-4.675150">
        <ele>3874.0</ele>
        <time>2013-09-04T14:31:51Z</time>
      </trkpt>
      <trkpt lat="42.999483" lon="-4.675067">
        <ele>3874.0</ele>
        <time>2013-09-04T14:31:52Z</time>
      </trkpt>
      <trkpt lat="42.999600" lon="-4.675000">
        <ele>3873.0</ele>
        <time>2013-09-04T14:31:53Z</time>
      </trkpt>
      <trkpt lat="42.999683" lon="-4.674917">
        <ele>3873.0</ele>
        <time>2013-09-04T14:31:54Z</time>
      </trkpt>
      <trkpt lat="42.999767" lon="-4.674833">
        <ele>3871.0</ele>
        <time>2013-09-04T14:31:55Z</time>
      </trkpt>
      <trkpt lat="42.999850" lon="-4.674733">
        <ele>3868.0</ele>
        <time>2013-09-04T14:31:56Z</time>
      </trkpt>
      <trkpt lat="42.999933" lon="-4.674600">
        <ele>3866.0</ele>
        <time>2013-09-04T14:31:57Z</time>
      </trkpt>
      <trkpt lat="43.000050" lon="-4.674467">
        <ele>3865.0</ele>
        <time>2013-09-04T14:31:58Z</time>
      </trkpt>
      <trkpt lat="43.000150" lon="-4.674350">
        <ele>3867.0</ele>
        <time>2013-09-04T14:31:59Z</time>
      </trkpt>
      <trkpt lat="43.000250" lon="-4.674267">
        <ele>3868.0</ele>
        <time>2013-09-04T14:32:00Z</time>
      </trkpt>
      <trkpt lat="43.000317" lon="-4.674167">
        <ele>3869.0</ele>
        <time>2013-09-04T14:32:01Z</time>
      </trkpt>
      <trkpt lat="43.000400" lon="-4.674050">
        <ele>3868.0</ele>
        <time>2013-09-04T14:32:02Z</time>
      </trkpt>
      <trkpt lat="43.000467" lon="-4.673933">
        <ele>3867.0</ele>
        <time>2013-09-04T14:32:03Z</time>
      </trkpt>
      <trkpt lat="43.000533" lon="-4.673800">
        <ele>3865.0</ele>
        <time>2013-09-04T14:32:04Z</time>
      </trkpt>
      <trkpt lat="43.000600" lon="-4.673650">
        <ele>3864.0</ele>
        <time>2013-09-04T14:32:05Z</time>
      </trkpt>
      <trkpt lat="43.000683" lon="-4.673517">
        <ele>3863.0</ele>
        <time>2013-09-04T14:32:06Z</time>
      </trkpt>
      <trkpt lat="43.000767" lon="-4.673383">
        <ele>3863.0</ele>
        <time>2013-09-04T14:32:07Z</time>
      </trkpt>
      <trkpt lat="43.000833" lon="-4.673267">
        <ele>3862.0</ele>
        <time>2013-09-04T14:32:08Z</time>
      </trkpt>
      <trkpt lat="43.000917" lon="-4.673150">
        <ele>3860.0</ele>
        <time>2013-09-04T14:32:09Z</time>
      </trkpt>
      <trkpt lat="43.001000" lon="-4.673017">
        <ele>3857.0</ele>
        <time>2013-09-04T14:32:10Z</time>
      </trkpt>
      <trkpt lat="43.001083" lon="-4.672900">
        <ele>3855.0</ele>
        <time>2013-09-04T14:32:11Z</time>
      </trkpt>
      <trkpt lat="43.001183" lon="-4.672783">
        <ele>3853.0</ele>
        <time>2013-09-04T14:32:12Z</time>
      </trkpt>
      <trkpt lat="43.001267" lon="-4.672650">
        <ele>3852.0</ele>
        <time>2013-09-04T14:32:13Z</time>
      </trkpt>
      <trkpt lat="43.001367" lon="-4.672533">
        <ele>3850.0</ele>
        <time>2013-09-04T14:32:14Z</time>
      </trkpt>
      <trkpt lat="43.001450" lon="-4.672400">
        <ele>3850.0</ele>
        <time>2013-09-04T14:32:15Z</time>
      </trkpt>
      <trkpt lat="43.001533" lon="-4.672283">
        <ele>3849.0</ele>
        <time>2013-09-04T14:32:16Z</time>
      </trkpt>
      <trkpt lat="43.001617" lon="-4.672150">
        <ele>3847.0</ele>
        <time>2013-09-04T14:32:17Z</time>
      </trkpt>
      <trkpt lat="43.001717" lon="-4.672017">
        <ele>3845.0</ele>
        <time>2013-09-04T14:32:18Z</time>
      </trkpt>
      <trkpt lat="43.001800" lon="-4.671883">
        <ele>3844.0</ele>
        <time>2013-09-04T14:32:19Z</time>
      </trkpt>
      <trkpt lat="43.001883" lon="-4.671733">
        <ele>3842.0</ele>
        <time>2013-09-04T14:32:20Z</time>
      </trkpt>
      <trkpt lat="43.001967" lon="-4.671600">
        <ele>3842.0</ele>
        <time>2013-09-04T14:32:21Z</time>
      </trkpt>
      <trkpt lat="43.002050" lon="-4.671450">
        <ele>3841.0</ele>
        <time>2013-09-04T14:32:22Z</time>
      </trkpt>
      <trkpt lat="43.002133" lon="-4.671317">
        <ele>3840.0</ele>
        <time>2013-09-04T14:32:23Z</time>
      </trkpt>
      <trkpt lat="43.002217" lon="-4.671183">
        <ele>3841.0</ele>
        <time>2013-09-04T14:32:24Z</time>
      </trkpt>
      <trkpt lat="43.002283" lon="-4.671050">
        <ele>3842.0</ele>
        <time>2013-09-04T14:32:25Z</time>
      </trkpt>
      <trkpt lat="43.002317" lon="-4.670917">
        <ele>3844.0</ele>
        <time>2013-09-04T14:32:26Z</time>
      </trkpt>
      <trkpt lat="43.002350" lon="-4.670783">
        <ele>3845.0</ele>
        <time>2013-09-04T14:32:27Z</time>
      </trkpt>
      <trkpt lat="43.002400" lon="-4.670667">
        <ele>3846.0</ele>
        <time>2013-09-04T14:32:28Z</time>
      </trkpt>
      <trkpt lat="43.002450" lon="-4.670550">
        <ele>3846.0</ele>
        <time>2013-09-04T14:32:29Z</time>
      </trkpt>
      <trkpt lat="43.002500" lon="-4.670433">
        <ele>3846.0</ele>
        <time>2013-09-04T14:32:30Z</time>
      </trkpt>
      <trkpt lat="43.002550" lon="-4.670317">
        <ele>3846.0</ele>
        <time>2013-09-04T14:32:31Z</time>
      </trkpt>
      <trkpt lat="43.002600" lon="-4.670183">
        <ele>3846.0</ele>
        <time>2013-09-04T14:32:32Z</time>
      </trkpt>
      <trkpt lat="43.002650" lon="-4.670067">
        <ele>3846.0</ele>
        <time>2013-09-04T14:32:33Z</time>
      </trkpt>
      <trkpt lat="43.002717" lon="-4.669933">
        <ele>3846.0</ele>
        <time>2013-09-04T14:32:34Z</time>
      </trkpt>
      <trkpt lat="43.002783" lon="-4.669817">
        <ele>3846.0</ele>
        <time>2013-09-04T14:32:35Z</time>
      </trkpt>
      <trkpt lat="43.002850" lon="-4.669683">
        <ele>3846.0</ele>
        <time>2013-09-04T14:32:36Z</time>
      </trkpt>
      <trkpt lat="43.002917" lon="-4.669550">
        <ele>3847.0</ele>
        <time>2013-09-04T14:32:37Z</time>
      </trkpt>
      <trkpt lat="43.002983" lon="-4.669433">
        <ele>3847.0</ele>
        <time>2013-09-04T14:32:38Z</time>
      </trkpt>
      <trkpt lat="43.003050" lon="-4.669317">
        <ele>3848.0</ele>
        <time>2013-09-04T14:32:39Z</time>
      </trkpt>
      <trkpt lat="43.003117" lon="-4.669200">
        <ele>3847.0</ele>
        <time>2013-09-04T14:32:40Z</time>
      </trkpt>
      <trkpt lat="43.003200" lon="-4.669083">
        <ele>3846.0</ele>
        <time>2013-09-04T14:32:41Z</time>
      </trkpt>
      <trkpt lat="43.003283" lon="-4.668967">
        <ele>3845.0</ele>
        <time>2013-09-04T14:32:42Z</time>
      </trkpt>
      <trkpt lat="43.003367" lon="-4.668850">
        <ele>3845.0</ele>
        <time>2013-09-04T14:32:43Z</time>
      </trkpt>
      <trkpt lat="43.003450" lon="-4.668733">
        <ele>3844.0</ele>
        <time>2013-09-04T14:32:44Z</time>
      </trkpt>
      <trkpt lat="43.003533" lon="-4.668600">
        <ele>3844.0</ele>
        <time>2013-09-04T14:32:45Z</time>
      </trkpt>
      <trkpt lat="43.003600" lon="-4.668483">
        <ele>3843.0</ele>
        <time>2013-09-04T14:32:46Z</time>
      </trkpt>
      <trkpt lat="43.003683" lon="-4.668367">
        <ele>3842.0</ele>
        <time>2013-09-04T14:32:47Z</time>
      </trkpt>
      <trkpt lat="43.003750" lon="-4.668250">
        <ele>3842.0</ele>
        <time>2013-09-04T14:32:48Z</time>
      </trkpt>
      <trkpt lat="43.003833" lon="-4.668117">
        <ele>3841.0</ele>
        <time>2013-09-04T14:32:49Z</time>
      </trkpt>
      <trkpt lat="43.003917" lon="-4.668000">
        <ele>3840.0</ele>
        <time>2013-09-04T14:32:50Z</time>
      </trkpt>
      <trkpt lat="43.003983" lon="-4.667883">
        <ele>3838.0</ele>
        <time>2013-09-04T14:32:51Z</time>
      </trkpt>
      <trkpt lat="43.004050" lon="-4.667767">
        <ele>3836.0</ele>
        <time>2013-09-04T14:32:52Z</time>
      </trkpt>
      <trkpt lat="43.004100" lon="-4.667633">
        <ele>3834.0</ele>
        <time>2013-09-04T14:32:53Z</time>
      </trkpt>
      <trkpt lat="43.004167" lon="-4.667517">
        <ele>3832.0</ele>
        <time>2013-09-04T14:32:54Z</time>
      </trkpt>
      <trkpt lat="43.004233" lon="-4.667383">
        <ele>3829.0</ele>
        <time>2013-09-04T14:32:55Z</time>
      </trkpt>
      <trkpt lat="43.004300" lon="-4.667267">
        <ele>3827.0</ele>
        <time>2013-09-04T14:32:56Z</time>
      </trkpt>
      <trkpt lat="43.004367" lon="-4.667133">
        <ele>3825.0</ele>
        <time>2013-09-04T14:32:57Z</time>
      </trkpt>
      <trkpt lat="43.004417" lon="-4.667000">
        <ele>3822.0</ele>
        <time>2013-09-04T14:32:58Z</time>
      </trkpt>
      <trkpt lat="43.004483" lon="-4.666867">
        <ele>3820.0</ele>
        <time>2013-09-04T14:32:59Z</time>
      </trkpt>
      <trkpt lat="43.004550" lon="-4.666733">
        <ele>3817.0</ele>
        <time>2013-09-04T14:33:00Z</time>
      </trkpt>
      <trkpt lat="43.004617" lon="-4.666583">
        <ele>3815.0</ele>
        <time>2013-09-04T14:33:01Z</time>
      </trkpt>
      <trkpt lat="43.004683" lon="-4.666450">
        <ele>3814.0</ele>
        <time>2013-09-04T14:33:02Z</time>
      </trkpt>
      <trkpt lat="43.004750" lon="-4.666317">
        <ele>3813.0</ele>
        <time>2013-09-04T14:33:03Z</time>
      </trkpt>
      <trkpt lat="43.004783" lon="-4.666183">
        <ele>3812.0</ele>
        <time>2013-09-04T14:33:04Z</time>
      </trkpt>
      <trkpt lat="43.004800" lon="-4.666050">
        <ele>3811.0</ele>
        <time>2013-09-04T14:33:05Z</time>
      </trkpt>
      <trkpt lat="43.004817" lon="-4.665917">
        <ele>3810.0</ele>
        <time>2013-09-04T14:33:06Z</time>
      </trkpt>
      <trkpt lat="43.004817" lon="-4.665783">
        <ele>3808.0</ele>
        <time>2013-09-04T14:33:07Z</time>
      </trkpt>
      <trkpt lat="43.004867" lon="-4.665650">
        <ele>3806.0</ele>
        <time>2013-09-04T14:33:08Z</time>
      </trkpt>
      <trkpt lat="43.004917" lon="-4.665517">
        <ele>3802.0</ele>
        <time>2013-09-04T14:33:09Z</time>
      </trkpt>
      <trkpt lat="43.005000" lon="-4.665383">
        <ele>3799.0</ele>
        <time>2013-09-04T14:33:10Z</time>
      </trkpt>
      <trkpt lat="43.005050" lon="-4.665233">
        <ele>3798.0</ele>
        <time>2013-09-04T14:33:11Z</time>
      </trkpt>
      <trkpt lat="43.005100" lon="-4.665083">
        <ele>3796.0</ele>
        <time>2013-09-04T14:33:12Z</time>
      </trkpt>
      <trkpt lat="43.005133" lon="-4.664933">
        <ele>3795.0</ele>
        <time>2013-09-04T14:33:13Z</time>
      </trkpt>
      <trkpt lat="43.005183" lon="-4.664800">
        <ele>3794.0</ele>
        <time>2013-09-04T14:33:14Z</time>
      </trkpt>
      <trkpt lat="43.005250" lon="-4.664667">
        <ele>3791.0</ele>
        <time>2013-09-04T14:33:15Z</time>
      </trkpt>
      <trkpt lat="43.005317" lon="-4.664533">
        <ele>3789.0</ele>
        <time>2013-09-04T14:33:16Z</time>
      </trkpt>
      <trkpt lat="43.005417" lon="-4.664383">
        <ele>3788.0</ele>
        <time>2013-09-04T14:33:17Z</time>
      </trkpt>
      <trkpt lat="43.005483" lon="-4.664233">
        <ele>3787.0</ele>
        <time>2013-09-04T14:33:18Z</time>
      </trkpt>
      <trkpt lat="43.005550" lon="-4.664083">
        <ele>3787.0</ele>
        <time>2013-09-04T14:33:19Z</time>
      </trkpt>
      <trkpt lat="43.005617" lon="-4.663950">
        <ele>3787.0</ele>
        <time>2013-09-04T14:33:20Z</time>
      </trkpt>
      <trkpt lat="43.005667" lon="-4.663817">
        <ele>3787.0</ele>
        <time>2013-09-04T14:33:21Z</time>
      </trkpt>
      <trkpt lat="43.005733" lon="-4.663683">
        <ele>3786.0</ele>
        <time>2013-09-04T14:33:22Z</time>
      </trkpt>
      <trkpt lat="43.005817" lon="-4.663583">
        <ele>3785.0</ele>
        <time>2013-09-04T14:33:23Z</time>
      </trkpt>
      <trkpt lat="43.005900" lon="-4.663467">
        <ele>3784.0</ele>
        <time>2013-09-04T14:33:24Z</time>
      </trkpt>
      <trkpt lat="43.005967" lon="-4.663350">
        <ele>3783.0</ele>
        <time>2013-09-04T14:33:25Z</time>
      </trkpt>
      <trkpt lat="43.006050" lon="-4.663217">
        <ele>3781.0</ele>
        <time>2013-09-04T14:33:26Z</time>
      </trkpt>
      <trkpt lat="43.006100" lon="-4.663067">
        <ele>3780.0</ele>
        <time>2013-09-04T14:33:27Z</time>
      </trkpt>
      <trkpt lat="43.006167" lon="-4.662917">
        <ele>3779.0</ele>
        <time>2013-09-04T14:33:28Z</time>
      </trkpt>
      <trkpt lat="43.006217" lon="-4.662767">
        <ele>3778.0</ele>
        <time>2013-09-04T14:33:29Z</time>
      </trkpt>
      <trkpt lat="43.006283" lon="-4.662633">
        <ele>3778.0</ele>
        <time>2013-09-04T14:33:30Z</time>
      </trkpt>
      <trkpt lat="43.006367" lon="-4.662517">
        <ele>3778.0</ele>
        <time>2013-09-04T14:33:31Z</time>
      </trkpt>
      <trkpt lat="43.006450" lon="-4.662417">
        <ele>3776.0</ele>
        <time>2013-09-04T14:33:32Z</time>
      </trkpt>
      <trkpt lat="43.006533" lon="-4.662333">
        <ele>3774.0</ele>
        <time>2013-09-04T14:33:33Z</time>
      </trkpt>
      <trkpt lat="43.006633" lon="-4.662217">
        <ele>3772.0</ele>
        <time>2013-09-04T14:33:34Z</time>
      </trkpt>
      <trkpt lat="43.006717" lon="-4.662083">
        <ele>3769.0</ele>
        <time>2013-09-04T14:33:35Z</time>
      </trkpt>
      <trkpt lat="43.006783" lon="-4.661933">
        <ele>3768.0</ele>
        <time>2013-09-04T14:33:36Z</time>
      </trkpt>
      <trkpt lat="43.006833" lon="-4.661767">
        <ele>3767.0</ele>
        <time>2013-09-04T14:33:37Z</time>
      </trkpt>
      <trkpt lat="43.006883" lon="-4.661633">
        <ele>3766.0</ele>
        <time>2013-09-04T14:33:38Z</time>
      </trkpt>
      <trkpt lat="43.006933" lon="-4.661500">
        <ele>3765.0</ele>
        <time>2013-09-04T14:33:39Z</time>
      </trkpt>
      <trkpt lat="43.007017" lon="-4.661367">
        <ele>3763.0</ele>
        <time>2013-09-04T14:33:40Z</time>
      </trkpt>
      <trkpt lat="43.007117" lon="-4.661267">
        <ele>3760.0</ele>
        <time>2013-09-04T14:33:41Z</time>
      </trkpt>
      <trkpt lat="43.007217" lon="-4.661167">
        <ele>3757.0</ele>
        <time>2013-09-04T14:33:42Z</time>
      </trkpt>
      <trkpt lat="43.007317" lon="-4.661050">
        <ele>3756.0</ele>
        <time>2013-09-04T14:33:43Z</time>
      </trkpt>
      <trkpt lat="43.007417" lon="-4.660933">
        <ele>3755.0</ele>
        <time>2013-09-04T14:33:44Z</time>
      </trkpt>
      <trkpt lat="43.007483" lon="-4.660800">
        <ele>3754.0</ele>
        <time>2013-09-04T14:33:45Z</time>
      </trkpt>
      <trkpt lat="43.007533" lon="-4.660667">
        <ele>3752.0</ele>
        <time>2013-09-04T14:33:46Z</time>
      </trkpt>
      <trkpt lat="43.007600" lon="-4.660517">
        <ele>3749.0</ele>
        <time>2013-09-04T14:33:47Z</time>
      </trkpt>
      <trkpt lat="43.007683" lon="-4.660367">
        <ele>3746.0</ele>
        <time>2013-09-04T14:33:48Z</time>
      </trkpt>
      <trkpt lat="43.007767" lon="-4.660233">
        <ele>3744.0</ele>
        <time>2013-09-04T14:33:49Z</time>
      </trkpt>
      <trkpt lat="43.007850" lon="-4.660083">
        <ele>3741.0</ele>
        <time>2013-09-04T14:33:50Z</time>
      </trkpt>
      <trkpt lat="43.007917" lon="-4.659950">
        <ele>3739.0</ele>
        <time>2013-09-04T14:33:51Z</time>
      </trkpt>
      <trkpt lat="43.008000" lon="-4.659817">
        <ele>3737.0</ele>
        <time>2013-09-04T14:33:52Z</time>
      </trkpt>
      <trkpt lat="43.008067" lon="-4.659683">
        <ele>3735.0</ele>
        <time>2013-09-04T14:33:53Z</time>
      </trkpt>
      <trkpt lat="43.008150" lon="-4.659567">
        <ele>3732.0</ele>
        <time>2013-09-04T14:33:54Z</time>
      </trkpt>
      <trkpt lat="43.008250" lon="-4.659450">
        <ele>3729.0</ele>
        <time>2013-09-04T14:33:55Z</time>
      </trkpt>
      <trkpt lat="43.008350" lon="-4.659333">
        <ele>3727.0</ele>
        <time>2013-09-04T14:33:56Z</time>
      </trkpt>
      <trkpt lat="43.008450" lon="-4.659217">
        <ele>3725.0</ele>
        <time>2013-09-04T14:33:57Z</time>
      </trkpt>
      <trkpt lat="43.008533" lon="-4.659100">
        <ele>3723.0</ele>
        <time>2013-09-04T14:33:58Z</time>
      </trkpt>
      <trkpt lat="43.008617" lon="-4.658967">
        <ele>3721.0</ele>
        <time>2013-09-04T14:33:59Z</time>
      </trkpt>
      <trkpt lat="43.008717" lon="-4.658850">
        <ele>3718.0</ele>
        <time>2013-09-04T14:34:00Z</time>
      </trkpt>
      <trkpt lat="43.008817" lon="-4.658750">
        <ele>3717.0</ele>
        <time>2013-09-04T14:34:01Z</time>
      </trkpt>
      <trkpt lat="43.008917" lon="-4.658650">
        <ele>3715.0</ele>
        <time>2013-09-04T14:34:02Z</time>
      </trkpt>
      <trkpt lat="43.009000" lon="-4.658567">
        <ele>3714.0</ele>
        <time>2013-09-04T14:34:03Z</time>
      </trkpt>
      <trkpt lat="43.009100" lon="-4.658483">
        <ele>3712.0</ele>
        <time>2013-09-04T14:34:04Z</time>
      </trkpt>
      <trkpt lat="43.009183" lon="-4.658383">
        <ele>3710.0</ele>
        <time>2013-09-04T14:34:05Z</time>
      </trkpt>
      <trkpt lat="43.009267" lon="-4.658267">
        <ele>3706.0</ele>
        <time>2013-09-04T14:34:06Z</time>
      </trkpt>
      <trkpt lat="43.009350" lon="-4.658133">
        <ele>3703.0</ele>
        <time>2013-09-04T14:34:07Z</time>
      </trkpt>
      <trkpt lat="43.009433" lon="-4.658000">
        <ele>3700.0</ele>
        <time>2013-09-04T14:34:08Z</time>
      </trkpt>
      <trkpt lat="43.009517" lon="-4.657883">
        <ele>3698.0</ele>
        <time>2013-09-04T14:34:09Z</time>
      </trkpt>
      <trkpt lat="43.009617" lon="-4.657767">
        <ele>3696.0</ele>
        <time>2013-09-04T14:34:10Z</time>
      </trkpt>
      <trkpt lat="43.009700" lon="-4.657667">
        <ele>3694.0</ele>
        <time>2013-09-04T14:34:11Z</time>
      </trkpt>
      <trkpt lat="43.009800" lon="-4.657567">
        <ele>3692.0</ele>
        <time>2013-09-04T14:34:12Z</time>
      </trkpt>
      <trkpt lat="43.009900" lon="-4.657467">
        <ele>3690.0</ele>
        <time>2013-09-04T14:34:13Z</time>
      </trkpt>
      <trkpt lat="43.010000" lon="-4.657367">
        <ele>3688.0</ele>
        <time>2013-09-04T14:34:14Z</time>
      </trkpt>
      <trkpt lat="43.010100" lon="-4.657267">
        <ele>3686.0</ele>
        <time>2013-09-04T14:34:15Z</time>
      </trkpt>
      <trkpt lat="43.010200" lon="-4.657150">
        <ele>3683.0</ele>
        <time>2013-09-04T14:34:16Z</time>
      </trkpt>
      <trkpt lat="43.010283" lon="-4.657033">
        <ele>3681.0</ele>
        <time>2013-09-04T14:34:17Z</time>
      </trkpt>
      <trkpt lat="43.010367" lon="-4.656917">
        <ele>3680.0</ele>
        <time>2013-09-04T14:34:18Z</time>
      </trkpt>
      <trkpt lat="43.010450" lon="-4.656800">
        <ele>3678.0</ele>
        <time>2013-09-04T14:34:19Z</time>
      </trkpt>
      <trkpt lat="43.010550" lon="-4.656700">
        <ele>3675.0</ele>
        <time>2013-09-04T14:34:20Z</time>
      </trkpt>
      <trkpt lat="43.010633" lon="-4.656583">
        <ele>3672.0</ele>
        <time>2013-09-04T14:34:21Z</time>
      </trkpt>
      <trkpt lat="43.010733" lon="-4.656467">
        <ele>3669.0</ele>
        <time>2013-09-04T14:34:22Z</time>
      </trkpt>
      <trkpt lat="43.010850" lon="-4.656367">
        <ele>3666.0</ele>
        <time>2013-09-04T14:34:23Z</time>
      </trkpt>
      <trkpt lat="43.010967" lon="-4.656267">
        <ele>3663.0</ele>
        <time>2013-09-04T14:34:24Z</time>
      </trkpt>
      <trkpt lat="43.011083" lon="-4.656183">
        <ele>3661.0</ele>
        <time>2013-09-04T14:34:25Z</time>
      </trkpt>
      <trkpt lat="43.011183" lon="-4.656100">
        <ele>3658.0</ele>
        <time>2013-09-04T14:34:26Z</time>
      </trkpt>
      <trkpt lat="43.011283" lon="-4.656017">
        <ele>3655.0</ele>
        <time>2013-09-04T14:34:27Z</time>
      </trkpt>
      <trkpt lat="43.011400" lon="-4.655933">
        <ele>3652.0</ele>
        <time>2013-09-04T14:34:28Z</time>
      </trkpt>
      <trkpt lat="43.011500" lon="-4.655833">
        <ele>3648.0</ele>
        <time>2013-09-04T14:34:29Z</time>
      </trkpt>
      <trkpt lat="43.011600" lon="-4.655733">
        <ele>3644.0</ele>
        <time>2013-09-04T14:34:30Z</time>
      </trkpt>
      <trkpt lat="43.011700" lon="-4.655617">
        <ele>3640.0</ele>
        <time>2013-09-04T14:34:31Z</time>
      </trkpt>
      <trkpt lat="43.011833" lon="-4.655517">
        <ele>3636.0</ele>
        <time>2013-09-04T14:34:32Z</time>
      </trkpt>
      <trkpt lat="43.011933" lon="-4.655400">
        <ele>3632.0</ele>
        <time>2013-09-04T14:34:33Z</time>
      </trkpt>
      <trkpt lat="43.012050" lon="-4.655283">
        <ele>3628.0</ele>
        <time>2013-09-04T14:34:34Z</time>
      </trkpt>
      <trkpt lat="43.012167" lon="-4.655150">
        <ele>3625.0</ele>
        <time>2013-09-04T14:34:35Z</time>
      </trkpt>
      <trkpt lat="43.012283" lon="-4.655017">
        <ele>3622.0</ele>
        <time>2013-09-04T14:34:36Z</time>
      </trkpt>
      <trkpt lat="43.012383" lon="-4.654900">
        <ele>3620.0</ele>
        <time>2013-09-04T14:34:37Z</time>
      </trkpt>
      <trkpt lat="43.012500" lon="-4.654783">
        <ele>3618.0</ele>
        <time>2013-09-04T14:34:38Z</time>
      </trkpt>
      <trkpt lat="43.012617" lon="-4.654650">
        <ele>3616.0</ele>
        <time>2013-09-04T14:34:39Z</time>
      </trkpt>
      <trkpt lat="43.012717" lon="-4.654517">
        <ele>3614.0</ele>
        <time>2013-09-04T14:34:40Z</time>
      </trkpt>
      <trkpt lat="43.012817" lon="-4.654400">
        <ele>3614.0</ele>
        <time>2013-09-04T14:34:41Z</time>
      </trkpt>
      <trkpt lat="43.012900" lon="-4.654283">
        <ele>3613.0</ele>
        <time>2013-09-04T14:34:42Z</time>
      </trkpt>
      <trkpt lat="43.013000" lon="-4.654183">
        <ele>3613.0</ele>
        <time>2013-09-04T14:34:43Z</time>
      </trkpt>
      <trkpt lat="43.013083" lon="-4.654067">
        <ele>3611.0</ele>
        <time>2013-09-04T14:34:44Z</time>
      </trkpt>
      <trkpt lat="43.013183" lon="-4.653950">
        <ele>3607.0</ele>
        <time>2013-09-04T14:34:45Z</time>
      </trkpt>
      <trkpt lat="43.013283" lon="-4.653800">
        <ele>3604.0</ele>
        <time>2013-09-04T14:34:46Z</time>
      </trkpt>
      <trkpt lat="43.013383" lon="-4.653667">
        <ele>3603.0</ele>
        <time>2013-09-04T14:34:47Z</time>
      </trkpt>
      <trkpt lat="43.013467" lon="-4.653567">
        <ele>3604.0</ele>
        <time>2013-09-04T14:34:48Z</time>
      </trkpt>
      <trkpt lat="43.013550" lon="-4.653483">
        <ele>3604.0</ele>
        <time>2013-09-04T14:34:49Z</time>
      </trkpt>
      <trkpt lat="43.013617" lon="-4.653400">
        <ele>3603.0</ele>
        <time>2013-09-04T14:34:50Z</time>
      </trkpt>
      <trkpt lat="43.013667" lon="-4.653333">
        <ele>3600.0</ele>
        <time>2013-09-04T14:34:51Z</time>
      </trkpt>
      <trkpt lat="43.013733" lon="-4.653250">
        <ele>3596.0</ele>
        <time>2013-09-04T14:34:52Z</time>
      </trkpt>
      <trkpt lat="43.013800" lon="-4.653150">
        <ele>3590.0</ele>
        <time>2013-09-04T14:34:53Z</time>
      </trkpt>
      <trkpt lat="43.013900" lon="-4.653017">
        <ele>3585.0</ele>
        <time>2013-09-04T14:34:54Z</time>
      </trkpt>
      <trkpt lat="43.014000" lon="-4.652883">
        <ele>3582.0</ele>
        <time>2013-09-04T14:34:55Z</time>
      </trkpt>
      <trkpt lat="43.014083" lon="-4.652750">
        <ele>3579.0</ele>
        <time>2013-09-04T14:34:56Z</time>
      </trkpt>
      <trkpt lat="43.014183" lon="-4.652633">
        <ele>3577.0</ele>
        <time>2013-09-04T14:34:57Z</time>
      </trkpt>
      <trkpt lat="43.014267" lon="-4.652533">
        <ele>3575.0</ele>
        <time>2013-09-04T14:34:58Z</time>
      </trkpt>
      <trkpt lat="43.014367" lon="-4.652417">
        <ele>3573.0</ele>
        <time>2013-09-04T14:34:59Z</time>
      </trkpt>
      <trkpt lat="43.014467" lon="-4.652300">
        <ele>3572.0</ele>
        <time>2013-09-04T14:35:00Z</time>
      </trkpt>
      <trkpt lat="43.014550" lon="-4.652183">
        <ele>3573.0</ele>
        <time>2013-09-04T14:35:01Z</time>
      </trkpt>
      <trkpt lat="43.014617" lon="-4.652067">
        <ele>3573.0</ele>
        <time>2013-09-04T14:35:02Z</time>
      </trkpt>
      <trkpt lat="43.014683" lon="-4.651967">
        <ele>3573.0</ele>
        <time>2013-09-04T14:35:03Z</time>
      </trkpt>
      <trkpt lat="43.014750" lon="-4.651850">
        <ele>3572.0</ele>
        <time>2013-09-04T14:35:04Z</time>
      </trkpt>
      <trkpt lat="43.014817" lon="-4.651750">
        <ele>3571.0</ele>
        <time>2013-09-04T14:35:05Z</time>
      </trkpt>
      <trkpt lat="43.014900" lon="-4.651633">
        <ele>3569.0</ele>
        <time>2013-09-04T14:35:06Z</time>
      </trkpt>
      <trkpt lat="43.014983" lon="-4.651517">
        <ele>3569.0</ele>
        <time>2013-09-04T14:35:07Z</time>
      </trkpt>
      <trkpt lat="43.015067" lon="-4.651417">
        <ele>3568.0</ele>
        <time>2013-09-04T14:35:08Z</time>
      </trkpt>
      <trkpt lat="43.015133" lon="-4.651317">
        <ele>3568.0</ele>
        <time>2013-09-04T14:35:09Z</time>
      </trkpt>
      <trkpt lat="43.015200" lon="-4.651217">
        <ele>3566.0</ele>
        <time>2013-09-04T14:35:10Z</time>
      </trkpt>
      <trkpt lat="43.015283" lon="-4.651100">
        <ele>3565.0</ele>
        <time>2013-09-04T14:35:11Z</time>
      </trkpt>
      <trkpt lat="43.015367" lon="-4.651000">
        <ele>3563.0</ele>
        <time>2013-09-04T14:35:12Z</time>
      </trkpt>
      <trkpt lat="43.015467" lon="-4.650900">
        <ele>3561.0</ele>
        <time>2013-09-04T14:35:13Z</time>
      </trkpt>
      <trkpt lat="43.015567" lon="-4.650783">
        <ele>3560.0</ele>
        <time>2013-09-04T14:35:14Z</time>
      </trkpt>
      <trkpt lat="43.015650" lon="-4.650667">
        <ele>3558.0</ele>
        <time>2013-09-04T14:35:15Z</time>
      </trkpt>
      <trkpt lat="43.015733" lon="-4.650550">
        <ele>3556.0</ele>
        <time>2013-09-04T14:35:16Z</time>
      </trkpt>
      <trkpt lat="43.015817" lon="-4.650417">
        <ele>3554.0</ele>
        <time>2013-09-04T14:35:17Z</time>
      </trkpt>
      <trkpt lat="43.015917" lon="-4.650283">
        <ele>3553.0</ele>
        <time>2013-09-04T14:35:18Z</time>
      </trkpt>
      <trkpt lat="43.016000" lon="-4.650150">
        <ele>3553.0</ele>
        <time>2013-09-04T14:35:19Z</time>
      </trkpt>
      <trkpt lat="43.016083" lon="-4.650033">
        <ele>3553.0</ele>
        <time>2013-09-04T14:35:20Z</time>
      </trkpt>
      <trkpt lat="43.016167" lon="-4.649917">
        <ele>3553.0</ele>
        <time>2013-09-04T14:35:21Z</time>
      </trkpt>
      <trkpt lat="43.016233" lon="-4.649817">
        <ele>3553.0</ele>
        <time>2013-09-04T14:35:22Z</time>
      </trkpt>
      <trkpt lat="43.016317" lon="-4.649700">
        <ele>3554.0</ele>
        <time>2013-09-04T14:35:23Z</time>
      </trkpt>
      <trkpt lat="43.016417" lon="-4.649600">
        <ele>3555.0</ele>
        <time>2013-09-04T14:35:24Z</time>
      </trkpt>
      <trkpt lat="43.016517" lon="-4.649500">
        <ele>3556.0</ele>
        <time>2013-09-04T14:35:25Z</time>
      </trkpt>
      <trkpt lat="43.016633" lon="-4.649400">
        <ele>3559.0</ele>
        <time>2013-09-04T14:35:26Z</time>
      </trkpt>
      <trkpt lat="43.016733" lon="-4.649333">
        <ele>3564.0</ele>
        <time>2013-09-04T14:35:27Z</time>
      </trkpt>
      <trkpt lat="43.016817" lon="-4.649267">
        <ele>3568.0</ele>
        <time>2013-09-04T14:35:28Z</time>
      </trkpt>
      <trkpt lat="43.016900" lon="-4.649217">
        <ele>3571.0</ele>
        <time>2013-09-04T14:35:29Z</time>
      </trkpt>
      <trkpt lat="43.016967" lon="-4.649167">
        <ele>3572.0</ele>
        <time>2013-09-04T14:35:30Z</time>
      </trkpt>
      <trkpt lat="43.017050" lon="-4.649117">
        <ele>3572.0</ele>
        <time>2013-09-04T14:35:31Z</time>
      </trkpt>
      <trkpt lat="43.017167" lon="-4.649033">
        <ele>3572.0</ele>
        <time>2013-09-04T14:35:32Z</time>
      </trkpt>
      <trkpt lat="43.017283" lon="-4.648967">
        <ele>3573.0</ele>
        <time>2013-09-04T14:35:33Z</time>
      </trkpt>
      <trkpt lat="43.017417" lon="-4.648950">
        <ele>3576.0</ele>
        <time>2013-09-04T14:35:34Z</time>
      </trkpt>
      <trkpt lat="43.017533" lon="-4.648983">
        <ele>3579.0</ele>
        <time>2013-09-04T14:35:35Z</time>
      </trkpt>
      <trkpt lat="43.017617" lon="-4.649050">
        <ele>3581.0</ele>
        <time>2013-09-04T14:35:36Z</time>
      </trkpt>
      <trkpt lat="43.017700" lon="-4.649133">
        <ele>3582.0</ele>
        <time>2013-09-04T14:35:37Z</time>
      </trkpt>
      <trkpt lat="43.017767" lon="-4.649233">
        <ele>3585.0</ele>
        <time>2013-09-04T14:35:38Z</time>
      </trkpt>
      <trkpt lat="43.017833" lon="-4.649333">
        <ele>3589.0</ele>
        <time>2013-09-04T14:35:39Z</time>
      </trkpt>
      <trkpt lat="43.017883" lon="-4.649450">
        <ele>3593.0</ele>
        <time>2013-09-04T14:35:40Z</time>
      </trkpt>
      <trkpt lat="43.017900" lon="-4.649533">
        <ele>3596.0</ele>
        <time>2013-09-04T14:35:41Z</time>
      </trkpt>
      <trkpt lat="43.017883" lon="-4.649617">
        <ele>3598.0</ele>
        <time>2013-09-04T14:35:42Z</time>
      </trkpt>
      <trkpt lat="43.017833" lon="-4.649667">
        <ele>3600.0</ele>
        <time>2013-09-04T14:35:43Z</time>
      </trkpt>
      <trkpt lat="43.017783" lon="-4.649683">
        <ele>3603.0</ele>
        <time>2013-09-04T14:35:44Z</time>
      </trkpt>
      <trkpt lat="43.017733" lon="-4.649667">
        <ele>3606.0</ele>
        <time>2013-09-04T14:35:45Z</time>
      </trkpt>
      <trkpt lat="43.017700" lon="-4.649617">
        <ele>3610.0</ele>
        <time>2013-09-04T14:35:46Z</time>
      </trkpt>
      <trkpt lat="43.017667" lon="-4.649550">
        <ele>3613.0</ele>
        <time>2013-09-04T14:35:47Z</time>
      </trkpt>
      <trkpt lat="43.017650" lon="-4.649450">
        <ele>3615.0</ele>
        <time>2013-09-04T14:35:48Z</time>
      </trkpt>
      <trkpt lat="43.017650" lon="-4.649333">
        <ele>3617.0</ele>
        <time>2013-09-04T14:35:49Z</time>
      </trkpt>
      <trkpt lat="43.017700" lon="-4.649233">
        <ele>3618.0</ele>
        <time>2013-09-04T14:35:50Z</time>
      </trkpt>
      <trkpt lat="43.017783" lon="-4.649133">
        <ele>3620.0</ele>
        <time>2013-09-04T14:35:51Z</time>
      </trkpt>
      <trkpt lat="43.017883" lon="-4.649033">
        <ele>3621.0</ele>
        <time>2013-09-04T14:35:52Z</time>
      </trkpt>
      <trkpt lat="43.017983" lon="-4.648950">
        <ele>3623.0</ele>
        <time>2013-09-04T14:35:53Z</time>
      </trkpt>
      <trkpt lat="43.018067" lon="-4.648883">
        <ele>3625.0</ele>
        <time>2013-09-04T14:35:54Z</time>
      </trkpt>
      <trkpt lat="43.018150" lon="-4.648800">
        <ele>3627.0</ele>
        <time>2013-09-04T14:35:55Z</time>
      </trkpt>
      <trkpt lat="43.018250" lon="-4.648750">
        <ele>3628.0</ele>
        <time>2013-09-04T14:35:56Z</time>
      </trkpt>
      <trkpt lat="43.018350" lon="-4.648683">
        <ele>3630.0</ele>
        <time>2013-09-04T14:35:57Z</time>
      </trkpt>
      <trkpt lat="43.018467" lon="-4.648633">
        <ele>3631.0</ele>
        <time>2013-09-04T14:35:58Z</time>
      </trkpt>
      <trkpt lat="43.018583" lon="-4.648600">
        <ele>3633.0</ele>
        <time>2013-09-04T14:35:59Z</time>
      </trkpt>
      <trkpt lat="43.018717" lon="-4.648583">
        <ele>3635.0</ele>
        <time>2013-09-04T14:36:00Z</time>
      </trkpt>
      <trkpt lat="43.018833" lon="-4.648567">
        <ele>3637.0</ele>
        <time>2013-09-04T14:36:01Z</time>
      </trkpt>
      <trkpt lat="43.018950" lon="-4.648533">
        <ele>3638.0</ele>
        <time>2013-09-04T14:36:02Z</time>
      </trkpt>
      <trkpt lat="43.019067" lon="-4.648500">
        <ele>3640.0</ele>
        <time>2013-09-04T14:36:03Z</time>
      </trkpt>
      <trkpt lat="43.019200" lon="-4.648483">
        <ele>3641.0</ele>
        <time>2013-09-04T14:36:04Z</time>
      </trkpt>
      <trkpt lat="43.019350" lon="-4.648483">
        <ele>3642.0</ele>
        <time>2013-09-04T14:36:05Z</time>
      </trkpt>
      <trkpt lat="43.019483" lon="-4.648517">
        <ele>3644.0</ele>
        <time>2013-09-04T14:36:06Z</time>
      </trkpt>
      <trkpt lat="43.019633" lon="-4.648567">
        <ele>3647.0</ele>
        <time>2013-09-04T14:36:07Z</time>
      </trkpt>
      <trkpt lat="43.019750" lon="-4.648617">
        <ele>3651.0</ele>
        <time>2013-09-04T14:36:08Z</time>
      </trkpt>
      <trkpt lat="43.019867" lon="-4.648667">
        <ele>3656.0</ele>
        <time>2013-09-04T14:36:09Z</time>
      </trkpt>
      <trkpt lat="43.019983" lon="-4.648717">
        <ele>3659.0</ele>
        <time>2013-09-04T14:36:10Z</time>
      </trkpt>
      <trkpt lat="43.020083" lon="-4.648800">
        <ele>3662.0</ele>
        <time>2013-09-04T14:36:11Z</time>
      </trkpt>
      <trkpt lat="43.020183" lon="-4.648917">
        <ele>3665.0</ele>
        <time>2013-09-04T14:36:12Z</time>
      </trkpt>
      <trkpt lat="43.020267" lon="-4.649033">
        <ele>3668.0</ele>
        <time>2013-09-04T14:36:13Z</time>
      </trkpt>
      <trkpt lat="43.020350" lon="-4.649150">
        <ele>3672.0</ele>
        <time>2013-09-04T14:36:14Z</time>
      </trkpt>
      <trkpt lat="43.020433" lon="-4.649267">
        <ele>3676.0</ele>
        <time>2013-09-04T14:36:15Z</time>
      </trkpt>
      <trkpt lat="43.020517" lon="-4.649400">
        <ele>3681.0</ele>
        <time>2013-09-04T14:36:16Z</time>
      </trkpt>
      <trkpt lat="43.020583" lon="-4.649533">
        <ele>3685.0</ele>
        <time>2013-09-04T14:36:17Z</time>
      </trkpt>
      <trkpt lat="43.020633" lon="-4.649667">
        <ele>3689.0</ele>
        <time>2013-09-04T14:36:18Z</time>
      </trkpt>
      <trkpt lat="43.020650" lon="-4.649817">
        <ele>3693.0</ele>
        <time>2013-09-04T14:36:19Z</time>
      </trkpt>
      <trkpt lat="43.020667" lon="-4.649967">
        <ele>3696.0</ele>
        <time>2013-09-04T14:36:20Z</time>
      </trkpt>
      <trkpt lat="43.020683" lon="-4.650117">
        <ele>3698.0</ele>
        <time>2013-09-04T14:36:21Z</time>
      </trkpt>
      <trkpt lat="43.020683" lon="-4.650267">
        <ele>3702.0</ele>
        <time>2013-09-04T14:36:22Z</time>
      </trkpt>
      <trkpt lat="43.020667" lon="-4.650400">
        <ele>3706.0</ele>
        <time>2013-09-04T14:36:23Z</time>
      </trkpt>
      <trkpt lat="43.020667" lon="-4.650517">
        <ele>3711.0</ele>
        <time>2013-09-04T14:36:24Z</time>
      </trkpt>
      <trkpt lat="43.020650" lon="-4.650617">
        <ele>3716.0</ele>
        <time>2013-09-04T14:36:25Z</time>
      </trkpt>
      <trkpt lat="43.020633" lon="-4.650700">
        <ele>3718.0</ele>
        <time>2013-09-04T14:36:26Z</time>
      </trkpt>
      <trkpt lat="43.020600" lon="-4.650767">
        <ele>3719.0</ele>
        <time>2013-09-04T14:36:27Z</time>
      </trkpt>
      <trkpt lat="43.020550" lon="-4.650817">
        <ele>3720.0</ele>
        <time>2013-09-04T14:36:28Z</time>
      </trkpt>
      <trkpt lat="43.020500" lon="-4.650850">
        <ele>3722.0</ele>
        <time>2013-09-04T14:36:29Z</time>
      </trkpt>
      <trkpt lat="43.020450" lon="-4.650850">
        <ele>3724.0</ele>
        <time>2013-09-04T14:36:30Z</time>
      </trkpt>
      <trkpt lat="43.020417" lon="-4.650817">
        <ele>3725.0</ele>
        <time>2013-09-04T14:36:31Z</time>
      </trkpt>
      <trkpt lat="43.020400" lon="-4.650750">
        <ele>3726.0</ele>
        <time>2013-09-04T14:36:32Z</time>
      </trkpt>
      <trkpt lat="43.020400" lon="-4.650650">
        <ele>3726.0</ele>
        <time>2013-09-04T14:36:33Z</time>
      </trkpt>
      <trkpt lat="43.020417" lon="-4.650533">
        <ele>3727.0</ele>
        <time>2013-09-04T14:36:34Z</time>
      </trkpt>
      <trkpt lat="43.020467" lon="-4.650417">
        <ele>3729.0</ele>
        <time>2013-09-04T14:36:35Z</time>
      </trkpt>
      <trkpt lat="43.020533" lon="-4.650300">
        <ele>3731.0</ele>
        <time>2013-09-04T14:36:36Z</time>
      </trkpt>
      <trkpt lat="43.020600" lon="-4.650200">
        <ele>3735.0</ele>
        <time>2013-09-04T14:36:37Z</time>
      </trkpt>
      <trkpt lat="43.020683" lon="-4.650100">
        <ele>3738.0</ele>
        <time>2013-09-04T14:36:38Z</time>
      </trkpt>
      <trkpt lat="43.020750" lon="-4.650017">
        <ele>3740.0</ele>
        <time>2013-09-04T14:36:39Z</time>
      </trkpt>
      <trkpt lat="43.020850" lon="-4.649950">
        <ele>3742.0</ele>
        <time>2013-09-04T14:36:40Z</time>
      </trkpt>
      <trkpt lat="43.020933" lon="-4.649867">
        <ele>3745.0</ele>
        <time>2013-09-04T14:36:41Z</time>
      </trkpt>
      <trkpt lat="43.021017" lon="-4.649783">
        <ele>3747.0</ele>
        <time>2013-09-04T14:36:42Z</time>
      </trkpt>
      <trkpt lat="43.021100" lon="-4.649717">
        <ele>3749.0</ele>
        <time>2013-09-04T14:36:43Z</time>
      </trkpt>
      <trkpt lat="43.021183" lon="-4.649650">
        <ele>3751.0</ele>
        <time>2013-09-04T14:36:44Z</time>
      </trkpt>
      <trkpt lat="43.021250" lon="-4.649583">
        <ele>3754.0</ele>
        <time>2013-09-04T14:36:45Z</time>
      </trkpt>
      <trkpt lat="43.021300" lon="-4.649517">
        <ele>3756.0</ele>
        <time>2013-09-04T14:36:46Z</time>
      </trkpt>
      <trkpt lat="43.021350" lon="-4.649417">
        <ele>3758.0</ele>
        <time>2013-09-04T14:36:47Z</time>
      </trkpt>
      <trkpt lat="43.021417" lon="-4.649317">
        <ele>3762.0</ele>
        <time>2013-09-04T14:36:48Z</time>
      </trkpt>
      <trkpt lat="43.021483" lon="-4.649250">
        <ele>3765.0</ele>
        <time>2013-09-04T14:36:49Z</time>
      </trkpt>
      <trkpt lat="43.021567" lon="-4.649200">
        <ele>3769.0</ele>
        <time>2013-09-04T14:36:50Z</time>
      </trkpt>
      <trkpt lat="43.021633" lon="-4.649150">
        <ele>3772.0</ele>
        <time>2013-09-04T14:36:51Z</time>
      </trkpt>
      <trkpt lat="43.021717" lon="-4.649100">
        <ele>3776.0</ele>
        <time>2013-09-04T14:36:52Z</time>
      </trkpt>
      <trkpt lat="43.021800" lon="-4.649050">
        <ele>3779.0</ele>
        <time>2013-09-04T14:36:53Z</time>
      </trkpt>
      <trkpt lat="43.021867" lon="-4.649000">
        <ele>3782.0</ele>
        <time>2013-09-04T14:36:54Z</time>
      </trkpt>
      <trkpt lat="43.021967" lon="-4.648950">
        <ele>3786.0</ele>
        <time>2013-09-04T14:36:55Z</time>
      </trkpt>
      <trkpt lat="43.022050" lon="-4.648900">
        <ele>3789.0</ele>
        <time>2013-09-04T14:36:56Z</time>
      </trkpt>
      <trkpt lat="43.022150" lon="-4.648850">
        <ele>3792.0</ele>
        <time>2013-09-04T14:36:57Z</time>
      </trkpt>
      <trkpt lat="43.022233" lon="-4.648800">
        <ele>3795.0</ele>
        <time>2013-09-04T14:36:58Z</time>
      </trkpt>
      <trkpt lat="43.022333" lon="-4.648767">
        <ele>3798.0</ele>
        <time>2013-09-04T14:36:59Z</time>
      </trkpt>
      <trkpt lat="43.022417" lon="-4.648717">
        <ele>3801.0</ele>
        <time>2013-09-04T14:37:00Z</time>
      </trkpt>
      <trkpt lat="43.022500" lon="-4.648667">
        <ele>3803.0</ele>
        <time>2013-09-04T14:37:01Z</time>
      </trkpt>
      <trkpt lat="43.022583" lon="-4.648600">
        <ele>3805.0</ele>
        <time>2013-09-04T14:37:02Z</time>
      </trkpt>
      <trkpt lat="43.022667" lon="-4.648550">
        <ele>3807.0</ele>
        <time>2013-09-04T14:37:03Z</time>
      </trkpt>
      <trkpt lat="43.022750" lon="-4.648500">
        <ele>3809.0</ele>
        <time>2013-09-04T14:37:04Z</time>
      </trkpt>
      <trkpt lat="43.022833" lon="-4.648433">
        <ele>3811.0</ele>
        <time>2013-09-04T14:37:05Z</time>
      </trkpt>
      <trkpt lat="43.022900" lon="-4.648367">
        <ele>3814.0</ele>
        <time>2013-09-04T14:37:06Z</time>
      </trkpt>
      <trkpt lat="43.022983" lon="-4.648317">
        <ele>3816.0</ele>
        <time>2013-09-04T14:37:07Z</time>
      </trkpt>
      <trkpt lat="43.023067" lon="-4.648283">
        <ele>3818.0</ele>
        <time>2013-09-04T14:37:08Z</time>
      </trkpt>
      <trkpt lat="43.023183" lon="-4.648250">
        <ele>3819.0</ele>
        <time>2013-09-04T14:37:09Z</time>
      </trkpt>
      <trkpt lat="43.023283" lon="-4.648250">
        <ele>3822.0</ele>
        <time>2013-09-04T14:37:10Z</time>
      </trkpt>
      <trkpt lat="43.023383" lon="-4.648267">
        <ele>3824.0</ele>
        <time>2013-09-04T14:37:11Z</time>
      </trkpt>
      <trkpt lat="43.023483" lon="-4.648300">
        <ele>3826.0</ele>
        <time>2013-09-04T14:37:12Z</time>
      </trkpt>
      <trkpt lat="43.023567" lon="-4.648367">
        <ele>3827.0</ele>
        <time>2013-09-04T14:37:13Z</time>
      </trkpt>
      <trkpt lat="43.023650" lon="-4.648433">
        <ele>3828.0</ele>
        <time>2013-09-04T14:37:14Z</time>
      </trkpt>
      <trkpt lat="43.023733" lon="-4.648533">
        <ele>3828.0</ele>
        <time>2013-09-04T14:37:15Z</time>
      </trkpt>
      <trkpt lat="43.023800" lon="-4.648633">
        <ele>3829.0</ele>
        <time>2013-09-04T14:37:16Z</time>
      </trkpt>
      <trkpt lat="43.023867" lon="-4.648750">
        <ele>3830.0</ele>
        <time>2013-09-04T14:37:17Z</time>
      </trkpt>
      <trkpt lat="43.023917" lon="-4.648883">
        <ele>3831.0</ele>
        <time>2013-09-04T14:37:18Z</time>
      </trkpt>
      <trkpt lat="43.023933" lon="-4.649000">
        <ele>3832.0</ele>
        <time>2013-09-04T14:37:19Z</time>
      </trkpt>
      <trkpt lat="43.023933" lon="-4.649133">
        <ele>3834.0</ele>
        <time>2013-09-04T14:37:20Z</time>
      </trkpt>
      <trkpt lat="43.023917" lon="-4.649233">
        <ele>3836.0</ele>
        <time>2013-09-04T14:37:21Z</time>
      </trkpt>
      <trkpt lat="43.023900" lon="-4.649333">
        <ele>3839.0</ele>
        <time>2013-09-04T14:37:22Z</time>
      </trkpt>
      <trkpt lat="43.023867" lon="-4.649400">
        <ele>3841.0</ele>
        <time>2013-09-04T14:37:23Z</time>
      </trkpt>
      <trkpt lat="43.023833" lon="-4.649467">
        <ele>3842.0</ele>
        <time>2013-09-04T14:37:24Z</time>
      </trkpt>
      <trkpt lat="43.023783" lon="-4.649517">
        <ele>3843.0</ele>
        <time>2013-09-04T14:37:25Z</time>
      </trkpt>
      <trkpt lat="43.023750" lon="-4.649550">
        <ele>3844.0</ele>
        <time>2013-09-04T14:37:26Z</time>
      </trkpt>
      <trkpt lat="43.023700" lon="-4.649550">
        <ele>3844.0</ele>
        <time>2013-09-04T14:37:27Z</time>
      </trkpt>
      <trkpt lat="43.023650" lon="-4.649500">
        <ele>3843.0</ele>
        <time>2013-09-04T14:37:28Z</time>
      </trkpt>
      <trkpt lat="43.023617" lon="-4.649400">
        <ele>3843.0</ele>
        <time>2013-09-04T14:37:29Z</time>
      </trkpt>
      <trkpt lat="43.023617" lon="-4.649267">
        <ele>3843.0</ele>
        <time>2013-09-04T14:37:30Z</time>
      </trkpt>
      <trkpt lat="43.023667" lon="-4.649150">
        <ele>3844.0</ele>
        <time>2013-09-04T14:37:31Z</time>
      </trkpt>
      <trkpt lat="43.023733" lon="-4.649067">
        <ele>3847.0</ele>
        <time>2013-09-04T14:37:32Z</time>
      </trkpt>
      <trkpt lat="43.023817" lon="-4.649000">
        <ele>3848.0</ele>
        <time>2013-09-04T14:37:33Z</time>
      </trkpt>
      <trkpt lat="43.023883" lon="-4.648950">
        <ele>3848.0</ele>
        <time>2013-09-04T14:37:34Z</time>
      </trkpt>
      <trkpt lat="43.023983" lon="-4.648900">
        <ele>3848.0</ele>
        <time>2013-09-04T14:37:35Z</time>
      </trkpt>
      <trkpt lat="43.024083" lon="-4.648867">
        <ele>3848.0</ele>
        <time>2013-09-04T14:37:36Z</time>
      </trkpt>
      <trkpt lat="43.024183" lon="-4.648817">
        <ele>3847.0</ele>
        <time>2013-09-04T14:37:37Z</time>
      </trkpt>
      <trkpt lat="43.024300" lon="-4.648767">
        <ele>3846.0</ele>
        <time>2013-09-04T14:37:38Z</time>
      </trkpt>
      <trkpt lat="43.024433" lon="-4.648717">
        <ele>3847.0</ele>
        <time>2013-09-04T14:37:39Z</time>
      </trkpt>
      <trkpt lat="43.024550" lon="-4.648667">
        <ele>3847.0</ele>
        <time>2013-09-04T14:37:40Z</time>
      </trkpt>
      <trkpt lat="43.024650" lon="-4.648600">
        <ele>3849.0</ele>
        <time>2013-09-04T14:37:41Z</time>
      </trkpt>
      <trkpt lat="43.024767" lon="-4.648550">
        <ele>3850.0</ele>
        <time>2013-09-04T14:37:42Z</time>
      </trkpt>
      <trkpt lat="43.024883" lon="-4.648483">
        <ele>3853.0</ele>
        <time>2013-09-04T14:37:43Z</time>
      </trkpt>
      <trkpt lat="43.024983" lon="-4.648433">
        <ele>3855.0</ele>
        <time>2013-09-04T14:37:44Z</time>
      </trkpt>
      <trkpt lat="43.025083" lon="-4.648383">
        <ele>3857.0</ele>
        <time>2013-09-04T14:37:45Z</time>
      </trkpt>
      <trkpt lat="43.025183" lon="-4.648317">
        <ele>3858.0</ele>
        <time>2013-09-04T14:37:46Z</time>
      </trkpt>
      <trkpt lat="43.025300" lon="-4.648267">
        <ele>3859.0</ele>
        <time>2013-09-04T14:37:47Z</time>
      </trkpt>
      <trkpt lat="43.025400" lon="-4.648183">
        <ele>3860.0</ele>
        <time>2013-09-04T14:37:48Z</time>
      </trkpt>
      <trkpt lat="43.025517" lon="-4.648100">
        <ele>3861.0</ele>
        <time>2013-09-04T14:37:49Z</time>
      </trkpt>
      <trkpt lat="43.025617" lon="-4.648000">
        <ele>3864.0</ele>
        <time>2013-09-04T14:37:50Z</time>
      </trkpt>
      <trkpt lat="43.025717" lon="-4.647883">
        <ele>3868.0</ele>
        <time>2013-09-04T14:37:51Z</time>
      </trkpt>
      <trkpt lat="43.025817" lon="-4.647783">
        <ele>3872.0</ele>
        <time>2013-09-04T14:37:52Z</time>
      </trkpt>
      <trkpt lat="43.025900" lon="-4.647700">
        <ele>3876.0</ele>
        <time>2013-09-04T14:37:53Z</time>
      </trkpt>
      <trkpt lat="43.026000" lon="-4.647600">
        <ele>3880.0</ele>
        <time>2013-09-04T14:37:54Z</time>
      </trkpt>
      <trkpt lat="43.026083" lon="-4.647500">
        <ele>3883.0</ele>
        <time>2013-09-04T14:37:55Z</time>
      </trkpt>
      <trkpt lat="43.026167" lon="-4.647417">
        <ele>3885.0</ele>
        <time>2013-09-04T14:37:56Z</time>
      </trkpt>
      <trkpt lat="43.026267" lon="-4.647333">
        <ele>3888.0</ele>
        <time>2013-09-04T14:37:57Z</time>
      </trkpt>
      <trkpt lat="43.026383" lon="-4.647250">
        <ele>3890.0</ele>
        <time>2013-09-04T14:37:58Z</time>
      </trkpt>
      <trkpt lat="43.026483" lon="-4.647183">
        <ele>3890.0</ele>
        <time>2013-09-04T14:37:59Z</time>
      </trkpt>
      <trkpt lat="43.026583" lon="-4.647100">
        <ele>3890.0</ele>
        <time>2013-09-04T14:38:00Z</time>
      </trkpt>
      <trkpt lat="43.026667" lon="-4.647017">
        <ele>3889.0</ele>
        <time>2013-09-04T14:38:01Z</time>
      </trkpt>
      <trkpt lat="43.026767" lon="-4.646900">
        <ele>3887.0</ele>
        <time>2013-09-04T14:38:02Z</time>
      </trkpt>
      <trkpt lat="43.026850" lon="-4.646783">
        <ele>3886.0</ele>
        <time>2013-09-04T14:38:03Z</time>
      </trkpt>
      <trkpt lat="43.026933" lon="-4.646683">
        <ele>3884.0</ele>
        <time>2013-09-04T14:38:04Z</time>
      </trkpt>
      <trkpt lat="43.027033" lon="-4.646567">
        <ele>3883.0</ele>
        <time>2013-09-04T14:38:05Z</time>
      </trkpt>
      <trkpt lat="43.027117" lon="-4.646450">
        <ele>3882.0</ele>
        <time>2013-09-04T14:38:06Z</time>
      </trkpt>
      <trkpt lat="43.027200" lon="-4.646333">
        <ele>3881.0</ele>
        <time>2013-09-04T14:38:07Z</time>
      </trkpt>
      <trkpt lat="43.027300" lon="-4.646233">
        <ele>3881.0</ele>
        <time>2013-09-04T14:38:08Z</time>
      </trkpt>
      <trkpt lat="43.027383" lon="-4.646133">
        <ele>3880.0</ele>
        <time>2013-09-04T14:38:09Z</time>
      </trkpt>
      <trkpt lat="43.027467" lon="-4.646017">
        <ele>3879.0</ele>
        <time>2013-09-04T14:38:10Z</time>
      </trkpt>
      <trkpt lat="43.027550" lon="-4.645917">
        <ele>3877.0</ele>
        <time>2013-09-04T14:38:11Z</time>
      </trkpt>
      <trkpt lat="43.027650" lon="-4.645800">
        <ele>3876.0</ele>
        <time>2013-09-04T14:38:12Z</time>
      </trkpt>
      <trkpt lat="43.027733" lon="-4.645700">
        <ele>3875.0</ele>
        <time>2013-09-04T14:38:13Z</time>
      </trkpt>
      <trkpt lat="43.027833" lon="-4.645600">
        <ele>3874.0</ele>
        <time>2013-09-04T14:38:14Z</time>
      </trkpt>
      <trkpt lat="43.027933" lon="-4.645500">
        <ele>3873.0</ele>
        <time>2013-09-04T14:38:15Z</time>
      </trkpt>
      <trkpt lat="43.028000" lon="-4.645367">
        <ele>3872.0</ele>
        <time>2013-09-04T14:38:16Z</time>
      </trkpt>
      <trkpt lat="43.028067" lon="-4.645250">
        <ele>3871.0</ele>
        <time>2013-09-04T14:38:17Z</time>
      </trkpt>
      <trkpt lat="43.028117" lon="-4.645133">
        <ele>3871.0</ele>
        <time>2013-09-04T14:38:18Z</time>
      </trkpt>
      <trkpt lat="43.028183" lon="-4.645050">
        <ele>3872.0</ele>
        <time>2013-09-04T14:38:19Z</time>
      </trkpt>
      <trkpt lat="43.028233" lon="-4.644967">
        <ele>3872.0</ele>
        <time>2013-09-04T14:38:20Z</time>
      </trkpt>
      <trkpt lat="43.028300" lon="-4.644900">
        <ele>3871.0</ele>
        <time>2013-09-04T14:38:21Z</time>
      </trkpt>
      <trkpt lat="43.028350" lon="-4.644800">
        <ele>3870.0</ele>
        <time>2013-09-04T14:38:22Z</time>
      </trkpt>
      <trkpt lat="43.028433" lon="-4.644700">
        <ele>3868.0</ele>
        <time>2013-09-04T14:38:23Z</time>
      </trkpt>
      <trkpt lat="43.028517" lon="-4.644600">
        <ele>3867.0</ele>
        <time>2013-09-04T14:38:24Z</time>
      </trkpt>
      <trkpt lat="43.028600" lon="-4.644533">
        <ele>3866.0</ele>
        <time>2013-09-04T14:38:25Z</time>
      </trkpt>
      <trkpt lat="43.028683" lon="-4.644483">
        <ele>3865.0</ele>
        <time>2013-09-04T14:38:26Z</time>
      </trkpt>
      <trkpt lat="43.028750" lon="-4.644417">
        <ele>3863.0</ele>
        <time>2013-09-04T14:38:27Z</time>
      </trkpt>
      <trkpt lat="43.028833" lon="-4.644367">
        <ele>3864.0</ele>
        <time>2013-09-04T14:38:28Z</time>
      </trkpt>
      <trkpt lat="43.028917" lon="-4.644300">
        <ele>3864.0</ele>
        <time>2013-09-04T14:38:29Z</time>
      </trkpt>
      <trkpt lat="43.029000" lon="-4.644267">
        <ele>3865.0</ele>
        <time>2013-09-04T14:38:30Z</time>
      </trkpt>
      <trkpt lat="43.029083" lon="-4.644250">
        <ele>3865.0</ele>
        <time>2013-09-04T14:38:31Z</time>
      </trkpt>
      <trkpt lat="43.029150" lon="-4.644217">
        <ele>3864.0</ele>
        <time>2013-09-04T14:38:32Z</time>
      </trkpt>
      <trkpt lat="43.029233" lon="-4.644183">
        <ele>3863.0</ele>
        <time>2013-09-04T14:38:33Z</time>
      </trkpt>
      <trkpt lat="43.029300" lon="-4.644133">
        <ele>3862.0</ele>
        <time>2013-09-04T14:38:34Z</time>
      </trkpt>
      <trkpt lat="43.029367" lon="-4.644083">
        <ele>3861.0</ele>
        <time>2013-09-04T14:38:35Z</time>
      </trkpt>
      <trkpt lat="43.029433" lon="-4.644017">
        <ele>3859.0</ele>
        <time>2013-09-04T14:38:36Z</time>
      </trkpt>
      <trkpt lat="43.029483" lon="-4.643950">
        <ele>3858.0</ele>
        <time>2013-09-04T14:38:37Z</time>
      </trkpt>
      <trkpt lat="43.029533" lon="-4.643867">
        <ele>3857.0</ele>
        <time>2013-09-04T14:38:38Z</time>
      </trkpt>
      <trkpt lat="43.029600" lon="-4.643783">
        <ele>3856.0</ele>
        <time>2013-09-04T14:38:39Z</time>
      </trkpt>
      <trkpt lat="43.029700" lon="-4.643683">
        <ele>3857.0</ele>
        <time>2013-09-04T14:38:40Z</time>
      </trkpt>
      <trkpt lat="43.029800" lon="-4.643617">
        <ele>3859.0</ele>
        <time>2013-09-04T14:38:41Z</time>
      </trkpt>
      <trkpt lat="43.029900" lon="-4.643567">
        <ele>3861.0</ele>
        <time>2013-09-04T14:38:42Z</time>
      </trkpt>
      <trkpt lat="43.029983" lon="-4.643550">
        <ele>3863.0</ele>
        <time>2013-09-04T14:38:43Z</time>
      </trkpt>
      <trkpt lat="43.030050" lon="-4.643533">
        <ele>3863.0</ele>
        <time>2013-09-04T14:38:44Z</time>
      </trkpt>
      <trkpt lat="43.030117" lon="-4.643500">
        <ele>3863.0</ele>
        <time>2013-09-04T14:38:45Z</time>
      </trkpt>
      <trkpt lat="43.030183" lon="-4.643450">
        <ele>3860.0</ele>
        <time>2013-09-04T14:38:46Z</time>
      </trkpt>
      <trkpt lat="43.030300" lon="-4.643383">
        <ele>3857.0</ele>
        <time>2013-09-04T14:38:47Z</time>
      </trkpt>
      <trkpt lat="43.030417" lon="-4.643300">
        <ele>3856.0</ele>
        <time>2013-09-04T14:38:48Z</time>
      </trkpt>
      <trkpt lat="43.030517" lon="-4.643233">
        <ele>3859.0</ele>
        <time>2013-09-04T14:38:49Z</time>
      </trkpt>
      <trkpt lat="43.030583" lon="-4.643183">
        <ele>3861.0</ele>
        <time>2013-09-04T14:38:50Z</time>
      </trkpt>
      <trkpt lat="43.030667" lon="-4.643150">
        <ele>3862.0</ele>
        <time>2013-09-04T14:38:51Z</time>
      </trkpt>
      <trkpt lat="43.030750" lon="-4.643117">
        <ele>3862.0</ele>
        <time>2013-09-04T14:38:52Z</time>
      </trkpt>
      <trkpt lat="43.030850" lon="-4.643083">
        <ele>3861.0</ele>
        <time>2013-09-04T14:38:53Z</time>
      </trkpt>
      <trkpt lat="43.030950" lon="-4.643033">
        <ele>3860.0</ele>
        <time>2013-09-04T14:38:54Z</time>
      </trkpt>
      <trkpt lat="43.031050" lon="-4.642983">
        <ele>3859.0</ele>
        <time>2013-09-04T14:38:55Z</time>
      </trkpt>
      <trkpt lat="43.031133" lon="-4.642917">
        <ele>3859.0</ele>
        <time>2013-09-04T14:38:56Z</time>
      </trkpt>
      <trkpt lat="43.031200" lon="-4.642850">
        <ele>3859.0</ele>
        <time>2013-09-04T14:38:57Z</time>
      </trkpt>
      <trkpt lat="43.031267" lon="-4.642783">
        <ele>3859.0</ele>
        <time>2013-09-04T14:38:58Z</time>
      </trkpt>
      <trkpt lat="43.031333" lon="-4.642717">
        <ele>3859.0</ele>
        <time>2013-09-04T14:38:59Z</time>
      </trkpt>
      <trkpt lat="43.031400" lon="-4.642650">
        <ele>3859.0</ele>
        <time>2013-09-04T14:39:00Z</time>
      </trkpt>
      <trkpt lat="43.031467" lon="-4.642583">
        <ele>3859.0</ele>
        <time>2013-09-04T14:39:01Z</time>
      </trkpt>
      <trkpt lat="43.031550" lon="-4.642533">
        <ele>3860.0</ele>
        <time>2013-09-04T14:39:02Z</time>
      </trkpt>
      <trkpt lat="43.031633" lon="-4.642500">
        <ele>3860.0</ele>
        <time>2013-09-04T14:39:03Z</time>
      </trkpt>
      <trkpt lat="43.031717" lon="-4.642483">
        <ele>3860.0</ele>
        <time>2013-09-04T14:39:04Z</time>
      </trkpt>
      <trkpt lat="43.031800" lon="-4.642467">
        <ele>3858.0</ele>
        <time>2013-09-04T14:39:05Z</time>
      </trkpt>
      <trkpt lat="43.031883" lon="-4.642417">
        <ele>3856.0</ele>
        <time>2013-09-04T14:39:06Z</time>
      </trkpt>
      <trkpt lat="43.031967" lon="-4.642333">
        <ele>3854.0</ele>
        <time>2013-09-04T14:39:07Z</time>
      </trkpt>
      <trkpt lat="43.032050" lon="-4.642267">
        <ele>3854.0</ele>
        <time>2013-09-04T14:39:08Z</time>
      </trkpt>
      <trkpt lat="43.032133" lon="-4.642200">
        <ele>3855.0</ele>
        <time>2013-09-04T14:39:09Z</time>
      </trkpt>
      <trkpt lat="43.032200" lon="-4.642150">
        <ele>3856.0</ele>
        <time>2013-09-04T14:39:10Z</time>
      </trkpt>
      <trkpt lat="43.032267" lon="-4.642100">
        <ele>3856.0</ele>
        <time>2013-09-04T14:39:11Z</time>
      </trkpt>
      <trkpt lat="43.032333" lon="-4.642033">
        <ele>3856.0</ele>
        <time>2013-09-04T14:39:12Z</time>
      </trkpt>
      <trkpt lat="43.032400" lon="-4.641983">
        <ele>3856.0</ele>
        <time>2013-09-04T14:39:13Z</time>
      </trkpt>
      <trkpt lat="43.032467" lon="-4.641917">
        <ele>3856.0</ele>
        <time>2013-09-04T14:39:14Z</time>
      </trkpt>
      <trkpt lat="43.032550" lon="-4.641867">
        <ele>3857.0</ele>
        <time>2013-09-04T14:39:15Z</time>
      </trkpt>
      <trkpt lat="43.032633" lon="-4.641833">
        <ele>3858.0</ele>
        <time>2013-09-04T14:39:16Z</time>
      </trkpt>
      <trkpt lat="43.032733" lon="-4.641800">
        <ele>3859.0</ele>
        <time>2013-09-04T14:39:17Z</time>
      </trkpt>
      <trkpt lat="43.032833" lon="-4.641783">
        <ele>3860.0</ele>
        <time>2013-09-04T14:39:18Z</time>
      </trkpt>
      <trkpt lat="43.032950" lon="-4.641750">
        <ele>3861.0</ele>
        <time>2013-09-04T14:39:19Z</time>
      </trkpt>
      <trkpt lat="43.033050" lon="-4.641717">
        <ele>3864.0</ele>
        <time>2013-09-04T14:39:20Z</time>
      </trkpt>
      <trkpt lat="43.033150" lon="-4.641667">
        <ele>3866.0</ele>
        <time>2013-09-04T14:39:21Z</time>
      </trkpt>
      <trkpt lat="43.033233" lon="-4.641617">
        <ele>3869.0</ele>
        <time>2013-09-04T14:39:22Z</time>
      </trkpt>
      <trkpt lat="43.033300" lon="-4.641550">
        <ele>3871.0</ele>
        <time>2013-09-04T14:39:23Z</time>
      </trkpt>
      <trkpt lat="43.033400" lon="-4.641500">
        <ele>3873.0</ele>
        <time>2013-09-04T14:39:24Z</time>
      </trkpt>
      <trkpt lat="43.033483" lon="-4.641467">
        <ele>3876.0</ele>
        <time>2013-09-04T14:39:25Z</time>
      </trkpt>
      <trkpt lat="43.033583" lon="-4.641433">
        <ele>3878.0</ele>
        <time>2013-09-04T14:39:26Z</time>
      </trkpt>
      <trkpt lat="43.033700" lon="-4.641400">
        <ele>3880.0</ele>
        <time>2013-09-04T14:39:27Z</time>
      </trkpt>
      <trkpt lat="43.033800" lon="-4.641383">
        <ele>3883.0</ele>
        <time>2013-09-04T14:39:28Z</time>
      </trkpt>
      <trkpt lat="43.033917" lon="-4.641350">
        <ele>3885.0</ele>
        <time>2013-09-04T14:39:29Z</time>
      </trkpt>
      <trkpt lat="43.034017" lon="-4.641333">
        <ele>3888.0</ele>
        <time>2013-09-04T14:39:30Z</time>
      </trkpt>
      <trkpt lat="43.034117" lon="-4.641317">
        <ele>3891.0</ele>
        <time>2013-09-04T14:39:31Z</time>
      </trkpt>
      <trkpt lat="43.034217" lon="-4.641300">
        <ele>3894.0</ele>
        <time>2013-09-04T14:39:32Z</time>
      </trkpt>
      <trkpt lat="43.034317" lon="-4.641283">
        <ele>3896.0</ele>
        <time>2013-09-04T14:39:33Z</time>
      </trkpt>
      <trkpt lat="43.034400" lon="-4.641250">
        <ele>3898.0</ele>
        <time>2013-09-04T14:39:34Z</time>
      </trkpt>
      <trkpt lat="43.034483" lon="-4.641200">
        <ele>3900.0</ele>
        <time>2013-09-04T14:39:35Z</time>
      </trkpt>
      <trkpt lat="43.034583" lon="-4.641133">
        <ele>3902.0</ele>
        <time>2013-09-04T14:39:36Z</time>
      </trkpt>
      <trkpt lat="43.034667" lon="-4.641083">
        <ele>3906.0</ele>
        <time>2013-09-04T14:39:37Z</time>
      </trkpt>
      <trkpt lat="43.034750" lon="-4.641033">
        <ele>3909.0</ele>
        <time>2013-09-04T14:39:38Z</time>
      </trkpt>
      <trkpt lat="43.034817" lon="-4.640983">
        <ele>3912.0</ele>
        <time>2013-09-04T14:39:39Z</time>
      </trkpt>
      <trkpt lat="43.034883" lon="-4.640933">
        <ele>3914.0</ele>
        <time>2013-09-04T14:39:40Z</time>
      </trkpt>
      <trkpt lat="43.034967" lon="-4.640867">
        <ele>3916.0</ele>
        <time>2013-09-04T14:39:41Z</time>
      </trkpt>
      <trkpt lat="43.035033" lon="-4.640800">
        <ele>3919.0</ele>
        <time>2013-09-04T14:39:42Z</time>
      </trkpt>
      <trkpt lat="43.035100" lon="-4.640733">
        <ele>3922.0</ele>
        <time>2013-09-04T14:39:43Z</time>
      </trkpt>
      <trkpt lat="43.035133" lon="-4.640667">
        <ele>3925.0</ele>
        <time>2013-09-04T14:39:44Z</time>
      </trkpt>
      <trkpt lat="43.035167" lon="-4.640600">
        <ele>3927.0</ele>
        <time>2013-09-04T14:39:45Z</time>
      </trkpt>
      <trkpt lat="43.035167" lon="-4.640533">
        <ele>3928.0</ele>
        <time>2013-09-04T14:39:46Z</time>
      </trkpt>
      <trkpt lat="43.035167" lon="-4.640467">
        <ele>3929.0</ele>
        <time>2013-09-04T14:39:47Z</time>
      </trkpt>
      <trkpt lat="43.035167" lon="-4.640400">
        <ele>3932.0</ele>
        <time>2013-09-04T14:39:48Z</time>
      </trkpt>
      <trkpt lat="43.035150" lon="-4.640350">
        <ele>3933.0</ele>
        <time>2013-09-04T14:39:49Z</time>
      </trkpt>
      <trkpt lat="43.035150" lon="-4.640350">
        <ele>3934.0</ele>
        <time>2013-09-04T14:39:50Z</time>
      </trkpt>
      <trkpt lat="43.035133" lon="-4.640367">
        <ele>3933.0</ele>
        <time>2013-09-04T14:39:51Z</time>
      </trkpt>
      <trkpt lat="43.035100" lon="-4.640417">
        <ele>3932.0</ele>
        <time>2013-09-04T14:39:52Z</time>
      </trkpt>
      <trkpt lat="43.035067" lon="-4.640450">
        <ele>3930.0</ele>
        <time>2013-09-04T14:39:53Z</time>
      </trkpt>
      <trkpt lat="43.035017" lon="-4.640517">
        <ele>3930.0</ele>
        <time>2013-09-04T14:39:54Z</time>
      </trkpt>
      <trkpt lat="43.035000" lon="-4.640600">
        <ele>3931.0</ele>
        <time>2013-09-04T14:39:55Z</time>
      </trkpt>
      <trkpt lat="43.035000" lon="-4.640733">
        <ele>3932.0</ele>
        <time>2013-09-04T14:39:56Z</time>
      </trkpt>
      <trkpt lat="43.035033" lon="-4.640883">
        <ele>3933.0</ele>
        <time>2013-09-04T14:39:57Z</time>
      </trkpt>
      <trkpt lat="43.035117" lon="-4.641050">
        <ele>3933.0</ele>
        <time>2013-09-04T14:39:58Z</time>
      </trkpt>
      <trkpt lat="43.035233" lon="-4.641167">
        <ele>3935.0</ele>
        <time>2013-09-04T14:39:59Z</time>
      </trkpt>
      <trkpt lat="43.035350" lon="-4.641250">
        <ele>3937.0</ele>
        <time>2013-09-04T14:40:00Z</time>
      </trkpt>
      <trkpt lat="43.035483" lon="-4.641317">
        <ele>3939.0</ele>
        <time>2013-09-04T14:40:01Z</time>
      </trkpt>
      <trkpt lat="43.035617" lon="-4.641333">
        <ele>3941.0</ele>
        <time>2013-09-04T14:40:02Z</time>
      </trkpt>
      <trkpt lat="43.035733" lon="-4.641350">
        <ele>3942.0</ele>
        <time>2013-09-04T14:40:03Z</time>
      </trkpt>
      <trkpt lat="43.035850" lon="-4.641350">
        <ele>3943.0</ele>
        <time>2013-09-04T14:40:04Z</time>
      </trkpt>
      <trkpt lat="43.035967" lon="-4.641317">
        <ele>3944.0</ele>
        <time>2013-09-04T14:40:05Z</time>
      </trkpt>
      <trkpt lat="43.036083" lon="-4.641283">
        <ele>3945.0</ele>
        <time>2013-09-04T14:40:06Z</time>
      </trkpt>
      <trkpt lat="43.036200" lon="-4.641233">
        <ele>3946.0</ele>
        <time>2013-09-04T14:40:07Z</time>
      </trkpt>
      <trkpt lat="43.036333" lon="-4.641183">
        <ele>3947.0</ele>
        <time>2013-09-04T14:40:08Z</time>
      </trkpt>
      <trkpt lat="43.036450" lon="-4.641117">
        <ele>3948.0</ele>
        <time>2013-09-04T14:40:09Z</time>
      </trkpt>
      <trkpt lat="43.036567" lon="-4.641050">
        <ele>3949.0</ele>
        <time>2013-09-04T14:40:10Z</time>
      </trkpt>
      <trkpt lat="43.036650" lon="-4.640950">
        <ele>3951.0</ele>
        <time>2013-09-04T14:40:11Z</time>
      </trkpt>
      <trkpt lat="43.036733" lon="-4.640867">
        <ele>3952.0</ele>
        <time>2013-09-04T14:40:12Z</time>
      </trkpt>
      <trkpt lat="43.036817" lon="-4.640783">
        <ele>3953.0</ele>
        <time>2013-09-04T14:40:13Z</time>
      </trkpt>
      <trkpt lat="43.036900" lon="-4.640700">
        <ele>3953.0</ele>
        <time>2013-09-04T14:40:14Z</time>
      </trkpt>
      <trkpt lat="43.036983" lon="-4.640633">
        <ele>3951.0</ele>
        <time>2013-09-04T14:40:15Z</time>
      </trkpt>
      <trkpt lat="43.037067" lon="-4.640550">
        <ele>3950.0</ele>
        <time>2013-09-04T14:40:16Z</time>
      </trkpt>
      <trkpt lat="43.037150" lon="-4.640467">
        <ele>3949.0</ele>
        <time>2013-09-04T14:40:17Z</time>
      </trkpt>
      <trkpt lat="43.037217" lon="-4.640383">
        <ele>3948.0</ele>
        <time>2013-09-04T14:40:18Z</time>
      </trkpt>
      <trkpt lat="43.037267" lon="-4.640283">
        <ele>3946.0</ele>
        <time>2013-09-04T14:40:19Z</time>
      </trkpt>
      <trkpt lat="43.037317" lon="-4.640167">
        <ele>3944.0</ele>
        <time>2013-09-04T14:40:20Z</time>
      </trkpt>
      <trkpt lat="43.037383" lon="-4.640050">
        <ele>3943.0</ele>
        <time>2013-09-04T14:40:21Z</time>
      </trkpt>
      <trkpt lat="43.037450" lon="-4.639933">
        <ele>3942.0</ele>
        <time>2013-09-04T14:40:22Z</time>
      </trkpt>
      <trkpt lat="43.037533" lon="-4.639833">
        <ele>3941.0</ele>
        <time>2013-09-04T14:40:23Z</time>
      </trkpt>
      <trkpt lat="43.037617" lon="-4.639717">
        <ele>3941.0</ele>
        <time>2013-09-04T14:40:24Z</time>
      </trkpt>
      <trkpt lat="43.037700" lon="-4.639617">
        <ele>3940.0</ele>
        <time>2013-09-04T14:40:25Z</time>
      </trkpt>
      <trkpt lat="43.037767" lon="-4.639517">
        <ele>3939.0</ele>
        <time>2013-09-04T14:40:26Z</time>
      </trkpt>
      <trkpt lat="43.037833" lon="-4.639417">
        <ele>3938.0</ele>
        <time>2013-09-04T14:40:27Z</time>
      </trkpt>
      <trkpt lat="43.037900" lon="-4.639300">
        <ele>3936.0</ele>
        <time>2013-09-04T14:40:28Z</time>
      </trkpt>
      <trkpt lat="43.037967" lon="-4.639183">
        <ele>3935.0</ele>
        <time>2013-09-04T14:40:29Z</time>
      </trkpt>
      <trkpt lat="43.038033" lon="-4.639067">
        <ele>3934.0</ele>
        <time>2013-09-04T14:40:30Z</time>
      </trkpt>
      <trkpt lat="43.038100" lon="-4.638950">
        <ele>3934.0</ele>
        <time>2013-09-04T14:40:31Z</time>
      </trkpt>
      <trkpt lat="43.038167" lon="-4.638833">
        <ele>3933.0</ele>
        <time>2013-09-04T14:40:32Z</time>
      </trkpt>
      <trkpt lat="43.038233" lon="-4.638733">
        <ele>3932.0</ele>
        <time>2013-09-04T14:40:33Z</time>
      </trkpt>
      <trkpt lat="43.038300" lon="-4.638617">
        <ele>3930.0</ele>
        <time>2013-09-04T14:40:34Z</time>
      </trkpt>
      <trkpt lat="43.038367" lon="-4.638517">
        <ele>3929.0</ele>
        <time>2013-09-04T14:40:35Z</time>
      </trkpt>
      <trkpt lat="43.038450" lon="-4.638400">
        <ele>3928.0</ele>
        <time>2013-09-04T14:40:36Z</time>
      </trkpt>
      <trkpt lat="43.038533" lon="-4.638300">
        <ele>3929.0</ele>
        <time>2013-09-04T14:40:37Z</time>
      </trkpt>
      <trkpt lat="43.038617" lon="-4.638217">
        <ele>3929.0</ele>
        <time>2013-09-04T14:40:38Z</time>
      </trkpt>
      <trkpt lat="43.038700" lon="-4.638133">
        <ele>3927.0</ele>
        <time>2013-09-04T14:40:39Z</time>
      </trkpt>
      <trkpt lat="43.038783" lon="-4.638050">
        <ele>3926.0</ele>
        <time>2013-09-04T14:40:40Z</time>
      </trkpt>
      <trkpt lat="43.038867" lon="-4.637950">
        <ele>3924.0</ele>
        <time>2013-09-04T14:40:41Z</time>
      </trkpt>
      <trkpt lat="43.038950" lon="-4.637850">
        <ele>3922.0</ele>
        <time>2013-09-04T14:40:42Z</time>
      </trkpt>
      <trkpt lat="43.039033" lon="-4.637733">
        <ele>3921.0</ele>
        <time>2013-09-04T14:40:43Z</time>
      </trkpt>
      <trkpt lat="43.039100" lon="-4.637633">
        <ele>3920.0</ele>
        <time>2013-09-04T14:40:44Z</time>
      </trkpt>
      <trkpt lat="43.039167" lon="-4.637517">
        <ele>3919.0</ele>
        <time>2013-09-04T14:40:45Z</time>
      </trkpt>
      <trkpt lat="43.039233" lon="-4.637417">
        <ele>3919.0</ele>
        <time>2013-09-04T14:40:46Z</time>
      </trkpt>
      <trkpt lat="43.039283" lon="-4.637333">
        <ele>3919.0</ele>
        <time>2013-09-04T14:40:47Z</time>
      </trkpt>
      <trkpt lat="43.039333" lon="-4.637250">
        <ele>3918.0</ele>
        <time>2013-09-04T14:40:48Z</time>
      </trkpt>
      <trkpt lat="43.039400" lon="-4.637183">
        <ele>3917.0</ele>
        <time>2013-09-04T14:40:49Z</time>
      </trkpt>
      <trkpt lat="43.039483" lon="-4.637083">
        <ele>3915.0</ele>
        <time>2013-09-04T14:40:50Z</time>
      </trkpt>
      <trkpt lat="43.039583" lon="-4.636983">
        <ele>3912.0</ele>
        <time>2013-09-04T14:40:51Z</time>
      </trkpt>
      <trkpt lat="43.039683" lon="-4.636883">
        <ele>3912.0</ele>
        <time>2013-09-04T14:40:52Z</time>
      </trkpt>
      <trkpt lat="43.039783" lon="-4.636783">
        <ele>3911.0</ele>
        <time>2013-09-04T14:40:53Z</time>
      </trkpt>
      <trkpt lat="43.039850" lon="-4.636700">
        <ele>3911.0</ele>
        <time>2013-09-04T14:40:54Z</time>
      </trkpt>
      <trkpt lat="43.039933" lon="-4.636633">
        <ele>3909.0</ele>
        <time>2013-09-04T14:40:55Z</time>
      </trkpt>
      <trkpt lat="43.040017" lon="-4.636550">
        <ele>3907.0</ele>
        <time>2013-09-04T14:40:56Z</time>
      </trkpt>
      <trkpt lat="43.040117" lon="-4.636467">
        <ele>3903.0</ele>
        <time>2013-09-04T14:40:57Z</time>
      </trkpt>
      <trkpt lat="43.040217" lon="-4.636350">
        <ele>3901.0</ele>
        <time>2013-09-04T14:40:58Z</time>
      </trkpt>
      <trkpt lat="43.040300" lon="-4.636250">
        <ele>3899.0</ele>
        <time>2013-09-04T14:40:59Z</time>
      </trkpt>
      <trkpt lat="43.040400" lon="-4.636150">
        <ele>3900.0</ele>
        <time>2013-09-04T14:41:00Z</time>
      </trkpt>
      <trkpt lat="43.040483" lon="-4.636083">
        <ele>3900.0</ele>
        <time>2013-09-04T14:41:01Z</time>
      </trkpt>
      <trkpt lat="43.040567" lon="-4.636000">
        <ele>3898.0</ele>
        <time>2013-09-04T14:41:02Z</time>
      </trkpt>
      <trkpt lat="43.040633" lon="-4.635917">
        <ele>3897.0</ele>
        <time>2013-09-04T14:41:03Z</time>
      </trkpt>
      <trkpt lat="43.040717" lon="-4.635833">
        <ele>3894.0</ele>
        <time>2013-09-04T14:41:04Z</time>
      </trkpt>
      <trkpt lat="43.040817" lon="-4.635733">
        <ele>3891.0</ele>
        <time>2013-09-04T14:41:05Z</time>
      </trkpt>
      <trkpt lat="43.040900" lon="-4.635617">
        <ele>3890.0</ele>
        <time>2013-09-04T14:41:06Z</time>
      </trkpt>
      <trkpt lat="43.040983" lon="-4.635517">
        <ele>3889.0</ele>
        <time>2013-09-04T14:41:07Z</time>
      </trkpt>
      <trkpt lat="43.041067" lon="-4.635417">
        <ele>3889.0</ele>
        <time>2013-09-04T14:41:08Z</time>
      </trkpt>
      <trkpt lat="43.041133" lon="-4.635333">
        <ele>3888.0</ele>
        <time>2013-09-04T14:41:09Z</time>
      </trkpt>
      <trkpt lat="43.041200" lon="-4.635233">
        <ele>3887.0</ele>
        <time>2013-09-04T14:41:10Z</time>
      </trkpt>
      <trkpt lat="43.041267" lon="-4.635150">
        <ele>3886.0</ele>
        <time>2013-09-04T14:41:11Z</time>
      </trkpt>
      <trkpt lat="43.041333" lon="-4.635050">
        <ele>3884.0</ele>
        <time>2013-09-04T14:41:12Z</time>
      </trkpt>
      <trkpt lat="43.041400" lon="-4.634933">
        <ele>3882.0</ele>
        <time>2013-09-04T14:41:13Z</time>
      </trkpt>
      <trkpt lat="43.041483" lon="-4.634833">
        <ele>3880.0</ele>
        <time>2013-09-04T14:41:14Z</time>
      </trkpt>
      <trkpt lat="43.041550" lon="-4.634733">
        <ele>3879.0</ele>
        <time>2013-09-04T14:41:15Z</time>
      </trkpt>
      <trkpt lat="43.041633" lon="-4.634633">
        <ele>3878.0</ele>
        <time>2013-09-04T14:41:16Z</time>
      </trkpt>
      <trkpt lat="43.041733" lon="-4.634550">
        <ele>3876.0</ele>
        <time>2013-09-04T14:41:17Z</time>
      </trkpt>
      <trkpt lat="43.041817" lon="-4.634450">
        <ele>3874.0</ele>
        <time>2013-09-04T14:41:18Z</time>
      </trkpt>
      <trkpt lat="43.041900" lon="-4.634350">
        <ele>3873.0</ele>
        <time>2013-09-04T14:41:19Z</time>
      </trkpt>
      <trkpt lat="43.042000" lon="-4.634250">
        <ele>3872.0</ele>
        <time>2013-09-04T14:41:20Z</time>
      </trkpt>
      <trkpt lat="43.042100" lon="-4.634150">
        <ele>3871.0</ele>
        <time>2013-09-04T14:41:21Z</time>
      </trkpt>
      <trkpt lat="43.042183" lon="-4.634067">
        <ele>3870.0</ele>
        <time>2013-09-04T14:41:22Z</time>
      </trkpt>
      <trkpt lat="43.042283" lon="-4.633967">
        <ele>3868.0</ele>
        <time>2013-09-04T14:41:23Z</time>
      </trkpt>
      <trkpt lat="43.042367" lon="-4.633867">
        <ele>3866.0</ele>
        <time>2013-09-04T14:41:24Z</time>
      </trkpt>
      <trkpt lat="43.042450" lon="-4.633750">
        <ele>3864.0</ele>
        <time>2013-09-04T14:41:25Z</time>
      </trkpt>
      <trkpt lat="43.042533" lon="-4.633633">
        <ele>3861.0</ele>
        <time>2013-09-04T14:41:26Z</time>
      </trkpt>
      <trkpt lat="43.042617" lon="-4.633517">
        <ele>3859.0</ele>
        <time>2013-09-04T14:41:27Z</time>
      </trkpt>
      <trkpt lat="43.042700" lon="-4.633400">
        <ele>3856.0</ele>
        <time>2013-09-04T14:41:28Z</time>
      </trkpt>
      <trkpt lat="43.042783" lon="-4.633283">
        <ele>3854.0</ele>
        <time>2013-09-04T14:41:29Z</time>
      </trkpt>
      <trkpt lat="43.042867" lon="-4.633150">
        <ele>3851.0</ele>
        <time>2013-09-04T14:41:30Z</time>
      </trkpt>
      <trkpt lat="43.042950" lon="-4.633050">
        <ele>3849.0</ele>
        <time>2013-09-04T14:41:31Z</time>
      </trkpt>
      <trkpt lat="43.043033" lon="-4.632933">
        <ele>3847.0</ele>
        <time>2013-09-04T14:41:32Z</time>
      </trkpt>
      <trkpt lat="43.043100" lon="-4.632817">
        <ele>3845.0</ele>
        <time>2013-09-04T14:41:33Z</time>
      </trkpt>
      <trkpt lat="43.043133" lon="-4.632700">
        <ele>3842.0</ele>
        <time>2013-09-04T14:41:34Z</time>
      </trkpt>
      <trkpt lat="43.043183" lon="-4.632583">
        <ele>3840.0</ele>
        <time>2013-09-04T14:41:35Z</time>
      </trkpt>
      <trkpt lat="43.043233" lon="-4.632450">
        <ele>3837.0</ele>
        <time>2013-09-04T14:41:36Z</time>
      </trkpt>
      <trkpt lat="43.043300" lon="-4.632333">
        <ele>3834.0</ele>
        <time>2013-09-04T14:41:37Z</time>
      </trkpt>
      <trkpt lat="43.043383" lon="-4.632200">
        <ele>3831.0</ele>
        <time>2013-09-04T14:41:38Z</time>
      </trkpt>
      <trkpt lat="43.043467" lon="-4.632067">
        <ele>3827.0</ele>
        <time>2013-09-04T14:41:39Z</time>
      </trkpt>
      <trkpt lat="43.043550" lon="-4.631933">
        <ele>3824.0</ele>
        <time>2013-09-04T14:41:40Z</time>
      </trkpt>
      <trkpt lat="43.043633" lon="-4.631800">
        <ele>3821.0</ele>
        <time>2013-09-04T14:41:41Z</time>
      </trkpt>
      <trkpt lat="43.043717" lon="-4.631683">
        <ele>3819.0</ele>
        <time>2013-09-04T14:41:42Z</time>
      </trkpt>
      <trkpt lat="43.043800" lon="-4.631550">
        <ele>3817.0</ele>
        <time>2013-09-04T14:41:43Z</time>
      </trkpt>
      <trkpt lat="43.043883" lon="-4.631433">
        <ele>3814.0</ele>
        <time>2013-09-04T14:41:44Z</time>
      </trkpt>
      <trkpt lat="43.043983" lon="-4.631317">
        <ele>3812.0</ele>
        <time>2013-09-04T14:41:45Z</time>
      </trkpt>
      <trkpt lat="43.044083" lon="-4.631183">
        <ele>3809.0</ele>
        <time>2013-09-04T14:41:46Z</time>
      </trkpt>
      <trkpt lat="43.044167" lon="-4.631050">
        <ele>3808.0</ele>
        <time>2013-09-04T14:41:47Z</time>
      </trkpt>
      <trkpt lat="43.044267" lon="-4.630900">
        <ele>3807.0</ele>
        <time>2013-09-04T14:41:48Z</time>
      </trkpt>
      <trkpt lat="43.044350" lon="-4.630767">
        <ele>3806.0</ele>
        <time>2013-09-04T14:41:49Z</time>
      </trkpt>
      <trkpt lat="43.044433" lon="-4.630650">
        <ele>3806.0</ele>
        <time>2013-09-04T14:41:50Z</time>
      </trkpt>
      <trkpt lat="43.044533" lon="-4.630517">
        <ele>3804.0</ele>
        <time>2013-09-04T14:41:51Z</time>
      </trkpt>
      <trkpt lat="43.044633" lon="-4.630383">
        <ele>3803.0</ele>
        <time>2013-09-04T14:41:52Z</time>
      </trkpt>
      <trkpt lat="43.044733" lon="-4.630267">
        <ele>3801.0</ele>
        <time>2013-09-04T14:41:53Z</time>
      </trkpt>
      <trkpt lat="43.044817" lon="-4.630133">
        <ele>3800.0</ele>
        <time>2013-09-04T14:41:54Z</time>
      </trkpt>
      <trkpt lat="43.044900" lon="-4.630017">
        <ele>3798.0</ele>
        <time>2013-09-04T14:41:55Z</time>
      </trkpt>
      <trkpt lat="43.044983" lon="-4.629900">
        <ele>3796.0</ele>
        <time>2013-09-04T14:41:56Z</time>
      </trkpt>
      <trkpt lat="43.045033" lon="-4.629783">
        <ele>3794.0</ele>
        <time>2013-09-04T14:41:57Z</time>
      </trkpt>
      <trkpt lat="43.045100" lon="-4.629683">
        <ele>3790.0</ele>
        <time>2013-09-04T14:41:58Z</time>
      </trkpt>
      <trkpt lat="43.045167" lon="-4.629583">
        <ele>3786.0</ele>
        <time>2013-09-04T14:41:59Z</time>
      </trkpt>
      <trkpt lat="43.045233" lon="-4.629450">
        <ele>3782.0</ele>
        <time>2013-09-04T14:42:00Z</time>
      </trkpt>
      <trkpt lat="43.045300" lon="-4.629317">
        <ele>3778.0</ele>
        <time>2013-09-04T14:42:01Z</time>
      </trkpt>
      <trkpt lat="43.045367" lon="-4.629183">
        <ele>3775.0</ele>
        <time>2013-09-04T14:42:02Z</time>
      </trkpt>
      <trkpt lat="43.045417" lon="-4.629050">
        <ele>3774.0</ele>
        <time>2013-09-04T14:42:03Z</time>
      </trkpt>
      <trkpt lat="43.045467" lon="-4.628950">
        <ele>3772.0</ele>
        <time>2013-09-04T14:42:04Z</time>
      </trkpt>
      <trkpt lat="43.045500" lon="-4.628833">
        <ele>3769.0</ele>
        <time>2013-09-04T14:42:05Z</time>
      </trkpt>
      <trkpt lat="43.045550" lon="-4.628733">
        <ele>3766.0</ele>
        <time>2013-09-04T14:42:06Z</time>
      </trkpt>
      <trkpt lat="43.045617" lon="-4.628600">
        <ele>3762.0</ele>
        <time>2013-09-04T14:42:07Z</time>
      </trkpt>
      <trkpt lat="43.045683" lon="-4.628467">
        <ele>3758.0</ele>
        <time>2013-09-04T14:42:08Z</time>
      </trkpt>
      <trkpt lat="43.045767" lon="-4.628333">
        <ele>3755.0</ele>
        <time>2013-09-04T14:42:09Z</time>
      </trkpt>
      <trkpt lat="43.045850" lon="-4.628200">
        <ele>3754.0</ele>
        <time>2013-09-04T14:42:10Z</time>
      </trkpt>
      <trkpt lat="43.045917" lon="-4.628067">
        <ele>3753.0</ele>
        <time>2013-09-04T14:42:11Z</time>
      </trkpt>
      <trkpt lat="43.046000" lon="-4.627967">
        <ele>3752.0</ele>
        <time>2013-09-04T14:42:12Z</time>
      </trkpt>
      <trkpt lat="43.046067" lon="-4.627833">
        <ele>3750.0</ele>
        <time>2013-09-04T14:42:13Z</time>
      </trkpt>
      <trkpt lat="43.046150" lon="-4.627717">
        <ele>3748.0</ele>
        <time>2013-09-04T14:42:14Z</time>
      </trkpt>
      <trkpt lat="43.046233" lon="-4.627583">
        <ele>3746.0</ele>
        <time>2013-09-04T14:42:15Z</time>
      </trkpt>
      <trkpt lat="43.046317" lon="-4.627450">
        <ele>3744.0</ele>
        <time>2013-09-04T14:42:16Z</time>
      </trkpt>
      <trkpt lat="43.046383" lon="-4.627317">
        <ele>3742.0</ele>
        <time>2013-09-04T14:42:17Z</time>
      </trkpt>
      <trkpt lat="43.046467" lon="-4.627183">
        <ele>3740.0</ele>
        <time>2013-09-04T14:42:18Z</time>
      </trkpt>
      <trkpt lat="43.046550" lon="-4.627067">
        <ele>3739.0</ele>
        <time>2013-09-04T14:42:19Z</time>
      </trkpt>
      <trkpt lat="43.046633" lon="-4.626950">
        <ele>3739.0</ele>
        <time>2013-09-04T14:42:20Z</time>
      </trkpt>
      <trkpt lat="43.046717" lon="-4.626833">
        <ele>3739.0</ele>
        <time>2013-09-04T14:42:21Z</time>
      </trkpt>
      <trkpt lat="43.046800" lon="-4.626733">
        <ele>3738.0</ele>
        <time>2013-09-04T14:42:22Z</time>
      </trkpt>
      <trkpt lat="43.046867" lon="-4.626617">
        <ele>3737.0</ele>
        <time>2013-09-04T14:42:23Z</time>
      </trkpt>
      <trkpt lat="43.046950" lon="-4.626500">
        <ele>3735.0</ele>
        <time>2013-09-04T14:42:24Z</time>
      </trkpt>
      <trkpt lat="43.047033" lon="-4.626383">
        <ele>3734.0</ele>
        <time>2013-09-04T14:42:25Z</time>
      </trkpt>
      <trkpt lat="43.047117" lon="-4.626267">
        <ele>3734.0</ele>
        <time>2013-09-04T14:42:26Z</time>
      </trkpt>
      <trkpt lat="43.047200" lon="-4.626167">
        <ele>3734.0</ele>
        <time>2013-09-04T14:42:27Z</time>
      </trkpt>
      <trkpt lat="43.047283" lon="-4.626083">
        <ele>3733.0</ele>
        <time>2013-09-04T14:42:28Z</time>
      </trkpt>
      <trkpt lat="43.047350" lon="-4.625983">
        <ele>3730.0</ele>
        <time>2013-09-04T14:42:29Z</time>
      </trkpt>
      <trkpt lat="43.047433" lon="-4.625867">
        <ele>3727.0</ele>
        <time>2013-09-04T14:42:30Z</time>
      </trkpt>
      <trkpt lat="43.047517" lon="-4.625733">
        <ele>3724.0</ele>
        <time>2013-09-04T14:42:31Z</time>
      </trkpt>
      <trkpt lat="43.047600" lon="-4.625600">
        <ele>3722.0</ele>
        <time>2013-09-04T14:42:32Z</time>
      </trkpt>
      <trkpt lat="43.047683" lon="-4.625483">
        <ele>3722.0</ele>
        <time>2013-09-04T14:42:33Z</time>
      </trkpt>
      <trkpt lat="43.047750" lon="-4.625367">
        <ele>3722.0</ele>
        <time>2013-09-04T14:42:34Z</time>
      </trkpt>
      <trkpt lat="43.047817" lon="-4.625267">
        <ele>3723.0</ele>
        <time>2013-09-04T14:42:35Z</time>
      </trkpt>
      <trkpt lat="43.047883" lon="-4.625150">
        <ele>3722.0</ele>
        <time>2013-09-04T14:42:36Z</time>
      </trkpt>
      <trkpt lat="43.047967" lon="-4.625033">
        <ele>3720.0</ele>
        <time>2013-09-04T14:42:37Z</time>
      </trkpt>
      <trkpt lat="43.048033" lon="-4.624900">
        <ele>3718.0</ele>
        <time>2013-09-04T14:42:38Z</time>
      </trkpt>
      <trkpt lat="43.048100" lon="-4.624767">
        <ele>3715.0</ele>
        <time>2013-09-04T14:42:39Z</time>
      </trkpt>
      <trkpt lat="43.048167" lon="-4.624617">
        <ele>3713.0</ele>
        <time>2013-09-04T14:42:40Z</time>
      </trkpt>
      <trkpt lat="43.048233" lon="-4.624483">
        <ele>3713.0</ele>
        <time>2013-09-04T14:42:41Z</time>
      </trkpt>
      <trkpt lat="43.048283" lon="-4.624350">
        <ele>3713.0</ele>
        <time>2013-09-04T14:42:42Z</time>
      </trkpt>
      <trkpt lat="43.048350" lon="-4.624233">
        <ele>3712.0</ele>
        <time>2013-09-04T14:42:43Z</time>
      </trkpt>
      <trkpt lat="43.048433" lon="-4.624133">
        <ele>3711.0</ele>
        <time>2013-09-04T14:42:44Z</time>
      </trkpt>
      <trkpt lat="43.048500" lon="-4.624017">
        <ele>3708.0</ele>
        <time>2013-09-04T14:42:45Z</time>
      </trkpt>
      <trkpt lat="43.048583" lon="-4.623883">
        <ele>3706.0</ele>
        <time>2013-09-04T14:42:46Z</time>
      </trkpt>
      <trkpt lat="43.048667" lon="-4.623750">
        <ele>3705.0</ele>
        <time>2013-09-04T14:42:47Z</time>
      </trkpt>
      <trkpt lat="43.048750" lon="-4.623617">
        <ele>3705.0</ele>
        <time>2013-09-04T14:42:48Z</time>
      </trkpt>
      <trkpt lat="43.048833" lon="-4.623500">
        <ele>3705.0</ele>
        <time>2013-09-04T14:42:49Z</time>
      </trkpt>
      <trkpt lat="43.048900" lon="-4.623383">
        <ele>3706.0</ele>
        <time>2013-09-04T14:42:50Z</time>
      </trkpt>
      <trkpt lat="43.048983" lon="-4.623250">
        <ele>3706.0</ele>
        <time>2013-09-04T14:42:51Z</time>
      </trkpt>
      <trkpt lat="43.049050" lon="-4.623117">
        <ele>3707.0</ele>
        <time>2013-09-04T14:42:52Z</time>
      </trkpt>
      <trkpt lat="43.049133" lon="-4.622983">
        <ele>3708.0</ele>
        <time>2013-09-04T14:42:53Z</time>
      </trkpt>
      <trkpt lat="43.049200" lon="-4.622883">
        <ele>3709.0</ele>
        <time>2013-09-04T14:42:54Z</time>
      </trkpt>
      <trkpt lat="43.049250" lon="-4.622767">
        <ele>3710.0</ele>
        <time>2013-09-04T14:42:55Z</time>
      </trkpt>
      <trkpt lat="43.049317" lon="-4.622650">
        <ele>3710.0</ele>
        <time>2013-09-04T14:42:56Z</time>
      </trkpt>
      <trkpt lat="43.049367" lon="-4.622517">
        <ele>3710.0</ele>
        <time>2013-09-04T14:42:57Z</time>
      </trkpt>
      <trkpt lat="43.049450" lon="-4.622383">
        <ele>3710.0</ele>
        <time>2013-09-04T14:42:58Z</time>
      </trkpt>
      <trkpt lat="43.049533" lon="-4.622267">
        <ele>3710.0</ele>
        <time>2013-09-04T14:42:59Z</time>
      </trkpt>
      <trkpt lat="43.049617" lon="-4.622133">
        <ele>3710.0</ele>
        <time>2013-09-04T14:43:00Z</time>
      </trkpt>
      <trkpt lat="43.049683" lon="-4.622017">
        <ele>3710.0</ele>
        <time>2013-09-04T14:43:01Z</time>
      </trkpt>
      <trkpt lat="43.049767" lon="-4.621883">
        <ele>3708.0</ele>
        <time>2013-09-04T14:43:02Z</time>
      </trkpt>
      <trkpt lat="43.049867" lon="-4.621750">
        <ele>3706.0</ele>
        <time>2013-09-04T14:43:03Z</time>
      </trkpt>
      <trkpt lat="43.049983" lon="-4.621633">
        <ele>3704.0</ele>
        <time>2013-09-04T14:43:04Z</time>
      </trkpt>
      <trkpt lat="43.050100" lon="-4.621517">
        <ele>3703.0</ele>
        <time>2013-09-04T14:43:05Z</time>
      </trkpt>
      <trkpt lat="43.050200" lon="-4.621417">
        <ele>3701.0</ele>
        <time>2013-09-04T14:43:06Z</time>
      </trkpt>
      <trkpt lat="43.050317" lon="-4.621283">
        <ele>3700.0</ele>
        <time>2013-09-04T14:43:07Z</time>
      </trkpt>
      <trkpt lat="43.050417" lon="-4.621167">
        <ele>3699.0</ele>
        <time>2013-09-04T14:43:08Z</time>
      </trkpt>
      <trkpt lat="43.050533" lon="-4.621033">
        <ele>3696.0</ele>
        <time>2013-09-04T14:43:09Z</time>
      </trkpt>
      <trkpt lat="43.050650" lon="-4.620900">
        <ele>3695.0</ele>
        <time>2013-09-04T14:43:10Z</time>
      </trkpt>
      <trkpt lat="43.050750" lon="-4.620783">
        <ele>3694.0</ele>
        <time>2013-09-04T14:43:11Z</time>
      </trkpt>
      <trkpt lat="43.050867" lon="-4.620667">
        <ele>3694.0</ele>
        <time>2013-09-04T14:43:12Z</time>
      </trkpt>
      <trkpt lat="43.050967" lon="-4.620533">
        <ele>3692.0</ele>
        <time>2013-09-04T14:43:13Z</time>
      </trkpt>
      <trkpt lat="43.051067" lon="-4.620417">
        <ele>3691.0</ele>
        <time>2013-09-04T14:43:14Z</time>
      </trkpt>
      <trkpt lat="43.051183" lon="-4.620283">
        <ele>3689.0</ele>
        <time>2013-09-04T14:43:15Z</time>
      </trkpt>
      <trkpt lat="43.051300" lon="-4.620150">
        <ele>3688.0</ele>
        <time>2013-09-04T14:43:16Z</time>
      </trkpt>
      <trkpt lat="43.051417" lon="-4.620033">
        <ele>3688.0</ele>
        <time>2013-09-04T14:43:17Z</time>
      </trkpt>
      <trkpt lat="43.051517" lon="-4.619933">
        <ele>3688.0</ele>
        <time>2013-09-04T14:43:18Z</time>
      </trkpt>
      <trkpt lat="43.051600" lon="-4.619817">
        <ele>3688.0</ele>
        <time>2013-09-04T14:43:19Z</time>
      </trkpt>
      <trkpt lat="43.051700" lon="-4.619717">
        <ele>3688.0</ele>
        <time>2013-09-04T14:43:20Z</time>
      </trkpt>
      <trkpt lat="43.051800" lon="-4.619600">
        <ele>3686.0</ele>
        <time>2013-09-04T14:43:21Z</time>
      </trkpt>
      <trkpt lat="43.051900" lon="-4.619483">
        <ele>3683.0</ele>
        <time>2013-09-04T14:43:22Z</time>
      </trkpt>
      <trkpt lat="43.052017" lon="-4.619367">
        <ele>3681.0</ele>
        <time>2013-09-04T14:43:23Z</time>
      </trkpt>
      <trkpt lat="43.052117" lon="-4.619233">
        <ele>3680.0</ele>
        <time>2013-09-04T14:43:24Z</time>
      </trkpt>
      <trkpt lat="43.052217" lon="-4.619100">
        <ele>3679.0</ele>
        <time>2013-09-04T14:43:25Z</time>
      </trkpt>
      <trkpt lat="43.052300" lon="-4.619000">
        <ele>3679.0</ele>
        <time>2013-09-04T14:43:26Z</time>
      </trkpt>
      <trkpt lat="43.052400" lon="-4.618900">
        <ele>3677.0</ele>
        <time>2013-09-04T14:43:27Z</time>
      </trkpt>
      <trkpt lat="43.052500" lon="-4.618783">
        <ele>3676.0</ele>
        <time>2013-09-04T14:43:28Z</time>
      </trkpt>
      <trkpt lat="43.052583" lon="-4.618683">
        <ele>3674.0</ele>
        <time>2013-09-04T14:43:29Z</time>
      </trkpt>
      <trkpt lat="43.052683" lon="-4.618583">
        <ele>3672.0</ele>
        <time>2013-09-04T14:43:30Z</time>
      </trkpt>
      <trkpt lat="43.052783" lon="-4.618483">
        <ele>3670.0</ele>
        <time>2013-09-04T14:43:31Z</time>
      </trkpt>
      <trkpt lat="43.052883" lon="-4.618383">
        <ele>3667.0</ele>
        <time>2013-09-04T14:43:32Z</time>
      </trkpt>
      <trkpt lat="43.052983" lon="-4.618283">
        <ele>3664.0</ele>
        <time>2013-09-04T14:43:33Z</time>
      </trkpt>
      <trkpt lat="43.053083" lon="-4.618167">
        <ele>3659.0</ele>
        <time>2013-09-04T14:43:34Z</time>
      </trkpt>
      <trkpt lat="43.053200" lon="-4.618050">
        <ele>3655.0</ele>
        <time>2013-09-04T14:43:35Z</time>
      </trkpt>
      <trkpt lat="43.053283" lon="-4.617900">
        <ele>3652.0</ele>
        <time>2013-09-04T14:43:36Z</time>
      </trkpt>
      <trkpt lat="43.053350" lon="-4.617767">
        <ele>3650.0</ele>
        <time>2013-09-04T14:43:37Z</time>
      </trkpt>
      <trkpt lat="43.053417" lon="-4.617633">
        <ele>3648.0</ele>
        <time>2013-09-04T14:43:38Z</time>
      </trkpt>
      <trkpt lat="43.053483" lon="-4.617500">
        <ele>3647.0</ele>
        <time>2013-09-04T14:43:39Z</time>
      </trkpt>
      <trkpt lat="43.053550" lon="-4.617383">
        <ele>3645.0</ele>
        <time>2013-09-04T14:43:40Z</time>
      </trkpt>
      <trkpt lat="43.053617" lon="-4.617267">
        <ele>3642.0</ele>
        <time>2013-09-04T14:43:41Z</time>
      </trkpt>
      <trkpt lat="43.053667" lon="-4.617117">
        <ele>3640.0</ele>
        <time>2013-09-04T14:43:42Z</time>
      </trkpt>
      <trkpt lat="43.053733" lon="-4.616983">
        <ele>3637.0</ele>
        <time>2013-09-04T14:43:43Z</time>
      </trkpt>
      <trkpt lat="43.053783" lon="-4.616833">
        <ele>3635.0</ele>
        <time>2013-09-04T14:43:44Z</time>
      </trkpt>
      <trkpt lat="43.053833" lon="-4.616717">
        <ele>3633.0</ele>
        <time>2013-09-04T14:43:45Z</time>
      </trkpt>
      <trkpt lat="43.053900" lon="-4.616583">
        <ele>3631.0</ele>
        <time>2013-09-04T14:43:46Z</time>
      </trkpt>
      <trkpt lat="43.053950" lon="-4.616450">
        <ele>3628.0</ele>
        <time>2013-09-04T14:43:47Z</time>
      </trkpt>
      <trkpt lat="43.054033" lon="-4.616317">
        <ele>3625.0</ele>
        <time>2013-09-04T14:43:48Z</time>
      </trkpt>
      <trkpt lat="43.054100" lon="-4.616167">
        <ele>3622.0</ele>
        <time>2013-09-04T14:43:49Z</time>
      </trkpt>
      <trkpt lat="43.054183" lon="-4.616033">
        <ele>3619.0</ele>
        <time>2013-09-04T14:43:50Z</time>
      </trkpt>
      <trkpt lat="43.054267" lon="-4.615883">
        <ele>3617.0</ele>
        <time>2013-09-04T14:43:51Z</time>
      </trkpt>
      <trkpt lat="43.054350" lon="-4.615750">
        <ele>3615.0</ele>
        <time>2013-09-04T14:43:52Z</time>
      </trkpt>
      <trkpt lat="43.054433" lon="-4.615617">
        <ele>3611.0</ele>
        <time>2013-09-04T14:43:53Z</time>
      </trkpt>
      <trkpt lat="43.054500" lon="-4.615467">
        <ele>3607.0</ele>
        <time>2013-09-04T14:43:54Z</time>
      </trkpt>
      <trkpt lat="43.054600" lon="-4.615300">
        <ele>3603.0</ele>
        <time>2013-09-04T14:43:55Z</time>
      </trkpt>
      <trkpt lat="43.054700" lon="-4.615133">
        <ele>3600.0</ele>
        <time>2013-09-04T14:43:56Z</time>
      </trkpt>
      <trkpt lat="43.054800" lon="-4.614983">
        <ele>3599.0</ele>
        <time>2013-09-04T14:43:57Z</time>
      </trkpt>
      <trkpt lat="43.054883" lon="-4.614850">
        <ele>3597.0</ele>
        <time>2013-09-04T14:43:58Z</time>
      </trkpt>
      <trkpt lat="43.054950" lon="-4.614717">
        <ele>3594.0</ele>
        <time>2013-09-04T14:43:59Z</time>
      </trkpt>
      <trkpt lat="43.055033" lon="-4.614583">
        <ele>3591.0</ele>
        <time>2013-09-04T14:44:00Z</time>
      </trkpt>
      <trkpt lat="43.055117" lon="-4.614433">
        <ele>3587.0</ele>
        <time>2013-09-04T14:44:01Z</time>
      </trkpt>
      <trkpt lat="43.055233" lon="-4.614267">
        <ele>3585.0</ele>
        <time>2013-09-04T14:44:02Z</time>
      </trkpt>
      <trkpt lat="43.055333" lon="-4.614117">
        <ele>3585.0</ele>
        <time>2013-09-04T14:44:03Z</time>
      </trkpt>
      <trkpt lat="43.055433" lon="-4.613967">
        <ele>3586.0</ele>
        <time>2013-09-04T14:44:04Z</time>
      </trkpt>
      <trkpt lat="43.055533" lon="-4.613850">
        <ele>3586.0</ele>
        <time>2013-09-04T14:44:05Z</time>
      </trkpt>
      <trkpt lat="43.055617" lon="-4.613733">
        <ele>3584.0</ele>
        <time>2013-09-04T14:44:06Z</time>
      </trkpt>
      <trkpt lat="43.055717" lon="-4.613600">
        <ele>3582.0</ele>
        <time>2013-09-04T14:44:07Z</time>
      </trkpt>
      <trkpt lat="43.055817" lon="-4.613450">
        <ele>3580.0</ele>
        <time>2013-09-04T14:44:08Z</time>
      </trkpt>
      <trkpt lat="43.055917" lon="-4.613300">
        <ele>3579.0</ele>
        <time>2013-09-04T14:44:09Z</time>
      </trkpt>
      <trkpt lat="43.056017" lon="-4.613167">
        <ele>3578.0</ele>
        <time>2013-09-04T14:44:10Z</time>
      </trkpt>
      <trkpt lat="43.056083" lon="-4.613050">
        <ele>3578.0</ele>
        <time>2013-09-04T14:44:11Z</time>
      </trkpt>
      <trkpt lat="43.056167" lon="-4.612933">
        <ele>3576.0</ele>
        <time>2013-09-04T14:44:12Z</time>
      </trkpt>
      <trkpt lat="43.056250" lon="-4.612833">
        <ele>3573.0</ele>
        <time>2013-09-04T14:44:13Z</time>
      </trkpt>
      <trkpt lat="43.056333" lon="-4.612700">
        <ele>3569.0</ele>
        <time>2013-09-04T14:44:14Z</time>
      </trkpt>
      <trkpt lat="43.056450" lon="-4.612567">
        <ele>3566.0</ele>
        <time>2013-09-04T14:44:15Z</time>
      </trkpt>
      <trkpt lat="43.056567" lon="-4.612433">
        <ele>3565.0</ele>
        <time>2013-09-04T14:44:16Z</time>
      </trkpt>
      <trkpt lat="43.056650" lon="-4.612300">
        <ele>3566.0</ele>
        <time>2013-09-04T14:44:17Z</time>
      </trkpt>
      <trkpt lat="43.056733" lon="-4.612200">
        <ele>3567.0</ele>
        <time>2013-09-04T14:44:18Z</time>
      </trkpt>
      <trkpt lat="43.056783" lon="-4.612117">
        <ele>3565.0</ele>
        <time>2013-09-04T14:44:19Z</time>
      </trkpt>
      <trkpt lat="43.056850" lon="-4.612033">
        <ele>3563.0</ele>
        <time>2013-09-04T14:44:20Z</time>
      </trkpt>
      <trkpt lat="43.056917" lon="-4.611917">
        <ele>3560.0</ele>
        <time>2013-09-04T14:44:21Z</time>
      </trkpt>
      <trkpt lat="43.057000" lon="-4.611817">
        <ele>3557.0</ele>
        <time>2013-09-04T14:44:22Z</time>
      </trkpt>
      <trkpt lat="43.057083" lon="-4.611700">
        <ele>3554.0</ele>
        <time>2013-09-04T14:44:23Z</time>
      </trkpt>
      <trkpt lat="43.057167" lon="-4.611583">
        <ele>3552.0</ele>
        <time>2013-09-04T14:44:24Z</time>
      </trkpt>
      <trkpt lat="43.057250" lon="-4.611483">
        <ele>3550.0</ele>
        <time>2013-09-04T14:44:25Z</time>
      </trkpt>
      <trkpt lat="43.057317" lon="-4.611367">
        <ele>3547.0</ele>
        <time>2013-09-04T14:44:26Z</time>
      </trkpt>
      <trkpt lat="43.057383" lon="-4.611250">
        <ele>3544.0</ele>
        <time>2013-09-04T14:44:27Z</time>
      </trkpt>
      <trkpt lat="43.057467" lon="-4.611133">
        <ele>3542.0</ele>
        <time>2013-09-04T14:44:28Z</time>
      </trkpt>
      <trkpt lat="43.057567" lon="-4.611033">
        <ele>3540.0</ele>
        <time>2013-09-04T14:44:29Z</time>
      </trkpt>
      <trkpt lat="43.057650" lon="-4.610917">
        <ele>3537.0</ele>
        <time>2013-09-04T14:44:30Z</time>
      </trkpt>
      <trkpt lat="43.057733" lon="-4.610800">
        <ele>3534.0</ele>
        <time>2013-09-04T14:44:31Z</time>
      </trkpt>
      <trkpt lat="43.057833" lon="-4.610667">
        <ele>3531.0</ele>
        <time>2013-09-04T14:44:32Z</time>
      </trkpt>
      <trkpt lat="43.057933" lon="-4.610533">
        <ele>3529.0</ele>
        <time>2013-09-04T14:44:33Z</time>
      </trkpt>
      <trkpt lat="43.058033" lon="-4.610417">
        <ele>3527.0</ele>
        <time>2013-09-04T14:44:34Z</time>
      </trkpt>
      <trkpt lat="43.058133" lon="-4.610300">
        <ele>3525.0</ele>
        <time>2013-09-04T14:44:35Z</time>
      </trkpt>
      <trkpt lat="43.058233" lon="-4.610183">
        <ele>3524.0</ele>
        <time>2013-09-04T14:44:36Z</time>
      </trkpt>
      <trkpt lat="43.058317" lon="-4.610050">
        <ele>3523.0</ele>
        <time>2013-09-04T14:44:37Z</time>
      </trkpt>
      <trkpt lat="43.058400" lon="-4.609933">
        <ele>3521.0</ele>
        <time>2013-09-04T14:44:38Z</time>
      </trkpt>
      <trkpt lat="43.058500" lon="-4.609833">
        <ele>3520.0</ele>
        <time>2013-09-04T14:44:39Z</time>
      </trkpt>
      <trkpt lat="43.058583" lon="-4.609733">
        <ele>3518.0</ele>
        <time>2013-09-04T14:44:40Z</time>
      </trkpt>
      <trkpt lat="43.058683" lon="-4.609633">
        <ele>3515.0</ele>
        <time>2013-09-04T14:44:41Z</time>
      </trkpt>
      <trkpt lat="43.058783" lon="-4.609517">
        <ele>3513.0</ele>
        <time>2013-09-04T14:44:42Z</time>
      </trkpt>
      <trkpt lat="43.058867" lon="-4.609400">
        <ele>3510.0</ele>
        <time>2013-09-04T14:44:43Z</time>
      </trkpt>
      <trkpt lat="43.058967" lon="-4.609283">
        <ele>3508.0</ele>
        <time>2013-09-04T14:44:44Z</time>
      </trkpt>
      <trkpt lat="43.059067" lon="-4.609183">
        <ele>3506.0</ele>
        <time>2013-09-04T14:44:45Z</time>
      </trkpt>
      <trkpt lat="43.059150" lon="-4.609067">
        <ele>3504.0</ele>
        <time>2013-09-04T14:44:46Z</time>
      </trkpt>
      <trkpt lat="43.059250" lon="-4.608967">
        <ele>3501.0</ele>
        <time>2013-09-04T14:44:47Z</time>
      </trkpt>
      <trkpt lat="43.059333" lon="-4.608850">
        <ele>3499.0</ele>
        <time>2013-09-04T14:44:48Z</time>
      </trkpt>
      <trkpt lat="43.059433" lon="-4.608733">
        <ele>3497.0</ele>
        <time>2013-09-04T14:44:49Z</time>
      </trkpt>
      <trkpt lat="43.059533" lon="-4.608617">
        <ele>3495.0</ele>
        <time>2013-09-04T14:44:50Z</time>
      </trkpt>
      <trkpt lat="43.059617" lon="-4.608517">
        <ele>3493.0</ele>
        <time>2013-09-04T14:44:51Z</time>
      </trkpt>
      <trkpt lat="43.059733" lon="-4.608400">
        <ele>3491.0</ele>
        <time>2013-09-04T14:44:52Z</time>
      </trkpt>
      <trkpt lat="43.059833" lon="-4.608300">
        <ele>3489.0</ele>
        <time>2013-09-04T14:44:53Z</time>
      </trkpt>
      <trkpt lat="43.059917" lon="-4.608183">
        <ele>3487.0</ele>
        <time>2013-09-04T14:44:54Z</time>
      </trkpt>
      <trkpt lat="43.060000" lon="-4.608067">
        <ele>3486.0</ele>
        <time>2013-09-04T14:44:55Z</time>
      </trkpt>
      <trkpt lat="43.060083" lon="-4.607950">
        <ele>3484.0</ele>
        <time>2013-09-04T14:44:56Z</time>
      </trkpt>
      <trkpt lat="43.060150" lon="-4.607850">
        <ele>3482.0</ele>
        <time>2013-09-04T14:44:57Z</time>
      </trkpt>
      <trkpt lat="43.060233" lon="-4.607750">
        <ele>3480.0</ele>
        <time>2013-09-04T14:44:58Z</time>
      </trkpt>
      <trkpt lat="43.060300" lon="-4.607650">
        <ele>3476.0</ele>
        <time>2013-09-04T14:44:59Z</time>
      </trkpt>
      <trkpt lat="43.060383" lon="-4.607533">
        <ele>3473.0</ele>
        <time>2013-09-04T14:45:00Z</time>
      </trkpt>
      <trkpt lat="43.060450" lon="-4.607400">
        <ele>3470.0</ele>
        <time>2013-09-04T14:45:01Z</time>
      </trkpt>
      <trkpt lat="43.060517" lon="-4.607283">
        <ele>3468.0</ele>
        <time>2013-09-04T14:45:02Z</time>
      </trkpt>
      <trkpt lat="43.060583" lon="-4.607167">
        <ele>3466.0</ele>
        <time>2013-09-04T14:45:03Z</time>
      </trkpt>
      <trkpt lat="43.060667" lon="-4.607083">
        <ele>3464.0</ele>
        <time>2013-09-04T14:45:04Z</time>
      </trkpt>
      <trkpt lat="43.060733" lon="-4.606983">
        <ele>3462.0</ele>
        <time>2013-09-04T14:45:05Z</time>
      </trkpt>
      <trkpt lat="43.060800" lon="-4.606883">
        <ele>3460.0</ele>
        <time>2013-09-04T14:45:06Z</time>
      </trkpt>
      <trkpt lat="43.060850" lon="-4.606783">
        <ele>3457.0</ele>
        <time>2013-09-04T14:45:07Z</time>
      </trkpt>
      <trkpt lat="43.060917" lon="-4.606667">
        <ele>3455.0</ele>
        <time>2013-09-04T14:45:08Z</time>
      </trkpt>
      <trkpt lat="43.060983" lon="-4.606550">
        <ele>3453.0</ele>
        <time>2013-09-04T14:45:09Z</time>
      </trkpt>
      <trkpt lat="43.061067" lon="-4.606433">
        <ele>3452.0</ele>
        <time>2013-09-04T14:45:10Z</time>
      </trkpt>
      <trkpt lat="43.061117" lon="-4.606317">
        <ele>3452.0</ele>
        <time>2013-09-04T14:45:11Z</time>
      </trkpt>
      <trkpt lat="43.061183" lon="-4.606217">
        <ele>3453.0</ele>
        <time>2013-09-04T14:45:12Z</time>
      </trkpt>
      <trkpt lat="43.061233" lon="-4.606133">
        <ele>3452.0</ele>
        <time>2013-09-04T14:45:13Z</time>
      </trkpt>
      <trkpt lat="43.061317" lon="-4.606050">
        <ele>3450.0</ele>
        <time>2013-09-04T14:45:14Z</time>
      </trkpt>
      <trkpt lat="43.061400" lon="-4.605950">
        <ele>3448.0</ele>
        <time>2013-09-04T14:45:15Z</time>
      </trkpt>
      <trkpt lat="43.061483" lon="-4.605833">
        <ele>3446.0</ele>
        <time>2013-09-04T14:45:16Z</time>
      </trkpt>
      <trkpt lat="43.061550" lon="-4.605717">
        <ele>3445.0</ele>
        <time>2013-09-04T14:45:17Z</time>
      </trkpt>
      <trkpt lat="43.061617" lon="-4.605600">
        <ele>3445.0</ele>
        <time>2013-09-04T14:45:18Z</time>
      </trkpt>
      <trkpt lat="43.061667" lon="-4.605500">
        <ele>3446.0</ele>
        <time>2013-09-04T14:45:19Z</time>
      </trkpt>
      <trkpt lat="43.061717" lon="-4.605400">
        <ele>3446.0</ele>
        <time>2013-09-04T14:45:20Z</time>
      </trkpt>
      <trkpt lat="43.061783" lon="-4.605300">
        <ele>3446.0</ele>
        <time>2013-09-04T14:45:21Z</time>
      </trkpt>
      <trkpt lat="43.061833" lon="-4.605217">
        <ele>3445.0</ele>
        <time>2013-09-04T14:45:22Z</time>
      </trkpt>
      <trkpt lat="43.061883" lon="-4.605100">
        <ele>3444.0</ele>
        <time>2013-09-04T14:45:23Z</time>
      </trkpt>
      <trkpt lat="43.061933" lon="-4.604983">
        <ele>3443.0</ele>
        <time>2013-09-04T14:45:24Z</time>
      </trkpt>
      <trkpt lat="43.061983" lon="-4.604867">
        <ele>3443.0</ele>
        <time>2013-09-04T14:45:25Z</time>
      </trkpt>
      <trkpt lat="43.062017" lon="-4.604750">
        <ele>3443.0</ele>
        <time>2013-09-04T14:45:26Z</time>
      </trkpt>
      <trkpt lat="43.062050" lon="-4.604633">
        <ele>3443.0</ele>
        <time>2013-09-04T14:45:27Z</time>
      </trkpt>
      <trkpt lat="43.062100" lon="-4.604533">
        <ele>3443.0</ele>
        <time>2013-09-04T14:45:28Z</time>
      </trkpt>
      <trkpt lat="43.062150" lon="-4.604450">
        <ele>3442.0</ele>
        <time>2013-09-04T14:45:29Z</time>
      </trkpt>
      <trkpt lat="43.062200" lon="-4.604350">
        <ele>3441.0</ele>
        <time>2013-09-04T14:45:30Z</time>
      </trkpt>
      <trkpt lat="43.062250" lon="-4.604250">
        <ele>3439.0</ele>
        <time>2013-09-04T14:45:31Z</time>
      </trkpt>
      <trkpt lat="43.062317" lon="-4.604150">
        <ele>3437.0</ele>
        <time>2013-09-04T14:45:32Z</time>
      </trkpt>
      <trkpt lat="43.062400" lon="-4.604033">
        <ele>3435.0</ele>
        <time>2013-09-04T14:45:33Z</time>
      </trkpt>
      <trkpt lat="43.062483" lon="-4.603917">
        <ele>3434.0</ele>
        <time>2013-09-04T14:45:34Z</time>
      </trkpt>
      <trkpt lat="43.062567" lon="-4.603783">
        <ele>3434.0</ele>
        <time>2013-09-04T14:45:35Z</time>
      </trkpt>
      <trkpt lat="43.062650" lon="-4.603667">
        <ele>3433.0</ele>
        <time>2013-09-04T14:45:36Z</time>
      </trkpt>
      <trkpt lat="43.062733" lon="-4.603533">
        <ele>3434.0</ele>
        <time>2013-09-04T14:45:37Z</time>
      </trkpt>
      <trkpt lat="43.062817" lon="-4.603417">
        <ele>3437.0</ele>
        <time>2013-09-04T14:45:38Z</time>
      </trkpt>
      <trkpt lat="43.062900" lon="-4.603317">
        <ele>3439.0</ele>
        <time>2013-09-04T14:45:39Z</time>
      </trkpt>
      <trkpt lat="43.062983" lon="-4.603233">
        <ele>3442.0</ele>
        <time>2013-09-04T14:45:40Z</time>
      </trkpt>
      <trkpt lat="43.063067" lon="-4.603150">
        <ele>3444.0</ele>
        <time>2013-09-04T14:45:41Z</time>
      </trkpt>
      <trkpt lat="43.063133" lon="-4.603067">
        <ele>3446.0</ele>
        <time>2013-09-04T14:45:42Z</time>
      </trkpt>
      <trkpt lat="43.063200" lon="-4.602983">
        <ele>3447.0</ele>
        <time>2013-09-04T14:45:43Z</time>
      </trkpt>
      <trkpt lat="43.063250" lon="-4.602900">
        <ele>3447.0</ele>
        <time>2013-09-04T14:45:44Z</time>
      </trkpt>
      <trkpt lat="43.063317" lon="-4.602800">
        <ele>3448.0</ele>
        <time>2013-09-04T14:45:45Z</time>
      </trkpt>
      <trkpt lat="43.063383" lon="-4.602700">
        <ele>3449.0</ele>
        <time>2013-09-04T14:45:46Z</time>
      </trkpt>
      <trkpt lat="43.063450" lon="-4.602600">
        <ele>3450.0</ele>
        <time>2013-09-04T14:45:47Z</time>
      </trkpt>
      <trkpt lat="43.063517" lon="-4.602517">
        <ele>3452.0</ele>
        <time>2013-09-04T14:45:48Z</time>
      </trkpt>
      <trkpt lat="43.063567" lon="-4.602417">
        <ele>3453.0</ele>
        <time>2013-09-04T14:45:49Z</time>
      </trkpt>
      <trkpt lat="43.063633" lon="-4.602317">
        <ele>3455.0</ele>
        <time>2013-09-04T14:45:50Z</time>
      </trkpt>
      <trkpt lat="43.063683" lon="-4.602233">
        <ele>3455.0</ele>
        <time>2013-09-04T14:45:51Z</time>
      </trkpt>
      <trkpt lat="43.063750" lon="-4.602133">
        <ele>3455.0</ele>
        <time>2013-09-04T14:45:52Z</time>
      </trkpt>
      <trkpt lat="43.063817" lon="-4.602033">
        <ele>3455.0</ele>
        <time>2013-09-04T14:45:53Z</time>
      </trkpt>
      <trkpt lat="43.063900" lon="-4.601933">
        <ele>3455.0</ele>
        <time>2013-09-04T14:45:54Z</time>
      </trkpt>
      <trkpt lat="43.063967" lon="-4.601850">
        <ele>3456.0</ele>
        <time>2013-09-04T14:45:55Z</time>
      </trkpt>
      <trkpt lat="43.064050" lon="-4.601767">
        <ele>3456.0</ele>
        <time>2013-09-04T14:45:56Z</time>
      </trkpt>
      <trkpt lat="43.064117" lon="-4.601683">
        <ele>3456.0</ele>
        <time>2013-09-04T14:45:57Z</time>
      </trkpt>
      <trkpt lat="43.064217" lon="-4.601583">
        <ele>3455.0</ele>
        <time>2013-09-04T14:45:58Z</time>
      </trkpt>
      <trkpt lat="43.064283" lon="-4.601483">
        <ele>3454.0</ele>
        <time>2013-09-04T14:45:59Z</time>
      </trkpt>
      <trkpt lat="43.064367" lon="-4.601367">
        <ele>3453.0</ele>
        <time>2013-09-04T14:46:00Z</time>
      </trkpt>
      <trkpt lat="43.064433" lon="-4.601267">
        <ele>3453.0</ele>
        <time>2013-09-04T14:46:01Z</time>
      </trkpt>
      <trkpt lat="43.064483" lon="-4.601150">
        <ele>3453.0</ele>
        <time>2013-09-04T14:46:02Z</time>
      </trkpt>
      <trkpt lat="43.064567" lon="-4.601050">
        <ele>3452.0</ele>
        <time>2013-09-04T14:46:03Z</time>
      </trkpt>
      <trkpt lat="43.064633" lon="-4.600950">
        <ele>3451.0</ele>
        <time>2013-09-04T14:46:04Z</time>
      </trkpt>
      <trkpt lat="43.064717" lon="-4.600833">
        <ele>3451.0</ele>
        <time>2013-09-04T14:46:05Z</time>
      </trkpt>
      <trkpt lat="43.064800" lon="-4.600717">
        <ele>3451.0</ele>
        <time>2013-09-04T14:46:06Z</time>
      </trkpt>
      <trkpt lat="43.064867" lon="-4.600600">
        <ele>3450.0</ele>
        <time>2013-09-04T14:46:07Z</time>
      </trkpt>
      <trkpt lat="43.064917" lon="-4.600483">
        <ele>3450.0</ele>
        <time>2013-09-04T14:46:08Z</time>
      </trkpt>
      <trkpt lat="43.064950" lon="-4.600383">
        <ele>3450.0</ele>
        <time>2013-09-04T14:46:09Z</time>
      </trkpt>
      <trkpt lat="43.065000" lon="-4.600283">
        <ele>3449.0</ele>
        <time>2013-09-04T14:46:10Z</time>
      </trkpt>
      <trkpt lat="43.065033" lon="-4.600183">
        <ele>3447.0</ele>
        <time>2013-09-04T14:46:11Z</time>
      </trkpt>
      <trkpt lat="43.065050" lon="-4.600067">
        <ele>3444.0</ele>
        <time>2013-09-04T14:46:12Z</time>
      </trkpt>
      <trkpt lat="43.065083" lon="-4.599933">
        <ele>3440.0</ele>
        <time>2013-09-04T14:46:13Z</time>
      </trkpt>
      <trkpt lat="43.065133" lon="-4.599783">
        <ele>3436.0</ele>
        <time>2013-09-04T14:46:14Z</time>
      </trkpt>
      <trkpt lat="43.065183" lon="-4.599650">
        <ele>3433.0</ele>
        <time>2013-09-04T14:46:15Z</time>
      </trkpt>
      <trkpt lat="43.065267" lon="-4.599500">
        <ele>3431.0</ele>
        <time>2013-09-04T14:46:16Z</time>
      </trkpt>
      <trkpt lat="43.065317" lon="-4.599367">
        <ele>3429.0</ele>
        <time>2013-09-04T14:46:17Z</time>
      </trkpt>
      <trkpt lat="43.065367" lon="-4.599250">
        <ele>3426.0</ele>
        <time>2013-09-04T14:46:18Z</time>
      </trkpt>
      <trkpt lat="43.065417" lon="-4.599100">
        <ele>3424.0</ele>
        <time>2013-09-04T14:46:19Z</time>
      </trkpt>
      <trkpt lat="43.065467" lon="-4.598967">
        <ele>3422.0</ele>
        <time>2013-09-04T14:46:20Z</time>
      </trkpt>
      <trkpt lat="43.065500" lon="-4.598850">
        <ele>3421.0</ele>
        <time>2013-09-04T14:46:21Z</time>
      </trkpt>
      <trkpt lat="43.065533" lon="-4.598733">
        <ele>3420.0</ele>
        <time>2013-09-04T14:46:22Z</time>
      </trkpt>
      <trkpt lat="43.065583" lon="-4.598617">
        <ele>3419.0</ele>
        <time>2013-09-04T14:46:23Z</time>
      </trkpt>
      <trkpt lat="43.065633" lon="-4.598500">
        <ele>3418.0</ele>
        <time>2013-09-04T14:46:24Z</time>
      </trkpt>
      <trkpt lat="43.065700" lon="-4.598383">
        <ele>3416.0</ele>
        <time>2013-09-04T14:46:25Z</time>
      </trkpt>
      <trkpt lat="43.065767" lon="-4.598267">
        <ele>3415.0</ele>
        <time>2013-09-04T14:46:26Z</time>
      </trkpt>
      <trkpt lat="43.065817" lon="-4.598133">
        <ele>3415.0</ele>
        <time>2013-09-04T14:46:27Z</time>
      </trkpt>
      <trkpt lat="43.065867" lon="-4.598017">
        <ele>3415.0</ele>
        <time>2013-09-04T14:46:28Z</time>
      </trkpt>
      <trkpt lat="43.065900" lon="-4.597900">
        <ele>3414.0</ele>
        <time>2013-09-04T14:46:29Z</time>
      </trkpt>
      <trkpt lat="43.065933" lon="-4.597800">
        <ele>3413.0</ele>
        <time>2013-09-04T14:46:30Z</time>
      </trkpt>
      <trkpt lat="43.065967" lon="-4.597683">
        <ele>3413.0</ele>
        <time>2013-09-04T14:46:31Z</time>
      </trkpt>
      <trkpt lat="43.066017" lon="-4.597550">
        <ele>3412.0</ele>
        <time>2013-09-04T14:46:32Z</time>
      </trkpt>
      <trkpt lat="43.066067" lon="-4.597417">
        <ele>3411.0</ele>
        <time>2013-09-04T14:46:33Z</time>
      </trkpt>
      <trkpt lat="43.066117" lon="-4.597283">
        <ele>3411.0</ele>
        <time>2013-09-04T14:46:34Z</time>
      </trkpt>
      <trkpt lat="43.066183" lon="-4.597150">
        <ele>3411.0</ele>
        <time>2013-09-04T14:46:35Z</time>
      </trkpt>
      <trkpt lat="43.066233" lon="-4.597000">
        <ele>3411.0</ele>
        <time>2013-09-04T14:46:36Z</time>
      </trkpt>
      <trkpt lat="43.066283" lon="-4.596867">
        <ele>3411.0</ele>
        <time>2013-09-04T14:46:37Z</time>
      </trkpt>
      <trkpt lat="43.066333" lon="-4.596733">
        <ele>3412.0</ele>
        <time>2013-09-04T14:46:38Z</time>
      </trkpt>
      <trkpt lat="43.066383" lon="-4.596600">
        <ele>3412.0</ele>
        <time>2013-09-04T14:46:39Z</time>
      </trkpt>
      <trkpt lat="43.066417" lon="-4.596467">
        <ele>3412.0</ele>
        <time>2013-09-04T14:46:40Z</time>
      </trkpt>
      <trkpt lat="43.066467" lon="-4.596317">
        <ele>3412.0</ele>
        <time>2013-09-04T14:46:41Z</time>
      </trkpt>
      <trkpt lat="43.066533" lon="-4.596183">
        <ele>3412.0</ele>
        <time>2013-09-04T14:46:42Z</time>
      </trkpt>
      <trkpt lat="43.066583" lon="-4.596033">
        <ele>3412.0</ele>
        <time>2013-09-04T14:46:43Z</time>
      </trkpt>
      <trkpt lat="43.066633" lon="-4.595900">
        <ele>3413.0</ele>
        <time>2013-09-04T14:46:44Z</time>
      </trkpt>
      <trkpt lat="43.066683" lon="-4.595783">
        <ele>3414.0</ele>
        <time>2013-09-04T14:46:45Z</time>
      </trkpt>
      <trkpt lat="43.066733" lon="-4.595650">
        <ele>3414.0</ele>
        <time>2013-09-04T14:46:46Z</time>
      </trkpt>
      <trkpt lat="43.066783" lon="-4.595517">
        <ele>3413.0</ele>
        <time>2013-09-04T14:46:47Z</time>
      </trkpt>
      <trkpt lat="43.066833" lon="-4.595400">
        <ele>3411.0</ele>
        <time>2013-09-04T14:46:48Z</time>
      </trkpt>
      <trkpt lat="43.066883" lon="-4.595267">
        <ele>3410.0</ele>
        <time>2013-09-04T14:46:49Z</time>
      </trkpt>
      <trkpt lat="43.066950" lon="-4.595133">
        <ele>3408.0</ele>
        <time>2013-09-04T14:46:50Z</time>
      </trkpt>
      <trkpt lat="43.067017" lon="-4.595017">
        <ele>3407.0</ele>
        <time>2013-09-04T14:46:51Z</time>
      </trkpt>
      <trkpt lat="43.067083" lon="-4.594883">
        <ele>3405.0</ele>
        <time>2013-09-04T14:46:52Z</time>
      </trkpt>
      <trkpt lat="43.067167" lon="-4.594750">
        <ele>3403.0</ele>
        <time>2013-09-04T14:46:53Z</time>
      </trkpt>
      <trkpt lat="43.067250" lon="-4.594617">
        <ele>3401.0</ele>
        <time>2013-09-04T14:46:54Z</time>
      </trkpt>
      <trkpt lat="43.067300" lon="-4.594500">
        <ele>3399.0</ele>
        <time>2013-09-04T14:46:55Z</time>
      </trkpt>
      <trkpt lat="43.067350" lon="-4.594367">
        <ele>3397.0</ele>
        <time>2013-09-04T14:46:56Z</time>
      </trkpt>
      <trkpt lat="43.067400" lon="-4.594233">
        <ele>3395.0</ele>
        <time>2013-09-04T14:46:57Z</time>
      </trkpt>
      <trkpt lat="43.067433" lon="-4.594100">
        <ele>3393.0</ele>
        <time>2013-09-04T14:46:58Z</time>
      </trkpt>
      <trkpt lat="43.067467" lon="-4.593950">
        <ele>3390.0</ele>
        <time>2013-09-04T14:46:59Z</time>
      </trkpt>
      <trkpt lat="43.067483" lon="-4.593817">
        <ele>3388.0</ele>
        <time>2013-09-04T14:47:00Z</time>
      </trkpt>
      <trkpt lat="43.067500" lon="-4.593667">
        <ele>3386.0</ele>
        <time>2013-09-04T14:47:01Z</time>
      </trkpt>
      <trkpt lat="43.067500" lon="-4.593550">
        <ele>3385.0</ele>
        <time>2013-09-04T14:47:02Z</time>
      </trkpt>
      <trkpt lat="43.067483" lon="-4.593433">
        <ele>3383.0</ele>
        <time>2013-09-04T14:47:03Z</time>
      </trkpt>
      <trkpt lat="43.067483" lon="-4.593317">
        <ele>3381.0</ele>
        <time>2013-09-04T14:47:04Z</time>
      </trkpt>
      <trkpt lat="43.067483" lon="-4.593200">
        <ele>3379.0</ele>
        <time>2013-09-04T14:47:05Z</time>
      </trkpt>
      <trkpt lat="43.067483" lon="-4.593083">
        <ele>3376.0</ele>
        <time>2013-09-04T14:47:06Z</time>
      </trkpt>
      <trkpt lat="43.067500" lon="-4.592967">
        <ele>3374.0</ele>
        <time>2013-09-04T14:47:07Z</time>
      </trkpt>
      <trkpt lat="43.067500" lon="-4.592833">
        <ele>3371.0</ele>
        <time>2013-09-04T14:47:08Z</time>
      </trkpt>
      <trkpt lat="43.067517" lon="-4.592700">
        <ele>3369.0</ele>
        <time>2013-09-04T14:47:09Z</time>
      </trkpt>
      <trkpt lat="43.067533" lon="-4.592567">
        <ele>3367.0</ele>
        <time>2013-09-04T14:47:10Z</time>
      </trkpt>
      <trkpt lat="43.067550" lon="-4.592433">
        <ele>3365.0</ele>
        <time>2013-09-04T14:47:11Z</time>
      </trkpt>
      <trkpt lat="43.067583" lon="-4.592300">
        <ele>3363.0</ele>
        <time>2013-09-04T14:47:12Z</time>
      </trkpt>
      <trkpt lat="43.067600" lon="-4.592167">
        <ele>3361.0</ele>
        <time>2013-09-04T14:47:13Z</time>
      </trkpt>
      <trkpt lat="43.067633" lon="-4.592033">
        <ele>3359.0</ele>
        <time>2013-09-04T14:47:14Z</time>
      </trkpt>
      <trkpt lat="43.067650" lon="-4.591917">
        <ele>3357.0</ele>
        <time>2013-09-04T14:47:15Z</time>
      </trkpt>
      <trkpt lat="43.067683" lon="-4.591783">
        <ele>3356.0</ele>
        <time>2013-09-04T14:47:16Z</time>
      </trkpt>
      <trkpt lat="43.067700" lon="-4.591650">
        <ele>3354.0</ele>
        <time>2013-09-04T14:47:17Z</time>
      </trkpt>
      <trkpt lat="43.067717" lon="-4.591517">
        <ele>3352.0</ele>
        <time>2013-09-04T14:47:18Z</time>
      </trkpt>
      <trkpt lat="43.067717" lon="-4.591367">
        <ele>3350.0</ele>
        <time>2013-09-04T14:47:19Z</time>
      </trkpt>
      <trkpt lat="43.067717" lon="-4.591233">
        <ele>3348.0</ele>
        <time>2013-09-04T14:47:20Z</time>
      </trkpt>
      <trkpt lat="43.067717" lon="-4.591100">
        <ele>3346.0</ele>
        <time>2013-09-04T14:47:21Z</time>
      </trkpt>
      <trkpt lat="43.067733" lon="-4.591000">
        <ele>3345.0</ele>
        <time>2013-09-04T14:47:22Z</time>
      </trkpt>
      <trkpt lat="43.067733" lon="-4.590883">
        <ele>3342.0</ele>
        <time>2013-09-04T14:47:23Z</time>
      </trkpt>
      <trkpt lat="43.067733" lon="-4.590783">
        <ele>3339.0</ele>
        <time>2013-09-04T14:47:24Z</time>
      </trkpt>
      <trkpt lat="43.067733" lon="-4.590667">
        <ele>3335.0</ele>
        <time>2013-09-04T14:47:25Z</time>
      </trkpt>
      <trkpt lat="43.067733" lon="-4.590550">
        <ele>3332.0</ele>
        <time>2013-09-04T14:47:26Z</time>
      </trkpt>
      <trkpt lat="43.067733" lon="-4.590433">
        <ele>3329.0</ele>
        <time>2013-09-04T14:47:27Z</time>
      </trkpt>
      <trkpt lat="43.067717" lon="-4.590317">
        <ele>3326.0</ele>
        <time>2013-09-04T14:47:28Z</time>
      </trkpt>
      <trkpt lat="43.067700" lon="-4.590233">
        <ele>3323.0</ele>
        <time>2013-09-04T14:47:29Z</time>
      </trkpt>
      <trkpt lat="43.067683" lon="-4.590133">
        <ele>3320.0</ele>
        <time>2013-09-04T14:47:30Z</time>
      </trkpt>
      <trkpt lat="43.067667" lon="-4.590050">
        <ele>3317.0</ele>
        <time>2013-09-04T14:47:31Z</time>
      </trkpt>
      <trkpt lat="43.067633" lon="-4.589950">
        <ele>3314.0</ele>
        <time>2013-09-04T14:47:32Z</time>
      </trkpt>
      <trkpt lat="43.067617" lon="-4.589833">
        <ele>3312.0</ele>
        <time>2013-09-04T14:47:33Z</time>
      </trkpt>
      <trkpt lat="43.067583" lon="-4.589733">
        <ele>3312.0</ele>
        <time>2013-09-04T14:47:34Z</time>
      </trkpt>
      <trkpt lat="43.067550" lon="-4.589633">
        <ele>3312.0</ele>
        <time>2013-09-04T14:47:35Z</time>
      </trkpt>
      <trkpt lat="43.067517" lon="-4.589550">
        <ele>3312.0</ele>
        <time>2013-09-04T14:47:36Z</time>
      </trkpt>
      <trkpt lat="43.067500" lon="-4.589483">
        <ele>3311.0</ele>
        <time>2013-09-04T14:47:37Z</time>
      </trkpt>
      <trkpt lat="43.067483" lon="-4.589417">
        <ele>3310.0</ele>
        <time>2013-09-04T14:47:38Z</time>
      </trkpt>
      <trkpt lat="43.067450" lon="-4.589333">
        <ele>3308.0</ele>
        <time>2013-09-04T14:47:39Z</time>
      </trkpt>
      <trkpt lat="43.067417" lon="-4.589250">
        <ele>3306.0</ele>
        <time>2013-09-04T14:47:40Z</time>
      </trkpt>
      <trkpt lat="43.067383" lon="-4.589150">
        <ele>3304.0</ele>
        <time>2013-09-04T14:47:41Z</time>
      </trkpt>
      <trkpt lat="43.067367" lon="-4.589067">
        <ele>3304.0</ele>
        <time>2013-09-04T14:47:42Z</time>
      </trkpt>
      <trkpt lat="43.067350" lon="-4.588983">
        <ele>3303.0</ele>
        <time>2013-09-04T14:47:43Z</time>
      </trkpt>
      <trkpt lat="43.067333" lon="-4.588900">
        <ele>3303.0</ele>
        <time>2013-09-04T14:47:44Z</time>
      </trkpt>
      <trkpt lat="43.067317" lon="-4.588817">
        <ele>3302.0</ele>
        <time>2013-09-04T14:47:45Z</time>
      </trkpt>
      <trkpt lat="43.067300" lon="-4.588733">
        <ele>3300.0</ele>
        <time>2013-09-04T14:47:46Z</time>
      </trkpt>
      <trkpt lat="43.067283" lon="-4.588633">
        <ele>3298.0</ele>
        <time>2013-09-04T14:47:47Z</time>
      </trkpt>
      <trkpt lat="43.067267" lon="-4.588550">
        <ele>3297.0</ele>
        <time>2013-09-04T14:47:48Z</time>
      </trkpt>
      <trkpt lat="43.067250" lon="-4.588467">
        <ele>3297.0</ele>
        <time>2013-09-04T14:47:49Z</time>
      </trkpt>
      <trkpt lat="43.067233" lon="-4.588383">
        <ele>3296.0</ele>
        <time>2013-09-04T14:47:50Z</time>
      </trkpt>
      <trkpt lat="43.067217" lon="-4.588300">
        <ele>3295.0</ele>
        <time>2013-09-04T14:47:51Z</time>
      </trkpt>
      <trkpt lat="43.067200" lon="-4.588217">
        <ele>3294.0</ele>
        <time>2013-09-04T14:47:52Z</time>
      </trkpt>
      <trkpt lat="43.067183" lon="-4.588133">
        <ele>3293.0</ele>
        <time>2013-09-04T14:47:53Z</time>
      </trkpt>
      <trkpt lat="43.067167" lon="-4.588033">
        <ele>3292.0</ele>
        <time>2013-09-04T14:47:54Z</time>
      </trkpt>
      <trkpt lat="43.067167" lon="-4.587950">
        <ele>3292.0</ele>
        <time>2013-09-04T14:47:55Z</time>
      </trkpt>
      <trkpt lat="43.067150" lon="-4.587867">
        <ele>3291.0</ele>
        <time>2013-09-04T14:47:56Z</time>
      </trkpt>
      <trkpt lat="43.067133" lon="-4.587767">
        <ele>3290.0</ele>
        <time>2013-09-04T14:47:57Z</time>
      </trkpt>
      <trkpt lat="43.067133" lon="-4.587667">
        <ele>3289.0</ele>
        <time>2013-09-04T14:47:58Z</time>
      </trkpt>
      <trkpt lat="43.067133" lon="-4.587567">
        <ele>3287.0</ele>
        <time>2013-09-04T14:47:59Z</time>
      </trkpt>
      <trkpt lat="43.067133" lon="-4.587467">
        <ele>3286.0</ele>
        <time>2013-09-04T14:48:00Z</time>
      </trkpt>
      <trkpt lat="43.067133" lon="-4.587367">
        <ele>3284.0</ele>
        <time>2013-09-04T14:48:01Z</time>
      </trkpt>
      <trkpt lat="43.067117" lon="-4.587283">
        <ele>3283.0</ele>
        <time>2013-09-04T14:48:02Z</time>
      </trkpt>
      <trkpt lat="43.067100" lon="-4.587183">
        <ele>3281.0</ele>
        <time>2013-09-04T14:48:03Z</time>
      </trkpt>
      <trkpt lat="43.067100" lon="-4.587083">
        <ele>3280.0</ele>
        <time>2013-09-04T14:48:04Z</time>
      </trkpt>
      <trkpt lat="43.067083" lon="-4.586983">
        <ele>3278.0</ele>
        <time>2013-09-04T14:48:05Z</time>
      </trkpt>
      <trkpt lat="43.067083" lon="-4.586883">
        <ele>3275.0</ele>
        <time>2013-09-04T14:48:06Z</time>
      </trkpt>
      <trkpt lat="43.067067" lon="-4.586783">
        <ele>3273.0</ele>
        <time>2013-09-04T14:48:07Z</time>
      </trkpt>
      <trkpt lat="43.067067" lon="-4.586683">
        <ele>3271.0</ele>
        <time>2013-09-04T14:48:08Z</time>
      </trkpt>
      <trkpt lat="43.067067" lon="-4.586567">
        <ele>3270.0</ele>
        <time>2013-09-04T14:48:09Z</time>
      </trkpt>
      <trkpt lat="43.067067" lon="-4.586467">
        <ele>3268.0</ele>
        <time>2013-09-04T14:48:10Z</time>
      </trkpt>
      <trkpt lat="43.067067" lon="-4.586350">
        <ele>3266.0</ele>
        <time>2013-09-04T14:48:11Z</time>
      </trkpt>
      <trkpt lat="43.067067" lon="-4.586233">
        <ele>3264.0</ele>
        <time>2013-09-04T14:48:12Z</time>
      </trkpt>
      <trkpt lat="43.067083" lon="-4.586117">
        <ele>3263.0</ele>
        <time>2013-09-04T14:48:13Z</time>
      </trkpt>
      <trkpt lat="43.067083" lon="-4.586017">
        <ele>3261.0</ele>
        <time>2013-09-04T14:48:14Z</time>
      </trkpt>
      <trkpt lat="43.067083" lon="-4.585900">
        <ele>3258.0</ele>
        <time>2013-09-04T14:48:15Z</time>
      </trkpt>
      <trkpt lat="43.067117" lon="-4.585783">
        <ele>3256.0</ele>
        <time>2013-09-04T14:48:16Z</time>
      </trkpt>
      <trkpt lat="43.067133" lon="-4.585667">
        <ele>3254.0</ele>
        <time>2013-09-04T14:48:17Z</time>
      </trkpt>
      <trkpt lat="43.067150" lon="-4.585550">
        <ele>3252.0</ele>
        <time>2013-09-04T14:48:18Z</time>
      </trkpt>
      <trkpt lat="43.067167" lon="-4.585433">
        <ele>3250.0</ele>
        <time>2013-09-04T14:48:19Z</time>
      </trkpt>
      <trkpt lat="43.067183" lon="-4.585333">
        <ele>3248.0</ele>
        <time>2013-09-04T14:48:20Z</time>
      </trkpt>
      <trkpt lat="43.067200" lon="-4.585217">
        <ele>3246.0</ele>
        <time>2013-09-04T14:48:21Z</time>
      </trkpt>
      <trkpt lat="43.067217" lon="-4.585117">
        <ele>3243.0</ele>
        <time>2013-09-04T14:48:22Z</time>
      </trkpt>
      <trkpt lat="43.067217" lon="-4.585000">
        <ele>3241.0</ele>
        <time>2013-09-04T14:48:23Z</time>
      </trkpt>
      <trkpt lat="43.067233" lon="-4.584883">
        <ele>3239.0</ele>
        <time>2013-09-04T14:48:24Z</time>
      </trkpt>
      <trkpt lat="43.067233" lon="-4.584783">
        <ele>3238.0</ele>
        <time>2013-09-04T14:48:25Z</time>
      </trkpt>
      <trkpt lat="43.067250" lon="-4.584683">
        <ele>3237.0</ele>
        <time>2013-09-04T14:48:26Z</time>
      </trkpt>
      <trkpt lat="43.067250" lon="-4.584583">
        <ele>3235.0</ele>
        <time>2013-09-04T14:48:27Z</time>
      </trkpt>
      <trkpt lat="43.067267" lon="-4.584500">
        <ele>3233.0</ele>
        <time>2013-09-04T14:48:28Z</time>
      </trkpt>
      <trkpt lat="43.067267" lon="-4.584400">
        <ele>3230.0</ele>
        <time>2013-09-04T14:48:29Z</time>
      </trkpt>
      <trkpt lat="43.067267" lon="-4.584267">
        <ele>3231.0</ele>
        <time>2013-09-04T14:48:30Z</time>
      </trkpt>
      <trkpt lat="43.067283" lon="-4.584167">
        <ele>3229.0</ele>
        <time>2013-09-04T14:48:31Z</time>
      </trkpt>
      <trkpt lat="43.067283" lon="-4.584067">
        <ele>3226.0</ele>
        <time>2013-09-04T14:48:32Z</time>
      </trkpt>
      <trkpt lat="43.067283" lon="-4.583967">
        <ele>3224.0</ele>
        <time>2013-09-04T14:48:33Z</time>
      </trkpt>
      <trkpt lat="43.067283" lon="-4.583867">
        <ele>3221.0</ele>
        <time>2013-09-04T14:48:34Z</time>
      </trkpt>
      <trkpt lat="43.067283" lon="-4.583767">
        <ele>3219.0</ele>
        <time>2013-09-04T14:48:35Z</time>
      </trkpt>
      <trkpt lat="43.067283" lon="-4.583667">
        <ele>3217.0</ele>
        <time>2013-09-04T14:48:36Z</time>
      </trkpt>
      <trkpt lat="43.067267" lon="-4.583567">
        <ele>3215.0</ele>
        <time>2013-09-04T14:48:37Z</time>
      </trkpt>
      <trkpt lat="43.067267" lon="-4.583467">
        <ele>3213.0</ele>
        <time>2013-09-04T14:48:38Z</time>
      </trkpt>
      <trkpt lat="43.067267" lon="-4.583367">
        <ele>3211.0</ele>
        <time>2013-09-04T14:48:39Z</time>
      </trkpt>
      <trkpt lat="43.067267" lon="-4.583267">
        <ele>3211.0</ele>
        <time>2013-09-04T14:48:40Z</time>
      </trkpt>
      <trkpt lat="43.067250" lon="-4.583167">
        <ele>3210.0</ele>
        <time>2013-09-04T14:48:41Z</time>
      </trkpt>
      <trkpt lat="43.067250" lon="-4.583067">
        <ele>3207.0</ele>
        <time>2013-09-04T14:48:42Z</time>
      </trkpt>
      <trkpt lat="43.067233" lon="-4.582967">
        <ele>3205.0</ele>
        <time>2013-09-04T14:48:43Z</time>
      </trkpt>
      <trkpt lat="43.067217" lon="-4.582867">
        <ele>3203.0</ele>
        <time>2013-09-04T14:48:44Z</time>
      </trkpt>
      <trkpt lat="43.067217" lon="-4.582767">
        <ele>3201.0</ele>
        <time>2013-09-04T14:48:45Z</time>
      </trkpt>
      <trkpt lat="43.067200" lon="-4.582667">
        <ele>3198.0</ele>
        <time>2013-09-04T14:48:46Z</time>
      </trkpt>
      <trkpt lat="43.067183" lon="-4.582567">
        <ele>3196.0</ele>
        <time>2013-09-04T14:48:47Z</time>
      </trkpt>
      <trkpt lat="43.067167" lon="-4.582467">
        <ele>3193.0</ele>
        <time>2013-09-04T14:48:48Z</time>
      </trkpt>
      <trkpt lat="43.067167" lon="-4.582367">
        <ele>3192.0</ele>
        <time>2013-09-04T14:48:49Z</time>
      </trkpt>
      <trkpt lat="43.067150" lon="-4.582267">
        <ele>3190.0</ele>
        <time>2013-09-04T14:48:50Z</time>
      </trkpt>
      <trkpt lat="43.067150" lon="-4.582167">
        <ele>3189.0</ele>
        <time>2013-09-04T14:48:51Z</time>
      </trkpt>
      <trkpt lat="43.067133" lon="-4.582083">
        <ele>3187.0</ele>
        <time>2013-09-04T14:48:52Z</time>
      </trkpt>
      <trkpt lat="43.067117" lon="-4.582000">
        <ele>3185.0</ele>
        <time>2013-09-04T14:48:53Z</time>
      </trkpt>
      <trkpt lat="43.067100" lon="-4.581900">
        <ele>3183.0</ele>
        <time>2013-09-04T14:48:54Z</time>
      </trkpt>
      <trkpt lat="43.067067" lon="-4.581817">
        <ele>3181.0</ele>
        <time>2013-09-04T14:48:55Z</time>
      </trkpt>
      <trkpt lat="43.067033" lon="-4.581717">
        <ele>3179.0</ele>
        <time>2013-09-04T14:48:56Z</time>
      </trkpt>
      <trkpt lat="43.067000" lon="-4.581633">
        <ele>3178.0</ele>
        <time>2013-09-04T14:48:57Z</time>
      </trkpt>
      <trkpt lat="43.066967" lon="-4.581567">
        <ele>3177.0</ele>
        <time>2013-09-04T14:48:58Z</time>
      </trkpt>
      <trkpt lat="43.066950" lon="-4.581500">
        <ele>3176.0</ele>
        <time>2013-09-04T14:48:59Z</time>
      </trkpt>
      <trkpt lat="43.066917" lon="-4.581433">
        <ele>3174.0</ele>
        <time>2013-09-04T14:49:00Z</time>
      </trkpt>
      <trkpt lat="43.066883" lon="-4.581367">
        <ele>3172.0</ele>
        <time>2013-09-04T14:49:01Z</time>
      </trkpt>
      <trkpt lat="43.066833" lon="-4.581283">
        <ele>3169.0</ele>
        <time>2013-09-04T14:49:02Z</time>
      </trkpt>
      <trkpt lat="43.066800" lon="-4.581217">
        <ele>3167.0</ele>
        <time>2013-09-04T14:49:03Z</time>
      </trkpt>
      <trkpt lat="43.066750" lon="-4.581150">
        <ele>3165.0</ele>
        <time>2013-09-04T14:49:04Z</time>
      </trkpt>
      <trkpt lat="43.066700" lon="-4.581083">
        <ele>3164.0</ele>
        <time>2013-09-04T14:49:05Z</time>
      </trkpt>
      <trkpt lat="43.066667" lon="-4.581050">
        <ele>3162.0</ele>
        <time>2013-09-04T14:49:06Z</time>
      </trkpt>
      <trkpt lat="43.066617" lon="-4.581000">
        <ele>3160.0</ele>
        <time>2013-09-04T14:49:07Z</time>
      </trkpt>
      <trkpt lat="43.066567" lon="-4.580933">
        <ele>3157.0</ele>
        <time>2013-09-04T14:49:08Z</time>
      </trkpt>
      <trkpt lat="43.066550" lon="-4.580850">
        <ele>3154.0</ele>
        <time>2013-09-04T14:49:09Z</time>
      </trkpt>
      <trkpt lat="43.066517" lon="-4.580750">
        <ele>3152.0</ele>
        <time>2013-09-04T14:49:10Z</time>
      </trkpt>
      <trkpt lat="43.066500" lon="-4.580667">
        <ele>3149.0</ele>
        <time>2013-09-04T14:49:11Z</time>
      </trkpt>
      <trkpt lat="43.066467" lon="-4.580583">
        <ele>3146.0</ele>
        <time>2013-09-04T14:49:12Z</time>
      </trkpt>
      <trkpt lat="43.066433" lon="-4.580500">
        <ele>3143.0</ele>
        <time>2013-09-04T14:49:13Z</time>
      </trkpt>
      <trkpt lat="43.066400" lon="-4.580433">
        <ele>3140.0</ele>
        <time>2013-09-04T14:49:14Z</time>
      </trkpt>
      <trkpt lat="43.066367" lon="-4.580350">
        <ele>3138.0</ele>
        <time>2013-09-04T14:49:15Z</time>
      </trkpt>
      <trkpt lat="43.066317" lon="-4.580283">
        <ele>3135.0</ele>
        <time>2013-09-04T14:49:16Z</time>
      </trkpt>
      <trkpt lat="43.066267" lon="-4.580217">
        <ele>3132.0</ele>
        <time>2013-09-04T14:49:17Z</time>
      </trkpt>
      <trkpt lat="43.066217" lon="-4.580150">
        <ele>3130.0</ele>
        <time>2013-09-04T14:49:18Z</time>
      </trkpt>
      <trkpt lat="43.066167" lon="-4.580067">
        <ele>3129.0</ele>
        <time>2013-09-04T14:49:19Z</time>
      </trkpt>
      <trkpt lat="43.066133" lon="-4.579983">
        <ele>3127.0</ele>
        <time>2013-09-04T14:49:20Z</time>
      </trkpt>
      <trkpt lat="43.066100" lon="-4.579900">
        <ele>3125.0</ele>
        <time>2013-09-04T14:49:21Z</time>
      </trkpt>
      <trkpt lat="43.066067" lon="-4.579833">
        <ele>3124.0</ele>
        <time>2013-09-04T14:49:22Z</time>
      </trkpt>
      <trkpt lat="43.066033" lon="-4.579750">
        <ele>3122.0</ele>
        <time>2013-09-04T14:49:23Z</time>
      </trkpt>
      <trkpt lat="43.066000" lon="-4.579683">
        <ele>3119.0</ele>
        <time>2013-09-04T14:49:24Z</time>
      </trkpt>
      <trkpt lat="43.065967" lon="-4.579600">
        <ele>3117.0</ele>
        <time>2013-09-04T14:49:25Z</time>
      </trkpt>
      <trkpt lat="43.065950" lon="-4.579517">
        <ele>3115.0</ele>
        <time>2013-09-04T14:49:26Z</time>
      </trkpt>
      <trkpt lat="43.065917" lon="-4.579433">
        <ele>3114.0</ele>
        <time>2013-09-04T14:49:27Z</time>
      </trkpt>
      <trkpt lat="43.065883" lon="-4.579367">
        <ele>3112.0</ele>
        <time>2013-09-04T14:49:28Z</time>
      </trkpt>
      <trkpt lat="43.065850" lon="-4.579317">
        <ele>3110.0</ele>
        <time>2013-09-04T14:49:29Z</time>
      </trkpt>
      <trkpt lat="43.065800" lon="-4.579250">
        <ele>3108.0</ele>
        <time>2013-09-04T14:49:30Z</time>
      </trkpt>
      <trkpt lat="43.065767" lon="-4.579183">
        <ele>3106.0</ele>
        <time>2013-09-04T14:49:31Z</time>
      </trkpt>
      <trkpt lat="43.065717" lon="-4.579117">
        <ele>3105.0</ele>
        <time>2013-09-04T14:49:32Z</time>
      </trkpt>
      <trkpt lat="43.065683" lon="-4.579067">
        <ele>3104.0</ele>
        <time>2013-09-04T14:49:33Z</time>
      </trkpt>
      <trkpt lat="43.065633" lon="-4.579000">
        <ele>3102.0</ele>
        <time>2013-09-04T14:49:34Z</time>
      </trkpt>
      <trkpt lat="43.065600" lon="-4.578933">
        <ele>3101.0</ele>
        <time>2013-09-04T14:49:35Z</time>
      </trkpt>
      <trkpt lat="43.065550" lon="-4.578883">
        <ele>3101.0</ele>
        <time>2013-09-04T14:49:36Z</time>
      </trkpt>
      <trkpt lat="43.065500" lon="-4.578833">
        <ele>3101.0</ele>
        <time>2013-09-04T14:49:37Z</time>
      </trkpt>
      <trkpt lat="43.065467" lon="-4.578783">
        <ele>3100.0</ele>
        <time>2013-09-04T14:49:38Z</time>
      </trkpt>
      <trkpt lat="43.065433" lon="-4.578717">
        <ele>3099.0</ele>
        <time>2013-09-04T14:49:39Z</time>
      </trkpt>
      <trkpt lat="43.065400" lon="-4.578633">
        <ele>3099.0</ele>
        <time>2013-09-04T14:49:40Z</time>
      </trkpt>
      <trkpt lat="43.065350" lon="-4.578567">
        <ele>3097.0</ele>
        <time>2013-09-04T14:49:41Z</time>
      </trkpt>
      <trkpt lat="43.065300" lon="-4.578500">
        <ele>3096.0</ele>
        <time>2013-09-04T14:49:42Z</time>
      </trkpt>
      <trkpt lat="43.065250" lon="-4.578417">
        <ele>3096.0</ele>
        <time>2013-09-04T14:49:43Z</time>
      </trkpt>
      <trkpt lat="43.065217" lon="-4.578333">
        <ele>3095.0</ele>
        <time>2013-09-04T14:49:44Z</time>
      </trkpt>
      <trkpt lat="43.065183" lon="-4.578250">
        <ele>3093.0</ele>
        <time>2013-09-04T14:49:45Z</time>
      </trkpt>
      <trkpt lat="43.065167" lon="-4.578183">
        <ele>3092.0</ele>
        <time>2013-09-04T14:49:46Z</time>
      </trkpt>
      <trkpt lat="43.065133" lon="-4.578100">
        <ele>3090.0</ele>
        <time>2013-09-04T14:49:47Z</time>
      </trkpt>
      <trkpt lat="43.065100" lon="-4.578017">
        <ele>3088.0</ele>
        <time>2013-09-04T14:49:48Z</time>
      </trkpt>
      <trkpt lat="43.065067" lon="-4.577917">
        <ele>3085.0</ele>
        <time>2013-09-04T14:49:49Z</time>
      </trkpt>
      <trkpt lat="43.065033" lon="-4.577817">
        <ele>3082.0</ele>
        <time>2013-09-04T14:49:50Z</time>
      </trkpt>
      <trkpt lat="43.065000" lon="-4.577717">
        <ele>3080.0</ele>
        <time>2013-09-04T14:49:51Z</time>
      </trkpt>
      <trkpt lat="43.064983" lon="-4.577600">
        <ele>3078.0</ele>
        <time>2013-09-04T14:49:52Z</time>
      </trkpt>
      <trkpt lat="43.064967" lon="-4.577500">
        <ele>3076.0</ele>
        <time>2013-09-04T14:49:53Z</time>
      </trkpt>
      <trkpt lat="43.064950" lon="-4.577400">
        <ele>3073.0</ele>
        <time>2013-09-04T14:49:54Z</time>
      </trkpt>
      <trkpt lat="43.064933" lon="-4.577300">
        <ele>3070.0</ele>
        <time>2013-09-04T14:49:55Z</time>
      </trkpt>
      <trkpt lat="43.064933" lon="-4.577183">
        <ele>3067.0</ele>
        <time>2013-09-04T14:49:56Z</time>
      </trkpt>
      <trkpt lat="43.064933" lon="-4.577067">
        <ele>3064.0</ele>
        <time>2013-09-04T14:49:57Z</time>
      </trkpt>
      <trkpt lat="43.064950" lon="-4.576950">
        <ele>3062.0</ele>
        <time>2013-09-04T14:49:58Z</time>
      </trkpt>
      <trkpt lat="43.065017" lon="-4.576833">
        <ele>3058.0</ele>
        <time>2013-09-04T14:49:59Z</time>
      </trkpt>
      <trkpt lat="43.065100" lon="-4.576717">
        <ele>3053.0</ele>
        <time>2013-09-04T14:50:00Z</time>
      </trkpt>
      <trkpt lat="43.065217" lon="-4.576617">
        <ele>3049.0</ele>
        <time>2013-09-04T14:50:01Z</time>
      </trkpt>
      <trkpt lat="43.065333" lon="-4.576533">
        <ele>3047.0</ele>
        <time>2013-09-04T14:50:02Z</time>
      </trkpt>
      <trkpt lat="43.065450" lon="-4.576450">
        <ele>3046.0</ele>
        <time>2013-09-04T14:50:03Z</time>
      </trkpt>
      <trkpt lat="43.065567" lon="-4.576367">
        <ele>3044.0</ele>
        <time>2013-09-04T14:50:04Z</time>
      </trkpt>
      <trkpt lat="43.065667" lon="-4.576283">
        <ele>3042.0</ele>
        <time>2013-09-04T14:50:05Z</time>
      </trkpt>
      <trkpt lat="43.065767" lon="-4.576200">
        <ele>3040.0</ele>
        <time>2013-09-04T14:50:06Z</time>
      </trkpt>
      <trkpt lat="43.065883" lon="-4.576100">
        <ele>3037.0</ele>
        <time>2013-09-04T14:50:07Z</time>
      </trkpt>
      <trkpt lat="43.066000" lon="-4.576017">
        <ele>3035.0</ele>
        <time>2013-09-04T14:50:08Z</time>
      </trkpt>
      <trkpt lat="43.066100" lon="-4.575917">
        <ele>3034.0</ele>
        <time>2013-09-04T14:50:09Z</time>
      </trkpt>
      <trkpt lat="43.066200" lon="-4.575817">
        <ele>3034.0</ele>
        <time>2013-09-04T14:50:10Z</time>
      </trkpt>
      <trkpt lat="43.066317" lon="-4.575733">
        <ele>3033.0</ele>
        <time>2013-09-04T14:50:11Z</time>
      </trkpt>
      <trkpt lat="43.066417" lon="-4.575667">
        <ele>3032.0</ele>
        <time>2013-09-04T14:50:12Z</time>
      </trkpt>
      <trkpt lat="43.066533" lon="-4.575583">
        <ele>3031.0</ele>
        <time>2013-09-04T14:50:13Z</time>
      </trkpt>
      <trkpt lat="43.066633" lon="-4.575517">
        <ele>3029.0</ele>
        <time>2013-09-04T14:50:14Z</time>
      </trkpt>
      <trkpt lat="43.066750" lon="-4.575433">
        <ele>3028.0</ele>
        <time>2013-09-04T14:50:15Z</time>
      </trkpt>
      <trkpt lat="43.066867" lon="-4.575350">
        <ele>3028.0</ele>
        <time>2013-09-04T14:50:16Z</time>
      </trkpt>
      <trkpt lat="43.066983" lon="-4.575283">
        <ele>3027.0</ele>
        <time>2013-09-04T14:50:17Z</time>
      </trkpt>
      <trkpt lat="43.067100" lon="-4.575217">
        <ele>3027.0</ele>
        <time>2013-09-04T14:50:18Z</time>
      </trkpt>
      <trkpt lat="43.067217" lon="-4.575167">
        <ele>3026.0</ele>
        <time>2013-09-04T14:50:19Z</time>
      </trkpt>
      <trkpt lat="43.067333" lon="-4.575133">
        <ele>3025.0</ele>
        <time>2013-09-04T14:50:20Z</time>
      </trkpt>
      <trkpt lat="43.067467" lon="-4.575117">
        <ele>3024.0</ele>
        <time>2013-09-04T14:50:21Z</time>
      </trkpt>
      <trkpt lat="43.067600" lon="-4.575083">
        <ele>3023.0</ele>
        <time>2013-09-04T14:50:22Z</time>
      </trkpt>
      <trkpt lat="43.067717" lon="-4.575050">
        <ele>3022.0</ele>
        <time>2013-09-04T14:50:23Z</time>
      </trkpt>
      <trkpt lat="43.067817" lon="-4.574983">
        <ele>3022.0</ele>
        <time>2013-09-04T14:50:24Z</time>
      </trkpt>
      <trkpt lat="43.067900" lon="-4.574900">
        <ele>3021.0</ele>
        <time>2013-09-04T14:50:25Z</time>
      </trkpt>
      <trkpt lat="43.067967" lon="-4.574800">
        <ele>3020.0</ele>
        <time>2013-09-04T14:50:26Z</time>
      </trkpt>
      <trkpt lat="43.068033" lon="-4.574700">
        <ele>3020.0</ele>
        <time>2013-09-04T14:50:27Z</time>
      </trkpt>
      <trkpt lat="43.068067" lon="-4.574600">
        <ele>3019.0</ele>
        <time>2013-09-04T14:50:28Z</time>
      </trkpt>
      <trkpt lat="43.068100" lon="-4.574500">
        <ele>3018.0</ele>
        <time>2013-09-04T14:50:29Z</time>
      </trkpt>
      <trkpt lat="43.068100" lon="-4.574383">
        <ele>3017.0</ele>
        <time>2013-09-04T14:50:30Z</time>
      </trkpt>
      <trkpt lat="43.068100" lon="-4.574250">
        <ele>3016.0</ele>
        <time>2013-09-04T14:50:31Z</time>
      </trkpt>
      <trkpt lat="43.068083" lon="-4.574133">
        <ele>3016.0</ele>
        <time>2013-09-04T14:50:32Z</time>
      </trkpt>
      <trkpt lat="43.068083" lon="-4.574017">
        <ele>3016.0</ele>
        <time>2013-09-04T14:50:33Z</time>
      </trkpt>
      <trkpt lat="43.068083" lon="-4.573900">
        <ele>3016.0</ele>
        <time>2013-09-04T14:50:34Z</time>
      </trkpt>
      <trkpt lat="43.068083" lon="-4.573783">
        <ele>3015.0</ele>
        <time>2013-09-04T14:50:35Z</time>
      </trkpt>
      <trkpt lat="43.068083" lon="-4.573667">
        <ele>3014.0</ele>
        <time>2013-09-04T14:50:36Z</time>
      </trkpt>
      <trkpt lat="43.068083" lon="-4.573533">
        <ele>3013.0</ele>
        <time>2013-09-04T14:50:37Z</time>
      </trkpt>
      <trkpt lat="43.068067" lon="-4.573417">
        <ele>3012.0</ele>
        <time>2013-09-04T14:50:38Z</time>
      </trkpt>
      <trkpt lat="43.068050" lon="-4.573300">
        <ele>3011.0</ele>
        <time>2013-09-04T14:50:39Z</time>
      </trkpt>
      <trkpt lat="43.068033" lon="-4.573200">
        <ele>3011.0</ele>
        <time>2013-09-04T14:50:40Z</time>
      </trkpt>
      <trkpt lat="43.068017" lon="-4.573100">
        <ele>3010.0</ele>
        <time>2013-09-04T14:50:41Z</time>
      </trkpt>
      <trkpt lat="43.067983" lon="-4.573017">
        <ele>3009.0</ele>
        <time>2013-09-04T14:50:42Z</time>
      </trkpt>
      <trkpt lat="43.067950" lon="-4.572917">
        <ele>3008.0</ele>
        <time>2013-09-04T14:50:43Z</time>
      </trkpt>
      <trkpt lat="43.067917" lon="-4.572817">
        <ele>3006.0</ele>
        <time>2013-09-04T14:50:44Z</time>
      </trkpt>
      <trkpt lat="43.067867" lon="-4.572717">
        <ele>3004.0</ele>
        <time>2013-09-04T14:50:45Z</time>
      </trkpt>
      <trkpt lat="43.067833" lon="-4.572633">
        <ele>3003.0</ele>
        <time>2013-09-04T14:50:46Z</time>
      </trkpt>
      <trkpt lat="43.067800" lon="-4.572567">
        <ele>3001.0</ele>
        <time>2013-09-04T14:50:47Z</time>
      </trkpt>
      <trkpt lat="43.067767" lon="-4.572517">
        <ele>3000.0</ele>
        <time>2013-09-04T14:50:48Z</time>
      </trkpt>
      <trkpt lat="43.067717" lon="-4.572450">
        <ele>2999.0</ele>
        <time>2013-09-04T14:50:49Z</time>
      </trkpt>
      <trkpt lat="43.067667" lon="-4.572383">
        <ele>2998.0</ele>
        <time>2013-09-04T14:50:50Z</time>
      </trkpt>
      <trkpt lat="43.067617" lon="-4.572283">
        <ele>2997.0</ele>
        <time>2013-09-04T14:50:51Z</time>
      </trkpt>
      <trkpt lat="43.067583" lon="-4.572200">
        <ele>2996.0</ele>
        <time>2013-09-04T14:50:52Z</time>
      </trkpt>
      <trkpt lat="43.067550" lon="-4.572117">
        <ele>2997.0</ele>
        <time>2013-09-04T14:50:53Z</time>
      </trkpt>
      <trkpt lat="43.067500" lon="-4.572033">
        <ele>2997.0</ele>
        <time>2013-09-04T14:50:54Z</time>
      </trkpt>
      <trkpt lat="43.067467" lon="-4.571983">
        <ele>2996.0</ele>
        <time>2013-09-04T14:50:55Z</time>
      </trkpt>
      <trkpt lat="43.067417" lon="-4.571917">
        <ele>2996.0</ele>
        <time>2013-09-04T14:50:56Z</time>
      </trkpt>
      <trkpt lat="43.067383" lon="-4.571867">
        <ele>2995.0</ele>
        <time>2013-09-04T14:50:57Z</time>
      </trkpt>
      <trkpt lat="43.067333" lon="-4.571800">
        <ele>2994.0</ele>
        <time>2013-09-04T14:50:58Z</time>
      </trkpt>
      <trkpt lat="43.067300" lon="-4.571750">
        <ele>2993.0</ele>
        <time>2013-09-04T14:50:59Z</time>
      </trkpt>
      <trkpt lat="43.067267" lon="-4.571683">
        <ele>2992.0</ele>
        <time>2013-09-04T14:51:00Z</time>
      </trkpt>
      <trkpt lat="43.067233" lon="-4.571617">
        <ele>2990.0</ele>
        <time>2013-09-04T14:51:01Z</time>
      </trkpt>
      <trkpt lat="43.067217" lon="-4.571533">
        <ele>2988.0</ele>
        <time>2013-09-04T14:51:02Z</time>
      </trkpt>
      <trkpt lat="43.067217" lon="-4.571450">
        <ele>2988.0</ele>
        <time>2013-09-04T14:51:03Z</time>
      </trkpt>
      <trkpt lat="43.067250" lon="-4.571350">
        <ele>2987.0</ele>
        <time>2013-09-04T14:51:04Z</time>
      </trkpt>
      <trkpt lat="43.067333" lon="-4.571267">
        <ele>2984.0</ele>
        <time>2013-09-04T14:51:05Z</time>
      </trkpt>
      <trkpt lat="43.067433" lon="-4.571200">
        <ele>2981.0</ele>
        <time>2013-09-04T14:51:06Z</time>
      </trkpt>
      <trkpt lat="43.067567" lon="-4.571183">
        <ele>2978.0</ele>
        <time>2013-09-04T14:51:07Z</time>
      </trkpt>
      <trkpt lat="43.067700" lon="-4.571217">
        <ele>2976.0</ele>
        <time>2013-09-04T14:51:08Z</time>
      </trkpt>
      <trkpt lat="43.067833" lon="-4.571283">
        <ele>2975.0</ele>
        <time>2013-09-04T14:51:09Z</time>
      </trkpt>
      <trkpt lat="43.067933" lon="-4.571367">
        <ele>2973.0</ele>
        <time>2013-09-04T14:51:10Z</time>
      </trkpt>
      <trkpt lat="43.068033" lon="-4.571450">
        <ele>2972.0</ele>
        <time>2013-09-04T14:51:11Z</time>
      </trkpt>
      <trkpt lat="43.068133" lon="-4.571533">
        <ele>2971.0</ele>
        <time>2013-09-04T14:51:12Z</time>
      </trkpt>
      <trkpt lat="43.068233" lon="-4.571633">
        <ele>2968.0</ele>
        <time>2013-09-04T14:51:13Z</time>
      </trkpt>
      <trkpt lat="43.068350" lon="-4.571733">
        <ele>2966.0</ele>
        <time>2013-09-04T14:51:14Z</time>
      </trkpt>
      <trkpt lat="43.068467" lon="-4.571850">
        <ele>2965.0</ele>
        <time>2013-09-04T14:51:15Z</time>
      </trkpt>
      <trkpt lat="43.068567" lon="-4.571950">
        <ele>2964.0</ele>
        <time>2013-09-04T14:51:16Z</time>
      </trkpt>
      <trkpt lat="43.068667" lon="-4.572050">
        <ele>2964.0</ele>
        <time>2013-09-04T14:51:17Z</time>
      </trkpt>
      <trkpt lat="43.068767" lon="-4.572133">
        <ele>2964.0</ele>
        <time>2013-09-04T14:51:18Z</time>
      </trkpt>
      <trkpt lat="43.068867" lon="-4.572217">
        <ele>2963.0</ele>
        <time>2013-09-04T14:51:19Z</time>
      </trkpt>
      <trkpt lat="43.068950" lon="-4.572317">
        <ele>2962.0</ele>
        <time>2013-09-04T14:51:20Z</time>
      </trkpt>
      <trkpt lat="43.069067" lon="-4.572400">
        <ele>2960.0</ele>
        <time>2013-09-04T14:51:21Z</time>
      </trkpt>
      <trkpt lat="43.069167" lon="-4.572483">
        <ele>2958.0</ele>
        <time>2013-09-04T14:51:22Z</time>
      </trkpt>
      <trkpt lat="43.069283" lon="-4.572583">
        <ele>2956.0</ele>
        <time>2013-09-04T14:51:23Z</time>
      </trkpt>
      <trkpt lat="43.069400" lon="-4.572667">
        <ele>2956.0</ele>
        <time>2013-09-04T14:51:24Z</time>
      </trkpt>
      <trkpt lat="43.069500" lon="-4.572750">
        <ele>2955.0</ele>
        <time>2013-09-04T14:51:25Z</time>
      </trkpt>
      <trkpt lat="43.069600" lon="-4.572817">
        <ele>2955.0</ele>
        <time>2013-09-04T14:51:26Z</time>
      </trkpt>
      <trkpt lat="43.069717" lon="-4.572883">
        <ele>2954.0</ele>
        <time>2013-09-04T14:51:27Z</time>
      </trkpt>
      <trkpt lat="43.069833" lon="-4.572950">
        <ele>2953.0</ele>
        <time>2013-09-04T14:51:28Z</time>
      </trkpt>
      <trkpt lat="43.069950" lon="-4.573000">
        <ele>2951.0</ele>
        <time>2013-09-04T14:51:29Z</time>
      </trkpt>
      <trkpt lat="43.070067" lon="-4.573050">
        <ele>2950.0</ele>
        <time>2013-09-04T14:51:30Z</time>
      </trkpt>
      <trkpt lat="43.070183" lon="-4.573083">
        <ele>2949.0</ele>
        <time>2013-09-04T14:51:31Z</time>
      </trkpt>
      <trkpt lat="43.070300" lon="-4.573117">
        <ele>2948.0</ele>
        <time>2013-09-04T14:51:32Z</time>
      </trkpt>
      <trkpt lat="43.070417" lon="-4.573167">
        <ele>2946.0</ele>
        <time>2013-09-04T14:51:33Z</time>
      </trkpt>
      <trkpt lat="43.070533" lon="-4.573183">
        <ele>2944.0</ele>
        <time>2013-09-04T14:51:34Z</time>
      </trkpt>
      <trkpt lat="43.070650" lon="-4.573233">
        <ele>2942.0</ele>
        <time>2013-09-04T14:51:35Z</time>
      </trkpt>
      <trkpt lat="43.070767" lon="-4.573283">
        <ele>2940.0</ele>
        <time>2013-09-04T14:51:36Z</time>
      </trkpt>
      <trkpt lat="43.070867" lon="-4.573350">
        <ele>2937.0</ele>
        <time>2013-09-04T14:51:37Z</time>
      </trkpt>
      <trkpt lat="43.070967" lon="-4.573433">
        <ele>2935.0</ele>
        <time>2013-09-04T14:51:38Z</time>
      </trkpt>
      <trkpt lat="43.071067" lon="-4.573517">
        <ele>2933.0</ele>
        <time>2013-09-04T14:51:39Z</time>
      </trkpt>
      <trkpt lat="43.071167" lon="-4.573583">
        <ele>2931.0</ele>
        <time>2013-09-04T14:51:40Z</time>
      </trkpt>
      <trkpt lat="43.071267" lon="-4.573667">
        <ele>2929.0</ele>
        <time>2013-09-04T14:51:41Z</time>
      </trkpt>
      <trkpt lat="43.071383" lon="-4.573750">
        <ele>2926.0</ele>
        <time>2013-09-04T14:51:42Z</time>
      </trkpt>
      <trkpt lat="43.071483" lon="-4.573833">
        <ele>2924.0</ele>
        <time>2013-09-04T14:51:43Z</time>
      </trkpt>
      <trkpt lat="43.071600" lon="-4.573917">
        <ele>2922.0</ele>
        <time>2013-09-04T14:51:44Z</time>
      </trkpt>
      <trkpt lat="43.071700" lon="-4.574033">
        <ele>2920.0</ele>
        <time>2013-09-04T14:51:45Z</time>
      </trkpt>
      <trkpt lat="43.071800" lon="-4.574133">
        <ele>2919.0</ele>
        <time>2013-09-04T14:51:46Z</time>
      </trkpt>
      <trkpt lat="43.071883" lon="-4.574250">
        <ele>2917.0</ele>
        <time>2013-09-04T14:51:47Z</time>
      </trkpt>
      <trkpt lat="43.071967" lon="-4.574350">
        <ele>2915.0</ele>
        <time>2013-09-04T14:51:48Z</time>
      </trkpt>
      <trkpt lat="43.072050" lon="-4.574483">
        <ele>2913.0</ele>
        <time>2013-09-04T14:51:49Z</time>
      </trkpt>
      <trkpt lat="43.072117" lon="-4.574600">
        <ele>2910.0</ele>
        <time>2013-09-04T14:51:50Z</time>
      </trkpt>
      <trkpt lat="43.072200" lon="-4.574717">
        <ele>2908.0</ele>
        <time>2013-09-04T14:51:51Z</time>
      </trkpt>
      <trkpt lat="43.072267" lon="-4.574833">
        <ele>2905.0</ele>
        <time>2013-09-04T14:51:52Z</time>
      </trkpt>
      <trkpt lat="43.072333" lon="-4.574967">
        <ele>2903.0</ele>
        <time>2013-09-04T14:51:53Z</time>
      </trkpt>
      <trkpt lat="43.072400" lon="-4.575100">
        <ele>2901.0</ele>
        <time>2013-09-04T14:51:54Z</time>
      </trkpt>
      <trkpt lat="43.072450" lon="-4.575250">
        <ele>2898.0</ele>
        <time>2013-09-04T14:51:55Z</time>
      </trkpt>
      <trkpt lat="43.072483" lon="-4.575400">
        <ele>2896.0</ele>
        <time>2013-09-04T14:51:56Z</time>
      </trkpt>
      <trkpt lat="43.072533" lon="-4.575550">
        <ele>2894.0</ele>
        <time>2013-09-04T14:51:57Z</time>
      </trkpt>
      <trkpt lat="43.072583" lon="-4.575717">
        <ele>2892.0</ele>
        <time>2013-09-04T14:51:58Z</time>
      </trkpt>
      <trkpt lat="43.072650" lon="-4.575867">
        <ele>2889.0</ele>
        <time>2013-09-04T14:51:59Z</time>
      </trkpt>
      <trkpt lat="43.072700" lon="-4.576050">
        <ele>2887.0</ele>
        <time>2013-09-04T14:52:00Z</time>
      </trkpt>
      <trkpt lat="43.072767" lon="-4.576217">
        <ele>2885.0</ele>
        <time>2013-09-04T14:52:01Z</time>
      </trkpt>
      <trkpt lat="43.072817" lon="-4.576400">
        <ele>2884.0</ele>
        <time>2013-09-04T14:52:02Z</time>
      </trkpt>
      <trkpt lat="43.072883" lon="-4.576550">
        <ele>2884.0</ele>
        <time>2013-09-04T14:52:03Z</time>
      </trkpt>
      <trkpt lat="43.072933" lon="-4.576717">
        <ele>2883.0</ele>
        <time>2013-09-04T14:52:04Z</time>
      </trkpt>
      <trkpt lat="43.073000" lon="-4.576883">
        <ele>2882.0</ele>
        <time>2013-09-04T14:52:05Z</time>
      </trkpt>
      <trkpt lat="43.073050" lon="-4.577033">
        <ele>2880.0</ele>
        <time>2013-09-04T14:52:06Z</time>
      </trkpt>
      <trkpt lat="43.073117" lon="-4.577200">
        <ele>2878.0</ele>
        <time>2013-09-04T14:52:07Z</time>
      </trkpt>
      <trkpt lat="43.073183" lon="-4.577367">
        <ele>2876.0</ele>
        <time>2013-09-04T14:52:08Z</time>
      </trkpt>
      <trkpt lat="43.073233" lon="-4.577533">
        <ele>2874.0</ele>
        <time>2013-09-04T14:52:09Z</time>
      </trkpt>
      <trkpt lat="43.073300" lon="-4.577700">
        <ele>2873.0</ele>
        <time>2013-09-04T14:52:10Z</time>
      </trkpt>
      <trkpt lat="43.073367" lon="-4.577867">
        <ele>2871.0</ele>
        <time>2013-09-04T14:52:11Z</time>
      </trkpt>
      <trkpt lat="43.073433" lon="-4.578017">
        <ele>2869.0</ele>
        <time>2013-09-04T14:52:12Z</time>
      </trkpt>
      <trkpt lat="43.073500" lon="-4.578183">
        <ele>2867.0</ele>
        <time>2013-09-04T14:52:13Z</time>
      </trkpt>
      <trkpt lat="43.073550" lon="-4.578350">
        <ele>2865.0</ele>
        <time>2013-09-04T14:52:14Z</time>
      </trkpt>
      <trkpt lat="43.073600" lon="-4.578517">
        <ele>2863.0</ele>
        <time>2013-09-04T14:52:15Z</time>
      </trkpt>
      <trkpt lat="43.073667" lon="-4.578683">
        <ele>2861.0</ele>
        <time>2013-09-04T14:52:16Z</time>
      </trkpt>
      <trkpt lat="43.073733" lon="-4.578850">
        <ele>2859.0</ele>
        <time>2013-09-04T14:52:17Z</time>
      </trkpt>
      <trkpt lat="43.073800" lon="-4.579000">
        <ele>2857.0</ele>
        <time>2013-09-04T14:52:18Z</time>
      </trkpt>
      <trkpt lat="43.073850" lon="-4.579167">
        <ele>2855.0</ele>
        <time>2013-09-04T14:52:19Z</time>
      </trkpt>
      <trkpt lat="43.073900" lon="-4.579333">
        <ele>2853.0</ele>
        <time>2013-09-04T14:52:20Z</time>
      </trkpt>
      <trkpt lat="43.073967" lon="-4.579500">
        <ele>2851.0</ele>
        <time>2013-09-04T14:52:21Z</time>
      </trkpt>
      <trkpt lat="43.074017" lon="-4.579683">
        <ele>2849.0</ele>
        <time>2013-09-04T14:52:22Z</time>
      </trkpt>
      <trkpt lat="43.074083" lon="-4.579850">
        <ele>2847.0</ele>
        <time>2013-09-04T14:52:23Z</time>
      </trkpt>
      <trkpt lat="43.074150" lon="-4.580017">
        <ele>2845.0</ele>
        <time>2013-09-04T14:52:24Z</time>
      </trkpt>
      <trkpt lat="43.074217" lon="-4.580183">
        <ele>2844.0</ele>
        <time>2013-09-04T14:52:25Z</time>
      </trkpt>
      <trkpt lat="43.074267" lon="-4.580350">
        <ele>2842.0</ele>
        <time>2013-09-04T14:52:26Z</time>
      </trkpt>
      <trkpt lat="43.074333" lon="-4.580500">
        <ele>2841.0</ele>
        <time>2013-09-04T14:52:27Z</time>
      </trkpt>
      <trkpt lat="43.074383" lon="-4.580667">
        <ele>2840.0</ele>
        <time>2013-09-04T14:52:28Z</time>
      </trkpt>
      <trkpt lat="43.074450" lon="-4.580833">
        <ele>2838.0</ele>
        <time>2013-09-04T14:52:29Z</time>
      </trkpt>
      <trkpt lat="43.074500" lon="-4.581000">
        <ele>2837.0</ele>
        <time>2013-09-04T14:52:30Z</time>
      </trkpt>
      <trkpt lat="43.074567" lon="-4.581167">
        <ele>2835.0</ele>
        <time>2013-09-04T14:52:31Z</time>
      </trkpt>
      <trkpt lat="43.074617" lon="-4.581333">
        <ele>2834.0</ele>
        <time>2013-09-04T14:52:32Z</time>
      </trkpt>
      <trkpt lat="43.074667" lon="-4.581483">
        <ele>2832.0</ele>
        <time>2013-09-04T14:52:33Z</time>
      </trkpt>
      <trkpt lat="43.074733" lon="-4.581650">
        <ele>2830.0</ele>
        <time>2013-09-04T14:52:34Z</time>
      </trkpt>
      <trkpt lat="43.074783" lon="-4.581817">
        <ele>2827.0</ele>
        <time>2013-09-04T14:52:35Z</time>
      </trkpt>
      <trkpt lat="43.074850" lon="-4.581983">
        <ele>2825.0</ele>
        <time>2013-09-04T14:52:36Z</time>
      </trkpt>
      <trkpt lat="43.074900" lon="-4.582167">
        <ele>2823.0</ele>
        <time>2013-09-04T14:52:37Z</time>
      </trkpt>
      <trkpt lat="43.074950" lon="-4.582333">
        <ele>2821.0</ele>
        <time>2013-09-04T14:52:38Z</time>
      </trkpt>
      <trkpt lat="43.075000" lon="-4.582517">
        <ele>2820.0</ele>
        <time>2013-09-04T14:52:39Z</time>
      </trkpt>
      <trkpt lat="43.075033" lon="-4.582683">
        <ele>2818.0</ele>
        <time>2013-09-04T14:52:40Z</time>
      </trkpt>
      <trkpt lat="43.075083" lon="-4.582867">
        <ele>2816.0</ele>
        <time>2013-09-04T14:52:41Z</time>
      </trkpt>
      <trkpt lat="43.075133" lon="-4.583033">
        <ele>2814.0</ele>
        <time>2013-09-04T14:52:42Z</time>
      </trkpt>
      <trkpt lat="43.075200" lon="-4.583217">
        <ele>2812.0</ele>
        <time>2013-09-04T14:52:43Z</time>
      </trkpt>
      <trkpt lat="43.075250" lon="-4.583383">
        <ele>2811.0</ele>
        <time>2013-09-04T14:52:44Z</time>
      </trkpt>
      <trkpt lat="43.075300" lon="-4.583550">
        <ele>2809.0</ele>
        <time>2013-09-04T14:52:45Z</time>
      </trkpt>
      <trkpt lat="43.075350" lon="-4.583733">
        <ele>2808.0</ele>
        <time>2013-09-04T14:52:46Z</time>
      </trkpt>
      <trkpt lat="43.075400" lon="-4.583900">
        <ele>2807.0</ele>
        <time>2013-09-04T14:52:47Z</time>
      </trkpt>
      <trkpt lat="43.075467" lon="-4.584050">
        <ele>2805.0</ele>
        <time>2013-09-04T14:52:48Z</time>
      </trkpt>
      <trkpt lat="43.075533" lon="-4.584217">
        <ele>2804.0</ele>
        <time>2013-09-04T14:52:49Z</time>
      </trkpt>
      <trkpt lat="43.075583" lon="-4.584383">
        <ele>2802.0</ele>
        <time>2013-09-04T14:52:50Z</time>
      </trkpt>
      <trkpt lat="43.075650" lon="-4.584550">
        <ele>2800.0</ele>
        <time>2013-09-04T14:52:51Z</time>
      </trkpt>
      <trkpt lat="43.075700" lon="-4.584717">
        <ele>2797.0</ele>
        <time>2013-09-04T14:52:52Z</time>
      </trkpt>
      <trkpt lat="43.075750" lon="-4.584900">
        <ele>2796.0</ele>
        <time>2013-09-04T14:52:53Z</time>
      </trkpt>
      <trkpt lat="43.075800" lon="-4.585067">
        <ele>2794.0</ele>
        <time>2013-09-04T14:52:54Z</time>
      </trkpt>
      <trkpt lat="43.075850" lon="-4.585250">
        <ele>2793.0</ele>
        <time>2013-09-04T14:52:55Z</time>
      </trkpt>
      <trkpt lat="43.075883" lon="-4.585417">
        <ele>2792.0</ele>
        <time>2013-09-04T14:52:56Z</time>
      </trkpt>
      <trkpt lat="43.075933" lon="-4.585600">
        <ele>2791.0</ele>
        <time>2013-09-04T14:52:57Z</time>
      </trkpt>
      <trkpt lat="43.075983" lon="-4.585767">
        <ele>2789.0</ele>
        <time>2013-09-04T14:52:58Z</time>
      </trkpt>
      <trkpt lat="43.076033" lon="-4.585950">
        <ele>2787.0</ele>
        <time>2013-09-04T14:52:59Z</time>
      </trkpt>
      <trkpt lat="43.076067" lon="-4.586133">
        <ele>2785.0</ele>
        <time>2013-09-04T14:53:00Z</time>
      </trkpt>
      <trkpt lat="43.076117" lon="-4.586317">
        <ele>2784.0</ele>
        <time>2013-09-04T14:53:01Z</time>
      </trkpt>
      <trkpt lat="43.076167" lon="-4.586500">
        <ele>2783.0</ele>
        <time>2013-09-04T14:53:02Z</time>
      </trkpt>
      <trkpt lat="43.076233" lon="-4.586667">
        <ele>2783.0</ele>
        <time>2013-09-04T14:53:03Z</time>
      </trkpt>
      <trkpt lat="43.076300" lon="-4.586833">
        <ele>2782.0</ele>
        <time>2013-09-04T14:53:04Z</time>
      </trkpt>
      <trkpt lat="43.076367" lon="-4.586983">
        <ele>2781.0</ele>
        <time>2013-09-04T14:53:05Z</time>
      </trkpt>
      <trkpt lat="43.076433" lon="-4.587150">
        <ele>2779.0</ele>
        <time>2013-09-04T14:53:06Z</time>
      </trkpt>
      <trkpt lat="43.076500" lon="-4.587317">
        <ele>2778.0</ele>
        <time>2013-09-04T14:53:07Z</time>
      </trkpt>
      <trkpt lat="43.076583" lon="-4.587483">
        <ele>2776.0</ele>
        <time>2013-09-04T14:53:08Z</time>
      </trkpt>
      <trkpt lat="43.076667" lon="-4.587650">
        <ele>2775.0</ele>
        <time>2013-09-04T14:53:09Z</time>
      </trkpt>
      <trkpt lat="43.076750" lon="-4.587817">
        <ele>2774.0</ele>
        <time>2013-09-04T14:53:10Z</time>
      </trkpt>
      <trkpt lat="43.076817" lon="-4.587983">
        <ele>2772.0</ele>
        <time>2013-09-04T14:53:11Z</time>
      </trkpt>
      <trkpt lat="43.076900" lon="-4.588167">
        <ele>2770.0</ele>
        <time>2013-09-04T14:53:12Z</time>
      </trkpt>
      <trkpt lat="43.076967" lon="-4.588333">
        <ele>2768.0</ele>
        <time>2013-09-04T14:53:13Z</time>
      </trkpt>
      <trkpt lat="43.077033" lon="-4.588517">
        <ele>2766.0</ele>
        <time>2013-09-04T14:53:14Z</time>
      </trkpt>
      <trkpt lat="43.077117" lon="-4.588683">
        <ele>2764.0</ele>
        <time>2013-09-04T14:53:15Z</time>
      </trkpt>
      <trkpt lat="43.077183" lon="-4.588867">
        <ele>2763.0</ele>
        <time>2013-09-04T14:53:16Z</time>
      </trkpt>
      <trkpt lat="43.077250" lon="-4.589050">
        <ele>2762.0</ele>
        <time>2013-09-04T14:53:17Z</time>
      </trkpt>
      <trkpt lat="43.077333" lon="-4.589233">
        <ele>2761.0</ele>
        <time>2013-09-04T14:53:18Z</time>
      </trkpt>
      <trkpt lat="43.077400" lon="-4.589400">
        <ele>2760.0</ele>
        <time>2013-09-04T14:53:19Z</time>
      </trkpt>
      <trkpt lat="43.077467" lon="-4.589583">
        <ele>2760.0</ele>
        <time>2013-09-04T14:53:20Z</time>
      </trkpt>
      <trkpt lat="43.077533" lon="-4.589750">
        <ele>2759.0</ele>
        <time>2013-09-04T14:53:21Z</time>
      </trkpt>
      <trkpt lat="43.077600" lon="-4.589933">
        <ele>2758.0</ele>
        <time>2013-09-04T14:53:22Z</time>
      </trkpt>
      <trkpt lat="43.077650" lon="-4.590117">
        <ele>2756.0</ele>
        <time>2013-09-04T14:53:23Z</time>
      </trkpt>
      <trkpt lat="43.077717" lon="-4.590300">
        <ele>2755.0</ele>
        <time>2013-09-04T14:53:24Z</time>
      </trkpt>
      <trkpt lat="43.077767" lon="-4.590483">
        <ele>2754.0</ele>
        <time>2013-09-04T14:53:25Z</time>
      </trkpt>
      <trkpt lat="43.077800" lon="-4.590667">
        <ele>2753.0</ele>
        <time>2013-09-04T14:53:26Z</time>
      </trkpt>
      <trkpt lat="43.077850" lon="-4.590850">
        <ele>2752.0</ele>
        <time>2013-09-04T14:53:27Z</time>
      </trkpt>
      <trkpt lat="43.077883" lon="-4.591033">
        <ele>2750.0</ele>
        <time>2013-09-04T14:53:28Z</time>
      </trkpt>
      <trkpt lat="43.077933" lon="-4.591217">
        <ele>2749.0</ele>
        <time>2013-09-04T14:53:29Z</time>
      </trkpt>
      <trkpt lat="43.077967" lon="-4.591400">
        <ele>2747.0</ele>
        <time>2013-09-04T14:53:30Z</time>
      </trkpt>
      <trkpt lat="43.078017" lon="-4.591583">
        <ele>2745.0</ele>
        <time>2013-09-04T14:53:31Z</time>
      </trkpt>
      <trkpt lat="43.078050" lon="-4.591750">
        <ele>2744.0</ele>
        <time>2013-09-04T14:53:32Z</time>
      </trkpt>
      <trkpt lat="43.078083" lon="-4.591933">
        <ele>2742.0</ele>
        <time>2013-09-04T14:53:33Z</time>
      </trkpt>
      <trkpt lat="43.078117" lon="-4.592117">
        <ele>2740.0</ele>
        <time>2013-09-04T14:53:34Z</time>
      </trkpt>
      <trkpt lat="43.078133" lon="-4.592300">
        <ele>2737.0</ele>
        <time>2013-09-04T14:53:35Z</time>
      </trkpt>
      <trkpt lat="43.078167" lon="-4.592500">
        <ele>2735.0</ele>
        <time>2013-09-04T14:53:36Z</time>
      </trkpt>
      <trkpt lat="43.078183" lon="-4.592700">
        <ele>2734.0</ele>
        <time>2013-09-04T14:53:37Z</time>
      </trkpt>
      <trkpt lat="43.078217" lon="-4.592883">
        <ele>2733.0</ele>
        <time>2013-09-04T14:53:38Z</time>
      </trkpt>
      <trkpt lat="43.078250" lon="-4.593067">
        <ele>2732.0</ele>
        <time>2013-09-04T14:53:39Z</time>
      </trkpt>
      <trkpt lat="43.078283" lon="-4.593250">
        <ele>2730.0</ele>
        <time>2013-09-04T14:53:40Z</time>
      </trkpt>
      <trkpt lat="43.078317" lon="-4.593433">
        <ele>2728.0</ele>
        <time>2013-09-04T14:53:41Z</time>
      </trkpt>
      <trkpt lat="43.078367" lon="-4.593600">
        <ele>2726.0</ele>
        <time>2013-09-04T14:53:42Z</time>
      </trkpt>
      <trkpt lat="43.078417" lon="-4.593800">
        <ele>2724.0</ele>
        <time>2013-09-04T14:53:43Z</time>
      </trkpt>
      <trkpt lat="43.078483" lon="-4.593967">
        <ele>2723.0</ele>
        <time>2013-09-04T14:53:44Z</time>
      </trkpt>
      <trkpt lat="43.078567" lon="-4.594117">
        <ele>2723.0</ele>
        <time>2013-09-04T14:53:45Z</time>
      </trkpt>
      <trkpt lat="43.078650" lon="-4.594217">
        <ele>2723.0</ele>
        <time>2013-09-04T14:53:46Z</time>
      </trkpt>
      <trkpt lat="43.078733" lon="-4.594317">
        <ele>2723.0</ele>
        <time>2013-09-04T14:53:47Z</time>
      </trkpt>
      <trkpt lat="43.078833" lon="-4.594417">
        <ele>2722.0</ele>
        <time>2013-09-04T14:53:48Z</time>
      </trkpt>
      <trkpt lat="43.078917" lon="-4.594533">
        <ele>2720.0</ele>
        <time>2013-09-04T14:53:49Z</time>
      </trkpt>
      <trkpt lat="43.079000" lon="-4.594667">
        <ele>2718.0</ele>
        <time>2013-09-04T14:53:50Z</time>
      </trkpt>
      <trkpt lat="43.079083" lon="-4.594833">
        <ele>2716.0</ele>
        <time>2013-09-04T14:53:51Z</time>
      </trkpt>
      <trkpt lat="43.079150" lon="-4.595000">
        <ele>2715.0</ele>
        <time>2013-09-04T14:53:52Z</time>
      </trkpt>
      <trkpt lat="43.079217" lon="-4.595150">
        <ele>2715.0</ele>
        <time>2013-09-04T14:53:53Z</time>
      </trkpt>
      <trkpt lat="43.079283" lon="-4.595300">
        <ele>2714.0</ele>
        <time>2013-09-04T14:53:54Z</time>
      </trkpt>
      <trkpt lat="43.079367" lon="-4.595450">
        <ele>2713.0</ele>
        <time>2013-09-04T14:53:55Z</time>
      </trkpt>
      <trkpt lat="43.079433" lon="-4.595600">
        <ele>2711.0</ele>
        <time>2013-09-04T14:53:56Z</time>
      </trkpt>
      <trkpt lat="43.079517" lon="-4.595767">
        <ele>2709.0</ele>
        <time>2013-09-04T14:53:57Z</time>
      </trkpt>
      <trkpt lat="43.079600" lon="-4.595917">
        <ele>2709.0</ele>
        <time>2013-09-04T14:53:58Z</time>
      </trkpt>
      <trkpt lat="43.079683" lon="-4.596033">
        <ele>2709.0</ele>
        <time>2013-09-04T14:53:59Z</time>
      </trkpt>
      <trkpt lat="43.079767" lon="-4.596133">
        <ele>2709.0</ele>
        <time>2013-09-04T14:54:00Z</time>
      </trkpt>
      <trkpt lat="43.079850" lon="-4.596217">
        <ele>2708.0</ele>
        <time>2013-09-04T14:54:01Z</time>
      </trkpt>
      <trkpt lat="43.079933" lon="-4.596317">
        <ele>2706.0</ele>
        <time>2013-09-04T14:54:02Z</time>
      </trkpt>
      <trkpt lat="43.080017" lon="-4.596433">
        <ele>2704.0</ele>
        <time>2013-09-04T14:54:03Z</time>
      </trkpt>
      <trkpt lat="43.080100" lon="-4.596583">
        <ele>2702.0</ele>
        <time>2013-09-04T14:54:04Z</time>
      </trkpt>
      <trkpt lat="43.080167" lon="-4.596717">
        <ele>2701.0</ele>
        <time>2013-09-04T14:54:05Z</time>
      </trkpt>
      <trkpt lat="43.080233" lon="-4.596833">
        <ele>2701.0</ele>
        <time>2013-09-04T14:54:06Z</time>
      </trkpt>
      <trkpt lat="43.080300" lon="-4.596967">
        <ele>2700.0</ele>
        <time>2013-09-04T14:54:07Z</time>
      </trkpt>
      <trkpt lat="43.080367" lon="-4.597083">
        <ele>2698.0</ele>
        <time>2013-09-04T14:54:08Z</time>
      </trkpt>
      <trkpt lat="43.080433" lon="-4.597200">
        <ele>2696.0</ele>
        <time>2013-09-04T14:54:09Z</time>
      </trkpt>
      <trkpt lat="43.080517" lon="-4.597317">
        <ele>2694.0</ele>
        <time>2013-09-04T14:54:10Z</time>
      </trkpt>
      <trkpt lat="43.080583" lon="-4.597450">
        <ele>2693.0</ele>
        <time>2013-09-04T14:54:11Z</time>
      </trkpt>
      <trkpt lat="43.080633" lon="-4.597583">
        <ele>2691.0</ele>
        <time>2013-09-04T14:54:12Z</time>
      </trkpt>
      <trkpt lat="43.080683" lon="-4.597717">
        <ele>2690.0</ele>
        <time>2013-09-04T14:54:13Z</time>
      </trkpt>
      <trkpt lat="43.080733" lon="-4.597850">
        <ele>2687.0</ele>
        <time>2013-09-04T14:54:14Z</time>
      </trkpt>
      <trkpt lat="43.080783" lon="-4.598000">
        <ele>2683.0</ele>
        <time>2013-09-04T14:54:15Z</time>
      </trkpt>
      <trkpt lat="43.080833" lon="-4.598167">
        <ele>2680.0</ele>
        <time>2013-09-04T14:54:16Z</time>
      </trkpt>
      <trkpt lat="43.080883" lon="-4.598350">
        <ele>2679.0</ele>
        <time>2013-09-04T14:54:17Z</time>
      </trkpt>
      <trkpt lat="43.080933" lon="-4.598500">
        <ele>2679.0</ele>
        <time>2013-09-04T14:54:18Z</time>
      </trkpt>
      <trkpt lat="43.080967" lon="-4.598650">
        <ele>2678.0</ele>
        <time>2013-09-04T14:54:19Z</time>
      </trkpt>
      <trkpt lat="43.081017" lon="-4.598783">
        <ele>2676.0</ele>
        <time>2013-09-04T14:54:20Z</time>
      </trkpt>
      <trkpt lat="43.081050" lon="-4.598933">
        <ele>2673.0</ele>
        <time>2013-09-04T14:54:21Z</time>
      </trkpt>
      <trkpt lat="43.081100" lon="-4.599100">
        <ele>2669.0</ele>
        <time>2013-09-04T14:54:22Z</time>
      </trkpt>
      <trkpt lat="43.081133" lon="-4.599267">
        <ele>2666.0</ele>
        <time>2013-09-04T14:54:23Z</time>
      </trkpt>
      <trkpt lat="43.081183" lon="-4.599450">
        <ele>2665.0</ele>
        <time>2013-09-04T14:54:24Z</time>
      </trkpt>
      <trkpt lat="43.081200" lon="-4.599600">
        <ele>2664.0</ele>
        <time>2013-09-04T14:54:25Z</time>
      </trkpt>
      <trkpt lat="43.081233" lon="-4.599750">
        <ele>2663.0</ele>
        <time>2013-09-04T14:54:26Z</time>
      </trkpt>
      <trkpt lat="43.081250" lon="-4.599900">
        <ele>2661.0</ele>
        <time>2013-09-04T14:54:27Z</time>
      </trkpt>
      <trkpt lat="43.081267" lon="-4.600050">
        <ele>2657.0</ele>
        <time>2013-09-04T14:54:28Z</time>
      </trkpt>
      <trkpt lat="43.081300" lon="-4.600200">
        <ele>2654.0</ele>
        <time>2013-09-04T14:54:29Z</time>
      </trkpt>
      <trkpt lat="43.081317" lon="-4.600367">
        <ele>2652.0</ele>
        <time>2013-09-04T14:54:30Z</time>
      </trkpt>
      <trkpt lat="43.081333" lon="-4.600533">
        <ele>2650.0</ele>
        <time>2013-09-04T14:54:31Z</time>
      </trkpt>
      <trkpt lat="43.081350" lon="-4.600667">
        <ele>2649.0</ele>
        <time>2013-09-04T14:54:32Z</time>
      </trkpt>
      <trkpt lat="43.081367" lon="-4.600817">
        <ele>2647.0</ele>
        <time>2013-09-04T14:54:33Z</time>
      </trkpt>
      <trkpt lat="43.081383" lon="-4.600967">
        <ele>2644.0</ele>
        <time>2013-09-04T14:54:34Z</time>
      </trkpt>
      <trkpt lat="43.081400" lon="-4.601117">
        <ele>2642.0</ele>
        <time>2013-09-04T14:54:35Z</time>
      </trkpt>
      <trkpt lat="43.081433" lon="-4.601283">
        <ele>2639.0</ele>
        <time>2013-09-04T14:54:36Z</time>
      </trkpt>
      <trkpt lat="43.081450" lon="-4.601433">
        <ele>2638.0</ele>
        <time>2013-09-04T14:54:37Z</time>
      </trkpt>
      <trkpt lat="43.081467" lon="-4.601600">
        <ele>2637.0</ele>
        <time>2013-09-04T14:54:38Z</time>
      </trkpt>
      <trkpt lat="43.081483" lon="-4.601767">
        <ele>2635.0</ele>
        <time>2013-09-04T14:54:39Z</time>
      </trkpt>
      <trkpt lat="43.081500" lon="-4.601917">
        <ele>2634.0</ele>
        <time>2013-09-04T14:54:40Z</time>
      </trkpt>
      <trkpt lat="43.081517" lon="-4.602083">
        <ele>2632.0</ele>
        <time>2013-09-04T14:54:41Z</time>
      </trkpt>
      <trkpt lat="43.081550" lon="-4.602233">
        <ele>2631.0</ele>
        <time>2013-09-04T14:54:42Z</time>
      </trkpt>
      <trkpt lat="43.081583" lon="-4.602400">
        <ele>2629.0</ele>
        <time>2013-09-04T14:54:43Z</time>
      </trkpt>
      <trkpt lat="43.081600" lon="-4.602550">
        <ele>2627.0</ele>
        <time>2013-09-04T14:54:44Z</time>
      </trkpt>
      <trkpt lat="43.081617" lon="-4.602717">
        <ele>2626.0</ele>
        <time>2013-09-04T14:54:45Z</time>
      </trkpt>
      <trkpt lat="43.081650" lon="-4.602883">
        <ele>2625.0</ele>
        <time>2013-09-04T14:54:46Z</time>
      </trkpt>
      <trkpt lat="43.081683" lon="-4.603033">
        <ele>2624.0</ele>
        <time>2013-09-04T14:54:47Z</time>
      </trkpt>
      <trkpt lat="43.081700" lon="-4.603183">
        <ele>2623.0</ele>
        <time>2013-09-04T14:54:48Z</time>
      </trkpt>
      <trkpt lat="43.081733" lon="-4.603350">
        <ele>2622.0</ele>
        <time>2013-09-04T14:54:49Z</time>
      </trkpt>
      <trkpt lat="43.081750" lon="-4.603517">
        <ele>2620.0</ele>
        <time>2013-09-04T14:54:50Z</time>
      </trkpt>
      <trkpt lat="43.081767" lon="-4.603667">
        <ele>2619.0</ele>
        <time>2013-09-04T14:54:51Z</time>
      </trkpt>
      <trkpt lat="43.081800" lon="-4.603833">
        <ele>2618.0</ele>
        <time>2013-09-04T14:54:52Z</time>
      </trkpt>
      <trkpt lat="43.081817" lon="-4.603983">
        <ele>2616.0</ele>
        <time>2013-09-04T14:54:53Z</time>
      </trkpt>
      <trkpt lat="43.081850" lon="-4.604150">
        <ele>2614.0</ele>
        <time>2013-09-04T14:54:54Z</time>
      </trkpt>
      <trkpt lat="43.081883" lon="-4.604317">
        <ele>2611.0</ele>
        <time>2013-09-04T14:54:55Z</time>
      </trkpt>
      <trkpt lat="43.081933" lon="-4.604500">
        <ele>2608.0</ele>
        <time>2013-09-04T14:54:56Z</time>
      </trkpt>
      <trkpt lat="43.081983" lon="-4.604683">
        <ele>2606.0</ele>
        <time>2013-09-04T14:54:57Z</time>
      </trkpt>
      <trkpt lat="43.082033" lon="-4.604867">
        <ele>2605.0</ele>
        <time>2013-09-04T14:54:58Z</time>
      </trkpt>
      <trkpt lat="43.082067" lon="-4.605033">
        <ele>2605.0</ele>
        <time>2013-09-04T14:54:59Z</time>
      </trkpt>
      <trkpt lat="43.082083" lon="-4.605217">
        <ele>2605.0</ele>
        <time>2013-09-04T14:55:00Z</time>
      </trkpt>
      <trkpt lat="43.082117" lon="-4.605383">
        <ele>2603.0</ele>
        <time>2013-09-04T14:55:01Z</time>
      </trkpt>
      <trkpt lat="43.082150" lon="-4.605567">
        <ele>2601.0</ele>
        <time>2013-09-04T14:55:02Z</time>
      </trkpt>
      <trkpt lat="43.082183" lon="-4.605750">
        <ele>2598.0</ele>
        <time>2013-09-04T14:55:03Z</time>
      </trkpt>
      <trkpt lat="43.082200" lon="-4.605933">
        <ele>2596.0</ele>
        <time>2013-09-04T14:55:04Z</time>
      </trkpt>
      <trkpt lat="43.082233" lon="-4.606133">
        <ele>2593.0</ele>
        <time>2013-09-04T14:55:05Z</time>
      </trkpt>
      <trkpt lat="43.082267" lon="-4.606317">
        <ele>2591.0</ele>
        <time>2013-09-04T14:55:06Z</time>
      </trkpt>
      <trkpt lat="43.082283" lon="-4.606517">
        <ele>2588.0</ele>
        <time>2013-09-04T14:55:07Z</time>
      </trkpt>
      <trkpt lat="43.082300" lon="-4.606717">
        <ele>2586.0</ele>
        <time>2013-09-04T14:55:08Z</time>
      </trkpt>
      <trkpt lat="43.082333" lon="-4.606917">
        <ele>2585.0</ele>
        <time>2013-09-04T14:55:09Z</time>
      </trkpt>
      <trkpt lat="43.082383" lon="-4.607133">
        <ele>2584.0</ele>
        <time>2013-09-04T14:55:10Z</time>
      </trkpt>
      <trkpt lat="43.082417" lon="-4.607333">
        <ele>2584.0</ele>
        <time>2013-09-04T14:55:11Z</time>
      </trkpt>
      <trkpt lat="43.082433" lon="-4.607517">
        <ele>2584.0</ele>
        <time>2013-09-04T14:55:12Z</time>
      </trkpt>
      <trkpt lat="43.082450" lon="-4.607683">
        <ele>2583.0</ele>
        <time>2013-09-04T14:55:13Z</time>
      </trkpt>
      <trkpt lat="43.082467" lon="-4.607850">
        <ele>2581.0</ele>
        <time>2013-09-04T14:55:14Z</time>
      </trkpt>
      <trkpt lat="43.082500" lon="-4.608033">
        <ele>2577.0</ele>
        <time>2013-09-04T14:55:15Z</time>
      </trkpt>
      <trkpt lat="43.082533" lon="-4.608217">
        <ele>2573.0</ele>
        <time>2013-09-04T14:55:16Z</time>
      </trkpt>
      <trkpt lat="43.082583" lon="-4.608400">
        <ele>2569.0</ele>
        <time>2013-09-04T14:55:17Z</time>
      </trkpt>
      <trkpt lat="43.082633" lon="-4.608567">
        <ele>2566.0</ele>
        <time>2013-09-04T14:55:18Z</time>
      </trkpt>
      <trkpt lat="43.082667" lon="-4.608717">
        <ele>2564.0</ele>
        <time>2013-09-04T14:55:19Z</time>
      </trkpt>
      <trkpt lat="43.082717" lon="-4.608883">
        <ele>2561.0</ele>
        <time>2013-09-04T14:55:20Z</time>
      </trkpt>
      <trkpt lat="43.082750" lon="-4.609050">
        <ele>2557.0</ele>
        <time>2013-09-04T14:55:21Z</time>
      </trkpt>
      <trkpt lat="43.082783" lon="-4.609233">
        <ele>2555.0</ele>
        <time>2013-09-04T14:55:22Z</time>
      </trkpt>
      <trkpt lat="43.082817" lon="-4.609417">
        <ele>2553.0</ele>
        <time>2013-09-04T14:55:23Z</time>
      </trkpt>
      <trkpt lat="43.082850" lon="-4.609583">
        <ele>2551.0</ele>
        <time>2013-09-04T14:55:24Z</time>
      </trkpt>
      <trkpt lat="43.082867" lon="-4.609733">
        <ele>2550.0</ele>
        <time>2013-09-04T14:55:25Z</time>
      </trkpt>
      <trkpt lat="43.082883" lon="-4.609900">
        <ele>2548.0</ele>
        <time>2013-09-04T14:55:26Z</time>
      </trkpt>
      <trkpt lat="43.082900" lon="-4.610067">
        <ele>2546.0</ele>
        <time>2013-09-04T14:55:27Z</time>
      </trkpt>
      <trkpt lat="43.082917" lon="-4.610233">
        <ele>2544.0</ele>
        <time>2013-09-04T14:55:28Z</time>
      </trkpt>
      <trkpt lat="43.082933" lon="-4.610400">
        <ele>2542.0</ele>
        <time>2013-09-04T14:55:29Z</time>
      </trkpt>
      <trkpt lat="43.082950" lon="-4.610567">
        <ele>2541.0</ele>
        <time>2013-09-04T14:55:30Z</time>
      </trkpt>
      <trkpt lat="43.082983" lon="-4.610733">
        <ele>2540.0</ele>
        <time>2013-09-04T14:55:31Z</time>
      </trkpt>
      <trkpt lat="43.083000" lon="-4.610883">
        <ele>2540.0</ele>
        <time>2013-09-04T14:55:32Z</time>
      </trkpt>
      <trkpt lat="43.083033" lon="-4.611050">
        <ele>2539.0</ele>
        <time>2013-09-04T14:55:33Z</time>
      </trkpt>
      <trkpt lat="43.083067" lon="-4.611200">
        <ele>2538.0</ele>
        <time>2013-09-04T14:55:34Z</time>
      </trkpt>
      <trkpt lat="43.083083" lon="-4.611350">
        <ele>2538.0</ele>
        <time>2013-09-04T14:55:35Z</time>
      </trkpt>
      <trkpt lat="43.083117" lon="-4.611483">
        <ele>2537.0</ele>
        <time>2013-09-04T14:55:36Z</time>
      </trkpt>
      <trkpt lat="43.083133" lon="-4.611633">
        <ele>2536.0</ele>
        <time>2013-09-04T14:55:37Z</time>
      </trkpt>
      <trkpt lat="43.083150" lon="-4.611783">
        <ele>2535.0</ele>
        <time>2013-09-04T14:55:38Z</time>
      </trkpt>
      <trkpt lat="43.083183" lon="-4.611950">
        <ele>2534.0</ele>
        <time>2013-09-04T14:55:39Z</time>
      </trkpt>
      <trkpt lat="43.083217" lon="-4.612117">
        <ele>2533.0</ele>
        <time>2013-09-04T14:55:40Z</time>
      </trkpt>
      <trkpt lat="43.083250" lon="-4.612283">
        <ele>2534.0</ele>
        <time>2013-09-04T14:55:41Z</time>
      </trkpt>
      <trkpt lat="43.083283" lon="-4.612433">
        <ele>2534.0</ele>
        <time>2013-09-04T14:55:42Z</time>
      </trkpt>
      <trkpt lat="43.083300" lon="-4.612583">
        <ele>2534.0</ele>
        <time>2013-09-04T14:55:43Z</time>
      </trkpt>
      <trkpt lat="43.083333" lon="-4.612733">
        <ele>2533.0</ele>
        <time>2013-09-04T14:55:44Z</time>
      </trkpt>
      <trkpt lat="43.083383" lon="-4.612883">
        <ele>2532.0</ele>
        <time>2013-09-04T14:55:45Z</time>
      </trkpt>
      <trkpt lat="43.083433" lon="-4.613050">
        <ele>2531.0</ele>
        <time>2013-09-04T14:55:46Z</time>
      </trkpt>
      <trkpt lat="43.083483" lon="-4.613217">
        <ele>2530.0</ele>
        <time>2013-09-04T14:55:47Z</time>
      </trkpt>
      <trkpt lat="43.083533" lon="-4.613383">
        <ele>2530.0</ele>
        <time>2013-09-04T14:55:48Z</time>
      </trkpt>
      <trkpt lat="43.083567" lon="-4.613533">
        <ele>2530.0</ele>
        <time>2013-09-04T14:55:49Z</time>
      </trkpt>
      <trkpt lat="43.083600" lon="-4.613683">
        <ele>2530.0</ele>
        <time>2013-09-04T14:55:50Z</time>
      </trkpt>
      <trkpt lat="43.083633" lon="-4.613817">
        <ele>2530.0</ele>
        <time>2013-09-04T14:55:51Z</time>
      </trkpt>
      <trkpt lat="43.083667" lon="-4.613950">
        <ele>2528.0</ele>
        <time>2013-09-04T14:55:52Z</time>
      </trkpt>
      <trkpt lat="43.083700" lon="-4.614100">
        <ele>2526.0</ele>
        <time>2013-09-04T14:55:53Z</time>
      </trkpt>
      <trkpt lat="43.083733" lon="-4.614283">
        <ele>2524.0</ele>
        <time>2013-09-04T14:55:54Z</time>
      </trkpt>
      <trkpt lat="43.083783" lon="-4.614450">
        <ele>2522.0</ele>
        <time>2013-09-04T14:55:55Z</time>
      </trkpt>
      <trkpt lat="43.083833" lon="-4.614633">
        <ele>2521.0</ele>
        <time>2013-09-04T14:55:56Z</time>
      </trkpt>
      <trkpt lat="43.083900" lon="-4.614783">
        <ele>2522.0</ele>
        <time>2013-09-04T14:55:57Z</time>
      </trkpt>
      <trkpt lat="43.083950" lon="-4.614917">
        <ele>2522.0</ele>
        <time>2013-09-04T14:55:58Z</time>
      </trkpt>
      <trkpt lat="43.084000" lon="-4.615050">
        <ele>2521.0</ele>
        <time>2013-09-04T14:55:59Z</time>
      </trkpt>
      <trkpt lat="43.084033" lon="-4.615200">
        <ele>2519.0</ele>
        <time>2013-09-04T14:56:00Z</time>
      </trkpt>
      <trkpt lat="43.084083" lon="-4.615367">
        <ele>2517.0</ele>
        <time>2013-09-04T14:56:01Z</time>
      </trkpt>
      <trkpt lat="43.084117" lon="-4.615533">
        <ele>2515.0</ele>
        <time>2013-09-04T14:56:02Z</time>
      </trkpt>
      <trkpt lat="43.084150" lon="-4.615717">
        <ele>2513.0</ele>
        <time>2013-09-04T14:56:03Z</time>
      </trkpt>
      <trkpt lat="43.084183" lon="-4.615917">
        <ele>2512.0</ele>
        <time>2013-09-04T14:56:04Z</time>
      </trkpt>
      <trkpt lat="43.084217" lon="-4.616083">
        <ele>2512.0</ele>
        <time>2013-09-04T14:56:05Z</time>
      </trkpt>
      <trkpt lat="43.084250" lon="-4.616250">
        <ele>2512.0</ele>
        <time>2013-09-04T14:56:06Z</time>
      </trkpt>
      <trkpt lat="43.084283" lon="-4.616417">
        <ele>2512.0</ele>
        <time>2013-09-04T14:56:07Z</time>
      </trkpt>
      <trkpt lat="43.084317" lon="-4.616583">
        <ele>2511.0</ele>
        <time>2013-09-04T14:56:08Z</time>
      </trkpt>
      <trkpt lat="43.084350" lon="-4.616767">
        <ele>2509.0</ele>
        <time>2013-09-04T14:56:09Z</time>
      </trkpt>
      <trkpt lat="43.084383" lon="-4.616950">
        <ele>2507.0</ele>
        <time>2013-09-04T14:56:10Z</time>
      </trkpt>
      <trkpt lat="43.084417" lon="-4.617117">
        <ele>2506.0</ele>
        <time>2013-09-04T14:56:11Z</time>
      </trkpt>
      <trkpt lat="43.084450" lon="-4.617283">
        <ele>2504.0</ele>
        <time>2013-09-04T14:56:12Z</time>
      </trkpt>
      <trkpt lat="43.084500" lon="-4.617450">
        <ele>2503.0</ele>
        <time>2013-09-04T14:56:13Z</time>
      </trkpt>
      <trkpt lat="43.084550" lon="-4.617633">
        <ele>2502.0</ele>
        <time>2013-09-04T14:56:14Z</time>
      </trkpt>
      <trkpt lat="43.084583" lon="-4.617783">
        <ele>2501.0</ele>
        <time>2013-09-04T14:56:15Z</time>
      </trkpt>
      <trkpt lat="43.084617" lon="-4.617950">
        <ele>2499.0</ele>
        <time>2013-09-04T14:56:16Z</time>
      </trkpt>
      <trkpt lat="43.084650" lon="-4.618117">
        <ele>2496.0</ele>
        <time>2013-09-04T14:56:17Z</time>
      </trkpt>
      <trkpt lat="43.084667" lon="-4.618300">
        <ele>2492.0</ele>
        <time>2013-09-04T14:56:18Z</time>
      </trkpt>
      <trkpt lat="43.084717" lon="-4.618500">
        <ele>2489.0</ele>
        <time>2013-09-04T14:56:19Z</time>
      </trkpt>
      <trkpt lat="43.084750" lon="-4.618717">
        <ele>2488.0</ele>
        <time>2013-09-04T14:56:20Z</time>
      </trkpt>
      <trkpt lat="43.084767" lon="-4.618933">
        <ele>2489.0</ele>
        <time>2013-09-04T14:56:21Z</time>
      </trkpt>
      <trkpt lat="43.084783" lon="-4.619133">
        <ele>2491.0</ele>
        <time>2013-09-04T14:56:22Z</time>
      </trkpt>
      <trkpt lat="43.084817" lon="-4.619283">
        <ele>2493.0</ele>
        <time>2013-09-04T14:56:23Z</time>
      </trkpt>
      <trkpt lat="43.084850" lon="-4.619433">
        <ele>2492.0</ele>
        <time>2013-09-04T14:56:24Z</time>
      </trkpt>
      <trkpt lat="43.084900" lon="-4.619583">
        <ele>2491.0</ele>
        <time>2013-09-04T14:56:25Z</time>
      </trkpt>
      <trkpt lat="43.084933" lon="-4.619750">
        <ele>2489.0</ele>
        <time>2013-09-04T14:56:26Z</time>
      </trkpt>
      <trkpt lat="43.084983" lon="-4.619933">
        <ele>2486.0</ele>
        <time>2013-09-04T14:56:27Z</time>
      </trkpt>
      <trkpt lat="43.085017" lon="-4.620117">
        <ele>2484.0</ele>
        <time>2013-09-04T14:56:28Z</time>
      </trkpt>
      <trkpt lat="43.085067" lon="-4.620283">
        <ele>2482.0</ele>
        <time>2013-09-04T14:56:29Z</time>
      </trkpt>
      <trkpt lat="43.085133" lon="-4.620433">
        <ele>2480.0</ele>
        <time>2013-09-04T14:56:30Z</time>
      </trkpt>
      <trkpt lat="43.085200" lon="-4.620567">
        <ele>2479.0</ele>
        <time>2013-09-04T14:56:31Z</time>
      </trkpt>
      <trkpt lat="43.085267" lon="-4.620717">
        <ele>2476.0</ele>
        <time>2013-09-04T14:56:32Z</time>
      </trkpt>
      <trkpt lat="43.085317" lon="-4.620850">
        <ele>2474.0</ele>
        <time>2013-09-04T14:56:33Z</time>
      </trkpt>
      <trkpt lat="43.085383" lon="-4.621000">
        <ele>2471.0</ele>
        <time>2013-09-04T14:56:34Z</time>
      </trkpt>
      <trkpt lat="43.085433" lon="-4.621133">
        <ele>2468.0</ele>
        <time>2013-09-04T14:56:35Z</time>
      </trkpt>
      <trkpt lat="43.085500" lon="-4.621250">
        <ele>2465.0</ele>
        <time>2013-09-04T14:56:36Z</time>
      </trkpt>
      <trkpt lat="43.085567" lon="-4.621383">
        <ele>2462.0</ele>
        <time>2013-09-04T14:56:37Z</time>
      </trkpt>
      <trkpt lat="43.085633" lon="-4.621517">
        <ele>2459.0</ele>
        <time>2013-09-04T14:56:38Z</time>
      </trkpt>
      <trkpt lat="43.085683" lon="-4.621650">
        <ele>2456.0</ele>
        <time>2013-09-04T14:56:39Z</time>
      </trkpt>
      <trkpt lat="43.085733" lon="-4.621783">
        <ele>2453.0</ele>
        <time>2013-09-04T14:56:40Z</time>
      </trkpt>
      <trkpt lat="43.085783" lon="-4.621917">
        <ele>2450.0</ele>
        <time>2013-09-04T14:56:41Z</time>
      </trkpt>
      <trkpt lat="43.085850" lon="-4.622067">
        <ele>2447.0</ele>
        <time>2013-09-04T14:56:42Z</time>
      </trkpt>
      <trkpt lat="43.085900" lon="-4.622217">
        <ele>2445.0</ele>
        <time>2013-09-04T14:56:43Z</time>
      </trkpt>
      <trkpt lat="43.085950" lon="-4.622367">
        <ele>2443.0</ele>
        <time>2013-09-04T14:56:44Z</time>
      </trkpt>
      <trkpt lat="43.085983" lon="-4.622517">
        <ele>2440.0</ele>
        <time>2013-09-04T14:56:45Z</time>
      </trkpt>
      <trkpt lat="43.086017" lon="-4.622667">
        <ele>2438.0</ele>
        <time>2013-09-04T14:56:46Z</time>
      </trkpt>
      <trkpt lat="43.086050" lon="-4.622817">
        <ele>2435.0</ele>
        <time>2013-09-04T14:56:47Z</time>
      </trkpt>
      <trkpt lat="43.086083" lon="-4.622950">
        <ele>2432.0</ele>
        <time>2013-09-04T14:56:48Z</time>
      </trkpt>
      <trkpt lat="43.086117" lon="-4.623100">
        <ele>2429.0</ele>
        <time>2013-09-04T14:56:49Z</time>
      </trkpt>
      <trkpt lat="43.086167" lon="-4.623233">
        <ele>2424.0</ele>
        <time>2013-09-04T14:56:50Z</time>
      </trkpt>
      <trkpt lat="43.086217" lon="-4.623400">
        <ele>2419.0</ele>
        <time>2013-09-04T14:56:51Z</time>
      </trkpt>
      <trkpt lat="43.086267" lon="-4.623567">
        <ele>2414.0</ele>
        <time>2013-09-04T14:56:52Z</time>
      </trkpt>
      <trkpt lat="43.086300" lon="-4.623750">
        <ele>2411.0</ele>
        <time>2013-09-04T14:56:53Z</time>
      </trkpt>
      <trkpt lat="43.086350" lon="-4.623917">
        <ele>2408.0</ele>
        <time>2013-09-04T14:56:54Z</time>
      </trkpt>
      <trkpt lat="43.086383" lon="-4.624083">
        <ele>2405.0</ele>
        <time>2013-09-04T14:56:55Z</time>
      </trkpt>
      <trkpt lat="43.086417" lon="-4.624250">
        <ele>2402.0</ele>
        <time>2013-09-04T14:56:56Z</time>
      </trkpt>
      <trkpt lat="43.086450" lon="-4.624417">
        <ele>2398.0</ele>
        <time>2013-09-04T14:56:57Z</time>
      </trkpt>
      <trkpt lat="43.086483" lon="-4.624583">
        <ele>2394.0</ele>
        <time>2013-09-04T14:56:58Z</time>
      </trkpt>
      <trkpt lat="43.086517" lon="-4.624767">
        <ele>2390.0</ele>
        <time>2013-09-04T14:56:59Z</time>
      </trkpt>
      <trkpt lat="43.086533" lon="-4.624933">
        <ele>2386.0</ele>
        <time>2013-09-04T14:57:00Z</time>
      </trkpt>
      <trkpt lat="43.086567" lon="-4.625133">
        <ele>2383.0</ele>
        <time>2013-09-04T14:57:01Z</time>
      </trkpt>
      <trkpt lat="43.086583" lon="-4.625317">
        <ele>2380.0</ele>
        <time>2013-09-04T14:57:02Z</time>
      </trkpt>
      <trkpt lat="43.086617" lon="-4.625483">
        <ele>2377.0</ele>
        <time>2013-09-04T14:57:03Z</time>
      </trkpt>
      <trkpt lat="43.086633" lon="-4.625667">
        <ele>2374.0</ele>
        <time>2013-09-04T14:57:04Z</time>
      </trkpt>
      <trkpt lat="43.086667" lon="-4.625850">
        <ele>2370.0</ele>
        <time>2013-09-04T14:57:05Z</time>
      </trkpt>
      <trkpt lat="43.086683" lon="-4.626033">
        <ele>2366.0</ele>
        <time>2013-09-04T14:57:06Z</time>
      </trkpt>
      <trkpt lat="43.086717" lon="-4.626233">
        <ele>2362.0</ele>
        <time>2013-09-04T14:57:07Z</time>
      </trkpt>
      <trkpt lat="43.086750" lon="-4.626433">
        <ele>2358.0</ele>
        <time>2013-09-04T14:57:08Z</time>
      </trkpt>
      <trkpt lat="43.086783" lon="-4.626617">
        <ele>2354.0</ele>
        <time>2013-09-04T14:57:09Z</time>
      </trkpt>
      <trkpt lat="43.086817" lon="-4.626800">
        <ele>2352.0</ele>
        <time>2013-09-04T14:57:10Z</time>
      </trkpt>
      <trkpt lat="43.086850" lon="-4.626983">
        <ele>2349.0</ele>
        <time>2013-09-04T14:57:11Z</time>
      </trkpt>
      <trkpt lat="43.086883" lon="-4.627167">
        <ele>2345.0</ele>
        <time>2013-09-04T14:57:12Z</time>
      </trkpt>
      <trkpt lat="43.086917" lon="-4.627350">
        <ele>2342.0</ele>
        <time>2013-09-04T14:57:13Z</time>
      </trkpt>
      <trkpt lat="43.086950" lon="-4.627550">
        <ele>2339.0</ele>
        <time>2013-09-04T14:57:14Z</time>
      </trkpt>
      <trkpt lat="43.087000" lon="-4.627750">
        <ele>2337.0</ele>
        <time>2013-09-04T14:57:15Z</time>
      </trkpt>
      <trkpt lat="43.087033" lon="-4.627950">
        <ele>2335.0</ele>
        <time>2013-09-04T14:57:16Z</time>
      </trkpt>
      <trkpt lat="43.087067" lon="-4.628133">
        <ele>2333.0</ele>
        <time>2013-09-04T14:57:17Z</time>
      </trkpt>
      <trkpt lat="43.087083" lon="-4.628317">
        <ele>2331.0</ele>
        <time>2013-09-04T14:57:18Z</time>
      </trkpt>
      <trkpt lat="43.087117" lon="-4.628517">
        <ele>2329.0</ele>
        <time>2013-09-04T14:57:19Z</time>
      </trkpt>
      <trkpt lat="43.087133" lon="-4.628717">
        <ele>2326.0</ele>
        <time>2013-09-04T14:57:20Z</time>
      </trkpt>
      <trkpt lat="43.087167" lon="-4.628917">
        <ele>2324.0</ele>
        <time>2013-09-04T14:57:21Z</time>
      </trkpt>
      <trkpt lat="43.087183" lon="-4.629117">
        <ele>2322.0</ele>
        <time>2013-09-04T14:57:22Z</time>
      </trkpt>
      <trkpt lat="43.087200" lon="-4.629317">
        <ele>2321.0</ele>
        <time>2013-09-04T14:57:23Z</time>
      </trkpt>
      <trkpt lat="43.087233" lon="-4.629517">
        <ele>2319.0</ele>
        <time>2013-09-04T14:57:24Z</time>
      </trkpt>
      <trkpt lat="43.087250" lon="-4.629700">
        <ele>2317.0</ele>
        <time>2013-09-04T14:57:25Z</time>
      </trkpt>
      <trkpt lat="43.087267" lon="-4.629900">
        <ele>2314.0</ele>
        <time>2013-09-04T14:57:26Z</time>
      </trkpt>
      <trkpt lat="43.087283" lon="-4.630100">
        <ele>2311.0</ele>
        <time>2013-09-04T14:57:27Z</time>
      </trkpt>
      <trkpt lat="43.087300" lon="-4.630317">
        <ele>2308.0</ele>
        <time>2013-09-04T14:57:28Z</time>
      </trkpt>
      <trkpt lat="43.087317" lon="-4.630533">
        <ele>2306.0</ele>
        <time>2013-09-04T14:57:29Z</time>
      </trkpt>
      <trkpt lat="43.087333" lon="-4.630733">
        <ele>2305.0</ele>
        <time>2013-09-04T14:57:30Z</time>
      </trkpt>
      <trkpt lat="43.087367" lon="-4.630933">
        <ele>2303.0</ele>
        <time>2013-09-04T14:57:31Z</time>
      </trkpt>
      <trkpt lat="43.087383" lon="-4.631133">
        <ele>2302.0</ele>
        <time>2013-09-04T14:57:32Z</time>
      </trkpt>
      <trkpt lat="43.087400" lon="-4.631333">
        <ele>2300.0</ele>
        <time>2013-09-04T14:57:33Z</time>
      </trkpt>
      <trkpt lat="43.087417" lon="-4.631533">
        <ele>2297.0</ele>
        <time>2013-09-04T14:57:34Z</time>
      </trkpt>
      <trkpt lat="43.087450" lon="-4.631733">
        <ele>2295.0</ele>
        <time>2013-09-04T14:57:35Z</time>
      </trkpt>
      <trkpt lat="43.087467" lon="-4.631933">
        <ele>2292.0</ele>
        <time>2013-09-04T14:57:36Z</time>
      </trkpt>
      <trkpt lat="43.087483" lon="-4.632150">
        <ele>2290.0</ele>
        <time>2013-09-04T14:57:37Z</time>
      </trkpt>
      <trkpt lat="43.087500" lon="-4.632350">
        <ele>2288.0</ele>
        <time>2013-09-04T14:57:38Z</time>
      </trkpt>
      <trkpt lat="43.087517" lon="-4.632567">
        <ele>2285.0</ele>
        <time>2013-09-04T14:57:39Z</time>
      </trkpt>
      <trkpt lat="43.087533" lon="-4.632767">
        <ele>2283.0</ele>
        <time>2013-09-04T14:57:40Z</time>
      </trkpt>
      <trkpt lat="43.087550" lon="-4.632967">
        <ele>2280.0</ele>
        <time>2013-09-04T14:57:41Z</time>
      </trkpt>
      <trkpt lat="43.087567" lon="-4.633167">
        <ele>2278.0</ele>
        <time>2013-09-04T14:57:42Z</time>
      </trkpt>
      <trkpt lat="43.087583" lon="-4.633383">
        <ele>2275.0</ele>
        <time>2013-09-04T14:57:43Z</time>
      </trkpt>
      <trkpt lat="43.087583" lon="-4.633583">
        <ele>2273.0</ele>
        <time>2013-09-04T14:57:44Z</time>
      </trkpt>
      <trkpt lat="43.087600" lon="-4.633800">
        <ele>2271.0</ele>
        <time>2013-09-04T14:57:45Z</time>
      </trkpt>
      <trkpt lat="43.087617" lon="-4.634000">
        <ele>2269.0</ele>
        <time>2013-09-04T14:57:46Z</time>
      </trkpt>
      <trkpt lat="43.087617" lon="-4.634200">
        <ele>2267.0</ele>
        <time>2013-09-04T14:57:47Z</time>
      </trkpt>
      <trkpt lat="43.087633" lon="-4.634400">
        <ele>2266.0</ele>
        <time>2013-09-04T14:57:48Z</time>
      </trkpt>
      <trkpt lat="43.087650" lon="-4.634583">
        <ele>2264.0</ele>
        <time>2013-09-04T14:57:49Z</time>
      </trkpt>
      <trkpt lat="43.087667" lon="-4.634783">
        <ele>2261.0</ele>
        <time>2013-09-04T14:57:50Z</time>
      </trkpt>
      <trkpt lat="43.087700" lon="-4.634983">
        <ele>2258.0</ele>
        <time>2013-09-04T14:57:51Z</time>
      </trkpt>
      <trkpt lat="43.087733" lon="-4.635183">
        <ele>2256.0</ele>
        <time>2013-09-04T14:57:52Z</time>
      </trkpt>
      <trkpt lat="43.087767" lon="-4.635400">
        <ele>2255.0</ele>
        <time>2013-09-04T14:57:53Z</time>
      </trkpt>
      <trkpt lat="43.087783" lon="-4.635583">
        <ele>2253.0</ele>
        <time>2013-09-04T14:57:54Z</time>
      </trkpt>
      <trkpt lat="43.087800" lon="-4.635783">
        <ele>2252.0</ele>
        <time>2013-09-04T14:57:55Z</time>
      </trkpt>
      <trkpt lat="43.087817" lon="-4.635967">
        <ele>2251.0</ele>
        <time>2013-09-04T14:57:56Z</time>
      </trkpt>
      <trkpt lat="43.087850" lon="-4.636167">
        <ele>2250.0</ele>
        <time>2013-09-04T14:57:57Z</time>
      </trkpt>
      <trkpt lat="43.087883" lon="-4.636350">
        <ele>2248.0</ele>
        <time>2013-09-04T14:57:58Z</time>
      </trkpt>
      <trkpt lat="43.087933" lon="-4.636550">
        <ele>2246.0</ele>
        <time>2013-09-04T14:57:59Z</time>
      </trkpt>
      <trkpt lat="43.087967" lon="-4.636733">
        <ele>2243.0</ele>
        <time>2013-09-04T14:58:00Z</time>
      </trkpt>
      <trkpt lat="43.088000" lon="-4.636933">
        <ele>2241.0</ele>
        <time>2013-09-04T14:58:01Z</time>
      </trkpt>
      <trkpt lat="43.088033" lon="-4.637150">
        <ele>2239.0</ele>
        <time>2013-09-04T14:58:02Z</time>
      </trkpt>
      <trkpt lat="43.088083" lon="-4.637350">
        <ele>2238.0</ele>
        <time>2013-09-04T14:58:03Z</time>
      </trkpt>
      <trkpt lat="43.088133" lon="-4.637550">
        <ele>2237.0</ele>
        <time>2013-09-04T14:58:04Z</time>
      </trkpt>
      <trkpt lat="43.088183" lon="-4.637717">
        <ele>2238.0</ele>
        <time>2013-09-04T14:58:05Z</time>
      </trkpt>
      <trkpt lat="43.088233" lon="-4.637867">
        <ele>2239.0</ele>
        <time>2013-09-04T14:58:06Z</time>
      </trkpt>
      <trkpt lat="43.088283" lon="-4.638000">
        <ele>2239.0</ele>
        <time>2013-09-04T14:58:07Z</time>
      </trkpt>
      <trkpt lat="43.088333" lon="-4.638133">
        <ele>2237.0</ele>
        <time>2013-09-04T14:58:08Z</time>
      </trkpt>
      <trkpt lat="43.088383" lon="-4.638300">
        <ele>2235.0</ele>
        <time>2013-09-04T14:58:09Z</time>
      </trkpt>
      <trkpt lat="43.088433" lon="-4.638467">
        <ele>2233.0</ele>
        <time>2013-09-04T14:58:10Z</time>
      </trkpt>
      <trkpt lat="43.088500" lon="-4.638633">
        <ele>2232.0</ele>
        <time>2013-09-04T14:58:11Z</time>
      </trkpt>
      <trkpt lat="43.088550" lon="-4.638800">
        <ele>2232.0</ele>
        <time>2013-09-04T14:58:12Z</time>
      </trkpt>
      <trkpt lat="43.088600" lon="-4.638967">
        <ele>2232.0</ele>
        <time>2013-09-04T14:58:13Z</time>
      </trkpt>
      <trkpt lat="43.088667" lon="-4.639117">
        <ele>2232.0</ele>
        <time>2013-09-04T14:58:14Z</time>
      </trkpt>
      <trkpt lat="43.088700" lon="-4.639267">
        <ele>2231.0</ele>
        <time>2013-09-04T14:58:15Z</time>
      </trkpt>
      <trkpt lat="43.088750" lon="-4.639433">
        <ele>2230.0</ele>
        <time>2013-09-04T14:58:16Z</time>
      </trkpt>
      <trkpt lat="43.088817" lon="-4.639583">
        <ele>2230.0</ele>
        <time>2013-09-04T14:58:17Z</time>
      </trkpt>
      <trkpt lat="43.088867" lon="-4.639750">
        <ele>2229.0</ele>
        <time>2013-09-04T14:58:18Z</time>
      </trkpt>
      <trkpt lat="43.088917" lon="-4.639900">
        <ele>2228.0</ele>
        <time>2013-09-04T14:58:19Z</time>
      </trkpt>
      <trkpt lat="43.088967" lon="-4.640067">
        <ele>2227.0</ele>
        <time>2013-09-04T14:58:20Z</time>
      </trkpt>
      <trkpt lat="43.089033" lon="-4.640217">
        <ele>2226.0</ele>
        <time>2013-09-04T14:58:21Z</time>
      </trkpt>
      <trkpt lat="43.089083" lon="-4.640367">
        <ele>2225.0</ele>
        <time>2013-09-04T14:58:22Z</time>
      </trkpt>
      <trkpt lat="43.089150" lon="-4.640533">
        <ele>2223.0</ele>
        <time>2013-09-04T14:58:23Z</time>
      </trkpt>
      <trkpt lat="43.089217" lon="-4.640683">
        <ele>2223.0</ele>
        <time>2013-09-04T14:58:24Z</time>
      </trkpt>
      <trkpt lat="43.089283" lon="-4.640833">
        <ele>2222.0</ele>
        <time>2013-09-04T14:58:25Z</time>
      </trkpt>
      <trkpt lat="43.089350" lon="-4.641000">
        <ele>2221.0</ele>
        <time>2013-09-04T14:58:26Z</time>
      </trkpt>
      <trkpt lat="43.089400" lon="-4.641150">
        <ele>2221.0</ele>
        <time>2013-09-04T14:58:27Z</time>
      </trkpt>
      <trkpt lat="43.089467" lon="-4.641300">
        <ele>2220.0</ele>
        <time>2013-09-04T14:58:28Z</time>
      </trkpt>
      <trkpt lat="43.089533" lon="-4.641467">
        <ele>2219.0</ele>
        <time>2013-09-04T14:58:29Z</time>
      </trkpt>
      <trkpt lat="43.089600" lon="-4.641617">
        <ele>2218.0</ele>
        <time>2013-09-04T14:58:30Z</time>
      </trkpt>
      <trkpt lat="43.089667" lon="-4.641783">
        <ele>2217.0</ele>
        <time>2013-09-04T14:58:31Z</time>
      </trkpt>
      <trkpt lat="43.089733" lon="-4.641950">
        <ele>2217.0</ele>
        <time>2013-09-04T14:58:32Z</time>
      </trkpt>
      <trkpt lat="43.089800" lon="-4.642100">
        <ele>2217.0</ele>
        <time>2013-09-04T14:58:33Z</time>
      </trkpt>
      <trkpt lat="43.089867" lon="-4.642250">
        <ele>2217.0</ele>
        <time>2013-09-04T14:58:34Z</time>
      </trkpt>
      <trkpt lat="43.089933" lon="-4.642400">
        <ele>2217.0</ele>
        <time>2013-09-04T14:58:35Z</time>
      </trkpt>
      <trkpt lat="43.090000" lon="-4.642550">
        <ele>2216.0</ele>
        <time>2013-09-04T14:58:36Z</time>
      </trkpt>
      <trkpt lat="43.090050" lon="-4.642717">
        <ele>2216.0</ele>
        <time>2013-09-04T14:58:37Z</time>
      </trkpt>
      <trkpt lat="43.090117" lon="-4.642883">
        <ele>2216.0</ele>
        <time>2013-09-04T14:58:38Z</time>
      </trkpt>
      <trkpt lat="43.090167" lon="-4.643050">
        <ele>2216.0</ele>
        <time>2013-09-04T14:58:39Z</time>
      </trkpt>
      <trkpt lat="43.090233" lon="-4.643200">
        <ele>2216.0</ele>
        <time>2013-09-04T14:58:40Z</time>
      </trkpt>
      <trkpt lat="43.090300" lon="-4.643367">
        <ele>2216.0</ele>
        <time>2013-09-04T14:58:41Z</time>
      </trkpt>
      <trkpt lat="43.090350" lon="-4.643533">
        <ele>2216.0</ele>
        <time>2013-09-04T14:58:42Z</time>
      </trkpt>
      <trkpt lat="43.090417" lon="-4.643700">
        <ele>2215.0</ele>
        <time>2013-09-04T14:58:43Z</time>
      </trkpt>
      <trkpt lat="43.090483" lon="-4.643867">
        <ele>2215.0</ele>
        <time>2013-09-04T14:58:44Z</time>
      </trkpt>
      <trkpt lat="43.090533" lon="-4.644017">
        <ele>2215.0</ele>
        <time>2013-09-04T14:58:45Z</time>
      </trkpt>
      <trkpt lat="43.090600" lon="-4.644183">
        <ele>2215.0</ele>
        <time>2013-09-04T14:58:46Z</time>
      </trkpt>
      <trkpt lat="43.090650" lon="-4.644333">
        <ele>2215.0</ele>
        <time>2013-09-04T14:58:47Z</time>
      </trkpt>
      <trkpt lat="43.090717" lon="-4.644483">
        <ele>2215.0</ele>
        <time>2013-09-04T14:58:48Z</time>
      </trkpt>
      <trkpt lat="43.090783" lon="-4.644633">
        <ele>2214.0</ele>
        <time>2013-09-04T14:58:49Z</time>
      </trkpt>
      <trkpt lat="43.090867" lon="-4.644783">
        <ele>2213.0</ele>
        <time>2013-09-04T14:58:50Z</time>
      </trkpt>
      <trkpt lat="43.090933" lon="-4.644917">
        <ele>2213.0</ele>
        <time>2013-09-04T14:58:51Z</time>
      </trkpt>
      <trkpt lat="43.091017" lon="-4.645050">
        <ele>2212.0</ele>
        <time>2013-09-04T14:58:52Z</time>
      </trkpt>
      <trkpt lat="43.091083" lon="-4.645200">
        <ele>2212.0</ele>
        <time>2013-09-04T14:58:53Z</time>
      </trkpt>
      <trkpt lat="43.091150" lon="-4.645350">
        <ele>2212.0</ele>
        <time>2013-09-04T14:58:54Z</time>
      </trkpt>
      <trkpt lat="43.091233" lon="-4.645500">
        <ele>2211.0</ele>
        <time>2013-09-04T14:58:55Z</time>
      </trkpt>
      <trkpt lat="43.091300" lon="-4.645633">
        <ele>2210.0</ele>
        <time>2013-09-04T14:58:56Z</time>
      </trkpt>
      <trkpt lat="43.091383" lon="-4.645783">
        <ele>2209.0</ele>
        <time>2013-09-04T14:58:57Z</time>
      </trkpt>
      <trkpt lat="43.091450" lon="-4.645917">
        <ele>2207.0</ele>
        <time>2013-09-04T14:58:58Z</time>
      </trkpt>
      <trkpt lat="43.091517" lon="-4.646083">
        <ele>2206.0</ele>
        <time>2013-09-04T14:58:59Z</time>
      </trkpt>
      <trkpt lat="43.091567" lon="-4.646250">
        <ele>2204.0</ele>
        <time>2013-09-04T14:59:00Z</time>
      </trkpt>
      <trkpt lat="43.091633" lon="-4.646417">
        <ele>2204.0</ele>
        <time>2013-09-04T14:59:01Z</time>
      </trkpt>
      <trkpt lat="43.091700" lon="-4.646583">
        <ele>2203.0</ele>
        <time>2013-09-04T14:59:02Z</time>
      </trkpt>
      <trkpt lat="43.091767" lon="-4.646733">
        <ele>2203.0</ele>
        <time>2013-09-04T14:59:03Z</time>
      </trkpt>
      <trkpt lat="43.091833" lon="-4.646883">
        <ele>2203.0</ele>
        <time>2013-09-04T14:59:04Z</time>
      </trkpt>
      <trkpt lat="43.091883" lon="-4.647050">
        <ele>2202.0</ele>
        <time>2013-09-04T14:59:05Z</time>
      </trkpt>
      <trkpt lat="43.091933" lon="-4.647217">
        <ele>2201.0</ele>
        <time>2013-09-04T14:59:06Z</time>
      </trkpt>
      <trkpt lat="43.092000" lon="-4.647400">
        <ele>2200.0</ele>
        <time>2013-09-04T14:59:07Z</time>
      </trkpt>
      <trkpt lat="43.092050" lon="-4.647567">
        <ele>2200.0</ele>
        <time>2013-09-04T14:59:08Z</time>
      </trkpt>
      <trkpt lat="43.092100" lon="-4.647733">
        <ele>2201.0</ele>
        <time>2013-09-04T14:59:09Z</time>
      </trkpt>
      <trkpt lat="43.092167" lon="-4.647883">
        <ele>2202.0</ele>
        <time>2013-09-04T14:59:10Z</time>
      </trkpt>
      <trkpt lat="43.092217" lon="-4.648033">
        <ele>2204.0</ele>
        <time>2013-09-04T14:59:11Z</time>
      </trkpt>
      <trkpt lat="43.092250" lon="-4.648183">
        <ele>2205.0</ele>
        <time>2013-09-04T14:59:12Z</time>
      </trkpt>
      <trkpt lat="43.092300" lon="-4.648333">
        <ele>2205.0</ele>
        <time>2013-09-04T14:59:13Z</time>
      </trkpt>
      <trkpt lat="43.092367" lon="-4.648483">
        <ele>2206.0</ele>
        <time>2013-09-04T14:59:14Z</time>
      </trkpt>
      <trkpt lat="43.092417" lon="-4.648617">
        <ele>2205.0</ele>
        <time>2013-09-04T14:59:15Z</time>
      </trkpt>
      <trkpt lat="43.092483" lon="-4.648750">
        <ele>2205.0</ele>
        <time>2013-09-04T14:59:16Z</time>
      </trkpt>
      <trkpt lat="43.092550" lon="-4.648900">
        <ele>2205.0</ele>
        <time>2013-09-04T14:59:17Z</time>
      </trkpt>
      <trkpt lat="43.092600" lon="-4.649033">
        <ele>2206.0</ele>
        <time>2013-09-04T14:59:18Z</time>
      </trkpt>
      <trkpt lat="43.092667" lon="-4.649150">
        <ele>2206.0</ele>
        <time>2013-09-04T14:59:19Z</time>
      </trkpt>
      <trkpt lat="43.092717" lon="-4.649250">
        <ele>2205.0</ele>
        <time>2013-09-04T14:59:20Z</time>
      </trkpt>
      <trkpt lat="43.092800" lon="-4.649367">
        <ele>2204.0</ele>
        <time>2013-09-04T14:59:21Z</time>
      </trkpt>
      <trkpt lat="43.092867" lon="-4.649500">
        <ele>2202.0</ele>
        <time>2013-09-04T14:59:22Z</time>
      </trkpt>
      <trkpt lat="43.092933" lon="-4.649633">
        <ele>2202.0</ele>
        <time>2013-09-04T14:59:23Z</time>
      </trkpt>
      <trkpt lat="43.092983" lon="-4.649783">
        <ele>2202.0</ele>
        <time>2013-09-04T14:59:24Z</time>
      </trkpt>
      <trkpt lat="43.093033" lon="-4.649900">
        <ele>2203.0</ele>
        <time>2013-09-04T14:59:25Z</time>
      </trkpt>
      <trkpt lat="43.093100" lon="-4.650017">
        <ele>2204.0</ele>
        <time>2013-09-04T14:59:26Z</time>
      </trkpt>
      <trkpt lat="43.093150" lon="-4.650133">
        <ele>2205.0</ele>
        <time>2013-09-04T14:59:27Z</time>
      </trkpt>
      <trkpt lat="43.093217" lon="-4.650267">
        <ele>2204.0</ele>
        <time>2013-09-04T14:59:28Z</time>
      </trkpt>
      <trkpt lat="43.093267" lon="-4.650417">
        <ele>2204.0</ele>
        <time>2013-09-04T14:59:29Z</time>
      </trkpt>
      <trkpt lat="43.093317" lon="-4.650567">
        <ele>2203.0</ele>
        <time>2013-09-04T14:59:30Z</time>
      </trkpt>
      <trkpt lat="43.093367" lon="-4.650717">
        <ele>2203.0</ele>
        <time>2013-09-04T14:59:31Z</time>
      </trkpt>
      <trkpt lat="43.093417" lon="-4.650850">
        <ele>2204.0</ele>
        <time>2013-09-04T14:59:32Z</time>
      </trkpt>
      <trkpt lat="43.093467" lon="-4.650983">
        <ele>2204.0</ele>
        <time>2013-09-04T14:59:33Z</time>
      </trkpt>
      <trkpt lat="43.093533" lon="-4.651117">
        <ele>2203.0</ele>
        <time>2013-09-04T14:59:34Z</time>
      </trkpt>
      <trkpt lat="43.093583" lon="-4.651267">
        <ele>2202.0</ele>
        <time>2013-09-04T14:59:35Z</time>
      </trkpt>
      <trkpt lat="43.093650" lon="-4.651400">
        <ele>2202.0</ele>
        <time>2013-09-04T14:59:36Z</time>
      </trkpt>
      <trkpt lat="43.093700" lon="-4.651550">
        <ele>2201.0</ele>
        <time>2013-09-04T14:59:37Z</time>
      </trkpt>
      <trkpt lat="43.093750" lon="-4.651683">
        <ele>2201.0</ele>
        <time>2013-09-04T14:59:38Z</time>
      </trkpt>
      <trkpt lat="43.093800" lon="-4.651817">
        <ele>2200.0</ele>
        <time>2013-09-04T14:59:39Z</time>
      </trkpt>
      <trkpt lat="43.093867" lon="-4.651950">
        <ele>2199.0</ele>
        <time>2013-09-04T14:59:40Z</time>
      </trkpt>
      <trkpt lat="43.093917" lon="-4.652067">
        <ele>2198.0</ele>
        <time>2013-09-04T14:59:41Z</time>
      </trkpt>
      <trkpt lat="43.093983" lon="-4.652217">
        <ele>2197.0</ele>
        <time>2013-09-04T14:59:42Z</time>
      </trkpt>
      <trkpt lat="43.094033" lon="-4.652383">
        <ele>2196.0</ele>
        <time>2013-09-04T14:59:43Z</time>
      </trkpt>
      <trkpt lat="43.094100" lon="-4.652533">
        <ele>2197.0</ele>
        <time>2013-09-04T14:59:44Z</time>
      </trkpt>
      <trkpt lat="43.094133" lon="-4.652683">
        <ele>2197.0</ele>
        <time>2013-09-04T14:59:45Z</time>
      </trkpt>
      <trkpt lat="43.094183" lon="-4.652833">
        <ele>2198.0</ele>
        <time>2013-09-04T14:59:46Z</time>
      </trkpt>
      <trkpt lat="43.094233" lon="-4.652967">
        <ele>2197.0</ele>
        <time>2013-09-04T14:59:47Z</time>
      </trkpt>
      <trkpt lat="43.094300" lon="-4.653117">
        <ele>2196.0</ele>
        <time>2013-09-04T14:59:48Z</time>
      </trkpt>
      <trkpt lat="43.094350" lon="-4.653283">
        <ele>2196.0</ele>
        <time>2013-09-04T14:59:49Z</time>
      </trkpt>
      <trkpt lat="43.094400" lon="-4.653450">
        <ele>2195.0</ele>
        <time>2013-09-04T14:59:50Z</time>
      </trkpt>
      <trkpt lat="43.094450" lon="-4.653600">
        <ele>2195.0</ele>
        <time>2013-09-04T14:59:51Z</time>
      </trkpt>
      <trkpt lat="43.094500" lon="-4.653767">
        <ele>2194.0</ele>
        <time>2013-09-04T14:59:52Z</time>
      </trkpt>
      <trkpt lat="43.094533" lon="-4.653917">
        <ele>2193.0</ele>
        <time>2013-09-04T14:59:53Z</time>
      </trkpt>
      <trkpt lat="43.094583" lon="-4.654067">
        <ele>2192.0</ele>
        <time>2013-09-04T14:59:54Z</time>
      </trkpt>
      <trkpt lat="43.094633" lon="-4.654233">
        <ele>2191.0</ele>
        <time>2013-09-04T14:59:55Z</time>
      </trkpt>
      <trkpt lat="43.094667" lon="-4.654400">
        <ele>2190.0</ele>
        <time>2013-09-04T14:59:56Z</time>
      </trkpt>
      <trkpt lat="43.094717" lon="-4.654550">
        <ele>2189.0</ele>
        <time>2013-09-04T14:59:57Z</time>
      </trkpt>
      <trkpt lat="43.094750" lon="-4.654717">
        <ele>2188.0</ele>
        <time>2013-09-04T14:59:58Z</time>
      </trkpt>
      <trkpt lat="43.094783" lon="-4.654867">
        <ele>2187.0</ele>
        <time>2013-09-04T14:59:59Z</time>
      </trkpt>
      <trkpt lat="43.094817" lon="-4.655017">
        <ele>2185.0</ele>
        <time>2013-09-04T15:00:00Z</time>
      </trkpt>
      <trkpt lat="43.094850" lon="-4.655183">
        <ele>2182.0</ele>
        <time>2013-09-04T15:00:01Z</time>
      </trkpt>
      <trkpt lat="43.094900" lon="-4.655333">
        <ele>2180.0</ele>
        <time>2013-09-04T15:00:02Z</time>
      </trkpt>
      <trkpt lat="43.094950" lon="-4.655483">
        <ele>2177.0</ele>
        <time>2013-09-04T15:00:03Z</time>
      </trkpt>
      <trkpt lat="43.095000" lon="-4.655650">
        <ele>2175.0</ele>
        <time>2013-09-04T15:00:04Z</time>
      </trkpt>
      <trkpt lat="43.095033" lon="-4.655800">
        <ele>2173.0</ele>
        <time>2013-09-04T15:00:05Z</time>
      </trkpt>
      <trkpt lat="43.095083" lon="-4.655950">
        <ele>2171.0</ele>
        <time>2013-09-04T15:00:06Z</time>
      </trkpt>
      <trkpt lat="43.095133" lon="-4.656083">
        <ele>2169.0</ele>
        <time>2013-09-04T15:00:07Z</time>
      </trkpt>
      <trkpt lat="43.095183" lon="-4.656217">
        <ele>2167.0</ele>
        <time>2013-09-04T15:00:08Z</time>
      </trkpt>
      <trkpt lat="43.095233" lon="-4.656367">
        <ele>2164.0</ele>
        <time>2013-09-04T15:00:09Z</time>
      </trkpt>
      <trkpt lat="43.095283" lon="-4.656533">
        <ele>2162.0</ele>
        <time>2013-09-04T15:00:10Z</time>
      </trkpt>
      <trkpt lat="43.095333" lon="-4.656700">
        <ele>2160.0</ele>
        <time>2013-09-04T15:00:11Z</time>
      </trkpt>
      <trkpt lat="43.095383" lon="-4.656850">
        <ele>2158.0</ele>
        <time>2013-09-04T15:00:12Z</time>
      </trkpt>
      <trkpt lat="43.095433" lon="-4.656983">
        <ele>2156.0</ele>
        <time>2013-09-04T15:00:13Z</time>
      </trkpt>
      <trkpt lat="43.095500" lon="-4.657117">
        <ele>2153.0</ele>
        <time>2013-09-04T15:00:14Z</time>
      </trkpt>
      <trkpt lat="43.095567" lon="-4.657250">
        <ele>2151.0</ele>
        <time>2013-09-04T15:00:15Z</time>
      </trkpt>
      <trkpt lat="43.095633" lon="-4.657400">
        <ele>2148.0</ele>
        <time>2013-09-04T15:00:16Z</time>
      </trkpt>
      <trkpt lat="43.095700" lon="-4.657550">
        <ele>2146.0</ele>
        <time>2013-09-04T15:00:17Z</time>
      </trkpt>
      <trkpt lat="43.095767" lon="-4.657700">
        <ele>2145.0</ele>
        <time>2013-09-04T15:00:18Z</time>
      </trkpt>
      <trkpt lat="43.095817" lon="-4.657833">
        <ele>2145.0</ele>
        <time>2013-09-04T15:00:19Z</time>
      </trkpt>
      <trkpt lat="43.095883" lon="-4.657950">
        <ele>2144.0</ele>
        <time>2013-09-04T15:00:20Z</time>
      </trkpt>
      <trkpt lat="43.095933" lon="-4.658083">
        <ele>2142.0</ele>
        <time>2013-09-04T15:00:21Z</time>
      </trkpt>
      <trkpt lat="43.096000" lon="-4.658233">
        <ele>2140.0</ele>
        <time>2013-09-04T15:00:22Z</time>
      </trkpt>
      <trkpt lat="43.096067" lon="-4.658383">
        <ele>2138.0</ele>
        <time>2013-09-04T15:00:23Z</time>
      </trkpt>
      <trkpt lat="43.096150" lon="-4.658550">
        <ele>2136.0</ele>
        <time>2013-09-04T15:00:24Z</time>
      </trkpt>
      <trkpt lat="43.096217" lon="-4.658683">
        <ele>2136.0</ele>
        <time>2013-09-04T15:00:25Z</time>
      </trkpt>
      <trkpt lat="43.096300" lon="-4.658817">
        <ele>2136.0</ele>
        <time>2013-09-04T15:00:26Z</time>
      </trkpt>
      <trkpt lat="43.096367" lon="-4.658933">
        <ele>2136.0</ele>
        <time>2013-09-04T15:00:27Z</time>
      </trkpt>
      <trkpt lat="43.096433" lon="-4.659033">
        <ele>2135.0</ele>
        <time>2013-09-04T15:00:28Z</time>
      </trkpt>
      <trkpt lat="43.096517" lon="-4.659117">
        <ele>2134.0</ele>
        <time>2013-09-04T15:00:29Z</time>
      </trkpt>
      <trkpt lat="43.096600" lon="-4.659200">
        <ele>2131.0</ele>
        <time>2013-09-04T15:00:30Z</time>
      </trkpt>
      <trkpt lat="43.096683" lon="-4.659283">
        <ele>2128.0</ele>
        <time>2013-09-04T15:00:31Z</time>
      </trkpt>
      <trkpt lat="43.096783" lon="-4.659367">
        <ele>2125.0</ele>
        <time>2013-09-04T15:00:32Z</time>
      </trkpt>
      <trkpt lat="43.096883" lon="-4.659467">
        <ele>2122.0</ele>
        <time>2013-09-04T15:00:33Z</time>
      </trkpt>
      <trkpt lat="43.096967" lon="-4.659567">
        <ele>2120.0</ele>
        <time>2013-09-04T15:00:34Z</time>
      </trkpt>
      <trkpt lat="43.097050" lon="-4.659667">
        <ele>2119.0</ele>
        <time>2013-09-04T15:00:35Z</time>
      </trkpt>
      <trkpt lat="43.097133" lon="-4.659750">
        <ele>2118.0</ele>
        <time>2013-09-04T15:00:36Z</time>
      </trkpt>
      <trkpt lat="43.097200" lon="-4.659850">
        <ele>2117.0</ele>
        <time>2013-09-04T15:00:37Z</time>
      </trkpt>
      <trkpt lat="43.097267" lon="-4.659967">
        <ele>2115.0</ele>
        <time>2013-09-04T15:00:38Z</time>
      </trkpt>
      <trkpt lat="43.097317" lon="-4.660100">
        <ele>2113.0</ele>
        <time>2013-09-04T15:00:39Z</time>
      </trkpt>
      <trkpt lat="43.097383" lon="-4.660233">
        <ele>2111.0</ele>
        <time>2013-09-04T15:00:40Z</time>
      </trkpt>
      <trkpt lat="43.097433" lon="-4.660367">
        <ele>2109.0</ele>
        <time>2013-09-04T15:00:41Z</time>
      </trkpt>
      <trkpt lat="43.097483" lon="-4.660483">
        <ele>2107.0</ele>
        <time>2013-09-04T15:00:42Z</time>
      </trkpt>
      <trkpt lat="43.097550" lon="-4.660600">
        <ele>2105.0</ele>
        <time>2013-09-04T15:00:43Z</time>
      </trkpt>
      <trkpt lat="43.097600" lon="-4.660733">
        <ele>2102.0</ele>
        <time>2013-09-04T15:00:44Z</time>
      </trkpt>
      <trkpt lat="43.097667" lon="-4.660867">
        <ele>2099.0</ele>
        <time>2013-09-04T15:00:45Z</time>
      </trkpt>
      <trkpt lat="43.097733" lon="-4.661000">
        <ele>2096.0</ele>
        <time>2013-09-04T15:00:46Z</time>
      </trkpt>
      <trkpt lat="43.097800" lon="-4.661150">
        <ele>2094.0</ele>
        <time>2013-09-04T15:00:47Z</time>
      </trkpt>
      <trkpt lat="43.097867" lon="-4.661283">
        <ele>2093.0</ele>
        <time>2013-09-04T15:00:48Z</time>
      </trkpt>
      <trkpt lat="43.097950" lon="-4.661417">
        <ele>2092.0</ele>
        <time>2013-09-04T15:00:49Z</time>
      </trkpt>
      <trkpt lat="43.098017" lon="-4.661533">
        <ele>2092.0</ele>
        <time>2013-09-04T15:00:50Z</time>
      </trkpt>
      <trkpt lat="43.098083" lon="-4.661667">
        <ele>2092.0</ele>
        <time>2013-09-04T15:00:51Z</time>
      </trkpt>
      <trkpt lat="43.098133" lon="-4.661783">
        <ele>2091.0</ele>
        <time>2013-09-04T15:00:52Z</time>
      </trkpt>
      <trkpt lat="43.098200" lon="-4.661917">
        <ele>2089.0</ele>
        <time>2013-09-04T15:00:53Z</time>
      </trkpt>
      <trkpt lat="43.098250" lon="-4.662050">
        <ele>2088.0</ele>
        <time>2013-09-04T15:00:54Z</time>
      </trkpt>
      <trkpt lat="43.098317" lon="-4.662200">
        <ele>2086.0</ele>
        <time>2013-09-04T15:00:55Z</time>
      </trkpt>
      <trkpt lat="43.098383" lon="-4.662350">
        <ele>2085.0</ele>
        <time>2013-09-04T15:00:56Z</time>
      </trkpt>
      <trkpt lat="43.098433" lon="-4.662500">
        <ele>2085.0</ele>
        <time>2013-09-04T15:00:57Z</time>
      </trkpt>
      <trkpt lat="43.098483" lon="-4.662650">
        <ele>2085.0</ele>
        <time>2013-09-04T15:00:58Z</time>
      </trkpt>
      <trkpt lat="43.098533" lon="-4.662800">
        <ele>2084.0</ele>
        <time>2013-09-04T15:00:59Z</time>
      </trkpt>
      <trkpt lat="43.098600" lon="-4.662917">
        <ele>2084.0</ele>
        <time>2013-09-04T15:01:00Z</time>
      </trkpt>
      <trkpt lat="43.098650" lon="-4.663033">
        <ele>2082.0</ele>
        <time>2013-09-04T15:01:01Z</time>
      </trkpt>
      <trkpt lat="43.098733" lon="-4.663150">
        <ele>2081.0</ele>
        <time>2013-09-04T15:01:02Z</time>
      </trkpt>
      <trkpt lat="43.098817" lon="-4.663267">
        <ele>2078.0</ele>
        <time>2013-09-04T15:01:03Z</time>
      </trkpt>
      <trkpt lat="43.098917" lon="-4.663400">
        <ele>2076.0</ele>
        <time>2013-09-04T15:01:04Z</time>
      </trkpt>
      <trkpt lat="43.099000" lon="-4.663533">
        <ele>2075.0</ele>
        <time>2013-09-04T15:01:05Z</time>
      </trkpt>
      <trkpt lat="43.099083" lon="-4.663683">
        <ele>2074.0</ele>
        <time>2013-09-04T15:01:06Z</time>
      </trkpt>
      <trkpt lat="43.099167" lon="-4.663833">
        <ele>2074.0</ele>
        <time>2013-09-04T15:01:07Z</time>
      </trkpt>
      <trkpt lat="43.099233" lon="-4.663983">
        <ele>2074.0</ele>
        <time>2013-09-04T15:01:08Z</time>
      </trkpt>
      <trkpt lat="43.099300" lon="-4.664117">
        <ele>2073.0</ele>
        <time>2013-09-04T15:01:09Z</time>
      </trkpt>
      <trkpt lat="43.099383" lon="-4.664250">
        <ele>2072.0</ele>
        <time>2013-09-04T15:01:10Z</time>
      </trkpt>
      <trkpt lat="43.099467" lon="-4.664383">
        <ele>2071.0</ele>
        <time>2013-09-04T15:01:11Z</time>
      </trkpt>
      <trkpt lat="43.099550" lon="-4.664533">
        <ele>2069.0</ele>
        <time>2013-09-04T15:01:12Z</time>
      </trkpt>
      <trkpt lat="43.099617" lon="-4.664683">
        <ele>2068.0</ele>
        <time>2013-09-04T15:01:13Z</time>
      </trkpt>
      <trkpt lat="43.099683" lon="-4.664817">
        <ele>2067.0</ele>
        <time>2013-09-04T15:01:14Z</time>
      </trkpt>
      <trkpt lat="43.099767" lon="-4.664950">
        <ele>2066.0</ele>
        <time>2013-09-04T15:01:15Z</time>
      </trkpt>
      <trkpt lat="43.099850" lon="-4.665083">
        <ele>2064.0</ele>
        <time>2013-09-04T15:01:16Z</time>
      </trkpt>
      <trkpt lat="43.099933" lon="-4.665233">
        <ele>2062.0</ele>
        <time>2013-09-04T15:01:17Z</time>
      </trkpt>
      <trkpt lat="43.100017" lon="-4.665383">
        <ele>2062.0</ele>
        <time>2013-09-04T15:01:18Z</time>
      </trkpt>
      <trkpt lat="43.100083" lon="-4.665517">
        <ele>2061.0</ele>
        <time>2013-09-04T15:01:19Z</time>
      </trkpt>
      <trkpt lat="43.100167" lon="-4.665667">
        <ele>2061.0</ele>
        <time>2013-09-04T15:01:20Z</time>
      </trkpt>
      <trkpt lat="43.100233" lon="-4.665800">
        <ele>2060.0</ele>
        <time>2013-09-04T15:01:21Z</time>
      </trkpt>
      <trkpt lat="43.100317" lon="-4.665933">
        <ele>2059.0</ele>
        <time>2013-09-04T15:01:22Z</time>
      </trkpt>
      <trkpt lat="43.100400" lon="-4.666083">
        <ele>2057.0</ele>
        <time>2013-09-04T15:01:23Z</time>
      </trkpt>
      <trkpt lat="43.100483" lon="-4.666217">
        <ele>2056.0</ele>
        <time>2013-09-04T15:01:24Z</time>
      </trkpt>
      <trkpt lat="43.100567" lon="-4.666367">
        <ele>2055.0</ele>
        <time>2013-09-04T15:01:25Z</time>
      </trkpt>
      <trkpt lat="43.100633" lon="-4.666500">
        <ele>2055.0</ele>
        <time>2013-09-04T15:01:26Z</time>
      </trkpt>
      <trkpt lat="43.100717" lon="-4.666633">
        <ele>2054.0</ele>
        <time>2013-09-04T15:01:27Z</time>
      </trkpt>
      <trkpt lat="43.100783" lon="-4.666767">
        <ele>2054.0</ele>
        <time>2013-09-04T15:01:28Z</time>
      </trkpt>
      <trkpt lat="43.100850" lon="-4.666900">
        <ele>2053.0</ele>
        <time>2013-09-04T15:01:29Z</time>
      </trkpt>
      <trkpt lat="43.100917" lon="-4.667033">
        <ele>2052.0</ele>
        <time>2013-09-04T15:01:30Z</time>
      </trkpt>
      <trkpt lat="43.101000" lon="-4.667183">
        <ele>2051.0</ele>
        <time>2013-09-04T15:01:31Z</time>
      </trkpt>
      <trkpt lat="43.101067" lon="-4.667333">
        <ele>2051.0</ele>
        <time>2013-09-04T15:01:32Z</time>
      </trkpt>
      <trkpt lat="43.101133" lon="-4.667467">
        <ele>2051.0</ele>
        <time>2013-09-04T15:01:33Z</time>
      </trkpt>
      <trkpt lat="43.101200" lon="-4.667600">
        <ele>2051.0</ele>
        <time>2013-09-04T15:01:34Z</time>
      </trkpt>
      <trkpt lat="43.101267" lon="-4.667733">
        <ele>2050.0</ele>
        <time>2013-09-04T15:01:35Z</time>
      </trkpt>
      <trkpt lat="43.101333" lon="-4.667867">
        <ele>2049.0</ele>
        <time>2013-09-04T15:01:36Z</time>
      </trkpt>
      <trkpt lat="43.101417" lon="-4.668000">
        <ele>2047.0</ele>
        <time>2013-09-04T15:01:37Z</time>
      </trkpt>
      <trkpt lat="43.101517" lon="-4.668133">
        <ele>2045.0</ele>
        <time>2013-09-04T15:01:38Z</time>
      </trkpt>
      <trkpt lat="43.101600" lon="-4.668250">
        <ele>2045.0</ele>
        <time>2013-09-04T15:01:39Z</time>
      </trkpt>
      <trkpt lat="43.101683" lon="-4.668383">
        <ele>2044.0</ele>
        <time>2013-09-04T15:01:40Z</time>
      </trkpt>
      <trkpt lat="43.101750" lon="-4.668517">
        <ele>2044.0</ele>
        <time>2013-09-04T15:01:41Z</time>
      </trkpt>
      <trkpt lat="43.101800" lon="-4.668667">
        <ele>2043.0</ele>
        <time>2013-09-04T15:01:42Z</time>
      </trkpt>
      <trkpt lat="43.101867" lon="-4.668800">
        <ele>2041.0</ele>
        <time>2013-09-04T15:01:43Z</time>
      </trkpt>
      <trkpt lat="43.101933" lon="-4.668950">
        <ele>2040.0</ele>
        <time>2013-09-04T15:01:44Z</time>
      </trkpt>
      <trkpt lat="43.102017" lon="-4.669083">
        <ele>2039.0</ele>
        <time>2013-09-04T15:01:45Z</time>
      </trkpt>
      <trkpt lat="43.102083" lon="-4.669217">
        <ele>2037.0</ele>
        <time>2013-09-04T15:01:46Z</time>
      </trkpt>
      <trkpt lat="43.102150" lon="-4.669333">
        <ele>2036.0</ele>
        <time>2013-09-04T15:01:47Z</time>
      </trkpt>
      <trkpt lat="43.102233" lon="-4.669483">
        <ele>2034.0</ele>
        <time>2013-09-04T15:01:48Z</time>
      </trkpt>
      <trkpt lat="43.102300" lon="-4.669617">
        <ele>2033.0</ele>
        <time>2013-09-04T15:01:49Z</time>
      </trkpt>
      <trkpt lat="43.102367" lon="-4.669767">
        <ele>2031.0</ele>
        <time>2013-09-04T15:01:50Z</time>
      </trkpt>
      <trkpt lat="43.102417" lon="-4.669900">
        <ele>2031.0</ele>
        <time>2013-09-04T15:01:51Z</time>
      </trkpt>
      <trkpt lat="43.102467" lon="-4.670050">
        <ele>2031.0</ele>
        <time>2013-09-04T15:01:52Z</time>
      </trkpt>
      <trkpt lat="43.102517" lon="-4.670183">
        <ele>2030.0</ele>
        <time>2013-09-04T15:01:53Z</time>
      </trkpt>
      <trkpt lat="43.102550" lon="-4.670317">
        <ele>2029.0</ele>
        <time>2013-09-04T15:01:54Z</time>
      </trkpt>
      <trkpt lat="43.102600" lon="-4.670450">
        <ele>2028.0</ele>
        <time>2013-09-04T15:01:55Z</time>
      </trkpt>
      <trkpt lat="43.102650" lon="-4.670600">
        <ele>2026.0</ele>
        <time>2013-09-04T15:01:56Z</time>
      </trkpt>
      <trkpt lat="43.102683" lon="-4.670767">
        <ele>2025.0</ele>
        <time>2013-09-04T15:01:57Z</time>
      </trkpt>
      <trkpt lat="43.102733" lon="-4.670917">
        <ele>2024.0</ele>
        <time>2013-09-04T15:01:58Z</time>
      </trkpt>
      <trkpt lat="43.102767" lon="-4.671050">
        <ele>2022.0</ele>
        <time>2013-09-04T15:01:59Z</time>
      </trkpt>
      <trkpt lat="43.102833" lon="-4.671183">
        <ele>2021.0</ele>
        <time>2013-09-04T15:02:00Z</time>
      </trkpt>
      <trkpt lat="43.102883" lon="-4.671317">
        <ele>2020.0</ele>
        <time>2013-09-04T15:02:01Z</time>
      </trkpt>
      <trkpt lat="43.102917" lon="-4.671450">
        <ele>2018.0</ele>
        <time>2013-09-04T15:02:02Z</time>
      </trkpt>
      <trkpt lat="43.102967" lon="-4.671600">
        <ele>2016.0</ele>
        <time>2013-09-04T15:02:03Z</time>
      </trkpt>
      <trkpt lat="43.103033" lon="-4.671750">
        <ele>2015.0</ele>
        <time>2013-09-04T15:02:04Z</time>
      </trkpt>
      <trkpt lat="43.103083" lon="-4.671867">
        <ele>2013.0</ele>
        <time>2013-09-04T15:02:05Z</time>
      </trkpt>
      <trkpt lat="43.103167" lon="-4.671983">
        <ele>2012.0</ele>
        <time>2013-09-04T15:02:06Z</time>
      </trkpt>
      <trkpt lat="43.103233" lon="-4.672100">
        <ele>2011.0</ele>
        <time>2013-09-04T15:02:07Z</time>
      </trkpt>
      <trkpt lat="43.103317" lon="-4.672183">
        <ele>2010.0</ele>
        <time>2013-09-04T15:02:08Z</time>
      </trkpt>
      <trkpt lat="43.103400" lon="-4.672267">
        <ele>2009.0</ele>
        <time>2013-09-04T15:02:09Z</time>
      </trkpt>
      <trkpt lat="43.103467" lon="-4.672350">
        <ele>2008.0</ele>
        <time>2013-09-04T15:02:10Z</time>
      </trkpt>
      <trkpt lat="43.103550" lon="-4.672433">
        <ele>2007.0</ele>
        <time>2013-09-04T15:02:11Z</time>
      </trkpt>
      <trkpt lat="43.103633" lon="-4.672517">
        <ele>2006.0</ele>
        <time>2013-09-04T15:02:12Z</time>
      </trkpt>
      <trkpt lat="43.103717" lon="-4.672583">
        <ele>2004.0</ele>
        <time>2013-09-04T15:02:13Z</time>
      </trkpt>
      <trkpt lat="43.103817" lon="-4.672667">
        <ele>2003.0</ele>
        <time>2013-09-04T15:02:14Z</time>
      </trkpt>
      <trkpt lat="43.103900" lon="-4.672767">
        <ele>2001.0</ele>
        <time>2013-09-04T15:02:15Z</time>
      </trkpt>
      <trkpt lat="43.103983" lon="-4.672850">
        <ele>2001.0</ele>
        <time>2013-09-04T15:02:16Z</time>
      </trkpt>
      <trkpt lat="43.104050" lon="-4.672950">
        <ele>2000.0</ele>
        <time>2013-09-04T15:02:17Z</time>
      </trkpt>
      <trkpt lat="43.104117" lon="-4.673050">
        <ele>2000.0</ele>
        <time>2013-09-04T15:02:18Z</time>
      </trkpt>
      <trkpt lat="43.104183" lon="-4.673150">
        <ele>1999.0</ele>
        <time>2013-09-04T15:02:19Z</time>
      </trkpt>
      <trkpt lat="43.104250" lon="-4.673250">
        <ele>1997.0</ele>
        <time>2013-09-04T15:02:20Z</time>
      </trkpt>
      <trkpt lat="43.104317" lon="-4.673367">
        <ele>1996.0</ele>
        <time>2013-09-04T15:02:21Z</time>
      </trkpt>
      <trkpt lat="43.104400" lon="-4.673500">
        <ele>1995.0</ele>
        <time>2013-09-04T15:02:22Z</time>
      </trkpt>
      <trkpt lat="43.104467" lon="-4.673633">
        <ele>1994.0</ele>
        <time>2013-09-04T15:02:23Z</time>
      </trkpt>
      <trkpt lat="43.104533" lon="-4.673767">
        <ele>1994.0</ele>
        <time>2013-09-04T15:02:24Z</time>
      </trkpt>
      <trkpt lat="43.104600" lon="-4.673883">
        <ele>1995.0</ele>
        <time>2013-09-04T15:02:25Z</time>
      </trkpt>
      <trkpt lat="43.104667" lon="-4.674017">
        <ele>1995.0</ele>
        <time>2013-09-04T15:02:26Z</time>
      </trkpt>
      <trkpt lat="43.104717" lon="-4.674133">
        <ele>1994.0</ele>
        <time>2013-09-04T15:02:27Z</time>
      </trkpt>
      <trkpt lat="43.104783" lon="-4.674267">
        <ele>1992.0</ele>
        <time>2013-09-04T15:02:28Z</time>
      </trkpt>
      <trkpt lat="43.104850" lon="-4.674417">
        <ele>1991.0</ele>
        <time>2013-09-04T15:02:29Z</time>
      </trkpt>
      <trkpt lat="43.104900" lon="-4.674550">
        <ele>1990.0</ele>
        <time>2013-09-04T15:02:30Z</time>
      </trkpt>
      <trkpt lat="43.104967" lon="-4.674683">
        <ele>1990.0</ele>
        <time>2013-09-04T15:02:31Z</time>
      </trkpt>
      <trkpt lat="43.105033" lon="-4.674817">
        <ele>1989.0</ele>
        <time>2013-09-04T15:02:32Z</time>
      </trkpt>
      <trkpt lat="43.105100" lon="-4.674933">
        <ele>1988.0</ele>
        <time>2013-09-04T15:02:33Z</time>
      </trkpt>
      <trkpt lat="43.105167" lon="-4.675067">
        <ele>1986.0</ele>
        <time>2013-09-04T15:02:34Z</time>
      </trkpt>
      <trkpt lat="43.105233" lon="-4.675217">
        <ele>1984.0</ele>
        <time>2013-09-04T15:02:35Z</time>
      </trkpt>
      <trkpt lat="43.105300" lon="-4.675367">
        <ele>1983.0</ele>
        <time>2013-09-04T15:02:36Z</time>
      </trkpt>
      <trkpt lat="43.105350" lon="-4.675500">
        <ele>1981.0</ele>
        <time>2013-09-04T15:02:37Z</time>
      </trkpt>
      <trkpt lat="43.105417" lon="-4.675650">
        <ele>1980.0</ele>
        <time>2013-09-04T15:02:38Z</time>
      </trkpt>
      <trkpt lat="43.105483" lon="-4.675783">
        <ele>1978.0</ele>
        <time>2013-09-04T15:02:39Z</time>
      </trkpt>
      <trkpt lat="43.105550" lon="-4.675900">
        <ele>1975.0</ele>
        <time>2013-09-04T15:02:40Z</time>
      </trkpt>
      <trkpt lat="43.105617" lon="-4.676033">
        <ele>1973.0</ele>
        <time>2013-09-04T15:02:41Z</time>
      </trkpt>
      <trkpt lat="43.105683" lon="-4.676167">
        <ele>1970.0</ele>
        <time>2013-09-04T15:02:42Z</time>
      </trkpt>
      <trkpt lat="43.105767" lon="-4.676317">
        <ele>1967.0</ele>
        <time>2013-09-04T15:02:43Z</time>
      </trkpt>
      <trkpt lat="43.105867" lon="-4.676450">
        <ele>1964.0</ele>
        <time>2013-09-04T15:02:44Z</time>
      </trkpt>
      <trkpt lat="43.105950" lon="-4.676583">
        <ele>1963.0</ele>
        <time>2013-09-04T15:02:45Z</time>
      </trkpt>
      <trkpt lat="43.106033" lon="-4.676717">
        <ele>1961.0</ele>
        <time>2013-09-04T15:02:46Z</time>
      </trkpt>
      <trkpt lat="43.106100" lon="-4.676850">
        <ele>1960.0</ele>
        <time>2013-09-04T15:02:47Z</time>
      </trkpt>
      <trkpt lat="43.106183" lon="-4.676983">
        <ele>1959.0</ele>
        <time>2013-09-04T15:02:48Z</time>
      </trkpt>
      <trkpt lat="43.106250" lon="-4.677100">
        <ele>1957.0</ele>
        <time>2013-09-04T15:02:49Z</time>
      </trkpt>
      <trkpt lat="43.106333" lon="-4.677217">
        <ele>1956.0</ele>
        <time>2013-09-04T15:02:50Z</time>
      </trkpt>
      <trkpt lat="43.106417" lon="-4.677317">
        <ele>1955.0</ele>
        <time>2013-09-04T15:02:51Z</time>
      </trkpt>
      <trkpt lat="43.106500" lon="-4.677433">
        <ele>1953.0</ele>
        <time>2013-09-04T15:02:52Z</time>
      </trkpt>
      <trkpt lat="43.106583" lon="-4.677533">
        <ele>1951.0</ele>
        <time>2013-09-04T15:02:53Z</time>
      </trkpt>
      <trkpt lat="43.106683" lon="-4.677650">
        <ele>1949.0</ele>
        <time>2013-09-04T15:02:54Z</time>
      </trkpt>
      <trkpt lat="43.106783" lon="-4.677750">
        <ele>1947.0</ele>
        <time>2013-09-04T15:02:55Z</time>
      </trkpt>
      <trkpt lat="43.106867" lon="-4.677867">
        <ele>1945.0</ele>
        <time>2013-09-04T15:02:56Z</time>
      </trkpt>
      <trkpt lat="43.106950" lon="-4.677967">
        <ele>1944.0</ele>
        <time>2013-09-04T15:02:57Z</time>
      </trkpt>
      <trkpt lat="43.107017" lon="-4.678083">
        <ele>1943.0</ele>
        <time>2013-09-04T15:02:58Z</time>
      </trkpt>
      <trkpt lat="43.107100" lon="-4.678200">
        <ele>1942.0</ele>
        <time>2013-09-04T15:02:59Z</time>
      </trkpt>
      <trkpt lat="43.107167" lon="-4.678300">
        <ele>1942.0</ele>
        <time>2013-09-04T15:03:00Z</time>
      </trkpt>
      <trkpt lat="43.107217" lon="-4.678417">
        <ele>1941.0</ele>
        <time>2013-09-04T15:03:01Z</time>
      </trkpt>
      <trkpt lat="43.107283" lon="-4.678517">
        <ele>1941.0</ele>
        <time>2013-09-04T15:03:02Z</time>
      </trkpt>
      <trkpt lat="43.107333" lon="-4.678650">
        <ele>1941.0</ele>
        <time>2013-09-04T15:03:03Z</time>
      </trkpt>
      <trkpt lat="43.107383" lon="-4.678767">
        <ele>1940.0</ele>
        <time>2013-09-04T15:03:04Z</time>
      </trkpt>
      <trkpt lat="43.107417" lon="-4.678900">
        <ele>1939.0</ele>
        <time>2013-09-04T15:03:05Z</time>
      </trkpt>
      <trkpt lat="43.107467" lon="-4.679033">
        <ele>1939.0</ele>
        <time>2013-09-04T15:03:06Z</time>
      </trkpt>
      <trkpt lat="43.107517" lon="-4.679167">
        <ele>1937.0</ele>
        <time>2013-09-04T15:03:07Z</time>
      </trkpt>
      <trkpt lat="43.107567" lon="-4.679300">
        <ele>1936.0</ele>
        <time>2013-09-04T15:03:08Z</time>
      </trkpt>
      <trkpt lat="43.107617" lon="-4.679433">
        <ele>1935.0</ele>
        <time>2013-09-04T15:03:09Z</time>
      </trkpt>
      <trkpt lat="43.107667" lon="-4.679567">
        <ele>1934.0</ele>
        <time>2013-09-04T15:03:10Z</time>
      </trkpt>
      <trkpt lat="43.107700" lon="-4.679717">
        <ele>1933.0</ele>
        <time>2013-09-04T15:03:11Z</time>
      </trkpt>
      <trkpt lat="43.107750" lon="-4.679850">
        <ele>1932.0</ele>
        <time>2013-09-04T15:03:12Z</time>
      </trkpt>
      <trkpt lat="43.107800" lon="-4.679983">
        <ele>1931.0</ele>
        <time>2013-09-04T15:03:13Z</time>
      </trkpt>
      <trkpt lat="43.107833" lon="-4.680117">
        <ele>1931.0</ele>
        <time>2013-09-04T15:03:14Z</time>
      </trkpt>
      <trkpt lat="43.107883" lon="-4.680250">
        <ele>1930.0</ele>
        <time>2013-09-04T15:03:15Z</time>
      </trkpt>
      <trkpt lat="43.107933" lon="-4.680383">
        <ele>1930.0</ele>
        <time>2013-09-04T15:03:16Z</time>
      </trkpt>
      <trkpt lat="43.107983" lon="-4.680517">
        <ele>1929.0</ele>
        <time>2013-09-04T15:03:17Z</time>
      </trkpt>
      <trkpt lat="43.108033" lon="-4.680650">
        <ele>1927.0</ele>
        <time>2013-09-04T15:03:18Z</time>
      </trkpt>
      <trkpt lat="43.108083" lon="-4.680783">
        <ele>1925.0</ele>
        <time>2013-09-04T15:03:19Z</time>
      </trkpt>
      <trkpt lat="43.108133" lon="-4.680917">
        <ele>1924.0</ele>
        <time>2013-09-04T15:03:20Z</time>
      </trkpt>
      <trkpt lat="43.108167" lon="-4.681067">
        <ele>1923.0</ele>
        <time>2013-09-04T15:03:21Z</time>
      </trkpt>
      <trkpt lat="43.108200" lon="-4.681217">
        <ele>1923.0</ele>
        <time>2013-09-04T15:03:22Z</time>
      </trkpt>
      <trkpt lat="43.108233" lon="-4.681350">
        <ele>1922.0</ele>
        <time>2013-09-04T15:03:23Z</time>
      </trkpt>
      <trkpt lat="43.108283" lon="-4.681483">
        <ele>1921.0</ele>
        <time>2013-09-04T15:03:24Z</time>
      </trkpt>
      <trkpt lat="43.108317" lon="-4.681600">
        <ele>1920.0</ele>
        <time>2013-09-04T15:03:25Z</time>
      </trkpt>
      <trkpt lat="43.108383" lon="-4.681733">
        <ele>1919.0</ele>
        <time>2013-09-04T15:03:26Z</time>
      </trkpt>
      <trkpt lat="43.108433" lon="-4.681867">
        <ele>1918.0</ele>
        <time>2013-09-04T15:03:27Z</time>
      </trkpt>
      <trkpt lat="43.108467" lon="-4.682000">
        <ele>1917.0</ele>
        <time>2013-09-04T15:03:28Z</time>
      </trkpt>
      <trkpt lat="43.108517" lon="-4.682133">
        <ele>1916.0</ele>
        <time>2013-09-04T15:03:29Z</time>
      </trkpt>
      <trkpt lat="43.108567" lon="-4.682267">
        <ele>1914.0</ele>
        <time>2013-09-04T15:03:30Z</time>
      </trkpt>
      <trkpt lat="43.108633" lon="-4.682383">
        <ele>1913.0</ele>
        <time>2013-09-04T15:03:31Z</time>
      </trkpt>
      <trkpt lat="43.108683" lon="-4.682517">
        <ele>1911.0</ele>
        <time>2013-09-04T15:03:32Z</time>
      </trkpt>
      <trkpt lat="43.108733" lon="-4.682650">
        <ele>1910.0</ele>
        <time>2013-09-04T15:03:33Z</time>
      </trkpt>
      <trkpt lat="43.108783" lon="-4.682783">
        <ele>1908.0</ele>
        <time>2013-09-04T15:03:34Z</time>
      </trkpt>
      <trkpt lat="43.108817" lon="-4.682933">
        <ele>1906.0</ele>
        <time>2013-09-04T15:03:35Z</time>
      </trkpt>
      <trkpt lat="43.108867" lon="-4.683083">
        <ele>1904.0</ele>
        <time>2013-09-04T15:03:36Z</time>
      </trkpt>
      <trkpt lat="43.108900" lon="-4.683233">
        <ele>1901.0</ele>
        <time>2013-09-04T15:03:37Z</time>
      </trkpt>
      <trkpt lat="43.108967" lon="-4.683383">
        <ele>1900.0</ele>
        <time>2013-09-04T15:03:38Z</time>
      </trkpt>
      <trkpt lat="43.109017" lon="-4.683517">
        <ele>1899.0</ele>
        <time>2013-09-04T15:03:39Z</time>
      </trkpt>
      <trkpt lat="43.109067" lon="-4.683667">
        <ele>1898.0</ele>
        <time>2013-09-04T15:03:40Z</time>
      </trkpt>
      <trkpt lat="43.109100" lon="-4.683817">
        <ele>1897.0</ele>
        <time>2013-09-04T15:03:41Z</time>
      </trkpt>
      <trkpt lat="43.109150" lon="-4.683967">
        <ele>1895.0</ele>
        <time>2013-09-04T15:03:42Z</time>
      </trkpt>
      <trkpt lat="43.109200" lon="-4.684117">
        <ele>1893.0</ele>
        <time>2013-09-04T15:03:43Z</time>
      </trkpt>
      <trkpt lat="43.109250" lon="-4.684267">
        <ele>1892.0</ele>
        <time>2013-09-04T15:03:44Z</time>
      </trkpt>
      <trkpt lat="43.109300" lon="-4.684417">
        <ele>1890.0</ele>
        <time>2013-09-04T15:03:45Z</time>
      </trkpt>
      <trkpt lat="43.109350" lon="-4.684567">
        <ele>1888.0</ele>
        <time>2013-09-04T15:03:46Z</time>
      </trkpt>
      <trkpt lat="43.109417" lon="-4.684717">
        <ele>1886.0</ele>
        <time>2013-09-04T15:03:47Z</time>
      </trkpt>
      <trkpt lat="43.109467" lon="-4.684850">
        <ele>1885.0</ele>
        <time>2013-09-04T15:03:48Z</time>
      </trkpt>
      <trkpt lat="43.109533" lon="-4.684983">
        <ele>1883.0</ele>
        <time>2013-09-04T15:03:49Z</time>
      </trkpt>
      <trkpt lat="43.109583" lon="-4.685100">
        <ele>1882.0</ele>
        <time>2013-09-04T15:03:50Z</time>
      </trkpt>
      <trkpt lat="43.109650" lon="-4.685233">
        <ele>1880.0</ele>
        <time>2013-09-04T15:03:51Z</time>
      </trkpt>
      <trkpt lat="43.109700" lon="-4.685367">
        <ele>1878.0</ele>
        <time>2013-09-04T15:03:52Z</time>
      </trkpt>
      <trkpt lat="43.109750" lon="-4.685500">
        <ele>1876.0</ele>
        <time>2013-09-04T15:03:53Z</time>
      </trkpt>
      <trkpt lat="43.109800" lon="-4.685633">
        <ele>1874.0</ele>
        <time>2013-09-04T15:03:54Z</time>
      </trkpt>
      <trkpt lat="43.109850" lon="-4.685767">
        <ele>1871.0</ele>
        <time>2013-09-04T15:03:55Z</time>
      </trkpt>
      <trkpt lat="43.109900" lon="-4.685900">
        <ele>1869.0</ele>
        <time>2013-09-04T15:03:56Z</time>
      </trkpt>
      <trkpt lat="43.109950" lon="-4.686033">
        <ele>1866.0</ele>
        <time>2013-09-04T15:03:57Z</time>
      </trkpt>
      <trkpt lat="43.110000" lon="-4.686183">
        <ele>1863.0</ele>
        <time>2013-09-04T15:03:58Z</time>
      </trkpt>
      <trkpt lat="43.110050" lon="-4.686317">
        <ele>1860.0</ele>
        <time>2013-09-04T15:03:59Z</time>
      </trkpt>
      <trkpt lat="43.110117" lon="-4.686467">
        <ele>1858.0</ele>
        <time>2013-09-04T15:04:00Z</time>
      </trkpt>
      <trkpt lat="43.110167" lon="-4.686617">
        <ele>1856.0</ele>
        <time>2013-09-04T15:04:01Z</time>
      </trkpt>
      <trkpt lat="43.110217" lon="-4.686750">
        <ele>1854.0</ele>
        <time>2013-09-04T15:04:02Z</time>
      </trkpt>
      <trkpt lat="43.110267" lon="-4.686883">
        <ele>1853.0</ele>
        <time>2013-09-04T15:04:03Z</time>
      </trkpt>
      <trkpt lat="43.110300" lon="-4.687017">
        <ele>1851.0</ele>
        <time>2013-09-04T15:04:04Z</time>
      </trkpt>
      <trkpt lat="43.110350" lon="-4.687167">
        <ele>1849.0</ele>
        <time>2013-09-04T15:04:05Z</time>
      </trkpt>
      <trkpt lat="43.110400" lon="-4.687317">
        <ele>1846.0</ele>
        <time>2013-09-04T15:04:06Z</time>
      </trkpt>
      <trkpt lat="43.110450" lon="-4.687467">
        <ele>1843.0</ele>
        <time>2013-09-04T15:04:07Z</time>
      </trkpt>
      <trkpt lat="43.110500" lon="-4.687617">
        <ele>1842.0</ele>
        <time>2013-09-04T15:04:08Z</time>
      </trkpt>
      <trkpt lat="43.110550" lon="-4.687767">
        <ele>1840.0</ele>
        <time>2013-09-04T15:04:09Z</time>
      </trkpt>
      <trkpt lat="43.110600" lon="-4.687900">
        <ele>1838.0</ele>
        <time>2013-09-04T15:04:10Z</time>
      </trkpt>
      <trkpt lat="43.110650" lon="-4.688050">
        <ele>1836.0</ele>
        <time>2013-09-04T15:04:11Z</time>
      </trkpt>
      <trkpt lat="43.110700" lon="-4.688200">
        <ele>1834.0</ele>
        <time>2013-09-04T15:04:12Z</time>
      </trkpt>
      <trkpt lat="43.110767" lon="-4.688367">
        <ele>1832.0</ele>
        <time>2013-09-04T15:04:13Z</time>
      </trkpt>
      <trkpt lat="43.110817" lon="-4.688517">
        <ele>1831.0</ele>
        <time>2013-09-04T15:04:14Z</time>
      </trkpt>
      <trkpt lat="43.110883" lon="-4.688650">
        <ele>1831.0</ele>
        <time>2013-09-04T15:04:15Z</time>
      </trkpt>
      <trkpt lat="43.110950" lon="-4.688783">
        <ele>1830.0</ele>
        <time>2013-09-04T15:04:16Z</time>
      </trkpt>
      <trkpt lat="43.111000" lon="-4.688900">
        <ele>1829.0</ele>
        <time>2013-09-04T15:04:17Z</time>
      </trkpt>
      <trkpt lat="43.111067" lon="-4.689050">
        <ele>1827.0</ele>
        <time>2013-09-04T15:04:18Z</time>
      </trkpt>
      <trkpt lat="43.111117" lon="-4.689183">
        <ele>1825.0</ele>
        <time>2013-09-04T15:04:19Z</time>
      </trkpt>
      <trkpt lat="43.111183" lon="-4.689333">
        <ele>1822.0</ele>
        <time>2013-09-04T15:04:20Z</time>
      </trkpt>
      <trkpt lat="43.111250" lon="-4.689483">
        <ele>1820.0</ele>
        <time>2013-09-04T15:04:21Z</time>
      </trkpt>
      <trkpt lat="43.111317" lon="-4.689633">
        <ele>1818.0</ele>
        <time>2013-09-04T15:04:22Z</time>
      </trkpt>
      <trkpt lat="43.111400" lon="-4.689767">
        <ele>1816.0</ele>
        <time>2013-09-04T15:04:23Z</time>
      </trkpt>
      <trkpt lat="43.111467" lon="-4.689900">
        <ele>1814.0</ele>
        <time>2013-09-04T15:04:24Z</time>
      </trkpt>
      <trkpt lat="43.111533" lon="-4.690050">
        <ele>1812.0</ele>
        <time>2013-09-04T15:04:25Z</time>
      </trkpt>
      <trkpt lat="43.111600" lon="-4.690200">
        <ele>1810.0</ele>
        <time>2013-09-04T15:04:26Z</time>
      </trkpt>
      <trkpt lat="43.111667" lon="-4.690367">
        <ele>1809.0</ele>
        <time>2013-09-04T15:04:27Z</time>
      </trkpt>
      <trkpt lat="43.111733" lon="-4.690517">
        <ele>1808.0</ele>
        <time>2013-09-04T15:04:28Z</time>
      </trkpt>
      <trkpt lat="43.111783" lon="-4.690667">
        <ele>1807.0</ele>
        <time>2013-09-04T15:04:29Z</time>
      </trkpt>
      <trkpt lat="43.111833" lon="-4.690800">
        <ele>1807.0</ele>
        <time>2013-09-04T15:04:30Z</time>
      </trkpt>
      <trkpt lat="43.111883" lon="-4.690950">
        <ele>1806.0</ele>
        <time>2013-09-04T15:04:31Z</time>
      </trkpt>
      <trkpt lat="43.111950" lon="-4.691083">
        <ele>1804.0</ele>
        <time>2013-09-04T15:04:32Z</time>
      </trkpt>
      <trkpt lat="43.112000" lon="-4.691233">
        <ele>1803.0</ele>
        <time>2013-09-04T15:04:33Z</time>
      </trkpt>
      <trkpt lat="43.112050" lon="-4.691367">
        <ele>1802.0</ele>
        <time>2013-09-04T15:04:34Z</time>
      </trkpt>
      <trkpt lat="43.112100" lon="-4.691500">
        <ele>1801.0</ele>
        <time>2013-09-04T15:04:35Z</time>
      </trkpt>
      <trkpt lat="43.112150" lon="-4.691617">
        <ele>1801.0</ele>
        <time>2013-09-04T15:04:36Z</time>
      </trkpt>
      <trkpt lat="43.112183" lon="-4.691750">
        <ele>1799.0</ele>
        <time>2013-09-04T15:04:37Z</time>
      </trkpt>
      <trkpt lat="43.112233" lon="-4.691883">
        <ele>1797.0</ele>
        <time>2013-09-04T15:04:38Z</time>
      </trkpt>
      <trkpt lat="43.112283" lon="-4.692017">
        <ele>1795.0</ele>
        <time>2013-09-04T15:04:39Z</time>
      </trkpt>
      <trkpt lat="43.112317" lon="-4.692167">
        <ele>1794.0</ele>
        <time>2013-09-04T15:04:40Z</time>
      </trkpt>
      <trkpt lat="43.112350" lon="-4.692317">
        <ele>1792.0</ele>
        <time>2013-09-04T15:04:41Z</time>
      </trkpt>
      <trkpt lat="43.112383" lon="-4.692467">
        <ele>1791.0</ele>
        <time>2013-09-04T15:04:42Z</time>
      </trkpt>
      <trkpt lat="43.112417" lon="-4.692617">
        <ele>1790.0</ele>
        <time>2013-09-04T15:04:43Z</time>
      </trkpt>
      <trkpt lat="43.112433" lon="-4.692767">
        <ele>1788.0</ele>
        <time>2013-09-04T15:04:44Z</time>
      </trkpt>
      <trkpt lat="43.112467" lon="-4.692917">
        <ele>1787.0</ele>
        <time>2013-09-04T15:04:45Z</time>
      </trkpt>
      <trkpt lat="43.112517" lon="-4.693050">
        <ele>1786.0</ele>
        <time>2013-09-04T15:04:46Z</time>
      </trkpt>
      <trkpt lat="43.112567" lon="-4.693183">
        <ele>1785.0</ele>
        <time>2013-09-04T15:04:47Z</time>
      </trkpt>
      <trkpt lat="43.112617" lon="-4.693317">
        <ele>1784.0</ele>
        <time>2013-09-04T15:04:48Z</time>
      </trkpt>
      <trkpt lat="43.112667" lon="-4.693433">
        <ele>1783.0</ele>
        <time>2013-09-04T15:04:49Z</time>
      </trkpt>
      <trkpt lat="43.112733" lon="-4.693567">
        <ele>1781.0</ele>
        <time>2013-09-04T15:04:50Z</time>
      </trkpt>
      <trkpt lat="43.112800" lon="-4.693683">
        <ele>1780.0</ele>
        <time>2013-09-04T15:04:51Z</time>
      </trkpt>
      <trkpt lat="43.112867" lon="-4.693800">
        <ele>1779.0</ele>
        <time>2013-09-04T15:04:52Z</time>
      </trkpt>
      <trkpt lat="43.112933" lon="-4.693917">
        <ele>1777.0</ele>
        <time>2013-09-04T15:04:53Z</time>
      </trkpt>
      <trkpt lat="43.113017" lon="-4.694033">
        <ele>1777.0</ele>
        <time>2013-09-04T15:04:54Z</time>
      </trkpt>
      <trkpt lat="43.113083" lon="-4.694133">
        <ele>1776.0</ele>
        <time>2013-09-04T15:04:55Z</time>
      </trkpt>
      <trkpt lat="43.113150" lon="-4.694233">
        <ele>1774.0</ele>
        <time>2013-09-04T15:04:56Z</time>
      </trkpt>
      <trkpt lat="43.113233" lon="-4.694333">
        <ele>1773.0</ele>
        <time>2013-09-04T15:04:57Z</time>
      </trkpt>
      <trkpt lat="43.113317" lon="-4.694450">
        <ele>1772.0</ele>
        <time>2013-09-04T15:04:58Z</time>
      </trkpt>
      <trkpt lat="43.113400" lon="-4.694550">
        <ele>1771.0</ele>
        <time>2013-09-04T15:04:59Z</time>
      </trkpt>
      <trkpt lat="43.113467" lon="-4.694667">
        <ele>1770.0</ele>
        <time>2013-09-04T15:05:00Z</time>
      </trkpt>
      <trkpt lat="43.113550" lon="-4.694767">
        <ele>1769.0</ele>
        <time>2013-09-04T15:05:01Z</time>
      </trkpt>
      <trkpt lat="43.113617" lon="-4.694883">
        <ele>1769.0</ele>
        <time>2013-09-04T15:05:02Z</time>
      </trkpt>
      <trkpt lat="43.113683" lon="-4.694983">
        <ele>1768.0</ele>
        <time>2013-09-04T15:05:03Z</time>
      </trkpt>
      <trkpt lat="43.113750" lon="-4.695100">
        <ele>1768.0</ele>
        <time>2013-09-04T15:05:04Z</time>
      </trkpt>
      <trkpt lat="43.113817" lon="-4.695217">
        <ele>1768.0</ele>
        <time>2013-09-04T15:05:05Z</time>
      </trkpt>
      <trkpt lat="43.113867" lon="-4.695333">
        <ele>1768.0</ele>
        <time>2013-09-04T15:05:06Z</time>
      </trkpt>
      <trkpt lat="43.113933" lon="-4.695433">
        <ele>1767.0</ele>
        <time>2013-09-04T15:05:07Z</time>
      </trkpt>
      <trkpt lat="43.114000" lon="-4.695533">
        <ele>1766.0</ele>
        <time>2013-09-04T15:05:08Z</time>
      </trkpt>
      <trkpt lat="43.114067" lon="-4.695633">
        <ele>1765.0</ele>
        <time>2013-09-04T15:05:09Z</time>
      </trkpt>
      <trkpt lat="43.114133" lon="-4.695733">
        <ele>1764.0</ele>
        <time>2013-09-04T15:05:10Z</time>
      </trkpt>
      <trkpt lat="43.114217" lon="-4.695850">
        <ele>1764.0</ele>
        <time>2013-09-04T15:05:11Z</time>
      </trkpt>
      <trkpt lat="43.114283" lon="-4.695950">
        <ele>1763.0</ele>
        <time>2013-09-04T15:05:12Z</time>
      </trkpt>
      <trkpt lat="43.114350" lon="-4.696067">
        <ele>1762.0</ele>
        <time>2013-09-04T15:05:13Z</time>
      </trkpt>
      <trkpt lat="43.114417" lon="-4.696183">
        <ele>1762.0</ele>
        <time>2013-09-04T15:05:14Z</time>
      </trkpt>
      <trkpt lat="43.114483" lon="-4.696300">
        <ele>1762.0</ele>
        <time>2013-09-04T15:05:15Z</time>
      </trkpt>
      <trkpt lat="43.114550" lon="-4.696417">
        <ele>1761.0</ele>
        <time>2013-09-04T15:05:16Z</time>
      </trkpt>
      <trkpt lat="43.114617" lon="-4.696517">
        <ele>1761.0</ele>
        <time>2013-09-04T15:05:17Z</time>
      </trkpt>
      <trkpt lat="43.114667" lon="-4.696633">
        <ele>1761.0</ele>
        <time>2013-09-04T15:05:18Z</time>
      </trkpt>
      <trkpt lat="43.114717" lon="-4.696750">
        <ele>1761.0</ele>
        <time>2013-09-04T15:05:19Z</time>
      </trkpt>
      <trkpt lat="43.114733" lon="-4.696883">
        <ele>1761.0</ele>
        <time>2013-09-04T15:05:20Z</time>
      </trkpt>
      <trkpt lat="43.114717" lon="-4.697017">
        <ele>1760.0</ele>
        <time>2013-09-04T15:05:21Z</time>
      </trkpt>
      <trkpt lat="43.114683" lon="-4.697150">
        <ele>1758.0</ele>
        <time>2013-09-04T15:05:22Z</time>
      </trkpt>
      <trkpt lat="43.114633" lon="-4.697283">
        <ele>1756.0</ele>
        <time>2013-09-04T15:05:23Z</time>
      </trkpt>
      <trkpt lat="43.114583" lon="-4.697400">
        <ele>1755.0</ele>
        <time>2013-09-04T15:05:24Z</time>
      </trkpt>
      <trkpt lat="43.114517" lon="-4.697517">
        <ele>1754.0</ele>
        <time>2013-09-04T15:05:25Z</time>
      </trkpt>
      <trkpt lat="43.114467" lon="-4.697617">
        <ele>1753.0</ele>
        <time>2013-09-04T15:05:26Z</time>
      </trkpt>
      <trkpt lat="43.114400" lon="-4.697700">
        <ele>1751.0</ele>
        <time>2013-09-04T15:05:27Z</time>
      </trkpt>
      <trkpt lat="43.114317" lon="-4.697783">
        <ele>1749.0</ele>
        <time>2013-09-04T15:05:28Z</time>
      </trkpt>
      <trkpt lat="43.114217" lon="-4.697850">
        <ele>1747.0</ele>
        <time>2013-09-04T15:05:29Z</time>
      </trkpt>
      <trkpt lat="43.114133" lon="-4.697917">
        <ele>1746.0</ele>
        <time>2013-09-04T15:05:30Z</time>
      </trkpt>
      <trkpt lat="43.114067" lon="-4.698000">
        <ele>1746.0</ele>
        <time>2013-09-04T15:05:31Z</time>
      </trkpt>
      <trkpt lat="43.114000" lon="-4.698067">
        <ele>1746.0</ele>
        <time>2013-09-04T15:05:32Z</time>
      </trkpt>
      <trkpt lat="43.113933" lon="-4.698117">
        <ele>1745.0</ele>
        <time>2013-09-04T15:05:33Z</time>
      </trkpt>
      <trkpt lat="43.113850" lon="-4.698167">
        <ele>1743.0</ele>
        <time>2013-09-04T15:05:34Z</time>
      </trkpt>
      <trkpt lat="43.113767" lon="-4.698217">
        <ele>1741.0</ele>
        <time>2013-09-04T15:05:35Z</time>
      </trkpt>
      <trkpt lat="43.113683" lon="-4.698283">
        <ele>1739.0</ele>
        <time>2013-09-04T15:05:36Z</time>
      </trkpt>
      <trkpt lat="43.113600" lon="-4.698333">
        <ele>1738.0</ele>
        <time>2013-09-04T15:05:37Z</time>
      </trkpt>
      <trkpt lat="43.113517" lon="-4.698400">
        <ele>1738.0</ele>
        <time>2013-09-04T15:05:38Z</time>
      </trkpt>
      <trkpt lat="43.113467" lon="-4.698450">
        <ele>1737.0</ele>
        <time>2013-09-04T15:05:39Z</time>
      </trkpt>
      <trkpt lat="43.113400" lon="-4.698517">
        <ele>1736.0</ele>
        <time>2013-09-04T15:05:40Z</time>
      </trkpt>
      <trkpt lat="43.113350" lon="-4.698583">
        <ele>1733.0</ele>
        <time>2013-09-04T15:05:41Z</time>
      </trkpt>
      <trkpt lat="43.113267" lon="-4.698633">
        <ele>1730.0</ele>
        <time>2013-09-04T15:05:42Z</time>
      </trkpt>
      <trkpt lat="43.113183" lon="-4.698717">
        <ele>1727.0</ele>
        <time>2013-09-04T15:05:43Z</time>
      </trkpt>
      <trkpt lat="43.113083" lon="-4.698783">
        <ele>1725.0</ele>
        <time>2013-09-04T15:05:44Z</time>
      </trkpt>
      <trkpt lat="43.113000" lon="-4.698833">
        <ele>1725.0</ele>
        <time>2013-09-04T15:05:45Z</time>
      </trkpt>
      <trkpt lat="43.112917" lon="-4.698867">
        <ele>1725.0</ele>
        <time>2013-09-04T15:05:46Z</time>
      </trkpt>
      <trkpt lat="43.112850" lon="-4.698900">
        <ele>1725.0</ele>
        <time>2013-09-04T15:05:47Z</time>
      </trkpt>
      <trkpt lat="43.112783" lon="-4.698917">
        <ele>1726.0</ele>
        <time>2013-09-04T15:05:48Z</time>
      </trkpt>
      <trkpt lat="43.112717" lon="-4.698950">
        <ele>1725.0</ele>
        <time>2013-09-04T15:05:49Z</time>
      </trkpt>
      <trkpt lat="43.112650" lon="-4.699000">
        <ele>1724.0</ele>
        <time>2013-09-04T15:05:50Z</time>
      </trkpt>
      <trkpt lat="43.112583" lon="-4.699067">
        <ele>1722.0</ele>
        <time>2013-09-04T15:05:51Z</time>
      </trkpt>
      <trkpt lat="43.112500" lon="-4.699133">
        <ele>1721.0</ele>
        <time>2013-09-04T15:05:52Z</time>
      </trkpt>
      <trkpt lat="43.112417" lon="-4.699183">
        <ele>1721.0</ele>
        <time>2013-09-04T15:05:53Z</time>
      </trkpt>
      <trkpt lat="43.112333" lon="-4.699233">
        <ele>1721.0</ele>
        <time>2013-09-04T15:05:54Z</time>
      </trkpt>
      <trkpt lat="43.112250" lon="-4.699300">
        <ele>1722.0</ele>
        <time>2013-09-04T15:05:55Z</time>
      </trkpt>
      <trkpt lat="43.112183" lon="-4.699350">
        <ele>1722.0</ele>
        <time>2013-09-04T15:05:56Z</time>
      </trkpt>
      <trkpt lat="43.112117" lon="-4.699400">
        <ele>1722.0</ele>
        <time>2013-09-04T15:05:57Z</time>
      </trkpt>
      <trkpt lat="43.112050" lon="-4.699450">
        <ele>1721.0</ele>
        <time>2013-09-04T15:05:58Z</time>
      </trkpt>
      <trkpt lat="43.111950" lon="-4.699500">
        <ele>1720.0</ele>
        <time>2013-09-04T15:05:59Z</time>
      </trkpt>
      <trkpt lat="43.111867" lon="-4.699550">
        <ele>1720.0</ele>
        <time>2013-09-04T15:06:00Z</time>
      </trkpt>
      <trkpt lat="43.111783" lon="-4.699600">
        <ele>1720.0</ele>
        <time>2013-09-04T15:06:01Z</time>
      </trkpt>
      <trkpt lat="43.111700" lon="-4.699667">
        <ele>1721.0</ele>
        <time>2013-09-04T15:06:02Z</time>
      </trkpt>
      <trkpt lat="43.111617" lon="-4.699733">
        <ele>1721.0</ele>
        <time>2013-09-04T15:06:03Z</time>
      </trkpt>
      <trkpt lat="43.111550" lon="-4.699800">
        <ele>1720.0</ele>
        <time>2013-09-04T15:06:04Z</time>
      </trkpt>
      <trkpt lat="43.111467" lon="-4.699867">
        <ele>1720.0</ele>
        <time>2013-09-04T15:06:05Z</time>
      </trkpt>
      <trkpt lat="43.111383" lon="-4.699933">
        <ele>1719.0</ele>
        <time>2013-09-04T15:06:06Z</time>
      </trkpt>
      <trkpt lat="43.111300" lon="-4.700000">
        <ele>1718.0</ele>
        <time>2013-09-04T15:06:07Z</time>
      </trkpt>
      <trkpt lat="43.111217" lon="-4.700067">
        <ele>1718.0</ele>
        <time>2013-09-04T15:06:08Z</time>
      </trkpt>
      <trkpt lat="43.111133" lon="-4.700150">
        <ele>1717.0</ele>
        <time>2013-09-04T15:06:09Z</time>
      </trkpt>
      <trkpt lat="43.111067" lon="-4.700217">
        <ele>1717.0</ele>
        <time>2013-09-04T15:06:10Z</time>
      </trkpt>
      <trkpt lat="43.110983" lon="-4.700300">
        <ele>1716.0</ele>
        <time>2013-09-04T15:06:11Z</time>
      </trkpt>
      <trkpt lat="43.110917" lon="-4.700383">
        <ele>1716.0</ele>
        <time>2013-09-04T15:06:12Z</time>
      </trkpt>
      <trkpt lat="43.110850" lon="-4.700467">
        <ele>1716.0</ele>
        <time>2013-09-04T15:06:13Z</time>
      </trkpt>
      <trkpt lat="43.110783" lon="-4.700533">
        <ele>1715.0</ele>
        <time>2013-09-04T15:06:14Z</time>
      </trkpt>
      <trkpt lat="43.110700" lon="-4.700600">
        <ele>1714.0</ele>
        <time>2013-09-04T15:06:15Z</time>
      </trkpt>
      <trkpt lat="43.110633" lon="-4.700667">
        <ele>1713.0</ele>
        <time>2013-09-04T15:06:16Z</time>
      </trkpt>
      <trkpt lat="43.110550" lon="-4.700750">
        <ele>1712.0</ele>
        <time>2013-09-04T15:06:17Z</time>
      </trkpt>
      <trkpt lat="43.110467" lon="-4.700817">
        <ele>1711.0</ele>
        <time>2013-09-04T15:06:18Z</time>
      </trkpt>
      <trkpt lat="43.110400" lon="-4.700867">
        <ele>1710.0</ele>
        <time>2013-09-04T15:06:19Z</time>
      </trkpt>
      <trkpt lat="43.110317" lon="-4.700917">
        <ele>1710.0</ele>
        <time>2013-09-04T15:06:20Z</time>
      </trkpt>
      <trkpt lat="43.110250" lon="-4.700983">
        <ele>1708.0</ele>
        <time>2013-09-04T15:06:21Z</time>
      </trkpt>
      <trkpt lat="43.110167" lon="-4.701033">
        <ele>1707.0</ele>
        <time>2013-09-04T15:06:22Z</time>
      </trkpt>
      <trkpt lat="43.110083" lon="-4.701083">
        <ele>1705.0</ele>
        <time>2013-09-04T15:06:23Z</time>
      </trkpt>
      <trkpt lat="43.110000" lon="-4.701150">
        <ele>1704.0</ele>
        <time>2013-09-04T15:06:24Z</time>
      </trkpt>
      <trkpt lat="43.109917" lon="-4.701217">
        <ele>1703.0</ele>
        <time>2013-09-04T15:06:25Z</time>
      </trkpt>
      <trkpt lat="43.109833" lon="-4.701283">
        <ele>1703.0</ele>
        <time>2013-09-04T15:06:26Z</time>
      </trkpt>
      <trkpt lat="43.109767" lon="-4.701350">
        <ele>1702.0</ele>
        <time>2013-09-04T15:06:27Z</time>
      </trkpt>
      <trkpt lat="43.109700" lon="-4.701417">
        <ele>1701.0</ele>
        <time>2013-09-04T15:06:28Z</time>
      </trkpt>
      <trkpt lat="43.109617" lon="-4.701483">
        <ele>1700.0</ele>
        <time>2013-09-04T15:06:29Z</time>
      </trkpt>
      <trkpt lat="43.109550" lon="-4.701567">
        <ele>1698.0</ele>
        <time>2013-09-04T15:06:30Z</time>
      </trkpt>
      <trkpt lat="43.109467" lon="-4.701633">
        <ele>1697.0</ele>
        <time>2013-09-04T15:06:31Z</time>
      </trkpt>
      <trkpt lat="43.109400" lon="-4.701683">
        <ele>1697.0</ele>
        <time>2013-09-04T15:06:32Z</time>
      </trkpt>
      <trkpt lat="43.109333" lon="-4.701717">
        <ele>1696.0</ele>
        <time>2013-09-04T15:06:33Z</time>
      </trkpt>
      <trkpt lat="43.109250" lon="-4.701750">
        <ele>1694.0</ele>
        <time>2013-09-04T15:06:34Z</time>
      </trkpt>
      <trkpt lat="43.109167" lon="-4.701800">
        <ele>1694.0</ele>
        <time>2013-09-04T15:06:35Z</time>
      </trkpt>
      <trkpt lat="43.109083" lon="-4.701867">
        <ele>1692.0</ele>
        <time>2013-09-04T15:06:36Z</time>
      </trkpt>
      <trkpt lat="43.109000" lon="-4.701933">
        <ele>1691.0</ele>
        <time>2013-09-04T15:06:37Z</time>
      </trkpt>
      <trkpt lat="43.108917" lon="-4.701983">
        <ele>1690.0</ele>
        <time>2013-09-04T15:06:38Z</time>
      </trkpt>
      <trkpt lat="43.108850" lon="-4.702050">
        <ele>1689.0</ele>
        <time>2013-09-04T15:06:39Z</time>
      </trkpt>
      <trkpt lat="43.108767" lon="-4.702100">
        <ele>1687.0</ele>
        <time>2013-09-04T15:06:40Z</time>
      </trkpt>
      <trkpt lat="43.108683" lon="-4.702167">
        <ele>1686.0</ele>
        <time>2013-09-04T15:06:41Z</time>
      </trkpt>
      <trkpt lat="43.108617" lon="-4.702233">
        <ele>1685.0</ele>
        <time>2013-09-04T15:06:42Z</time>
      </trkpt>
      <trkpt lat="43.108533" lon="-4.702300">
        <ele>1684.0</ele>
        <time>2013-09-04T15:06:43Z</time>
      </trkpt>
      <trkpt lat="43.108467" lon="-4.702383">
        <ele>1683.0</ele>
        <time>2013-09-04T15:06:44Z</time>
      </trkpt>
      <trkpt lat="43.108400" lon="-4.702450">
        <ele>1681.0</ele>
        <time>2013-09-04T15:06:45Z</time>
      </trkpt>
      <trkpt lat="43.108333" lon="-4.702517">
        <ele>1680.0</ele>
        <time>2013-09-04T15:06:46Z</time>
      </trkpt>
      <trkpt lat="43.108250" lon="-4.702600">
        <ele>1678.0</ele>
        <time>2013-09-04T15:06:47Z</time>
      </trkpt>
      <trkpt lat="43.108167" lon="-4.702667">
        <ele>1676.0</ele>
        <time>2013-09-04T15:06:48Z</time>
      </trkpt>
      <trkpt lat="43.108100" lon="-4.702750">
        <ele>1675.0</ele>
        <time>2013-09-04T15:06:49Z</time>
      </trkpt>
      <trkpt lat="43.108017" lon="-4.702817">
        <ele>1674.0</ele>
        <time>2013-09-04T15:06:50Z</time>
      </trkpt>
      <trkpt lat="43.107950" lon="-4.702900">
        <ele>1673.0</ele>
        <time>2013-09-04T15:06:51Z</time>
      </trkpt>
      <trkpt lat="43.107900" lon="-4.702967">
        <ele>1672.0</ele>
        <time>2013-09-04T15:06:52Z</time>
      </trkpt>
      <trkpt lat="43.107817" lon="-4.703050">
        <ele>1670.0</ele>
        <time>2013-09-04T15:06:53Z</time>
      </trkpt>
      <trkpt lat="43.107750" lon="-4.703117">
        <ele>1668.0</ele>
        <time>2013-09-04T15:06:54Z</time>
      </trkpt>
      <trkpt lat="43.107683" lon="-4.703200">
        <ele>1666.0</ele>
        <time>2013-09-04T15:06:55Z</time>
      </trkpt>
      <trkpt lat="43.107617" lon="-4.703283">
        <ele>1665.0</ele>
        <time>2013-09-04T15:06:56Z</time>
      </trkpt>
      <trkpt lat="43.107550" lon="-4.703367">
        <ele>1664.0</ele>
        <time>2013-09-04T15:06:57Z</time>
      </trkpt>
      <trkpt lat="43.107483" lon="-4.703450">
        <ele>1662.0</ele>
        <time>2013-09-04T15:06:58Z</time>
      </trkpt>
      <trkpt lat="43.107417" lon="-4.703533">
        <ele>1660.0</ele>
        <time>2013-09-04T15:06:59Z</time>
      </trkpt>
      <trkpt lat="43.107350" lon="-4.703633">
        <ele>1658.0</ele>
        <time>2013-09-04T15:07:00Z</time>
      </trkpt>
      <trkpt lat="43.107283" lon="-4.703733">
        <ele>1655.0</ele>
        <time>2013-09-04T15:07:01Z</time>
      </trkpt>
      <trkpt lat="43.107217" lon="-4.703833">
        <ele>1654.0</ele>
        <time>2013-09-04T15:07:02Z</time>
      </trkpt>
      <trkpt lat="43.107150" lon="-4.703933">
        <ele>1654.0</ele>
        <time>2013-09-04T15:07:03Z</time>
      </trkpt>
      <trkpt lat="43.107083" lon="-4.704033">
        <ele>1653.0</ele>
        <time>2013-09-04T15:07:04Z</time>
      </trkpt>
      <trkpt lat="43.107033" lon="-4.704133">
        <ele>1652.0</ele>
        <time>2013-09-04T15:07:05Z</time>
      </trkpt>
      <trkpt lat="43.106983" lon="-4.704233">
        <ele>1651.0</ele>
        <time>2013-09-04T15:07:06Z</time>
      </trkpt>
      <trkpt lat="43.106933" lon="-4.704333">
        <ele>1649.0</ele>
        <time>2013-09-04T15:07:07Z</time>
      </trkpt>
      <trkpt lat="43.106867" lon="-4.704433">
        <ele>1648.0</ele>
        <time>2013-09-04T15:07:08Z</time>
      </trkpt>
      <trkpt lat="43.106817" lon="-4.704533">
        <ele>1646.0</ele>
        <time>2013-09-04T15:07:09Z</time>
      </trkpt>
      <trkpt lat="43.106750" lon="-4.704617">
        <ele>1645.0</ele>
        <time>2013-09-04T15:07:10Z</time>
      </trkpt>
      <trkpt lat="43.106700" lon="-4.704717">
        <ele>1643.0</ele>
        <time>2013-09-04T15:07:11Z</time>
      </trkpt>
      <trkpt lat="43.106633" lon="-4.704817">
        <ele>1642.0</ele>
        <time>2013-09-04T15:07:12Z</time>
      </trkpt>
      <trkpt lat="43.106583" lon="-4.704917">
        <ele>1640.0</ele>
        <time>2013-09-04T15:07:13Z</time>
      </trkpt>
      <trkpt lat="43.106517" lon="-4.705000">
        <ele>1638.0</ele>
        <time>2013-09-04T15:07:14Z</time>
      </trkpt>
      <trkpt lat="43.106467" lon="-4.705100">
        <ele>1637.0</ele>
        <time>2013-09-04T15:07:15Z</time>
      </trkpt>
      <trkpt lat="43.106400" lon="-4.705183">
        <ele>1635.0</ele>
        <time>2013-09-04T15:07:16Z</time>
      </trkpt>
      <trkpt lat="43.106350" lon="-4.705250">
        <ele>1634.0</ele>
        <time>2013-09-04T15:07:17Z</time>
      </trkpt>
      <trkpt lat="43.106283" lon="-4.705333">
        <ele>1632.0</ele>
        <time>2013-09-04T15:07:18Z</time>
      </trkpt>
      <trkpt lat="43.106233" lon="-4.705400">
        <ele>1630.0</ele>
        <time>2013-09-04T15:07:19Z</time>
      </trkpt>
      <trkpt lat="43.106167" lon="-4.705483">
        <ele>1628.0</ele>
        <time>2013-09-04T15:07:20Z</time>
      </trkpt>
      <trkpt lat="43.106100" lon="-4.705567">
        <ele>1626.0</ele>
        <time>2013-09-04T15:07:21Z</time>
      </trkpt>
      <trkpt lat="43.106033" lon="-4.705650">
        <ele>1626.0</ele>
        <time>2013-09-04T15:07:22Z</time>
      </trkpt>
      <trkpt lat="43.105983" lon="-4.705717">
        <ele>1624.0</ele>
        <time>2013-09-04T15:07:23Z</time>
      </trkpt>
      <trkpt lat="43.105917" lon="-4.705783">
        <ele>1622.0</ele>
        <time>2013-09-04T15:07:24Z</time>
      </trkpt>
      <trkpt lat="43.105867" lon="-4.705867">
        <ele>1620.0</ele>
        <time>2013-09-04T15:07:25Z</time>
      </trkpt>
      <trkpt lat="43.105800" lon="-4.705950">
        <ele>1617.0</ele>
        <time>2013-09-04T15:07:26Z</time>
      </trkpt>
      <trkpt lat="43.105733" lon="-4.706033">
        <ele>1615.0</ele>
        <time>2013-09-04T15:07:27Z</time>
      </trkpt>
      <trkpt lat="43.105650" lon="-4.706117">
        <ele>1613.0</ele>
        <time>2013-09-04T15:07:28Z</time>
      </trkpt>
      <trkpt lat="43.105600" lon="-4.706217">
        <ele>1612.0</ele>
        <time>2013-09-04T15:07:29Z</time>
      </trkpt>
      <trkpt lat="43.105533" lon="-4.706300">
        <ele>1612.0</ele>
        <time>2013-09-04T15:07:30Z</time>
      </trkpt>
      <trkpt lat="43.105483" lon="-4.706383">
        <ele>1611.0</ele>
        <time>2013-09-04T15:07:31Z</time>
      </trkpt>
      <trkpt lat="43.105433" lon="-4.706450">
        <ele>1610.0</ele>
        <time>2013-09-04T15:07:32Z</time>
      </trkpt>
      <trkpt lat="43.105383" lon="-4.706517">
        <ele>1608.0</ele>
        <time>2013-09-04T15:07:33Z</time>
      </trkpt>
      <trkpt lat="43.105317" lon="-4.706600">
        <ele>1607.0</ele>
        <time>2013-09-04T15:07:34Z</time>
      </trkpt>
      <trkpt lat="43.105267" lon="-4.706683">
        <ele>1606.0</ele>
        <time>2013-09-04T15:07:35Z</time>
      </trkpt>
      <trkpt lat="43.105200" lon="-4.706750">
        <ele>1605.0</ele>
        <time>2013-09-04T15:07:36Z</time>
      </trkpt>
      <trkpt lat="43.105133" lon="-4.706817">
        <ele>1604.0</ele>
        <time>2013-09-04T15:07:37Z</time>
      </trkpt>
      <trkpt lat="43.105083" lon="-4.706867">
        <ele>1604.0</ele>
        <time>2013-09-04T15:07:38Z</time>
      </trkpt>
      <trkpt lat="43.105017" lon="-4.706917">
        <ele>1603.0</ele>
        <time>2013-09-04T15:07:39Z</time>
      </trkpt>
      <trkpt lat="43.104967" lon="-4.706967">
        <ele>1602.0</ele>
        <time>2013-09-04T15:07:40Z</time>
      </trkpt>
      <trkpt lat="43.104900" lon="-4.707017">
        <ele>1600.0</ele>
        <time>2013-09-04T15:07:41Z</time>
      </trkpt>
      <trkpt lat="43.104833" lon="-4.707067">
        <ele>1598.0</ele>
        <time>2013-09-04T15:07:42Z</time>
      </trkpt>
      <trkpt lat="43.104767" lon="-4.707100">
        <ele>1597.0</ele>
        <time>2013-09-04T15:07:43Z</time>
      </trkpt>
      <trkpt lat="43.104700" lon="-4.707150">
        <ele>1596.0</ele>
        <time>2013-09-04T15:07:44Z</time>
      </trkpt>
      <trkpt lat="43.104650" lon="-4.707183">
        <ele>1595.0</ele>
        <time>2013-09-04T15:07:45Z</time>
      </trkpt>
      <trkpt lat="43.104583" lon="-4.707217">
        <ele>1594.0</ele>
        <time>2013-09-04T15:07:46Z</time>
      </trkpt>
      <trkpt lat="43.104533" lon="-4.707250">
        <ele>1592.0</ele>
        <time>2013-09-04T15:07:47Z</time>
      </trkpt>
      <trkpt lat="43.104467" lon="-4.707300">
        <ele>1590.0</ele>
        <time>2013-09-04T15:07:48Z</time>
      </trkpt>
      <trkpt lat="43.104400" lon="-4.707350">
        <ele>1589.0</ele>
        <time>2013-09-04T15:07:49Z</time>
      </trkpt>
      <trkpt lat="43.104317" lon="-4.707383">
        <ele>1589.0</ele>
        <time>2013-09-04T15:07:50Z</time>
      </trkpt>
      <trkpt lat="43.104267" lon="-4.707417">
        <ele>1589.0</ele>
        <time>2013-09-04T15:07:51Z</time>
      </trkpt>
      <trkpt lat="43.104200" lon="-4.707467">
        <ele>1589.0</ele>
        <time>2013-09-04T15:07:52Z</time>
      </trkpt>
      <trkpt lat="43.104133" lon="-4.707517">
        <ele>1588.0</ele>
        <time>2013-09-04T15:07:53Z</time>
      </trkpt>
      <trkpt lat="43.104067" lon="-4.707600">
        <ele>1587.0</ele>
        <time>2013-09-04T15:07:54Z</time>
      </trkpt>
      <trkpt lat="43.104000" lon="-4.707667">
        <ele>1587.0</ele>
        <time>2013-09-04T15:07:55Z</time>
      </trkpt>
      <trkpt lat="43.103933" lon="-4.707750">
        <ele>1587.0</ele>
        <time>2013-09-04T15:07:56Z</time>
      </trkpt>
      <trkpt lat="43.103883" lon="-4.707800">
        <ele>1587.0</ele>
        <time>2013-09-04T15:07:57Z</time>
      </trkpt>
      <trkpt lat="43.103817" lon="-4.707850">
        <ele>1587.0</ele>
        <time>2013-09-04T15:07:58Z</time>
      </trkpt>
      <trkpt lat="43.103750" lon="-4.707883">
        <ele>1587.0</ele>
        <time>2013-09-04T15:07:59Z</time>
      </trkpt>
      <trkpt lat="43.103700" lon="-4.707917">
        <ele>1586.0</ele>
        <time>2013-09-04T15:08:00Z</time>
      </trkpt>
      <trkpt lat="43.103633" lon="-4.707933">
        <ele>1585.0</ele>
        <time>2013-09-04T15:08:01Z</time>
      </trkpt>
      <trkpt lat="43.103550" lon="-4.707950">
        <ele>1585.0</ele>
        <time>2013-09-04T15:08:02Z</time>
      </trkpt>
      <trkpt lat="43.103483" lon="-4.707950">
        <ele>1585.0</ele>
        <time>2013-09-04T15:08:03Z</time>
      </trkpt>
      <trkpt lat="43.103417" lon="-4.707967">
        <ele>1585.0</ele>
        <time>2013-09-04T15:08:04Z</time>
      </trkpt>
      <trkpt lat="43.103367" lon="-4.707967">
        <ele>1585.0</ele>
        <time>2013-09-04T15:08:05Z</time>
      </trkpt>
      <trkpt lat="43.103300" lon="-4.707983">
        <ele>1586.0</ele>
        <time>2013-09-04T15:08:06Z</time>
      </trkpt>
      <trkpt lat="43.103233" lon="-4.708000">
        <ele>1586.0</ele>
        <time>2013-09-04T15:08:07Z</time>
      </trkpt>
      <trkpt lat="43.103183" lon="-4.708033">
        <ele>1587.0</ele>
        <time>2013-09-04T15:08:08Z</time>
      </trkpt>
      <trkpt lat="43.103133" lon="-4.708067">
        <ele>1587.0</ele>
        <time>2013-09-04T15:08:09Z</time>
      </trkpt>
      <trkpt lat="43.103067" lon="-4.708133">
        <ele>1587.0</ele>
        <time>2013-09-04T15:08:10Z</time>
      </trkpt>
      <trkpt lat="43.103000" lon="-4.708167">
        <ele>1587.0</ele>
        <time>2013-09-04T15:08:11Z</time>
      </trkpt>
      <trkpt lat="43.102950" lon="-4.708217">
        <ele>1588.0</ele>
        <time>2013-09-04T15:08:12Z</time>
      </trkpt>
      <trkpt lat="43.102883" lon="-4.708250">
        <ele>1588.0</ele>
        <time>2013-09-04T15:08:13Z</time>
      </trkpt>
      <trkpt lat="43.102833" lon="-4.708267">
        <ele>1588.0</ele>
        <time>2013-09-04T15:08:14Z</time>
      </trkpt>
      <trkpt lat="43.102767" lon="-4.708300">
        <ele>1588.0</ele>
        <time>2013-09-04T15:08:15Z</time>
      </trkpt>
      <trkpt lat="43.102717" lon="-4.708333">
        <ele>1587.0</ele>
        <time>2013-09-04T15:08:16Z</time>
      </trkpt>
      <trkpt lat="43.102650" lon="-4.708367">
        <ele>1587.0</ele>
        <time>2013-09-04T15:08:17Z</time>
      </trkpt>
      <trkpt lat="43.102583" lon="-4.708383">
        <ele>1586.0</ele>
        <time>2013-09-04T15:08:18Z</time>
      </trkpt>
      <trkpt lat="43.102500" lon="-4.708400">
        <ele>1586.0</ele>
        <time>2013-09-04T15:08:19Z</time>
      </trkpt>
      <trkpt lat="43.102433" lon="-4.708417">
        <ele>1586.0</ele>
        <time>2013-09-04T15:08:20Z</time>
      </trkpt>
      <trkpt lat="43.102383" lon="-4.708400">
        <ele>1586.0</ele>
        <time>2013-09-04T15:08:21Z</time>
      </trkpt>
      <trkpt lat="43.102317" lon="-4.708400">
        <ele>1586.0</ele>
        <time>2013-09-04T15:08:22Z</time>
      </trkpt>
      <trkpt lat="43.102250" lon="-4.708383">
        <ele>1585.0</ele>
        <time>2013-09-04T15:08:23Z</time>
      </trkpt>
      <trkpt lat="43.102167" lon="-4.708367">
        <ele>1584.0</ele>
        <time>2013-09-04T15:08:24Z</time>
      </trkpt>
      <trkpt lat="43.102100" lon="-4.708350">
        <ele>1584.0</ele>
        <time>2013-09-04T15:08:25Z</time>
      </trkpt>
      <trkpt lat="43.102033" lon="-4.708333">
        <ele>1584.0</ele>
        <time>2013-09-04T15:08:26Z</time>
      </trkpt>
      <trkpt lat="43.101967" lon="-4.708333">
        <ele>1585.0</ele>
        <time>2013-09-04T15:08:27Z</time>
      </trkpt>
      <trkpt lat="43.101900" lon="-4.708350">
        <ele>1586.0</ele>
        <time>2013-09-04T15:08:28Z</time>
      </trkpt>
      <trkpt lat="43.101833" lon="-4.708367">
        <ele>1586.0</ele>
        <time>2013-09-04T15:08:29Z</time>
      </trkpt>
      <trkpt lat="43.101767" lon="-4.708400">
        <ele>1586.0</ele>
        <time>2013-09-04T15:08:30Z</time>
      </trkpt>
      <trkpt lat="43.101700" lon="-4.708433">
        <ele>1586.0</ele>
        <time>2013-09-04T15:08:31Z</time>
      </trkpt>
      <trkpt lat="43.101633" lon="-4.708450">
        <ele>1585.0</ele>
        <time>2013-09-04T15:08:32Z</time>
      </trkpt>
      <trkpt lat="43.101567" lon="-4.708483">
        <ele>1585.0</ele>
        <time>2013-09-04T15:08:33Z</time>
      </trkpt>
      <trkpt lat="43.101500" lon="-4.708500">
        <ele>1585.0</ele>
        <time>2013-09-04T15:08:34Z</time>
      </trkpt>
      <trkpt lat="43.101433" lon="-4.708517">
        <ele>1585.0</ele>
        <time>2013-09-04T15:08:35Z</time>
      </trkpt>
      <trkpt lat="43.101367" lon="-4.708517">
        <ele>1585.0</ele>
        <time>2013-09-04T15:08:36Z</time>
      </trkpt>
      <trkpt lat="43.101300" lon="-4.708500">
        <ele>1585.0</ele>
        <time>2013-09-04T15:08:37Z</time>
      </trkpt>
      <trkpt lat="43.101233" lon="-4.708500">
        <ele>1584.0</ele>
        <time>2013-09-04T15:08:38Z</time>
      </trkpt>
      <trkpt lat="43.101167" lon="-4.708483">
        <ele>1584.0</ele>
        <time>2013-09-04T15:08:39Z</time>
      </trkpt>
      <trkpt lat="43.101100" lon="-4.708483">
        <ele>1584.0</ele>
        <time>2013-09-04T15:08:40Z</time>
      </trkpt>
      <trkpt lat="43.101033" lon="-4.708467">
        <ele>1584.0</ele>
        <time>2013-09-04T15:08:41Z</time>
      </trkpt>
      <trkpt lat="43.100967" lon="-4.708467">
        <ele>1584.0</ele>
        <time>2013-09-04T15:08:42Z</time>
      </trkpt>
      <trkpt lat="43.100900" lon="-4.708450">
        <ele>1584.0</ele>
        <time>2013-09-04T15:08:43Z</time>
      </trkpt>
      <trkpt lat="43.100833" lon="-4.708450">
        <ele>1583.0</ele>
        <time>2013-09-04T15:08:44Z</time>
      </trkpt>
      <trkpt lat="43.100750" lon="-4.708450">
        <ele>1583.0</ele>
        <time>2013-09-04T15:08:45Z</time>
      </trkpt>
      <trkpt lat="43.100683" lon="-4.708433">
        <ele>1583.0</ele>
        <time>2013-09-04T15:08:46Z</time>
      </trkpt>
      <trkpt lat="43.100617" lon="-4.708433">
        <ele>1583.0</ele>
        <time>2013-09-04T15:08:47Z</time>
      </trkpt>
      <trkpt lat="43.100533" lon="-4.708450">
        <ele>1583.0</ele>
        <time>2013-09-04T15:08:48Z</time>
      </trkpt>
      <trkpt lat="43.100467" lon="-4.708450">
        <ele>1582.0</ele>
        <time>2013-09-04T15:08:49Z</time>
      </trkpt>
      <trkpt lat="43.100400" lon="-4.708450">
        <ele>1582.0</ele>
        <time>2013-09-04T15:08:50Z</time>
      </trkpt>
      <trkpt lat="43.100317" lon="-4.708450">
        <ele>1581.0</ele>
        <time>2013-09-04T15:08:51Z</time>
      </trkpt>
      <trkpt lat="43.100250" lon="-4.708450">
        <ele>1580.0</ele>
        <time>2013-09-04T15:08:52Z</time>
      </trkpt>
      <trkpt lat="43.100183" lon="-4.708433">
        <ele>1580.0</ele>
        <time>2013-09-04T15:08:53Z</time>
      </trkpt>
      <trkpt lat="43.100117" lon="-4.708417">
        <ele>1579.0</ele>
        <time>2013-09-04T15:08:54Z</time>
      </trkpt>
      <trkpt lat="43.100050" lon="-4.708400">
        <ele>1579.0</ele>
        <time>2013-09-04T15:08:55Z</time>
      </trkpt>
      <trkpt lat="43.099983" lon="-4.708383">
        <ele>1578.0</ele>
        <time>2013-09-04T15:08:56Z</time>
      </trkpt>
      <trkpt lat="43.099933" lon="-4.708367">
        <ele>1578.0</ele>
        <time>2013-09-04T15:08:57Z</time>
      </trkpt>
      <trkpt lat="43.099867" lon="-4.708333">
        <ele>1577.0</ele>
        <time>2013-09-04T15:08:58Z</time>
      </trkpt>
      <trkpt lat="43.099817" lon="-4.708300">
        <ele>1577.0</ele>
        <time>2013-09-04T15:08:59Z</time>
      </trkpt>
      <trkpt lat="43.099750" lon="-4.708267">
        <ele>1576.0</ele>
        <time>2013-09-04T15:09:00Z</time>
      </trkpt>
      <trkpt lat="43.099700" lon="-4.708250">
        <ele>1575.0</ele>
        <time>2013-09-04T15:09:01Z</time>
      </trkpt>
      <trkpt lat="43.099633" lon="-4.708233">
        <ele>1574.0</ele>
        <time>2013-09-04T15:09:02Z</time>
      </trkpt>
      <trkpt lat="43.099550" lon="-4.708217">
        <ele>1572.0</ele>
        <time>2013-09-04T15:09:03Z</time>
      </trkpt>
      <trkpt lat="43.099483" lon="-4.708200">
        <ele>1571.0</ele>
        <time>2013-09-04T15:09:04Z</time>
      </trkpt>
      <trkpt lat="43.099400" lon="-4.708200">
        <ele>1571.0</ele>
        <time>2013-09-04T15:09:05Z</time>
      </trkpt>
      <trkpt lat="43.099333" lon="-4.708183">
        <ele>1571.0</ele>
        <time>2013-09-04T15:09:06Z</time>
      </trkpt>
      <trkpt lat="43.099283" lon="-4.708183">
        <ele>1570.0</ele>
        <time>2013-09-04T15:09:07Z</time>
      </trkpt>
      <trkpt lat="43.099217" lon="-4.708167">
        <ele>1569.0</ele>
        <time>2013-09-04T15:09:08Z</time>
      </trkpt>
      <trkpt lat="43.099150" lon="-4.708167">
        <ele>1566.0</ele>
        <time>2013-09-04T15:09:09Z</time>
      </trkpt>
      <trkpt lat="43.099067" lon="-4.708150">
        <ele>1565.0</ele>
        <time>2013-09-04T15:09:10Z</time>
      </trkpt>
      <trkpt lat="43.098983" lon="-4.708167">
        <ele>1564.0</ele>
        <time>2013-09-04T15:09:11Z</time>
      </trkpt>
      <trkpt lat="43.098900" lon="-4.708183">
        <ele>1563.0</ele>
        <time>2013-09-04T15:09:12Z</time>
      </trkpt>
      <trkpt lat="43.098833" lon="-4.708200">
        <ele>1563.0</ele>
        <time>2013-09-04T15:09:13Z</time>
      </trkpt>
      <trkpt lat="43.098767" lon="-4.708233">
        <ele>1563.0</ele>
        <time>2013-09-04T15:09:14Z</time>
      </trkpt>
      <trkpt lat="43.098700" lon="-4.708267">
        <ele>1561.0</ele>
        <time>2013-09-04T15:09:15Z</time>
      </trkpt>
      <trkpt lat="43.098633" lon="-4.708317">
        <ele>1560.0</ele>
        <time>2013-09-04T15:09:16Z</time>
      </trkpt>
      <trkpt lat="43.098567" lon="-4.708367">
        <ele>1559.0</ele>
        <time>2013-09-04T15:09:17Z</time>
      </trkpt>
      <trkpt lat="43.098500" lon="-4.708417">
        <ele>1558.0</ele>
        <time>2013-09-04T15:09:18Z</time>
      </trkpt>
      <trkpt lat="43.098417" lon="-4.708483">
        <ele>1557.0</ele>
        <time>2013-09-04T15:09:19Z</time>
      </trkpt>
      <trkpt lat="43.098367" lon="-4.708550">
        <ele>1557.0</ele>
        <time>2013-09-04T15:09:20Z</time>
      </trkpt>
      <trkpt lat="43.098300" lon="-4.708617">
        <ele>1556.0</ele>
        <time>2013-09-04T15:09:21Z</time>
      </trkpt>
      <trkpt lat="43.098233" lon="-4.708667">
        <ele>1554.0</ele>
        <time>2013-09-04T15:09:22Z</time>
      </trkpt>
      <trkpt lat="43.098183" lon="-4.708733">
        <ele>1553.0</ele>
        <time>2013-09-04T15:09:23Z</time>
      </trkpt>
      <trkpt lat="43.098117" lon="-4.708800">
        <ele>1551.0</ele>
        <time>2013-09-04T15:09:24Z</time>
      </trkpt>
      <trkpt lat="43.098050" lon="-4.708867">
        <ele>1550.0</ele>
        <time>2013-09-04T15:09:25Z</time>
      </trkpt>
      <trkpt lat="43.097983" lon="-4.708933">
        <ele>1549.0</ele>
        <time>2013-09-04T15:09:26Z</time>
      </trkpt>
      <trkpt lat="43.097933" lon="-4.709000">
        <ele>1548.0</ele>
        <time>2013-09-04T15:09:27Z</time>
      </trkpt>
      <trkpt lat="43.097883" lon="-4.709050">
        <ele>1547.0</ele>
        <time>2013-09-04T15:09:28Z</time>
      </trkpt>
      <trkpt lat="43.097817" lon="-4.709100">
        <ele>1546.0</ele>
        <time>2013-09-04T15:09:29Z</time>
      </trkpt>
      <trkpt lat="43.097750" lon="-4.709167">
        <ele>1544.0</ele>
        <time>2013-09-04T15:09:30Z</time>
      </trkpt>
      <trkpt lat="43.097700" lon="-4.709250">
        <ele>1543.0</ele>
        <time>2013-09-04T15:09:31Z</time>
      </trkpt>
      <trkpt lat="43.097650" lon="-4.709333">
        <ele>1542.0</ele>
        <time>2013-09-04T15:09:32Z</time>
      </trkpt>
      <trkpt lat="43.097600" lon="-4.709433">
        <ele>1541.0</ele>
        <time>2013-09-04T15:09:33Z</time>
      </trkpt>
      <trkpt lat="43.097550" lon="-4.709533">
        <ele>1540.0</ele>
        <time>2013-09-04T15:09:34Z</time>
      </trkpt>
      <trkpt lat="43.097517" lon="-4.709650">
        <ele>1539.0</ele>
        <time>2013-09-04T15:09:35Z</time>
      </trkpt>
      <trkpt lat="43.097483" lon="-4.709750">
        <ele>1537.0</ele>
        <time>2013-09-04T15:09:36Z</time>
      </trkpt>
      <trkpt lat="43.097467" lon="-4.709867">
        <ele>1536.0</ele>
        <time>2013-09-04T15:09:37Z</time>
      </trkpt>
      <trkpt lat="43.097467" lon="-4.710000">
        <ele>1534.0</ele>
        <time>2013-09-04T15:09:38Z</time>
      </trkpt>
      <trkpt lat="43.097467" lon="-4.710117">
        <ele>1532.0</ele>
        <time>2013-09-04T15:09:39Z</time>
      </trkpt>
      <trkpt lat="43.097450" lon="-4.710250">
        <ele>1531.0</ele>
        <time>2013-09-04T15:09:40Z</time>
      </trkpt>
      <trkpt lat="43.097433" lon="-4.710367">
        <ele>1530.0</ele>
        <time>2013-09-04T15:09:41Z</time>
      </trkpt>
      <trkpt lat="43.097400" lon="-4.710450">
        <ele>1528.0</ele>
        <time>2013-09-04T15:09:42Z</time>
      </trkpt>
      <trkpt lat="43.097333" lon="-4.710517">
        <ele>1526.0</ele>
        <time>2013-09-04T15:09:43Z</time>
      </trkpt>
      <trkpt lat="43.097267" lon="-4.710550">
        <ele>1524.0</ele>
        <time>2013-09-04T15:09:44Z</time>
      </trkpt>
      <trkpt lat="43.097183" lon="-4.710550">
        <ele>1521.0</ele>
        <time>2013-09-04T15:09:45Z</time>
      </trkpt>
      <trkpt lat="43.097100" lon="-4.710533">
        <ele>1520.0</ele>
        <time>2013-09-04T15:09:46Z</time>
      </trkpt>
      <trkpt lat="43.097033" lon="-4.710500">
        <ele>1519.0</ele>
        <time>2013-09-04T15:09:47Z</time>
      </trkpt>
      <trkpt lat="43.096967" lon="-4.710467">
        <ele>1519.0</ele>
        <time>2013-09-04T15:09:48Z</time>
      </trkpt>
      <trkpt lat="43.096917" lon="-4.710450">
        <ele>1517.0</ele>
        <time>2013-09-04T15:09:49Z</time>
      </trkpt>
      <trkpt lat="43.096850" lon="-4.710433">
        <ele>1516.0</ele>
        <time>2013-09-04T15:09:50Z</time>
      </trkpt>
      <trkpt lat="43.096767" lon="-4.710433">
        <ele>1514.0</ele>
        <time>2013-09-04T15:09:51Z</time>
      </trkpt>
      <trkpt lat="43.096700" lon="-4.710450">
        <ele>1513.0</ele>
        <time>2013-09-04T15:09:52Z</time>
      </trkpt>
      <trkpt lat="43.096617" lon="-4.710450">
        <ele>1512.0</ele>
        <time>2013-09-04T15:09:53Z</time>
      </trkpt>
      <trkpt lat="43.096550" lon="-4.710467">
        <ele>1511.0</ele>
        <time>2013-09-04T15:09:54Z</time>
      </trkpt>
      <trkpt lat="43.096500" lon="-4.710467">
        <ele>1510.0</ele>
        <time>2013-09-04T15:09:55Z</time>
      </trkpt>
      <trkpt lat="43.096433" lon="-4.710483">
        <ele>1509.0</ele>
        <time>2013-09-04T15:09:56Z</time>
      </trkpt>
      <trkpt lat="43.096367" lon="-4.710500">
        <ele>1507.0</ele>
        <time>2013-09-04T15:09:57Z</time>
      </trkpt>
      <trkpt lat="43.096300" lon="-4.710517">
        <ele>1506.0</ele>
        <time>2013-09-04T15:09:58Z</time>
      </trkpt>
      <trkpt lat="43.096217" lon="-4.710517">
        <ele>1505.0</ele>
        <time>2013-09-04T15:09:59Z</time>
      </trkpt>
      <trkpt lat="43.096150" lon="-4.710517">
        <ele>1503.0</ele>
        <time>2013-09-04T15:10:00Z</time>
      </trkpt>
      <trkpt lat="43.096083" lon="-4.710500">
        <ele>1502.0</ele>
        <time>2013-09-04T15:10:01Z</time>
      </trkpt>
      <trkpt lat="43.096017" lon="-4.710450">
        <ele>1501.0</ele>
        <time>2013-09-04T15:10:02Z</time>
      </trkpt>
      <trkpt lat="43.095967" lon="-4.710400">
        <ele>1500.0</ele>
        <time>2013-09-04T15:10:03Z</time>
      </trkpt>
      <trkpt lat="43.095933" lon="-4.710333">
        <ele>1499.0</ele>
        <time>2013-09-04T15:10:04Z</time>
      </trkpt>
      <trkpt lat="43.095917" lon="-4.710250">
        <ele>1497.0</ele>
        <time>2013-09-04T15:10:05Z</time>
      </trkpt>
      <trkpt lat="43.095900" lon="-4.710167">
        <ele>1494.0</ele>
        <time>2013-09-04T15:10:06Z</time>
      </trkpt>
      <trkpt lat="43.095900" lon="-4.710067">
        <ele>1494.0</ele>
        <time>2013-09-04T15:10:07Z</time>
      </trkpt>
      <trkpt lat="43.095900" lon="-4.709967">
        <ele>1491.0</ele>
        <time>2013-09-04T15:10:08Z</time>
      </trkpt>
      <trkpt lat="43.095883" lon="-4.709850">
        <ele>1488.0</ele>
        <time>2013-09-04T15:10:09Z</time>
      </trkpt>
      <trkpt lat="43.095850" lon="-4.709733">
        <ele>1486.0</ele>
        <time>2013-09-04T15:10:10Z</time>
      </trkpt>
      <trkpt lat="43.095833" lon="-4.709650">
        <ele>1485.0</ele>
        <time>2013-09-04T15:10:11Z</time>
      </trkpt>
      <trkpt lat="43.095800" lon="-4.709567">
        <ele>1483.0</ele>
        <time>2013-09-04T15:10:12Z</time>
      </trkpt>
      <trkpt lat="43.095767" lon="-4.709483">
        <ele>1481.0</ele>
        <time>2013-09-04T15:10:13Z</time>
      </trkpt>
      <trkpt lat="43.095733" lon="-4.709400">
        <ele>1479.0</ele>
        <time>2013-09-04T15:10:14Z</time>
      </trkpt>
      <trkpt lat="43.095717" lon="-4.709300">
        <ele>1476.0</ele>
        <time>2013-09-04T15:10:15Z</time>
      </trkpt>
      <trkpt lat="43.095700" lon="-4.709200">
        <ele>1474.0</ele>
        <time>2013-09-04T15:10:16Z</time>
      </trkpt>
      <trkpt lat="43.095700" lon="-4.709100">
        <ele>1473.0</ele>
        <time>2013-09-04T15:10:17Z</time>
      </trkpt>
      <trkpt lat="43.095717" lon="-4.709017">
        <ele>1472.0</ele>
        <time>2013-09-04T15:10:18Z</time>
      </trkpt>
      <trkpt lat="43.095717" lon="-4.708917">
        <ele>1470.0</ele>
        <time>2013-09-04T15:10:19Z</time>
      </trkpt>
      <trkpt lat="43.095733" lon="-4.708833">
        <ele>1467.0</ele>
        <time>2013-09-04T15:10:20Z</time>
      </trkpt>
      <trkpt lat="43.095750" lon="-4.708733">
        <ele>1465.0</ele>
        <time>2013-09-04T15:10:21Z</time>
      </trkpt>
      <trkpt lat="43.095767" lon="-4.708617">
        <ele>1462.0</ele>
        <time>2013-09-04T15:10:22Z</time>
      </trkpt>
      <trkpt lat="43.095783" lon="-4.708517">
        <ele>1460.0</ele>
        <time>2013-09-04T15:10:23Z</time>
      </trkpt>
      <trkpt lat="43.095800" lon="-4.708417">
        <ele>1459.0</ele>
        <time>2013-09-04T15:10:24Z</time>
      </trkpt>
      <trkpt lat="43.095817" lon="-4.708333">
        <ele>1457.0</ele>
        <time>2013-09-04T15:10:25Z</time>
      </trkpt>
      <trkpt lat="43.095833" lon="-4.708233">
        <ele>1456.0</ele>
        <time>2013-09-04T15:10:26Z</time>
      </trkpt>
      <trkpt lat="43.095850" lon="-4.708133">
        <ele>1454.0</ele>
        <time>2013-09-04T15:10:27Z</time>
      </trkpt>
      <trkpt lat="43.095867" lon="-4.708033">
        <ele>1453.0</ele>
        <time>2013-09-04T15:10:28Z</time>
      </trkpt>
      <trkpt lat="43.095900" lon="-4.707933">
        <ele>1452.0</ele>
        <time>2013-09-04T15:10:29Z</time>
      </trkpt>
      <trkpt lat="43.095917" lon="-4.707850">
        <ele>1451.0</ele>
        <time>2013-09-04T15:10:30Z</time>
      </trkpt>
      <trkpt lat="43.095950" lon="-4.707767">
        <ele>1449.0</ele>
        <time>2013-09-04T15:10:31Z</time>
      </trkpt>
      <trkpt lat="43.095967" lon="-4.707667">
        <ele>1448.0</ele>
        <time>2013-09-04T15:10:32Z</time>
      </trkpt>
      <trkpt lat="43.096000" lon="-4.707567">
        <ele>1447.0</ele>
        <time>2013-09-04T15:10:33Z</time>
      </trkpt>
      <trkpt lat="43.096033" lon="-4.707483">
        <ele>1446.0</ele>
        <time>2013-09-04T15:10:34Z</time>
      </trkpt>
      <trkpt lat="43.096067" lon="-4.707400">
        <ele>1446.0</ele>
        <time>2013-09-04T15:10:35Z</time>
      </trkpt>
      <trkpt lat="43.096100" lon="-4.707333">
        <ele>1445.0</ele>
        <time>2013-09-04T15:10:36Z</time>
      </trkpt>
      <trkpt lat="43.096133" lon="-4.707250">
        <ele>1444.0</ele>
        <time>2013-09-04T15:10:37Z</time>
      </trkpt>
      <trkpt lat="43.096167" lon="-4.707183">
        <ele>1442.0</ele>
        <time>2013-09-04T15:10:38Z</time>
      </trkpt>
      <trkpt lat="43.096183" lon="-4.707100">
        <ele>1440.0</ele>
        <time>2013-09-04T15:10:39Z</time>
      </trkpt>
      <trkpt lat="43.096200" lon="-4.707000">
        <ele>1439.0</ele>
        <time>2013-09-04T15:10:40Z</time>
      </trkpt>
      <trkpt lat="43.096200" lon="-4.706917">
        <ele>1437.0</ele>
        <time>2013-09-04T15:10:41Z</time>
      </trkpt>
      <trkpt lat="43.096200" lon="-4.706850">
        <ele>1436.0</ele>
        <time>2013-09-04T15:10:42Z</time>
      </trkpt>
      <trkpt lat="43.096200" lon="-4.706783">
        <ele>1434.0</ele>
        <time>2013-09-04T15:10:43Z</time>
      </trkpt>
      <trkpt lat="43.096167" lon="-4.706717">
        <ele>1432.0</ele>
        <time>2013-09-04T15:10:44Z</time>
      </trkpt>
      <trkpt lat="43.096117" lon="-4.706650">
        <ele>1429.0</ele>
        <time>2013-09-04T15:10:45Z</time>
      </trkpt>
      <trkpt lat="43.096067" lon="-4.706583">
        <ele>1427.0</ele>
        <time>2013-09-04T15:10:46Z</time>
      </trkpt>
      <trkpt lat="43.096000" lon="-4.706500">
        <ele>1426.0</ele>
        <time>2013-09-04T15:10:47Z</time>
      </trkpt>
      <trkpt lat="43.095950" lon="-4.706450">
        <ele>1425.0</ele>
        <time>2013-09-04T15:10:48Z</time>
      </trkpt>
      <trkpt lat="43.095900" lon="-4.706383">
        <ele>1425.0</ele>
        <time>2013-09-04T15:10:49Z</time>
      </trkpt>
      <trkpt lat="43.095833" lon="-4.706317">
        <ele>1424.0</ele>
        <time>2013-09-04T15:10:50Z</time>
      </trkpt>
      <trkpt lat="43.095767" lon="-4.706250">
        <ele>1422.0</ele>
        <time>2013-09-04T15:10:51Z</time>
      </trkpt>
      <trkpt lat="43.095683" lon="-4.706183">
        <ele>1421.0</ele>
        <time>2013-09-04T15:10:52Z</time>
      </trkpt>
      <trkpt lat="43.095600" lon="-4.706133">
        <ele>1421.0</ele>
        <time>2013-09-04T15:10:53Z</time>
      </trkpt>
      <trkpt lat="43.095533" lon="-4.706083">
        <ele>1421.0</ele>
        <time>2013-09-04T15:10:54Z</time>
      </trkpt>
      <trkpt lat="43.095450" lon="-4.706033">
        <ele>1420.0</ele>
        <time>2013-09-04T15:10:55Z</time>
      </trkpt>
      <trkpt lat="43.095367" lon="-4.705983">
        <ele>1418.0</ele>
        <time>2013-09-04T15:10:56Z</time>
      </trkpt>
      <trkpt lat="43.095283" lon="-4.705950">
        <ele>1416.0</ele>
        <time>2013-09-04T15:10:57Z</time>
      </trkpt>
      <trkpt lat="43.095200" lon="-4.705900">
        <ele>1414.0</ele>
        <time>2013-09-04T15:10:58Z</time>
      </trkpt>
      <trkpt lat="43.095100" lon="-4.705850">
        <ele>1413.0</ele>
        <time>2013-09-04T15:10:59Z</time>
      </trkpt>
      <trkpt lat="43.095017" lon="-4.705800">
        <ele>1412.0</ele>
        <time>2013-09-04T15:11:00Z</time>
      </trkpt>
      <trkpt lat="43.094933" lon="-4.705750">
        <ele>1411.0</ele>
        <time>2013-09-04T15:11:01Z</time>
      </trkpt>
      <trkpt lat="43.094850" lon="-4.705683">
        <ele>1410.0</ele>
        <time>2013-09-04T15:11:02Z</time>
      </trkpt>
      <trkpt lat="43.094750" lon="-4.705633">
        <ele>1408.0</ele>
        <time>2013-09-04T15:11:03Z</time>
      </trkpt>
      <trkpt lat="43.094633" lon="-4.705583">
        <ele>1407.0</ele>
        <time>2013-09-04T15:11:04Z</time>
      </trkpt>
      <trkpt lat="43.094517" lon="-4.705533">
        <ele>1405.0</ele>
        <time>2013-09-04T15:11:05Z</time>
      </trkpt>
      <trkpt lat="43.094400" lon="-4.705500">
        <ele>1404.0</ele>
        <time>2013-09-04T15:11:06Z</time>
      </trkpt>
      <trkpt lat="43.094283" lon="-4.705467">
        <ele>1403.0</ele>
        <time>2013-09-04T15:11:07Z</time>
      </trkpt>
      <trkpt lat="43.094183" lon="-4.705417">
        <ele>1403.0</ele>
        <time>2013-09-04T15:11:08Z</time>
      </trkpt>
      <trkpt lat="43.094083" lon="-4.705383">
        <ele>1402.0</ele>
        <time>2013-09-04T15:11:09Z</time>
      </trkpt>
      <trkpt lat="43.094000" lon="-4.705333">
        <ele>1402.0</ele>
        <time>2013-09-04T15:11:10Z</time>
      </trkpt>
      <trkpt lat="43.093933" lon="-4.705267">
        <ele>1401.0</ele>
        <time>2013-09-04T15:11:11Z</time>
      </trkpt>
      <trkpt lat="43.093867" lon="-4.705217">
        <ele>1400.0</ele>
        <time>2013-09-04T15:11:12Z</time>
      </trkpt>
      <trkpt lat="43.093800" lon="-4.705150">
        <ele>1398.0</ele>
        <time>2013-09-04T15:11:13Z</time>
      </trkpt>
      <trkpt lat="43.093717" lon="-4.705083">
        <ele>1397.0</ele>
        <time>2013-09-04T15:11:14Z</time>
      </trkpt>
      <trkpt lat="43.093650" lon="-4.705017">
        <ele>1395.0</ele>
        <time>2013-09-04T15:11:15Z</time>
      </trkpt>
      <trkpt lat="43.093567" lon="-4.704950">
        <ele>1394.0</ele>
        <time>2013-09-04T15:11:16Z</time>
      </trkpt>
      <trkpt lat="43.093500" lon="-4.704883">
        <ele>1394.0</ele>
        <time>2013-09-04T15:11:17Z</time>
      </trkpt>
      <trkpt lat="43.093450" lon="-4.704800">
        <ele>1394.0</ele>
        <time>2013-09-04T15:11:18Z</time>
      </trkpt>
      <trkpt lat="43.093417" lon="-4.704750">
        <ele>1394.0</ele>
        <time>2013-09-04T15:11:19Z</time>
      </trkpt>
      <trkpt lat="43.093400" lon="-4.704683">
        <ele>1393.0</ele>
        <time>2013-09-04T15:11:20Z</time>
      </trkpt>
      <trkpt lat="43.093367" lon="-4.704633">
        <ele>1393.0</ele>
        <time>2013-09-04T15:11:21Z</time>
      </trkpt>
      <trkpt lat="43.093333" lon="-4.704567">
        <ele>1394.0</ele>
        <time>2013-09-04T15:11:22Z</time>
      </trkpt>
      <trkpt lat="43.093300" lon="-4.704483">
        <ele>1394.0</ele>
        <time>2013-09-04T15:11:23Z</time>
      </trkpt>
      <trkpt lat="43.093267" lon="-4.704417">
        <ele>1394.0</ele>
        <time>2013-09-04T15:11:24Z</time>
      </trkpt>
      <trkpt lat="43.093217" lon="-4.704350">
        <ele>1395.0</ele>
        <time>2013-09-04T15:11:25Z</time>
      </trkpt>
      <trkpt lat="43.093167" lon="-4.704283">
        <ele>1394.0</ele>
        <time>2013-09-04T15:11:26Z</time>
      </trkpt>
      <trkpt lat="43.093117" lon="-4.704200">
        <ele>1393.0</ele>
        <time>2013-09-04T15:11:27Z</time>
      </trkpt>
      <trkpt lat="43.093050" lon="-4.704117">
        <ele>1393.0</ele>
        <time>2013-09-04T15:11:28Z</time>
      </trkpt>
      <trkpt lat="43.093000" lon="-4.704050">
        <ele>1393.0</ele>
        <time>2013-09-04T15:11:29Z</time>
      </trkpt>
      <trkpt lat="43.092950" lon="-4.703983">
        <ele>1392.0</ele>
        <time>2013-09-04T15:11:30Z</time>
      </trkpt>
      <trkpt lat="43.092900" lon="-4.703933">
        <ele>1391.0</ele>
        <time>2013-09-04T15:11:31Z</time>
      </trkpt>
      <trkpt lat="43.092850" lon="-4.703867">
        <ele>1390.0</ele>
        <time>2013-09-04T15:11:32Z</time>
      </trkpt>
      <trkpt lat="43.092783" lon="-4.703817">
        <ele>1388.0</ele>
        <time>2013-09-04T15:11:33Z</time>
      </trkpt>
      <trkpt lat="43.092717" lon="-4.703750">
        <ele>1387.0</ele>
        <time>2013-09-04T15:11:34Z</time>
      </trkpt>
      <trkpt lat="43.092650" lon="-4.703700">
        <ele>1386.0</ele>
        <time>2013-09-04T15:11:35Z</time>
      </trkpt>
      <trkpt lat="43.092583" lon="-4.703650">
        <ele>1384.0</ele>
        <time>2013-09-04T15:11:36Z</time>
      </trkpt>
      <trkpt lat="43.092517" lon="-4.703600">
        <ele>1382.0</ele>
        <time>2013-09-04T15:11:37Z</time>
      </trkpt>
      <trkpt lat="43.092450" lon="-4.703533">
        <ele>1380.0</ele>
        <time>2013-09-04T15:11:38Z</time>
      </trkpt>
      <trkpt lat="43.092367" lon="-4.703467">
        <ele>1378.0</ele>
        <time>2013-09-04T15:11:39Z</time>
      </trkpt>
      <trkpt lat="43.092300" lon="-4.703400">
        <ele>1377.0</ele>
        <time>2013-09-04T15:11:40Z</time>
      </trkpt>
      <trkpt lat="43.092217" lon="-4.703333">
        <ele>1378.0</ele>
        <time>2013-09-04T15:11:41Z</time>
      </trkpt>
      <trkpt lat="43.092167" lon="-4.703300">
        <ele>1379.0</ele>
        <time>2013-09-04T15:11:42Z</time>
      </trkpt>
      <trkpt lat="43.092100" lon="-4.703250">
        <ele>1379.0</ele>
        <time>2013-09-04T15:11:43Z</time>
      </trkpt>
      <trkpt lat="43.092050" lon="-4.703217">
        <ele>1378.0</ele>
        <time>2013-09-04T15:11:44Z</time>
      </trkpt>
      <trkpt lat="43.091983" lon="-4.703167">
        <ele>1377.0</ele>
        <time>2013-09-04T15:11:45Z</time>
      </trkpt>
      <trkpt lat="43.091933" lon="-4.703100">
        <ele>1377.0</ele>
        <time>2013-09-04T15:11:46Z</time>
      </trkpt>
      <trkpt lat="43.091900" lon="-4.703050">
        <ele>1376.0</ele>
        <time>2013-09-04T15:11:47Z</time>
      </trkpt>
      <trkpt lat="43.091867" lon="-4.702983">
        <ele>1374.0</ele>
        <time>2013-09-04T15:11:48Z</time>
      </trkpt>
      <trkpt lat="43.091833" lon="-4.702900">
        <ele>1371.0</ele>
        <time>2013-09-04T15:11:49Z</time>
      </trkpt>
      <trkpt lat="43.091800" lon="-4.702817">
        <ele>1369.0</ele>
        <time>2013-09-04T15:11:50Z</time>
      </trkpt>
      <trkpt lat="43.091750" lon="-4.702717">
        <ele>1367.0</ele>
        <time>2013-09-04T15:11:51Z</time>
      </trkpt>
      <trkpt lat="43.091717" lon="-4.702633">
        <ele>1366.0</ele>
        <time>2013-09-04T15:11:52Z</time>
      </trkpt>
      <trkpt lat="43.091683" lon="-4.702533">
        <ele>1367.0</ele>
        <time>2013-09-04T15:11:53Z</time>
      </trkpt>
      <trkpt lat="43.091650" lon="-4.702450">
        <ele>1367.0</ele>
        <time>2013-09-04T15:11:54Z</time>
      </trkpt>
      <trkpt lat="43.091600" lon="-4.702367">
        <ele>1367.0</ele>
        <time>2013-09-04T15:11:55Z</time>
      </trkpt>
      <trkpt lat="43.091567" lon="-4.702300">
        <ele>1367.0</ele>
        <time>2013-09-04T15:11:56Z</time>
      </trkpt>
      <trkpt lat="43.091517" lon="-4.702217">
        <ele>1367.0</ele>
        <time>2013-09-04T15:11:57Z</time>
      </trkpt>
      <trkpt lat="43.091483" lon="-4.702117">
        <ele>1366.0</ele>
        <time>2013-09-04T15:11:58Z</time>
      </trkpt>
      <trkpt lat="43.091450" lon="-4.702033">
        <ele>1366.0</ele>
        <time>2013-09-04T15:11:59Z</time>
      </trkpt>
      <trkpt lat="43.091417" lon="-4.701950">
        <ele>1367.0</ele>
        <time>2013-09-04T15:12:00Z</time>
      </trkpt>
      <trkpt lat="43.091383" lon="-4.701867">
        <ele>1368.0</ele>
        <time>2013-09-04T15:12:01Z</time>
      </trkpt>
      <trkpt lat="43.091350" lon="-4.701783">
        <ele>1368.0</ele>
        <time>2013-09-04T15:12:02Z</time>
      </trkpt>
      <trkpt lat="43.091317" lon="-4.701700">
        <ele>1368.0</ele>
        <time>2013-09-04T15:12:03Z</time>
      </trkpt>
      <trkpt lat="43.091300" lon="-4.701617">
        <ele>1367.0</ele>
        <time>2013-09-04T15:12:04Z</time>
      </trkpt>
      <trkpt lat="43.091283" lon="-4.701533">
        <ele>1366.0</ele>
        <time>2013-09-04T15:12:05Z</time>
      </trkpt>
      <trkpt lat="43.091267" lon="-4.701433">
        <ele>1366.0</ele>
        <time>2013-09-04T15:12:06Z</time>
      </trkpt>
      <trkpt lat="43.091250" lon="-4.701350">
        <ele>1365.0</ele>
        <time>2013-09-04T15:12:07Z</time>
      </trkpt>
      <trkpt lat="43.091233" lon="-4.701267">
        <ele>1364.0</ele>
        <time>2013-09-04T15:12:08Z</time>
      </trkpt>
      <trkpt lat="43.091217" lon="-4.701167">
        <ele>1362.0</ele>
        <time>2013-09-04T15:12:09Z</time>
      </trkpt>
      <trkpt lat="43.091200" lon="-4.701067">
        <ele>1362.0</ele>
        <time>2013-09-04T15:12:10Z</time>
      </trkpt>
      <trkpt lat="43.091183" lon="-4.700967">
        <ele>1361.0</ele>
        <time>2013-09-04T15:12:11Z</time>
      </trkpt>
      <trkpt lat="43.091167" lon="-4.700867">
        <ele>1361.0</ele>
        <time>2013-09-04T15:12:12Z</time>
      </trkpt>
      <trkpt lat="43.091150" lon="-4.700767">
        <ele>1360.0</ele>
        <time>2013-09-04T15:12:13Z</time>
      </trkpt>
      <trkpt lat="43.091150" lon="-4.700683">
        <ele>1360.0</ele>
        <time>2013-09-04T15:12:14Z</time>
      </trkpt>
      <trkpt lat="43.091133" lon="-4.700600">
        <ele>1359.0</ele>
        <time>2013-09-04T15:12:15Z</time>
      </trkpt>
      <trkpt lat="43.091117" lon="-4.700500">
        <ele>1358.0</ele>
        <time>2013-09-04T15:12:16Z</time>
      </trkpt>
      <trkpt lat="43.091117" lon="-4.700417">
        <ele>1357.0</ele>
        <time>2013-09-04T15:12:17Z</time>
      </trkpt>
      <trkpt lat="43.091100" lon="-4.700317">
        <ele>1355.0</ele>
        <time>2013-09-04T15:12:18Z</time>
      </trkpt>
      <trkpt lat="43.091083" lon="-4.700217">
        <ele>1354.0</ele>
        <time>2013-09-04T15:12:19Z</time>
      </trkpt>
      <trkpt lat="43.091067" lon="-4.700133">
        <ele>1354.0</ele>
        <time>2013-09-04T15:12:20Z</time>
      </trkpt>
      <trkpt lat="43.091050" lon="-4.700050">
        <ele>1354.0</ele>
        <time>2013-09-04T15:12:21Z</time>
      </trkpt>
      <trkpt lat="43.091050" lon="-4.699967">
        <ele>1353.0</ele>
        <time>2013-09-04T15:12:22Z</time>
      </trkpt>
      <trkpt lat="43.091067" lon="-4.699900">
        <ele>1352.0</ele>
        <time>2013-09-04T15:12:23Z</time>
      </trkpt>
      <trkpt lat="43.091067" lon="-4.699833">
        <ele>1351.0</ele>
        <time>2013-09-04T15:12:24Z</time>
      </trkpt>
      <trkpt lat="43.091083" lon="-4.699750">
        <ele>1349.0</ele>
        <time>2013-09-04T15:12:25Z</time>
      </trkpt>
      <trkpt lat="43.091100" lon="-4.699667">
        <ele>1346.0</ele>
        <time>2013-09-04T15:12:26Z</time>
      </trkpt>
      <trkpt lat="43.091117" lon="-4.699567">
        <ele>1345.0</ele>
        <time>2013-09-04T15:12:27Z</time>
      </trkpt>
      <trkpt lat="43.091117" lon="-4.699467">
        <ele>1344.0</ele>
        <time>2013-09-04T15:12:28Z</time>
      </trkpt>
      <trkpt lat="43.091133" lon="-4.699383">
        <ele>1343.0</ele>
        <time>2013-09-04T15:12:29Z</time>
      </trkpt>
      <trkpt lat="43.091150" lon="-4.699300">
        <ele>1342.0</ele>
        <time>2013-09-04T15:12:30Z</time>
      </trkpt>
      <trkpt lat="43.091150" lon="-4.699217">
        <ele>1341.0</ele>
        <time>2013-09-04T15:12:31Z</time>
      </trkpt>
      <trkpt lat="43.091167" lon="-4.699133">
        <ele>1340.0</ele>
        <time>2013-09-04T15:12:32Z</time>
      </trkpt>
      <trkpt lat="43.091183" lon="-4.699050">
        <ele>1339.0</ele>
        <time>2013-09-04T15:12:33Z</time>
      </trkpt>
      <trkpt lat="43.091183" lon="-4.698950">
        <ele>1339.0</ele>
        <time>2013-09-04T15:12:34Z</time>
      </trkpt>
      <trkpt lat="43.091200" lon="-4.698867">
        <ele>1339.0</ele>
        <time>2013-09-04T15:12:35Z</time>
      </trkpt>
      <trkpt lat="43.091200" lon="-4.698783">
        <ele>1339.0</ele>
        <time>2013-09-04T15:12:36Z</time>
      </trkpt>
      <trkpt lat="43.091200" lon="-4.698700">
        <ele>1339.0</ele>
        <time>2013-09-04T15:12:37Z</time>
      </trkpt>
      <trkpt lat="43.091200" lon="-4.698633">
        <ele>1339.0</ele>
        <time>2013-09-04T15:12:38Z</time>
      </trkpt>
      <trkpt lat="43.091200" lon="-4.698550">
        <ele>1339.0</ele>
        <time>2013-09-04T15:12:39Z</time>
      </trkpt>
      <trkpt lat="43.091183" lon="-4.698467">
        <ele>1337.0</ele>
        <time>2013-09-04T15:12:40Z</time>
      </trkpt>
      <trkpt lat="43.091183" lon="-4.698350">
        <ele>1336.0</ele>
        <time>2013-09-04T15:12:41Z</time>
      </trkpt>
      <trkpt lat="43.091200" lon="-4.698250">
        <ele>1336.0</ele>
        <time>2013-09-04T15:12:42Z</time>
      </trkpt>
      <trkpt lat="43.091200" lon="-4.698150">
        <ele>1337.0</ele>
        <time>2013-09-04T15:12:43Z</time>
      </trkpt>
      <trkpt lat="43.091183" lon="-4.698083">
        <ele>1337.0</ele>
        <time>2013-09-04T15:12:44Z</time>
      </trkpt>
      <trkpt lat="43.091183" lon="-4.698000">
        <ele>1336.0</ele>
        <time>2013-09-04T15:12:45Z</time>
      </trkpt>
      <trkpt lat="43.091183" lon="-4.697900">
        <ele>1336.0</ele>
        <time>2013-09-04T15:12:46Z</time>
      </trkpt>
      <trkpt lat="43.091183" lon="-4.697800">
        <ele>1334.0</ele>
        <time>2013-09-04T15:12:47Z</time>
      </trkpt>
      <trkpt lat="43.091167" lon="-4.697717">
        <ele>1333.0</ele>
        <time>2013-09-04T15:12:48Z</time>
      </trkpt>
      <trkpt lat="43.091167" lon="-4.697617">
        <ele>1333.0</ele>
        <time>2013-09-04T15:12:49Z</time>
      </trkpt>
      <trkpt lat="43.091150" lon="-4.697517">
        <ele>1332.0</ele>
        <time>2013-09-04T15:12:50Z</time>
      </trkpt>
      <trkpt lat="43.091150" lon="-4.697433">
        <ele>1332.0</ele>
        <time>2013-09-04T15:12:51Z</time>
      </trkpt>
      <trkpt lat="43.091150" lon="-4.697333">
        <ele>1330.0</ele>
        <time>2013-09-04T15:12:52Z</time>
      </trkpt>
      <trkpt lat="43.091150" lon="-4.697233">
        <ele>1329.0</ele>
        <time>2013-09-04T15:12:53Z</time>
      </trkpt>
      <trkpt lat="43.091150" lon="-4.697117">
        <ele>1328.0</ele>
        <time>2013-09-04T15:12:54Z</time>
      </trkpt>
      <trkpt lat="43.091150" lon="-4.697017">
        <ele>1327.0</ele>
        <time>2013-09-04T15:12:55Z</time>
      </trkpt>
      <trkpt lat="43.091133" lon="-4.696933">
        <ele>1327.0</ele>
        <time>2013-09-04T15:12:56Z</time>
      </trkpt>
      <trkpt lat="43.091100" lon="-4.696850">
        <ele>1328.0</ele>
        <time>2013-09-04T15:12:57Z</time>
      </trkpt>
      <trkpt lat="43.091067" lon="-4.696783">
        <ele>1327.0</ele>
        <time>2013-09-04T15:12:58Z</time>
      </trkpt>
      <trkpt lat="43.091050" lon="-4.696700">
        <ele>1327.0</ele>
        <time>2013-09-04T15:12:59Z</time>
      </trkpt>
      <trkpt lat="43.091033" lon="-4.696617">
        <ele>1326.0</ele>
        <time>2013-09-04T15:13:00Z</time>
      </trkpt>
      <trkpt lat="43.091017" lon="-4.696533">
        <ele>1325.0</ele>
        <time>2013-09-04T15:13:01Z</time>
      </trkpt>
      <trkpt lat="43.091017" lon="-4.696450">
        <ele>1324.0</ele>
        <time>2013-09-04T15:13:02Z</time>
      </trkpt>
      <trkpt lat="43.091033" lon="-4.696383">
        <ele>1323.0</ele>
        <time>2013-09-04T15:13:03Z</time>
      </trkpt>
      <trkpt lat="43.091033" lon="-4.696300">
        <ele>1322.0</ele>
        <time>2013-09-04T15:13:04Z</time>
      </trkpt>
      <trkpt lat="43.091033" lon="-4.696200">
        <ele>1320.0</ele>
        <time>2013-09-04T15:13:05Z</time>
      </trkpt>
      <trkpt lat="43.091050" lon="-4.696100">
        <ele>1319.0</ele>
        <time>2013-09-04T15:13:06Z</time>
      </trkpt>
      <trkpt lat="43.091033" lon="-4.696000">
        <ele>1317.0</ele>
        <time>2013-09-04T15:13:07Z</time>
      </trkpt>
      <trkpt lat="43.091033" lon="-4.695900">
        <ele>1317.0</ele>
        <time>2013-09-04T15:13:08Z</time>
      </trkpt>
      <trkpt lat="43.091017" lon="-4.695800">
        <ele>1316.0</ele>
        <time>2013-09-04T15:13:09Z</time>
      </trkpt>
      <trkpt lat="43.090983" lon="-4.695700">
        <ele>1315.0</ele>
        <time>2013-09-04T15:13:10Z</time>
      </trkpt>
      <trkpt lat="43.090967" lon="-4.695617">
        <ele>1315.0</ele>
        <time>2013-09-04T15:13:11Z</time>
      </trkpt>
      <trkpt lat="43.090950" lon="-4.695517">
        <ele>1314.0</ele>
        <time>2013-09-04T15:13:12Z</time>
      </trkpt>
      <trkpt lat="43.090933" lon="-4.695433">
        <ele>1314.0</ele>
        <time>2013-09-04T15:13:13Z</time>
      </trkpt>
      <trkpt lat="43.090917" lon="-4.695367">
        <ele>1314.0</ele>
        <time>2013-09-04T15:13:14Z</time>
      </trkpt>
      <trkpt lat="43.090900" lon="-4.695300">
        <ele>1314.0</ele>
        <time>2013-09-04T15:13:15Z</time>
      </trkpt>
      <trkpt lat="43.090883" lon="-4.695250">
        <ele>1315.0</ele>
        <time>2013-09-04T15:13:16Z</time>
      </trkpt>
      <trkpt lat="43.090850" lon="-4.695200">
        <ele>1314.0</ele>
        <time>2013-09-04T15:13:17Z</time>
      </trkpt>
      <trkpt lat="43.090817" lon="-4.695150">
        <ele>1314.0</ele>
        <time>2013-09-04T15:13:18Z</time>
      </trkpt>
      <trkpt lat="43.090767" lon="-4.695100">
        <ele>1314.0</ele>
        <time>2013-09-04T15:13:19Z</time>
      </trkpt>
      <trkpt lat="43.090733" lon="-4.695033">
        <ele>1313.0</ele>
        <time>2013-09-04T15:13:20Z</time>
      </trkpt>
      <trkpt lat="43.090683" lon="-4.694967">
        <ele>1313.0</ele>
        <time>2013-09-04T15:13:21Z</time>
      </trkpt>
      <trkpt lat="43.090650" lon="-4.694883">
        <ele>1312.0</ele>
        <time>2013-09-04T15:13:22Z</time>
      </trkpt>
      <trkpt lat="43.090617" lon="-4.694800">
        <ele>1312.0</ele>
        <time>2013-09-04T15:13:23Z</time>
      </trkpt>
      <trkpt lat="43.090583" lon="-4.694717">
        <ele>1312.0</ele>
        <time>2013-09-04T15:13:24Z</time>
      </trkpt>
      <trkpt lat="43.090533" lon="-4.694650">
        <ele>1312.0</ele>
        <time>2013-09-04T15:13:25Z</time>
      </trkpt>
      <trkpt lat="43.090500" lon="-4.694567">
        <ele>1312.0</ele>
        <time>2013-09-04T15:13:26Z</time>
      </trkpt>
      <trkpt lat="43.090467" lon="-4.694483">
        <ele>1312.0</ele>
        <time>2013-09-04T15:13:27Z</time>
      </trkpt>
      <trkpt lat="43.090417" lon="-4.694417">
        <ele>1312.0</ele>
        <time>2013-09-04T15:13:28Z</time>
      </trkpt>
      <trkpt lat="43.090383" lon="-4.694333">
        <ele>1312.0</ele>
        <time>2013-09-04T15:13:29Z</time>
      </trkpt>
      <trkpt lat="43.090367" lon="-4.694283">
        <ele>1312.0</ele>
        <time>2013-09-04T15:13:30Z</time>
      </trkpt>
      <trkpt lat="43.090333" lon="-4.694217">
        <ele>1311.0</ele>
        <time>2013-09-04T15:13:31Z</time>
      </trkpt>
      <trkpt lat="43.090300" lon="-4.694133">
        <ele>1309.0</ele>
        <time>2013-09-04T15:13:32Z</time>
      </trkpt>
      <trkpt lat="43.090267" lon="-4.694050">
        <ele>1306.0</ele>
        <time>2013-09-04T15:13:33Z</time>
      </trkpt>
      <trkpt lat="43.090233" lon="-4.693950">
        <ele>1304.0</ele>
        <time>2013-09-04T15:13:34Z</time>
      </trkpt>
      <trkpt lat="43.090200" lon="-4.693850">
        <ele>1303.0</ele>
        <time>2013-09-04T15:13:35Z</time>
      </trkpt>
      <trkpt lat="43.090150" lon="-4.693783">
        <ele>1302.0</ele>
        <time>2013-09-04T15:13:36Z</time>
      </trkpt>
      <trkpt lat="43.090100" lon="-4.693700">
        <ele>1301.0</ele>
        <time>2013-09-04T15:13:37Z</time>
      </trkpt>
      <trkpt lat="43.090067" lon="-4.693617">
        <ele>1301.0</ele>
        <time>2013-09-04T15:13:38Z</time>
      </trkpt>
      <trkpt lat="43.090017" lon="-4.693533">
        <ele>1300.0</ele>
        <time>2013-09-04T15:13:39Z</time>
      </trkpt>
      <trkpt lat="43.089983" lon="-4.693450">
        <ele>1299.0</ele>
        <time>2013-09-04T15:13:40Z</time>
      </trkpt>
      <trkpt lat="43.089933" lon="-4.693367">
        <ele>1299.0</ele>
        <time>2013-09-04T15:13:41Z</time>
      </trkpt>
      <trkpt lat="43.089883" lon="-4.693300">
        <ele>1299.0</ele>
        <time>2013-09-04T15:13:42Z</time>
      </trkpt>
      <trkpt lat="43.089850" lon="-4.693233">
        <ele>1300.0</ele>
        <time>2013-09-04T15:13:43Z</time>
      </trkpt>
      <trkpt lat="43.089800" lon="-4.693183">
        <ele>1300.0</ele>
        <time>2013-09-04T15:13:44Z</time>
      </trkpt>
      <trkpt lat="43.089750" lon="-4.693133">
        <ele>1301.0</ele>
        <time>2013-09-04T15:13:45Z</time>
      </trkpt>
      <trkpt lat="43.089733" lon="-4.693083">
        <ele>1300.0</ele>
        <time>2013-09-04T15:13:46Z</time>
      </trkpt>
      <trkpt lat="43.089717" lon="-4.693017">
        <ele>1299.0</ele>
        <time>2013-09-04T15:13:47Z</time>
      </trkpt>
      <trkpt lat="43.089717" lon="-4.692950">
        <ele>1297.0</ele>
        <time>2013-09-04T15:13:48Z</time>
      </trkpt>
      <trkpt lat="43.089733" lon="-4.692850">
        <ele>1295.0</ele>
        <time>2013-09-04T15:13:49Z</time>
      </trkpt>
      <trkpt lat="43.089733" lon="-4.692750">
        <ele>1294.0</ele>
        <time>2013-09-04T15:13:50Z</time>
      </trkpt>
      <trkpt lat="43.089733" lon="-4.692650">
        <ele>1294.0</ele>
        <time>2013-09-04T15:13:51Z</time>
      </trkpt>
      <trkpt lat="43.089733" lon="-4.692567">
        <ele>1294.0</ele>
        <time>2013-09-04T15:13:52Z</time>
      </trkpt>
      <trkpt lat="43.089750" lon="-4.692500">
        <ele>1294.0</ele>
        <time>2013-09-04T15:13:53Z</time>
      </trkpt>
      <trkpt lat="43.089750" lon="-4.692417">
        <ele>1293.0</ele>
        <time>2013-09-04T15:13:54Z</time>
      </trkpt>
      <trkpt lat="43.089783" lon="-4.692350">
        <ele>1291.0</ele>
        <time>2013-09-04T15:13:55Z</time>
      </trkpt>
      <trkpt lat="43.089800" lon="-4.692267">
        <ele>1289.0</ele>
        <time>2013-09-04T15:13:56Z</time>
      </trkpt>
      <trkpt lat="43.089817" lon="-4.692167">
        <ele>1288.0</ele>
        <time>2013-09-04T15:13:57Z</time>
      </trkpt>
      <trkpt lat="43.089833" lon="-4.692083">
        <ele>1287.0</ele>
        <time>2013-09-04T15:13:58Z</time>
      </trkpt>
      <trkpt lat="43.089833" lon="-4.692000">
        <ele>1287.0</ele>
        <time>2013-09-04T15:13:59Z</time>
      </trkpt>
      <trkpt lat="43.089850" lon="-4.691933">
        <ele>1287.0</ele>
        <time>2013-09-04T15:14:00Z</time>
      </trkpt>
      <trkpt lat="43.089850" lon="-4.691867">
        <ele>1287.0</ele>
        <time>2013-09-04T15:14:01Z</time>
      </trkpt>
      <trkpt lat="43.089850" lon="-4.691783">
        <ele>1286.0</ele>
        <time>2013-09-04T15:14:02Z</time>
      </trkpt>
      <trkpt lat="43.089867" lon="-4.691717">
        <ele>1285.0</ele>
        <time>2013-09-04T15:14:03Z</time>
      </trkpt>
      <trkpt lat="43.089867" lon="-4.691617">
        <ele>1284.0</ele>
        <time>2013-09-04T15:14:04Z</time>
      </trkpt>
      <trkpt lat="43.089867" lon="-4.691533">
        <ele>1284.0</ele>
        <time>2013-09-04T15:14:05Z</time>
      </trkpt>
      <trkpt lat="43.089883" lon="-4.691433">
        <ele>1284.0</ele>
        <time>2013-09-04T15:14:06Z</time>
      </trkpt>
      <trkpt lat="43.089883" lon="-4.691350">
        <ele>1284.0</ele>
        <time>2013-09-04T15:14:07Z</time>
      </trkpt>
      <trkpt lat="43.089883" lon="-4.691267">
        <ele>1283.0</ele>
        <time>2013-09-04T15:14:08Z</time>
      </trkpt>
      <trkpt lat="43.089883" lon="-4.691167">
        <ele>1283.0</ele>
        <time>2013-09-04T15:14:09Z</time>
      </trkpt>
      <trkpt lat="43.089883" lon="-4.691067">
        <ele>1282.0</ele>
        <time>2013-09-04T15:14:10Z</time>
      </trkpt>
      <trkpt lat="43.089883" lon="-4.690967">
        <ele>1282.0</ele>
        <time>2013-09-04T15:14:11Z</time>
      </trkpt>
      <trkpt lat="43.089917" lon="-4.690883">
        <ele>1284.0</ele>
        <time>2013-09-04T15:14:12Z</time>
      </trkpt>
      <trkpt lat="43.089933" lon="-4.690833">
        <ele>1285.0</ele>
        <time>2013-09-04T15:14:13Z</time>
      </trkpt>
      <trkpt lat="43.089967" lon="-4.690767">
        <ele>1284.0</ele>
        <time>2013-09-04T15:14:14Z</time>
      </trkpt>
      <trkpt lat="43.090000" lon="-4.690717">
        <ele>1282.0</ele>
        <time>2013-09-04T15:14:15Z</time>
      </trkpt>
      <trkpt lat="43.090050" lon="-4.690633">
        <ele>1281.0</ele>
        <time>2013-09-04T15:14:16Z</time>
      </trkpt>
      <trkpt lat="43.090083" lon="-4.690550">
        <ele>1279.0</ele>
        <time>2013-09-04T15:14:17Z</time>
      </trkpt>
      <trkpt lat="43.090100" lon="-4.690467">
        <ele>1279.0</ele>
        <time>2013-09-04T15:14:18Z</time>
      </trkpt>
      <trkpt lat="43.090133" lon="-4.690400">
        <ele>1279.0</ele>
        <time>2013-09-04T15:14:19Z</time>
      </trkpt>
      <trkpt lat="43.090150" lon="-4.690333">
        <ele>1279.0</ele>
        <time>2013-09-04T15:14:20Z</time>
      </trkpt>
      <trkpt lat="43.090167" lon="-4.690267">
        <ele>1279.0</ele>
        <time>2013-09-04T15:14:21Z</time>
      </trkpt>
      <trkpt lat="43.090183" lon="-4.690183">
        <ele>1278.0</ele>
        <time>2013-09-04T15:14:22Z</time>
      </trkpt>
      <trkpt lat="43.090200" lon="-4.690083">
        <ele>1278.0</ele>
        <time>2013-09-04T15:14:23Z</time>
      </trkpt>
      <trkpt lat="43.090200" lon="-4.690000">
        <ele>1279.0</ele>
        <time>2013-09-04T15:14:24Z</time>
      </trkpt>
      <trkpt lat="43.090200" lon="-4.689917">
        <ele>1280.0</ele>
        <time>2013-09-04T15:14:25Z</time>
      </trkpt>
      <trkpt lat="43.090200" lon="-4.689833">
        <ele>1280.0</ele>
        <time>2013-09-04T15:14:26Z</time>
      </trkpt>
      <trkpt lat="43.090200" lon="-4.689750">
        <ele>1280.0</ele>
        <time>2013-09-04T15:14:27Z</time>
      </trkpt>
      <trkpt lat="43.090200" lon="-4.689667">
        <ele>1280.0</ele>
        <time>2013-09-04T15:14:28Z</time>
      </trkpt>
      <trkpt lat="43.090183" lon="-4.689583">
        <ele>1281.0</ele>
        <time>2013-09-04T15:14:29Z</time>
      </trkpt>
      <trkpt lat="43.090183" lon="-4.689500">
        <ele>1281.0</ele>
        <time>2013-09-04T15:14:30Z</time>
      </trkpt>
      <trkpt lat="43.090150" lon="-4.689417">
        <ele>1280.0</ele>
        <time>2013-09-04T15:14:31Z</time>
      </trkpt>
      <trkpt lat="43.090133" lon="-4.689317">
        <ele>1280.0</ele>
        <time>2013-09-04T15:14:32Z</time>
      </trkpt>
      <trkpt lat="43.090100" lon="-4.689200">
        <ele>1279.0</ele>
        <time>2013-09-04T15:14:33Z</time>
      </trkpt>
      <trkpt lat="43.090083" lon="-4.689100">
        <ele>1279.0</ele>
        <time>2013-09-04T15:14:34Z</time>
      </trkpt>
      <trkpt lat="43.090067" lon="-4.689000">
        <ele>1279.0</ele>
        <time>2013-09-04T15:14:35Z</time>
      </trkpt>
      <trkpt lat="43.090050" lon="-4.688900">
        <ele>1280.0</ele>
        <time>2013-09-04T15:14:36Z</time>
      </trkpt>
      <trkpt lat="43.090050" lon="-4.688817">
        <ele>1281.0</ele>
        <time>2013-09-04T15:14:37Z</time>
      </trkpt>
      <trkpt lat="43.090050" lon="-4.688733">
        <ele>1280.0</ele>
        <time>2013-09-04T15:14:38Z</time>
      </trkpt>
      <trkpt lat="43.090050" lon="-4.688633">
        <ele>1280.0</ele>
        <time>2013-09-04T15:14:39Z</time>
      </trkpt>
      <trkpt lat="43.090033" lon="-4.688550">
        <ele>1280.0</ele>
        <time>2013-09-04T15:14:40Z</time>
      </trkpt>
      <trkpt lat="43.090033" lon="-4.688467">
        <ele>1280.0</ele>
        <time>2013-09-04T15:14:41Z</time>
      </trkpt>
      <trkpt lat="43.090033" lon="-4.688400">
        <ele>1281.0</ele>
        <time>2013-09-04T15:14:42Z</time>
      </trkpt>
      <trkpt lat="43.090067" lon="-4.688350">
        <ele>1280.0</ele>
        <time>2013-09-04T15:14:43Z</time>
      </trkpt>
      <trkpt lat="43.090083" lon="-4.688283">
        <ele>1278.0</ele>
        <time>2013-09-04T15:14:44Z</time>
      </trkpt>
      <trkpt lat="43.090117" lon="-4.688200">
        <ele>1277.0</ele>
        <time>2013-09-04T15:14:45Z</time>
      </trkpt>
      <trkpt lat="43.090150" lon="-4.688100">
        <ele>1276.0</ele>
        <time>2013-09-04T15:14:46Z</time>
      </trkpt>
      <trkpt lat="43.090167" lon="-4.688017">
        <ele>1275.0</ele>
        <time>2013-09-04T15:14:47Z</time>
      </trkpt>
      <trkpt lat="43.090183" lon="-4.687933">
        <ele>1275.0</ele>
        <time>2013-09-04T15:14:48Z</time>
      </trkpt>
      <trkpt lat="43.090183" lon="-4.687867">
        <ele>1275.0</ele>
        <time>2013-09-04T15:14:49Z</time>
      </trkpt>
      <trkpt lat="43.090183" lon="-4.687817">
        <ele>1275.0</ele>
        <time>2013-09-04T15:14:50Z</time>
      </trkpt>
      <trkpt lat="43.090167" lon="-4.687733">
        <ele>1272.0</ele>
        <time>2013-09-04T15:14:51Z</time>
      </trkpt>
      <trkpt lat="43.090150" lon="-4.687667">
        <ele>1270.0</ele>
        <time>2013-09-04T15:14:52Z</time>
      </trkpt>
      <trkpt lat="43.090117" lon="-4.687567">
        <ele>1268.0</ele>
        <time>2013-09-04T15:14:53Z</time>
      </trkpt>
      <trkpt lat="43.090083" lon="-4.687483">
        <ele>1267.0</ele>
        <time>2013-09-04T15:14:54Z</time>
      </trkpt>
      <trkpt lat="43.090050" lon="-4.687417">
        <ele>1267.0</ele>
        <time>2013-09-04T15:14:55Z</time>
      </trkpt>
      <trkpt lat="43.090017" lon="-4.687350">
        <ele>1265.0</ele>
        <time>2013-09-04T15:14:56Z</time>
      </trkpt>
      <trkpt lat="43.090000" lon="-4.687283">
        <ele>1264.0</ele>
        <time>2013-09-04T15:14:57Z</time>
      </trkpt>
      <trkpt lat="43.089983" lon="-4.687200">
        <ele>1262.0</ele>
        <time>2013-09-04T15:14:58Z</time>
      </trkpt>
      <trkpt lat="43.089967" lon="-4.687117">
        <ele>1261.0</ele>
        <time>2013-09-04T15:14:59Z</time>
      </trkpt>
      <trkpt lat="43.089967" lon="-4.687050">
        <ele>1260.0</ele>
        <time>2013-09-04T15:15:00Z</time>
      </trkpt>
      <trkpt lat="43.089967" lon="-4.686983">
        <ele>1259.0</ele>
        <time>2013-09-04T15:15:01Z</time>
      </trkpt>
      <trkpt lat="43.090000" lon="-4.686933">
        <ele>1257.0</ele>
        <time>2013-09-04T15:15:02Z</time>
      </trkpt>
      <trkpt lat="43.090050" lon="-4.686883">
        <ele>1256.0</ele>
        <time>2013-09-04T15:15:03Z</time>
      </trkpt>
      <trkpt lat="43.090100" lon="-4.686867">
        <ele>1255.0</ele>
        <time>2013-09-04T15:15:04Z</time>
      </trkpt>
      <trkpt lat="43.090150" lon="-4.686850">
        <ele>1255.0</ele>
        <time>2013-09-04T15:15:05Z</time>
      </trkpt>
      <trkpt lat="43.090200" lon="-4.686867">
        <ele>1254.0</ele>
        <time>2013-09-04T15:15:06Z</time>
      </trkpt>
      <trkpt lat="43.090267" lon="-4.686883">
        <ele>1253.0</ele>
        <time>2013-09-04T15:15:07Z</time>
      </trkpt>
      <trkpt lat="43.090317" lon="-4.686917">
        <ele>1252.0</ele>
        <time>2013-09-04T15:15:08Z</time>
      </trkpt>
      <trkpt lat="43.090383" lon="-4.686967">
        <ele>1251.0</ele>
        <time>2013-09-04T15:15:09Z</time>
      </trkpt>
      <trkpt lat="43.090450" lon="-4.687050">
        <ele>1249.0</ele>
        <time>2013-09-04T15:15:10Z</time>
      </trkpt>
      <trkpt lat="43.090500" lon="-4.687133">
        <ele>1247.0</ele>
        <time>2013-09-04T15:15:11Z</time>
      </trkpt>
      <trkpt lat="43.090550" lon="-4.687250">
        <ele>1246.0</ele>
        <time>2013-09-04T15:15:12Z</time>
      </trkpt>
      <trkpt lat="43.090583" lon="-4.687367">
        <ele>1245.0</ele>
        <time>2013-09-04T15:15:13Z</time>
      </trkpt>
      <trkpt lat="43.090600" lon="-4.687500">
        <ele>1244.0</ele>
        <time>2013-09-04T15:15:14Z</time>
      </trkpt>
      <trkpt lat="43.090617" lon="-4.687617">
        <ele>1243.0</ele>
        <time>2013-09-04T15:15:15Z</time>
      </trkpt>
      <trkpt lat="43.090633" lon="-4.687750">
        <ele>1242.0</ele>
        <time>2013-09-04T15:15:16Z</time>
      </trkpt>
      <trkpt lat="43.090650" lon="-4.687883">
        <ele>1240.0</ele>
        <time>2013-09-04T15:15:17Z</time>
      </trkpt>
      <trkpt lat="43.090650" lon="-4.688017">
        <ele>1239.0</ele>
        <time>2013-09-04T15:15:18Z</time>
      </trkpt>
      <trkpt lat="43.090633" lon="-4.688167">
        <ele>1237.0</ele>
        <time>2013-09-04T15:15:19Z</time>
      </trkpt>
      <trkpt lat="43.090617" lon="-4.688300">
        <ele>1236.0</ele>
        <time>2013-09-04T15:15:20Z</time>
      </trkpt>
      <trkpt lat="43.090600" lon="-4.688417">
        <ele>1236.0</ele>
        <time>2013-09-04T15:15:21Z</time>
      </trkpt>
      <trkpt lat="43.090600" lon="-4.688533">
        <ele>1235.0</ele>
        <time>2013-09-04T15:15:22Z</time>
      </trkpt>
      <trkpt lat="43.090583" lon="-4.688650">
        <ele>1235.0</ele>
        <time>2013-09-04T15:15:23Z</time>
      </trkpt>
      <trkpt lat="43.090600" lon="-4.688800">
        <ele>1233.0</ele>
        <time>2013-09-04T15:15:24Z</time>
      </trkpt>
      <trkpt lat="43.090600" lon="-4.688933">
        <ele>1232.0</ele>
        <time>2013-09-04T15:15:25Z</time>
      </trkpt>
      <trkpt lat="43.090633" lon="-4.689067">
        <ele>1232.0</ele>
        <time>2013-09-04T15:15:26Z</time>
      </trkpt>
      <trkpt lat="43.090667" lon="-4.689183">
        <ele>1232.0</ele>
        <time>2013-09-04T15:15:27Z</time>
      </trkpt>
      <trkpt lat="43.090683" lon="-4.689317">
        <ele>1232.0</ele>
        <time>2013-09-04T15:15:28Z</time>
      </trkpt>
      <trkpt lat="43.090667" lon="-4.689433">
        <ele>1231.0</ele>
        <time>2013-09-04T15:15:29Z</time>
      </trkpt>
      <trkpt lat="43.090633" lon="-4.689583">
        <ele>1230.0</ele>
        <time>2013-09-04T15:15:30Z</time>
      </trkpt>
      <trkpt lat="43.090550" lon="-4.689700">
        <ele>1228.0</ele>
        <time>2013-09-04T15:15:31Z</time>
      </trkpt>
      <trkpt lat="43.090417" lon="-4.689750">
        <ele>1225.0</ele>
        <time>2013-09-04T15:15:32Z</time>
      </trkpt>
      <trkpt lat="43.090317" lon="-4.689717">
        <ele>1223.0</ele>
        <time>2013-09-04T15:15:33Z</time>
      </trkpt>
      <trkpt lat="43.090250" lon="-4.689633">
        <ele>1222.0</ele>
        <time>2013-09-04T15:15:34Z</time>
      </trkpt>
      <trkpt lat="43.090233" lon="-4.689533">
        <ele>1220.0</ele>
        <time>2013-09-04T15:15:35Z</time>
      </trkpt>
      <trkpt lat="43.090267" lon="-4.689467">
        <ele>1220.0</ele>
        <time>2013-09-04T15:15:36Z</time>
      </trkpt>
      <trkpt lat="43.090333" lon="-4.689417">
        <ele>1220.0</ele>
        <time>2013-09-04T15:15:37Z</time>
      </trkpt>
      <trkpt lat="43.090367" lon="-4.689400">
        <ele>1221.0</ele>
        <time>2013-09-04T15:15:38Z</time>
      </trkpt>
      <trkpt lat="43.090417" lon="-4.689367">
        <ele>1220.0</ele>
        <time>2013-09-04T15:15:39Z</time>
      </trkpt>
      <trkpt lat="43.090450" lon="-4.689317">
        <ele>1219.0</ele>
        <time>2013-09-04T15:15:40Z</time>
      </trkpt>
      <trkpt lat="43.090483" lon="-4.689250">
        <ele>1216.0</ele>
        <time>2013-09-04T15:15:41Z</time>
      </trkpt>
      <trkpt lat="43.090517" lon="-4.689167">
        <ele>1215.0</ele>
        <time>2013-09-04T15:15:42Z</time>
      </trkpt>
      <trkpt lat="43.090550" lon="-4.689083">
        <ele>1215.0</ele>
        <time>2013-09-04T15:15:43Z</time>
      </trkpt>
      <trkpt lat="43.090567" lon="-4.689017">
        <ele>1215.0</ele>
        <time>2013-09-04T15:15:44Z</time>
      </trkpt>
      <trkpt lat="43.090567" lon="-4.688967">
        <ele>1216.0</ele>
        <time>2013-09-04T15:15:45Z</time>
      </trkpt>
      <trkpt lat="43.090567" lon="-4.688917">
        <ele>1215.0</ele>
        <time>2013-09-04T15:15:46Z</time>
      </trkpt>
      <trkpt lat="43.090583" lon="-4.688833">
        <ele>1213.0</ele>
        <time>2013-09-04T15:15:47Z</time>
      </trkpt>
      <trkpt lat="43.090583" lon="-4.688750">
        <ele>1213.0</ele>
        <time>2013-09-04T15:15:48Z</time>
      </trkpt>
      <trkpt lat="43.090600" lon="-4.688650">
        <ele>1213.0</ele>
        <time>2013-09-04T15:15:49Z</time>
      </trkpt>
      <trkpt lat="43.090600" lon="-4.688550">
        <ele>1214.0</ele>
        <time>2013-09-04T15:15:50Z</time>
      </trkpt>
      <trkpt lat="43.090583" lon="-4.688450">
        <ele>1215.0</ele>
        <time>2013-09-04T15:15:51Z</time>
      </trkpt>
      <trkpt lat="43.090550" lon="-4.688350">
        <ele>1214.0</ele>
        <time>2013-09-04T15:15:52Z</time>
      </trkpt>
      <trkpt lat="43.090533" lon="-4.688250">
        <ele>1214.0</ele>
        <time>2013-09-04T15:15:53Z</time>
      </trkpt>
      <trkpt lat="43.090517" lon="-4.688133">
        <ele>1214.0</ele>
        <time>2013-09-04T15:15:54Z</time>
      </trkpt>
      <trkpt lat="43.090483" lon="-4.688017">
        <ele>1213.0</ele>
        <time>2013-09-04T15:15:55Z</time>
      </trkpt>
      <trkpt lat="43.090467" lon="-4.687917">
        <ele>1213.0</ele>
        <time>2013-09-04T15:15:56Z</time>
      </trkpt>
      <trkpt lat="43.090450" lon="-4.687817">
        <ele>1214.0</ele>
        <time>2013-09-04T15:15:57Z</time>
      </trkpt>
      <trkpt lat="43.090417" lon="-4.687717">
        <ele>1214.0</ele>
        <time>2013-09-04T15:15:58Z</time>
      </trkpt>
      <trkpt lat="43.090383" lon="-4.687617">
        <ele>1213.0</ele>
        <time>2013-09-04T15:15:59Z</time>
      </trkpt>
      <trkpt lat="43.090367" lon="-4.687517">
        <ele>1213.0</ele>
        <time>2013-09-04T15:16:00Z</time>
      </trkpt>
      <trkpt lat="43.090333" lon="-4.687417">
        <ele>1212.0</ele>
        <time>2013-09-04T15:16:01Z</time>
      </trkpt>
      <trkpt lat="43.090300" lon="-4.687317">
        <ele>1212.0</ele>
        <time>2013-09-04T15:16:02Z</time>
      </trkpt>
      <trkpt lat="43.090267" lon="-4.687217">
        <ele>1212.0</ele>
        <time>2013-09-04T15:16:03Z</time>
      </trkpt>
      <trkpt lat="43.090250" lon="-4.687133">
        <ele>1212.0</ele>
        <time>2013-09-04T15:16:04Z</time>
      </trkpt>
      <trkpt lat="43.090217" lon="-4.687033">
        <ele>1212.0</ele>
        <time>2013-09-04T15:16:05Z</time>
      </trkpt>
      <trkpt lat="43.090200" lon="-4.686933">
        <ele>1212.0</ele>
        <time>2013-09-04T15:16:06Z</time>
      </trkpt>
      <trkpt lat="43.090183" lon="-4.686833">
        <ele>1212.0</ele>
        <time>2013-09-04T15:16:07Z</time>
      </trkpt>
      <trkpt lat="43.090167" lon="-4.686750">
        <ele>1212.0</ele>
        <time>2013-09-04T15:16:08Z</time>
      </trkpt>
      <trkpt lat="43.090150" lon="-4.686650">
        <ele>1212.0</ele>
        <time>2013-09-04T15:16:09Z</time>
      </trkpt>
      <trkpt lat="43.090150" lon="-4.686550">
        <ele>1213.0</ele>
        <time>2013-09-04T15:16:10Z</time>
      </trkpt>
      <trkpt lat="43.090133" lon="-4.686450">
        <ele>1213.0</ele>
        <time>2013-09-04T15:16:11Z</time>
      </trkpt>
      <trkpt lat="43.090133" lon="-4.686350">
        <ele>1212.0</ele>
        <time>2013-09-04T15:16:12Z</time>
      </trkpt>
      <trkpt lat="43.090117" lon="-4.686250">
        <ele>1212.0</ele>
        <time>2013-09-04T15:16:13Z</time>
      </trkpt>
      <trkpt lat="43.090117" lon="-4.686167">
        <ele>1212.0</ele>
        <time>2013-09-04T15:16:14Z</time>
      </trkpt>
      <trkpt lat="43.090100" lon="-4.686067">
        <ele>1212.0</ele>
        <time>2013-09-04T15:16:15Z</time>
      </trkpt>
      <trkpt lat="43.090100" lon="-4.685967">
        <ele>1213.0</ele>
        <time>2013-09-04T15:16:16Z</time>
      </trkpt>
      <trkpt lat="43.090100" lon="-4.685867">
        <ele>1213.0</ele>
        <time>2013-09-04T15:16:17Z</time>
      </trkpt>
      <trkpt lat="43.090100" lon="-4.685783">
        <ele>1212.0</ele>
        <time>2013-09-04T15:16:18Z</time>
      </trkpt>
      <trkpt lat="43.090100" lon="-4.685683">
        <ele>1211.0</ele>
        <time>2013-09-04T15:16:19Z</time>
      </trkpt>
      <trkpt lat="43.090117" lon="-4.685583">
        <ele>1210.0</ele>
        <time>2013-09-04T15:16:20Z</time>
      </trkpt>
      <trkpt lat="43.090117" lon="-4.685450">
        <ele>1208.0</ele>
        <time>2013-09-04T15:16:21Z</time>
      </trkpt>
      <trkpt lat="43.090133" lon="-4.685333">
        <ele>1208.0</ele>
        <time>2013-09-04T15:16:22Z</time>
      </trkpt>
      <trkpt lat="43.090133" lon="-4.685233">
        <ele>1208.0</ele>
        <time>2013-09-04T15:16:23Z</time>
      </trkpt>
      <trkpt lat="43.090133" lon="-4.685133">
        <ele>1208.0</ele>
        <time>2013-09-04T15:16:24Z</time>
      </trkpt>
      <trkpt lat="43.090150" lon="-4.685050">
        <ele>1208.0</ele>
        <time>2013-09-04T15:16:25Z</time>
      </trkpt>
      <trkpt lat="43.090150" lon="-4.684967">
        <ele>1208.0</ele>
        <time>2013-09-04T15:16:26Z</time>
      </trkpt>
      <trkpt lat="43.090150" lon="-4.684883">
        <ele>1207.0</ele>
        <time>2013-09-04T15:16:27Z</time>
      </trkpt>
      <trkpt lat="43.090150" lon="-4.684767">
        <ele>1206.0</ele>
        <time>2013-09-04T15:16:28Z</time>
      </trkpt>
      <trkpt lat="43.090133" lon="-4.684650">
        <ele>1205.0</ele>
        <time>2013-09-04T15:16:29Z</time>
      </trkpt>
      <trkpt lat="43.090100" lon="-4.684533">
        <ele>1205.0</ele>
        <time>2013-09-04T15:16:30Z</time>
      </trkpt>
      <trkpt lat="43.090083" lon="-4.684433">
        <ele>1205.0</ele>
        <time>2013-09-04T15:16:31Z</time>
      </trkpt>
      <trkpt lat="43.090067" lon="-4.684333">
        <ele>1205.0</ele>
        <time>2013-09-04T15:16:32Z</time>
      </trkpt>
      <trkpt lat="43.090050" lon="-4.684250">
        <ele>1205.0</ele>
        <time>2013-09-04T15:16:33Z</time>
      </trkpt>
      <trkpt lat="43.090033" lon="-4.684150">
        <ele>1204.0</ele>
        <time>2013-09-04T15:16:34Z</time>
      </trkpt>
      <trkpt lat="43.090000" lon="-4.684050">
        <ele>1202.0</ele>
        <time>2013-09-04T15:16:35Z</time>
      </trkpt>
      <trkpt lat="43.089967" lon="-4.683933">
        <ele>1201.0</ele>
        <time>2013-09-04T15:16:36Z</time>
      </trkpt>
      <trkpt lat="43.089933" lon="-4.683833">
        <ele>1200.0</ele>
        <time>2013-09-04T15:16:37Z</time>
      </trkpt>
      <trkpt lat="43.089917" lon="-4.683717">
        <ele>1199.0</ele>
        <time>2013-09-04T15:16:38Z</time>
      </trkpt>
      <trkpt lat="43.089883" lon="-4.683600">
        <ele>1199.0</ele>
        <time>2013-09-04T15:16:39Z</time>
      </trkpt>
      <trkpt lat="43.089833" lon="-4.683500">
        <ele>1198.0</ele>
        <time>2013-09-04T15:16:40Z</time>
      </trkpt>
      <trkpt lat="43.089783" lon="-4.683400">
        <ele>1196.0</ele>
        <time>2013-09-04T15:16:41Z</time>
      </trkpt>
      <trkpt lat="43.089733" lon="-4.683300">
        <ele>1195.0</ele>
        <time>2013-09-04T15:16:42Z</time>
      </trkpt>
      <trkpt lat="43.089683" lon="-4.683200">
        <ele>1193.0</ele>
        <time>2013-09-04T15:16:43Z</time>
      </trkpt>
      <trkpt lat="43.089633" lon="-4.683100">
        <ele>1191.0</ele>
        <time>2013-09-04T15:16:44Z</time>
      </trkpt>
      <trkpt lat="43.089583" lon="-4.682983">
        <ele>1190.0</ele>
        <time>2013-09-04T15:16:45Z</time>
      </trkpt>
      <trkpt lat="43.089533" lon="-4.682900">
        <ele>1190.0</ele>
        <time>2013-09-04T15:16:46Z</time>
      </trkpt>
      <trkpt lat="43.089467" lon="-4.682817">
        <ele>1190.0</ele>
        <time>2013-09-04T15:16:47Z</time>
      </trkpt>
      <trkpt lat="43.089417" lon="-4.682733">
        <ele>1190.0</ele>
        <time>2013-09-04T15:16:48Z</time>
      </trkpt>
      <trkpt lat="43.089367" lon="-4.682667">
        <ele>1188.0</ele>
        <time>2013-09-04T15:16:49Z</time>
      </trkpt>
      <trkpt lat="43.089300" lon="-4.682567">
        <ele>1186.0</ele>
        <time>2013-09-04T15:16:50Z</time>
      </trkpt>
      <trkpt lat="43.089250" lon="-4.682483">
        <ele>1185.0</ele>
        <time>2013-09-04T15:16:51Z</time>
      </trkpt>
      <trkpt lat="43.089200" lon="-4.682383">
        <ele>1184.0</ele>
        <time>2013-09-04T15:16:52Z</time>
      </trkpt>
      <trkpt lat="43.089167" lon="-4.682317">
        <ele>1184.0</ele>
        <time>2013-09-04T15:16:53Z</time>
      </trkpt>
      <trkpt lat="43.089133" lon="-4.682250">
        <ele>1184.0</ele>
        <time>2013-09-04T15:16:54Z</time>
      </trkpt>
      <trkpt lat="43.089117" lon="-4.682183">
        <ele>1184.0</ele>
        <time>2013-09-04T15:16:55Z</time>
      </trkpt>
      <trkpt lat="43.089117" lon="-4.682117">
        <ele>1183.0</ele>
        <time>2013-09-04T15:16:56Z</time>
      </trkpt>
      <trkpt lat="43.089150" lon="-4.682067">
        <ele>1181.0</ele>
        <time>2013-09-04T15:16:57Z</time>
      </trkpt>
      <trkpt lat="43.089200" lon="-4.682017">
        <ele>1180.0</ele>
        <time>2013-09-04T15:16:58Z</time>
      </trkpt>
      <trkpt lat="43.089267" lon="-4.682000">
        <ele>1178.0</ele>
        <time>2013-09-04T15:16:59Z</time>
      </trkpt>
      <trkpt lat="43.089350" lon="-4.682000">
        <ele>1177.0</ele>
        <time>2013-09-04T15:17:00Z</time>
      </trkpt>
      <trkpt lat="43.089417" lon="-4.682017">
        <ele>1176.0</ele>
        <time>2013-09-04T15:17:01Z</time>
      </trkpt>
      <trkpt lat="43.089500" lon="-4.682000">
        <ele>1176.0</ele>
        <time>2013-09-04T15:17:02Z</time>
      </trkpt>
      <trkpt lat="43.089550" lon="-4.682000">
        <ele>1175.0</ele>
        <time>2013-09-04T15:17:03Z</time>
      </trkpt>
      <trkpt lat="43.089633" lon="-4.681967">
        <ele>1173.0</ele>
        <time>2013-09-04T15:17:04Z</time>
      </trkpt>
      <trkpt lat="43.089700" lon="-4.681967">
        <ele>1173.0</ele>
        <time>2013-09-04T15:17:05Z</time>
      </trkpt>
      <trkpt lat="43.089767" lon="-4.681950">
        <ele>1172.0</ele>
        <time>2013-09-04T15:17:06Z</time>
      </trkpt>
      <trkpt lat="43.089833" lon="-4.681950">
        <ele>1170.0</ele>
        <time>2013-09-04T15:17:07Z</time>
      </trkpt>
      <trkpt lat="43.089917" lon="-4.681950">
        <ele>1169.0</ele>
        <time>2013-09-04T15:17:08Z</time>
      </trkpt>
      <trkpt lat="43.089983" lon="-4.681933">
        <ele>1167.0</ele>
        <time>2013-09-04T15:17:09Z</time>
      </trkpt>
      <trkpt lat="43.090050" lon="-4.681917">
        <ele>1166.0</ele>
        <time>2013-09-04T15:17:10Z</time>
      </trkpt>
      <trkpt lat="43.090117" lon="-4.681883">
        <ele>1165.0</ele>
        <time>2013-09-04T15:17:11Z</time>
      </trkpt>
      <trkpt lat="43.090167" lon="-4.681867">
        <ele>1164.0</ele>
        <time>2013-09-04T15:17:12Z</time>
      </trkpt>
      <trkpt lat="43.090217" lon="-4.681850">
        <ele>1163.0</ele>
        <time>2013-09-04T15:17:13Z</time>
      </trkpt>
      <trkpt lat="43.090267" lon="-4.681833">
        <ele>1161.0</ele>
        <time>2013-09-04T15:17:14Z</time>
      </trkpt>
      <trkpt lat="43.090300" lon="-4.681800">
        <ele>1157.0</ele>
        <time>2013-09-04T15:17:15Z</time>
      </trkpt>
      <trkpt lat="43.090350" lon="-4.681750">
        <ele>1154.0</ele>
        <time>2013-09-04T15:17:16Z</time>
      </trkpt>
      <trkpt lat="43.090383" lon="-4.681683">
        <ele>1150.0</ele>
        <time>2013-09-04T15:17:17Z</time>
      </trkpt>
      <trkpt lat="43.090400" lon="-4.681600">
        <ele>1148.0</ele>
        <time>2013-09-04T15:17:18Z</time>
      </trkpt>
      <trkpt lat="43.090400" lon="-4.681517">
        <ele>1145.0</ele>
        <time>2013-09-04T15:17:19Z</time>
      </trkpt>
      <trkpt lat="43.090383" lon="-4.681450">
        <ele>1143.0</ele>
        <time>2013-09-04T15:17:20Z</time>
      </trkpt>
      <trkpt lat="43.090350" lon="-4.681367">
        <ele>1140.0</ele>
        <time>2013-09-04T15:17:21Z</time>
      </trkpt>
      <trkpt lat="43.090300" lon="-4.681283">
        <ele>1138.0</ele>
        <time>2013-09-04T15:17:22Z</time>
      </trkpt>
      <trkpt lat="43.090233" lon="-4.681233">
        <ele>1135.0</ele>
        <time>2013-09-04T15:17:23Z</time>
      </trkpt>
      <trkpt lat="43.090150" lon="-4.681200">
        <ele>1131.0</ele>
        <time>2013-09-04T15:17:24Z</time>
      </trkpt>
      <trkpt lat="43.090033" lon="-4.681233">
        <ele>1127.0</ele>
        <time>2013-09-04T15:17:25Z</time>
      </trkpt>
      <trkpt lat="43.089933" lon="-4.681317">
        <ele>1124.0</ele>
        <time>2013-09-04T15:17:26Z</time>
      </trkpt>
      <trkpt lat="43.089850" lon="-4.681433">
        <ele>1121.0</ele>
        <time>2013-09-04T15:17:27Z</time>
      </trkpt>
      <trkpt lat="43.089783" lon="-4.681583">
        <ele>1118.0</ele>
        <time>2013-09-04T15:17:28Z</time>
      </trkpt>
      <trkpt lat="43.089750" lon="-4.681750">
        <ele>1116.0</ele>
        <time>2013-09-04T15:17:29Z</time>
      </trkpt>
      <trkpt lat="43.089750" lon="-4.681883">
        <ele>1114.0</ele>
        <time>2013-09-04T15:17:30Z</time>
      </trkpt>
      <trkpt lat="43.089750" lon="-4.682017">
        <ele>1112.0</ele>
        <time>2013-09-04T15:17:31Z</time>
      </trkpt>
      <trkpt lat="43.089783" lon="-4.682150">
        <ele>1109.0</ele>
        <time>2013-09-04T15:17:32Z</time>
      </trkpt>
      <trkpt lat="43.089833" lon="-4.682250">
        <ele>1107.0</ele>
        <time>2013-09-04T15:17:33Z</time>
      </trkpt>
      <trkpt lat="43.089900" lon="-4.682333">
        <ele>1105.0</ele>
        <time>2013-09-04T15:17:34Z</time>
      </trkpt>
      <trkpt lat="43.089950" lon="-4.682350">
        <ele>1103.0</ele>
        <time>2013-09-04T15:17:35Z</time>
      </trkpt>
      <trkpt lat="43.090017" lon="-4.682350">
        <ele>1101.0</ele>
        <time>2013-09-04T15:17:36Z</time>
      </trkpt>
      <trkpt lat="43.090067" lon="-4.682300">
        <ele>1100.0</ele>
        <time>2013-09-04T15:17:37Z</time>
      </trkpt>
      <trkpt lat="43.090100" lon="-4.682250">
        <ele>1099.0</ele>
        <time>2013-09-04T15:17:38Z</time>
      </trkpt>
      <trkpt lat="43.090117" lon="-4.682200">
        <ele>1098.0</ele>
        <time>2013-09-04T15:17:39Z</time>
      </trkpt>
      <trkpt lat="43.090100" lon="-4.682133">
        <ele>1096.0</ele>
        <time>2013-09-04T15:17:40Z</time>
      </trkpt>
      <trkpt lat="43.090083" lon="-4.682050">
        <ele>1094.0</ele>
        <time>2013-09-04T15:17:41Z</time>
      </trkpt>
      <trkpt lat="43.090033" lon="-4.681967">
        <ele>1092.0</ele>
        <time>2013-09-04T15:17:42Z</time>
      </trkpt>
      <trkpt lat="43.089983" lon="-4.681883">
        <ele>1092.0</ele>
        <time>2013-09-04T15:17:43Z</time>
      </trkpt>
      <trkpt lat="43.089917" lon="-4.681817">
        <ele>1090.0</ele>
        <time>2013-09-04T15:17:44Z</time>
      </trkpt>
      <trkpt lat="43.089850" lon="-4.681800">
        <ele>1088.0</ele>
        <time>2013-09-04T15:17:45Z</time>
      </trkpt>
      <trkpt lat="43.089750" lon="-4.681783">
        <ele>1085.0</ele>
        <time>2013-09-04T15:17:46Z</time>
      </trkpt>
      <trkpt lat="43.089633" lon="-4.681767">
        <ele>1083.0</ele>
        <time>2013-09-04T15:17:47Z</time>
      </trkpt>
      <trkpt lat="43.089500" lon="-4.681750">
        <ele>1084.0</ele>
        <time>2013-09-04T15:17:48Z</time>
      </trkpt>
      <trkpt lat="43.089400" lon="-4.681767">
        <ele>1086.0</ele>
        <time>2013-09-04T15:17:49Z</time>
      </trkpt>
      <trkpt lat="43.089317" lon="-4.681817">
        <ele>1089.0</ele>
        <time>2013-09-04T15:17:50Z</time>
      </trkpt>
      <trkpt lat="43.089233" lon="-4.681883">
        <ele>1090.0</ele>
        <time>2013-09-04T15:17:51Z</time>
      </trkpt>
      <trkpt lat="43.089167" lon="-4.681933">
        <ele>1090.0</ele>
        <time>2013-09-04T15:17:52Z</time>
      </trkpt>
      <trkpt lat="43.089083" lon="-4.681983">
        <ele>1090.0</ele>
        <time>2013-09-04T15:17:53Z</time>
      </trkpt>
      <trkpt lat="43.088983" lon="-4.682033">
        <ele>1089.0</ele>
        <time>2013-09-04T15:17:54Z</time>
      </trkpt>
      <trkpt lat="43.088883" lon="-4.682100">
        <ele>1088.0</ele>
        <time>2013-09-04T15:17:55Z</time>
      </trkpt>
      <trkpt lat="43.088800" lon="-4.682200">
        <ele>1088.0</ele>
        <time>2013-09-04T15:17:56Z</time>
      </trkpt>
      <trkpt lat="43.088750" lon="-4.682317">
        <ele>1088.0</ele>
        <time>2013-09-04T15:17:57Z</time>
      </trkpt>
      <trkpt lat="43.088733" lon="-4.682450">
        <ele>1087.0</ele>
        <time>2013-09-04T15:17:58Z</time>
      </trkpt>
      <trkpt lat="43.088733" lon="-4.682583">
        <ele>1087.0</ele>
        <time>2013-09-04T15:17:59Z</time>
      </trkpt>
      <trkpt lat="43.088750" lon="-4.682683">
        <ele>1086.0</ele>
        <time>2013-09-04T15:18:00Z</time>
      </trkpt>
      <trkpt lat="43.088767" lon="-4.682783">
        <ele>1085.0</ele>
        <time>2013-09-04T15:18:01Z</time>
      </trkpt>
      <trkpt lat="43.088800" lon="-4.682883">
        <ele>1084.0</ele>
        <time>2013-09-04T15:18:02Z</time>
      </trkpt>
      <trkpt lat="43.088833" lon="-4.682983">
        <ele>1083.0</ele>
        <time>2013-09-04T15:18:03Z</time>
      </trkpt>
      <trkpt lat="43.088883" lon="-4.683083">
        <ele>1082.0</ele>
        <time>2013-09-04T15:18:04Z</time>
      </trkpt>
      <trkpt lat="43.088950" lon="-4.683183">
        <ele>1082.0</ele>
        <time>2013-09-04T15:18:05Z</time>
      </trkpt>
      <trkpt lat="43.088983" lon="-4.683267">
        <ele>1083.0</ele>
        <time>2013-09-04T15:18:06Z</time>
      </trkpt>
      <trkpt lat="43.089017" lon="-4.683350">
        <ele>1083.0</ele>
        <time>2013-09-04T15:18:07Z</time>
      </trkpt>
      <trkpt lat="43.089067" lon="-4.683433">
        <ele>1083.0</ele>
        <time>2013-09-04T15:18:08Z</time>
      </trkpt>
      <trkpt lat="43.089100" lon="-4.683517">
        <ele>1083.0</ele>
        <time>2013-09-04T15:18:09Z</time>
      </trkpt>
      <trkpt lat="43.089150" lon="-4.683600">
        <ele>1084.0</ele>
        <time>2013-09-04T15:18:10Z</time>
      </trkpt>
      <trkpt lat="43.089183" lon="-4.683700">
        <ele>1084.0</ele>
        <time>2013-09-04T15:18:11Z</time>
      </trkpt>
      <trkpt lat="43.089233" lon="-4.683783">
        <ele>1085.0</ele>
        <time>2013-09-04T15:18:12Z</time>
      </trkpt>
      <trkpt lat="43.089267" lon="-4.683883">
        <ele>1085.0</ele>
        <time>2013-09-04T15:18:13Z</time>
      </trkpt>
      <trkpt lat="43.089300" lon="-4.683983">
        <ele>1085.0</ele>
        <time>2013-09-04T15:18:14Z</time>
      </trkpt>
      <trkpt lat="43.089333" lon="-4.684083">
        <ele>1085.0</ele>
        <time>2013-09-04T15:18:15Z</time>
      </trkpt>
      <trkpt lat="43.089350" lon="-4.684200">
        <ele>1085.0</ele>
        <time>2013-09-04T15:18:16Z</time>
      </trkpt>
      <trkpt lat="43.089367" lon="-4.684317">
        <ele>1084.0</ele>
        <time>2013-09-04T15:18:17Z</time>
      </trkpt>
      <trkpt lat="43.089383" lon="-4.684450">
        <ele>1084.0</ele>
        <time>2013-09-04T15:18:18Z</time>
      </trkpt>
      <trkpt lat="43.089383" lon="-4.684567">
        <ele>1082.0</ele>
        <time>2013-09-04T15:18:19Z</time>
      </trkpt>
      <trkpt lat="43.089417" lon="-4.684700">
        <ele>1081.0</ele>
        <time>2013-09-04T15:18:20Z</time>
      </trkpt>
      <trkpt lat="43.089450" lon="-4.684817">
        <ele>1080.0</ele>
        <time>2013-09-04T15:18:21Z</time>
      </trkpt>
      <trkpt lat="43.089500" lon="-4.684950">
        <ele>1080.0</ele>
        <time>2013-09-04T15:18:22Z</time>
      </trkpt>
      <trkpt lat="43.089533" lon="-4.685050">
        <ele>1081.0</ele>
        <time>2013-09-04T15:18:23Z</time>
      </trkpt>
      <trkpt lat="43.089567" lon="-4.685150">
        <ele>1082.0</ele>
        <time>2013-09-04T15:18:24Z</time>
      </trkpt>
      <trkpt lat="43.089583" lon="-4.685250">
        <ele>1082.0</ele>
        <time>2013-09-04T15:18:25Z</time>
      </trkpt>
      <trkpt lat="43.089600" lon="-4.685367">
        <ele>1082.0</ele>
        <time>2013-09-04T15:18:26Z</time>
      </trkpt>
      <trkpt lat="43.089617" lon="-4.685483">
        <ele>1081.0</ele>
        <time>2013-09-04T15:18:27Z</time>
      </trkpt>
      <trkpt lat="43.089633" lon="-4.685617">
        <ele>1081.0</ele>
        <time>2013-09-04T15:18:28Z</time>
      </trkpt>
      <trkpt lat="43.089633" lon="-4.685750">
        <ele>1080.0</ele>
        <time>2013-09-04T15:18:29Z</time>
      </trkpt>
      <trkpt lat="43.089617" lon="-4.685883">
        <ele>1080.0</ele>
        <time>2013-09-04T15:18:30Z</time>
      </trkpt>
      <trkpt lat="43.089617" lon="-4.686017">
        <ele>1079.0</ele>
        <time>2013-09-04T15:18:31Z</time>
      </trkpt>
      <trkpt lat="43.089600" lon="-4.686150">
        <ele>1078.0</ele>
        <time>2013-09-04T15:18:32Z</time>
      </trkpt>
      <trkpt lat="43.089617" lon="-4.686283">
        <ele>1078.0</ele>
        <time>2013-09-04T15:18:33Z</time>
      </trkpt>
      <trkpt lat="43.089617" lon="-4.686417">
        <ele>1077.0</ele>
        <time>2013-09-04T15:18:34Z</time>
      </trkpt>
      <trkpt lat="43.089617" lon="-4.686550">
        <ele>1077.0</ele>
        <time>2013-09-04T15:18:35Z</time>
      </trkpt>
      <trkpt lat="43.089633" lon="-4.686683">
        <ele>1076.0</ele>
        <time>2013-09-04T15:18:36Z</time>
      </trkpt>
      <trkpt lat="43.089617" lon="-4.686833">
        <ele>1076.0</ele>
        <time>2013-09-04T15:18:37Z</time>
      </trkpt>
      <trkpt lat="43.089617" lon="-4.686950">
        <ele>1076.0</ele>
        <time>2013-09-04T15:18:38Z</time>
      </trkpt>
      <trkpt lat="43.089600" lon="-4.687083">
        <ele>1076.0</ele>
        <time>2013-09-04T15:18:39Z</time>
      </trkpt>
      <trkpt lat="43.089583" lon="-4.687217">
        <ele>1075.0</ele>
        <time>2013-09-04T15:18:40Z</time>
      </trkpt>
      <trkpt lat="43.089583" lon="-4.687367">
        <ele>1074.0</ele>
        <time>2013-09-04T15:18:41Z</time>
      </trkpt>
      <trkpt lat="43.089600" lon="-4.687517">
        <ele>1072.0</ele>
        <time>2013-09-04T15:18:42Z</time>
      </trkpt>
      <trkpt lat="43.089617" lon="-4.687667">
        <ele>1071.0</ele>
        <time>2013-09-04T15:18:43Z</time>
      </trkpt>
      <trkpt lat="43.089650" lon="-4.687800">
        <ele>1071.0</ele>
        <time>2013-09-04T15:18:44Z</time>
      </trkpt>
      <trkpt lat="43.089667" lon="-4.687917">
        <ele>1071.0</ele>
        <time>2013-09-04T15:18:45Z</time>
      </trkpt>
      <trkpt lat="43.089700" lon="-4.688033">
        <ele>1071.0</ele>
        <time>2013-09-04T15:18:46Z</time>
      </trkpt>
      <trkpt lat="43.089733" lon="-4.688150">
        <ele>1069.0</ele>
        <time>2013-09-04T15:18:47Z</time>
      </trkpt>
      <trkpt lat="43.089767" lon="-4.688267">
        <ele>1067.0</ele>
        <time>2013-09-04T15:18:48Z</time>
      </trkpt>
      <trkpt lat="43.089817" lon="-4.688383">
        <ele>1066.0</ele>
        <time>2013-09-04T15:18:49Z</time>
      </trkpt>
      <trkpt lat="43.089867" lon="-4.688500">
        <ele>1066.0</ele>
        <time>2013-09-04T15:18:50Z</time>
      </trkpt>
      <trkpt lat="43.089900" lon="-4.688600">
        <ele>1067.0</ele>
        <time>2013-09-04T15:18:51Z</time>
      </trkpt>
      <trkpt lat="43.089933" lon="-4.688700">
        <ele>1068.0</ele>
        <time>2013-09-04T15:18:52Z</time>
      </trkpt>
      <trkpt lat="43.089950" lon="-4.688767">
        <ele>1069.0</ele>
        <time>2013-09-04T15:18:53Z</time>
      </trkpt>
      <trkpt lat="43.089983" lon="-4.688833">
        <ele>1069.0</ele>
        <time>2013-09-04T15:18:54Z</time>
      </trkpt>
      <trkpt lat="43.090033" lon="-4.688917">
        <ele>1068.0</ele>
        <time>2013-09-04T15:18:55Z</time>
      </trkpt>
      <trkpt lat="43.090083" lon="-4.688983">
        <ele>1068.0</ele>
        <time>2013-09-04T15:18:56Z</time>
      </trkpt>
      <trkpt lat="43.090133" lon="-4.689067">
        <ele>1068.0</ele>
        <time>2013-09-04T15:18:57Z</time>
      </trkpt>
      <trkpt lat="43.090183" lon="-4.689133">
        <ele>1068.0</ele>
        <time>2013-09-04T15:18:58Z</time>
      </trkpt>
      <trkpt lat="43.090233" lon="-4.689217">
        <ele>1068.0</ele>
        <time>2013-09-04T15:18:59Z</time>
      </trkpt>
      <trkpt lat="43.090283" lon="-4.689300">
        <ele>1068.0</ele>
        <time>2013-09-04T15:19:00Z</time>
      </trkpt>
      <trkpt lat="43.090350" lon="-4.689367">
        <ele>1069.0</ele>
        <time>2013-09-04T15:19:01Z</time>
      </trkpt>
      <trkpt lat="43.090400" lon="-4.689433">
        <ele>1070.0</ele>
        <time>2013-09-04T15:19:02Z</time>
      </trkpt>
      <trkpt lat="43.090450" lon="-4.689500">
        <ele>1072.0</ele>
        <time>2013-09-04T15:19:03Z</time>
      </trkpt>
      <trkpt lat="43.090483" lon="-4.689550">
        <ele>1073.0</ele>
        <time>2013-09-04T15:19:04Z</time>
      </trkpt>
      <trkpt lat="43.090517" lon="-4.689600">
        <ele>1073.0</ele>
        <time>2013-09-04T15:19:05Z</time>
      </trkpt>
      <trkpt lat="43.090550" lon="-4.689650">
        <ele>1074.0</ele>
        <time>2013-09-04T15:19:06Z</time>
      </trkpt>
      <trkpt lat="43.090583" lon="-4.689717">
        <ele>1074.0</ele>
        <time>2013-09-04T15:19:07Z</time>
      </trkpt>
      <trkpt lat="43.090633" lon="-4.689767">
        <ele>1073.0</ele>
        <time>2013-09-04T15:19:08Z</time>
      </trkpt>
      <trkpt lat="43.090667" lon="-4.689850">
        <ele>1073.0</ele>
        <time>2013-09-04T15:19:09Z</time>
      </trkpt>
      <trkpt lat="43.090700" lon="-4.689950">
        <ele>1072.0</ele>
        <time>2013-09-04T15:19:10Z</time>
      </trkpt>
      <trkpt lat="43.090750" lon="-4.690050">
        <ele>1071.0</ele>
        <time>2013-09-04T15:19:11Z</time>
      </trkpt>
      <trkpt lat="43.090767" lon="-4.690167">
        <ele>1071.0</ele>
        <time>2013-09-04T15:19:12Z</time>
      </trkpt>
      <trkpt lat="43.090783" lon="-4.690267">
        <ele>1070.0</ele>
        <time>2013-09-04T15:19:13Z</time>
      </trkpt>
      <trkpt lat="43.090817" lon="-4.690383">
        <ele>1070.0</ele>
        <time>2013-09-04T15:19:14Z</time>
      </trkpt>
      <trkpt lat="43.090833" lon="-4.690483">
        <ele>1069.0</ele>
        <time>2013-09-04T15:19:15Z</time>
      </trkpt>
      <trkpt lat="43.090867" lon="-4.690600">
        <ele>1068.0</ele>
        <time>2013-09-04T15:19:16Z</time>
      </trkpt>
      <trkpt lat="43.090900" lon="-4.690700">
        <ele>1067.0</ele>
        <time>2013-09-04T15:19:17Z</time>
      </trkpt>
      <trkpt lat="43.090933" lon="-4.690800">
        <ele>1066.0</ele>
        <time>2013-09-04T15:19:18Z</time>
      </trkpt>
      <trkpt lat="43.090950" lon="-4.690917">
        <ele>1065.0</ele>
        <time>2013-09-04T15:19:19Z</time>
      </trkpt>
      <trkpt lat="43.090967" lon="-4.691017">
        <ele>1063.0</ele>
        <time>2013-09-04T15:19:20Z</time>
      </trkpt>
      <trkpt lat="43.091000" lon="-4.691133">
        <ele>1062.0</ele>
        <time>2013-09-04T15:19:21Z</time>
      </trkpt>
      <trkpt lat="43.091033" lon="-4.691233">
        <ele>1062.0</ele>
        <time>2013-09-04T15:19:22Z</time>
      </trkpt>
      <trkpt lat="43.091067" lon="-4.691333">
        <ele>1061.0</ele>
        <time>2013-09-04T15:19:23Z</time>
      </trkpt>
      <trkpt lat="43.091100" lon="-4.691450">
        <ele>1059.0</ele>
        <time>2013-09-04T15:19:24Z</time>
      </trkpt>
      <trkpt lat="43.091117" lon="-4.691600">
        <ele>1058.0</ele>
        <time>2013-09-04T15:19:25Z</time>
      </trkpt>
      <trkpt lat="43.091117" lon="-4.691733">
        <ele>1058.0</ele>
        <time>2013-09-04T15:19:26Z</time>
      </trkpt>
      <trkpt lat="43.091100" lon="-4.691867">
        <ele>1058.0</ele>
        <time>2013-09-04T15:19:27Z</time>
      </trkpt>
      <trkpt lat="43.091100" lon="-4.692000">
        <ele>1057.0</ele>
        <time>2013-09-04T15:19:28Z</time>
      </trkpt>
      <trkpt lat="43.091100" lon="-4.692117">
        <ele>1055.0</ele>
        <time>2013-09-04T15:19:29Z</time>
      </trkpt>
      <trkpt lat="43.091133" lon="-4.692250">
        <ele>1053.0</ele>
        <time>2013-09-04T15:19:30Z</time>
      </trkpt>
      <trkpt lat="43.091150" lon="-4.692367">
        <ele>1053.0</ele>
        <time>2013-09-04T15:19:31Z</time>
      </trkpt>
      <trkpt lat="43.091200" lon="-4.692467">
        <ele>1052.0</ele>
        <time>2013-09-04T15:19:32Z</time>
      </trkpt>
      <trkpt lat="43.091233" lon="-4.692550">
        <ele>1053.0</ele>
        <time>2013-09-04T15:19:33Z</time>
      </trkpt>
      <trkpt lat="43.091267" lon="-4.692617">
        <ele>1053.0</ele>
        <time>2013-09-04T15:19:34Z</time>
      </trkpt>
      <trkpt lat="43.091300" lon="-4.692683">
        <ele>1053.0</ele>
        <time>2013-09-04T15:19:35Z</time>
      </trkpt>
      <trkpt lat="43.091333" lon="-4.692717">
        <ele>1053.0</ele>
        <time>2013-09-04T15:19:36Z</time>
      </trkpt>
      <trkpt lat="43.091367" lon="-4.692767">
        <ele>1053.0</ele>
        <time>2013-09-04T15:19:37Z</time>
      </trkpt>
      <trkpt lat="43.091417" lon="-4.692817">
        <ele>1052.0</ele>
        <time>2013-09-04T15:19:38Z</time>
      </trkpt>
      <trkpt lat="43.091450" lon="-4.692867">
        <ele>1051.0</ele>
        <time>2013-09-04T15:19:39Z</time>
      </trkpt>
      <trkpt lat="43.091500" lon="-4.692900">
        <ele>1049.0</ele>
        <time>2013-09-04T15:19:40Z</time>
      </trkpt>
      <trkpt lat="43.091550" lon="-4.692933">
        <ele>1049.0</ele>
        <time>2013-09-04T15:19:41Z</time>
      </trkpt>
      <trkpt lat="43.091583" lon="-4.692950">
        <ele>1049.0</ele>
        <time>2013-09-04T15:19:42Z</time>
      </trkpt>
      <trkpt lat="43.091617" lon="-4.692983">
        <ele>1050.0</ele>
        <time>2013-09-04T15:19:43Z</time>
      </trkpt>
      <trkpt lat="43.091633" lon="-4.693067">
        <ele>1050.0</ele>
        <time>2013-09-04T15:19:44Z</time>
      </trkpt>
      <trkpt lat="43.091633" lon="-4.693167">
        <ele>1047.0</ele>
        <time>2013-09-04T15:19:45Z</time>
      </trkpt>
      <trkpt lat="43.091633" lon="-4.693317">
        <ele>1045.0</ele>
        <time>2013-09-04T15:19:46Z</time>
      </trkpt>
      <trkpt lat="43.091650" lon="-4.693433">
        <ele>1044.0</ele>
        <time>2013-09-04T15:19:47Z</time>
      </trkpt>
      <trkpt lat="43.091700" lon="-4.693483">
        <ele>1042.0</ele>
        <time>2013-09-04T15:19:48Z</time>
      </trkpt>
      <trkpt lat="43.091750" lon="-4.693433">
        <ele>1039.0</ele>
        <time>2013-09-04T15:19:49Z</time>
      </trkpt>
      <trkpt lat="43.091733" lon="-4.693317">
        <ele>1036.0</ele>
        <time>2013-09-04T15:19:50Z</time>
      </trkpt>
      <trkpt lat="43.091650" lon="-4.693200">
        <ele>1032.0</ele>
        <time>2013-09-04T15:19:51Z</time>
      </trkpt>
      <trkpt lat="43.091483" lon="-4.693183">
        <ele>1028.0</ele>
        <time>2013-09-04T15:19:52Z</time>
      </trkpt>
      <trkpt lat="43.091333" lon="-4.693317">
        <ele>1023.0</ele>
        <time>2013-09-04T15:19:53Z</time>
      </trkpt>
      <trkpt lat="43.091300" lon="-4.693517">
        <ele>1017.0</ele>
        <time>2013-09-04T15:19:54Z</time>
      </trkpt>
      <trkpt lat="43.091367" lon="-4.693650">
        <ele>1011.0</ele>
        <time>2013-09-04T15:19:55Z</time>
      </trkpt>
      <trkpt lat="43.091417" lon="-4.693617">
        <ele>1007.0</ele>
        <time>2013-09-04T15:19:56Z</time>
      </trkpt>
      <trkpt lat="43.091417" lon="-4.693483">
        <ele>1004.0</ele>
        <time>2013-09-04T15:19:57Z</time>
      </trkpt>
      <trkpt lat="43.091300" lon="-4.693367">
        <ele>999.0</ele>
        <time>2013-09-04T15:19:58Z</time>
      </trkpt>
      <trkpt lat="43.091133" lon="-4.693400">
        <ele>995.0</ele>
        <time>2013-09-04T15:19:59Z</time>
      </trkpt>
      <trkpt lat="43.091033" lon="-4.693583">
        <ele>991.0</ele>
        <time>2013-09-04T15:20:00Z</time>
      </trkpt>
      <trkpt lat="43.091033" lon="-4.693767">
        <ele>987.0</ele>
        <time>2013-09-04T15:20:01Z</time>
      </trkpt>
      <trkpt lat="43.091117" lon="-4.693817">
        <ele>985.0</ele>
        <time>2013-09-04T15:20:02Z</time>
      </trkpt>
      <trkpt lat="43.091150" lon="-4.693717">
        <ele>983.0</ele>
        <time>2013-09-04T15:20:03Z</time>
      </trkpt>
      <trkpt lat="43.091117" lon="-4.693600">
        <ele>984.0</ele>
        <time>2013-09-04T15:20:04Z</time>
      </trkpt>
      <trkpt lat="43.091033" lon="-4.693517">
        <ele>985.0</ele>
        <time>2013-09-04T15:20:05Z</time>
      </trkpt>
      <trkpt lat="43.090933" lon="-4.693483">
        <ele>986.0</ele>
        <time>2013-09-04T15:20:06Z</time>
      </trkpt>
      <trkpt lat="43.090900" lon="-4.693450">
        <ele>989.0</ele>
        <time>2013-09-04T15:20:07Z</time>
      </trkpt>
      <trkpt lat="43.090850" lon="-4.693400">
        <ele>991.0</ele>
        <time>2013-09-04T15:20:08Z</time>
      </trkpt>
      <trkpt lat="43.090783" lon="-4.693333">
        <ele>990.0</ele>
        <time>2013-09-04T15:20:09Z</time>
      </trkpt>
      <trkpt lat="43.090733" lon="-4.693217">
        <ele>989.0</ele>
        <time>2013-09-04T15:20:10Z</time>
      </trkpt>
      <trkpt lat="43.090683" lon="-4.693117">
        <ele>990.0</ele>
        <time>2013-09-04T15:20:11Z</time>
      </trkpt>
      <trkpt lat="43.090683" lon="-4.693033">
        <ele>990.0</ele>
        <time>2013-09-04T15:20:12Z</time>
      </trkpt>
      <trkpt lat="43.090700" lon="-4.692967">
        <ele>989.0</ele>
        <time>2013-09-04T15:20:13Z</time>
      </trkpt>
      <trkpt lat="43.090750" lon="-4.692950">
        <ele>986.0</ele>
        <time>2013-09-04T15:20:14Z</time>
      </trkpt>
      <trkpt lat="43.090817" lon="-4.692933">
        <ele>987.0</ele>
        <time>2013-09-04T15:20:15Z</time>
      </trkpt>
      <trkpt lat="43.090850" lon="-4.692933">
        <ele>988.0</ele>
        <time>2013-09-04T15:20:16Z</time>
      </trkpt>
      <trkpt lat="43.090900" lon="-4.692933">
        <ele>988.0</ele>
        <time>2013-09-04T15:20:17Z</time>
      </trkpt>
      <trkpt lat="43.090933" lon="-4.692933">
        <ele>988.0</ele>
        <time>2013-09-04T15:20:18Z</time>
      </trkpt>
      <trkpt lat="43.090983" lon="-4.692933">
        <ele>987.0</ele>
        <time>2013-09-04T15:20:19Z</time>
      </trkpt>
      <trkpt lat="43.091033" lon="-4.692950">
        <ele>986.0</ele>
        <time>2013-09-04T15:20:20Z</time>
      </trkpt>
      <trkpt lat="43.091083" lon="-4.692967">
        <ele>986.0</ele>
        <time>2013-09-04T15:20:21Z</time>
      </trkpt>
      <trkpt lat="43.091150" lon="-4.692983">
        <ele>985.0</ele>
        <time>2013-09-04T15:20:22Z</time>
      </trkpt>
      <trkpt lat="43.091200" lon="-4.693017">
        <ele>985.0</ele>
        <time>2013-09-04T15:20:23Z</time>
      </trkpt>
      <trkpt lat="43.091250" lon="-4.693017">
        <ele>986.0</ele>
        <time>2013-09-04T15:20:24Z</time>
      </trkpt>
      <trkpt lat="43.091317" lon="-4.693033">
        <ele>985.0</ele>
        <time>2013-09-04T15:20:25Z</time>
      </trkpt>
      <trkpt lat="43.091383" lon="-4.693050">
        <ele>985.0</ele>
        <time>2013-09-04T15:20:26Z</time>
      </trkpt>
      <trkpt lat="43.091433" lon="-4.693050">
        <ele>985.0</ele>
        <time>2013-09-04T15:20:27Z</time>
      </trkpt>
      <trkpt lat="43.091483" lon="-4.693067">
        <ele>985.0</ele>
        <time>2013-09-04T15:20:28Z</time>
      </trkpt>
      <trkpt lat="43.091517" lon="-4.693100">
        <ele>984.0</ele>
        <time>2013-09-04T15:20:29Z</time>
      </trkpt>
      <trkpt lat="43.091567" lon="-4.693117">
        <ele>982.0</ele>
        <time>2013-09-04T15:20:30Z</time>
      </trkpt>
      <trkpt lat="43.091600" lon="-4.693150">
        <ele>980.0</ele>
        <time>2013-09-04T15:20:31Z</time>
      </trkpt>
      <trkpt lat="43.091650" lon="-4.693150">
        <ele>978.0</ele>
        <time>2013-09-04T15:20:32Z</time>
      </trkpt>
      <trkpt lat="43.091700" lon="-4.693150">
        <ele>976.0</ele>
        <time>2013-09-04T15:20:33Z</time>
      </trkpt>
      <trkpt lat="43.091750" lon="-4.693133">
        <ele>974.0</ele>
        <time>2013-09-04T15:20:34Z</time>
      </trkpt>
      <trkpt lat="43.091800" lon="-4.693117">
        <ele>973.0</ele>
        <time>2013-09-04T15:20:35Z</time>
      </trkpt>
      <trkpt lat="43.091850" lon="-4.693083">
        <ele>971.0</ele>
        <time>2013-09-04T15:20:36Z</time>
      </trkpt>
      <trkpt lat="43.091917" lon="-4.693083">
        <ele>968.0</ele>
        <time>2013-09-04T15:20:37Z</time>
      </trkpt>
      <trkpt lat="43.091967" lon="-4.693083">
        <ele>966.0</ele>
        <time>2013-09-04T15:20:38Z</time>
      </trkpt>
      <trkpt lat="43.092033" lon="-4.693100">
        <ele>964.0</ele>
        <time>2013-09-04T15:20:39Z</time>
      </trkpt>
      <trkpt lat="43.092083" lon="-4.693083">
        <ele>963.0</ele>
        <time>2013-09-04T15:20:40Z</time>
      </trkpt>
      <trkpt lat="43.092150" lon="-4.693067">
        <ele>963.0</ele>
        <time>2013-09-04T15:20:41Z</time>
      </trkpt>
      <trkpt lat="43.092200" lon="-4.693050">
        <ele>962.0</ele>
        <time>2013-09-04T15:20:42Z</time>
      </trkpt>
      <trkpt lat="43.092250" lon="-4.693033">
        <ele>961.0</ele>
        <time>2013-09-04T15:20:43Z</time>
      </trkpt>
      <trkpt lat="43.092300" lon="-4.693033">
        <ele>959.0</ele>
        <time>2013-09-04T15:20:44Z</time>
      </trkpt>
      <trkpt lat="43.092367" lon="-4.693033">
        <ele>956.0</ele>
        <time>2013-09-04T15:20:45Z</time>
      </trkpt>
      <trkpt lat="43.092433" lon="-4.693017">
        <ele>953.0</ele>
        <time>2013-09-04T15:20:46Z</time>
      </trkpt>
      <trkpt lat="43.092500" lon="-4.693000">
        <ele>950.0</ele>
        <time>2013-09-04T15:20:47Z</time>
      </trkpt>
      <trkpt lat="43.092567" lon="-4.692983">
        <ele>947.0</ele>
        <time>2013-09-04T15:20:48Z</time>
      </trkpt>
      <trkpt lat="43.092633" lon="-4.692950">
        <ele>944.0</ele>
        <time>2013-09-04T15:20:49Z</time>
      </trkpt>
      <trkpt lat="43.092700" lon="-4.692917">
        <ele>941.0</ele>
        <time>2013-09-04T15:20:50Z</time>
      </trkpt>
      <trkpt lat="43.092750" lon="-4.692900">
        <ele>941.0</ele>
        <time>2013-09-04T15:20:51Z</time>
      </trkpt>
      <trkpt lat="43.092800" lon="-4.692883">
        <ele>941.0</ele>
        <time>2013-09-04T15:20:52Z</time>
      </trkpt>
      <trkpt lat="43.092850" lon="-4.692900">
        <ele>940.0</ele>
        <time>2013-09-04T15:20:53Z</time>
      </trkpt>
      <trkpt lat="43.092867" lon="-4.692900">
        <ele>939.0</ele>
        <time>2013-09-04T15:20:54Z</time>
      </trkpt>
      <trkpt lat="43.092883" lon="-4.692900">
        <ele>936.0</ele>
        <time>2013-09-04T15:20:55Z</time>
      </trkpt>
      <trkpt lat="43.092933" lon="-4.692900">
        <ele>931.0</ele>
        <time>2013-09-04T15:20:56Z</time>
      </trkpt>
      <trkpt lat="43.093017" lon="-4.692917">
        <ele>925.0</ele>
        <time>2013-09-04T15:20:57Z</time>
      </trkpt>
      <trkpt lat="43.093100" lon="-4.692917">
        <ele>921.0</ele>
        <time>2013-09-04T15:20:58Z</time>
      </trkpt>
      <trkpt lat="43.093200" lon="-4.692933">
        <ele>921.0</ele>
        <time>2013-09-04T15:20:59Z</time>
      </trkpt>
      <trkpt lat="43.093283" lon="-4.692967">
        <ele>923.0</ele>
        <time>2013-09-04T15:21:00Z</time>
      </trkpt>
      <trkpt lat="43.093350" lon="-4.693000">
        <ele>923.0</ele>
        <time>2013-09-04T15:21:01Z</time>
      </trkpt>
      <trkpt lat="43.093400" lon="-4.693033">
        <ele>922.0</ele>
        <time>2013-09-04T15:21:02Z</time>
      </trkpt>
      <trkpt lat="43.093450" lon="-4.693067">
        <ele>920.0</ele>
        <time>2013-09-04T15:21:03Z</time>
      </trkpt>
      <trkpt lat="43.093500" lon="-4.693100">
        <ele>918.0</ele>
        <time>2013-09-04T15:21:04Z</time>
      </trkpt>
      <trkpt lat="43.093567" lon="-4.693133">
        <ele>916.0</ele>
        <time>2013-09-04T15:21:05Z</time>
      </trkpt>
      <trkpt lat="43.093617" lon="-4.693183">
        <ele>916.0</ele>
        <time>2013-09-04T15:21:06Z</time>
      </trkpt>
      <trkpt lat="43.093633" lon="-4.693233">
        <ele>914.0</ele>
        <time>2013-09-04T15:21:07Z</time>
      </trkpt>
      <trkpt lat="43.093667" lon="-4.693283">
        <ele>912.0</ele>
        <time>2013-09-04T15:21:08Z</time>
      </trkpt>
      <trkpt lat="43.093683" lon="-4.693300">
        <ele>908.0</ele>
        <time>2013-09-04T15:21:09Z</time>
      </trkpt>
      <trkpt lat="43.093733" lon="-4.693283">
        <ele>903.0</ele>
        <time>2013-09-04T15:21:10Z</time>
      </trkpt>
      <trkpt lat="43.093767" lon="-4.693267">
        <ele>899.0</ele>
        <time>2013-09-04T15:21:11Z</time>
      </trkpt>
      <trkpt lat="43.093817" lon="-4.693250">
        <ele>896.0</ele>
        <time>2013-09-04T15:21:12Z</time>
      </trkpt>
      <trkpt lat="43.093850" lon="-4.693233">
        <ele>894.0</ele>
        <time>2013-09-04T15:21:13Z</time>
      </trkpt>
      <trkpt lat="43.093883" lon="-4.693217">
        <ele>890.0</ele>
        <time>2013-09-04T15:21:14Z</time>
      </trkpt>
      <trkpt lat="43.093933" lon="-4.693200">
        <ele>887.0</ele>
        <time>2013-09-04T15:21:15Z</time>
      </trkpt>
      <trkpt lat="43.093983" lon="-4.693183">
        <ele>883.0</ele>
        <time>2013-09-04T15:21:16Z</time>
      </trkpt>
      <trkpt lat="43.094050" lon="-4.693167">
        <ele>879.0</ele>
        <time>2013-09-04T15:21:17Z</time>
      </trkpt>
      <trkpt lat="43.094133" lon="-4.693167">
        <ele>875.0</ele>
        <time>2013-09-04T15:21:18Z</time>
      </trkpt>
      <trkpt lat="43.094217" lon="-4.693167">
        <ele>872.0</ele>
        <time>2013-09-04T15:21:19Z</time>
      </trkpt>
      <trkpt lat="43.094283" lon="-4.693150">
        <ele>871.0</ele>
        <time>2013-09-04T15:21:20Z</time>
      </trkpt>
      <trkpt lat="43.094350" lon="-4.693117">
        <ele>872.0</ele>
        <time>2013-09-04T15:21:21Z</time>
      </trkpt>
      <trkpt lat="43.094383" lon="-4.693083">
        <ele>872.0</ele>
        <time>2013-09-04T15:21:22Z</time>
      </trkpt>
      <trkpt lat="43.094417" lon="-4.693067">
        <ele>872.0</ele>
        <time>2013-09-04T15:21:23Z</time>
      </trkpt>
      <trkpt lat="43.094433" lon="-4.693083">
        <ele>869.0</ele>
        <time>2013-09-04T15:21:24Z</time>
      </trkpt>
      <trkpt lat="43.094483" lon="-4.693117">
        <ele>865.0</ele>
        <time>2013-09-04T15:21:25Z</time>
      </trkpt>
      <trkpt lat="43.094533" lon="-4.693133">
        <ele>862.0</ele>
        <time>2013-09-04T15:21:26Z</time>
      </trkpt>
      <trkpt lat="43.094600" lon="-4.693117">
        <ele>858.0</ele>
        <time>2013-09-04T15:21:27Z</time>
      </trkpt>
      <trkpt lat="43.094650" lon="-4.693050">
        <ele>857.0</ele>
        <time>2013-09-04T15:21:28Z</time>
      </trkpt>
      <trkpt lat="43.094700" lon="-4.692983">
        <ele>857.0</ele>
        <time>2013-09-04T15:21:29Z</time>
      </trkpt>
      <trkpt lat="43.094733" lon="-4.692933">
        <ele>857.0</ele>
        <time>2013-09-04T15:21:30Z</time>
      </trkpt>
      <trkpt lat="43.094783" lon="-4.692917">
        <ele>857.0</ele>
        <time>2013-09-04T15:21:31Z</time>
      </trkpt>
      <trkpt lat="43.094833" lon="-4.692917">
        <ele>855.0</ele>
        <time>2013-09-04T15:21:32Z</time>
      </trkpt>
      <trkpt lat="43.094900" lon="-4.692900">
        <ele>852.0</ele>
        <time>2013-09-04T15:21:33Z</time>
      </trkpt>
      <trkpt lat="43.094950" lon="-4.692850">
        <ele>849.0</ele>
        <time>2013-09-04T15:21:34Z</time>
      </trkpt>
      <trkpt lat="43.094983" lon="-4.692800">
        <ele>845.0</ele>
        <time>2013-09-04T15:21:35Z</time>
      </trkpt>
      <trkpt lat="43.095033" lon="-4.692733">
        <ele>842.0</ele>
        <time>2013-09-04T15:21:36Z</time>
      </trkpt>
      <trkpt lat="43.095083" lon="-4.692650">
        <ele>839.0</ele>
        <time>2013-09-04T15:21:37Z</time>
      </trkpt>
      <trkpt lat="43.095117" lon="-4.692567">
        <ele>837.0</ele>
        <time>2013-09-04T15:21:38Z</time>
      </trkpt>
      <trkpt lat="43.095167" lon="-4.692500">
        <ele>833.0</ele>
        <time>2013-09-04T15:21:39Z</time>
      </trkpt>
      <trkpt lat="43.095217" lon="-4.692433">
        <ele>830.0</ele>
        <time>2013-09-04T15:21:40Z</time>
      </trkpt>
      <trkpt lat="43.095250" lon="-4.692367">
        <ele>825.0</ele>
        <time>2013-09-04T15:21:41Z</time>
      </trkpt>
      <trkpt lat="43.095267" lon="-4.692283">
        <ele>820.0</ele>
        <time>2013-09-04T15:21:42Z</time>
      </trkpt>
      <trkpt lat="43.095283" lon="-4.692200">
        <ele>816.0</ele>
        <time>2013-09-04T15:21:43Z</time>
      </trkpt>
      <trkpt lat="43.095300" lon="-4.692117">
        <ele>811.0</ele>
        <time>2013-09-04T15:21:44Z</time>
      </trkpt>
      <trkpt lat="43.095317" lon="-4.692033">
        <ele>808.0</ele>
        <time>2013-09-04T15:21:45Z</time>
      </trkpt>
      <trkpt lat="43.095333" lon="-4.691917">
        <ele>805.0</ele>
        <time>2013-09-04T15:21:46Z</time>
      </trkpt>
      <trkpt lat="43.095350" lon="-4.691817">
        <ele>802.0</ele>
        <time>2013-09-04T15:21:47Z</time>
      </trkpt>
      <trkpt lat="43.095367" lon="-4.691717">
        <ele>799.0</ele>
        <time>2013-09-04T15:21:48Z</time>
      </trkpt>
      <trkpt lat="43.095400" lon="-4.691650">
        <ele>797.0</ele>
        <time>2013-09-04T15:21:49Z</time>
      </trkpt>
      <trkpt lat="43.095417" lon="-4.691600">
        <ele>800.0</ele>
        <time>2013-09-04T15:21:50Z</time>
      </trkpt>
      <trkpt lat="43.095417" lon="-4.691600">
        <ele>800.0</ele>
        <time>2013-09-04T15:21:51Z</time>
      </trkpt>
      <trkpt lat="43.095417" lon="-4.691600">
        <ele>800.0</ele>
        <time>2013-09-04T15:21:52Z</time>
      </trkpt>
      <trkpt lat="43.095433" lon="-4.691600">
        <ele>800.0</ele>
        <time>2013-09-04T15:21:53Z</time>
      </trkpt>
      <trkpt lat="43.095417" lon="-4.691600">
        <ele>800.0</ele>
        <time>2013-09-04T15:21:54Z</time>
      </trkpt>
      <trkpt lat="43.095417" lon="-4.691600">
        <ele>800.0</ele>
        <time>2013-09-04T15:21:55Z</time>
      </trkpt>
      <trkpt lat="43.095417" lon="-4.691600">
        <ele>800.0</ele>
        <time>2013-09-04T15:21:56Z</time>
      </trkpt>
      <trkpt lat="43.095417" lon="-4.691600">
        <ele>799.0</ele>
        <time>2013-09-04T15:21:57Z</time>
      </trkpt>
      <trkpt lat="43.095433" lon="-4.691600">
        <ele>799.0</ele>
        <time>2013-09-04T15:21:58Z</time>
      </trkpt>
      <trkpt lat="43.095417" lon="-4.691600">
        <ele>799.0</ele>
        <time>2013-09-04T15:21:59Z</time>
      </trkpt>
      <trkpt lat="43.095433" lon="-4.691617">
        <ele>799.0</ele>
        <time>2013-09-04T15:22:00Z</time>
      </trkpt>
      <trkpt lat="43.095417" lon="-4.691617">
        <ele>799.0</ele>
        <time>2013-09-04T15:22:01Z</time>
      </trkpt>
      <trkpt lat="43.095417" lon="-4.691600">
        <ele>799.0</ele>
        <time>2013-09-04T15:22:02Z</time>
      </trkpt>
      <trkpt lat="43.095417" lon="-4.691600">
        <ele>799.0</ele>
        <time>2013-09-04T15:22:03Z</time>
      </trkpt>
      <trkpt lat="43.095417" lon="-4.691600">
        <ele>799.0</ele>
        <time>2013-09-04T15:22:04Z</time>
      </trkpt>
      <trkpt lat="43.095417" lon="-4.691600">
        <ele>799.0</ele>
        <time>2013-09-04T15:22:05Z</time>
      </trkpt>
      <trkpt lat="43.095417" lon="-4.691600">
        <ele>799.0</ele>
        <time>2013-09-04T15:22:06Z</time>
      </trkpt>
      <trkpt lat="43.095417" lon="-4.691600">
        <ele>798.0</ele>
        <time>2013-09-04T15:22:07Z</time>
      </trkpt>
      <trkpt lat="43.095417" lon="-4.691600">
        <ele>798.0</ele>
        <time>2013-09-04T15:22:08Z</time>
      </trkpt>
      <trkpt lat="43.095417" lon="-4.691600">
        <ele>798.0</ele>
        <time>2013-09-04T15:22:09Z</time>
      </trkpt>
      <trkpt lat="43.095417" lon="-4.691600">
        <ele>798.0</ele>
        <time>2013-09-04T15:22:10Z</time>
      </trkpt>
      <trkpt lat="43.095417" lon="-4.691600">
        <ele>798.0</ele>
        <time>2013-09-04T15:22:11Z</time>
      </trkpt>
      <trkpt lat="43.095417" lon="-4.691600">
        <ele>797.0</ele>
        <time>2013-09-04T15:22:12Z</time>
      </trkpt>
      <trkpt lat="43.095417" lon="-4.691600">
        <ele>797.0</ele>
        <time>2013-09-04T15:22:13Z</time>
      </trkpt>
      <trkpt lat="43.095417" lon="-4.691600">
        <ele>797.0</ele>
        <time>2013-09-04T15:22:14Z</time>
      </trkpt>
      <trkpt lat="43.095417" lon="-4.691600">
        <ele>797.0</ele>
        <time>2013-09-04T15:22:15Z</time>
      </trkpt>
      <trkpt lat="43.095417" lon="-4.691600">
        <ele>797.0</ele>
        <time>2013-09-04T15:22:16Z</time>
      </trkpt>
      <trkpt lat="43.095417" lon="-4.691600">
        <ele>797.0</ele>
        <time>2013-09-04T15:22:17Z</time>
      </trkpt>
      <trkpt lat="43.095417" lon="-4.691617">
        <ele>797.0</ele>
        <time>2013-09-04T15:22:18Z</time>
      </trkpt>
      <trkpt lat="43.095433" lon="-4.691617">
        <ele>797.0</ele>
        <time>2013-09-04T15:22:19Z</time>
      </trkpt>
      <trkpt lat="43.095417" lon="-4.691600">
        <ele>797.0</ele>
        <time>2013-09-04T15:22:20Z</time>
      </trkpt>
      <trkpt lat="43.095417" lon="-4.691617">
        <ele>797.0</ele>
        <time>2013-09-04T15:22:21Z</time>
      </trkpt>
      <trkpt lat="43.095417" lon="-4.691600">
        <ele>797.0</ele>
        <time>2013-09-04T15:22:22Z</time>
      </trkpt>
      <trkpt lat="43.095417" lon="-4.691600">
        <ele>796.0</ele>
        <time>2013-09-04T15:22:23Z</time>
      </trkpt>
      <trkpt lat="43.095417" lon="-4.691600">
        <ele>796.0</ele>
        <time>2013-09-04T15:22:24Z</time>
      </trkpt>
      <trkpt lat="43.095417" lon="-4.691600">
        <ele>796.0</ele>
        <time>2013-09-04T15:22:25Z</time>
      </trkpt>
      <trkpt lat="43.095417" lon="-4.691600">
        <ele>796.0</ele>
        <time>2013-09-04T15:22:26Z</time>
      </trkpt>
      <trkpt lat="43.095417" lon="-4.691600">
        <ele>796.0</ele>
        <time>2013-09-04T15:22:27Z</time>
      </trkpt>
      <trkpt lat="43.095417" lon="-4.691600">
        <ele>797.0</ele>
        <time>2013-09-04T15:22:28Z</time>
      </trkpt>
      <trkpt lat="43.095400" lon="-4.691600">
        <ele>797.0</ele>
        <time>2013-09-04T15:22:29Z</time>
      </trkpt>
      <trkpt lat="43.095400" lon="-4.691600">
        <ele>797.0</ele>
        <time>2013-09-04T15:22:30Z</time>
      </trkpt>
      <trkpt lat="43.095400" lon="-4.691600">
        <ele>797.0</ele>
        <time>2013-09-04T15:22:31Z</time>
      </trkpt>
      <trkpt lat="43.095417" lon="-4.691600">
        <ele>796.0</ele>
        <time>2013-09-04T15:22:32Z</time>
      </trkpt>
      <trkpt lat="43.095417" lon="-4.691600">
        <ele>796.0</ele>
        <time>2013-09-04T15:22:33Z</time>
      </trkpt>
      <trkpt lat="43.095417" lon="-4.691600">
        <ele>796.0</ele>
        <time>2013-09-04T15:22:34Z</time>
      </trkpt>
      <trkpt lat="43.095433" lon="-4.691617">
        <ele>796.0</ele>
        <time>2013-09-04T15:22:35Z</time>
      </trkpt>
      <trkpt lat="43.095433" lon="-4.691617">
        <ele>796.0</ele>
        <time>2013-09-04T15:22:36Z</time>
      </trkpt>
      <trkpt lat="43.095433" lon="-4.691633">
        <ele>797.0</ele>
        <time>2013-09-04T15:22:37Z</time>
      </trkpt>
      <trkpt lat="43.095417" lon="-4.691617">
        <ele>796.0</ele>
        <time>2013-09-04T15:22:38Z</time>
      </trkpt>
      <trkpt lat="43.095417" lon="-4.691633">
        <ele>796.0</ele>
        <time>2013-09-04T15:22:39Z</time>
      </trkpt>
      <trkpt lat="43.095433" lon="-4.691633">
        <ele>796.0</ele>
        <time>2013-09-04T15:22:40Z</time>
      </trkpt>
      <trkpt lat="43.095417" lon="-4.691633">
        <ele>796.0</ele>
        <time>2013-09-04T15:22:41Z</time>
      </trkpt>
      <trkpt lat="43.095417" lon="-4.691633">
        <ele>796.0</ele>
        <time>2013-09-04T15:22:42Z</time>
      </trkpt>
      <trkpt lat="43.095433" lon="-4.691633">
        <ele>796.0</ele>
        <time>2013-09-04T15:22:43Z</time>
      </trkpt>
      <trkpt lat="43.095433" lon="-4.691633">
        <ele>796.0</ele>
        <time>2013-09-04T15:22:44Z</time>
      </trkpt>
      <trkpt lat="43.095417" lon="-4.691650">
        <ele>795.0</ele>
        <time>2013-09-04T15:22:45Z</time>
      </trkpt>
      <trkpt lat="43.095417" lon="-4.691650">
        <ele>795.0</ele>
        <time>2013-09-04T15:22:46Z</time>
      </trkpt>
      <trkpt lat="43.095417" lon="-4.691650">
        <ele>795.0</ele>
        <time>2013-09-04T15:22:47Z</time>
      </trkpt>
      <trkpt lat="43.095417" lon="-4.691650">
        <ele>795.0</ele>
        <time>2013-09-04T15:22:48Z</time>
      </trkpt>
      <trkpt lat="43.095433" lon="-4.691650">
        <ele>795.0</ele>
        <time>2013-09-04T15:22:49Z</time>
      </trkpt>
      <trkpt lat="43.095433" lon="-4.691633">
        <ele>795.0</ele>
        <time>2013-09-04T15:22:50Z</time>
      </trkpt>
      <trkpt lat="43.095450" lon="-4.691633">
        <ele>795.0</ele>
        <time>2013-09-04T15:22:51Z</time>
      </trkpt>
      <trkpt lat="43.095450" lon="-4.691633">
        <ele>795.0</ele>
        <time>2013-09-04T15:22:52Z</time>
      </trkpt>
      <trkpt lat="43.095450" lon="-4.691617">
        <ele>795.0</ele>
        <time>2013-09-04T15:22:53Z</time>
      </trkpt>
      <trkpt lat="43.095450" lon="-4.691617">
        <ele>795.0</ele>
        <time>2013-09-04T15:22:54Z</time>
      </trkpt>
      <trkpt lat="43.095433" lon="-4.691617">
        <ele>794.0</ele>
        <time>2013-09-04T15:22:55Z</time>
      </trkpt>
      <trkpt lat="43.095450" lon="-4.691617">
        <ele>794.0</ele>
        <time>2013-09-04T15:22:56Z</time>
      </trkpt>
      <trkpt lat="43.095433" lon="-4.691617">
        <ele>794.0</ele>
        <time>2013-09-04T15:22:57Z</time>
      </trkpt>
      <trkpt lat="43.095433" lon="-4.691617">
        <ele>794.0</ele>
        <time>2013-09-04T15:22:58Z</time>
      </trkpt>
      <trkpt lat="43.095433" lon="-4.691617">
        <ele>794.0</ele>
        <time>2013-09-04T15:22:59Z</time>
      </trkpt>
      <trkpt lat="43.095417" lon="-4.691617">
        <ele>794.0</ele>
        <time>2013-09-04T15:23:00Z</time>
      </trkpt>
      <trkpt lat="43.095417" lon="-4.691617">
        <ele>794.0</ele>
        <time>2013-09-04T15:23:01Z</time>
      </trkpt>
      <trkpt lat="43.095417" lon="-4.691617">
        <ele>794.0</ele>
        <time>2013-09-04T15:23:02Z</time>
      </trkpt>
      <trkpt lat="43.095433" lon="-4.691617">
        <ele>794.0</ele>
        <time>2013-09-04T15:23:03Z</time>
      </trkpt>
      <trkpt lat="43.095433" lon="-4.691617">
        <ele>794.0</ele>
        <time>2013-09-04T15:23:04Z</time>
      </trkpt>
      <trkpt lat="43.095417" lon="-4.691617">
        <ele>794.0</ele>
        <time>2013-09-04T15:23:05Z</time>
      </trkpt>
      <trkpt lat="43.095400" lon="-4.691600">
        <ele>794.0</ele>
        <time>2013-09-04T15:23:06Z</time>
      </trkpt>
      <trkpt lat="43.095417" lon="-4.691600">
        <ele>794.0</ele>
        <time>2013-09-04T15:23:07Z</time>
      </trkpt>
      <trkpt lat="43.095417" lon="-4.691617">
        <ele>795.0</ele>
        <time>2013-09-04T15:23:08Z</time>
      </trkpt>
      <trkpt lat="43.095417" lon="-4.691617">
        <ele>795.0</ele>
        <time>2013-09-04T15:23:09Z</time>
      </trkpt>
      <trkpt lat="43.095417" lon="-4.691617">
        <ele>795.0</ele>
        <time>2013-09-04T15:23:10Z</time>
      </trkpt>
      <trkpt lat="43.095417" lon="-4.691600">
        <ele>795.0</ele>
        <time>2013-09-04T15:23:11Z</time>
      </trkpt>
      <trkpt lat="43.095417" lon="-4.691600">
        <ele>795.0</ele>
        <time>2013-09-04T15:23:12Z</time>
      </trkpt>
      <trkpt lat="43.095417" lon="-4.691600">
        <ele>795.0</ele>
        <time>2013-09-04T15:23:13Z</time>
      </trkpt>
      <trkpt lat="43.095417" lon="-4.691600">
        <ele>795.0</ele>
        <time>2013-09-04T15:23:14Z</time>
      </trkpt>
      <trkpt lat="43.095417" lon="-4.691600">
        <ele>795.0</ele>
        <time>2013-09-04T15:23:15Z</time>
      </trkpt>
      <trkpt lat="43.095417" lon="-4.691600">
        <ele>795.0</ele>
        <time>2013-09-04T15:23:16Z</time>
      </trkpt>
      <trkpt lat="43.095417" lon="-4.691600">
        <ele>795.0</ele>
        <time>2013-09-04T15:23:17Z</time>
      </trkpt>
      <trkpt lat="43.095417" lon="-4.691600">
        <ele>795.0</ele>
        <time>2013-09-04T15:23:18Z</time>
      </trkpt>
      <trkpt lat="43.095417" lon="-4.691600">
        <ele>795.0</ele>
        <time>2013-09-04T15:23:19Z</time>
      </trkpt>
      <trkpt lat="43.095400" lon="-4.691600">
        <ele>795.0</ele>
        <time>2013-09-04T15:23:20Z</time>
      </trkpt>
      <trkpt lat="43.095400" lon="-4.691600">
        <ele>795.0</ele>
        <time>2013-09-04T15:23:21Z</time>
      </trkpt>
      <trkpt lat="43.095417" lon="-4.691600">
        <ele>795.0</ele>
        <time>2013-09-04T15:23:22Z</time>
      </trkpt>
      <trkpt lat="43.095417" lon="-4.691617">
        <ele>795.0</ele>
        <time>2013-09-04T15:23:23Z</time>
      </trkpt>
      <trkpt lat="43.095433" lon="-4.691617">
        <ele>795.0</ele>
        <time>2013-09-04T15:23:24Z</time>
      </trkpt>
      <trkpt lat="43.095433" lon="-4.691617">
        <ele>795.0</ele>
        <time>2013-09-04T15:23:25Z</time>
      </trkpt>
      <trkpt lat="43.095450" lon="-4.691617">
        <ele>796.0</ele>
        <time>2013-09-04T15:23:26Z</time>
      </trkpt>
      <trkpt lat="43.095433" lon="-4.691617">
        <ele>796.0</ele>
        <time>2013-09-04T15:23:27Z</time>
      </trkpt>
      <trkpt lat="43.095450" lon="-4.691617">
        <ele>796.0</ele>
        <time>2013-09-04T15:23:28Z</time>
      </trkpt>
      <trkpt lat="43.095433" lon="-4.691617">
        <ele>796.0</ele>
        <time>2013-09-04T15:23:29Z</time>
      </trkpt>
      <trkpt lat="43.095450" lon="-4.691600">
        <ele>796.0</ele>
        <time>2013-09-04T15:23:30Z</time>
      </trkpt>
      <trkpt lat="43.095450" lon="-4.691617">
        <ele>796.0</ele>
        <time>2013-09-04T15:23:31Z</time>
      </trkpt>
      <trkpt lat="43.095450" lon="-4.691600">
        <ele>796.0</ele>
        <time>2013-09-04T15:23:32Z</time>
      </trkpt>
      <trkpt lat="43.095450" lon="-4.691600">
        <ele>796.0</ele>
        <time>2013-09-04T15:23:33Z</time>
      </trkpt>
      <trkpt lat="43.095433" lon="-4.691600">
        <ele>795.0</ele>
        <time>2013-09-04T15:23:34Z</time>
      </trkpt>
      <trkpt lat="43.095417" lon="-4.691600">
        <ele>796.0</ele>
        <time>2013-09-04T15:23:35Z</time>
      </trkpt>
      <trkpt lat="43.095417" lon="-4.691600">
        <ele>796.0</ele>
        <time>2013-09-04T15:23:36Z</time>
      </trkpt>
      <trkpt lat="43.095417" lon="-4.691600">
        <ele>796.0</ele>
        <time>2013-09-04T15:23:37Z</time>
      </trkpt>
      <trkpt lat="43.095433" lon="-4.691600">
        <ele>796.0</ele>
        <time>2013-09-04T15:23:38Z</time>
      </trkpt>
      <trkpt lat="43.095433" lon="-4.691600">
        <ele>796.0</ele>
        <time>2013-09-04T15:23:39Z</time>
      </trkpt>
      <trkpt lat="43.095433" lon="-4.691600">
        <ele>796.0</ele>
        <time>2013-09-04T15:23:40Z</time>
      </trkpt>
      <trkpt lat="43.095450" lon="-4.691600">
        <ele>796.0</ele>
        <time>2013-09-04T15:23:41Z</time>
      </trkpt>
      <trkpt lat="43.095450" lon="-4.691600">
        <ele>796.0</ele>
        <time>2013-09-04T15:23:42Z</time>
      </trkpt>
      <trkpt lat="43.095433" lon="-4.691600">
        <ele>796.0</ele>
        <time>2013-09-04T15:23:43Z</time>
      </trkpt>
      <trkpt lat="43.095450" lon="-4.691617">
        <ele>796.0</ele>
        <time>2013-09-04T15:23:44Z</time>
      </trkpt>
      <trkpt lat="43.095467" lon="-4.691617">
        <ele>796.0</ele>
        <time>2013-09-04T15:23:45Z</time>
      </trkpt>
      <trkpt lat="43.095467" lon="-4.691617">
        <ele>796.0</ele>
        <time>2013-09-04T15:23:46Z</time>
      </trkpt>
      <trkpt lat="43.095467" lon="-4.691617">
        <ele>796.0</ele>
        <time>2013-09-04T15:23:47Z</time>
      </trkpt>
      <trkpt lat="43.095483" lon="-4.691617">
        <ele>796.0</ele>
        <time>2013-09-04T15:23:48Z</time>
      </trkpt>
      <trkpt lat="43.095483" lon="-4.691617">
        <ele>796.0</ele>
        <time>2013-09-04T15:23:49Z</time>
      </trkpt>
      <trkpt lat="43.095483" lon="-4.691617">
        <ele>796.0</ele>
        <time>2013-09-04T15:23:50Z</time>
      </trkpt>
      <trkpt lat="43.095483" lon="-4.691617">
        <ele>796.0</ele>
        <time>2013-09-04T15:23:51Z</time>
      </trkpt>
      <trkpt lat="43.095483" lon="-4.691617">
        <ele>796.0</ele>
        <time>2013-09-04T15:23:52Z</time>
      </trkpt>
      <trkpt lat="43.095500" lon="-4.691617">
        <ele>796.0</ele>
        <time>2013-09-04T15:23:53Z</time>
      </trkpt>
      <trkpt lat="43.095500" lon="-4.691617">
        <ele>797.0</ele>
        <time>2013-09-04T15:23:54Z</time>
      </trkpt>
    </trkseg>
  </trk>
</gpx>
